<?xml version='1.0' encoding='UTF-8'?><gpx version="1.1" creator="JPX - https://github.com/jenetics/jpx" xmlns="http://www.topografix.com/GPX/1/1"><trk><trkseg><trkpt lat="44.28679734264568" lon="11.207390776027287"><ele>206.00000000000003</ele><time>2026-05-03T06:16:44Z</time></trkpt><trkpt lat="44.28667991883033" lon="11.207357270499786"><ele>206.0</ele><time>2026-05-03T06:16:47Z</time></trkpt><trkpt lat="44.28660587278124" lon="11.207333250331327"><ele>206.0</ele><time>2026-05-03T06:16:48Z</time></trkpt><trkpt lat="44.28652468695926" lon="11.207323969018827"><ele>206.0</ele><time>2026-05-03T06:16:49Z</time></trkpt><trkpt lat="44.28645674021015" lon="11.207323648002498"><ele>206.00000000000003</ele><time>2026-05-03T06:16:50Z</time></trkpt><trkpt lat="44.28638931845556" lon="11.207323886787279"><ele>206.0</ele><time>2026-05-03T06:16:51Z</time></trkpt><trkpt lat="44.28632426747409" lon="11.207332159360606"><ele>206.66666666666669</ele><time>2026-05-03T06:16:52Z</time></trkpt><trkpt lat="44.28625282816226" lon="11.207346707214251"><ele>207.33333333333334</ele><time>2026-05-03T06:16:53Z</time></trkpt><trkpt lat="44.286175414296146" lon="11.207361638094918"><ele>208.0</ele><time>2026-05-03T06:16:54Z</time></trkpt><trkpt lat="44.28610148508849" lon="11.207377488942218"><ele>208.66666666666669</ele><time>2026-05-03T06:16:55Z</time></trkpt><trkpt lat="44.28603755696406" lon="11.207382133409702"><ele>209.33333333333334</ele><time>2026-05-03T06:16:56Z</time></trkpt><trkpt lat="44.28594533917225" lon="11.20735336934413"><ele>210.0</ele><time>2026-05-03T06:16:58Z</time></trkpt><trkpt lat="44.28588299745446" lon="11.207251239501732"><ele>210.0</ele><time>2026-05-03T06:17:00Z</time></trkpt><trkpt lat="44.28580330651558" lon="11.207133197297912"><ele>210.0</ele><time>2026-05-03T06:17:02Z</time></trkpt><trkpt lat="44.285755430282876" lon="11.207066580029073"><ele>210.0</ele><time>2026-05-03T06:17:03Z</time></trkpt><trkpt lat="44.285726529254624" lon="11.206975847406564"><ele>210.0</ele><time>2026-05-03T06:17:04Z</time></trkpt><trkpt lat="44.285706486461294" lon="11.206868612443492"><ele>210.0</ele><time>2026-05-03T06:17:05Z</time></trkpt><trkpt lat="44.285671019135584" lon="11.206725619618815"><ele>210.0</ele><time>2026-05-03T06:17:07Z</time></trkpt><trkpt lat="44.28558539771935" lon="11.206696617631954"><ele>212.16666666666666</ele><time>2026-05-03T06:17:09Z</time></trkpt><trkpt lat="44.285470949109595" lon="11.20671827950516"><ele>214.33333333333331</ele><time>2026-05-03T06:17:11Z</time></trkpt><trkpt lat="44.28540604845601" lon="11.206715972480303"><ele>216.5</ele><time>2026-05-03T06:17:12Z</time></trkpt><trkpt lat="44.28534338579065" lon="11.20673213253104"><ele>218.66666666666666</ele><time>2026-05-03T06:17:13Z</time></trkpt><trkpt lat="44.285279675755234" lon="11.206726733611994"><ele>220.83333333333331</ele><time>2026-05-03T06:17:14Z</time></trkpt><trkpt lat="44.28521106423147" lon="11.206712555530494"><ele>223.0</ele><time>2026-05-03T06:17:15Z</time></trkpt><trkpt lat="44.285104699301364" lon="11.206731245330879"><ele>223.0</ele><time>2026-05-03T06:17:16.999Z</time></trkpt><trkpt lat="44.28507609990942" lon="11.206877676538978"><ele>223.0</ele><time>2026-05-03T06:17:18.999Z</time></trkpt><trkpt lat="44.28506462788194" lon="11.20696801715174"><ele>223.0</ele><time>2026-05-03T06:17:20.999Z</time></trkpt><trkpt lat="44.28505430547828" lon="11.207095525893358"><ele>223.0</ele><time>2026-05-03T06:17:23.999Z</time></trkpt><trkpt lat="44.285027452016934" lon="11.20721590635681"><ele>223.0</ele><time>2026-05-03T06:17:25.999Z</time></trkpt><trkpt lat="44.28499843671127" lon="11.207381618112096"><ele>223.57142857142856</ele><time>2026-05-03T06:17:27.999Z</time></trkpt><trkpt lat="44.28498154962752" lon="11.207490678452732"><ele>224.14285714285714</ele><time>2026-05-03T06:17:28.999Z</time></trkpt><trkpt lat="44.28496266854671" lon="11.207589914119385"><ele>224.71428571428572</ele><time>2026-05-03T06:17:29.999Z</time></trkpt><trkpt lat="44.28493684497143" lon="11.207686313386183"><ele>225.28571428571428</ele><time>2026-05-03T06:17:30.999Z</time></trkpt><trkpt lat="44.28492116437814" lon="11.207787904321508"><ele>225.8571428571429</ele><time>2026-05-03T06:17:31.999Z</time></trkpt><trkpt lat="44.28492111902375" lon="11.207890956665533"><ele>226.42857142857144</ele><time>2026-05-03T06:17:32.999Z</time></trkpt><trkpt lat="44.284919600929456" lon="11.207979107116037"><ele>227.0</ele><time>2026-05-03T06:17:33.999Z</time></trkpt><trkpt lat="44.284920717914495" lon="11.208079599113667"><ele>227.83333333333334</ele><time>2026-05-03T06:17:34.999Z</time></trkpt><trkpt lat="44.28493242856629" lon="11.208194977922687"><ele>228.66666666666669</ele><time>2026-05-03T06:17:35.999Z</time></trkpt><trkpt lat="44.28495815076305" lon="11.208297409456474"><ele>229.5</ele><time>2026-05-03T06:17:36.999Z</time></trkpt><trkpt lat="44.284966121011855" lon="11.208418934386923"><ele>230.33333333333331</ele><time>2026-05-03T06:17:37.999Z</time></trkpt><trkpt lat="44.28499710195312" lon="11.20854003526721"><ele>231.16666666666666</ele><time>2026-05-03T06:17:38.999Z</time></trkpt><trkpt lat="44.28502263312438" lon="11.208635299954198"><ele>232.0</ele><time>2026-05-03T06:17:39.999Z</time></trkpt><trkpt lat="44.285058495259435" lon="11.208760815667219"><ele>231.99999999999997</ele><time>2026-05-03T06:17:41.999Z</time></trkpt><trkpt lat="44.28503247220673" lon="11.20887325607403"><ele>232.0</ele><time>2026-05-03T06:17:43.999Z</time></trkpt><trkpt lat="44.28495095999919" lon="11.208893574152293"><ele>232.0</ele><time>2026-05-03T06:17:45.999Z</time></trkpt><trkpt lat="44.28485689761239" lon="11.208803880813415"><ele>232.0</ele><time>2026-05-03T06:17:47.999Z</time></trkpt><trkpt lat="44.284817090632004" lon="11.208724192884915"><ele>231.99999999999997</ele><time>2026-05-03T06:17:48.999Z</time></trkpt><trkpt lat="44.28476503233893" lon="11.208646999738095"><ele>232.0</ele><time>2026-05-03T06:17:49.999Z</time></trkpt><trkpt lat="44.28471216899128" lon="11.208566819346556"><ele>235.49999999999997</ele><time>2026-05-03T06:17:50.999Z</time></trkpt><trkpt lat="44.284671714528514" lon="11.208485033748717"><ele>239.0</ele><time>2026-05-03T06:17:51.999Z</time></trkpt><trkpt lat="44.284619768425834" lon="11.208424651052058"><ele>242.5</ele><time>2026-05-03T06:17:52.999Z</time></trkpt><trkpt lat="44.28456246858597" lon="11.208372470743932"><ele>246.0</ele><time>2026-05-03T06:17:53.999Z</time></trkpt><trkpt lat="44.28446450984051" lon="11.208342403493814"><ele>249.49999999999997</ele><time>2026-05-03T06:17:55.999Z</time></trkpt><trkpt lat="44.28439851808387" lon="11.208388118611873"><ele>253.0</ele><time>2026-05-03T06:18:03.999Z</time></trkpt><trkpt lat="44.284334610341716" lon="11.208328114144473"><ele>252.99999999999997</ele><time>2026-05-03T06:18:05.999Z</time></trkpt><trkpt lat="44.28430069424953" lon="11.208245096357198"><ele>253.0</ele><time>2026-05-03T06:18:06.999Z</time></trkpt><trkpt lat="44.284251495752315" lon="11.20815855315557"><ele>253.0</ele><time>2026-05-03T06:18:07.999Z</time></trkpt><trkpt lat="44.28419808036882" lon="11.208077380160058"><ele>253.0</ele><time>2026-05-03T06:18:08.999Z</time></trkpt><trkpt lat="44.284144104315146" lon="11.207986091033993"><ele>252.99999999999997</ele><time>2026-05-03T06:18:09.999Z</time></trkpt><trkpt lat="44.28408820920044" lon="11.207895307775006"><ele>253.0</ele><time>2026-05-03T06:18:10.999Z</time></trkpt><trkpt lat="44.2840296026372" lon="11.207799901885567"><ele>253.60000000000002</ele><time>2026-05-03T06:18:11.999Z</time></trkpt><trkpt lat="44.28397402219991" lon="11.207700323291416"><ele>254.20000000000002</ele><time>2026-05-03T06:18:12.999Z</time></trkpt><trkpt lat="44.28391895483152" lon="11.207599724938374"><ele>254.8</ele><time>2026-05-03T06:18:13.999Z</time></trkpt><trkpt lat="44.28386089174814" lon="11.207492509471711"><ele>255.4</ele><time>2026-05-03T06:18:14.999Z</time></trkpt><trkpt lat="44.28380177790844" lon="11.207373321927856"><ele>256.0</ele><time>2026-05-03T06:18:15.999Z</time></trkpt><trkpt lat="44.28374705422583" lon="11.20726022088522"><ele>253.60000000000002</ele><time>2026-05-03T06:18:16.999Z</time></trkpt><trkpt lat="44.28369275694513" lon="11.20713613720693"><ele>251.20000000000002</ele><time>2026-05-03T06:18:17.999Z</time></trkpt><trkpt lat="44.28364383940287" lon="11.207007893733483"><ele>248.79999999999998</ele><time>2026-05-03T06:18:18.999Z</time></trkpt><trkpt lat="44.28359112751222" lon="11.206873455180649"><ele>246.39999999999998</ele><time>2026-05-03T06:18:19.999Z</time></trkpt><trkpt lat="44.28353931984241" lon="11.206732137184142"><ele>244.0</ele><time>2026-05-03T06:18:20.999Z</time></trkpt><trkpt lat="44.28349529499199" lon="11.20658937932868"><ele>242.5</ele><time>2026-05-03T06:18:21.999Z</time></trkpt><trkpt lat="44.28344709665221" lon="11.206446093187152"><ele>241.0</ele><time>2026-05-03T06:18:22.999Z</time></trkpt><trkpt lat="44.2833964582228" lon="11.206297254178487"><ele>239.5</ele><time>2026-05-03T06:18:23.999Z</time></trkpt><trkpt lat="44.283347977494984" lon="11.206149135539475"><ele>238.0</ele><time>2026-05-03T06:18:24.999Z</time></trkpt><trkpt lat="44.283292198629916" lon="11.206002439680244"><ele>238.0</ele><time>2026-05-03T06:18:25.999Z</time></trkpt><trkpt lat="44.283226206507955" lon="11.205859649397176"><ele>238.0</ele><time>2026-05-03T06:18:26.999Z</time></trkpt><trkpt lat="44.28315094842168" lon="11.205735378581481"><ele>238.0</ele><time>2026-05-03T06:18:27.999Z</time></trkpt><trkpt lat="44.283065194897446" lon="11.20563182223863"><ele>238.0</ele><time>2026-05-03T06:18:28.999Z</time></trkpt><trkpt lat="44.28296734070604" lon="11.205557190745038"><ele>234.75</ele><time>2026-05-03T06:18:29.999Z</time></trkpt><trkpt lat="44.28285503780178" lon="11.205509594487546"><ele>231.5</ele><time>2026-05-03T06:18:30.999Z</time></trkpt><trkpt lat="44.282745767500366" lon="11.205498981218355"><ele>228.25</ele><time>2026-05-03T06:18:31.999Z</time></trkpt><trkpt lat="44.282632800776895" lon="11.205497571440633"><ele>225.0</ele><time>2026-05-03T06:18:32.999Z</time></trkpt><trkpt lat="44.28252274769295" lon="11.20551538350384"><ele>225.0</ele><time>2026-05-03T06:18:33.999Z</time></trkpt><trkpt lat="44.28242142990534" lon="11.20554812857001"><ele>225.0</ele><time>2026-05-03T06:18:34.999Z</time></trkpt><trkpt lat="44.282324564772146" lon="11.205598704854275"><ele>225.0</ele><time>2026-05-03T06:18:35.999Z</time></trkpt><trkpt lat="44.282232834731666" lon="11.205651464759137"><ele>225.0</ele><time>2026-05-03T06:18:36.999Z</time></trkpt><trkpt lat="44.28214324837914" lon="11.205703312074519"><ele>225.0</ele><time>2026-05-03T06:18:37.999Z</time></trkpt><trkpt lat="44.28205522824464" lon="11.205754224380508"><ele>228.0</ele><time>2026-05-03T06:18:38.999Z</time></trkpt><trkpt lat="44.28196358253662" lon="11.20579927906297"><ele>231.0</ele><time>2026-05-03T06:18:39.999Z</time></trkpt><trkpt lat="44.28186978210606" lon="11.205822716546416"><ele>234.0</ele><time>2026-05-03T06:18:40.999Z</time></trkpt><trkpt lat="44.28177842111895" lon="11.205828041481155"><ele>237.0</ele><time>2026-05-03T06:18:41.999Z</time></trkpt><trkpt lat="44.28168689457037" lon="11.205822097801317"><ele>240.0</ele><time>2026-05-03T06:18:42.999Z</time></trkpt><trkpt lat="44.28159397751016" lon="11.205807795347154"><ele>240.0</ele><time>2026-05-03T06:18:43.999Z</time></trkpt><trkpt lat="44.2814947080894" lon="11.205780342107325"><ele>240.0</ele><time>2026-05-03T06:18:44.999Z</time></trkpt><trkpt lat="44.28139599397616" lon="11.20572593708702"><ele>240.0</ele><time>2026-05-03T06:18:45.999Z</time></trkpt><trkpt lat="44.28129699419204" lon="11.205644297917315"><ele>240.0</ele><time>2026-05-03T06:18:46.999Z</time></trkpt><trkpt lat="44.281201527847294" lon="11.205574835882347"><ele>240.0</ele><time>2026-05-03T06:18:47.999Z</time></trkpt><trkpt lat="44.28111877624412" lon="11.205476832239048"><ele>239.6</ele><time>2026-05-03T06:18:48.999Z</time></trkpt><trkpt lat="44.28102973880773" lon="11.2054013840256"><ele>239.2</ele><time>2026-05-03T06:18:49.999Z</time></trkpt><trkpt lat="44.2809418767548" lon="11.205319485180464"><ele>238.8</ele><time>2026-05-03T06:18:50.999Z</time></trkpt><trkpt lat="44.280860748290465" lon="11.205229388724655"><ele>238.4</ele><time>2026-05-03T06:18:51.999Z</time></trkpt><trkpt lat="44.2807872782388" lon="11.205129777987105"><ele>238.0</ele><time>2026-05-03T06:18:52.999Z</time></trkpt><trkpt lat="44.280718422603606" lon="11.205022194405341"><ele>238.0</ele><time>2026-05-03T06:18:53.999Z</time></trkpt><trkpt lat="44.280650141951014" lon="11.204912896399534"><ele>238.0</ele><time>2026-05-03T06:18:54.999Z</time></trkpt><trkpt lat="44.28058510319733" lon="11.204792540874646"><ele>238.0</ele><time>2026-05-03T06:18:55.999Z</time></trkpt><trkpt lat="44.28053046657124" lon="11.20467524970857"><ele>238.0</ele><time>2026-05-03T06:18:56.999Z</time></trkpt><trkpt lat="44.28046181217581" lon="11.204557657975695"><ele>238.0</ele><time>2026-05-03T06:18:57.999Z</time></trkpt><trkpt lat="44.280387264366254" lon="11.20444930192668"><ele>237.2</ele><time>2026-05-03T06:18:58.999Z</time></trkpt><trkpt lat="44.280316527366814" lon="11.2043340351909"><ele>236.4</ele><time>2026-05-03T06:18:59.999Z</time></trkpt><trkpt lat="44.28024304650823" lon="11.20422356669573"><ele>235.59999999999997</ele><time>2026-05-03T06:19:00.999Z</time></trkpt><trkpt lat="44.280168237999575" lon="11.204114468716005"><ele>234.79999999999998</ele><time>2026-05-03T06:19:01.999Z</time></trkpt><trkpt lat="44.28009208056864" lon="11.204013382845107"><ele>234.0</ele><time>2026-05-03T06:19:02.999Z</time></trkpt><trkpt lat="44.28001380641087" lon="11.203914961753233"><ele>234.0</ele><time>2026-05-03T06:19:03.999Z</time></trkpt><trkpt lat="44.27992816263032" lon="11.203823025439066"><ele>233.99999999999997</ele><time>2026-05-03T06:19:04.999Z</time></trkpt><trkpt lat="44.27984258782855" lon="11.203740603009184"><ele>233.99999999999997</ele><time>2026-05-03T06:19:05.999Z</time></trkpt><trkpt lat="44.27975065226571" lon="11.203659015559813"><ele>234.0</ele><time>2026-05-03T06:19:06.999Z</time></trkpt><trkpt lat="44.27965996500018" lon="11.203576912981042"><ele>234.0</ele><time>2026-05-03T06:19:07.999Z</time></trkpt><trkpt lat="44.279576653487126" lon="11.203486608853755"><ele>236.2</ele><time>2026-05-03T06:19:08.999Z</time></trkpt><trkpt lat="44.279497602865874" lon="11.203376655073425"><ele>238.39999999999998</ele><time>2026-05-03T06:19:09.999Z</time></trkpt><trkpt lat="44.279418981906424" lon="11.203278439997344"><ele>240.6</ele><time>2026-05-03T06:19:10.999Z</time></trkpt><trkpt lat="44.27933688541626" lon="11.203170047195975"><ele>242.8</ele><time>2026-05-03T06:19:11.999Z</time></trkpt><trkpt lat="44.27925585077061" lon="11.20306396569265"><ele>245.0</ele><time>2026-05-03T06:19:12.999Z</time></trkpt><trkpt lat="44.279174454222094" lon="11.202961112045127"><ele>245.0</ele><time>2026-05-03T06:19:13.999Z</time></trkpt><trkpt lat="44.27909652428268" lon="11.202857008793094"><ele>245.0</ele><time>2026-05-03T06:19:14.999Z</time></trkpt><trkpt lat="44.279013137755925" lon="11.202753149107231"><ele>245.0</ele><time>2026-05-03T06:19:15.999Z</time></trkpt><trkpt lat="44.27893078924625" lon="11.202645660229562"><ele>245.0</ele><time>2026-05-03T06:19:16.999Z</time></trkpt><trkpt lat="44.2788478886486" lon="11.202540769534957"><ele>245.0</ele><time>2026-05-03T06:19:17.999Z</time></trkpt><trkpt lat="44.27876699733504" lon="11.20243402552285"><ele>246.75</ele><time>2026-05-03T06:19:18.999Z</time></trkpt><trkpt lat="44.27868998931239" lon="11.20231735335491"><ele>248.5</ele><time>2026-05-03T06:19:19.999Z</time></trkpt><trkpt lat="44.278618427569704" lon="11.202188935479407"><ele>250.25</ele><time>2026-05-03T06:19:20.999Z</time></trkpt><trkpt lat="44.27855258330437" lon="11.202055913746284"><ele>252.0</ele><time>2026-05-03T06:19:21.999Z</time></trkpt><trkpt lat="44.27848051055338" lon="11.201924573539932"><ele>252.0</ele><time>2026-05-03T06:19:22.999Z</time></trkpt><trkpt lat="44.27840924789931" lon="11.201793362009468"><ele>252.0</ele><time>2026-05-03T06:19:23.999Z</time></trkpt><trkpt lat="44.278337439013285" lon="11.201667065479747"><ele>252.0</ele><time>2026-05-03T06:19:24.999Z</time></trkpt><trkpt lat="44.27825886470335" lon="11.201538388398031"><ele>252.0</ele><time>2026-05-03T06:19:25.999Z</time></trkpt><trkpt lat="44.27818078662085" lon="11.201413104838647"><ele>252.75</ele><time>2026-05-03T06:19:26.999Z</time></trkpt><trkpt lat="44.2780969344565" lon="11.201295722705025"><ele>253.5</ele><time>2026-05-03T06:19:27.999Z</time></trkpt><trkpt lat="44.27801916931789" lon="11.201179409612315"><ele>254.25</ele><time>2026-05-03T06:19:28.999Z</time></trkpt><trkpt lat="44.2779452890506" lon="11.20105448932775"><ele>255.0</ele><time>2026-05-03T06:19:29.999Z</time></trkpt><trkpt lat="44.277880992212026" lon="11.200932773860309"><ele>255.0</ele><time>2026-05-03T06:19:30.999Z</time></trkpt><trkpt lat="44.2778478227702" lon="11.2008273097552"><ele>255.0</ele><time>2026-05-03T06:19:31.999Z</time></trkpt><trkpt lat="44.27780421258327" lon="11.200750374355014"><ele>255.0</ele><time>2026-05-03T06:19:32.999Z</time></trkpt><trkpt lat="44.277782504783424" lon="11.200661093351778"><ele>255.0</ele><time>2026-05-03T06:19:33.999Z</time></trkpt><trkpt lat="44.27773998795999" lon="11.200577510062027"><ele>255.0</ele><time>2026-05-03T06:19:34.999Z</time></trkpt><trkpt lat="44.27770521376178" lon="11.200493479068383"><ele>255.0</ele><time>2026-05-03T06:19:35.999Z</time></trkpt><trkpt lat="44.277654046640045" lon="11.20035032736387"><ele>252.0</ele><time>2026-05-03T06:19:37.999Z</time></trkpt><trkpt lat="44.27762227766441" lon="11.200259793931687"><ele>249.0</ele><time>2026-05-03T06:19:39.999Z</time></trkpt><trkpt lat="44.27768037276997" lon="11.20039515428735"><ele>246.0</ele><time>2026-05-03T06:19:48.999Z</time></trkpt><trkpt lat="44.27748434626565" lon="11.200566314749365"><ele>243.0</ele><time>2026-05-03T06:19:52.999Z</time></trkpt><trkpt lat="44.277420933559696" lon="11.200550776246997"><ele>243.0</ele><time>2026-05-03T06:19:53.999Z</time></trkpt><trkpt lat="44.27734261446123" lon="11.200484577520314"><ele>243.0</ele><time>2026-05-03T06:19:54.999Z</time></trkpt><trkpt lat="44.277260753049795" lon="11.200402779121053"><ele>243.0</ele><time>2026-05-03T06:19:55.999Z</time></trkpt><trkpt lat="44.277166211417374" lon="11.200172415855997"><ele>243.0</ele><time>2026-05-03T06:19:56.999Z</time></trkpt><trkpt lat="44.27701138846898" lon="11.20010656133904"><ele>243.5</ele><time>2026-05-03T06:19:57.999Z</time></trkpt><trkpt lat="44.27681981267339" lon="11.200140428151768"><ele>244.0</ele><time>2026-05-03T06:19:58.999Z</time></trkpt><trkpt lat="44.27716573566802" lon="11.200118798062968"><ele>243.99999999999997</ele><time>2026-05-03T06:19:59.999Z</time></trkpt><trkpt lat="44.2770395115982" lon="11.200127160306177"><ele>244.0</ele><time>2026-05-03T06:20:01.999Z</time></trkpt><trkpt lat="44.27696820811218" lon="11.200104124939179"><ele>244.0</ele><time>2026-05-03T06:20:02.999Z</time></trkpt><trkpt lat="44.27689081358892" lon="11.200134410377636"><ele>244.0</ele><time>2026-05-03T06:20:03.999Z</time></trkpt><trkpt lat="44.2768206363062" lon="11.200172147448548"><ele>243.99999999999997</ele><time>2026-05-03T06:20:04.999Z</time></trkpt><trkpt lat="44.27674795884928" lon="11.200226162291791"><ele>244.0</ele><time>2026-05-03T06:20:05.999Z</time></trkpt><trkpt lat="44.27667854989139" lon="11.200302497582179"><ele>244.0</ele><time>2026-05-03T06:20:06.999Z</time></trkpt><trkpt lat="44.27661069335395" lon="11.200372551414269"><ele>243.99999999999997</ele><time>2026-05-03T06:20:07.999Z</time></trkpt><trkpt lat="44.27653293160191" lon="11.20044271626412"><ele>243.99999999999997</ele><time>2026-05-03T06:20:08.999Z</time></trkpt><trkpt lat="44.27644551258725" lon="11.200485672234988"><ele>244.0</ele><time>2026-05-03T06:20:09.999Z</time></trkpt><trkpt lat="44.2763593162148" lon="11.200538519342711"><ele>244.0</ele><time>2026-05-03T06:20:10.999Z</time></trkpt><trkpt lat="44.27627425263962" lon="11.200588888953721"><ele>244.6</ele><time>2026-05-03T06:20:11.999Z</time></trkpt><trkpt lat="44.2761882724659" lon="11.20064073424079"><ele>245.2</ele><time>2026-05-03T06:20:12.999Z</time></trkpt><trkpt lat="44.27610175394935" lon="11.200694474101583"><ele>245.79999999999998</ele><time>2026-05-03T06:20:13.999Z</time></trkpt><trkpt lat="44.27601473060902" lon="11.200748102673815"><ele>246.39999999999998</ele><time>2026-05-03T06:20:14.999Z</time></trkpt><trkpt lat="44.275928714286174" lon="11.200797619410471"><ele>247.0</ele><time>2026-05-03T06:20:15.999Z</time></trkpt><trkpt lat="44.27583921789001" lon="11.200850095043396"><ele>247.0</ele><time>2026-05-03T06:20:16.999Z</time></trkpt><trkpt lat="44.27576250018343" lon="11.200928433902604"><ele>247.0</ele><time>2026-05-03T06:20:17.999Z</time></trkpt><trkpt lat="44.27569835679153" lon="11.201024589141241"><ele>247.0</ele><time>2026-05-03T06:20:18.999Z</time></trkpt><trkpt lat="44.27564443243422" lon="11.201145954400713"><ele>247.0</ele><time>2026-05-03T06:20:19.999Z</time></trkpt><trkpt lat="44.27561469940812" lon="11.201274318139314"><ele>247.0</ele><time>2026-05-03T06:20:20.999Z</time></trkpt><trkpt lat="44.27559124730864" lon="11.201398097087248"><ele>246.0</ele><time>2026-05-03T06:20:21.999Z</time></trkpt><trkpt lat="44.27561757664549" lon="11.201551601927124"><ele>245.0</ele><time>2026-05-03T06:20:22.999Z</time></trkpt><trkpt lat="44.275595779922334" lon="11.201682774312864"><ele>244.0</ele><time>2026-05-03T06:20:23.999Z</time></trkpt><trkpt lat="44.275610945594096" lon="11.201804460353268"><ele>243.0</ele><time>2026-05-03T06:20:24.999Z</time></trkpt><trkpt lat="44.27566916037294" lon="11.201901402428042"><ele>242.0</ele><time>2026-05-03T06:20:25.999Z</time></trkpt><trkpt lat="44.2757438883152" lon="11.20195809298646"><ele>246.0</ele><time>2026-05-03T06:20:26.999Z</time></trkpt><trkpt lat="44.27583290099164" lon="11.202013640911234"><ele>250.0</ele><time>2026-05-03T06:20:27.999Z</time></trkpt><trkpt lat="44.2759157703955" lon="11.20207724898701"><ele>254.0</ele><time>2026-05-03T06:20:28.999Z</time></trkpt><trkpt lat="44.27599391124316" lon="11.20215017954962"><ele>258.0</ele><time>2026-05-03T06:20:29.999Z</time></trkpt><trkpt lat="44.27606450616354" lon="11.202249825643628"><ele>262.0</ele><time>2026-05-03T06:20:30.999Z</time></trkpt><trkpt lat="44.27612570698436" lon="11.202364742890845"><ele>262.4</ele><time>2026-05-03T06:20:31.999Z</time></trkpt><trkpt lat="44.27614917131985" lon="11.202506963071555"><ele>262.79999999999995</ele><time>2026-05-03T06:20:32.999Z</time></trkpt><trkpt lat="44.27613755436133" lon="11.202651722389323"><ele>263.2</ele><time>2026-05-03T06:20:33.999Z</time></trkpt><trkpt lat="44.27610631598075" lon="11.202789375083736"><ele>263.59999999999997</ele><time>2026-05-03T06:20:34.999Z</time></trkpt><trkpt lat="44.27605483440807" lon="11.20290873845985"><ele>264.0</ele><time>2026-05-03T06:20:35.999Z</time></trkpt><trkpt lat="44.27600510835195" lon="11.203013388898542"><ele>264.0</ele><time>2026-05-03T06:20:36.999Z</time></trkpt><trkpt lat="44.2759796990227" lon="11.203109512665886"><ele>264.0</ele><time>2026-05-03T06:20:37.999Z</time></trkpt><trkpt lat="44.27599378538004" lon="11.203207252302624"><ele>264.0</ele><time>2026-05-03T06:20:38.999Z</time></trkpt><trkpt lat="44.27604237327095" lon="11.2032827006829"><ele>264.0</ele><time>2026-05-03T06:20:39.999Z</time></trkpt><trkpt lat="44.276116985143275" lon="11.20329923001485"><ele>264.0</ele><time>2026-05-03T06:20:40.999Z</time></trkpt><trkpt lat="44.27619516885309" lon="11.203248397121367"><ele>264.0</ele><time>2026-05-03T06:20:41.999Z</time></trkpt><trkpt lat="44.276263681055106" lon="11.203164565815976"><ele>264.0</ele><time>2026-05-03T06:20:42.999Z</time></trkpt><trkpt lat="44.276298345954196" lon="11.20306201396587"><ele>264.0</ele><time>2026-05-03T06:20:43.999Z</time></trkpt><trkpt lat="44.27632485641758" lon="11.202950918385444"><ele>264.0</ele><time>2026-05-03T06:20:44.999Z</time></trkpt><trkpt lat="44.27634924951964" lon="11.20283318734658"><ele>264.0</ele><time>2026-05-03T06:20:45.999Z</time></trkpt><trkpt lat="44.27638304366013" lon="11.202720124392904"><ele>264.0</ele><time>2026-05-03T06:20:46.999Z</time></trkpt><trkpt lat="44.276404378371886" lon="11.202602070333157"><ele>264.0</ele><time>2026-05-03T06:20:47.999Z</time></trkpt><trkpt lat="44.27643052442821" lon="11.202486488255598"><ele>265.5</ele><time>2026-05-03T06:20:48.999Z</time></trkpt><trkpt lat="44.27646360224231" lon="11.202374086929952"><ele>267.0</ele><time>2026-05-03T06:20:49.999Z</time></trkpt><trkpt lat="44.276503710433055" lon="11.202283078064005"><ele>268.5</ele><time>2026-05-03T06:20:50.999Z</time></trkpt><trkpt lat="44.27661813633317" lon="11.202248822747999"><ele>270.0</ele><time>2026-05-03T06:20:52.999Z</time></trkpt><trkpt lat="44.27666199900117" lon="11.202317882598502"><ele>271.5</ele><time>2026-05-03T06:20:53.999Z</time></trkpt><trkpt lat="44.27668440830512" lon="11.20241672025765"><ele>273.0</ele><time>2026-05-03T06:20:54.999Z</time></trkpt><trkpt lat="44.27664167850142" lon="11.202511280953141"><ele>273.6666666666667</ele><time>2026-05-03T06:20:55.999Z</time></trkpt><trkpt lat="44.27659188720321" lon="11.202584082340143"><ele>274.3333333333333</ele><time>2026-05-03T06:20:56.999Z</time></trkpt><trkpt lat="44.27656564974628" lon="11.202683775974782"><ele>275.0</ele><time>2026-05-03T06:20:57.999Z</time></trkpt><trkpt lat="44.27650578876217" lon="11.202819174702299"><ele>275.66666666666663</ele><time>2026-05-03T06:20:59.999Z</time></trkpt><trkpt lat="44.27647456544017" lon="11.202897096316853"><ele>276.3333333333333</ele><time>2026-05-03T06:21:01.999Z</time></trkpt><trkpt lat="44.27643042171271" lon="11.202965333883927"><ele>277.0</ele><time>2026-05-03T06:21:03.999Z</time></trkpt><trkpt lat="44.27640285047774" lon="11.203063254717852"><ele>277.0</ele><time>2026-05-03T06:21:05.999Z</time></trkpt><trkpt lat="44.27649519060957" lon="11.20296066429057"><ele>277.0</ele><time>2026-05-03T06:21:09.999Z</time></trkpt><trkpt lat="44.27656398460653" lon="11.202922493080633"><ele>277.0</ele><time>2026-05-03T06:21:11.998Z</time></trkpt><trkpt lat="44.276624028827655" lon="11.202989367565236"><ele>277.0</ele><time>2026-05-03T06:21:13.998Z</time></trkpt><trkpt lat="44.27670274896447" lon="11.203107776257085"><ele>277.0</ele><time>2026-05-03T06:21:15.998Z</time></trkpt><trkpt lat="44.276757928091975" lon="11.203180600394088"><ele>278.16666666666663</ele><time>2026-05-03T06:21:16.998Z</time></trkpt><trkpt lat="44.276824675843415" lon="11.203263594239127"><ele>279.3333333333333</ele><time>2026-05-03T06:21:17.998Z</time></trkpt><trkpt lat="44.276891472683374" lon="11.20333584680665"><ele>280.5</ele><time>2026-05-03T06:21:18.998Z</time></trkpt><trkpt lat="44.27693685835362" lon="11.203429944287558"><ele>281.6666666666667</ele><time>2026-05-03T06:21:19.998Z</time></trkpt><trkpt lat="44.27697794981527" lon="11.203499412744982"><ele>282.83333333333337</ele><time>2026-05-03T06:21:20.998Z</time></trkpt><trkpt lat="44.27698611064334" lon="11.203596943353075"><ele>284.0</ele><time>2026-05-03T06:21:21.998Z</time></trkpt><trkpt lat="44.276967085951064" lon="11.203696547606757"><ele>284.0</ele><time>2026-05-03T06:21:22.998Z</time></trkpt><trkpt lat="44.27692977499661" lon="11.203798953607736"><ele>284.0</ele><time>2026-05-03T06:21:23.998Z</time></trkpt><trkpt lat="44.276884409553354" lon="11.203895726996771"><ele>284.0</ele><time>2026-05-03T06:21:24.998Z</time></trkpt><trkpt lat="44.27682487898909" lon="11.203983026055885"><ele>284.0</ele><time>2026-05-03T06:21:25.998Z</time></trkpt><trkpt lat="44.27675774187986" lon="11.204055011845067"><ele>284.0</ele><time>2026-05-03T06:21:26.998Z</time></trkpt><trkpt lat="44.27669661068897" lon="11.204144884273633"><ele>284.0</ele><time>2026-05-03T06:21:27.998Z</time></trkpt><trkpt lat="44.27663738363779" lon="11.20423207269844"><ele>284.59999999999997</ele><time>2026-05-03T06:21:28.998Z</time></trkpt><trkpt lat="44.27657623886028" lon="11.20432399577802"><ele>285.2</ele><time>2026-05-03T06:21:29.998Z</time></trkpt><trkpt lat="44.276525888367814" lon="11.204432462448521"><ele>285.79999999999995</ele><time>2026-05-03T06:21:30.998Z</time></trkpt><trkpt lat="44.27645618347947" lon="11.204516501912615"><ele>286.4</ele><time>2026-05-03T06:21:31.998Z</time></trkpt><trkpt lat="44.27639608380611" lon="11.204609702863086"><ele>287.0</ele><time>2026-05-03T06:21:32.998Z</time></trkpt><trkpt lat="44.27633448064774" lon="11.20469942628368"><ele>287.0</ele><time>2026-05-03T06:21:33.998Z</time></trkpt><trkpt lat="44.27627075654382" lon="11.204788729621628"><ele>287.0</ele><time>2026-05-03T06:21:34.998Z</time></trkpt><trkpt lat="44.27621045213881" lon="11.204890250961462"><ele>287.0</ele><time>2026-05-03T06:21:35.998Z</time></trkpt><trkpt lat="44.27615086774319" lon="11.204985508463094"><ele>287.0</ele><time>2026-05-03T06:21:36.998Z</time></trkpt><trkpt lat="44.27609410885391" lon="11.20508438540265"><ele>287.0</ele><time>2026-05-03T06:21:37.998Z</time></trkpt><trkpt lat="44.276031205407634" lon="11.205172351625562"><ele>289.83333333333337</ele><time>2026-05-03T06:21:38.998Z</time></trkpt><trkpt lat="44.27597152384962" lon="11.205258306621172"><ele>292.6666666666667</ele><time>2026-05-03T06:21:39.998Z</time></trkpt><trkpt lat="44.27591501338216" lon="11.20534919473368"><ele>295.5</ele><time>2026-05-03T06:21:40.998Z</time></trkpt><trkpt lat="44.275855820813696" lon="11.20543645025097"><ele>298.3333333333333</ele><time>2026-05-03T06:21:41.998Z</time></trkpt><trkpt lat="44.275797110835946" lon="11.205523075460537"><ele>301.16666666666663</ele><time>2026-05-03T06:21:42.998Z</time></trkpt><trkpt lat="44.27574112242114" lon="11.205617158378022"><ele>304.0</ele><time>2026-05-03T06:21:43.998Z</time></trkpt><trkpt lat="44.275690761316895" lon="11.205711256231295"><ele>303.5</ele><time>2026-05-03T06:21:44.998Z</time></trkpt><trkpt lat="44.27563374643554" lon="11.205801846761887"><ele>303.0</ele><time>2026-05-03T06:21:45.998Z</time></trkpt><trkpt lat="44.27557747158775" lon="11.205887974111258"><ele>302.5</ele><time>2026-05-03T06:21:46.998Z</time></trkpt><trkpt lat="44.27551820659634" lon="11.205968729298064"><ele>302.0</ele><time>2026-05-03T06:21:47.998Z</time></trkpt><trkpt lat="44.27546066728349" lon="11.206053125463246"><ele>301.5</ele><time>2026-05-03T06:21:48.998Z</time></trkpt><trkpt lat="44.2754067386851" lon="11.206139692632755"><ele>301.0</ele><time>2026-05-03T06:21:49.998Z</time></trkpt><trkpt lat="44.27535620713503" lon="11.206229373271787"><ele>301.0</ele><time>2026-05-03T06:21:50.998Z</time></trkpt><trkpt lat="44.27529638166968" lon="11.20630695597286"><ele>301.0</ele><time>2026-05-03T06:21:51.998Z</time></trkpt><trkpt lat="44.27524720832167" lon="11.206400237436005"><ele>301.0</ele><time>2026-05-03T06:21:52.998Z</time></trkpt><trkpt lat="44.275192101402695" lon="11.206489516078005"><ele>301.0</ele><time>2026-05-03T06:21:53.998Z</time></trkpt><trkpt lat="44.275132304800714" lon="11.206576757155418"><ele>301.0</ele><time>2026-05-03T06:21:54.998Z</time></trkpt><trkpt lat="44.27507276855414" lon="11.206657966773195"><ele>301.0</ele><time>2026-05-03T06:21:55.998Z</time></trkpt><trkpt lat="44.275020122668316" lon="11.206731300800916"><ele>301.5</ele><time>2026-05-03T06:21:56.998Z</time></trkpt><trkpt lat="44.274956515495305" lon="11.2068236100822"><ele>302.0</ele><time>2026-05-03T06:21:57.998Z</time></trkpt><trkpt lat="44.27489803324692" lon="11.206910046077065"><ele>302.5</ele><time>2026-05-03T06:21:58.998Z</time></trkpt><trkpt lat="44.27483563075578" lon="11.206997735560625"><ele>303.0</ele><time>2026-05-03T06:21:59.998Z</time></trkpt><trkpt lat="44.274774336636966" lon="11.207086695843664"><ele>303.5</ele><time>2026-05-03T06:22:00.998Z</time></trkpt><trkpt lat="44.27471947123866" lon="11.207190660742254"><ele>304.0</ele><time>2026-05-03T06:22:01.998Z</time></trkpt><trkpt lat="44.27467648385672" lon="11.207304794858006"><ele>306.8</ele><time>2026-05-03T06:22:02.998Z</time></trkpt><trkpt lat="44.27465989196549" lon="11.207438579818417"><ele>309.59999999999997</ele><time>2026-05-03T06:22:03.998Z</time></trkpt><trkpt lat="44.274661224532096" lon="11.207576402571453"><ele>312.4</ele><time>2026-05-03T06:22:04.998Z</time></trkpt><trkpt lat="44.27468078577163" lon="11.207709366254507"><ele>315.2</ele><time>2026-05-03T06:22:05.998Z</time></trkpt><trkpt lat="44.27470896824034" lon="11.207845130930115"><ele>318.0</ele><time>2026-05-03T06:22:06.998Z</time></trkpt><trkpt lat="44.27472063447539" lon="11.207977310601875"><ele>318.0</ele><time>2026-05-03T06:22:07.998Z</time></trkpt><trkpt lat="44.27475055372175" lon="11.208118401876709"><ele>318.0</ele><time>2026-05-03T06:22:08.998Z</time></trkpt><trkpt lat="44.27478229654191" lon="11.208260846685564"><ele>318.0</ele><time>2026-05-03T06:22:09.998Z</time></trkpt><trkpt lat="44.27480167506168" lon="11.208396853469315"><ele>318.0</ele><time>2026-05-03T06:22:10.998Z</time></trkpt><trkpt lat="44.274838310135294" lon="11.208542869867562"><ele>318.0</ele><time>2026-05-03T06:22:11.998Z</time></trkpt><trkpt lat="44.27486735181462" lon="11.208692046688686"><ele>324.2</ele><time>2026-05-03T06:22:12.998Z</time></trkpt><trkpt lat="44.27488709906815" lon="11.208834188856983"><ele>330.4</ele><time>2026-05-03T06:22:13.998Z</time></trkpt><trkpt lat="44.27492176302286" lon="11.208976359044033"><ele>336.59999999999997</ele><time>2026-05-03T06:22:14.998Z</time></trkpt><trkpt lat="44.274945327473965" lon="11.20911501582672"><ele>342.8</ele><time>2026-05-03T06:22:15.998Z</time></trkpt><trkpt lat="44.27497460069899" lon="11.209257625014205"><ele>349.0</ele><time>2026-05-03T06:22:16.998Z</time></trkpt><trkpt lat="44.274998924663024" lon="11.209401419549502"><ele>349.0</ele><time>2026-05-03T06:22:17.998Z</time></trkpt><trkpt lat="44.275022490070356" lon="11.209533823699914"><ele>349.0</ele><time>2026-05-03T06:22:18.998Z</time></trkpt><trkpt lat="44.275038146564334" lon="11.209656963041501"><ele>349.0</ele><time>2026-05-03T06:22:19.998Z</time></trkpt><trkpt lat="44.27506741942302" lon="11.209784204826692"><ele>349.0</ele><time>2026-05-03T06:22:20.998Z</time></trkpt><trkpt lat="44.27508957034412" lon="11.209911800675208"><ele>349.0</ele><time>2026-05-03T06:22:21.998Z</time></trkpt><trkpt lat="44.27510998854323" lon="11.21004052329465"><ele>349.2</ele><time>2026-05-03T06:22:22.998Z</time></trkpt><trkpt lat="44.27512511067907" lon="11.210170499409317"><ele>349.4</ele><time>2026-05-03T06:22:23.998Z</time></trkpt><trkpt lat="44.27512824650739" lon="11.210297598926086"><ele>349.6</ele><time>2026-05-03T06:22:24.998Z</time></trkpt><trkpt lat="44.275105625649424" lon="11.210429123170995"><ele>349.8</ele><time>2026-05-03T06:22:25.998Z</time></trkpt><trkpt lat="44.27507528704368" lon="11.210542866527877"><ele>350.0</ele><time>2026-05-03T06:22:26.998Z</time></trkpt><trkpt lat="44.275038398515754" lon="11.210655955856312"><ele>350.83333333333337</ele><time>2026-05-03T06:22:27.998Z</time></trkpt><trkpt lat="44.27499409549792" lon="11.210759729646922"><ele>351.6666666666667</ele><time>2026-05-03T06:22:28.998Z</time></trkpt><trkpt lat="44.27495497949603" lon="11.210868891474824"><ele>352.5</ele><time>2026-05-03T06:22:29.998Z</time></trkpt><trkpt lat="44.27491692794935" lon="11.210973458132123"><ele>353.3333333333333</ele><time>2026-05-03T06:22:30.998Z</time></trkpt><trkpt lat="44.274886019337764" lon="11.21108376902052"><ele>354.16666666666663</ele><time>2026-05-03T06:22:31.998Z</time></trkpt><trkpt lat="44.2748546509652" lon="11.211199637083567"><ele>355.0</ele><time>2026-05-03T06:22:32.998Z</time></trkpt><trkpt lat="44.274826988696134" lon="11.211310022266503"><ele>355.0</ele><time>2026-05-03T06:22:33.998Z</time></trkpt><trkpt lat="44.27481278465851" lon="11.211425309572594"><ele>355.0</ele><time>2026-05-03T06:22:34.998Z</time></trkpt><trkpt lat="44.27479967356677" lon="11.211544499487868"><ele>355.0</ele><time>2026-05-03T06:22:35.998Z</time></trkpt><trkpt lat="44.27478805724436" lon="11.21166735623591"><ele>355.0</ele><time>2026-05-03T06:22:36.998Z</time></trkpt><trkpt lat="44.274784691353354" lon="11.21179241157048"><ele>355.0</ele><time>2026-05-03T06:22:37.998Z</time></trkpt><trkpt lat="44.27477789439329" lon="11.211911483756731"><ele>355.0</ele><time>2026-05-03T06:22:38.998Z</time></trkpt><trkpt lat="44.274786864653194" lon="11.21202626601067"><ele>357.0</ele><time>2026-05-03T06:22:39.998Z</time></trkpt><trkpt lat="44.274815883507635" lon="11.212140300179394"><ele>359.0</ele><time>2026-05-03T06:22:40.998Z</time></trkpt><trkpt lat="44.27486006370138" lon="11.212241131309746"><ele>361.0</ele><time>2026-05-03T06:22:41.998Z</time></trkpt><trkpt lat="44.27490689906713" lon="11.212343248438906"><ele>363.0</ele><time>2026-05-03T06:22:42.998Z</time></trkpt><trkpt lat="44.274946296492715" lon="11.212453056942891"><ele>365.0</ele><time>2026-05-03T06:22:43.998Z</time></trkpt><trkpt lat="44.274959545645935" lon="11.212571859540343"><ele>367.0</ele><time>2026-05-03T06:22:44.998Z</time></trkpt><trkpt lat="44.2749410375743" lon="11.212684890161952"><ele>367.8333333333333</ele><time>2026-05-03T06:22:45.998Z</time></trkpt><trkpt lat="44.2749030235627" lon="11.212791082260775"><ele>368.66666666666663</ele><time>2026-05-03T06:22:46.998Z</time></trkpt><trkpt lat="44.274854177799824" lon="11.21288922574429"><ele>369.5</ele><time>2026-05-03T06:22:47.998Z</time></trkpt><trkpt lat="44.27480555899989" lon="11.212988353426088"><ele>370.3333333333333</ele><time>2026-05-03T06:22:48.998Z</time></trkpt><trkpt lat="44.27475136818737" lon="11.213088267897069"><ele>371.1666666666667</ele><time>2026-05-03T06:22:49.998Z</time></trkpt><trkpt lat="44.27469675920682" lon="11.213192384966414"><ele>372.0</ele><time>2026-05-03T06:22:50.998Z</time></trkpt><trkpt lat="44.27464482441128" lon="11.213303765925895"><ele>373.8</ele><time>2026-05-03T06:22:51.998Z</time></trkpt><trkpt lat="44.274590680495145" lon="11.21341013429131"><ele>375.6</ele><time>2026-05-03T06:22:52.998Z</time></trkpt><trkpt lat="44.27453516420444" lon="11.213509069945665"><ele>377.40000000000003</ele><time>2026-05-03T06:22:53.998Z</time></trkpt><trkpt lat="44.27446375659498" lon="11.213587370770368"><ele>379.20000000000005</ele><time>2026-05-03T06:22:54.998Z</time></trkpt><trkpt lat="44.274380844679996" lon="11.213633942547409"><ele>381.0</ele><time>2026-05-03T06:22:55.998Z</time></trkpt><trkpt lat="44.274290587451816" lon="11.213633440771627"><ele>381.0</ele><time>2026-05-03T06:22:56.998Z</time></trkpt><trkpt lat="44.27420377128114" lon="11.213604272695974"><ele>381.0</ele><time>2026-05-03T06:22:57.998Z</time></trkpt><trkpt lat="44.27412496360218" lon="11.21355380960087"><ele>381.0</ele><time>2026-05-03T06:22:58.998Z</time></trkpt><trkpt lat="44.27405057909064" lon="11.213499179572535"><ele>381.0</ele><time>2026-05-03T06:22:59.998Z</time></trkpt><trkpt lat="44.27397698196841" lon="11.213453370099094"><ele>381.0</ele><time>2026-05-03T06:23:00.998Z</time></trkpt><trkpt lat="44.273896522997575" lon="11.213415302804432"><ele>381.0</ele><time>2026-05-03T06:23:01.998Z</time></trkpt><trkpt lat="44.27382263880006" lon="11.213384311393384"><ele>382.6666666666667</ele><time>2026-05-03T06:23:02.998Z</time></trkpt><trkpt lat="44.27374925247288" lon="11.213362037911592"><ele>384.33333333333337</ele><time>2026-05-03T06:23:03.998Z</time></trkpt><trkpt lat="44.27366612760484" lon="11.213345919644848"><ele>386.0</ele><time>2026-05-03T06:23:04.998Z</time></trkpt><trkpt lat="44.273582831508556" lon="11.213341320272782"><ele>387.6666666666667</ele><time>2026-05-03T06:23:05.998Z</time></trkpt><trkpt lat="44.2735020366691" lon="11.2133509462232"><ele>389.33333333333337</ele><time>2026-05-03T06:23:06.998Z</time></trkpt><trkpt lat="44.27342220091558" lon="11.213374463090158"><ele>391.0</ele><time>2026-05-03T06:23:07.998Z</time></trkpt><trkpt lat="44.27334555463943" lon="11.213413175565618"><ele>391.00000000000006</ele><time>2026-05-03T06:23:08.998Z</time></trkpt><trkpt lat="44.27327049995021" lon="11.21345479298708"><ele>391.0</ele><time>2026-05-03T06:23:09.998Z</time></trkpt><trkpt lat="44.27320170740967" lon="11.213513676824277"><ele>391.0</ele><time>2026-05-03T06:23:10.998Z</time></trkpt><trkpt lat="44.27313875036917" lon="11.213573972870249"><ele>391.0</ele><time>2026-05-03T06:23:11.998Z</time></trkpt><trkpt lat="44.27306648035297" lon="11.213616972553506"><ele>391.00000000000006</ele><time>2026-05-03T06:23:12.998Z</time></trkpt><trkpt lat="44.27300443359203" lon="11.21367000371851"><ele>391.0</ele><time>2026-05-03T06:23:13.998Z</time></trkpt><trkpt lat="44.27294133022735" lon="11.213724444713783"><ele>391.33333333333337</ele><time>2026-05-03T06:23:14.998Z</time></trkpt><trkpt lat="44.272878911761175" lon="11.213777593932573"><ele>391.6666666666667</ele><time>2026-05-03T06:23:15.998Z</time></trkpt><trkpt lat="44.27281799502336" lon="11.21383631471789"><ele>392.0</ele><time>2026-05-03T06:23:16.998Z</time></trkpt><trkpt lat="44.272752536466456" lon="11.213891433706682"><ele>392.33333333333337</ele><time>2026-05-03T06:23:17.998Z</time></trkpt><trkpt lat="44.272685528009205" lon="11.213941500943267"><ele>392.6666666666667</ele><time>2026-05-03T06:23:18.998Z</time></trkpt><trkpt lat="44.27261425319819" lon="11.213980127941294"><ele>393.0</ele><time>2026-05-03T06:23:19.998Z</time></trkpt><trkpt lat="44.272540216588794" lon="11.213998262282612"><ele>392.1666666666667</ele><time>2026-05-03T06:23:20.998Z</time></trkpt><trkpt lat="44.272463121314765" lon="11.214011159254396"><ele>391.33333333333337</ele><time>2026-05-03T06:23:21.998Z</time></trkpt><trkpt lat="44.27238714181207" lon="11.214013843601881"><ele>390.5</ele><time>2026-05-03T06:23:22.998Z</time></trkpt><trkpt lat="44.27231288809209" lon="11.214007635891743"><ele>389.6666666666667</ele><time>2026-05-03T06:23:23.998Z</time></trkpt><trkpt lat="44.272240041421156" lon="11.213994106996232"><ele>388.83333333333337</ele><time>2026-05-03T06:23:24.998Z</time></trkpt><trkpt lat="44.27216575115966" lon="11.21398195438237"><ele>388.0</ele><time>2026-05-03T06:23:25.998Z</time></trkpt><trkpt lat="44.272087025249085" lon="11.213977367377671"><ele>388.00000000000006</ele><time>2026-05-03T06:23:26.998Z</time></trkpt><trkpt lat="44.272006392657346" lon="11.21397958962135"><ele>388.0</ele><time>2026-05-03T06:23:27.998Z</time></trkpt><trkpt lat="44.27192575159639" lon="11.21398962519604"><ele>388.0</ele><time>2026-05-03T06:23:28.998Z</time></trkpt><trkpt lat="44.27184256366888" lon="11.21401282050971"><ele>388.0</ele><time>2026-05-03T06:23:29.998Z</time></trkpt><trkpt lat="44.27176193601808" lon="11.214050172010772"><ele>388.00000000000006</ele><time>2026-05-03T06:23:30.998Z</time></trkpt><trkpt lat="44.27168525976273" lon="11.21410846771212"><ele>388.0</ele><time>2026-05-03T06:23:31.998Z</time></trkpt><trkpt lat="44.27161989483015" lon="11.21418292558793"><ele>392.00000000000006</ele><time>2026-05-03T06:23:32.998Z</time></trkpt><trkpt lat="44.27157456925627" lon="11.214284363442317"><ele>396.0</ele><time>2026-05-03T06:23:33.998Z</time></trkpt><trkpt lat="44.27155271397393" lon="11.21439908985927"><ele>400.0</ele><time>2026-05-03T06:23:34.998Z</time></trkpt><trkpt lat="44.271540045204254" lon="11.214511700378289"><ele>404.0</ele><time>2026-05-03T06:23:35.998Z</time></trkpt><trkpt lat="44.271549010838065" lon="11.214628337169168"><ele>408.00000000000006</ele><time>2026-05-03T06:23:36.998Z</time></trkpt><trkpt lat="44.27156202638023" lon="11.214738704759341"><ele>412.0</ele><time>2026-05-03T06:23:37.998Z</time></trkpt><trkpt lat="44.271573187883085" lon="11.21485817746266"><ele>414.00000000000006</ele><time>2026-05-03T06:23:38.998Z</time></trkpt><trkpt lat="44.271587138250126" lon="11.214981931130716"><ele>416.0</ele><time>2026-05-03T06:23:39.998Z</time></trkpt><trkpt lat="44.27159935580303" lon="11.21510271950658"><ele>418.0</ele><time>2026-05-03T06:23:40.998Z</time></trkpt><trkpt lat="44.27160989122493" lon="11.215223237443533"><ele>420.0</ele><time>2026-05-03T06:23:41.998Z</time></trkpt><trkpt lat="44.2716222535471" lon="11.21534304563335"><ele>422.00000000000006</ele><time>2026-05-03T06:23:42.998Z</time></trkpt><trkpt lat="44.27163663588075" lon="11.215461805029118"><ele>424.0</ele><time>2026-05-03T06:23:43.998Z</time></trkpt><trkpt lat="44.27164775472835" lon="11.21557691120025"><ele>425.2</ele><time>2026-05-03T06:23:44.998Z</time></trkpt><trkpt lat="44.271665212816906" lon="11.215697905961779"><ele>426.4</ele><time>2026-05-03T06:23:45.998Z</time></trkpt><trkpt lat="44.27167619211494" lon="11.215818799678223"><ele>427.6</ele><time>2026-05-03T06:23:46.998Z</time></trkpt><trkpt lat="44.27168529406854" lon="11.215947000946374"><ele>428.8</ele><time>2026-05-03T06:23:47.998Z</time></trkpt><trkpt lat="44.27169073034059" lon="11.216073784468898"><ele>430.0</ele><time>2026-05-03T06:23:48.998Z</time></trkpt><trkpt lat="44.27168579791508" lon="11.216201671345088"><ele>430.0</ele><time>2026-05-03T06:23:49.998Z</time></trkpt><trkpt lat="44.27167612897097" lon="11.216329814382329"><ele>430.0</ele><time>2026-05-03T06:23:50.998Z</time></trkpt><trkpt lat="44.271650753257106" lon="11.216448717325482"><ele>430.0</ele><time>2026-05-03T06:23:51.998Z</time></trkpt><trkpt lat="44.27161666597076" lon="11.216565618556062"><ele>430.0</ele><time>2026-05-03T06:23:52.998Z</time></trkpt><trkpt lat="44.27158284948255" lon="11.216682432550813"><ele>430.0</ele><time>2026-05-03T06:23:53.998Z</time></trkpt><trkpt lat="44.2715435738681" lon="11.216799911055176"><ele>429.00000000000006</ele><time>2026-05-03T06:23:54.998Z</time></trkpt><trkpt lat="44.271505037422045" lon="11.216909082391288"><ele>428.0</ele><time>2026-05-03T06:23:55.998Z</time></trkpt><trkpt lat="44.27146882471983" lon="11.217022016548226"><ele>427.0</ele><time>2026-05-03T06:23:56.998Z</time></trkpt><trkpt lat="44.271428990937544" lon="11.217131169597712"><ele>426.0</ele><time>2026-05-03T06:23:57.998Z</time></trkpt><trkpt lat="44.271390082064165" lon="11.217242279912334"><ele>425.00000000000006</ele><time>2026-05-03T06:23:58.998Z</time></trkpt><trkpt lat="44.2713543991782" lon="11.217353178069512"><ele>424.0</ele><time>2026-05-03T06:23:59.998Z</time></trkpt><trkpt lat="44.27131661229588" lon="11.217466588451217"><ele>424.00000000000006</ele><time>2026-05-03T06:24:00.998Z</time></trkpt><trkpt lat="44.27127788176187" lon="11.217581772836276"><ele>424.0</ele><time>2026-05-03T06:24:01.998Z</time></trkpt><trkpt lat="44.27124338890885" lon="11.217698708646202"><ele>424.0</ele><time>2026-05-03T06:24:02.998Z</time></trkpt><trkpt lat="44.27121563448955" lon="11.217817594860437"><ele>424.0</ele><time>2026-05-03T06:24:03.998Z</time></trkpt><trkpt lat="44.27119804145007" lon="11.217940221132055"><ele>424.00000000000006</ele><time>2026-05-03T06:24:04.998Z</time></trkpt><trkpt lat="44.27119114150708" lon="11.218062590032929"><ele>424.0</ele><time>2026-05-03T06:24:05.998Z</time></trkpt><trkpt lat="44.271198424288734" lon="11.218184018288714"><ele>426.5714285714286</ele><time>2026-05-03T06:24:06.998Z</time></trkpt><trkpt lat="44.271216016764974" lon="11.218295280607784"><ele>429.1428571428571</ele><time>2026-05-03T06:24:07.998Z</time></trkpt><trkpt lat="44.271229824496366" lon="11.218401834869281"><ele>431.7142857142857</ele><time>2026-05-03T06:24:08.998Z</time></trkpt><trkpt lat="44.271251074440976" lon="11.21850510887541"><ele>434.28571428571433</ele><time>2026-05-03T06:24:09.998Z</time></trkpt><trkpt lat="44.271261638891126" lon="11.218604996031713"><ele>436.8571428571429</ele><time>2026-05-03T06:24:10.998Z</time></trkpt><trkpt lat="44.2712519754451" lon="11.218694799815314"><ele>439.42857142857144</ele><time>2026-05-03T06:24:11.998Z</time></trkpt><trkpt lat="44.271215062953885" lon="11.218772980324921"><ele>442.0</ele><time>2026-05-03T06:24:12.998Z</time></trkpt><trkpt lat="44.27113718197917" lon="11.21881645312295"><ele>442.00000000000006</ele><time>2026-05-03T06:24:13.998Z</time></trkpt><trkpt lat="44.27105724641595" lon="11.218824029143848"><ele>442.0</ele><time>2026-05-03T06:24:14.998Z</time></trkpt><trkpt lat="44.27098396600937" lon="11.218802591276306"><ele>442.0</ele><time>2026-05-03T06:24:15.998Z</time></trkpt><trkpt lat="44.270899810134644" lon="11.218772561757083"><ele>442.0</ele><time>2026-05-03T06:24:16.998Z</time></trkpt><trkpt lat="44.27081134483272" lon="11.218742495010677"><ele>442.00000000000006</ele><time>2026-05-03T06:24:17.998Z</time></trkpt><trkpt lat="44.27071876412633" lon="11.218729254712416"><ele>442.0</ele><time>2026-05-03T06:24:18.998Z</time></trkpt><trkpt lat="44.27062959020888" lon="11.218701391388727"><ele>441.00000000000006</ele><time>2026-05-03T06:24:19.998Z</time></trkpt><trkpt lat="44.270538544723024" lon="11.218690612343337"><ele>440.0</ele><time>2026-05-03T06:24:20.998Z</time></trkpt><trkpt lat="44.27045022573399" lon="11.218707194515678"><ele>439.0</ele><time>2026-05-03T06:24:21.998Z</time></trkpt><trkpt lat="44.27036938480295" lon="11.218749705220697"><ele>438.0</ele><time>2026-05-03T06:24:22.998Z</time></trkpt><trkpt lat="44.270303921303864" lon="11.218812253907494"><ele>437.00000000000006</ele><time>2026-05-03T06:24:23.998Z</time></trkpt><trkpt lat="44.27023560768622" lon="11.218891015766781"><ele>436.0</ele><time>2026-05-03T06:24:24.998Z</time></trkpt><trkpt lat="44.27016783461853" lon="11.21897353348923"><ele>439.4</ele><time>2026-05-03T06:24:25.998Z</time></trkpt><trkpt lat="44.27009836297318" lon="11.219050042438349"><ele>442.8</ele><time>2026-05-03T06:24:26.998Z</time></trkpt><trkpt lat="44.270038262996856" lon="11.219153440801403"><ele>446.19999999999993</ele><time>2026-05-03T06:24:27.998Z</time></trkpt><trkpt lat="44.26998107665634" lon="11.219254417134454"><ele>449.59999999999997</ele><time>2026-05-03T06:24:28.998Z</time></trkpt><trkpt lat="44.26993513357001" lon="11.219362081136472"><ele>453.0</ele><time>2026-05-03T06:24:29.998Z</time></trkpt><trkpt lat="44.2698931463928" lon="11.219471074750588"><ele>453.0</ele><time>2026-05-03T06:24:30.998Z</time></trkpt><trkpt lat="44.26986391335411" lon="11.219581727785712"><ele>453.0</ele><time>2026-05-03T06:24:31.998Z</time></trkpt><trkpt lat="44.269840924190085" lon="11.219693025375319"><ele>453.0</ele><time>2026-05-03T06:24:32.998Z</time></trkpt><trkpt lat="44.26981705012255" lon="11.219801647559004"><ele>453.0</ele><time>2026-05-03T06:24:33.998Z</time></trkpt><trkpt lat="44.26979544699929" lon="11.21990806555077"><ele>453.0</ele><time>2026-05-03T06:24:34.998Z</time></trkpt><trkpt lat="44.26976207483975" lon="11.220010268067021"><ele>453.0</ele><time>2026-05-03T06:24:35.998Z</time></trkpt><trkpt lat="44.269719289874196" lon="11.22010320475174"><ele>455.1428571428571</ele><time>2026-05-03T06:24:36.998Z</time></trkpt><trkpt lat="44.26965855033783" lon="11.220165958498884"><ele>457.2857142857143</ele><time>2026-05-03T06:24:37.998Z</time></trkpt><trkpt lat="44.26959026508607" lon="11.220209782218284"><ele>459.42857142857144</ele><time>2026-05-03T06:24:38.998Z</time></trkpt><trkpt lat="44.269516502310324" lon="11.220199041186236"><ele>461.57142857142856</ele><time>2026-05-03T06:24:39.998Z</time></trkpt><trkpt lat="44.269446272705174" lon="11.220181398804343"><ele>463.7142857142858</ele><time>2026-05-03T06:24:40.998Z</time></trkpt><trkpt lat="44.26937311567122" lon="11.220163025650935"><ele>465.8571428571429</ele><time>2026-05-03T06:24:41.998Z</time></trkpt><trkpt lat="44.26930085078362" lon="11.220126772234957"><ele>468.0</ele><time>2026-05-03T06:24:42.998Z</time></trkpt><trkpt lat="44.26922660202432" lon="11.22008512571878"><ele>468.0</ele><time>2026-05-03T06:24:43.998Z</time></trkpt><trkpt lat="44.269150039679275" lon="11.220041683566066"><ele>468.0</ele><time>2026-05-03T06:24:44.998Z</time></trkpt><trkpt lat="44.269071580386175" lon="11.2200227952443"><ele>468.0</ele><time>2026-05-03T06:24:45.998Z</time></trkpt><trkpt lat="44.26898916944552" lon="11.220013660460516"><ele>468.0</ele><time>2026-05-03T06:24:46.998Z</time></trkpt><trkpt lat="44.26890677600829" lon="11.220027955562838"><ele>468.0</ele><time>2026-05-03T06:24:47.998Z</time></trkpt><trkpt lat="44.268828263626474" lon="11.22004321893835"><ele>468.0</ele><time>2026-05-03T06:24:48.998Z</time></trkpt><trkpt lat="44.268746797670154" lon="11.220060473266045"><ele>467.6666666666667</ele><time>2026-05-03T06:24:49.998Z</time></trkpt><trkpt lat="44.26866883004224" lon="11.220095511925837"><ele>467.33333333333337</ele><time>2026-05-03T06:24:50.998Z</time></trkpt><trkpt lat="44.26859671270183" lon="11.220165873130826"><ele>467.0</ele><time>2026-05-03T06:24:51.998Z</time></trkpt><trkpt lat="44.268551783625334" lon="11.220261796205753"><ele>466.6666666666667</ele><time>2026-05-03T06:24:52.998Z</time></trkpt><trkpt lat="44.268512723835116" lon="11.220367494185133"><ele>466.33333333333337</ele><time>2026-05-03T06:24:53.998Z</time></trkpt><trkpt lat="44.26851952998262" lon="11.220494359586615"><ele>466.0</ele><time>2026-05-03T06:24:54.998Z</time></trkpt><trkpt lat="44.26851946133225" lon="11.220607301349247"><ele>467.6666666666667</ele><time>2026-05-03T06:24:55.998Z</time></trkpt><trkpt lat="44.26852212138521" lon="11.220715331399873"><ele>469.33333333333337</ele><time>2026-05-03T06:24:56.998Z</time></trkpt><trkpt lat="44.268514442052386" lon="11.220831546197521"><ele>471.0</ele><time>2026-05-03T06:24:57.998Z</time></trkpt><trkpt lat="44.26849760236678" lon="11.220956400999837"><ele>472.66666666666663</ele><time>2026-05-03T06:24:58.998Z</time></trkpt><trkpt lat="44.26847157236846" lon="11.22108307737023"><ele>474.3333333333333</ele><time>2026-05-03T06:24:59.998Z</time></trkpt><trkpt lat="44.26844286113107" lon="11.221210902043824"><ele>476.0</ele><time>2026-05-03T06:25:00.998Z</time></trkpt><trkpt lat="44.268405149858914" lon="11.221339369972144"><ele>476.0</ele><time>2026-05-03T06:25:01.998Z</time></trkpt><trkpt lat="44.26838075541116" lon="11.221470604807196"><ele>476.0</ele><time>2026-05-03T06:25:02.998Z</time></trkpt><trkpt lat="44.26837454398301" lon="11.22160501458782"><ele>476.0</ele><time>2026-05-03T06:25:03.998Z</time></trkpt><trkpt lat="44.26839816509735" lon="11.22174380227465"><ele>476.0</ele><time>2026-05-03T06:25:04.998Z</time></trkpt><trkpt lat="44.26843190030107" lon="11.22186662685767"><ele>476.0</ele><time>2026-05-03T06:25:05.998Z</time></trkpt><trkpt lat="44.268469450996406" lon="11.22199331190937"><ele>477.4</ele><time>2026-05-03T06:25:06.998Z</time></trkpt><trkpt lat="44.26850651184634" lon="11.222117191887028"><ele>478.8</ele><time>2026-05-03T06:25:07.998Z</time></trkpt><trkpt lat="44.268538908972715" lon="11.222236301034217"><ele>480.19999999999993</ele><time>2026-05-03T06:25:08.997Z</time></trkpt><trkpt lat="44.2685654625529" lon="11.222366846266585"><ele>481.59999999999997</ele><time>2026-05-03T06:25:09.997Z</time></trkpt><trkpt lat="44.26858135336254" lon="11.22249757609165"><ele>483.0</ele><time>2026-05-03T06:25:10.997Z</time></trkpt><trkpt lat="44.26859590268068" lon="11.222625654212875"><ele>483.59999999999997</ele><time>2026-05-03T06:25:11.997Z</time></trkpt><trkpt lat="44.26859941401355" lon="11.222753208190555"><ele>484.19999999999993</ele><time>2026-05-03T06:25:12.997Z</time></trkpt><trkpt lat="44.26859780641041" lon="11.222882871522408"><ele>484.8</ele><time>2026-05-03T06:25:13.997Z</time></trkpt><trkpt lat="44.268596514032716" lon="11.223009120800727"><ele>485.4</ele><time>2026-05-03T06:25:14.997Z</time></trkpt><trkpt lat="44.26859028662077" lon="11.223135188598592"><ele>486.0</ele><time>2026-05-03T06:25:15.997Z</time></trkpt><trkpt lat="44.26858518672882" lon="11.223260512767366"><ele>487.1666666666667</ele><time>2026-05-03T06:25:16.997Z</time></trkpt><trkpt lat="44.26857809791268" lon="11.223381980122666"><ele>488.33333333333337</ele><time>2026-05-03T06:25:17.997Z</time></trkpt><trkpt lat="44.26857100144502" lon="11.223503079926774"><ele>489.5</ele><time>2026-05-03T06:25:18.997Z</time></trkpt><trkpt lat="44.26855910266966" lon="11.223622048877461"><ele>490.6666666666667</ele><time>2026-05-03T06:25:19.997Z</time></trkpt><trkpt lat="44.26855211979321" lon="11.223742106830489"><ele>491.83333333333337</ele><time>2026-05-03T06:25:20.997Z</time></trkpt><trkpt lat="44.2685633761845" lon="11.223850983306079"><ele>493.0</ele><time>2026-05-03T06:25:21.997Z</time></trkpt><trkpt lat="44.26860588229375" lon="11.223940371781719"><ele>493.00000000000006</ele><time>2026-05-03T06:25:22.997Z</time></trkpt><trkpt lat="44.26868774108502" lon="11.223974245063575"><ele>493.0</ele><time>2026-05-03T06:25:23.997Z</time></trkpt><trkpt lat="44.26877467903125" lon="11.223943723912265"><ele>493.0</ele><time>2026-05-03T06:25:24.997Z</time></trkpt><trkpt lat="44.26884433190165" lon="11.22386337251945"><ele>493.0</ele><time>2026-05-03T06:25:25.997Z</time></trkpt><trkpt lat="44.26890510148329" lon="11.223775715978334"><ele>493.00000000000006</ele><time>2026-05-03T06:25:26.997Z</time></trkpt><trkpt lat="44.268953525625996" lon="11.22367708780609"><ele>493.0</ele><time>2026-05-03T06:25:27.997Z</time></trkpt><trkpt lat="44.269011287458895" lon="11.223584415472642"><ele>496.0</ele><time>2026-05-03T06:25:28.997Z</time></trkpt><trkpt lat="44.269080689314244" lon="11.223504770329503"><ele>498.99999999999994</ele><time>2026-05-03T06:25:29.997Z</time></trkpt><trkpt lat="44.269141496483364" lon="11.223409298267494"><ele>501.99999999999994</ele><time>2026-05-03T06:25:30.997Z</time></trkpt><trkpt lat="44.26920007658924" lon="11.223311513820127"><ele>505.0</ele><time>2026-05-03T06:25:31.997Z</time></trkpt><trkpt lat="44.269258037521254" lon="11.223208683845408"><ele>508.0</ele><time>2026-05-03T06:25:32.997Z</time></trkpt><trkpt lat="44.26931382051139" lon="11.223105838829582"><ele>508.00000000000006</ele><time>2026-05-03T06:25:33.997Z</time></trkpt><trkpt lat="44.26937536009142" lon="11.223016060480997"><ele>508.0</ele><time>2026-05-03T06:25:34.997Z</time></trkpt><trkpt lat="44.26945098915106" lon="11.222960991438946"><ele>508.0</ele><time>2026-05-03T06:25:35.997Z</time></trkpt><trkpt lat="44.269534356092" lon="11.22295107313355"><ele>508.0</ele><time>2026-05-03T06:25:36.997Z</time></trkpt><trkpt lat="44.26960392224824" lon="11.222998775310053"><ele>508.00000000000006</ele><time>2026-05-03T06:25:37.997Z</time></trkpt><trkpt lat="44.26965637672161" lon="11.223088548702272"><ele>508.0</ele><time>2026-05-03T06:25:38.997Z</time></trkpt><trkpt lat="44.269685358510955" lon="11.2231898664675"><ele>508.1666666666667</ele><time>2026-05-03T06:25:39.997Z</time></trkpt><trkpt lat="44.26970479475628" lon="11.223304320585937"><ele>508.33333333333337</ele><time>2026-05-03T06:25:40.997Z</time></trkpt><trkpt lat="44.26972951127233" lon="11.223411639549287"><ele>508.5</ele><time>2026-05-03T06:25:41.997Z</time></trkpt><trkpt lat="44.26976138740178" lon="11.223515679229152"><ele>508.66666666666663</ele><time>2026-05-03T06:25:42.997Z</time></trkpt><trkpt lat="44.269791875308094" lon="11.223619158341936"><ele>508.8333333333333</ele><time>2026-05-03T06:25:43.997Z</time></trkpt><trkpt lat="44.26981719241733" lon="11.223726594663507"><ele>509.0</ele><time>2026-05-03T06:25:44.997Z</time></trkpt><trkpt lat="44.26984756378209" lon="11.223839567624655"><ele>512.5</ele><time>2026-05-03T06:25:45.997Z</time></trkpt><trkpt lat="44.26987249282948" lon="11.223949794779319"><ele>516.0</ele><time>2026-05-03T06:25:46.997Z</time></trkpt><trkpt lat="44.26989532618253" lon="11.224067802191824"><ele>519.5</ele><time>2026-05-03T06:25:47.997Z</time></trkpt><trkpt lat="44.269910601076724" lon="11.224190152193433"><ele>523.0</ele><time>2026-05-03T06:25:48.997Z</time></trkpt><trkpt lat="44.269922955351575" lon="11.224308105054153"><ele>526.5</ele><time>2026-05-03T06:25:49.997Z</time></trkpt><trkpt lat="44.26992585426378" lon="11.224429668188474"><ele>530.0</ele><time>2026-05-03T06:25:50.997Z</time></trkpt><trkpt lat="44.26992036855232" lon="11.224550810943148"><ele>529.8333333333333</ele><time>2026-05-03T06:25:51.997Z</time></trkpt><trkpt lat="44.269907493036456" lon="11.224669656145856"><ele>529.6666666666666</ele><time>2026-05-03T06:25:52.997Z</time></trkpt><trkpt lat="44.269878867259095" lon="11.224785383122255"><ele>529.5</ele><time>2026-05-03T06:25:53.997Z</time></trkpt><trkpt lat="44.26984904412483" lon="11.224899004557797"><ele>529.3333333333334</ele><time>2026-05-03T06:25:54.997Z</time></trkpt><trkpt lat="44.269808988936504" lon="11.225006151518544"><ele>529.1666666666667</ele><time>2026-05-03T06:25:55.997Z</time></trkpt><trkpt lat="44.26976156786051" lon="11.225107237679008"><ele>529.0</ele><time>2026-05-03T06:25:56.997Z</time></trkpt><trkpt lat="44.269701180959025" lon="11.225195775378426"><ele>529.0</ele><time>2026-05-03T06:25:57.997Z</time></trkpt><trkpt lat="44.26963928005021" lon="11.225280482736057"><ele>529.0</ele><time>2026-05-03T06:25:58.997Z</time></trkpt><trkpt lat="44.26957018808512" lon="11.22535771033733"><ele>529.0</ele><time>2026-05-03T06:25:59.997Z</time></trkpt><trkpt lat="44.269490364949164" lon="11.225414175395999"><ele>529.0</ele><time>2026-05-03T06:26:00.997Z</time></trkpt><trkpt lat="44.26940739374558" lon="11.22545503792663"><ele>529.0</ele><time>2026-05-03T06:26:01.997Z</time></trkpt><trkpt lat="44.26931661308645" lon="11.225477544384804"><ele>529.0</ele><time>2026-05-03T06:26:02.997Z</time></trkpt><trkpt lat="44.26922382387941" lon="11.225501581749947"><ele>529.0</ele><time>2026-05-03T06:26:03.997Z</time></trkpt><trkpt lat="44.26913035117195" lon="11.22553490403585"><ele>529.0</ele><time>2026-05-03T06:26:04.997Z</time></trkpt><trkpt lat="44.26903403195921" lon="11.225566109426001"><ele>529.0</ele><time>2026-05-03T06:26:05.997Z</time></trkpt><trkpt lat="44.26894215567914" lon="11.225614033305348"><ele>529.0</ele><time>2026-05-03T06:26:06.997Z</time></trkpt><trkpt lat="44.268858124330826" lon="11.22568025992449"><ele>529.0</ele><time>2026-05-03T06:26:07.997Z</time></trkpt><trkpt lat="44.26878908230936" lon="11.225767975764052"><ele>530.6</ele><time>2026-05-03T06:26:08.997Z</time></trkpt><trkpt lat="44.26873009164388" lon="11.225877881704633"><ele>532.2</ele><time>2026-05-03T06:26:09.997Z</time></trkpt><trkpt lat="44.26869014297816" lon="11.225997232565115"><ele>533.8000000000001</ele><time>2026-05-03T06:26:10.997Z</time></trkpt><trkpt lat="44.2686793074364" lon="11.226122535911868"><ele>535.4</ele><time>2026-05-03T06:26:11.997Z</time></trkpt><trkpt lat="44.268702412451354" lon="11.226249164559263"><ele>537.0</ele><time>2026-05-03T06:26:12.997Z</time></trkpt><trkpt lat="44.2687514571047" lon="11.226366223905318"><ele>537.0</ele><time>2026-05-03T06:26:13.997Z</time></trkpt><trkpt lat="44.26880862059628" lon="11.226468554121539"><ele>537.0</ele><time>2026-05-03T06:26:14.997Z</time></trkpt><trkpt lat="44.26886427988922" lon="11.226580266671888"><ele>537.0</ele><time>2026-05-03T06:26:15.997Z</time></trkpt><trkpt lat="44.268922713545194" lon="11.22668399154028"><ele>537.0</ele><time>2026-05-03T06:26:16.997Z</time></trkpt><trkpt lat="44.268985743394865" lon="11.226776730487742"><ele>537.0</ele><time>2026-05-03T06:26:17.997Z</time></trkpt><trkpt lat="44.269050469262105" lon="11.226867410922818"><ele>540.5</ele><time>2026-05-03T06:26:18.997Z</time></trkpt><trkpt lat="44.269115417850045" lon="11.226955347156771"><ele>544.0</ele><time>2026-05-03T06:26:19.997Z</time></trkpt><trkpt lat="44.26918401177453" lon="11.227035008191987"><ele>547.5</ele><time>2026-05-03T06:26:20.997Z</time></trkpt><trkpt lat="44.26925175727683" lon="11.227125114271997"><ele>551.0</ele><time>2026-05-03T06:26:21.997Z</time></trkpt><trkpt lat="44.269302022821954" lon="11.227227159750091"><ele>554.5</ele><time>2026-05-03T06:26:22.997Z</time></trkpt><trkpt lat="44.26933395775914" lon="11.227338439999018"><ele>558.0</ele><time>2026-05-03T06:26:23.997Z</time></trkpt><trkpt lat="44.269357886272495" lon="11.227447066474864"><ele>558.0</ele><time>2026-05-03T06:26:24.997Z</time></trkpt><trkpt lat="44.269381346204575" lon="11.227563103480033"><ele>558.0</ele><time>2026-05-03T06:26:25.997Z</time></trkpt><trkpt lat="44.269407249302645" lon="11.227677541797531"><ele>558.0</ele><time>2026-05-03T06:26:26.997Z</time></trkpt><trkpt lat="44.26942752566734" lon="11.2277901120106"><ele>558.0</ele><time>2026-05-03T06:26:27.997Z</time></trkpt><trkpt lat="44.2694466311186" lon="11.227910157278842"><ele>558.0</ele><time>2026-05-03T06:26:28.997Z</time></trkpt><trkpt lat="44.26947434821612" lon="11.22802980252446"><ele>558.0</ele><time>2026-05-03T06:26:29.997Z</time></trkpt><trkpt lat="44.269505790496765" lon="11.228148696771099"><ele>557.1999999999999</ele><time>2026-05-03T06:26:30.997Z</time></trkpt><trkpt lat="44.269543047367115" lon="11.22826024185517"><ele>556.4</ele><time>2026-05-03T06:26:31.997Z</time></trkpt><trkpt lat="44.26959710961722" lon="11.228366800527919"><ele>555.5999999999999</ele><time>2026-05-03T06:26:32.997Z</time></trkpt><trkpt lat="44.26965448236392" lon="11.228461671457431"><ele>554.8</ele><time>2026-05-03T06:26:33.997Z</time></trkpt><trkpt lat="44.26971726009031" lon="11.228554319116505"><ele>554.0</ele><time>2026-05-03T06:26:34.997Z</time></trkpt><trkpt lat="44.26976666602547" lon="11.228658937761226"><ele>559.0</ele><time>2026-05-03T06:26:35.997Z</time></trkpt><trkpt lat="44.269832371080604" lon="11.228743030462235"><ele>564.0</ele><time>2026-05-03T06:26:36.997Z</time></trkpt><trkpt lat="44.26989521997882" lon="11.228824527261938"><ele>569.0</ele><time>2026-05-03T06:26:37.997Z</time></trkpt><trkpt lat="44.26996054233112" lon="11.228911084264414"><ele>574.0</ele><time>2026-05-03T06:26:38.997Z</time></trkpt><trkpt lat="44.270017360095494" lon="11.229007062383504"><ele>579.0</ele><time>2026-05-03T06:26:39.997Z</time></trkpt><trkpt lat="44.27005678020917" lon="11.229113610396427"><ele>584.0</ele><time>2026-05-03T06:26:40.997Z</time></trkpt><trkpt lat="44.27007428420235" lon="11.229230764960539"><ele>584.0</ele><time>2026-05-03T06:26:41.997Z</time></trkpt><trkpt lat="44.27006682266192" lon="11.2293607416407"><ele>584.0</ele><time>2026-05-03T06:26:42.997Z</time></trkpt><trkpt lat="44.27003741193805" lon="11.229486782432488"><ele>584.0</ele><time>2026-05-03T06:26:43.997Z</time></trkpt><trkpt lat="44.270002560524304" lon="11.229607808503632"><ele>584.0</ele><time>2026-05-03T06:26:44.997Z</time></trkpt><trkpt lat="44.2699707919064" lon="11.229725818797567"><ele>584.0</ele><time>2026-05-03T06:26:45.997Z</time></trkpt><trkpt lat="44.269959308979466" lon="11.22985268514768"><ele>584.4</ele><time>2026-05-03T06:26:46.997Z</time></trkpt><trkpt lat="44.26997508950436" lon="11.229977472297081"><ele>584.8</ele><time>2026-05-03T06:26:47.997Z</time></trkpt><trkpt lat="44.27001598558307" lon="11.230091052344195"><ele>585.2</ele><time>2026-05-03T06:26:48.997Z</time></trkpt><trkpt lat="44.27006549003902" lon="11.230197422348875"><ele>585.6</ele><time>2026-05-03T06:26:49.997Z</time></trkpt><trkpt lat="44.270118962726436" lon="11.23030108658806"><ele>586.0</ele><time>2026-05-03T06:26:50.997Z</time></trkpt><trkpt lat="44.27017374884729" lon="11.230395605275953"><ele>586.0</ele><time>2026-05-03T06:26:51.997Z</time></trkpt><trkpt lat="44.27020476359776" lon="11.230503904874666"><ele>586.0</ele><time>2026-05-03T06:26:52.997Z</time></trkpt><trkpt lat="44.270224719034026" lon="11.230629562200892"><ele>586.0</ele><time>2026-05-03T06:26:53.997Z</time></trkpt><trkpt lat="44.27024242728827" lon="11.230750799421571"><ele>586.0</ele><time>2026-05-03T06:26:54.997Z</time></trkpt><trkpt lat="44.27024665369745" lon="11.230862871674423"><ele>586.0</ele><time>2026-05-03T06:26:55.997Z</time></trkpt><trkpt lat="44.27024139877752" lon="11.230973214616455"><ele>586.0</ele><time>2026-05-03T06:26:56.997Z</time></trkpt><trkpt lat="44.27023038571482" lon="11.231081842427312"><ele>586.8571428571428</ele><time>2026-05-03T06:26:57.997Z</time></trkpt><trkpt lat="44.270219558681184" lon="11.231185616628075"><ele>587.7142857142857</ele><time>2026-05-03T06:26:58.997Z</time></trkpt><trkpt lat="44.27019752112788" lon="11.231278023922822"><ele>588.5714285714286</ele><time>2026-05-03T06:26:59.997Z</time></trkpt><trkpt lat="44.27016525102317" lon="11.231364519782403"><ele>589.4285714285713</ele><time>2026-05-03T06:27:00.997Z</time></trkpt><trkpt lat="44.27011514212562" lon="11.23142769636053"><ele>590.2857142857142</ele><time>2026-05-03T06:27:01.997Z</time></trkpt><trkpt lat="44.27005527798546" lon="11.23147414547302"><ele>591.1428571428571</ele><time>2026-05-03T06:27:02.997Z</time></trkpt><trkpt lat="44.2699939748382" lon="11.231509783686365"><ele>592.0</ele><time>2026-05-03T06:27:03.997Z</time></trkpt><trkpt lat="44.26986722851778" lon="11.231543530216973"><ele>592.4</ele><time>2026-05-03T06:27:05.997Z</time></trkpt><trkpt lat="44.26980062481863" lon="11.23157512023278"><ele>592.8000000000001</ele><time>2026-05-03T06:27:06.997Z</time></trkpt><trkpt lat="44.26973634915914" lon="11.231601545080009"><ele>593.2</ele><time>2026-05-03T06:27:07.997Z</time></trkpt><trkpt lat="44.269657293473685" lon="11.231695330889403"><ele>593.6</ele><time>2026-05-03T06:27:08.997Z</time></trkpt><trkpt lat="44.269546249435756" lon="11.231842425778352"><ele>594.0</ele><time>2026-05-03T06:27:09.997Z</time></trkpt><trkpt lat="44.26961439124114" lon="11.23175379164945"><ele>594.0</ele><time>2026-05-03T06:27:10.997Z</time></trkpt><trkpt lat="44.269580833404056" lon="11.231839521299257"><ele>594.0</ele><time>2026-05-03T06:27:11.997Z</time></trkpt><trkpt lat="44.26951563529813" lon="11.23188667971815"><ele>594.0</ele><time>2026-05-03T06:27:12.997Z</time></trkpt><trkpt lat="44.26946364396366" lon="11.231965589094655"><ele>594.0</ele><time>2026-05-03T06:27:13.997Z</time></trkpt><trkpt lat="44.26940780429737" lon="11.232039219538235"><ele>594.0</ele><time>2026-05-03T06:27:14.997Z</time></trkpt><trkpt lat="44.2693447588312" lon="11.232107521188016"><ele>594.0</ele><time>2026-05-03T06:27:15.997Z</time></trkpt><trkpt lat="44.26927708494776" lon="11.232171146907074"><ele>594.0</ele><time>2026-05-03T06:27:16.997Z</time></trkpt><trkpt lat="44.26922505171596" lon="11.232251679091506"><ele>594.0</ele><time>2026-05-03T06:27:17.997Z</time></trkpt><trkpt lat="44.269209905395115" lon="11.232365937279438"><ele>594.0</ele><time>2026-05-03T06:27:18.997Z</time></trkpt><trkpt lat="44.269223834043395" lon="11.232484618013123"><ele>594.0</ele><time>2026-05-03T06:27:19.997Z</time></trkpt><trkpt lat="44.26926282913057" lon="11.232594456273166"><ele>594.0</ele><time>2026-05-03T06:27:20.997Z</time></trkpt><trkpt lat="44.269310765970374" lon="11.232698180636431"><ele>594.0</ele><time>2026-05-03T06:27:21.997Z</time></trkpt><trkpt lat="44.26936031721105" lon="11.232806220925523"><ele>598.0</ele><time>2026-05-03T06:27:22.997Z</time></trkpt><trkpt lat="44.26940757173667" lon="11.232918480331477"><ele>602.0</ele><time>2026-05-03T06:27:23.997Z</time></trkpt><trkpt lat="44.26945060934044" lon="11.233035084175338"><ele>606.0</ele><time>2026-05-03T06:27:24.997Z</time></trkpt><trkpt lat="44.26948680355033" lon="11.2331580884131"><ele>610.0</ele><time>2026-05-03T06:27:25.997Z</time></trkpt><trkpt lat="44.26951036963312" lon="11.233284628862256"><ele>614.0</ele><time>2026-05-03T06:27:26.997Z</time></trkpt><trkpt lat="44.26950480967584" lon="11.233420397913404"><ele>615.0</ele><time>2026-05-03T06:27:27.997Z</time></trkpt><trkpt lat="44.269482134494496" lon="11.233553794226548"><ele>616.0</ele><time>2026-05-03T06:27:28.997Z</time></trkpt><trkpt lat="44.2694510190788" lon="11.233684212867937"><ele>617.0</ele><time>2026-05-03T06:27:29.997Z</time></trkpt><trkpt lat="44.269418627743256" lon="11.233813080541823"><ele>618.0</ele><time>2026-05-03T06:27:30.997Z</time></trkpt><trkpt lat="44.26940641778894" lon="11.233945855968686"><ele>619.0</ele><time>2026-05-03T06:27:31.997Z</time></trkpt><trkpt lat="44.269423312575796" lon="11.234087573275437"><ele>619.0</ele><time>2026-05-03T06:27:32.997Z</time></trkpt><trkpt lat="44.2694718416363" lon="11.23422750091699"><ele>619.0</ele><time>2026-05-03T06:27:33.997Z</time></trkpt><trkpt lat="44.269551739383594" lon="11.234367526471864"><ele>619.0</ele><time>2026-05-03T06:27:34.997Z</time></trkpt><trkpt lat="44.26961068751555" lon="11.234500919833977"><ele>619.0</ele><time>2026-05-03T06:27:35.997Z</time></trkpt><trkpt lat="44.26965114082328" lon="11.234642841894281"><ele>619.0</ele><time>2026-05-03T06:27:36.997Z</time></trkpt><trkpt lat="44.26967309360645" lon="11.234791872385198"><ele>619.0</ele><time>2026-05-03T06:27:37.997Z</time></trkpt><trkpt lat="44.26968189298128" lon="11.23494194954265"><ele>619.0</ele><time>2026-05-03T06:27:38.997Z</time></trkpt><trkpt lat="44.26968936810373" lon="11.235093282766663"><ele>619.0</ele><time>2026-05-03T06:27:39.997Z</time></trkpt><trkpt lat="44.26970141736302" lon="11.235238496978168"><ele>619.0</ele><time>2026-05-03T06:27:40.997Z</time></trkpt><trkpt lat="44.269722759879485" lon="11.235383308348798"><ele>618.4</ele><time>2026-05-03T06:27:41.997Z</time></trkpt><trkpt lat="44.269740839518846" lon="11.235524045843183"><ele>617.8</ele><time>2026-05-03T06:27:42.997Z</time></trkpt><trkpt lat="44.269763939486644" lon="11.235668499074386"><ele>617.2</ele><time>2026-05-03T06:27:43.997Z</time></trkpt><trkpt lat="44.269791085581176" lon="11.235813302008683"><ele>616.6</ele><time>2026-05-03T06:27:44.997Z</time></trkpt><trkpt lat="44.26982085333758" lon="11.235964015192161"><ele>616.0</ele><time>2026-05-03T06:27:45.997Z</time></trkpt><trkpt lat="44.269842187193625" lon="11.236115635010808"><ele>617.8</ele><time>2026-05-03T06:27:46.997Z</time></trkpt><trkpt lat="44.269848317158825" lon="11.23626880130124"><ele>619.6</ele><time>2026-05-03T06:27:47.997Z</time></trkpt><trkpt lat="44.26984953583576" lon="11.2364148198108"><ele>621.4</ele><time>2026-05-03T06:27:48.997Z</time></trkpt><trkpt lat="44.26986421622973" lon="11.23654656514138"><ele>623.2</ele><time>2026-05-03T06:27:49.997Z</time></trkpt><trkpt lat="44.26990909986495" lon="11.236666113920148"><ele>625.0</ele><time>2026-05-03T06:27:50.997Z</time></trkpt><trkpt lat="44.26997664731426" lon="11.236780552526174"><ele>625.0</ele><time>2026-05-03T06:27:51.997Z</time></trkpt><trkpt lat="44.27004452618091" lon="11.23690015888358"><ele>625.0</ele><time>2026-05-03T06:27:52.997Z</time></trkpt><trkpt lat="44.27011688863015" lon="11.237025474770949"><ele>625.0</ele><time>2026-05-03T06:27:53.997Z</time></trkpt><trkpt lat="44.27019171611955" lon="11.23715815882589"><ele>625.0</ele><time>2026-05-03T06:27:54.997Z</time></trkpt><trkpt lat="44.270266163157544" lon="11.237292436441663"><ele>624.0</ele><time>2026-05-03T06:27:55.997Z</time></trkpt><trkpt lat="44.27033883453506" lon="11.237425166272063"><ele>623.0</ele><time>2026-05-03T06:27:56.997Z</time></trkpt><trkpt lat="44.27041131941959" lon="11.23755510591824"><ele>622.0</ele><time>2026-05-03T06:27:57.997Z</time></trkpt><trkpt lat="44.27048197033802" lon="11.237680849936478"><ele>621.0</ele><time>2026-05-03T06:27:58.997Z</time></trkpt><trkpt lat="44.27051185928974" lon="11.237831034788721"><ele>621.0</ele><time>2026-05-03T06:27:59.997Z</time></trkpt><trkpt lat="44.27055431454211" lon="11.23796001492348"><ele>621.0</ele><time>2026-05-03T06:28:00.997Z</time></trkpt><trkpt lat="44.27058231724748" lon="11.23809229266178"><ele>621.0</ele><time>2026-05-03T06:28:01.997Z</time></trkpt><trkpt lat="44.27061225601012" lon="11.238222837341144"><ele>621.0</ele><time>2026-05-03T06:28:02.997Z</time></trkpt><trkpt lat="44.270651843433384" lon="11.238341860017453"><ele>621.0</ele><time>2026-05-03T06:28:03.997Z</time></trkpt><trkpt lat="44.27069564015693" lon="11.238461672675792"><ele>623.4</ele><time>2026-05-03T06:28:04.997Z</time></trkpt><trkpt lat="44.270745506456684" lon="11.238578372116718"><ele>625.8</ele><time>2026-05-03T06:28:05.997Z</time></trkpt><trkpt lat="44.270793218757326" lon="11.238703021940264"><ele>628.1999999999999</ele><time>2026-05-03T06:28:06.997Z</time></trkpt><trkpt lat="44.27084450500795" lon="11.23882333252023"><ele>630.6</ele><time>2026-05-03T06:28:07.997Z</time></trkpt><trkpt lat="44.270898937144395" lon="11.238939594164657"><ele>633.0</ele><time>2026-05-03T06:28:08.997Z</time></trkpt><trkpt lat="44.270955436364886" lon="11.239052935239085"><ele>633.8</ele><time>2026-05-03T06:28:09.997Z</time></trkpt><trkpt lat="44.27101181403283" lon="11.239163717462095"><ele>634.5999999999999</ele><time>2026-05-03T06:28:10.997Z</time></trkpt><trkpt lat="44.27106996552669" lon="11.239279545784841"><ele>635.4000000000001</ele><time>2026-05-03T06:28:11.997Z</time></trkpt><trkpt lat="44.271129135125626" lon="11.239401201293477"><ele>636.2</ele><time>2026-05-03T06:28:12.997Z</time></trkpt><trkpt lat="44.27118085381392" lon="11.239530887260326"><ele>637.0</ele><time>2026-05-03T06:28:13.997Z</time></trkpt><trkpt lat="44.271231796070566" lon="11.23966643901607"><ele>637.4</ele><time>2026-05-03T06:28:14.997Z</time></trkpt><trkpt lat="44.27128367061729" lon="11.239801819693037"><ele>637.8000000000001</ele><time>2026-05-03T06:28:15.997Z</time></trkpt><trkpt lat="44.271317281950516" lon="11.239944930065594"><ele>638.2</ele><time>2026-05-03T06:28:16.997Z</time></trkpt><trkpt lat="44.271321591492985" lon="11.240096082908888"><ele>638.6</ele><time>2026-05-03T06:28:17.997Z</time></trkpt><trkpt lat="44.27126769955477" lon="11.240235851964531"><ele>639.0</ele><time>2026-05-03T06:28:18.997Z</time></trkpt><trkpt lat="44.271224106856415" lon="11.240388427688215"><ele>639.0</ele><time>2026-05-03T06:28:19.997Z</time></trkpt><trkpt lat="44.27118516038527" lon="11.240538045037088"><ele>639.0</ele><time>2026-05-03T06:28:20.997Z</time></trkpt><trkpt lat="44.271144249819095" lon="11.240680387943858"><ele>639.0</ele><time>2026-05-03T06:28:21.997Z</time></trkpt><trkpt lat="44.271101859129246" lon="11.24081902508186"><ele>639.0</ele><time>2026-05-03T06:28:22.997Z</time></trkpt><trkpt lat="44.2710607998515" lon="11.24095829569122"><ele>639.0</ele><time>2026-05-03T06:28:23.997Z</time></trkpt><trkpt lat="44.27102025035947" lon="11.241093475051226"><ele>639.2</ele><time>2026-05-03T06:28:24.997Z</time></trkpt><trkpt lat="44.27098044974012" lon="11.241234528751333"><ele>639.4</ele><time>2026-05-03T06:28:25.997Z</time></trkpt><trkpt lat="44.27094404965053" lon="11.241362700894609"><ele>639.6</ele><time>2026-05-03T06:28:26.997Z</time></trkpt><trkpt lat="44.27093529404089" lon="11.241502847910068"><ele>639.8</ele><time>2026-05-03T06:28:27.997Z</time></trkpt><trkpt lat="44.27096761153141" lon="11.24163232887356"><ele>640.0</ele><time>2026-05-03T06:28:28.997Z</time></trkpt><trkpt lat="44.27103657011039" lon="11.241735710627458"><ele>640.0</ele><time>2026-05-03T06:28:29.997Z</time></trkpt><trkpt lat="44.271132959564966" lon="11.241784004988704"><ele>640.0</ele><time>2026-05-03T06:28:30.997Z</time></trkpt><trkpt lat="44.27122771793932" lon="11.241820676682524"><ele>640.0</ele><time>2026-05-03T06:28:31.997Z</time></trkpt><trkpt lat="44.27130403489975" lon="11.241903555451582"><ele>640.0</ele><time>2026-05-03T06:28:32.997Z</time></trkpt><trkpt lat="44.271387824084634" lon="11.241974084959228"><ele>640.0</ele><time>2026-05-03T06:28:33.997Z</time></trkpt><trkpt lat="44.271455711455204" lon="11.242081724678384"><ele>640.8</ele><time>2026-05-03T06:28:34.997Z</time></trkpt><trkpt lat="44.27151819955777" lon="11.2421982832764"><ele>641.6</ele><time>2026-05-03T06:28:35.997Z</time></trkpt><trkpt lat="44.271574914202034" lon="11.242321694454073"><ele>642.4000000000001</ele><time>2026-05-03T06:28:36.997Z</time></trkpt><trkpt lat="44.271632348867115" lon="11.242441835378036"><ele>643.2</ele><time>2026-05-03T06:28:37.997Z</time></trkpt><trkpt lat="44.27169986381485" lon="11.242558707808621"><ele>644.0</ele><time>2026-05-03T06:28:38.997Z</time></trkpt><trkpt lat="44.271775627166576" lon="11.242665980272596"><ele>644.0</ele><time>2026-05-03T06:28:39.997Z</time></trkpt><trkpt lat="44.27185235723805" lon="11.24276820073266"><ele>644.0</ele><time>2026-05-03T06:28:40.997Z</time></trkpt><trkpt lat="44.271922150976216" lon="11.242870629462525"><ele>644.0</ele><time>2026-05-03T06:28:41.997Z</time></trkpt><trkpt lat="44.27199542494478" lon="11.242976469804542"><ele>644.0</ele><time>2026-05-03T06:28:42.997Z</time></trkpt><trkpt lat="44.27207372972641" lon="11.243079860186183"><ele>644.0</ele><time>2026-05-03T06:28:43.997Z</time></trkpt><trkpt lat="44.27215408792531" lon="11.243177602308263"><ele>644.0</ele><time>2026-05-03T06:28:44.997Z</time></trkpt><trkpt lat="44.27224755373903" lon="11.243265477583275"><ele>644.0</ele><time>2026-05-03T06:28:45.997Z</time></trkpt><trkpt lat="44.272347306566765" lon="11.24333929183843"><ele>644.0</ele><time>2026-05-03T06:28:46.997Z</time></trkpt><trkpt lat="44.27244478145857" lon="11.243417095681837"><ele>644.0</ele><time>2026-05-03T06:28:47.997Z</time></trkpt><trkpt lat="44.27254304534608" lon="11.243495129316418"><ele>644.0</ele><time>2026-05-03T06:28:48.997Z</time></trkpt><trkpt lat="44.27264673606947" lon="11.243570889951556"><ele>644.0</ele><time>2026-05-03T06:28:49.997Z</time></trkpt><trkpt lat="44.27274803112755" lon="11.24365947486907"><ele>644.0</ele><time>2026-05-03T06:28:50.997Z</time></trkpt><trkpt lat="44.27284335662481" lon="11.243753865311078"><ele>644.0</ele><time>2026-05-03T06:28:51.997Z</time></trkpt><trkpt lat="44.27293144169538" lon="11.243860620733845"><ele>643.4000000000001</ele><time>2026-05-03T06:28:52.997Z</time></trkpt><trkpt lat="44.273021692399006" lon="11.24396691916492"><ele>642.8</ele><time>2026-05-03T06:28:53.997Z</time></trkpt><trkpt lat="44.27310218781331" lon="11.244077852105363"><ele>642.2</ele><time>2026-05-03T06:28:54.997Z</time></trkpt><trkpt lat="44.27318081489251" lon="11.244185868806207"><ele>641.5999999999999</ele><time>2026-05-03T06:28:55.997Z</time></trkpt><trkpt lat="44.27325548813637" lon="11.244279102301794"><ele>641.0</ele><time>2026-05-03T06:28:56.997Z</time></trkpt><trkpt lat="44.27332422190357" lon="11.244377388988323"><ele>641.0</ele><time>2026-05-03T06:28:57.997Z</time></trkpt><trkpt lat="44.27337440923758" lon="11.244480190061786"><ele>641.0</ele><time>2026-05-03T06:28:58.997Z</time></trkpt><trkpt lat="44.273425251916805" lon="11.244581688391522"><ele>641.0</ele><time>2026-05-03T06:28:59.997Z</time></trkpt><trkpt lat="44.27345586290348" lon="11.244700684190096"><ele>641.0</ele><time>2026-05-03T06:29:00.997Z</time></trkpt><trkpt lat="44.27348250964304" lon="11.24483235542232"><ele>641.0</ele><time>2026-05-03T06:29:01.997Z</time></trkpt><trkpt lat="44.27349348176213" lon="11.24497511943748"><ele>643.4</ele><time>2026-05-03T06:29:02.997Z</time></trkpt><trkpt lat="44.27350304332956" lon="11.245120000317193"><ele>645.8</ele><time>2026-05-03T06:29:03.997Z</time></trkpt><trkpt lat="44.27353033289207" lon="11.245267957241515"><ele>648.1999999999999</ele><time>2026-05-03T06:29:04.996Z</time></trkpt><trkpt lat="44.27357669218311" lon="11.24539819514364"><ele>650.5999999999999</ele><time>2026-05-03T06:29:05.996Z</time></trkpt><trkpt lat="44.273649047107426" lon="11.245509703252347"><ele>653.0</ele><time>2026-05-03T06:29:06.996Z</time></trkpt><trkpt lat="44.27372649753627" lon="11.2456032465191"><ele>655.2</ele><time>2026-05-03T06:29:07.996Z</time></trkpt><trkpt lat="44.27380536216909" lon="11.245696890435713"><ele>657.4</ele><time>2026-05-03T06:29:08.996Z</time></trkpt><trkpt lat="44.273850446363554" lon="11.24582005471264"><ele>659.6</ele><time>2026-05-03T06:29:09.996Z</time></trkpt><trkpt lat="44.27388368874782" lon="11.245954090588064"><ele>661.8000000000001</ele><time>2026-05-03T06:29:10.996Z</time></trkpt><trkpt lat="44.273890008354186" lon="11.246087609383954"><ele>664.0</ele><time>2026-05-03T06:29:11.996Z</time></trkpt><trkpt lat="44.27388343322249" lon="11.246233556291557"><ele>664.0</ele><time>2026-05-03T06:29:12.996Z</time></trkpt><trkpt lat="44.273886891752234" lon="11.246370881215647"><ele>664.0</ele><time>2026-05-03T06:29:13.996Z</time></trkpt><trkpt lat="44.2738924236792" lon="11.246522761524272"><ele>664.0</ele><time>2026-05-03T06:29:14.996Z</time></trkpt><trkpt lat="44.27391116104066" lon="11.246666210767927"><ele>664.0</ele><time>2026-05-03T06:29:15.996Z</time></trkpt><trkpt lat="44.27394911160065" lon="11.246809203594259"><ele>664.0</ele><time>2026-05-03T06:29:16.996Z</time></trkpt><trkpt lat="44.27399119688529" lon="11.246943081409466"><ele>658.0</ele><time>2026-05-03T06:29:17.996Z</time></trkpt><trkpt lat="44.274037968073316" lon="11.247077901179534"><ele>652.0</ele><time>2026-05-03T06:29:18.996Z</time></trkpt><trkpt lat="44.27409122327584" lon="11.247218775966644"><ele>646.0</ele><time>2026-05-03T06:29:19.996Z</time></trkpt><trkpt lat="44.27415814811892" lon="11.247354342034075"><ele>640.0</ele><time>2026-05-03T06:29:20.996Z</time></trkpt><trkpt lat="44.27422031353075" lon="11.24748205843114"><ele>640.0</ele><time>2026-05-03T06:29:21.996Z</time></trkpt><trkpt lat="44.274290042165" lon="11.247618404962063"><ele>640.0</ele><time>2026-05-03T06:29:22.996Z</time></trkpt><trkpt lat="44.27435897426005" lon="11.247754777885858"><ele>640.0</ele><time>2026-05-03T06:29:23.996Z</time></trkpt><trkpt lat="44.27441072128823" lon="11.247902903246157"><ele>640.0</ele><time>2026-05-03T06:29:24.996Z</time></trkpt><trkpt lat="44.274438408697286" lon="11.24806288630082"><ele>641.75</ele><time>2026-05-03T06:29:25.996Z</time></trkpt><trkpt lat="44.27445226889867" lon="11.248226009361181"><ele>643.5</ele><time>2026-05-03T06:29:26.996Z</time></trkpt><trkpt lat="44.274472366757415" lon="11.24838687350873"><ele>645.25</ele><time>2026-05-03T06:29:27.996Z</time></trkpt><trkpt lat="44.27449817562001" lon="11.248534113425196"><ele>647.0</ele><time>2026-05-03T06:29:28.996Z</time></trkpt><trkpt lat="44.27455043379225" lon="11.248679768865292"><ele>647.0</ele><time>2026-05-03T06:29:29.996Z</time></trkpt><trkpt lat="44.27459210692181" lon="11.248823641831045"><ele>647.0</ele><time>2026-05-03T06:29:30.996Z</time></trkpt><trkpt lat="44.27457765380086" lon="11.248985279041964"><ele>647.0</ele><time>2026-05-03T06:29:31.996Z</time></trkpt><trkpt lat="44.274547750622204" lon="11.2491368620622"><ele>647.0</ele><time>2026-05-03T06:29:32.996Z</time></trkpt><trkpt lat="44.27450494975884" lon="11.249270962376185"><ele>647.0</ele><time>2026-05-03T06:29:33.996Z</time></trkpt><trkpt lat="44.2744217785006" lon="11.249365080549257"><ele>646.4000000000001</ele><time>2026-05-03T06:29:34.996Z</time></trkpt><trkpt lat="44.27431991831061" lon="11.249413690918155"><ele>645.8000000000001</ele><time>2026-05-03T06:29:35.996Z</time></trkpt><trkpt lat="44.2742161113026" lon="11.249426022455758"><ele>645.2</ele><time>2026-05-03T06:29:36.996Z</time></trkpt><trkpt lat="44.27411487793025" lon="11.249429377313927"><ele>644.6</ele><time>2026-05-03T06:29:37.996Z</time></trkpt><trkpt lat="44.27400613799699" lon="11.24942679736368"><ele>644.0</ele><time>2026-05-03T06:29:38.996Z</time></trkpt><trkpt lat="44.27390147971615" lon="11.24942819339784"><ele>644.0</ele><time>2026-05-03T06:29:39.996Z</time></trkpt><trkpt lat="44.273797312898104" lon="11.249442897771226"><ele>644.0</ele><time>2026-05-03T06:29:40.996Z</time></trkpt><trkpt lat="44.2736978660849" lon="11.249486599413064"><ele>644.0</ele><time>2026-05-03T06:29:41.996Z</time></trkpt><trkpt lat="44.27360134736741" lon="11.249553863788917"><ele>644.0</ele><time>2026-05-03T06:29:42.996Z</time></trkpt><trkpt lat="44.273510185797" lon="11.249634935486593"><ele>644.0</ele><time>2026-05-03T06:29:43.996Z</time></trkpt><trkpt lat="44.27344157724928" lon="11.249750426226854"><ele>642.2</ele><time>2026-05-03T06:29:44.996Z</time></trkpt><trkpt lat="44.27340645204926" lon="11.249891012580214"><ele>640.4000000000001</ele><time>2026-05-03T06:29:45.996Z</time></trkpt><trkpt lat="44.273401104084776" lon="11.250027325113859"><ele>638.6</ele><time>2026-05-03T06:29:46.996Z</time></trkpt><trkpt lat="44.273404107480005" lon="11.250175036807414"><ele>636.8</ele><time>2026-05-03T06:29:47.996Z</time></trkpt><trkpt lat="44.273407812550104" lon="11.250320256198728"><ele>635.0</ele><time>2026-05-03T06:29:48.996Z</time></trkpt><trkpt lat="44.27340385962653" lon="11.250466421446776"><ele>635.0</ele><time>2026-05-03T06:29:49.996Z</time></trkpt><trkpt lat="44.273391260186216" lon="11.250605144090379"><ele>635.0</ele><time>2026-05-03T06:29:50.996Z</time></trkpt><trkpt lat="44.27336581294078" lon="11.250740977886375"><ele>635.0</ele><time>2026-05-03T06:29:51.996Z</time></trkpt><trkpt lat="44.27333363212768" lon="11.250881103381868"><ele>635.0</ele><time>2026-05-03T06:29:52.996Z</time></trkpt><trkpt lat="44.27330781758212" lon="11.251024279488176"><ele>635.0</ele><time>2026-05-03T06:29:53.996Z</time></trkpt><trkpt lat="44.27331167838543" lon="11.251180957781482"><ele>634.2</ele><time>2026-05-03T06:29:54.996Z</time></trkpt><trkpt lat="44.27334353552093" lon="11.251333677200744"><ele>633.4</ele><time>2026-05-03T06:29:55.996Z</time></trkpt><trkpt lat="44.27338357542506" lon="11.251474165991786"><ele>632.6</ele><time>2026-05-03T06:29:56.996Z</time></trkpt><trkpt lat="44.27342942284749" lon="11.251617647107116"><ele>631.8</ele><time>2026-05-03T06:29:57.996Z</time></trkpt><trkpt lat="44.27346811896155" lon="11.251752038784497"><ele>631.0</ele><time>2026-05-03T06:29:58.996Z</time></trkpt><trkpt lat="44.27349610026128" lon="11.251889178484932"><ele>632.8</ele><time>2026-05-03T06:29:59.996Z</time></trkpt><trkpt lat="44.273523041958384" lon="11.252026445812637"><ele>634.6</ele><time>2026-05-03T06:30:00.996Z</time></trkpt><trkpt lat="44.273532588320826" lon="11.252168169336473"><ele>636.4</ele><time>2026-05-03T06:30:01.996Z</time></trkpt><trkpt lat="44.27357315277381" lon="11.252304716552363"><ele>638.2</ele><time>2026-05-03T06:30:02.996Z</time></trkpt><trkpt lat="44.273644234659685" lon="11.252419469364934"><ele>640.0</ele><time>2026-05-03T06:30:03.996Z</time></trkpt><trkpt lat="44.27373667574548" lon="11.252499614987038"><ele>638.8</ele><time>2026-05-03T06:30:04.996Z</time></trkpt><trkpt lat="44.273835380058635" lon="11.2525572989646"><ele>637.6</ele><time>2026-05-03T06:30:05.996Z</time></trkpt><trkpt lat="44.273927770532396" lon="11.252626416529505"><ele>636.4</ele><time>2026-05-03T06:30:06.996Z</time></trkpt><trkpt lat="44.27401850487921" lon="11.252717966310529"><ele>635.2</ele><time>2026-05-03T06:30:07.996Z</time></trkpt><trkpt lat="44.27408741735121" lon="11.25283275396842"><ele>634.0</ele><time>2026-05-03T06:30:08.996Z</time></trkpt><trkpt lat="44.27417667856644" lon="11.25291457514123"><ele>634.0</ele><time>2026-05-03T06:30:09.996Z</time></trkpt><trkpt lat="44.27425966822527" lon="11.253026518835126"><ele>634.0</ele><time>2026-05-03T06:30:10.996Z</time></trkpt><trkpt lat="44.27436481759064" lon="11.253100471938772"><ele>634.0</ele><time>2026-05-03T06:30:11.996Z</time></trkpt><trkpt lat="44.2744649978215" lon="11.253151192761457"><ele>634.0</ele><time>2026-05-03T06:30:12.996Z</time></trkpt><trkpt lat="44.27454991780649" lon="11.253235664442668"><ele>634.0</ele><time>2026-05-03T06:30:13.996Z</time></trkpt><trkpt lat="44.27461835042172" lon="11.25334610155723"><ele>634.0</ele><time>2026-05-03T06:30:14.996Z</time></trkpt><trkpt lat="44.274674342929025" lon="11.253476272094934"><ele>634.0</ele><time>2026-05-03T06:30:15.996Z</time></trkpt><trkpt lat="44.27472915377469" lon="11.253622600145503"><ele>634.0</ele><time>2026-05-03T06:30:16.996Z</time></trkpt><trkpt lat="44.27478003702333" lon="11.253765616564706"><ele>634.0</ele><time>2026-05-03T06:30:17.996Z</time></trkpt><trkpt lat="44.274837275740694" lon="11.253908461614843"><ele>636.2</ele><time>2026-05-03T06:30:18.996Z</time></trkpt><trkpt lat="44.27489189465842" lon="11.254048982131623"><ele>638.4</ele><time>2026-05-03T06:30:19.996Z</time></trkpt><trkpt lat="44.274935030220675" lon="11.254190611114424"><ele>640.6</ele><time>2026-05-03T06:30:20.996Z</time></trkpt><trkpt lat="44.27498577995908" lon="11.254321846243652"><ele>642.8</ele><time>2026-05-03T06:30:21.996Z</time></trkpt><trkpt lat="44.27503495583791" lon="11.254446986157506"><ele>645.0</ele><time>2026-05-03T06:30:22.996Z</time></trkpt><trkpt lat="44.27507278974061" lon="11.254574231902557"><ele>645.0</ele><time>2026-05-03T06:30:23.996Z</time></trkpt><trkpt lat="44.27509884757361" lon="11.25470764809012"><ele>645.0</ele><time>2026-05-03T06:30:24.996Z</time></trkpt><trkpt lat="44.275120103542825" lon="11.254849226035228"><ele>645.0</ele><time>2026-05-03T06:30:25.996Z</time></trkpt><trkpt lat="44.27514314428755" lon="11.254990965328117"><ele>645.0</ele><time>2026-05-03T06:30:26.996Z</time></trkpt><trkpt lat="44.27516074042044" lon="11.255137526462187"><ele>645.0</ele><time>2026-05-03T06:30:27.996Z</time></trkpt><trkpt lat="44.275170452045195" lon="11.255286322563366"><ele>646.4</ele><time>2026-05-03T06:30:28.996Z</time></trkpt><trkpt lat="44.275183668300436" lon="11.255434273976801"><ele>647.8</ele><time>2026-05-03T06:30:29.996Z</time></trkpt><trkpt lat="44.27519043249016" lon="11.25557956906297"><ele>649.2</ele><time>2026-05-03T06:30:30.996Z</time></trkpt><trkpt lat="44.27520019104032" lon="11.255724821006593"><ele>650.6</ele><time>2026-05-03T06:30:31.996Z</time></trkpt><trkpt lat="44.27520826032446" lon="11.255876036116268"><ele>652.0</ele><time>2026-05-03T06:30:32.996Z</time></trkpt><trkpt lat="44.27522704331111" lon="11.256035520108313"><ele>652.25</ele><time>2026-05-03T06:30:33.996Z</time></trkpt><trkpt lat="44.275251353021005" lon="11.256197037271908"><ele>652.5</ele><time>2026-05-03T06:30:34.996Z</time></trkpt><trkpt lat="44.275294158595706" lon="11.256350811593691"><ele>652.75</ele><time>2026-05-03T06:30:35.996Z</time></trkpt><trkpt lat="44.27535335248189" lon="11.256492169618532"><ele>653.0</ele><time>2026-05-03T06:30:36.996Z</time></trkpt><trkpt lat="44.27542361619616" lon="11.256622360011292"><ele>653.0</ele><time>2026-05-03T06:30:37.996Z</time></trkpt><trkpt lat="44.275479119461814" lon="11.256749566760249"><ele>653.0</ele><time>2026-05-03T06:30:38.996Z</time></trkpt><trkpt lat="44.275546714215544" lon="11.256868368635857"><ele>653.0</ele><time>2026-05-03T06:30:39.996Z</time></trkpt><trkpt lat="44.275617302486" lon="11.256979199642455"><ele>653.0</ele><time>2026-05-03T06:30:40.996Z</time></trkpt><trkpt lat="44.27568739868593" lon="11.257088279133551"><ele>653.0</ele><time>2026-05-03T06:30:41.996Z</time></trkpt><trkpt lat="44.27575936547958" lon="11.257201077402271"><ele>651.25</ele><time>2026-05-03T06:30:42.996Z</time></trkpt><trkpt lat="44.27584012843717" lon="11.257317129442196"><ele>649.5</ele><time>2026-05-03T06:30:43.996Z</time></trkpt><trkpt lat="44.27592185370129" lon="11.257432126660118"><ele>647.75</ele><time>2026-05-03T06:30:44.996Z</time></trkpt><trkpt lat="44.27600754325827" lon="11.257546095132513"><ele>646.0</ele><time>2026-05-03T06:30:45.996Z</time></trkpt><trkpt lat="44.276096350977966" lon="11.257658744098647"><ele>646.0</ele><time>2026-05-03T06:30:46.996Z</time></trkpt><trkpt lat="44.276185823275526" lon="11.2577609297177"><ele>646.0</ele><time>2026-05-03T06:30:47.996Z</time></trkpt><trkpt lat="44.2762842937815" lon="11.257847506816999"><ele>646.0</ele><time>2026-05-03T06:30:48.996Z</time></trkpt><trkpt lat="44.27638467612036" lon="11.257919337504587"><ele>646.0</ele><time>2026-05-03T06:30:49.996Z</time></trkpt><trkpt lat="44.27648591767565" lon="11.25798503581288"><ele>646.4</ele><time>2026-05-03T06:30:50.996Z</time></trkpt><trkpt lat="44.276590181028524" lon="11.258034803756427"><ele>646.8</ele><time>2026-05-03T06:30:51.996Z</time></trkpt><trkpt lat="44.27669836381324" lon="11.258074792429829"><ele>647.1999999999999</ele><time>2026-05-03T06:30:52.996Z</time></trkpt><trkpt lat="44.27680418955022" lon="11.258118360731805"><ele>647.5999999999999</ele><time>2026-05-03T06:30:53.996Z</time></trkpt><trkpt lat="44.27690269423912" lon="11.25815838297283"><ele>648.0</ele><time>2026-05-03T06:30:54.996Z</time></trkpt><trkpt lat="44.276992371035696" lon="11.25821459203331"><ele>648.2</ele><time>2026-05-03T06:30:55.996Z</time></trkpt><trkpt lat="44.27707199743754" lon="11.258294501613612"><ele>648.4</ele><time>2026-05-03T06:30:56.996Z</time></trkpt><trkpt lat="44.27713505775338" lon="11.258418613059279"><ele>648.6</ele><time>2026-05-03T06:30:57.996Z</time></trkpt><trkpt lat="44.27722198260989" lon="11.258519741179631"><ele>648.8000000000001</ele><time>2026-05-03T06:30:58.996Z</time></trkpt><trkpt lat="44.27729149869456" lon="11.25864294859657"><ele>649.0</ele><time>2026-05-03T06:30:59.996Z</time></trkpt><trkpt lat="44.27736958272293" lon="11.258765989398405"><ele>649.0</ele><time>2026-05-03T06:31:00.996Z</time></trkpt><trkpt lat="44.27744261388624" lon="11.258886393872391"><ele>649.0</ele><time>2026-05-03T06:31:01.996Z</time></trkpt><trkpt lat="44.27752229117196" lon="11.259003105397674"><ele>649.0</ele><time>2026-05-03T06:31:02.996Z</time></trkpt><trkpt lat="44.27760549017329" lon="11.259112360062655"><ele>649.0</ele><time>2026-05-03T06:31:03.996Z</time></trkpt><trkpt lat="44.277679864753885" lon="11.259224218527416"><ele>650.8000000000001</ele><time>2026-05-03T06:31:04.996Z</time></trkpt><trkpt lat="44.27775438856694" lon="11.259341884642206"><ele>652.6</ele><time>2026-05-03T06:31:05.996Z</time></trkpt><trkpt lat="44.27782202707146" lon="11.259463657785417"><ele>654.4</ele><time>2026-05-03T06:31:06.996Z</time></trkpt><trkpt lat="44.277880897513725" lon="11.259598228440828"><ele>656.2</ele><time>2026-05-03T06:31:07.996Z</time></trkpt><trkpt lat="44.277912334510695" lon="11.259748166519037"><ele>658.0</ele><time>2026-05-03T06:31:08.996Z</time></trkpt><trkpt lat="44.277939848912546" lon="11.259910486990707"><ele>660.25</ele><time>2026-05-03T06:31:09.996Z</time></trkpt><trkpt lat="44.2779826494762" lon="11.260097077307979"><ele>662.5</ele><time>2026-05-03T06:31:10.996Z</time></trkpt><trkpt lat="44.27802041435115" lon="11.26028810997126"><ele>664.75</ele><time>2026-05-03T06:31:11.996Z</time></trkpt><trkpt lat="44.278055097542506" lon="11.260477554602934"><ele>667.0</ele><time>2026-05-03T06:31:12.996Z</time></trkpt><trkpt lat="44.2781059938022" lon="11.260660757512273"><ele>661.75</ele><time>2026-05-03T06:31:13.996Z</time></trkpt><trkpt lat="44.278172477609125" lon="11.26082506772631"><ele>656.5</ele><time>2026-05-03T06:31:14.996Z</time></trkpt><trkpt lat="44.27823531860646" lon="11.260941826253868"><ele>651.25</ele><time>2026-05-03T06:31:15.996Z</time></trkpt><trkpt lat="44.27829222300252" lon="11.261072174188305"><ele>646.0</ele><time>2026-05-03T06:31:16.996Z</time></trkpt><trkpt lat="44.278347127942034" lon="11.261204727893883"><ele>646.0</ele><time>2026-05-03T06:31:17.996Z</time></trkpt><trkpt lat="44.278406281023265" lon="11.261334617500486"><ele>646.0</ele><time>2026-05-03T06:31:18.996Z</time></trkpt><trkpt lat="44.278466626598274" lon="11.261464282157325"><ele>646.0</ele><time>2026-05-03T06:31:19.996Z</time></trkpt><trkpt lat="44.27853097591215" lon="11.261589395466507"><ele>646.0</ele><time>2026-05-03T06:31:20.996Z</time></trkpt><trkpt lat="44.27860735686061" lon="11.261698515701212"><ele>646.0</ele><time>2026-05-03T06:31:21.996Z</time></trkpt><trkpt lat="44.27868789618748" lon="11.261796863752226"><ele>646.4</ele><time>2026-05-03T06:31:22.996Z</time></trkpt><trkpt lat="44.27878175943406" lon="11.261881665961697"><ele>646.8</ele><time>2026-05-03T06:31:23.996Z</time></trkpt><trkpt lat="44.27886970891501" lon="11.261959403383631"><ele>647.1999999999999</ele><time>2026-05-03T06:31:24.996Z</time></trkpt><trkpt lat="44.278966363785024" lon="11.262032615699388"><ele>647.5999999999999</ele><time>2026-05-03T06:31:25.996Z</time></trkpt><trkpt lat="44.27904753963265" lon="11.262114074052583"><ele>648.0</ele><time>2026-05-03T06:31:26.996Z</time></trkpt><trkpt lat="44.27913471674811" lon="11.262177283944693"><ele>647.1666666666666</ele><time>2026-05-03T06:31:27.996Z</time></trkpt><trkpt lat="44.27920063476513" lon="11.26224823253006"><ele>646.3333333333334</ele><time>2026-05-03T06:31:28.996Z</time></trkpt><trkpt lat="44.27927348281508" lon="11.262320228073339"><ele>645.5</ele><time>2026-05-03T06:31:29.996Z</time></trkpt><trkpt lat="44.27935155596556" lon="11.262409834801653"><ele>644.6666666666667</ele><time>2026-05-03T06:31:31.996Z</time></trkpt><trkpt lat="44.27939354246335" lon="11.262525032732992"><ele>643.8333333333334</ele><time>2026-05-03T06:31:33.996Z</time></trkpt><trkpt lat="44.27943056192594" lon="11.262624248403085"><ele>643.0</ele><time>2026-05-03T06:31:35.996Z</time></trkpt><trkpt lat="44.279483649848466" lon="11.262721925704463"><ele>630.0</ele><time>2026-05-03T06:31:37.996Z</time></trkpt><trkpt lat="44.27996762474929" lon="11.263315545458202"><ele>630.0</ele><time>2026-05-03T06:31:38.996Z</time></trkpt><trkpt lat="44.280040767891975" lon="11.26345490365644"><ele>630.0</ele><time>2026-05-03T06:31:39.996Z</time></trkpt><trkpt lat="44.280108402576055" lon="11.2635792616789"><ele>630.0</ele><time>2026-05-03T06:31:40.996Z</time></trkpt><trkpt lat="44.280167906563065" lon="11.263710968863801"><ele>630.0</ele><time>2026-05-03T06:31:41.996Z</time></trkpt><trkpt lat="44.28022639519321" lon="11.26383791745632"><ele>630.6</ele><time>2026-05-03T06:31:42.996Z</time></trkpt><trkpt lat="44.28029183745267" lon="11.2639562676597"><ele>631.2</ele><time>2026-05-03T06:31:43.996Z</time></trkpt><trkpt lat="44.28036520532705" lon="11.264069802200414"><ele>631.8</ele><time>2026-05-03T06:31:44.996Z</time></trkpt><trkpt lat="44.28044720299369" lon="11.264170429781752"><ele>632.4</ele><time>2026-05-03T06:31:45.996Z</time></trkpt><trkpt lat="44.28052630843604" lon="11.26427987123867"><ele>633.0</ele><time>2026-05-03T06:31:46.996Z</time></trkpt><trkpt lat="44.280594465229605" lon="11.264379230693566"><ele>633.0</ele><time>2026-05-03T06:31:47.996Z</time></trkpt><trkpt lat="44.280617582642" lon="11.264472706037067"><ele>633.0</ele><time>2026-05-03T06:31:48.996Z</time></trkpt><trkpt lat="44.2806106881357" lon="11.264569807478132"><ele>633.0</ele><time>2026-05-03T06:31:49.996Z</time></trkpt><trkpt lat="44.280514073361736" lon="11.264614150970012"><ele>633.0</ele><time>2026-05-03T06:31:50.996Z</time></trkpt><trkpt lat="44.280388629910966" lon="11.264617281028654"><ele>633.0</ele><time>2026-05-03T06:31:52.996Z</time></trkpt><trkpt lat="44.280287702842514" lon="11.264638779134218"><ele>633.0</ele><time>2026-05-03T06:31:53.996Z</time></trkpt><trkpt lat="44.28017707457091" lon="11.264687529350251"><ele>633.0</ele><time>2026-05-03T06:31:54.996Z</time></trkpt><trkpt lat="44.28007284927323" lon="11.264759313944275"><ele>633.0</ele><time>2026-05-03T06:31:55.996Z</time></trkpt><trkpt lat="44.27997870458052" lon="11.26484366348275"><ele>633.0</ele><time>2026-05-03T06:31:56.996Z</time></trkpt><trkpt lat="44.27988396979494" lon="11.264933580341554"><ele>631.25</ele><time>2026-05-03T06:31:57.996Z</time></trkpt><trkpt lat="44.27980512450536" lon="11.2650377928255"><ele>629.5</ele><time>2026-05-03T06:31:58.996Z</time></trkpt><trkpt lat="44.279713790792066" lon="11.265125613964694"><ele>627.75</ele><time>2026-05-03T06:31:59.996Z</time></trkpt><trkpt lat="44.279630948967394" lon="11.265220827612797"><ele>626.0</ele><time>2026-05-03T06:32:00.996Z</time></trkpt><trkpt lat="44.279539992914565" lon="11.265348984678184"><ele>627.2</ele><time>2026-05-03T06:32:01.996Z</time></trkpt><trkpt lat="44.27948068273964" lon="11.26547598410087"><ele>628.4000000000001</ele><time>2026-05-03T06:32:02.996Z</time></trkpt><trkpt lat="44.27943742683734" lon="11.265604398567916"><ele>629.6</ele><time>2026-05-03T06:32:03.996Z</time></trkpt><trkpt lat="44.279388314737204" lon="11.265719743582094"><ele>630.8000000000001</ele><time>2026-05-03T06:32:04.996Z</time></trkpt><trkpt lat="44.27932551376321" lon="11.265823777339516"><ele>632.0</ele><time>2026-05-03T06:32:05.996Z</time></trkpt><trkpt lat="44.27922672991984" lon="11.265871957909823"><ele>632.0</ele><time>2026-05-03T06:32:06.996Z</time></trkpt><trkpt lat="44.27914022434077" lon="11.265958875783017"><ele>632.0</ele><time>2026-05-03T06:32:07.996Z</time></trkpt><trkpt lat="44.27904859102249" lon="11.26603425979418"><ele>632.0</ele><time>2026-05-03T06:32:08.996Z</time></trkpt><trkpt lat="44.278978176935524" lon="11.266152972306449"><ele>632.0</ele><time>2026-05-03T06:32:09.996Z</time></trkpt><trkpt lat="44.278911310799174" lon="11.266272453303163"><ele>632.0</ele><time>2026-05-03T06:32:10.996Z</time></trkpt><trkpt lat="44.27884371473574" lon="11.266386019872508"><ele>633.2</ele><time>2026-05-03T06:32:11.996Z</time></trkpt><trkpt lat="44.27876444296617" lon="11.266491556846578"><ele>634.4000000000001</ele><time>2026-05-03T06:32:12.996Z</time></trkpt><trkpt lat="44.278706589807165" lon="11.266606199180904"><ele>635.5999999999999</ele><time>2026-05-03T06:32:13.996Z</time></trkpt><trkpt lat="44.27864290472808" lon="11.266709678000694"><ele>636.8</ele><time>2026-05-03T06:32:14.996Z</time></trkpt><trkpt lat="44.27858307125193" lon="11.266817910603084"><ele>638.0</ele><time>2026-05-03T06:32:15.996Z</time></trkpt><trkpt lat="44.27851874206573" lon="11.266930704267393"><ele>638.0</ele><time>2026-05-03T06:32:16.996Z</time></trkpt><trkpt lat="44.27845191995132" lon="11.267038925631642"><ele>638.0</ele><time>2026-05-03T06:32:17.996Z</time></trkpt><trkpt lat="44.27837484680631" lon="11.267131747341486"><ele>638.0</ele><time>2026-05-03T06:32:18.996Z</time></trkpt><trkpt lat="44.27831047962526" lon="11.26723777843479"><ele>638.0</ele><time>2026-05-03T06:32:19.996Z</time></trkpt><trkpt lat="44.278236466057784" lon="11.26733857091715"><ele>638.0</ele><time>2026-05-03T06:32:20.996Z</time></trkpt><trkpt lat="44.27816129318046" lon="11.267442461500552"><ele>641.0</ele><time>2026-05-03T06:32:21.996Z</time></trkpt><trkpt lat="44.27809096174327" lon="11.267548700784713"><ele>644.0</ele><time>2026-05-03T06:32:22.996Z</time></trkpt><trkpt lat="44.27802040164836" lon="11.267657759500967"><ele>647.0</ele><time>2026-05-03T06:32:23.996Z</time></trkpt><trkpt lat="44.27795735670576" lon="11.267763379213948"><ele>650.0</ele><time>2026-05-03T06:32:24.996Z</time></trkpt><trkpt lat="44.27789354792687" lon="11.267870600340524"><ele>653.0</ele><time>2026-05-03T06:32:25.996Z</time></trkpt><trkpt lat="44.27783409754173" lon="11.267979461084845"><ele>653.0</ele><time>2026-05-03T06:32:26.996Z</time></trkpt><trkpt lat="44.27777736390046" lon="11.268092661002292"><ele>653.0</ele><time>2026-05-03T06:32:27.996Z</time></trkpt><trkpt lat="44.27772854569809" lon="11.268220132680002"><ele>653.0</ele><time>2026-05-03T06:32:28.996Z</time></trkpt><trkpt lat="44.27768637158511" lon="11.268356970853375"><ele>653.0</ele><time>2026-05-03T06:32:29.996Z</time></trkpt><trkpt lat="44.277652569618446" lon="11.26850670171727"><ele>653.0</ele><time>2026-05-03T06:32:30.996Z</time></trkpt><trkpt lat="44.277632478361085" lon="11.268662188250678"><ele>651.5999999999999</ele><time>2026-05-03T06:32:31.996Z</time></trkpt><trkpt lat="44.27763203493631" lon="11.26882776608845"><ele>650.1999999999999</ele><time>2026-05-03T06:32:32.996Z</time></trkpt><trkpt lat="44.2776351229645" lon="11.268989262139693"><ele>648.8</ele><time>2026-05-03T06:32:33.996Z</time></trkpt><trkpt lat="44.27765711323155" lon="11.2691272141944"><ele>647.4</ele><time>2026-05-03T06:32:34.996Z</time></trkpt><trkpt lat="44.27768705780377" lon="11.269272827715135"><ele>646.0</ele><time>2026-05-03T06:32:35.996Z</time></trkpt><trkpt lat="44.277714035664985" lon="11.269413313984696"><ele>646.0</ele><time>2026-05-03T06:32:36.996Z</time></trkpt><trkpt lat="44.27776385446775" lon="11.26952882953784"><ele>646.0</ele><time>2026-05-03T06:32:37.996Z</time></trkpt><trkpt lat="44.27783854681704" lon="11.269626539795167"><ele>646.0</ele><time>2026-05-03T06:32:38.996Z</time></trkpt><trkpt lat="44.277899578389636" lon="11.269683552430097"><ele>646.0</ele><time>2026-05-03T06:32:39.996Z</time></trkpt><trkpt lat="44.27798872026672" lon="11.269762820168925"><ele>646.0</ele><time>2026-05-03T06:32:41.996Z</time></trkpt><trkpt lat="44.278052451313464" lon="11.269870230952806"><ele>642.5999999999999</ele><time>2026-05-03T06:32:43.996Z</time></trkpt><trkpt lat="44.2781271665533" lon="11.270006694664785"><ele>639.1999999999999</ele><time>2026-05-03T06:32:45.996Z</time></trkpt><trkpt lat="44.27816418276931" lon="11.270090350085782"><ele>635.8</ele><time>2026-05-03T06:32:46.996Z</time></trkpt><trkpt lat="44.27825815485635" lon="11.270244066304562"><ele>632.4</ele><time>2026-05-03T06:32:48.996Z</time></trkpt><trkpt lat="44.27832785637961" lon="11.2703597358389"><ele>629.0</ele><time>2026-05-03T06:32:50.996Z</time></trkpt><trkpt lat="44.27835378743802" lon="11.270462831766512"><ele>629.0</ele><time>2026-05-03T06:32:53.996Z</time></trkpt><trkpt lat="44.27833166118663" lon="11.27055303528964"><ele>629.0</ele><time>2026-05-03T06:32:56.996Z</time></trkpt><trkpt lat="44.278288148502604" lon="11.270656354729809"><ele>629.0</ele><time>2026-05-03T06:32:59.996Z</time></trkpt><trkpt lat="44.278225568586976" lon="11.270704350335128"><ele>629.0</ele><time>2026-05-03T06:33:05.995Z</time></trkpt><trkpt lat="44.27816731494658" lon="11.270654422134315"><ele>629.0</ele><time>2026-05-03T06:34:10.995Z</time></trkpt><trkpt lat="44.278242111806144" lon="11.27073506921295"><ele>629.0</ele><time>2026-05-03T06:40:29.995Z</time></trkpt><trkpt lat="44.278217253878715" lon="11.270640370607662"><ele>628.5</ele><time>2026-05-03T06:40:34.995Z</time></trkpt><trkpt lat="44.27814914033227" lon="11.270628384196167"><ele>628.0</ele><time>2026-05-03T06:46:15.994Z</time></trkpt><trkpt lat="44.278082349017666" lon="11.27070365209654"><ele>627.5</ele><time>2026-05-03T06:46:19.994Z</time></trkpt><trkpt lat="44.27804122221914" lon="11.27077115931979"><ele>627.0</ele><time>2026-05-03T06:46:22.994Z</time></trkpt><trkpt lat="44.27798272075001" lon="11.270855902074793"><ele>626.5</ele><time>2026-05-03T06:46:26.994Z</time></trkpt><trkpt lat="44.27790993535321" lon="11.270929430257516"><ele>626.0</ele><time>2026-05-03T06:46:28.994Z</time></trkpt><trkpt lat="44.277843223655246" lon="11.271005621915162"><ele>627.3333333333333</ele><time>2026-05-03T06:46:30.994Z</time></trkpt><trkpt lat="44.27777782338067" lon="11.271045644003681"><ele>628.6666666666666</ele><time>2026-05-03T06:46:31.994Z</time></trkpt><trkpt lat="44.277704092264" lon="11.271072536118856"><ele>630.0</ele><time>2026-05-03T06:46:32.994Z</time></trkpt><trkpt lat="44.27763056899724" lon="11.271122410801475"><ele>631.3333333333334</ele><time>2026-05-03T06:46:33.994Z</time></trkpt><trkpt lat="44.2775485484046" lon="11.27117327098169"><ele>632.6666666666667</ele><time>2026-05-03T06:46:34.994Z</time></trkpt><trkpt lat="44.277460075528616" lon="11.271219141485554"><ele>634.0</ele><time>2026-05-03T06:46:35.994Z</time></trkpt><trkpt lat="44.277378309248505" lon="11.271265135092635"><ele>634.0</ele><time>2026-05-03T06:46:36.994Z</time></trkpt><trkpt lat="44.277285531852506" lon="11.271322468481067"><ele>634.0</ele><time>2026-05-03T06:46:37.994Z</time></trkpt><trkpt lat="44.277196119385586" lon="11.271377497318479"><ele>634.0</ele><time>2026-05-03T06:46:38.994Z</time></trkpt><trkpt lat="44.2771174573573" lon="11.271424486011462"><ele>634.0</ele><time>2026-05-03T06:46:39.994Z</time></trkpt><trkpt lat="44.27702829511524" lon="11.271476575038967"><ele>634.0</ele><time>2026-05-03T06:46:40.994Z</time></trkpt><trkpt lat="44.27694005715847" lon="11.271524934712412"><ele>631.0</ele><time>2026-05-03T06:46:41.994Z</time></trkpt><trkpt lat="44.27684919681394" lon="11.271571259017872"><ele>628.0</ele><time>2026-05-03T06:46:42.994Z</time></trkpt><trkpt lat="44.276747935738065" lon="11.271597884760276"><ele>625.0</ele><time>2026-05-03T06:46:43.994Z</time></trkpt><trkpt lat="44.27665239151526" lon="11.27162250574801"><ele>622.0</ele><time>2026-05-03T06:46:44.994Z</time></trkpt><trkpt lat="44.2765600360328" lon="11.271633620701369"><ele>619.0</ele><time>2026-05-03T06:46:45.994Z</time></trkpt><trkpt lat="44.27645439173567" lon="11.27163027196464"><ele>618.0</ele><time>2026-05-03T06:46:46.994Z</time></trkpt><trkpt lat="44.2763493547544" lon="11.271612421950158"><ele>617.0</ele><time>2026-05-03T06:46:47.994Z</time></trkpt><trkpt lat="44.27624231312667" lon="11.271594231887342"><ele>616.0</ele><time>2026-05-03T06:46:48.994Z</time></trkpt><trkpt lat="44.27613977824426" lon="11.271568986861412"><ele>615.0</ele><time>2026-05-03T06:46:49.994Z</time></trkpt><trkpt lat="44.276028270162975" lon="11.271550288423335"><ele>614.0</ele><time>2026-05-03T06:46:50.994Z</time></trkpt><trkpt lat="44.27592198223094" lon="11.271530178502399"><ele>614.0</ele><time>2026-05-03T06:46:51.994Z</time></trkpt><trkpt lat="44.275816506641576" lon="11.271503136624958"><ele>614.0</ele><time>2026-05-03T06:46:52.994Z</time></trkpt><trkpt lat="44.27571100515469" lon="11.271475849252393"><ele>614.0</ele><time>2026-05-03T06:46:53.994Z</time></trkpt><trkpt lat="44.275601994693645" lon="11.27144479482938"><ele>614.0</ele><time>2026-05-03T06:46:54.995Z</time></trkpt><trkpt lat="44.2754965077348" lon="11.27141639358279"><ele>614.0</ele><time>2026-05-03T06:46:55.995Z</time></trkpt><trkpt lat="44.27539220187384" lon="11.27138403810494"><ele>615.4</ele><time>2026-05-03T06:46:56.995Z</time></trkpt><trkpt lat="44.275281907713804" lon="11.271347506055898"><ele>616.8</ele><time>2026-05-03T06:46:57.995Z</time></trkpt><trkpt lat="44.27517893435918" lon="11.271309209068606"><ele>618.2</ele><time>2026-05-03T06:46:58.995Z</time></trkpt><trkpt lat="44.27508391191935" lon="11.271261770858986"><ele>619.6</ele><time>2026-05-03T06:46:59.995Z</time></trkpt><trkpt lat="44.27499039967716" lon="11.271200437355295"><ele>621.0</ele><time>2026-05-03T06:47:00.994Z</time></trkpt><trkpt lat="44.27489102598445" lon="11.271135336117348"><ele>621.0</ele><time>2026-05-03T06:47:01.994Z</time></trkpt><trkpt lat="44.274792954857844" lon="11.27107727682243"><ele>621.0</ele><time>2026-05-03T06:47:02.995Z</time></trkpt><trkpt lat="44.27469632179401" lon="11.271012537816388"><ele>621.0</ele><time>2026-05-03T06:47:03.995Z</time></trkpt><trkpt lat="44.274594631375116" lon="11.270953023483607"><ele>621.0</ele><time>2026-05-03T06:47:04.995Z</time></trkpt><trkpt lat="44.27448908274064" lon="11.270920324856553"><ele>621.0</ele><time>2026-05-03T06:47:05.994Z</time></trkpt><trkpt lat="44.274381718210655" lon="11.270910857329742"><ele>620.8</ele><time>2026-05-03T06:47:06.995Z</time></trkpt><trkpt lat="44.27427347384479" lon="11.270898150813904"><ele>620.6</ele><time>2026-05-03T06:47:07.995Z</time></trkpt><trkpt lat="44.27416799256113" lon="11.270874586585977"><ele>620.4</ele><time>2026-05-03T06:47:08.995Z</time></trkpt><trkpt lat="44.274064741419274" lon="11.270857999300265"><ele>620.2</ele><time>2026-05-03T06:47:09.995Z</time></trkpt><trkpt lat="44.273960792725454" lon="11.270866357161266"><ele>620.0</ele><time>2026-05-03T06:47:10.995Z</time></trkpt><trkpt lat="44.27386982838784" lon="11.270921697566878"><ele>620.0</ele><time>2026-05-03T06:47:11.995Z</time></trkpt><trkpt lat="44.273795874946245" lon="11.2710241748117"><ele>620.0</ele><time>2026-05-03T06:47:12.995Z</time></trkpt><trkpt lat="44.27373887293705" lon="11.27115908295197"><ele>620.0</ele><time>2026-05-03T06:47:13.995Z</time></trkpt><trkpt lat="44.27369779410894" lon="11.27130941565256"><ele>620.0</ele><time>2026-05-03T06:47:14.995Z</time></trkpt><trkpt lat="44.27366218343314" lon="11.27146043881801"><ele>620.0</ele><time>2026-05-03T06:47:15.995Z</time></trkpt><trkpt lat="44.27362082774076" lon="11.271602361633954"><ele>618.4</ele><time>2026-05-03T06:47:16.995Z</time></trkpt><trkpt lat="44.273585115452555" lon="11.271743786601272"><ele>616.8</ele><time>2026-05-03T06:47:17.995Z</time></trkpt><trkpt lat="44.27355457377918" lon="11.271879973433986"><ele>615.2</ele><time>2026-05-03T06:47:18.995Z</time></trkpt><trkpt lat="44.273516703237334" lon="11.272009962077032"><ele>613.6</ele><time>2026-05-03T06:47:19.995Z</time></trkpt><trkpt lat="44.27346884775798" lon="11.27214036999901"><ele>612.0</ele><time>2026-05-03T06:47:20.995Z</time></trkpt><trkpt lat="44.273411417957796" lon="11.272262249508735"><ele>609.8000000000001</ele><time>2026-05-03T06:47:21.995Z</time></trkpt><trkpt lat="44.2733454378002" lon="11.272359269952217"><ele>607.6</ele><time>2026-05-03T06:47:22.995Z</time></trkpt><trkpt lat="44.27326298225616" lon="11.27243758252744"><ele>605.4000000000001</ele><time>2026-05-03T06:47:23.995Z</time></trkpt><trkpt lat="44.273163431998846" lon="11.272455880460006"><ele>603.2</ele><time>2026-05-03T06:47:24.995Z</time></trkpt><trkpt lat="44.27306002668736" lon="11.272479580974334"><ele>601.0</ele><time>2026-05-03T06:47:25.995Z</time></trkpt><trkpt lat="44.272965897890614" lon="11.272532798643805"><ele>601.0</ele><time>2026-05-03T06:47:26.995Z</time></trkpt><trkpt lat="44.272872085470595" lon="11.27258636443509"><ele>601.0</ele><time>2026-05-03T06:47:27.995Z</time></trkpt><trkpt lat="44.27277346155351" lon="11.272637721067484"><ele>601.0</ele><time>2026-05-03T06:47:28.995Z</time></trkpt><trkpt lat="44.27269809035677" lon="11.272739468830562"><ele>601.0</ele><time>2026-05-03T06:47:29.995Z</time></trkpt><trkpt lat="44.27261508971651" lon="11.272821376357557"><ele>601.0</ele><time>2026-05-03T06:47:30.995Z</time></trkpt><trkpt lat="44.272523293883964" lon="11.272886905847564"><ele>601.0</ele><time>2026-05-03T06:47:31.995Z</time></trkpt><trkpt lat="44.27243029780103" lon="11.272937494236741"><ele>601.0</ele><time>2026-05-03T06:47:32.995Z</time></trkpt><trkpt lat="44.27233267173731" lon="11.272988151000726"><ele>601.0</ele><time>2026-05-03T06:47:33.995Z</time></trkpt><trkpt lat="44.27224782899082" lon="11.273058081118398"><ele>601.0</ele><time>2026-05-03T06:47:34.995Z</time></trkpt><trkpt lat="44.27220240861059" lon="11.273172763878325"><ele>601.0</ele><time>2026-05-03T06:47:35.995Z</time></trkpt><trkpt lat="44.272197890610265" lon="11.273317123033028"><ele>599.0</ele><time>2026-05-03T06:47:36.995Z</time></trkpt><trkpt lat="44.272224163268184" lon="11.273463469458086"><ele>597.0</ele><time>2026-05-03T06:47:37.995Z</time></trkpt><trkpt lat="44.27225509039517" lon="11.27361842918264"><ele>595.0</ele><time>2026-05-03T06:47:38.995Z</time></trkpt><trkpt lat="44.27228772269515" lon="11.273769804187268"><ele>593.0</ele><time>2026-05-03T06:47:39.995Z</time></trkpt><trkpt lat="44.27230522873486" lon="11.273925080556985"><ele>591.0</ele><time>2026-05-03T06:47:40.995Z</time></trkpt><trkpt lat="44.27228708718213" lon="11.274080631342049"><ele>593.75</ele><time>2026-05-03T06:47:41.995Z</time></trkpt><trkpt lat="44.27220936924154" lon="11.274200140140753"><ele>596.5</ele><time>2026-05-03T06:47:42.995Z</time></trkpt><trkpt lat="44.27215181555792" lon="11.274344102505388"><ele>599.25</ele><time>2026-05-03T06:47:43.995Z</time></trkpt><trkpt lat="44.27210383023173" lon="11.274496901308769"><ele>602.0</ele><time>2026-05-03T06:47:44.995Z</time></trkpt><trkpt lat="44.272109220289835" lon="11.274674161794056"><ele>598.8000000000001</ele><time>2026-05-03T06:47:45.995Z</time></trkpt><trkpt lat="44.272102354462255" lon="11.274840674189647"><ele>595.6</ele><time>2026-05-03T06:47:46.995Z</time></trkpt><trkpt lat="44.272084043651276" lon="11.274979316917635"><ele>592.4000000000001</ele><time>2026-05-03T06:47:47.995Z</time></trkpt><trkpt lat="44.27202731443118" lon="11.27507097244775"><ele>589.2</ele><time>2026-05-03T06:47:48.995Z</time></trkpt><trkpt lat="44.2719466157247" lon="11.2750732138666"><ele>586.0</ele><time>2026-05-03T06:47:49.995Z</time></trkpt><trkpt lat="44.27178322722331" lon="11.275104323909508"><ele>586.0</ele><time>2026-05-03T06:47:50.995Z</time></trkpt><trkpt lat="44.27166465709529" lon="11.27500487427707"><ele>586.0</ele><time>2026-05-03T06:47:51.995Z</time></trkpt><trkpt lat="44.27153621215658" lon="11.274940015003406"><ele>586.0</ele><time>2026-05-03T06:47:52.995Z</time></trkpt><trkpt lat="44.271431819754554" lon="11.274951890876777"><ele>586.0</ele><time>2026-05-03T06:47:53.995Z</time></trkpt><trkpt lat="44.27137727296891" lon="11.27516442627332"><ele>588.6666666666667</ele><time>2026-05-03T06:47:54.995Z</time></trkpt><trkpt lat="44.271350532183575" lon="11.275524269747809"><ele>591.3333333333334</ele><time>2026-05-03T06:47:55.995Z</time></trkpt><trkpt lat="44.27127680145512" lon="11.27564464535862"><ele>594.0</ele><time>2026-05-03T06:47:56.995Z</time></trkpt><trkpt lat="44.27113574393542" lon="11.275671671407734"><ele>590.0</ele><time>2026-05-03T06:47:57.995Z</time></trkpt><trkpt lat="44.2711545166391" lon="11.275933064272273"><ele>586.0</ele><time>2026-05-03T06:47:58.995Z</time></trkpt><trkpt lat="44.271145295150276" lon="11.27609069827846"><ele>582.0</ele><time>2026-05-03T06:47:59.995Z</time></trkpt><trkpt lat="44.27115661920317" lon="11.27624182414147"><ele>578.0</ele><time>2026-05-03T06:48:00.995Z</time></trkpt><trkpt lat="44.27118316086031" lon="11.276355930282417"><ele>578.0</ele><time>2026-05-03T06:48:01.995Z</time></trkpt><trkpt lat="44.27123049504153" lon="11.276435743505955"><ele>578.0</ele><time>2026-05-03T06:48:02.995Z</time></trkpt><trkpt lat="44.27125656368813" lon="11.276553823169165"><ele>578.0</ele><time>2026-05-03T06:48:04.995Z</time></trkpt><trkpt lat="44.27124533011477" lon="11.276688334822591"><ele>578.0</ele><time>2026-05-03T06:48:06.995Z</time></trkpt><trkpt lat="44.271223136582684" lon="11.276814153537307"><ele>578.0</ele><time>2026-05-03T06:48:08.995Z</time></trkpt><trkpt lat="44.271163498381554" lon="11.276931280129531"><ele>576.0</ele><time>2026-05-03T06:48:10.995Z</time></trkpt><trkpt lat="44.27108934076964" lon="11.276957385311867"><ele>574.0</ele><time>2026-05-03T06:48:11.995Z</time></trkpt><trkpt lat="44.27102720054426" lon="11.277020998861603"><ele>572.0</ele><time>2026-05-03T06:48:12.995Z</time></trkpt><trkpt lat="44.270952843619355" lon="11.27708221089207"><ele>570.0</ele><time>2026-05-03T06:48:13.995Z</time></trkpt><trkpt lat="44.27087241148044" lon="11.27715895364804"><ele>568.0</ele><time>2026-05-03T06:48:14.995Z</time></trkpt><trkpt lat="44.27080876706788" lon="11.277277239859421"><ele>566.0</ele><time>2026-05-03T06:48:15.995Z</time></trkpt><trkpt lat="44.270730975010075" lon="11.27738036231965"><ele>564.5</ele><time>2026-05-03T06:48:16.995Z</time></trkpt><trkpt lat="44.27066284170378" lon="11.27749693296451"><ele>563.0</ele><time>2026-05-03T06:48:17.995Z</time></trkpt><trkpt lat="44.27058517181906" lon="11.277618824701372"><ele>561.5</ele><time>2026-05-03T06:48:18.995Z</time></trkpt><trkpt lat="44.27051084753823" lon="11.277742841925928"><ele>560.0</ele><time>2026-05-03T06:48:19.995Z</time></trkpt><trkpt lat="44.27042384843026" lon="11.277846569088773"><ele>560.0</ele><time>2026-05-03T06:48:20.995Z</time></trkpt><trkpt lat="44.270340044819925" lon="11.27796050276898"><ele>560.0</ele><time>2026-05-03T06:48:21.995Z</time></trkpt><trkpt lat="44.2702447019341" lon="11.278064709733995"><ele>560.0</ele><time>2026-05-03T06:48:22.995Z</time></trkpt><trkpt lat="44.27015147689567" lon="11.278177824021828"><ele>560.0</ele><time>2026-05-03T06:48:23.995Z</time></trkpt><trkpt lat="44.27005962107009" lon="11.278297215708253"><ele>558.5</ele><time>2026-05-03T06:48:24.995Z</time></trkpt><trkpt lat="44.269961824290874" lon="11.278411880349108"><ele>557.0</ele><time>2026-05-03T06:48:25.995Z</time></trkpt><trkpt lat="44.26986584263425" lon="11.278532691266005"><ele>555.5</ele><time>2026-05-03T06:48:26.995Z</time></trkpt><trkpt lat="44.2697676810151" lon="11.278655472374647"><ele>554.0</ele><time>2026-05-03T06:48:27.995Z</time></trkpt><trkpt lat="44.269681530632475" lon="11.27879239280477"><ele>549.0</ele><time>2026-05-03T06:48:28.995Z</time></trkpt><trkpt lat="44.269613984490434" lon="11.278954109692886"><ele>544.0</ele><time>2026-05-03T06:48:29.995Z</time></trkpt><trkpt lat="44.26957435477257" lon="11.2791370356366"><ele>539.0</ele><time>2026-05-03T06:48:30.995Z</time></trkpt><trkpt lat="44.269526771644756" lon="11.279294022036913"><ele>534.0</ele><time>2026-05-03T06:48:31.995Z</time></trkpt><trkpt lat="44.269491094438635" lon="11.279422062827589"><ele>534.0</ele><time>2026-05-03T06:48:32.995Z</time></trkpt><trkpt lat="44.26946378249926" lon="11.279574851824451"><ele>534.0</ele><time>2026-05-03T06:48:33.995Z</time></trkpt><trkpt lat="44.26941817572477" lon="11.279714424218321"><ele>534.0</ele><time>2026-05-03T06:48:34.995Z</time></trkpt><trkpt lat="44.26933991764863" lon="11.279832463317424"><ele>534.0</ele><time>2026-05-03T06:48:35.995Z</time></trkpt><trkpt lat="44.26926700869387" lon="11.279954067117808"><ele>530.8</ele><time>2026-05-03T06:48:36.994Z</time></trkpt><trkpt lat="44.26919829713454" lon="11.280037689194167"><ele>527.5999999999999</ele><time>2026-05-03T06:48:37.994Z</time></trkpt><trkpt lat="44.269132959722235" lon="11.280089240649753"><ele>524.4</ele><time>2026-05-03T06:48:38.994Z</time></trkpt><trkpt lat="44.26903553827817" lon="11.28005236689711"><ele>521.1999999999999</ele><time>2026-05-03T06:48:39.994Z</time></trkpt><trkpt lat="44.268940675450914" lon="11.279969608677892"><ele>518.0</ele><time>2026-05-03T06:48:40.994Z</time></trkpt><trkpt lat="44.268837828566596" lon="11.2798902712324"><ele>517.6</ele><time>2026-05-03T06:48:41.994Z</time></trkpt><trkpt lat="44.268738353085055" lon="11.279872545974841"><ele>517.1999999999999</ele><time>2026-05-03T06:48:42.994Z</time></trkpt><trkpt lat="44.26864376514952" lon="11.279923944907358"><ele>516.8</ele><time>2026-05-03T06:48:43.994Z</time></trkpt><trkpt lat="44.268560193912144" lon="11.280004721512203"><ele>516.4</ele><time>2026-05-03T06:48:44.994Z</time></trkpt><trkpt lat="44.26851987326952" lon="11.280109252649995"><ele>516.0</ele><time>2026-05-03T06:48:45.994Z</time></trkpt><trkpt lat="44.268522707349796" lon="11.280251785343316"><ele>516.0</ele><time>2026-05-03T06:48:46.994Z</time></trkpt><trkpt lat="44.268603536982795" lon="11.280371651727744"><ele>516.0</ele><time>2026-05-03T06:48:47.994Z</time></trkpt><trkpt lat="44.26873339337779" lon="11.280381372061573"><ele>516.0</ele><time>2026-05-03T06:48:48.994Z</time></trkpt><trkpt lat="44.268828524584286" lon="11.28042186272241"><ele>516.0</ele><time>2026-05-03T06:48:49.994Z</time></trkpt><trkpt lat="44.26890306017044" lon="11.280526203740303"><ele>513.0</ele><time>2026-05-03T06:48:50.994Z</time></trkpt><trkpt lat="44.268968384014464" lon="11.28064198013012"><ele>510.0</ele><time>2026-05-03T06:48:51.994Z</time></trkpt><trkpt lat="44.269047446575605" lon="11.280741964344273"><ele>507.0</ele><time>2026-05-03T06:48:52.994Z</time></trkpt><trkpt lat="44.269136813205115" lon="11.280823341475164"><ele>504.0</ele><time>2026-05-03T06:48:53.994Z</time></trkpt><trkpt lat="44.2692407865774" lon="11.280832533343707"><ele>501.0</ele><time>2026-05-03T06:48:54.994Z</time></trkpt><trkpt lat="44.26935445271332" lon="11.280782071995997"><ele>501.0</ele><time>2026-05-03T06:48:55.994Z</time></trkpt><trkpt lat="44.26946240453779" lon="11.280720072704588"><ele>501.0</ele><time>2026-05-03T06:48:56.994Z</time></trkpt><trkpt lat="44.26956479132393" lon="11.280684194755732"><ele>501.0</ele><time>2026-05-03T06:48:57.994Z</time></trkpt><trkpt lat="44.269672542584225" lon="11.280705420790323"><ele>501.0</ele><time>2026-05-03T06:48:58.994Z</time></trkpt><trkpt lat="44.26975607196969" lon="11.280817288794262"><ele>501.0</ele><time>2026-05-03T06:48:59.994Z</time></trkpt><trkpt lat="44.269848580674484" lon="11.280870731958315"><ele>500.20000000000005</ele><time>2026-05-03T06:49:00.993Z</time></trkpt><trkpt lat="44.26993552650559" lon="11.280951658047035"><ele>499.40000000000003</ele><time>2026-05-03T06:49:01.993Z</time></trkpt><trkpt lat="44.26999550775349" lon="11.28104797376022"><ele>498.6</ele><time>2026-05-03T06:49:02.994Z</time></trkpt><trkpt lat="44.270005073423526" lon="11.281170417042741"><ele>497.8</ele><time>2026-05-03T06:49:03.993Z</time></trkpt><trkpt lat="44.26994568702113" lon="11.281282118545313"><ele>497.0</ele><time>2026-05-03T06:49:04.993Z</time></trkpt><trkpt lat="44.26988000009322" lon="11.281348191094338"><ele>497.0</ele><time>2026-05-03T06:49:05.993Z</time></trkpt><trkpt lat="44.26977915101593" lon="11.28134959665389"><ele>497.00000000000006</ele><time>2026-05-03T06:49:06.994Z</time></trkpt><trkpt lat="44.269669733014474" lon="11.281298180198085"><ele>497.00000000000006</ele><time>2026-05-03T06:49:07.994Z</time></trkpt><trkpt lat="44.26957203753674" lon="11.28122003293147"><ele>497.0</ele><time>2026-05-03T06:49:08.993Z</time></trkpt><trkpt lat="44.26947190812328" lon="11.281159247120607"><ele>497.0</ele><time>2026-05-03T06:49:09.994Z</time></trkpt><trkpt lat="44.269365759271224" lon="11.281175702953208"><ele>498.0</ele><time>2026-05-03T06:49:10.994Z</time></trkpt><trkpt lat="44.2692513934673" lon="11.281260472723755"><ele>499.0</ele><time>2026-05-03T06:49:11.993Z</time></trkpt><trkpt lat="44.26916432598962" lon="11.28137685699105"><ele>500.0</ele><time>2026-05-03T06:49:12.993Z</time></trkpt><trkpt lat="44.26906392230464" lon="11.28146661697832"><ele>501.0</ele><time>2026-05-03T06:49:13.993Z</time></trkpt><trkpt lat="44.26894928482051" lon="11.281492849086023"><ele>497.6</ele><time>2026-05-03T06:49:14.993Z</time></trkpt><trkpt lat="44.26883304225378" lon="11.281495624590564"><ele>494.20000000000005</ele><time>2026-05-03T06:49:15.993Z</time></trkpt><trkpt lat="44.26873209745511" lon="11.281507802988196"><ele>490.79999999999995</ele><time>2026-05-03T06:49:16.993Z</time></trkpt><trkpt lat="44.26865513830166" lon="11.281563884544482"><ele>487.4</ele><time>2026-05-03T06:49:17.993Z</time></trkpt><trkpt lat="44.26860950202698" lon="11.281655303449014"><ele>484.0</ele><time>2026-05-03T06:49:18.993Z</time></trkpt><trkpt lat="44.26860308330632" lon="11.281784874603883"><ele>484.0</ele><time>2026-05-03T06:49:19.993Z</time></trkpt><trkpt lat="44.268613937557525" lon="11.2819147511411"><ele>484.0</ele><time>2026-05-03T06:49:20.993Z</time></trkpt><trkpt lat="44.26871808914934" lon="11.281993949971303"><ele>484.0</ele><time>2026-05-03T06:49:21.993Z</time></trkpt><trkpt lat="44.268826898931" lon="11.2819962439108"><ele>484.0</ele><time>2026-05-03T06:49:22.993Z</time></trkpt><trkpt lat="44.268936031710375" lon="11.281943126794824"><ele>484.0</ele><time>2026-05-03T06:49:23.993Z</time></trkpt><trkpt lat="44.269029579566684" lon="11.281855895620803"><ele>484.1666666666667</ele><time>2026-05-03T06:49:24.993Z</time></trkpt><trkpt lat="44.26910767111166" lon="11.281796141901804"><ele>484.33333333333337</ele><time>2026-05-03T06:49:25.993Z</time></trkpt><trkpt lat="44.26919664299509" lon="11.281783845618223"><ele>484.5</ele><time>2026-05-03T06:49:26.993Z</time></trkpt><trkpt lat="44.2692821488177" lon="11.281840910064352"><ele>484.66666666666663</ele><time>2026-05-03T06:49:27.993Z</time></trkpt><trkpt lat="44.26930288902263" lon="11.281971126828685"><ele>484.8333333333333</ele><time>2026-05-03T06:49:28.993Z</time></trkpt><trkpt lat="44.26929423280248" lon="11.282076603664795"><ele>485.0</ele><time>2026-05-03T06:49:29.993Z</time></trkpt><trkpt lat="44.26931745422576" lon="11.282201320949927"><ele>482.49999999999994</ele><time>2026-05-03T06:49:30.993Z</time></trkpt><trkpt lat="44.26931531233458" lon="11.282331753109094"><ele>480.0</ele><time>2026-05-03T06:49:31.993Z</time></trkpt><trkpt lat="44.269332311179426" lon="11.282457576819672"><ele>477.5</ele><time>2026-05-03T06:49:32.993Z</time></trkpt><trkpt lat="44.26936819115246" lon="11.28256000276133"><ele>475.0</ele><time>2026-05-03T06:49:33.993Z</time></trkpt><trkpt lat="44.26940665971619" lon="11.282662513273007"><ele>472.49999999999994</ele><time>2026-05-03T06:49:34.993Z</time></trkpt><trkpt lat="44.269497541612736" lon="11.282699606190423"><ele>470.0</ele><time>2026-05-03T06:49:35.993Z</time></trkpt><trkpt lat="44.26958419322818" lon="11.282684138992224"><ele>469.99999999999994</ele><time>2026-05-03T06:49:36.993Z</time></trkpt><trkpt lat="44.26966170296122" lon="11.282622382833575"><ele>470.0</ele><time>2026-05-03T06:49:37.993Z</time></trkpt><trkpt lat="44.269739020248934" lon="11.2825643493422"><ele>470.0</ele><time>2026-05-03T06:49:38.993Z</time></trkpt><trkpt lat="44.26982315785109" lon="11.28254003192588"><ele>470.0</ele><time>2026-05-03T06:49:39.993Z</time></trkpt><trkpt lat="44.269903699974265" lon="11.282571274120228"><ele>469.99999999999994</ele><time>2026-05-03T06:49:40.993Z</time></trkpt><trkpt lat="44.269947093687016" lon="11.282693164057768"><ele>470.0</ele><time>2026-05-03T06:49:41.993Z</time></trkpt><trkpt lat="44.26995182187859" lon="11.282806504615804"><ele>469.99999999999994</ele><time>2026-05-03T06:49:42.993Z</time></trkpt><trkpt lat="44.26992499403999" lon="11.282916482634848"><ele>470.0</ele><time>2026-05-03T06:49:43.993Z</time></trkpt><trkpt lat="44.26987061778777" lon="11.28300258916359"><ele>470.0</ele><time>2026-05-03T06:49:44.993Z</time></trkpt><trkpt lat="44.26981782413847" lon="11.283108467564237"><ele>470.0</ele><time>2026-05-03T06:49:45.993Z</time></trkpt><trkpt lat="44.26976495965014" lon="11.283194745025085"><ele>469.99999999999994</ele><time>2026-05-03T06:49:46.993Z</time></trkpt><trkpt lat="44.269705985581304" lon="11.283262127979553"><ele>470.0</ele><time>2026-05-03T06:49:47.993Z</time></trkpt><trkpt lat="44.26963535731408" lon="11.283316965567643"><ele>467.4</ele><time>2026-05-03T06:49:48.993Z</time></trkpt><trkpt lat="44.269550526539554" lon="11.283346683179225"><ele>464.8</ele><time>2026-05-03T06:49:49.993Z</time></trkpt><trkpt lat="44.26946351513578" lon="11.283348006138432"><ele>462.20000000000005</ele><time>2026-05-03T06:49:50.993Z</time></trkpt><trkpt lat="44.269371946132125" lon="11.28331950598327"><ele>459.6</ele><time>2026-05-03T06:49:51.993Z</time></trkpt><trkpt lat="44.2692887846601" lon="11.283284224737576"><ele>457.0</ele><time>2026-05-03T06:49:52.993Z</time></trkpt><trkpt lat="44.26920032259607" lon="11.283237397077247"><ele>457.0</ele><time>2026-05-03T06:49:53.993Z</time></trkpt><trkpt lat="44.26911753634181" lon="11.283173639143678"><ele>457.00000000000006</ele><time>2026-05-03T06:49:54.993Z</time></trkpt><trkpt lat="44.26903109688069" lon="11.283116127897697"><ele>457.00000000000006</ele><time>2026-05-03T06:49:55.993Z</time></trkpt><trkpt lat="44.26893814591864" lon="11.283078967069429"><ele>457.0</ele><time>2026-05-03T06:49:56.993Z</time></trkpt><trkpt lat="44.268841971712206" lon="11.283053638230768"><ele>457.0</ele><time>2026-05-03T06:49:57.993Z</time></trkpt><trkpt lat="44.268746195077995" lon="11.283040867480345"><ele>456.20000000000005</ele><time>2026-05-03T06:49:58.993Z</time></trkpt><trkpt lat="44.268650422763656" lon="11.283060682471596"><ele>455.40000000000003</ele><time>2026-05-03T06:49:59.993Z</time></trkpt><trkpt lat="44.26856121189652" lon="11.283119540601337"><ele>454.59999999999997</ele><time>2026-05-03T06:50:00.993Z</time></trkpt><trkpt lat="44.268483569158114" lon="11.283197826974728"><ele>453.79999999999995</ele><time>2026-05-03T06:50:01.993Z</time></trkpt><trkpt lat="44.268415257997866" lon="11.283284425726565"><ele>453.0</ele><time>2026-05-03T06:50:02.993Z</time></trkpt><trkpt lat="44.2683360229915" lon="11.283354873804024"><ele>453.0</ele><time>2026-05-03T06:50:03.993Z</time></trkpt><trkpt lat="44.26827984978494" lon="11.283463677041018"><ele>452.99999999999994</ele><time>2026-05-03T06:50:04.993Z</time></trkpt><trkpt lat="44.26822408939085" lon="11.283560027386805"><ele>452.99999999999994</ele><time>2026-05-03T06:50:05.993Z</time></trkpt><trkpt lat="44.268171556509266" lon="11.283669407558083"><ele>453.0</ele><time>2026-05-03T06:50:06.993Z</time></trkpt><trkpt lat="44.26810873067412" lon="11.2837606512841"><ele>453.0</ele><time>2026-05-03T06:50:07.993Z</time></trkpt><trkpt lat="44.26807781282446" lon="11.283869960002592"><ele>452.8333333333333</ele><time>2026-05-03T06:50:08.993Z</time></trkpt><trkpt lat="44.26803532437551" lon="11.283962744141526"><ele>452.66666666666663</ele><time>2026-05-03T06:50:09.993Z</time></trkpt><trkpt lat="44.26800786251207" lon="11.28406671593"><ele>452.5</ele><time>2026-05-03T06:50:10.993Z</time></trkpt><trkpt lat="44.267965610337875" lon="11.284173466570346"><ele>452.3333333333333</ele><time>2026-05-03T06:50:11.993Z</time></trkpt><trkpt lat="44.267951668031145" lon="11.284288217568951"><ele>452.16666666666663</ele><time>2026-05-03T06:50:12.993Z</time></trkpt><trkpt lat="44.26796031579209" lon="11.284406965865223"><ele>452.0</ele><time>2026-05-03T06:50:13.993Z</time></trkpt><trkpt lat="44.26800792068368" lon="11.284494022626006"><ele>452.0</ele><time>2026-05-03T06:50:14.993Z</time></trkpt><trkpt lat="44.2680920135425" lon="11.284538963566586"><ele>452.00000000000006</ele><time>2026-05-03T06:50:15.993Z</time></trkpt><trkpt lat="44.268182268676746" lon="11.284533788366101"><ele>452.00000000000006</ele><time>2026-05-03T06:50:16.993Z</time></trkpt><trkpt lat="44.268262902015415" lon="11.284484137144558"><ele>452.0</ele><time>2026-05-03T06:50:17.993Z</time></trkpt><trkpt lat="44.2683348738558" lon="11.284383864504113"><ele>452.0</ele><time>2026-05-03T06:50:18.993Z</time></trkpt><trkpt lat="44.26837606673987" lon="11.284288871370766"><ele>451.16666666666663</ele><time>2026-05-03T06:50:19.993Z</time></trkpt><trkpt lat="44.26843198423943" lon="11.28421262232816"><ele>450.3333333333333</ele><time>2026-05-03T06:50:20.993Z</time></trkpt><trkpt lat="44.26851117160962" lon="11.284167840351028"><ele>449.5</ele><time>2026-05-03T06:50:21.993Z</time></trkpt><trkpt lat="44.26859880138966" lon="11.284145330417346"><ele>448.66666666666663</ele><time>2026-05-03T06:50:22.993Z</time></trkpt><trkpt lat="44.26869371953164" lon="11.284162406517725"><ele>447.8333333333333</ele><time>2026-05-03T06:50:23.993Z</time></trkpt><trkpt lat="44.26878324389932" lon="11.284192417335305"><ele>447.0</ele><time>2026-05-03T06:50:24.993Z</time></trkpt><trkpt lat="44.26886597293234" lon="11.284227731975985"><ele>446.6666666666667</ele><time>2026-05-03T06:50:25.993Z</time></trkpt><trkpt lat="44.268948048547145" lon="11.284257256518156"><ele>446.33333333333337</ele><time>2026-05-03T06:50:26.993Z</time></trkpt><trkpt lat="44.26902614560214" lon="11.284310163897468"><ele>446.0</ele><time>2026-05-03T06:50:27.993Z</time></trkpt><trkpt lat="44.26908520423494" lon="11.284403149185556"><ele>445.6666666666667</ele><time>2026-05-03T06:50:28.993Z</time></trkpt><trkpt lat="44.26912364440099" lon="11.284495839418138"><ele>445.33333333333337</ele><time>2026-05-03T06:50:29.993Z</time></trkpt><trkpt lat="44.269118627992135" lon="11.284610054801274"><ele>445.0</ele><time>2026-05-03T06:50:30.993Z</time></trkpt><trkpt lat="44.26908529157041" lon="11.28471823441609"><ele>442.8</ele><time>2026-05-03T06:50:31.993Z</time></trkpt><trkpt lat="44.26902199949895" lon="11.284800437057136"><ele>440.6</ele><time>2026-05-03T06:50:32.993Z</time></trkpt><trkpt lat="44.26894053969191" lon="11.284811928429473"><ele>438.4</ele><time>2026-05-03T06:50:33.993Z</time></trkpt><trkpt lat="44.268857081530456" lon="11.284848037354564"><ele>436.2</ele><time>2026-05-03T06:50:34.993Z</time></trkpt><trkpt lat="44.26876405174582" lon="11.284867830123845"><ele>434.0</ele><time>2026-05-03T06:50:35.993Z</time></trkpt><trkpt lat="44.26866316931093" lon="11.284871737323552"><ele>434.0</ele><time>2026-05-03T06:50:36.993Z</time></trkpt><trkpt lat="44.268570963013524" lon="11.284941879319584"><ele>434.0</ele><time>2026-05-03T06:50:37.993Z</time></trkpt><trkpt lat="44.268481166497764" lon="11.28501600408582"><ele>434.0</ele><time>2026-05-03T06:50:38.993Z</time></trkpt><trkpt lat="44.26841721986583" lon="11.285085263080383"><ele>434.0</ele><time>2026-05-03T06:50:39.993Z</time></trkpt><trkpt lat="44.26834654855507" lon="11.285184888737497"><ele>434.0</ele><time>2026-05-03T06:50:40.993Z</time></trkpt><trkpt lat="44.26826547326382" lon="11.285272669966828"><ele>434.0</ele><time>2026-05-03T06:50:41.993Z</time></trkpt><trkpt lat="44.26819194739921" lon="11.285371190093224"><ele>434.0</ele><time>2026-05-03T06:50:42.993Z</time></trkpt><trkpt lat="44.26811595905241" lon="11.285471770355645"><ele>434.0</ele><time>2026-05-03T06:50:43.993Z</time></trkpt><trkpt lat="44.268045093897655" lon="11.285566976171882"><ele>434.0</ele><time>2026-05-03T06:50:44.993Z</time></trkpt><trkpt lat="44.26797281007625" lon="11.285664833726624"><ele>434.0</ele><time>2026-05-03T06:50:45.993Z</time></trkpt><trkpt lat="44.26790289404769" lon="11.28576314139592"><ele>431.0</ele><time>2026-05-03T06:50:46.993Z</time></trkpt><trkpt lat="44.26785028744575" lon="11.28586302458717"><ele>428.0</ele><time>2026-05-03T06:50:47.993Z</time></trkpt><trkpt lat="44.26783936963963" lon="11.28599723019472"><ele>425.0</ele><time>2026-05-03T06:50:48.993Z</time></trkpt><trkpt lat="44.26786390449428" lon="11.286138156289244"><ele>422.0</ele><time>2026-05-03T06:50:49.993Z</time></trkpt><trkpt lat="44.2679188449962" lon="11.286269261277045"><ele>419.0</ele><time>2026-05-03T06:50:50.993Z</time></trkpt><trkpt lat="44.268003447691434" lon="11.286362014672116"><ele>419.0</ele><time>2026-05-03T06:50:51.993Z</time></trkpt><trkpt lat="44.26810255274828" lon="11.286404602809904"><ele>419.0</ele><time>2026-05-03T06:50:52.993Z</time></trkpt><trkpt lat="44.26820525483519" lon="11.286396683818975"><ele>419.0</ele><time>2026-05-03T06:50:53.993Z</time></trkpt><trkpt lat="44.26830210655453" lon="11.286343634631596"><ele>419.0</ele><time>2026-05-03T06:50:54.993Z</time></trkpt><trkpt lat="44.26838827713425" lon="11.286259460894026"><ele>419.0</ele><time>2026-05-03T06:50:55.993Z</time></trkpt><trkpt lat="44.26845903020452" lon="11.28615368332676"><ele>418.66666666666663</ele><time>2026-05-03T06:50:56.993Z</time></trkpt><trkpt lat="44.26853512675375" lon="11.286074598367007"><ele>418.3333333333333</ele><time>2026-05-03T06:50:57.993Z</time></trkpt><trkpt lat="44.26861024585127" lon="11.2860108331058"><ele>418.0</ele><time>2026-05-03T06:50:58.993Z</time></trkpt><trkpt lat="44.26869161880223" lon="11.285968937279119"><ele>417.66666666666663</ele><time>2026-05-03T06:50:59.993Z</time></trkpt><trkpt lat="44.26876713950246" lon="11.285929560883826"><ele>417.3333333333333</ele><time>2026-05-03T06:51:00.993Z</time></trkpt><trkpt lat="44.2688549093458" lon="11.285904459834658"><ele>417.0</ele><time>2026-05-03T06:51:01.993Z</time></trkpt><trkpt lat="44.268947483401845" lon="11.285920019076555"><ele>417.0</ele><time>2026-05-03T06:51:02.993Z</time></trkpt><trkpt lat="44.26902729937454" lon="11.28597946720442"><ele>417.0</ele><time>2026-05-03T06:51:03.993Z</time></trkpt><trkpt lat="44.26908194828635" lon="11.286096256138539"><ele>417.0</ele><time>2026-05-03T06:51:04.993Z</time></trkpt><trkpt lat="44.26909280735669" lon="11.286232949334384"><ele>417.0</ele><time>2026-05-03T06:51:05.993Z</time></trkpt><trkpt lat="44.26906880733651" lon="11.286351178255671"><ele>417.0</ele><time>2026-05-03T06:51:06.993Z</time></trkpt><trkpt lat="44.26902153100372" lon="11.28648172401322"><ele>415.6</ele><time>2026-05-03T06:51:07.992Z</time></trkpt><trkpt lat="44.26896376473489" lon="11.286588084379558"><ele>414.20000000000005</ele><time>2026-05-03T06:51:08.992Z</time></trkpt><trkpt lat="44.26888964253637" lon="11.286685215958428"><ele>412.8</ele><time>2026-05-03T06:51:09.992Z</time></trkpt><trkpt lat="44.26880755164543" lon="11.286768060231722"><ele>411.4</ele><time>2026-05-03T06:51:10.992Z</time></trkpt><trkpt lat="44.26873031588455" lon="11.286846766045384"><ele>410.0</ele><time>2026-05-03T06:51:11.992Z</time></trkpt><trkpt lat="44.268673195425265" lon="11.286951763603321"><ele>410.0</ele><time>2026-05-03T06:51:12.992Z</time></trkpt><trkpt lat="44.26865852521363" lon="11.287084960919172"><ele>410.0</ele><time>2026-05-03T06:51:13.993Z</time></trkpt><trkpt lat="44.26867206011001" lon="11.287208456216202"><ele>410.0</ele><time>2026-05-03T06:51:14.992Z</time></trkpt><trkpt lat="44.26873723233441" lon="11.287305432638187"><ele>410.0</ele><time>2026-05-03T06:51:15.992Z</time></trkpt><trkpt lat="44.26882027250148" lon="11.287343880755753"><ele>410.0</ele><time>2026-05-03T06:51:16.992Z</time></trkpt><trkpt lat="44.26891242363289" lon="11.287334498583226"><ele>407.2</ele><time>2026-05-03T06:51:17.992Z</time></trkpt><trkpt lat="44.2690071902299" lon="11.287313945796113"><ele>404.4</ele><time>2026-05-03T06:51:18.992Z</time></trkpt><trkpt lat="44.26909886650744" lon="11.28728340049085"><ele>401.6</ele><time>2026-05-03T06:51:19.992Z</time></trkpt><trkpt lat="44.26919587052803" lon="11.287272044948368"><ele>398.8</ele><time>2026-05-03T06:51:20.992Z</time></trkpt><trkpt lat="44.26927937177963" lon="11.287292715874914"><ele>396.0</ele><time>2026-05-03T06:51:21.992Z</time></trkpt><trkpt lat="44.26935112624272" lon="11.287357041133788"><ele>396.0</ele><time>2026-05-03T06:51:22.992Z</time></trkpt><trkpt lat="44.2693974717004" lon="11.287470573001055"><ele>396.0</ele><time>2026-05-03T06:51:23.992Z</time></trkpt><trkpt lat="44.26939647432027" lon="11.28760619648872"><ele>396.0</ele><time>2026-05-03T06:51:24.992Z</time></trkpt><trkpt lat="44.26933566552146" lon="11.287725729727956"><ele>396.0</ele><time>2026-05-03T06:51:25.992Z</time></trkpt><trkpt lat="44.2692718060849" lon="11.287817705562732"><ele>396.0</ele><time>2026-05-03T06:51:26.992Z</time></trkpt><trkpt lat="44.26921269539441" lon="11.287911844345507"><ele>396.0</ele><time>2026-05-03T06:51:27.992Z</time></trkpt><trkpt lat="44.269153409783996" lon="11.288010033650895"><ele>396.0</ele><time>2026-05-03T06:51:28.992Z</time></trkpt><trkpt lat="44.26909210934595" lon="11.288119856744261"><ele>396.0</ele><time>2026-05-03T06:51:29.992Z</time></trkpt><trkpt lat="44.269025620118754" lon="11.288224960061708"><ele>396.0</ele><time>2026-05-03T06:51:30.992Z</time></trkpt><trkpt lat="44.268943522752956" lon="11.288305890308262"><ele>396.0</ele><time>2026-05-03T06:51:31.992Z</time></trkpt><trkpt lat="44.26884991215766" lon="11.288352860735605"><ele>393.6</ele><time>2026-05-03T06:51:32.992Z</time></trkpt><trkpt lat="44.26875066961065" lon="11.288341810505024"><ele>391.20000000000005</ele><time>2026-05-03T06:51:33.992Z</time></trkpt><trkpt lat="44.26867833233299" lon="11.288221040731571"><ele>388.79999999999995</ele><time>2026-05-03T06:51:34.992Z</time></trkpt><trkpt lat="44.26859465408729" lon="11.288176653338839"><ele>386.4</ele><time>2026-05-03T06:51:35.992Z</time></trkpt><trkpt lat="44.268528381988254" lon="11.288157621369976"><ele>384.0</ele><time>2026-05-03T06:51:36.992Z</time></trkpt><trkpt lat="44.26845362584237" lon="11.288217507167007"><ele>384.0</ele><time>2026-05-03T06:51:37.992Z</time></trkpt><trkpt lat="44.268395609206095" lon="11.288305121739288"><ele>384.0</ele><time>2026-05-03T06:51:38.992Z</time></trkpt><trkpt lat="44.2684039000462" lon="11.288453091578724"><ele>384.0</ele><time>2026-05-03T06:51:39.992Z</time></trkpt><trkpt lat="44.268422120379974" lon="11.288583199031955"><ele>384.0</ele><time>2026-05-03T06:51:40.992Z</time></trkpt><trkpt lat="44.2685211862377" lon="11.288663190587192"><ele>384.0</ele><time>2026-05-03T06:51:41.992Z</time></trkpt><trkpt lat="44.26861066351491" lon="11.288703785021276"><ele>384.0</ele><time>2026-05-03T06:51:42.992Z</time></trkpt><trkpt lat="44.268701326257634" lon="11.2887341870973"><ele>384.0</ele><time>2026-05-03T06:51:43.992Z</time></trkpt><trkpt lat="44.268795130050364" lon="11.288755765054926"><ele>384.0</ele><time>2026-05-03T06:51:44.992Z</time></trkpt><trkpt lat="44.2688818399291" lon="11.288782282018174"><ele>384.0</ele><time>2026-05-03T06:51:45.992Z</time></trkpt><trkpt lat="44.268985486607114" lon="11.288804417296378"><ele>384.0</ele><time>2026-05-03T06:51:46.992Z</time></trkpt><trkpt lat="44.26908810461022" lon="11.288829445225279"><ele>384.79999999999995</ele><time>2026-05-03T06:51:47.992Z</time></trkpt><trkpt lat="44.269190679967586" lon="11.28885686270224"><ele>385.59999999999997</ele><time>2026-05-03T06:51:48.992Z</time></trkpt><trkpt lat="44.26929361320474" lon="11.288888716372167"><ele>386.4</ele><time>2026-05-03T06:51:49.992Z</time></trkpt><trkpt lat="44.26940161427387" lon="11.288916779860127"><ele>387.2</ele><time>2026-05-03T06:51:50.992Z</time></trkpt><trkpt lat="44.26950491004415" lon="11.288936506115816"><ele>388.0</ele><time>2026-05-03T06:51:51.992Z</time></trkpt><trkpt lat="44.26959874886419" lon="11.288968034721819"><ele>385.6666666666667</ele><time>2026-05-03T06:51:52.992Z</time></trkpt><trkpt lat="44.2696647567067" lon="11.289009170696426"><ele>383.33333333333337</ele><time>2026-05-03T06:51:53.992Z</time></trkpt><trkpt lat="44.26971494847196" lon="11.289095708854477"><ele>381.0</ele><time>2026-05-03T06:51:54.992Z</time></trkpt><trkpt lat="44.26973070864865" lon="11.289213606289046"><ele>378.6666666666667</ele><time>2026-05-03T06:51:55.992Z</time></trkpt><trkpt lat="44.26969596865074" lon="11.289328189503154"><ele>376.33333333333337</ele><time>2026-05-03T06:51:56.992Z</time></trkpt><trkpt lat="44.26960747850063" lon="11.289419361623322"><ele>374.0</ele><time>2026-05-03T06:51:57.992Z</time></trkpt><trkpt lat="44.269506528926904" lon="11.289472985842908"><ele>374.0</ele><time>2026-05-03T06:51:58.992Z</time></trkpt><trkpt lat="44.26939915707911" lon="11.289488030425227"><ele>374.0</ele><time>2026-05-03T06:51:59.992Z</time></trkpt><trkpt lat="44.26929636794756" lon="11.289503959863245"><ele>374.0</ele><time>2026-05-03T06:52:00.992Z</time></trkpt><trkpt lat="44.269193117955666" lon="11.28951605516931"><ele>374.0</ele><time>2026-05-03T06:52:01.992Z</time></trkpt><trkpt lat="44.26909007767093" lon="11.289530495839456"><ele>374.0</ele><time>2026-05-03T06:52:02.992Z</time></trkpt><trkpt lat="44.268983880803106" lon="11.289557625646957"><ele>374.0</ele><time>2026-05-03T06:52:03.992Z</time></trkpt><trkpt lat="44.26888245338875" lon="11.289586017823183"><ele>374.0</ele><time>2026-05-03T06:52:04.992Z</time></trkpt><trkpt lat="44.26878330204929" lon="11.289631317398221"><ele>374.0</ele><time>2026-05-03T06:52:05.992Z</time></trkpt><trkpt lat="44.26870083231389" lon="11.289711911893972"><ele>374.0</ele><time>2026-05-03T06:52:06.992Z</time></trkpt><trkpt lat="44.26865781059406" lon="11.289850450303003"><ele>374.0</ele><time>2026-05-03T06:52:07.992Z</time></trkpt><trkpt lat="44.268644766299936" lon="11.290002249681205"><ele>372.0</ele><time>2026-05-03T06:52:08.992Z</time></trkpt><trkpt lat="44.26862402771286" lon="11.290141773764894"><ele>370.0</ele><time>2026-05-03T06:52:09.992Z</time></trkpt><trkpt lat="44.26859614900468" lon="11.290277283634145"><ele>368.0</ele><time>2026-05-03T06:52:10.992Z</time></trkpt><trkpt lat="44.26856878347782" lon="11.290406329834434"><ele>366.0</ele><time>2026-05-03T06:52:11.992Z</time></trkpt><trkpt lat="44.268540117078906" lon="11.290534501811045"><ele>364.0</ele><time>2026-05-03T06:52:12.992Z</time></trkpt><trkpt lat="44.26851008335767" lon="11.290656144389006"><ele>363.0</ele><time>2026-05-03T06:52:13.992Z</time></trkpt><trkpt lat="44.26848720108468" lon="11.290790140168665"><ele>362.0</ele><time>2026-05-03T06:52:14.992Z</time></trkpt><trkpt lat="44.26844842333467" lon="11.290906896544456"><ele>361.0</ele><time>2026-05-03T06:52:15.992Z</time></trkpt><trkpt lat="44.2684222946136" lon="11.291031077810729"><ele>360.0</ele><time>2026-05-03T06:52:16.992Z</time></trkpt><trkpt lat="44.268399125677306" lon="11.291159408167811"><ele>359.0</ele><time>2026-05-03T06:52:17.992Z</time></trkpt><trkpt lat="44.268374502085216" lon="11.291267840275545"><ele>359.0</ele><time>2026-05-03T06:52:18.992Z</time></trkpt><trkpt lat="44.26834994407986" lon="11.291376717898393"><ele>359.0</ele><time>2026-05-03T06:52:19.992Z</time></trkpt><trkpt lat="44.26832561361946" lon="11.29147970527433"><ele>359.0</ele><time>2026-05-03T06:52:20.992Z</time></trkpt><trkpt lat="44.268307970442784" lon="11.29158979518582"><ele>359.0</ele><time>2026-05-03T06:52:21.992Z</time></trkpt><trkpt lat="44.26828668434324" lon="11.29168820886209"><ele>359.0</ele><time>2026-05-03T06:52:22.992Z</time></trkpt><trkpt lat="44.268268685002056" lon="11.291776213132517"><ele>359.0</ele><time>2026-05-03T06:52:23.992Z</time></trkpt><trkpt lat="44.26825066170518" lon="11.291871831786915"><ele>358.6666666666667</ele><time>2026-05-03T06:52:24.992Z</time></trkpt><trkpt lat="44.26823167885674" lon="11.29197152582159"><ele>358.33333333333337</ele><time>2026-05-03T06:52:25.992Z</time></trkpt><trkpt lat="44.268211054734564" lon="11.292059564527518"><ele>358.0</ele><time>2026-05-03T06:52:26.992Z</time></trkpt><trkpt lat="44.26817850211899" lon="11.292140698007698"><ele>357.6666666666667</ele><time>2026-05-03T06:52:27.992Z</time></trkpt><trkpt lat="44.26815354952669" lon="11.292277236034991"><ele>357.3333333333333</ele><time>2026-05-03T06:52:29.992Z</time></trkpt><trkpt lat="44.268148389861715" lon="11.292416226376425"><ele>357.0</ele><time>2026-05-03T06:52:32.992Z</time></trkpt><trkpt lat="44.26818238408396" lon="11.292554045750892"><ele>357.0</ele><time>2026-05-03T06:52:34.992Z</time></trkpt><trkpt lat="44.268249993790185" lon="11.292687089486382"><ele>357.0</ele><time>2026-05-03T06:52:36.992Z</time></trkpt><trkpt lat="44.26835669058277" lon="11.292769707076541"><ele>357.0</ele><time>2026-05-03T06:52:38.992Z</time></trkpt><trkpt lat="44.26842790791812" lon="11.292806961214396"><ele>357.0</ele><time>2026-05-03T06:52:39.992Z</time></trkpt><trkpt lat="44.268505173204254" lon="11.292828916056711"><ele>357.0</ele><time>2026-05-03T06:52:40.992Z</time></trkpt><trkpt lat="44.268585233795996" lon="11.292856468505631"><ele>357.0</ele><time>2026-05-03T06:52:41.992Z</time></trkpt><trkpt lat="44.268657849420435" lon="11.29289426339863"><ele>357.0</ele><time>2026-05-03T06:52:42.992Z</time></trkpt><trkpt lat="44.26872661749779" lon="11.292940370128445"><ele>357.0</ele><time>2026-05-03T06:52:43.992Z</time></trkpt><trkpt lat="44.26878454441097" lon="11.293007477307633"><ele>357.0</ele><time>2026-05-03T06:52:44.992Z</time></trkpt><trkpt lat="44.26884130187143" lon="11.293095749100557"><ele>357.0</ele><time>2026-05-03T06:52:45.992Z</time></trkpt><trkpt lat="44.26888185657372" lon="11.293203996590389"><ele>357.0</ele><time>2026-05-03T06:52:46.992Z</time></trkpt><trkpt lat="44.26889869071147" lon="11.293328639550749"><ele>358.8</ele><time>2026-05-03T06:52:47.992Z</time></trkpt><trkpt lat="44.26887960021421" lon="11.293455388553722"><ele>360.6</ele><time>2026-05-03T06:52:48.992Z</time></trkpt><trkpt lat="44.26884159102026" lon="11.293581855503366"><ele>362.40000000000003</ele><time>2026-05-03T06:52:49.992Z</time></trkpt><trkpt lat="44.268799939591005" lon="11.293705284834719"><ele>364.20000000000005</ele><time>2026-05-03T06:52:50.992Z</time></trkpt><trkpt lat="44.26876457681658" lon="11.29383307703004"><ele>366.0</ele><time>2026-05-03T06:52:51.992Z</time></trkpt><trkpt lat="44.2687350260678" lon="11.293965018050638"><ele>367.0</ele><time>2026-05-03T06:52:52.992Z</time></trkpt><trkpt lat="44.26871802836249" lon="11.2941045312611"><ele>368.0</ele><time>2026-05-03T06:52:53.992Z</time></trkpt><trkpt lat="44.26870564795101" lon="11.294242607525339"><ele>369.0</ele><time>2026-05-03T06:52:54.992Z</time></trkpt><trkpt lat="44.268701952213526" lon="11.294384923497681"><ele>370.0</ele><time>2026-05-03T06:52:55.992Z</time></trkpt><trkpt lat="44.26870760648441" lon="11.294534231650658"><ele>371.0</ele><time>2026-05-03T06:52:56.992Z</time></trkpt><trkpt lat="44.26872783026332" lon="11.294680341552993"><ele>373.0</ele><time>2026-05-03T06:52:57.992Z</time></trkpt><trkpt lat="44.26876212868882" lon="11.294825243883324"><ele>375.0</ele><time>2026-05-03T06:52:58.992Z</time></trkpt><trkpt lat="44.26879646378704" lon="11.294970630853271"><ele>377.0</ele><time>2026-05-03T06:52:59.992Z</time></trkpt><trkpt lat="44.2688283230714" lon="11.295114461433164"><ele>379.0</ele><time>2026-05-03T06:53:00.992Z</time></trkpt><trkpt lat="44.26886179690766" lon="11.295261691765118"><ele>381.0</ele><time>2026-05-03T06:53:01.992Z</time></trkpt><trkpt lat="44.26889991797891" lon="11.295406348943345"><ele>379.6</ele><time>2026-05-03T06:53:02.992Z</time></trkpt><trkpt lat="44.268949272634565" lon="11.295550127880055"><ele>378.20000000000005</ele><time>2026-05-03T06:53:03.992Z</time></trkpt><trkpt lat="44.2690053059085" lon="11.295684029316927"><ele>376.79999999999995</ele><time>2026-05-03T06:53:04.992Z</time></trkpt><trkpt lat="44.2690658078171" lon="11.295813778380378"><ele>375.4</ele><time>2026-05-03T06:53:05.992Z</time></trkpt><trkpt lat="44.26911674680151" lon="11.29593957647594"><ele>374.0</ele><time>2026-05-03T06:53:06.992Z</time></trkpt><trkpt lat="44.26918376403374" lon="11.296054654202313"><ele>374.0</ele><time>2026-05-03T06:53:07.992Z</time></trkpt><trkpt lat="44.26925888644495" lon="11.296131860344174"><ele>374.0</ele><time>2026-05-03T06:53:08.992Z</time></trkpt><trkpt lat="44.26935690434902" lon="11.296164469000642"><ele>374.0</ele><time>2026-05-03T06:53:09.992Z</time></trkpt><trkpt lat="44.269458597102464" lon="11.29615368489156"><ele>374.0</ele><time>2026-05-03T06:53:10.991Z</time></trkpt><trkpt lat="44.26955141652728" lon="11.296096305507731"><ele>374.0</ele><time>2026-05-03T06:53:11.992Z</time></trkpt><trkpt lat="44.26961015737116" lon="11.296003135391363"><ele>374.0</ele><time>2026-05-03T06:53:12.992Z</time></trkpt><trkpt lat="44.26964731814864" lon="11.295884680857684"><ele>374.0</ele><time>2026-05-03T06:53:13.992Z</time></trkpt><trkpt lat="44.26967397385676" lon="11.29572050135055"><ele>374.0</ele><time>2026-05-03T06:53:15.991Z</time></trkpt><trkpt lat="44.26967523484137" lon="11.295630042679397"><ele>374.0</ele><time>2026-05-03T06:53:17.991Z</time></trkpt><trkpt lat="44.26966315616538" lon="11.295469526378948"><ele>374.0</ele><time>2026-05-03T06:53:19.992Z</time></trkpt><trkpt lat="44.26965112584138" lon="11.295316659380472"><ele>373.0</ele><time>2026-05-03T06:53:21.991Z</time></trkpt><trkpt lat="44.26967904361511" lon="11.295151237119242"><ele>372.0</ele><time>2026-05-03T06:53:23.991Z</time></trkpt><trkpt lat="44.26975325347056" lon="11.295020121175208"><ele>371.0</ele><time>2026-05-03T06:53:25.991Z</time></trkpt><trkpt lat="44.26985467066943" lon="11.29493025609602"><ele>370.0</ele><time>2026-05-03T06:53:27.991Z</time></trkpt><trkpt lat="44.26991376940057" lon="11.294867839373417"><ele>369.0</ele><time>2026-05-03T06:53:28.991Z</time></trkpt><trkpt lat="44.2699773968161" lon="11.294800451634316"><ele>371.4</ele><time>2026-05-03T06:53:29.991Z</time></trkpt><trkpt lat="44.27004307995335" lon="11.294729238581207"><ele>373.79999999999995</ele><time>2026-05-03T06:53:30.991Z</time></trkpt><trkpt lat="44.270113479730966" lon="11.294648817716876"><ele>376.20000000000005</ele><time>2026-05-03T06:53:31.991Z</time></trkpt><trkpt lat="44.27017267514413" lon="11.294549809938983"><ele>378.6</ele><time>2026-05-03T06:53:32.991Z</time></trkpt><trkpt lat="44.27023492183861" lon="11.29445062350964"><ele>381.0</ele><time>2026-05-03T06:53:33.991Z</time></trkpt><trkpt lat="44.27028545971407" lon="11.294337757395107"><ele>381.0</ele><time>2026-05-03T06:53:34.991Z</time></trkpt><trkpt lat="44.27033566408996" lon="11.294221736816565"><ele>381.0</ele><time>2026-05-03T06:53:35.991Z</time></trkpt><trkpt lat="44.27039344430457" lon="11.294123128074204"><ele>381.0</ele><time>2026-05-03T06:53:36.991Z</time></trkpt><trkpt lat="44.27047536758327" lon="11.29407064512023"><ele>381.0</ele><time>2026-05-03T06:53:37.991Z</time></trkpt><trkpt lat="44.270562297651104" lon="11.294065419413105"><ele>381.0</ele><time>2026-05-03T06:53:38.991Z</time></trkpt><trkpt lat="44.27063624979958" lon="11.294149330379835"><ele>382.8</ele><time>2026-05-03T06:53:39.991Z</time></trkpt><trkpt lat="44.270689698406684" lon="11.29423859707682"><ele>384.6</ele><time>2026-05-03T06:53:40.991Z</time></trkpt><trkpt lat="44.27073822142949" lon="11.294340899400535"><ele>386.4</ele><time>2026-05-03T06:53:41.991Z</time></trkpt><trkpt lat="44.27078243481304" lon="11.294454112492502"><ele>388.2</ele><time>2026-05-03T06:53:42.991Z</time></trkpt><trkpt lat="44.27083119173669" lon="11.294572206454154"><ele>390.0</ele><time>2026-05-03T06:53:43.991Z</time></trkpt><trkpt lat="44.27088132357308" lon="11.294693630572702"><ele>392.2</ele><time>2026-05-03T06:53:44.991Z</time></trkpt><trkpt lat="44.27093134170293" lon="11.294816397712161"><ele>394.4</ele><time>2026-05-03T06:53:45.991Z</time></trkpt><trkpt lat="44.270980031594334" lon="11.294936370401278"><ele>396.6</ele><time>2026-05-03T06:53:46.991Z</time></trkpt><trkpt lat="44.27102661273704" lon="11.295051147093034"><ele>398.8</ele><time>2026-05-03T06:53:47.991Z</time></trkpt><trkpt lat="44.271081268093106" lon="11.295163975852955"><ele>401.0</ele><time>2026-05-03T06:53:48.991Z</time></trkpt><trkpt lat="44.27112761640279" lon="11.295280459972659"><ele>401.0</ele><time>2026-05-03T06:53:49.991Z</time></trkpt><trkpt lat="44.27117531614694" lon="11.295397855829338"><ele>401.0</ele><time>2026-05-03T06:53:50.991Z</time></trkpt><trkpt lat="44.27123093476798" lon="11.295501643693242"><ele>401.0</ele><time>2026-05-03T06:53:51.991Z</time></trkpt><trkpt lat="44.27129501220854" lon="11.29559267167547"><ele>401.0</ele><time>2026-05-03T06:53:52.991Z</time></trkpt><trkpt lat="44.271366439564865" lon="11.295683906032737"><ele>401.0</ele><time>2026-05-03T06:53:53.991Z</time></trkpt><trkpt lat="44.27143787079697" lon="11.29576148809874"><ele>402.49999999999994</ele><time>2026-05-03T06:53:54.991Z</time></trkpt><trkpt lat="44.2715131913047" lon="11.295834722006964"><ele>404.0</ele><time>2026-05-03T06:53:55.991Z</time></trkpt><trkpt lat="44.271587001538286" lon="11.29589522110953"><ele>405.5</ele><time>2026-05-03T06:53:56.991Z</time></trkpt><trkpt lat="44.271661769619975" lon="11.295956655102792"><ele>407.0</ele><time>2026-05-03T06:53:57.991Z</time></trkpt><trkpt lat="44.27173774529663" lon="11.295999393065989"><ele>408.49999999999994</ele><time>2026-05-03T06:53:58.991Z</time></trkpt><trkpt lat="44.27182192497255" lon="11.296019068941233"><ele>410.0</ele><time>2026-05-03T06:53:59.991Z</time></trkpt><trkpt lat="44.271908540293275" lon="11.296008611291612"><ele>410.0</ele><time>2026-05-03T06:54:00.991Z</time></trkpt><trkpt lat="44.27199202228595" lon="11.295962996370424"><ele>410.0</ele><time>2026-05-03T06:54:01.991Z</time></trkpt><trkpt lat="44.27206579126132" lon="11.2958880904622"><ele>410.0</ele><time>2026-05-03T06:54:02.991Z</time></trkpt><trkpt lat="44.27213261036412" lon="11.29580021631742"><ele>410.0</ele><time>2026-05-03T06:54:03.991Z</time></trkpt><trkpt lat="44.272203292406296" lon="11.295723518988604"><ele>410.0</ele><time>2026-05-03T06:54:04.991Z</time></trkpt><trkpt lat="44.27227307019723" lon="11.295643321305745"><ele>409.99999999999994</ele><time>2026-05-03T06:54:05.991Z</time></trkpt><trkpt lat="44.27233828156542" lon="11.295559643855546"><ele>410.0</ele><time>2026-05-03T06:54:06.991Z</time></trkpt><trkpt lat="44.272405478002945" lon="11.295484031574153"><ele>410.0</ele><time>2026-05-03T06:54:07.991Z</time></trkpt><trkpt lat="44.27247462371926" lon="11.295420742019358"><ele>410.0</ele><time>2026-05-03T06:54:08.991Z</time></trkpt><trkpt lat="44.27255229391756" lon="11.29538708862867"><ele>409.99999999999994</ele><time>2026-05-03T06:54:09.991Z</time></trkpt><trkpt lat="44.27263465268724" lon="11.295374268128493"><ele>410.0</ele><time>2026-05-03T06:54:10.991Z</time></trkpt><trkpt lat="44.27271319068039" lon="11.295375452918949"><ele>409.99999999999994</ele><time>2026-05-03T06:54:11.991Z</time></trkpt><trkpt lat="44.272795431036876" lon="11.295394280379611"><ele>410.0</ele><time>2026-05-03T06:54:12.991Z</time></trkpt><trkpt lat="44.27287280313753" lon="11.295420383370951"><ele>410.0</ele><time>2026-05-03T06:54:13.991Z</time></trkpt><trkpt lat="44.27295125475074" lon="11.295458937159857"><ele>410.0</ele><time>2026-05-03T06:54:14.991Z</time></trkpt><trkpt lat="44.273039258993876" lon="11.295462559287097"><ele>409.99999999999994</ele><time>2026-05-03T06:54:15.991Z</time></trkpt><trkpt lat="44.273129169054194" lon="11.295436863295981"><ele>410.0</ele><time>2026-05-03T06:54:16.991Z</time></trkpt><trkpt lat="44.27320872826364" lon="11.295381924126227"><ele>411.66666666666663</ele><time>2026-05-03T06:54:17.991Z</time></trkpt><trkpt lat="44.27327514388397" lon="11.295295070035749"><ele>413.3333333333333</ele><time>2026-05-03T06:54:18.991Z</time></trkpt><trkpt lat="44.273349454175396" lon="11.295215928766295"><ele>415.0</ele><time>2026-05-03T06:54:19.991Z</time></trkpt><trkpt lat="44.27341551680034" lon="11.295127897407523"><ele>416.66666666666663</ele><time>2026-05-03T06:54:20.991Z</time></trkpt><trkpt lat="44.27347875645894" lon="11.295052467600089"><ele>418.3333333333333</ele><time>2026-05-03T06:54:21.991Z</time></trkpt><trkpt lat="44.273550596702265" lon="11.294994781750209"><ele>420.0</ele><time>2026-05-03T06:54:22.991Z</time></trkpt><trkpt lat="44.27362576442595" lon="11.29494020926102"><ele>420.0</ele><time>2026-05-03T06:54:23.991Z</time></trkpt><trkpt lat="44.27370165877336" lon="11.294880623575253"><ele>420.0</ele><time>2026-05-03T06:54:24.991Z</time></trkpt><trkpt lat="44.273795666901435" lon="11.294881790079328"><ele>420.0</ele><time>2026-05-03T06:54:25.991Z</time></trkpt><trkpt lat="44.273877972099584" lon="11.294945669327012"><ele>420.0</ele><time>2026-05-03T06:54:26.991Z</time></trkpt><trkpt lat="44.27392283772499" lon="11.295051988695084"><ele>420.0</ele><time>2026-05-03T06:54:27.991Z</time></trkpt><trkpt lat="44.27393695268567" lon="11.29517449187935"><ele>420.8333333333333</ele><time>2026-05-03T06:54:28.991Z</time></trkpt><trkpt lat="44.273959405454875" lon="11.29529377284066"><ele>421.66666666666663</ele><time>2026-05-03T06:54:29.991Z</time></trkpt><trkpt lat="44.27399501053823" lon="11.295409836346261"><ele>422.5</ele><time>2026-05-03T06:54:30.991Z</time></trkpt><trkpt lat="44.27403575046963" lon="11.295516761723118"><ele>423.3333333333333</ele><time>2026-05-03T06:54:31.991Z</time></trkpt><trkpt lat="44.2740750947039" lon="11.295626405256845"><ele>424.16666666666663</ele><time>2026-05-03T06:54:32.991Z</time></trkpt><trkpt lat="44.27410426203818" lon="11.295736060482453"><ele>425.0</ele><time>2026-05-03T06:54:33.991Z</time></trkpt><trkpt lat="44.27412282350971" lon="11.295855108877031"><ele>426.3333333333333</ele><time>2026-05-03T06:54:34.991Z</time></trkpt><trkpt lat="44.27412288861402" lon="11.295974748670364"><ele>427.66666666666663</ele><time>2026-05-03T06:54:35.991Z</time></trkpt><trkpt lat="44.27411494687454" lon="11.296092841697787"><ele>429.0</ele><time>2026-05-03T06:54:36.991Z</time></trkpt><trkpt lat="44.274103159825614" lon="11.296202018774121"><ele>430.33333333333337</ele><time>2026-05-03T06:54:37.991Z</time></trkpt><trkpt lat="44.27409140221642" lon="11.29631011086087"><ele>431.6666666666667</ele><time>2026-05-03T06:54:38.991Z</time></trkpt><trkpt lat="44.27408490554948" lon="11.29641504500201"><ele>433.0</ele><time>2026-05-03T06:54:39.991Z</time></trkpt><trkpt lat="44.274086481688386" lon="11.296518669816832"><ele>434.1666666666667</ele><time>2026-05-03T06:54:40.991Z</time></trkpt><trkpt lat="44.27409720013163" lon="11.296629189555093"><ele>435.33333333333337</ele><time>2026-05-03T06:54:41.991Z</time></trkpt><trkpt lat="44.27410585677169" lon="11.296738949137184"><ele>436.5</ele><time>2026-05-03T06:54:42.991Z</time></trkpt><trkpt lat="44.27411426684369" lon="11.296848511409504"><ele>437.66666666666663</ele><time>2026-05-03T06:54:43.991Z</time></trkpt><trkpt lat="44.27412452192296" lon="11.296958409822214"><ele>438.8333333333333</ele><time>2026-05-03T06:54:44.991Z</time></trkpt><trkpt lat="44.27413437047842" lon="11.297066905022536"><ele>440.0</ele><time>2026-05-03T06:54:45.991Z</time></trkpt><trkpt lat="44.27414255498192" lon="11.297178570995307"><ele>441.16666666666663</ele><time>2026-05-03T06:54:46.991Z</time></trkpt><trkpt lat="44.274157135565716" lon="11.297286369256584"><ele>442.3333333333333</ele><time>2026-05-03T06:54:47.991Z</time></trkpt><trkpt lat="44.27418017884481" lon="11.297394399609077"><ele>443.5</ele><time>2026-05-03T06:54:48.991Z</time></trkpt><trkpt lat="44.27421624023716" lon="11.297497060963144"><ele>444.66666666666663</ele><time>2026-05-03T06:54:49.991Z</time></trkpt><trkpt lat="44.274271792202335" lon="11.297581801356296"><ele>445.8333333333333</ele><time>2026-05-03T06:54:50.991Z</time></trkpt><trkpt lat="44.27434922745235" lon="11.297639833635483"><ele>447.0</ele><time>2026-05-03T06:54:51.991Z</time></trkpt><trkpt lat="44.27443780508955" lon="11.297677097530066"><ele>447.0</ele><time>2026-05-03T06:54:52.991Z</time></trkpt><trkpt lat="44.27453119955722" lon="11.297706640137163"><ele>447.00000000000006</ele><time>2026-05-03T06:54:53.991Z</time></trkpt><trkpt lat="44.27462156075679" lon="11.297738009271324"><ele>447.00000000000006</ele><time>2026-05-03T06:54:54.991Z</time></trkpt><trkpt lat="44.27471266462608" lon="11.29777290384184"><ele>447.0</ele><time>2026-05-03T06:54:55.991Z</time></trkpt><trkpt lat="44.27480297938802" lon="11.297810292414054"><ele>447.0</ele><time>2026-05-03T06:54:56.991Z</time></trkpt><trkpt lat="44.27489505076457" lon="11.297848239619295"><ele>447.0</ele><time>2026-05-03T06:54:57.991Z</time></trkpt><trkpt lat="44.27498070671818" lon="11.297893044036993"><ele>447.00000000000006</ele><time>2026-05-03T06:54:58.991Z</time></trkpt><trkpt lat="44.27505979811208" lon="11.297954306959683"><ele>447.00000000000006</ele><time>2026-05-03T06:54:59.991Z</time></trkpt><trkpt lat="44.27513465881224" lon="11.298030721300634"><ele>447.0</ele><time>2026-05-03T06:55:00.991Z</time></trkpt><trkpt lat="44.2752047581774" lon="11.298114143418507"><ele>447.0</ele><time>2026-05-03T06:55:01.991Z</time></trkpt><trkpt lat="44.275277785253834" lon="11.298196102444365"><ele>449.0</ele><time>2026-05-03T06:55:02.991Z</time></trkpt><trkpt lat="44.27535367065285" lon="11.298279132788121"><ele>451.00000000000006</ele><time>2026-05-03T06:55:03.991Z</time></trkpt><trkpt lat="44.275426991326285" lon="11.298361530348444"><ele>453.00000000000006</ele><time>2026-05-03T06:55:04.99Z</time></trkpt><trkpt lat="44.27549905568047" lon="11.29844735190213"><ele>455.0</ele><time>2026-05-03T06:55:05.99Z</time></trkpt><trkpt lat="44.27557197242828" lon="11.298531743255518"><ele>457.0</ele><time>2026-05-03T06:55:06.99Z</time></trkpt><trkpt lat="44.27564605895462" lon="11.298610741077212"><ele>457.40000000000003</ele><time>2026-05-03T06:55:07.99Z</time></trkpt><trkpt lat="44.27572204381396" lon="11.298682646103506"><ele>457.80000000000007</ele><time>2026-05-03T06:55:08.99Z</time></trkpt><trkpt lat="44.27580942680873" lon="11.298737025447451"><ele>458.2</ele><time>2026-05-03T06:55:09.99Z</time></trkpt><trkpt lat="44.275903424862506" lon="11.298753342008352"><ele>458.6</ele><time>2026-05-03T06:55:10.99Z</time></trkpt><trkpt lat="44.27600022068524" lon="11.298732857625355"><ele>459.0</ele><time>2026-05-03T06:55:11.99Z</time></trkpt><trkpt lat="44.27609401864311" lon="11.298686886512726"><ele>459.0</ele><time>2026-05-03T06:55:12.99Z</time></trkpt><trkpt lat="44.276181071383554" lon="11.298628393101858"><ele>459.0</ele><time>2026-05-03T06:55:13.99Z</time></trkpt><trkpt lat="44.276262440926985" lon="11.298561979940477"><ele>459.0</ele><time>2026-05-03T06:55:14.99Z</time></trkpt><trkpt lat="44.27634573870015" lon="11.298472236700746"><ele>459.0</ele><time>2026-05-03T06:55:15.99Z</time></trkpt><trkpt lat="44.276438075808684" lon="11.298404126652487"><ele>459.0</ele><time>2026-05-03T06:55:16.991Z</time></trkpt><trkpt lat="44.27653526619988" lon="11.29837016486554"><ele>459.4</ele><time>2026-05-03T06:55:17.991Z</time></trkpt><trkpt lat="44.27663919628783" lon="11.298374827086734"><ele>459.79999999999995</ele><time>2026-05-03T06:55:18.991Z</time></trkpt><trkpt lat="44.27673402604618" lon="11.298428978145045"><ele>460.20000000000005</ele><time>2026-05-03T06:55:19.991Z</time></trkpt><trkpt lat="44.276813004821676" lon="11.298522501133514"><ele>460.6</ele><time>2026-05-03T06:55:20.991Z</time></trkpt><trkpt lat="44.276873590687586" lon="11.298635108752054"><ele>461.0</ele><time>2026-05-03T06:55:21.991Z</time></trkpt><trkpt lat="44.27688996237628" lon="11.298773900808296"><ele>461.0</ele><time>2026-05-03T06:55:22.991Z</time></trkpt><trkpt lat="44.27692119699018" lon="11.298910539964362"><ele>461.0</ele><time>2026-05-03T06:55:23.991Z</time></trkpt><trkpt lat="44.276938243121904" lon="11.299043693661458"><ele>461.0</ele><time>2026-05-03T06:55:24.991Z</time></trkpt><trkpt lat="44.27696504787209" lon="11.299176758909285"><ele>461.0</ele><time>2026-05-03T06:55:25.99Z</time></trkpt><trkpt lat="44.27699492201028" lon="11.299308905655375"><ele>461.0</ele><time>2026-05-03T06:55:26.991Z</time></trkpt><trkpt lat="44.27703661443428" lon="11.299438569763595"><ele>463.0</ele><time>2026-05-03T06:55:27.991Z</time></trkpt><trkpt lat="44.277085560373145" lon="11.299562435598473"><ele>465.0</ele><time>2026-05-03T06:55:28.991Z</time></trkpt><trkpt lat="44.27713807002369" lon="11.29968456751147"><ele>467.0</ele><time>2026-05-03T06:55:29.991Z</time></trkpt><trkpt lat="44.27718654274046" lon="11.299797719812185"><ele>469.0</ele><time>2026-05-03T06:55:30.991Z</time></trkpt><trkpt lat="44.27723359337725" lon="11.29991362880571"><ele>471.0</ele><time>2026-05-03T06:55:31.991Z</time></trkpt><trkpt lat="44.277277536821046" lon="11.300026996724194"><ele>473.1666666666667</ele><time>2026-05-03T06:55:32.991Z</time></trkpt><trkpt lat="44.27732273583331" lon="11.300140612631017"><ele>475.33333333333337</ele><time>2026-05-03T06:55:33.991Z</time></trkpt><trkpt lat="44.27735222834356" lon="11.300259344764802"><ele>477.5</ele><time>2026-05-03T06:55:34.991Z</time></trkpt><trkpt lat="44.27735384317455" lon="11.300372805157144"><ele>479.6666666666667</ele><time>2026-05-03T06:55:35.991Z</time></trkpt><trkpt lat="44.277328485637305" lon="11.30049024705719"><ele>481.83333333333337</ele><time>2026-05-03T06:55:36.991Z</time></trkpt><trkpt lat="44.27728506778096" lon="11.300598421220595"><ele>484.0</ele><time>2026-05-03T06:55:37.991Z</time></trkpt><trkpt lat="44.27720956449954" lon="11.300678588325038"><ele>484.6</ele><time>2026-05-03T06:55:38.991Z</time></trkpt><trkpt lat="44.277105765882325" lon="11.300698270984837"><ele>485.2</ele><time>2026-05-03T06:55:39.991Z</time></trkpt><trkpt lat="44.27700167276709" lon="11.300661732568326"><ele>485.80000000000007</ele><time>2026-05-03T06:55:40.991Z</time></trkpt><trkpt lat="44.276906686093135" lon="11.300583108103039"><ele>486.40000000000003</ele><time>2026-05-03T06:55:41.991Z</time></trkpt><trkpt lat="44.27682656567917" lon="11.300488228638605"><ele>487.0</ele><time>2026-05-03T06:55:42.991Z</time></trkpt><trkpt lat="44.27675049338337" lon="11.30038939285895"><ele>485.20000000000005</ele><time>2026-05-03T06:55:43.991Z</time></trkpt><trkpt lat="44.27667338519114" lon="11.30030210676362"><ele>483.40000000000003</ele><time>2026-05-03T06:55:44.991Z</time></trkpt><trkpt lat="44.276600353103646" lon="11.300221790124002"><ele>481.59999999999997</ele><time>2026-05-03T06:55:45.991Z</time></trkpt><trkpt lat="44.276524854375374" lon="11.30014729292725"><ele>479.79999999999995</ele><time>2026-05-03T06:55:46.991Z</time></trkpt><trkpt lat="44.27644269501062" lon="11.300084815517133"><ele>478.0</ele><time>2026-05-03T06:55:47.99Z</time></trkpt><trkpt lat="44.27635258352789" lon="11.300047906228706"><ele>478.0</ele><time>2026-05-03T06:55:48.99Z</time></trkpt><trkpt lat="44.27625884195069" lon="11.300055092429828"><ele>477.99999999999994</ele><time>2026-05-03T06:55:49.99Z</time></trkpt><trkpt lat="44.27617861013593" lon="11.300128486293069"><ele>477.99999999999994</ele><time>2026-05-03T06:55:50.99Z</time></trkpt><trkpt lat="44.276119402909536" lon="11.300227626174642"><ele>478.0</ele><time>2026-05-03T06:55:51.99Z</time></trkpt><trkpt lat="44.276127686847836" lon="11.300383170196431"><ele>478.0</ele><time>2026-05-03T06:55:52.99Z</time></trkpt><trkpt lat="44.276143844476216" lon="11.300511851651114"><ele>479.4</ele><time>2026-05-03T06:55:53.99Z</time></trkpt><trkpt lat="44.27615666058693" lon="11.300631267705649"><ele>480.79999999999995</ele><time>2026-05-03T06:55:54.99Z</time></trkpt><trkpt lat="44.276150874839054" lon="11.30075505832779"><ele>482.2</ele><time>2026-05-03T06:55:55.99Z</time></trkpt><trkpt lat="44.27612292297474" lon="11.300876626781136"><ele>483.6</ele><time>2026-05-03T06:55:56.99Z</time></trkpt><trkpt lat="44.27606826160785" lon="11.300987562870542"><ele>485.0</ele><time>2026-05-03T06:55:57.99Z</time></trkpt><trkpt lat="44.275999031047306" lon="11.301076839601054"><ele>485.0</ele><time>2026-05-03T06:55:58.99Z</time></trkpt><trkpt lat="44.275931796341446" lon="11.301167522247264"><ele>485.0</ele><time>2026-05-03T06:55:59.99Z</time></trkpt><trkpt lat="44.27587878910343" lon="11.301276147063232"><ele>485.0</ele><time>2026-05-03T06:56:00.99Z</time></trkpt><trkpt lat="44.27583334691178" lon="11.301391891350553"><ele>485.0</ele><time>2026-05-03T06:56:01.99Z</time></trkpt><trkpt lat="44.275811744203246" lon="11.301521008484109"><ele>485.0</ele><time>2026-05-03T06:56:02.99Z</time></trkpt><trkpt lat="44.27579087449268" lon="11.301648564673306"><ele>487.2</ele><time>2026-05-03T06:56:03.99Z</time></trkpt><trkpt lat="44.27576847495628" lon="11.301786408013566"><ele>489.4</ele><time>2026-05-03T06:56:04.99Z</time></trkpt><trkpt lat="44.27571287061972" lon="11.301886759018748"><ele>491.6</ele><time>2026-05-03T06:56:05.99Z</time></trkpt><trkpt lat="44.275629912831384" lon="11.301956653124984"><ele>493.8</ele><time>2026-05-03T06:56:06.99Z</time></trkpt><trkpt lat="44.27554712899992" lon="11.302007308940086"><ele>496.0</ele><time>2026-05-03T06:56:07.99Z</time></trkpt><trkpt lat="44.27545446572512" lon="11.302040696427909"><ele>496.8</ele><time>2026-05-03T06:56:08.99Z</time></trkpt><trkpt lat="44.2753599911604" lon="11.302087629171064"><ele>497.6</ele><time>2026-05-03T06:56:09.99Z</time></trkpt><trkpt lat="44.275269387635724" lon="11.302135867819567"><ele>498.4</ele><time>2026-05-03T06:56:10.99Z</time></trkpt><trkpt lat="44.275174993942244" lon="11.302177833910063"><ele>499.2</ele><time>2026-05-03T06:56:11.99Z</time></trkpt><trkpt lat="44.275077768707646" lon="11.302191248948054"><ele>500.0</ele><time>2026-05-03T06:56:12.99Z</time></trkpt><trkpt lat="44.274993615542506" lon="11.302164168079656"><ele>499.99999999999994</ele><time>2026-05-03T06:56:13.99Z</time></trkpt><trkpt lat="44.274921716261886" lon="11.30209020587925"><ele>500.0</ele><time>2026-05-03T06:56:14.99Z</time></trkpt><trkpt lat="44.27486245611905" lon="11.302008283671162"><ele>500.0</ele><time>2026-05-03T06:56:15.99Z</time></trkpt><trkpt lat="44.27480206595669" lon="11.301926478043153"><ele>500.0</ele><time>2026-05-03T06:56:16.99Z</time></trkpt><trkpt lat="44.27473586612849" lon="11.301853220054186"><ele>499.99999999999994</ele><time>2026-05-03T06:56:17.99Z</time></trkpt><trkpt lat="44.27466463575439" lon="11.301790145917083"><ele>500.0</ele><time>2026-05-03T06:56:18.99Z</time></trkpt><trkpt lat="44.27459378453914" lon="11.30174061864583"><ele>500.8333333333333</ele><time>2026-05-03T06:56:19.99Z</time></trkpt><trkpt lat="44.27450996269326" lon="11.301727995009887"><ele>501.66666666666663</ele><time>2026-05-03T06:56:20.99Z</time></trkpt><trkpt lat="44.274424184842545" lon="11.301754563377461"><ele>502.5</ele><time>2026-05-03T06:56:21.99Z</time></trkpt><trkpt lat="44.27435243961148" lon="11.301819100725288"><ele>503.33333333333337</ele><time>2026-05-03T06:56:22.99Z</time></trkpt><trkpt lat="44.274309612867526" lon="11.301917296513958"><ele>504.1666666666667</ele><time>2026-05-03T06:56:23.99Z</time></trkpt><trkpt lat="44.27431448767178" lon="11.30202151197058"><ele>505.0</ele><time>2026-05-03T06:56:24.99Z</time></trkpt><trkpt lat="44.27435361457993" lon="11.302119300428785"><ele>505.00000000000006</ele><time>2026-05-03T06:56:25.99Z</time></trkpt><trkpt lat="44.27441801527762" lon="11.30219479919073"><ele>505.0</ele><time>2026-05-03T06:56:26.99Z</time></trkpt><trkpt lat="44.27448689476902" lon="11.302265427177414"><ele>505.0</ele><time>2026-05-03T06:56:27.99Z</time></trkpt><trkpt lat="44.27455742249682" lon="11.30234384111846"><ele>505.0</ele><time>2026-05-03T06:56:28.99Z</time></trkpt><trkpt lat="44.27462633735091" lon="11.30242444874175"><ele>505.00000000000006</ele><time>2026-05-03T06:56:29.99Z</time></trkpt><trkpt lat="44.274685179268495" lon="11.302518954731136"><ele>505.0</ele><time>2026-05-03T06:56:30.99Z</time></trkpt><trkpt lat="44.27473278685121" lon="11.302619360503412"><ele>505.33333333333337</ele><time>2026-05-03T06:56:31.99Z</time></trkpt><trkpt lat="44.27477592735136" lon="11.30271523058623"><ele>505.6666666666667</ele><time>2026-05-03T06:56:32.99Z</time></trkpt><trkpt lat="44.27481226848704" lon="11.302820978115086"><ele>506.0</ele><time>2026-05-03T06:56:33.99Z</time></trkpt><trkpt lat="44.274849170746464" lon="11.302916682921998"><ele>506.33333333333337</ele><time>2026-05-03T06:56:34.99Z</time></trkpt><trkpt lat="44.274893378847494" lon="11.302997122280576"><ele>506.6666666666667</ele><time>2026-05-03T06:56:35.99Z</time></trkpt><trkpt lat="44.274941991405804" lon="11.303061758321842"><ele>507.0</ele><time>2026-05-03T06:56:36.99Z</time></trkpt><trkpt lat="44.27500879438729" lon="11.30311532214951"><ele>508.6666666666667</ele><time>2026-05-03T06:56:38.989Z</time></trkpt><trkpt lat="44.27504919519076" lon="11.303184318222785"><ele>510.33333333333337</ele><time>2026-05-03T06:56:44.989Z</time></trkpt><trkpt lat="44.27511557646308" lon="11.303224939255095"><ele>512.0</ele><time>2026-05-03T06:56:49.989Z</time></trkpt><trkpt lat="44.2751961607146" lon="11.303263062147261"><ele>513.6666666666667</ele><time>2026-05-03T06:56:51.989Z</time></trkpt><trkpt lat="44.275308619907904" lon="11.303344703792233"><ele>515.3333333333334</ele><time>2026-05-03T06:56:53.989Z</time></trkpt><trkpt lat="44.27537154106935" lon="11.303381263623695"><ele>517.0</ele><time>2026-05-03T06:56:54.989Z</time></trkpt><trkpt lat="44.275462822275095" lon="11.303422313447408"><ele>517.0</ele><time>2026-05-03T06:56:56.989Z</time></trkpt><trkpt lat="44.27553849223802" lon="11.303449449380816"><ele>517.0</ele><time>2026-05-03T06:56:59.989Z</time></trkpt><trkpt lat="44.275595353683435" lon="11.303398619944254"><ele>517.0</ele><time>2026-05-03T07:03:05.988Z</time></trkpt><trkpt lat="44.275685051957396" lon="11.303380514589197"><ele>517.0</ele><time>2026-05-03T07:03:07.988Z</time></trkpt><trkpt lat="44.2758112545689" lon="11.303321816378475"><ele>517.0</ele><time>2026-05-03T07:03:09.988Z</time></trkpt><trkpt lat="44.275882773384474" lon="11.303304708342933"><ele>517.0</ele><time>2026-05-03T07:03:10.988Z</time></trkpt><trkpt lat="44.275963095176394" lon="11.303292697917655"><ele>517.4</ele><time>2026-05-03T07:03:11.988Z</time></trkpt><trkpt lat="44.27604215144517" lon="11.303272113500709"><ele>517.8000000000001</ele><time>2026-05-03T07:03:12.988Z</time></trkpt><trkpt lat="44.276123719362594" lon="11.303209262075457"><ele>518.2</ele><time>2026-05-03T07:03:13.988Z</time></trkpt><trkpt lat="44.27622069621673" lon="11.303237547026551"><ele>518.6</ele><time>2026-05-03T07:03:14.988Z</time></trkpt><trkpt lat="44.276242317640694" lon="11.303384234016287"><ele>519.0</ele><time>2026-05-03T07:03:15.988Z</time></trkpt><trkpt lat="44.27617120449661" lon="11.303533427700089"><ele>519.0</ele><time>2026-05-03T07:03:16.988Z</time></trkpt><trkpt lat="44.27604486075933" lon="11.303532165707463"><ele>519.0</ele><time>2026-05-03T07:03:17.988Z</time></trkpt><trkpt lat="44.27595707950915" lon="11.30360735181143"><ele>519.0</ele><time>2026-05-03T07:03:18.988Z</time></trkpt><trkpt lat="44.27608718477594" lon="11.303496239874544"><ele>519.0</ele><time>2026-05-03T07:03:19.988Z</time></trkpt><trkpt lat="44.276013881391016" lon="11.303560615757883"><ele>519.0</ele><time>2026-05-03T07:03:20.988Z</time></trkpt><trkpt lat="44.27594090144941" lon="11.303624480874268"><ele>519.0</ele><time>2026-05-03T07:03:21.988Z</time></trkpt><trkpt lat="44.275864874257806" lon="11.303687820898368"><ele>519.0</ele><time>2026-05-03T07:03:22.988Z</time></trkpt><trkpt lat="44.27579357889983" lon="11.303747378566117"><ele>519.0</ele><time>2026-05-03T07:03:23.988Z</time></trkpt><trkpt lat="44.27572574792964" lon="11.30381321002022"><ele>519.0</ele><time>2026-05-03T07:03:24.988Z</time></trkpt><trkpt lat="44.275650514603484" lon="11.30386906893926"><ele>519.0</ele><time>2026-05-03T07:03:25.988Z</time></trkpt><trkpt lat="44.27558451083488" lon="11.303936478618214"><ele>520.1666666666666</ele><time>2026-05-03T07:03:26.988Z</time></trkpt><trkpt lat="44.275510690458674" lon="11.303999494380538"><ele>521.3333333333334</ele><time>2026-05-03T07:03:27.988Z</time></trkpt><trkpt lat="44.27544009154745" lon="11.304061373304371"><ele>522.5</ele><time>2026-05-03T07:03:28.988Z</time></trkpt><trkpt lat="44.27537135790767" lon="11.304133245836487"><ele>523.6666666666667</ele><time>2026-05-03T07:03:29.988Z</time></trkpt><trkpt lat="44.2753105539087" lon="11.30422353610106"><ele>524.8333333333334</ele><time>2026-05-03T07:03:30.988Z</time></trkpt><trkpt lat="44.275246602722724" lon="11.304312863673916"><ele>526.0</ele><time>2026-05-03T07:03:31.988Z</time></trkpt><trkpt lat="44.275188571987684" lon="11.304411789631686"><ele>526.0</ele><time>2026-05-03T07:03:32.988Z</time></trkpt><trkpt lat="44.27511906750909" lon="11.304501969674188"><ele>526.0</ele><time>2026-05-03T07:03:33.988Z</time></trkpt><trkpt lat="44.27504459060272" lon="11.304580199204533"><ele>526.0</ele><time>2026-05-03T07:03:34.988Z</time></trkpt><trkpt lat="44.27496008074321" lon="11.304641795959014"><ele>526.0</ele><time>2026-05-03T07:03:35.988Z</time></trkpt><trkpt lat="44.27486342542301" lon="11.30465374411838"><ele>526.0</ele><time>2026-05-03T07:03:36.988Z</time></trkpt><trkpt lat="44.274773479515844" lon="11.304706969836616"><ele>526.6</ele><time>2026-05-03T07:03:37.988Z</time></trkpt><trkpt lat="44.274681520637714" lon="11.304733396329636"><ele>527.2</ele><time>2026-05-03T07:03:38.988Z</time></trkpt><trkpt lat="44.27459188518243" lon="11.304759845547375"><ele>527.8</ele><time>2026-05-03T07:03:39.988Z</time></trkpt><trkpt lat="44.27449715524528" lon="11.304791207122399"><ele>528.4</ele><time>2026-05-03T07:03:40.988Z</time></trkpt><trkpt lat="44.274399393747785" lon="11.304818306775841"><ele>529.0</ele><time>2026-05-03T07:03:41.988Z</time></trkpt><trkpt lat="44.274302327015334" lon="11.304806692426542"><ele>531.2</ele><time>2026-05-03T07:03:42.988Z</time></trkpt><trkpt lat="44.274198168525544" lon="11.304792412186474"><ele>533.4</ele><time>2026-05-03T07:03:43.988Z</time></trkpt><trkpt lat="44.274097172758246" lon="11.304779623272879"><ele>535.6</ele><time>2026-05-03T07:03:44.988Z</time></trkpt><trkpt lat="44.273998726923466" lon="11.304796558620588"><ele>537.8</ele><time>2026-05-03T07:03:45.988Z</time></trkpt><trkpt lat="44.27390991808376" lon="11.304819173213493"><ele>540.0</ele><time>2026-05-03T07:03:46.988Z</time></trkpt><trkpt lat="44.27382513749442" lon="11.30488416943282"><ele>540.0</ele><time>2026-05-03T07:03:47.988Z</time></trkpt><trkpt lat="44.27374387339479" lon="11.304951698107988"><ele>540.0</ele><time>2026-05-03T07:03:48.988Z</time></trkpt><trkpt lat="44.27366343687921" lon="11.305035827726984"><ele>540.0</ele><time>2026-05-03T07:03:49.988Z</time></trkpt><trkpt lat="44.27357595963184" lon="11.305113487529482"><ele>540.0</ele><time>2026-05-03T07:03:50.988Z</time></trkpt><trkpt lat="44.27348762619552" lon="11.305182360881705"><ele>540.0</ele><time>2026-05-03T07:03:51.988Z</time></trkpt><trkpt lat="44.27340327012744" lon="11.30525515432487"><ele>540.0</ele><time>2026-05-03T07:03:52.989Z</time></trkpt><trkpt lat="44.273324077312154" lon="11.305339652100344"><ele>540.0</ele><time>2026-05-03T07:03:53.988Z</time></trkpt><trkpt lat="44.27325528787055" lon="11.305441781306286"><ele>540.0</ele><time>2026-05-03T07:03:54.988Z</time></trkpt><trkpt lat="44.27319096744825" lon="11.305549457237088"><ele>540.0</ele><time>2026-05-03T07:03:55.988Z</time></trkpt><trkpt lat="44.27312598760367" lon="11.305646958384699"><ele>540.0</ele><time>2026-05-03T07:03:56.988Z</time></trkpt><trkpt lat="44.2730556614345" lon="11.305735972290178"><ele>541.6</ele><time>2026-05-03T07:03:57.988Z</time></trkpt><trkpt lat="44.27297373135245" lon="11.305806594946333"><ele>543.2</ele><time>2026-05-03T07:03:58.988Z</time></trkpt><trkpt lat="44.27288401231396" lon="11.3058627057079"><ele>544.8</ele><time>2026-05-03T07:03:59.988Z</time></trkpt><trkpt lat="44.27279229435896" lon="11.305909624509207"><ele>546.4</ele><time>2026-05-03T07:04:00.988Z</time></trkpt><trkpt lat="44.272695029710086" lon="11.305943118812188"><ele>548.0</ele><time>2026-05-03T07:04:01.988Z</time></trkpt><trkpt lat="44.27260248329487" lon="11.305975910567305"><ele>548.0</ele><time>2026-05-03T07:04:02.988Z</time></trkpt><trkpt lat="44.272509000606334" lon="11.306029739441838"><ele>548.0</ele><time>2026-05-03T07:04:03.988Z</time></trkpt><trkpt lat="44.272424163346834" lon="11.306102715098483"><ele>548.0</ele><time>2026-05-03T07:04:04.988Z</time></trkpt><trkpt lat="44.27234580581969" lon="11.30620124870386"><ele>548.0</ele><time>2026-05-03T07:04:05.988Z</time></trkpt><trkpt lat="44.27229458404536" lon="11.306317066697694"><ele>548.0</ele><time>2026-05-03T07:04:06.988Z</time></trkpt><trkpt lat="44.27227580820654" lon="11.306461641641208"><ele>550.0</ele><time>2026-05-03T07:04:07.988Z</time></trkpt><trkpt lat="44.2722803069857" lon="11.306614503761848"><ele>552.0</ele><time>2026-05-03T07:04:08.988Z</time></trkpt><trkpt lat="44.2722950139428" lon="11.306754916441093"><ele>554.0</ele><time>2026-05-03T07:04:09.988Z</time></trkpt><trkpt lat="44.272311841426195" lon="11.306892591857107"><ele>556.0</ele><time>2026-05-03T07:04:10.988Z</time></trkpt><trkpt lat="44.27232409090849" lon="11.307031775446118"><ele>558.0</ele><time>2026-05-03T07:04:11.988Z</time></trkpt><trkpt lat="44.272330229539484" lon="11.307174338226288"><ele>558.0</ele><time>2026-05-03T07:04:12.988Z</time></trkpt><trkpt lat="44.272319964989" lon="11.307314177646656"><ele>558.0</ele><time>2026-05-03T07:04:13.988Z</time></trkpt><trkpt lat="44.27229286339709" lon="11.307450326319884"><ele>558.0</ele><time>2026-05-03T07:04:14.988Z</time></trkpt><trkpt lat="44.27225707496676" lon="11.307570231989757"><ele>558.0</ele><time>2026-05-03T07:04:15.988Z</time></trkpt><trkpt lat="44.272217632659924" lon="11.307693598434648"><ele>558.0</ele><time>2026-05-03T07:04:16.988Z</time></trkpt><trkpt lat="44.272168539249094" lon="11.307818422662898"><ele>558.0</ele><time>2026-05-03T07:04:17.988Z</time></trkpt><trkpt lat="44.27211245000058" lon="11.307928734451023"><ele>558.0</ele><time>2026-05-03T07:04:18.988Z</time></trkpt><trkpt lat="44.272041746819156" lon="11.30802837157123"><ele>558.0</ele><time>2026-05-03T07:04:19.988Z</time></trkpt><trkpt lat="44.27196592098376" lon="11.308115819694391"><ele>558.0</ele><time>2026-05-03T07:04:20.988Z</time></trkpt><trkpt lat="44.27188802714315" lon="11.308197050518217"><ele>558.0</ele><time>2026-05-03T07:04:21.988Z</time></trkpt><trkpt lat="44.271807830002224" lon="11.308271635558011"><ele>559.8</ele><time>2026-05-03T07:04:22.988Z</time></trkpt><trkpt lat="44.27172608914347" lon="11.308343887322625"><ele>561.5999999999999</ele><time>2026-05-03T07:04:23.988Z</time></trkpt><trkpt lat="44.27164572127538" lon="11.308413482665841"><ele>563.4000000000001</ele><time>2026-05-03T07:04:24.988Z</time></trkpt><trkpt lat="44.2715617516721" lon="11.308482110862945"><ele>565.2</ele><time>2026-05-03T07:04:25.988Z</time></trkpt><trkpt lat="44.27147724924878" lon="11.308549947859875"><ele>567.0</ele><time>2026-05-03T07:04:26.988Z</time></trkpt><trkpt lat="44.27139196124628" lon="11.308613991723309"><ele>567.0</ele><time>2026-05-03T07:04:27.988Z</time></trkpt><trkpt lat="44.271307110404415" lon="11.308681380242174"><ele>567.0</ele><time>2026-05-03T07:04:28.988Z</time></trkpt><trkpt lat="44.27122649157966" lon="11.30876085471427"><ele>567.0</ele><time>2026-05-03T07:04:29.988Z</time></trkpt><trkpt lat="44.27114123075381" lon="11.30884633683004"><ele>567.0</ele><time>2026-05-03T07:04:30.988Z</time></trkpt><trkpt lat="44.271060839000846" lon="11.308935184643486"><ele>567.0</ele><time>2026-05-03T07:04:31.988Z</time></trkpt><trkpt lat="44.27097863957187" lon="11.309028430726544"><ele>567.8000000000001</ele><time>2026-05-03T07:04:32.988Z</time></trkpt><trkpt lat="44.2709002107322" lon="11.30912665158487"><ele>568.6</ele><time>2026-05-03T07:04:33.988Z</time></trkpt><trkpt lat="44.270821698937965" lon="11.309226292657359"><ele>569.4000000000001</ele><time>2026-05-03T07:04:34.988Z</time></trkpt><trkpt lat="44.27073871343722" lon="11.309317024562837"><ele>570.2</ele><time>2026-05-03T07:04:35.988Z</time></trkpt><trkpt lat="44.270654739784234" lon="11.309406296150351"><ele>571.0</ele><time>2026-05-03T07:04:36.988Z</time></trkpt><trkpt lat="44.270568015749056" lon="11.30949365351429"><ele>571.0</ele><time>2026-05-03T07:04:37.988Z</time></trkpt><trkpt lat="44.27047354611848" lon="11.309556876992085"><ele>571.0</ele><time>2026-05-03T07:04:38.988Z</time></trkpt><trkpt lat="44.27037187278088" lon="11.309589880222184"><ele>571.0</ele><time>2026-05-03T07:04:39.988Z</time></trkpt><trkpt lat="44.270270383085126" lon="11.309615183040414"><ele>571.0</ele><time>2026-05-03T07:04:40.988Z</time></trkpt><trkpt lat="44.270169721575364" lon="11.309651976146114"><ele>571.0</ele><time>2026-05-03T07:04:41.988Z</time></trkpt><trkpt lat="44.2700772220279" lon="11.309700825935296"><ele>573.2</ele><time>2026-05-03T07:04:42.988Z</time></trkpt><trkpt lat="44.26998353850267" lon="11.309767436881993"><ele>575.4000000000001</ele><time>2026-05-03T07:04:43.988Z</time></trkpt><trkpt lat="44.26989063831304" lon="11.309836518109401"><ele>577.6</ele><time>2026-05-03T07:04:44.988Z</time></trkpt><trkpt lat="44.26980412819327" lon="11.309907673385059"><ele>579.8000000000001</ele><time>2026-05-03T07:04:45.988Z</time></trkpt><trkpt lat="44.26971043758991" lon="11.309977631248614"><ele>582.0</ele><time>2026-05-03T07:04:46.988Z</time></trkpt><trkpt lat="44.26962016009838" lon="11.31005631974222"><ele>582.0</ele><time>2026-05-03T07:04:47.988Z</time></trkpt><trkpt lat="44.269545847358415" lon="11.310160583191648"><ele>582.0</ele><time>2026-05-03T07:04:48.988Z</time></trkpt><trkpt lat="44.269487695332344" lon="11.31028877050006"><ele>582.0</ele><time>2026-05-03T07:04:49.988Z</time></trkpt><trkpt lat="44.26944415483315" lon="11.310421965133232"><ele>582.0</ele><time>2026-05-03T07:04:50.988Z</time></trkpt><trkpt lat="44.26941268757722" lon="11.310555386399916"><ele>582.0</ele><time>2026-05-03T07:04:51.988Z</time></trkpt><trkpt lat="44.269363084952516" lon="11.310681884977456"><ele>583.8000000000001</ele><time>2026-05-03T07:04:52.988Z</time></trkpt><trkpt lat="44.26933197880916" lon="11.310817031613457"><ele>585.6</ele><time>2026-05-03T07:04:53.988Z</time></trkpt><trkpt lat="44.269307640029176" lon="11.310956603272457"><ele>587.4000000000001</ele><time>2026-05-03T07:04:54.988Z</time></trkpt><trkpt lat="44.2692814805724" lon="11.31110048932157"><ele>589.2</ele><time>2026-05-03T07:04:55.988Z</time></trkpt><trkpt lat="44.269251576641956" lon="11.311229296234904"><ele>591.0</ele><time>2026-05-03T07:04:56.988Z</time></trkpt><trkpt lat="44.269220751324724" lon="11.311364276141765"><ele>592.6</ele><time>2026-05-03T07:04:57.988Z</time></trkpt><trkpt lat="44.26918934574177" lon="11.31149185680676"><ele>594.2</ele><time>2026-05-03T07:04:58.988Z</time></trkpt><trkpt lat="44.26915741467264" lon="11.311616207088273"><ele>595.8</ele><time>2026-05-03T07:04:59.988Z</time></trkpt><trkpt lat="44.269123535404354" lon="11.311737821775726"><ele>597.4</ele><time>2026-05-03T07:05:00.988Z</time></trkpt><trkpt lat="44.26909308861617" lon="11.311857886584047"><ele>599.0</ele><time>2026-05-03T07:05:01.988Z</time></trkpt><trkpt lat="44.26906679279057" lon="11.311979259972793"><ele>599.0</ele><time>2026-05-03T07:05:02.988Z</time></trkpt><trkpt lat="44.269029991287624" lon="11.312101349006833"><ele>599.0</ele><time>2026-05-03T07:05:03.988Z</time></trkpt><trkpt lat="44.26899960526791" lon="11.31222683274639"><ele>599.0</ele><time>2026-05-03T07:05:04.988Z</time></trkpt><trkpt lat="44.26897353845089" lon="11.312352807106565"><ele>599.0</ele><time>2026-05-03T07:05:05.988Z</time></trkpt><trkpt lat="44.26894367529312" lon="11.312486140036693"><ele>599.0</ele><time>2026-05-03T07:05:06.988Z</time></trkpt><trkpt lat="44.268926009792516" lon="11.312624600111969"><ele>600.2</ele><time>2026-05-03T07:05:07.988Z</time></trkpt><trkpt lat="44.26891764287457" lon="11.312762124149542"><ele>601.4</ele><time>2026-05-03T07:05:08.988Z</time></trkpt><trkpt lat="44.26893329034401" lon="11.31291705464446"><ele>602.6</ele><time>2026-05-03T07:05:09.988Z</time></trkpt><trkpt lat="44.26896396107711" lon="11.31304933124842"><ele>603.8</ele><time>2026-05-03T07:05:10.988Z</time></trkpt><trkpt lat="44.26899434315024" lon="11.31318278270211"><ele>605.0</ele><time>2026-05-03T07:05:11.988Z</time></trkpt><trkpt lat="44.269015920873514" lon="11.31332366561013"><ele>606.0</ele><time>2026-05-03T07:05:12.988Z</time></trkpt><trkpt lat="44.2690292904075" lon="11.313467914882429"><ele>607.0</ele><time>2026-05-03T07:05:13.988Z</time></trkpt><trkpt lat="44.269041885967184" lon="11.313608955295184"><ele>608.0</ele><time>2026-05-03T07:05:14.988Z</time></trkpt><trkpt lat="44.26906038048361" lon="11.313745333667665"><ele>609.0</ele><time>2026-05-03T07:05:15.988Z</time></trkpt><trkpt lat="44.26908428513191" lon="11.313886654183557"><ele>610.0</ele><time>2026-05-03T07:05:16.988Z</time></trkpt><trkpt lat="44.26911222104432" lon="11.314027328967883"><ele>611.0</ele><time>2026-05-03T07:05:17.988Z</time></trkpt><trkpt lat="44.26913957500224" lon="11.314168736891903"><ele>612.0</ele><time>2026-05-03T07:05:18.988Z</time></trkpt><trkpt lat="44.2691661345139" lon="11.31431057382938"><ele>613.0</ele><time>2026-05-03T07:05:19.988Z</time></trkpt><trkpt lat="44.26919141065411" lon="11.314451477807125"><ele>614.0</ele><time>2026-05-03T07:05:20.988Z</time></trkpt><trkpt lat="44.269215827783555" lon="11.314589525514126"><ele>615.0</ele><time>2026-05-03T07:05:21.988Z</time></trkpt><trkpt lat="44.26923521737935" lon="11.31472563970563"><ele>615.8</ele><time>2026-05-03T07:05:22.988Z</time></trkpt><trkpt lat="44.269243011345765" lon="11.314864727580094"><ele>616.6</ele><time>2026-05-03T07:05:23.988Z</time></trkpt><trkpt lat="44.26923055227516" lon="11.315002839969523"><ele>617.4</ele><time>2026-05-03T07:05:24.988Z</time></trkpt><trkpt lat="44.26917058666428" lon="11.31511794550602"><ele>618.2</ele><time>2026-05-03T07:05:25.988Z</time></trkpt><trkpt lat="44.26911724171153" lon="11.315234931086371"><ele>619.0</ele><time>2026-05-03T07:05:26.988Z</time></trkpt><trkpt lat="44.26907611681101" lon="11.315359975512013"><ele>619.0</ele><time>2026-05-03T07:05:27.988Z</time></trkpt><trkpt lat="44.26902585001226" lon="11.315478600542772"><ele>619.0</ele><time>2026-05-03T07:05:28.988Z</time></trkpt><trkpt lat="44.26899863005789" lon="11.315607920036927"><ele>619.0</ele><time>2026-05-03T07:05:29.988Z</time></trkpt><trkpt lat="44.26900134953855" lon="11.315749782302296"><ele>619.0</ele><time>2026-05-03T07:05:30.988Z</time></trkpt><trkpt lat="44.269022324772585" lon="11.315891175913015"><ele>619.0</ele><time>2026-05-03T07:05:31.988Z</time></trkpt><trkpt lat="44.26904402235415" lon="11.316027384847507"><ele>620.8</ele><time>2026-05-03T07:05:32.988Z</time></trkpt><trkpt lat="44.26907969323829" lon="11.316161934316614"><ele>622.5999999999999</ele><time>2026-05-03T07:05:33.988Z</time></trkpt><trkpt lat="44.269100247520434" lon="11.316302441891146"><ele>624.4</ele><time>2026-05-03T07:05:34.988Z</time></trkpt><trkpt lat="44.26911403913555" lon="11.316445991461734"><ele>626.1999999999999</ele><time>2026-05-03T07:05:35.988Z</time></trkpt><trkpt lat="44.2690937470427" lon="11.316578082876413"><ele>628.0</ele><time>2026-05-03T07:05:36.987Z</time></trkpt><trkpt lat="44.269067824138794" lon="11.316716607300302"><ele>629.1999999999999</ele><time>2026-05-03T07:05:37.987Z</time></trkpt><trkpt lat="44.26905606514785" lon="11.316857771560318"><ele>630.4</ele><time>2026-05-03T07:05:38.987Z</time></trkpt><trkpt lat="44.26904131488868" lon="11.316995623776771"><ele>631.5999999999999</ele><time>2026-05-03T07:05:39.987Z</time></trkpt><trkpt lat="44.26903989031387" lon="11.317139147690574"><ele>632.8</ele><time>2026-05-03T07:05:40.987Z</time></trkpt><trkpt lat="44.2690372996847" lon="11.3172764241804"><ele>634.0</ele><time>2026-05-03T07:05:41.987Z</time></trkpt><trkpt lat="44.26899875468275" lon="11.317406861917373"><ele>634.0</ele><time>2026-05-03T07:05:42.987Z</time></trkpt><trkpt lat="44.26895101779753" lon="11.317534015248818"><ele>634.0</ele><time>2026-05-03T07:05:43.987Z</time></trkpt><trkpt lat="44.268859645486195" lon="11.317592146366628"><ele>634.0</ele><time>2026-05-03T07:05:44.987Z</time></trkpt><trkpt lat="44.26877056787639" lon="11.317672434202622"><ele>634.0</ele><time>2026-05-03T07:05:45.987Z</time></trkpt><trkpt lat="44.26868114390242" lon="11.317751416406477"><ele>634.0</ele><time>2026-05-03T07:05:46.988Z</time></trkpt><trkpt lat="44.26859760483391" lon="11.317827199865487"><ele>634.0</ele><time>2026-05-03T07:05:47.987Z</time></trkpt><trkpt lat="44.26851406293655" lon="11.317904571760613"><ele>634.0</ele><time>2026-05-03T07:05:48.987Z</time></trkpt><trkpt lat="44.26843225703285" lon="11.31798141835673"><ele>634.0</ele><time>2026-05-03T07:05:49.987Z</time></trkpt><trkpt lat="44.26834940990539" lon="11.318041270230594"><ele>634.0</ele><time>2026-05-03T07:05:50.987Z</time></trkpt><trkpt lat="44.26825731742417" lon="11.318082477843866"><ele>634.0</ele><time>2026-05-03T07:05:51.987Z</time></trkpt><trkpt lat="44.26816352844237" lon="11.318121237761893"><ele>635.8</ele><time>2026-05-03T07:05:52.987Z</time></trkpt><trkpt lat="44.268069974326906" lon="11.31811699347727"><ele>637.5999999999999</ele><time>2026-05-03T07:05:53.987Z</time></trkpt><trkpt lat="44.26796945268612" lon="11.318132317972943"><ele>639.4</ele><time>2026-05-03T07:05:54.987Z</time></trkpt><trkpt lat="44.26787153698203" lon="11.318142247549357"><ele>641.1999999999999</ele><time>2026-05-03T07:05:55.987Z</time></trkpt><trkpt lat="44.267775120223064" lon="11.318147914813327"><ele>643.0</ele><time>2026-05-03T07:05:56.988Z</time></trkpt><trkpt lat="44.26767894968311" lon="11.318160279394753"><ele>643.0</ele><time>2026-05-03T07:05:57.988Z</time></trkpt><trkpt lat="44.267581849489495" lon="11.318181498786968"><ele>643.0</ele><time>2026-05-03T07:05:58.987Z</time></trkpt><trkpt lat="44.26750253598152" lon="11.318264591246505"><ele>643.0</ele><time>2026-05-03T07:05:59.987Z</time></trkpt><trkpt lat="44.26745454858223" lon="11.318384579808384"><ele>643.0</ele><time>2026-05-03T07:06:00.987Z</time></trkpt><trkpt lat="44.26742574073758" lon="11.318503696493917"><ele>643.0</ele><time>2026-05-03T07:06:01.987Z</time></trkpt><trkpt lat="44.26740982316342" lon="11.318632161284887"><ele>643.0</ele><time>2026-05-03T07:06:02.987Z</time></trkpt><trkpt lat="44.26739290268885" lon="11.318755758354213"><ele>643.0</ele><time>2026-05-03T07:06:03.987Z</time></trkpt><trkpt lat="44.267374775009735" lon="11.318889035123286"><ele>643.0</ele><time>2026-05-03T07:06:04.987Z</time></trkpt><trkpt lat="44.267365109083144" lon="11.319025073463248"><ele>643.0</ele><time>2026-05-03T07:06:05.987Z</time></trkpt><trkpt lat="44.26735261394588" lon="11.319157160978035"><ele>643.0</ele><time>2026-05-03T07:06:06.987Z</time></trkpt><trkpt lat="44.26732593302976" lon="11.31928691879092"><ele>644.4</ele><time>2026-05-03T07:06:07.987Z</time></trkpt><trkpt lat="44.267288975214605" lon="11.319417148656798"><ele>645.8</ele><time>2026-05-03T07:06:08.987Z</time></trkpt><trkpt lat="44.26724923022062" lon="11.319542657316793"><ele>647.2</ele><time>2026-05-03T07:06:09.987Z</time></trkpt><trkpt lat="44.26719823686698" lon="11.319661016749293"><ele>648.6</ele><time>2026-05-03T07:06:10.987Z</time></trkpt><trkpt lat="44.26714355763908" lon="11.319770538042947"><ele>650.0</ele><time>2026-05-03T07:06:11.987Z</time></trkpt><trkpt lat="44.26708500809583" lon="11.319884897753361"><ele>652.0</ele><time>2026-05-03T07:06:12.987Z</time></trkpt><trkpt lat="44.26702760317619" lon="11.31999598761983"><ele>654.0</ele><time>2026-05-03T07:06:13.987Z</time></trkpt><trkpt lat="44.266971655681175" lon="11.320109965759722"><ele>656.0</ele><time>2026-05-03T07:06:14.987Z</time></trkpt><trkpt lat="44.266917089946936" lon="11.320223713590494"><ele>658.0</ele><time>2026-05-03T07:06:15.987Z</time></trkpt><trkpt lat="44.26686685195195" lon="11.320343234267238"><ele>660.0</ele><time>2026-05-03T07:06:16.987Z</time></trkpt><trkpt lat="44.26683539608254" lon="11.320478815415207"><ele>661.6</ele><time>2026-05-03T07:06:17.987Z</time></trkpt><trkpt lat="44.26681803405136" lon="11.320620984805052"><ele>663.2</ele><time>2026-05-03T07:06:18.987Z</time></trkpt><trkpt lat="44.26679321153997" lon="11.3207585659182"><ele>664.8</ele><time>2026-05-03T07:06:19.987Z</time></trkpt><trkpt lat="44.266749064447424" lon="11.320884205114355"><ele>666.4</ele><time>2026-05-03T07:06:20.987Z</time></trkpt><trkpt lat="44.26668393512099" lon="11.320988194836604"><ele>668.0</ele><time>2026-05-03T07:06:21.987Z</time></trkpt><trkpt lat="44.26659363301629" lon="11.321048411628906"><ele>668.0</ele><time>2026-05-03T07:06:22.987Z</time></trkpt><trkpt lat="44.26649829133723" lon="11.32106959918306"><ele>668.0</ele><time>2026-05-03T07:06:23.987Z</time></trkpt><trkpt lat="44.266400355162645" lon="11.321047752743555"><ele>668.0</ele><time>2026-05-03T07:06:24.987Z</time></trkpt><trkpt lat="44.26631465641913" lon="11.320996373747015"><ele>668.0</ele><time>2026-05-03T07:06:25.987Z</time></trkpt><trkpt lat="44.26623595428678" lon="11.320927358181699"><ele>668.0</ele><time>2026-05-03T07:06:26.987Z</time></trkpt><trkpt lat="44.26615344229055" lon="11.320849195338935"><ele>667.5999999999999</ele><time>2026-05-03T07:06:27.987Z</time></trkpt><trkpt lat="44.266088574078275" lon="11.320746417334131"><ele>667.1999999999999</ele><time>2026-05-03T07:06:28.987Z</time></trkpt><trkpt lat="44.266032432334654" lon="11.320643798199711"><ele>666.8</ele><time>2026-05-03T07:06:29.987Z</time></trkpt><trkpt lat="44.26596312458801" lon="11.320545365988705"><ele>666.4</ele><time>2026-05-03T07:06:30.987Z</time></trkpt><trkpt lat="44.26590050963698" lon="11.320430888590092"><ele>666.0</ele><time>2026-05-03T07:06:31.987Z</time></trkpt><trkpt lat="44.26581158600827" lon="11.32035352089643"><ele>666.0</ele><time>2026-05-03T07:06:32.987Z</time></trkpt><trkpt lat="44.265709633284075" lon="11.320343833004133"><ele>666.0</ele><time>2026-05-03T07:06:33.987Z</time></trkpt><trkpt lat="44.2656243560048" lon="11.320392472319133"><ele>666.0</ele><time>2026-05-03T07:06:34.987Z</time></trkpt><trkpt lat="44.26559631372288" lon="11.32054878451347"><ele>666.0</ele><time>2026-05-03T07:06:35.987Z</time></trkpt><trkpt lat="44.26559906488526" lon="11.320676408348499"><ele>666.0</ele><time>2026-05-03T07:06:36.987Z</time></trkpt><trkpt lat="44.26561720051935" lon="11.320802901888063"><ele>667.4</ele><time>2026-05-03T07:06:37.987Z</time></trkpt><trkpt lat="44.265644920240085" lon="11.320933241381498"><ele>668.8</ele><time>2026-05-03T07:06:38.987Z</time></trkpt><trkpt lat="44.26566174367468" lon="11.321067798235488"><ele>670.1999999999999</ele><time>2026-05-03T07:06:39.987Z</time></trkpt><trkpt lat="44.26567750341186" lon="11.321206545129467"><ele>671.5999999999999</ele><time>2026-05-03T07:06:40.987Z</time></trkpt><trkpt lat="44.26569260257255" lon="11.321345852302771"><ele>673.0</ele><time>2026-05-03T07:06:41.987Z</time></trkpt><trkpt lat="44.26571200604597" lon="11.32148921001529"><ele>674.8</ele><time>2026-05-03T07:06:42.987Z</time></trkpt><trkpt lat="44.26573180682293" lon="11.321628857669156"><ele>676.5999999999999</ele><time>2026-05-03T07:06:43.987Z</time></trkpt><trkpt lat="44.26575354988273" lon="11.321772691927585"><ele>678.4000000000001</ele><time>2026-05-03T07:06:44.987Z</time></trkpt><trkpt lat="44.26576968818214" lon="11.321912179561062"><ele>680.2</ele><time>2026-05-03T07:06:45.987Z</time></trkpt><trkpt lat="44.26579053939375" lon="11.32205275750038"><ele>682.0</ele><time>2026-05-03T07:06:46.987Z</time></trkpt><trkpt lat="44.26580949704529" lon="11.322192620322314"><ele>683.4000000000001</ele><time>2026-05-03T07:06:47.987Z</time></trkpt><trkpt lat="44.265827328662546" lon="11.32233444957621"><ele>684.8000000000001</ele><time>2026-05-03T07:06:48.987Z</time></trkpt><trkpt lat="44.26584299181392" lon="11.322475071770489"><ele>686.2</ele><time>2026-05-03T07:06:49.987Z</time></trkpt><trkpt lat="44.26586690964557" lon="11.322618393862458"><ele>687.6</ele><time>2026-05-03T07:06:50.987Z</time></trkpt><trkpt lat="44.26588886136025" lon="11.322761281585159"><ele>689.0</ele><time>2026-05-03T07:06:51.987Z</time></trkpt><trkpt lat="44.26590337712911" lon="11.322896838764269"><ele>689.0</ele><time>2026-05-03T07:06:52.987Z</time></trkpt><trkpt lat="44.265906770932126" lon="11.323025573809176"><ele>689.0</ele><time>2026-05-03T07:06:53.987Z</time></trkpt><trkpt lat="44.26589169396393" lon="11.32313686044811"><ele>689.0</ele><time>2026-05-03T07:06:54.987Z</time></trkpt><trkpt lat="44.265855491909655" lon="11.323258749240443"><ele>689.0</ele><time>2026-05-03T07:06:56.987Z</time></trkpt><trkpt lat="44.26580830061254" lon="11.323404861694177"><ele>689.0</ele><time>2026-05-03T07:06:58.987Z</time></trkpt><trkpt lat="44.26575449448278" lon="11.323467724782494"><ele>690.3333333333333</ele><time>2026-05-03T07:06:59.987Z</time></trkpt><trkpt lat="44.265695676893394" lon="11.323528078877663"><ele>691.6666666666666</ele><time>2026-05-03T07:07:00.987Z</time></trkpt><trkpt lat="44.26562461294214" lon="11.323574748325914"><ele>693.0</ele><time>2026-05-03T07:07:01.987Z</time></trkpt><trkpt lat="44.26559631793743" lon="11.323660067130792"><ele>694.3333333333334</ele><time>2026-05-03T07:07:02.986Z</time></trkpt><trkpt lat="44.265468337137776" lon="11.323613665341949"><ele>695.6666666666667</ele><time>2026-05-03T07:07:03.986Z</time></trkpt><trkpt lat="44.265390918289306" lon="11.323626848754246"><ele>697.0</ele><time>2026-05-03T07:07:04.986Z</time></trkpt><trkpt lat="44.26530443719882" lon="11.323635543538911"><ele>697.8</ele><time>2026-05-03T07:07:05.986Z</time></trkpt><trkpt lat="44.265218680247756" lon="11.323646141823014"><ele>698.6</ele><time>2026-05-03T07:07:06.986Z</time></trkpt><trkpt lat="44.26512933517849" lon="11.323648247802996"><ele>699.4</ele><time>2026-05-03T07:07:07.986Z</time></trkpt><trkpt lat="44.26503437837079" lon="11.323643086199386"><ele>700.1999999999999</ele><time>2026-05-03T07:07:08.986Z</time></trkpt><trkpt lat="44.26494189291067" lon="11.323648944433197"><ele>701.0</ele><time>2026-05-03T07:07:09.986Z</time></trkpt><trkpt lat="44.26484510007936" lon="11.323653165357305"><ele>701.0</ele><time>2026-05-03T07:07:10.986Z</time></trkpt><trkpt lat="44.2647463311622" lon="11.323656014070162"><ele>701.0</ele><time>2026-05-03T07:07:11.986Z</time></trkpt><trkpt lat="44.26465076390282" lon="11.323656626572712"><ele>701.0</ele><time>2026-05-03T07:07:12.986Z</time></trkpt><trkpt lat="44.264557275303396" lon="11.323652886699353"><ele>701.0</ele><time>2026-05-03T07:07:13.986Z</time></trkpt><trkpt lat="44.26446102041523" lon="11.323655682990468"><ele>701.0</ele><time>2026-05-03T07:07:14.986Z</time></trkpt><trkpt lat="44.26437042290386" lon="11.323659374865894"><ele>701.0</ele><time>2026-05-03T07:07:15.986Z</time></trkpt><trkpt lat="44.26428021707446" lon="11.323660898291038"><ele>701.0</ele><time>2026-05-03T07:07:16.986Z</time></trkpt><trkpt lat="44.264195574477284" lon="11.323661301071375"><ele>701.0</ele><time>2026-05-03T07:07:17.986Z</time></trkpt><trkpt lat="44.26410522971562" lon="11.323665754999274"><ele>701.0</ele><time>2026-05-03T07:07:18.986Z</time></trkpt><trkpt lat="44.264010690757374" lon="11.323668192757825"><ele>701.0</ele><time>2026-05-03T07:07:19.986Z</time></trkpt><trkpt lat="44.26391392451556" lon="11.323664533643614"><ele>701.8333333333333</ele><time>2026-05-03T07:07:20.986Z</time></trkpt><trkpt lat="44.26381576763798" lon="11.323662280152908"><ele>702.6666666666666</ele><time>2026-05-03T07:07:21.986Z</time></trkpt><trkpt lat="44.263721271990065" lon="11.32366137926278"><ele>703.5</ele><time>2026-05-03T07:07:22.986Z</time></trkpt><trkpt lat="44.263633707816965" lon="11.323629434066179"><ele>704.3333333333334</ele><time>2026-05-03T07:07:23.986Z</time></trkpt><trkpt lat="44.26354113896343" lon="11.323622005809133"><ele>705.1666666666667</ele><time>2026-05-03T07:07:24.986Z</time></trkpt><trkpt lat="44.26347704715762" lon="11.323578218370908"><ele>706.0</ele><time>2026-05-03T07:07:25.986Z</time></trkpt><trkpt lat="44.26340148677986" lon="11.323545502634326"><ele>706.0</ele><time>2026-05-03T07:07:26.986Z</time></trkpt><trkpt lat="44.26332696092063" lon="11.323526140101624"><ele>706.0</ele><time>2026-05-03T07:07:28.986Z</time></trkpt><trkpt lat="44.263261376380086" lon="11.323739063357891"><ele>706.0</ele><time>2026-05-03T07:07:29.986Z</time></trkpt><trkpt lat="44.26330694833724" lon="11.323669949270231"><ele>706.0</ele><time>2026-05-03T07:07:30.986Z</time></trkpt><trkpt lat="44.26335171086963" lon="11.323785839054505"><ele>706.0</ele><time>2026-05-03T07:07:33.986Z</time></trkpt><trkpt lat="44.26342955289737" lon="11.32383340187613"><ele>707.3333333333334</ele><time>2026-05-03T07:07:35.986Z</time></trkpt><trkpt lat="44.26355084773893" lon="11.323901432215896"><ele>708.6666666666667</ele><time>2026-05-03T07:07:37.986Z</time></trkpt><trkpt lat="44.26361940091702" lon="11.323934858966133"><ele>710.0</ele><time>2026-05-03T07:07:38.986Z</time></trkpt><trkpt lat="44.26368828038913" lon="11.323967923630478"><ele>711.3333333333334</ele><time>2026-05-03T07:07:39.986Z</time></trkpt><trkpt lat="44.26375824479331" lon="11.324028033261643"><ele>712.6666666666666</ele><time>2026-05-03T07:07:40.986Z</time></trkpt><trkpt lat="44.26383081821775" lon="11.324082064139194"><ele>714.0</ele><time>2026-05-03T07:07:41.986Z</time></trkpt><trkpt lat="44.26390263491758" lon="11.324138100333538"><ele>713.5</ele><time>2026-05-03T07:07:42.986Z</time></trkpt><trkpt lat="44.26397790779104" lon="11.324187306271382"><ele>713.0</ele><time>2026-05-03T07:07:43.986Z</time></trkpt><trkpt lat="44.264054475746896" lon="11.324246021855231"><ele>712.5</ele><time>2026-05-03T07:07:44.986Z</time></trkpt><trkpt lat="44.26412671178139" lon="11.32430628496489"><ele>712.0</ele><time>2026-05-03T07:07:45.986Z</time></trkpt><trkpt lat="44.264203346911316" lon="11.324361546340088"><ele>711.5</ele><time>2026-05-03T07:07:46.986Z</time></trkpt><trkpt lat="44.264282147306005" lon="11.32441712080637"><ele>711.0</ele><time>2026-05-03T07:07:47.986Z</time></trkpt><trkpt lat="44.26436167246749" lon="11.32447411704652"><ele>711.0</ele><time>2026-05-03T07:07:48.986Z</time></trkpt><trkpt lat="44.26444320591877" lon="11.324531812593085"><ele>711.0</ele><time>2026-05-03T07:07:49.986Z</time></trkpt><trkpt lat="44.26452491183448" lon="11.32459105137495"><ele>711.0</ele><time>2026-05-03T07:07:50.986Z</time></trkpt><trkpt lat="44.26460929828189" lon="11.324656415747372"><ele>711.0</ele><time>2026-05-03T07:07:51.986Z</time></trkpt><trkpt lat="44.2646898253057" lon="11.324715688786098"><ele>711.0</ele><time>2026-05-03T07:07:52.986Z</time></trkpt><trkpt lat="44.264772256626394" lon="11.324784370669219"><ele>712.5999999999999</ele><time>2026-05-03T07:07:53.986Z</time></trkpt><trkpt lat="44.264840428336186" lon="11.324848072776284"><ele>714.2</ele><time>2026-05-03T07:07:54.986Z</time></trkpt><trkpt lat="44.26488561193536" lon="11.324916800631927"><ele>715.8</ele><time>2026-05-03T07:07:55.986Z</time></trkpt><trkpt lat="44.2649086086097" lon="11.325029037860809"><ele>717.4000000000001</ele><time>2026-05-03T07:07:57.986Z</time></trkpt><trkpt lat="44.264783387499484" lon="11.325116569642281"><ele>719.0</ele><time>2026-05-03T07:08:04.986Z</time></trkpt><trkpt lat="44.2646699781631" lon="11.325127735853359"><ele>719.5</ele><time>2026-05-03T07:08:06.986Z</time></trkpt><trkpt lat="44.26460016879721" lon="11.325143144861666"><ele>720.0</ele><time>2026-05-03T07:08:07.986Z</time></trkpt><trkpt lat="44.26452750264321" lon="11.32515660127315"><ele>720.5</ele><time>2026-05-03T07:08:08.986Z</time></trkpt><trkpt lat="44.26445617352006" lon="11.325172556823752"><ele>721.0</ele><time>2026-05-03T07:08:09.986Z</time></trkpt><trkpt lat="44.26438030035802" lon="11.325193569591635"><ele>721.5</ele><time>2026-05-03T07:08:10.986Z</time></trkpt><trkpt lat="44.26430737325793" lon="11.32522607530858"><ele>722.0</ele><time>2026-05-03T07:08:11.986Z</time></trkpt><trkpt lat="44.264234174536696" lon="11.32527391055618"><ele>722.0</ele><time>2026-05-03T07:08:12.986Z</time></trkpt><trkpt lat="44.26416143231419" lon="11.325333607779669"><ele>722.0</ele><time>2026-05-03T07:08:13.986Z</time></trkpt><trkpt lat="44.26408345045884" lon="11.325385958524555"><ele>722.0</ele><time>2026-05-03T07:08:14.986Z</time></trkpt><trkpt lat="44.26400094143549" lon="11.32544273018358"><ele>722.0</ele><time>2026-05-03T07:08:15.986Z</time></trkpt><trkpt lat="44.26392124999785" lon="11.325500909350449"><ele>722.0</ele><time>2026-05-03T07:08:16.986Z</time></trkpt><trkpt lat="44.26384267293249" lon="11.325554315250251"><ele>722.0</ele><time>2026-05-03T07:08:17.986Z</time></trkpt><trkpt lat="44.26378162122395" lon="11.325585230334191"><ele>722.4000000000001</ele><time>2026-05-03T07:08:18.986Z</time></trkpt><trkpt lat="44.26369320910802" lon="11.325639033865514"><ele>722.8000000000001</ele><time>2026-05-03T07:08:20.986Z</time></trkpt><trkpt lat="44.26363040906021" lon="11.325682273078424"><ele>723.2</ele><time>2026-05-03T07:08:22.986Z</time></trkpt><trkpt lat="44.26374960777651" lon="11.325673638123018"><ele>723.6</ele><time>2026-05-03T07:08:42.986Z</time></trkpt><trkpt lat="44.263857046405505" lon="11.325607785454118"><ele>724.0</ele><time>2026-05-03T07:08:44.986Z</time></trkpt><trkpt lat="44.26391064669112" lon="11.325554849133072"><ele>723.6</ele><time>2026-05-03T07:08:45.986Z</time></trkpt><trkpt lat="44.2640213669874" lon="11.325475834953238"><ele>723.2</ele><time>2026-05-03T07:08:47.986Z</time></trkpt><trkpt lat="44.264084545413624" lon="11.32542640688263"><ele>722.8000000000001</ele><time>2026-05-03T07:08:48.986Z</time></trkpt><trkpt lat="44.26415781591448" lon="11.325371469695323"><ele>722.4000000000001</ele><time>2026-05-03T07:08:49.986Z</time></trkpt><trkpt lat="44.26422593415121" lon="11.325317312353471"><ele>722.0</ele><time>2026-05-03T07:08:50.986Z</time></trkpt><trkpt lat="44.264311806747834" lon="11.325267786805933"><ele>722.0</ele><time>2026-05-03T07:08:51.986Z</time></trkpt><trkpt lat="44.26439047693271" lon="11.325214134387592"><ele>722.0</ele><time>2026-05-03T07:08:52.986Z</time></trkpt><trkpt lat="44.26447258012242" lon="11.325182075367298"><ele>722.0</ele><time>2026-05-03T07:08:53.986Z</time></trkpt><trkpt lat="44.264554755193615" lon="11.32517099964605"><ele>722.0</ele><time>2026-05-03T07:08:54.986Z</time></trkpt><trkpt lat="44.26464283158025" lon="11.325160828116989"><ele>722.0</ele><time>2026-05-03T07:08:55.986Z</time></trkpt><trkpt lat="44.26471967816111" lon="11.32515696304727"><ele>722.0</ele><time>2026-05-03T07:08:56.986Z</time></trkpt><trkpt lat="44.264791639605384" lon="11.32513651864999"><ele>721.8333333333333</ele><time>2026-05-03T07:08:57.986Z</time></trkpt><trkpt lat="44.2648841708016" lon="11.325182758301418"><ele>721.6666666666666</ele><time>2026-05-03T07:08:59.986Z</time></trkpt><trkpt lat="44.26490328191572" lon="11.325287958198635"><ele>721.5</ele><time>2026-05-03T07:09:01.986Z</time></trkpt><trkpt lat="44.2648925013159" lon="11.325391020093308"><ele>721.3333333333334</ele><time>2026-05-03T07:09:04.986Z</time></trkpt><trkpt lat="44.26485364413949" lon="11.325464024477853"><ele>721.1666666666667</ele><time>2026-05-03T07:09:08.986Z</time></trkpt><trkpt lat="44.26483343687916" lon="11.32555166334327"><ele>721.0</ele><time>2026-05-03T07:09:19.986Z</time></trkpt><trkpt lat="44.26473466859072" lon="11.325643676478869"><ele>721.0</ele><time>2026-05-03T07:09:21.986Z</time></trkpt><trkpt lat="44.26468738561502" lon="11.325727983791724"><ele>721.0</ele><time>2026-05-03T07:09:22.986Z</time></trkpt><trkpt lat="44.264637985230976" lon="11.325816066511583"><ele>721.0</ele><time>2026-05-03T07:09:23.986Z</time></trkpt><trkpt lat="44.264578961215356" lon="11.325921308991362"><ele>721.0</ele><time>2026-05-03T07:09:24.986Z</time></trkpt><trkpt lat="44.26451346282285" lon="11.326043172931582"><ele>721.0</ele><time>2026-05-03T07:09:25.986Z</time></trkpt><trkpt lat="44.264452560990726" lon="11.32615468511633"><ele>721.0</ele><time>2026-05-03T07:09:26.986Z</time></trkpt><trkpt lat="44.264390160754" lon="11.32626894126474"><ele>721.0</ele><time>2026-05-03T07:09:27.986Z</time></trkpt><trkpt lat="44.26432733060439" lon="11.326383602017534"><ele>721.0</ele><time>2026-05-03T07:09:28.986Z</time></trkpt><trkpt lat="44.264262499246676" lon="11.326501620891412"><ele>721.0</ele><time>2026-05-03T07:09:29.986Z</time></trkpt><trkpt lat="44.26419612419109" lon="11.326617733435548"><ele>721.0</ele><time>2026-05-03T07:09:30.986Z</time></trkpt><trkpt lat="44.264124167825294" lon="11.326731990110511"><ele>719.5999999999999</ele><time>2026-05-03T07:09:31.986Z</time></trkpt><trkpt lat="44.26405103792212" lon="11.32683588579482"><ele>718.2</ele><time>2026-05-03T07:09:32.986Z</time></trkpt><trkpt lat="44.26397018445842" lon="11.32691694390696"><ele>716.8</ele><time>2026-05-03T07:09:33.986Z</time></trkpt><trkpt lat="44.263894733576606" lon="11.326986457191204"><ele>715.4000000000001</ele><time>2026-05-03T07:09:34.986Z</time></trkpt><trkpt lat="44.263824271002655" lon="11.327037584480026"><ele>714.0</ele><time>2026-05-03T07:09:35.986Z</time></trkpt><trkpt lat="44.263749411307316" lon="11.327088528852261"><ele>714.0</ele><time>2026-05-03T07:09:36.986Z</time></trkpt><trkpt lat="44.26367976388946" lon="11.32715138349542"><ele>714.0</ele><time>2026-05-03T07:09:37.986Z</time></trkpt><trkpt lat="44.263597838457066" lon="11.327193088617335"><ele>714.0</ele><time>2026-05-03T07:09:38.986Z</time></trkpt><trkpt lat="44.26350413388952" lon="11.327232079795083"><ele>714.0</ele><time>2026-05-03T07:09:39.986Z</time></trkpt><trkpt lat="44.263406860650605" lon="11.327260176923792"><ele>714.0</ele><time>2026-05-03T07:09:40.986Z</time></trkpt><trkpt lat="44.26330193289248" lon="11.32728157121152"><ele>713.8000000000001</ele><time>2026-05-03T07:09:41.986Z</time></trkpt><trkpt lat="44.26320135453311" lon="11.327317341967031"><ele>713.6</ele><time>2026-05-03T07:09:42.986Z</time></trkpt><trkpt lat="44.2630990600006" lon="11.327354988130807"><ele>713.4</ele><time>2026-05-03T07:09:43.986Z</time></trkpt><trkpt lat="44.263002712693094" lon="11.327409927528583"><ele>713.2</ele><time>2026-05-03T07:09:44.986Z</time></trkpt><trkpt lat="44.262918786732115" lon="11.327489982130084"><ele>713.0</ele><time>2026-05-03T07:09:45.986Z</time></trkpt><trkpt lat="44.262854553125486" lon="11.327612454571561"><ele>713.0</ele><time>2026-05-03T07:09:46.986Z</time></trkpt><trkpt lat="44.262810762149144" lon="11.32775066101348"><ele>713.0</ele><time>2026-05-03T07:09:47.986Z</time></trkpt><trkpt lat="44.262769170894906" lon="11.327890121672738"><ele>713.0</ele><time>2026-05-03T07:09:48.986Z</time></trkpt><trkpt lat="44.26273290910389" lon="11.328035343741586"><ele>713.0</ele><time>2026-05-03T07:09:49.986Z</time></trkpt><trkpt lat="44.26269222211813" lon="11.328175080216162"><ele>713.0</ele><time>2026-05-03T07:09:50.986Z</time></trkpt><trkpt lat="44.26265559578229" lon="11.328319836848154"><ele>712.4</ele><time>2026-05-03T07:09:51.986Z</time></trkpt><trkpt lat="44.26263044916735" lon="11.328469366183997"><ele>711.8</ele><time>2026-05-03T07:09:52.986Z</time></trkpt><trkpt lat="44.26261225674318" lon="11.328617573110245"><ele>711.2</ele><time>2026-05-03T07:09:53.986Z</time></trkpt><trkpt lat="44.26259723059892" lon="11.328768634196305"><ele>710.6</ele><time>2026-05-03T07:09:54.986Z</time></trkpt><trkpt lat="44.26258516582095" lon="11.328926850579359"><ele>710.0</ele><time>2026-05-03T07:09:55.986Z</time></trkpt><trkpt lat="44.26257058864641" lon="11.3290660604992"><ele>709.8</ele><time>2026-05-03T07:09:56.985Z</time></trkpt><trkpt lat="44.26255061102374" lon="11.329223087207078"><ele>709.6</ele><time>2026-05-03T07:09:57.985Z</time></trkpt><trkpt lat="44.26253385374989" lon="11.32937337563158"><ele>709.4000000000001</ele><time>2026-05-03T07:09:58.985Z</time></trkpt><trkpt lat="44.262519643228856" lon="11.329527599812238"><ele>709.2</ele><time>2026-05-03T07:09:59.985Z</time></trkpt><trkpt lat="44.26250395008796" lon="11.32968022898849"><ele>709.0</ele><time>2026-05-03T07:10:00.985Z</time></trkpt><trkpt lat="44.26249426141323" lon="11.3298308897682"><ele>708.2</ele><time>2026-05-03T07:10:01.985Z</time></trkpt><trkpt lat="44.262469541387816" lon="11.329970043139339"><ele>707.4000000000001</ele><time>2026-05-03T07:10:02.985Z</time></trkpt><trkpt lat="44.2624274385219" lon="11.330095029803092"><ele>706.6</ele><time>2026-05-03T07:10:03.985Z</time></trkpt><trkpt lat="44.262355859025305" lon="11.330208881603415"><ele>705.8</ele><time>2026-05-03T07:10:04.985Z</time></trkpt><trkpt lat="44.262275314031804" lon="11.330306931078432"><ele>705.0</ele><time>2026-05-03T07:10:05.985Z</time></trkpt><trkpt lat="44.26221515918157" lon="11.330429453198112"><ele>706.8</ele><time>2026-05-03T07:10:06.985Z</time></trkpt><trkpt lat="44.26217666684101" lon="11.330549769358933"><ele>708.6</ele><time>2026-05-03T07:10:07.985Z</time></trkpt><trkpt lat="44.26214287433275" lon="11.330682665311931"><ele>710.4000000000001</ele><time>2026-05-03T07:10:08.985Z</time></trkpt><trkpt lat="44.262133408579885" lon="11.330829485232472"><ele>712.2</ele><time>2026-05-03T07:10:09.985Z</time></trkpt><trkpt lat="44.26214110601331" lon="11.330977885291352"><ele>714.0</ele><time>2026-05-03T07:10:10.985Z</time></trkpt><trkpt lat="44.262159193538366" lon="11.33112484485987"><ele>714.0</ele><time>2026-05-03T07:10:11.985Z</time></trkpt><trkpt lat="44.262190570654624" lon="11.33127354893062"><ele>714.0</ele><time>2026-05-03T07:10:12.985Z</time></trkpt><trkpt lat="44.26221449841748" lon="11.331416169216407"><ele>714.0</ele><time>2026-05-03T07:10:13.985Z</time></trkpt><trkpt lat="44.26222614255007" lon="11.331560877458962"><ele>714.0</ele><time>2026-05-03T07:10:14.985Z</time></trkpt><trkpt lat="44.26222256557413" lon="11.331692105051411"><ele>714.0</ele><time>2026-05-03T07:10:15.985Z</time></trkpt><trkpt lat="44.262201480448866" lon="11.331829464147852"><ele>713.8000000000001</ele><time>2026-05-03T07:10:16.985Z</time></trkpt><trkpt lat="44.262174222671774" lon="11.331962960973526"><ele>713.6</ele><time>2026-05-03T07:10:17.985Z</time></trkpt><trkpt lat="44.262134753789795" lon="11.332089101859667"><ele>713.4</ele><time>2026-05-03T07:10:18.985Z</time></trkpt><trkpt lat="44.26206289226941" lon="11.332188109973899"><ele>713.2</ele><time>2026-05-03T07:10:19.985Z</time></trkpt><trkpt lat="44.26199041738348" lon="11.332268893406034"><ele>713.0</ele><time>2026-05-03T07:10:20.985Z</time></trkpt><trkpt lat="44.26191642106499" lon="11.332339237822733"><ele>712.2</ele><time>2026-05-03T07:10:21.985Z</time></trkpt><trkpt lat="44.26186251616518" lon="11.332417542214804"><ele>711.4</ele><time>2026-05-03T07:10:22.985Z</time></trkpt><trkpt lat="44.26182555104834" lon="11.332524903146618"><ele>710.6</ele><time>2026-05-03T07:10:23.985Z</time></trkpt><trkpt lat="44.261788038782655" lon="11.332660982448402"><ele>709.8000000000001</ele><time>2026-05-03T07:10:24.985Z</time></trkpt><trkpt lat="44.26179853564859" lon="11.332817751691579"><ele>709.0</ele><time>2026-05-03T07:10:25.985Z</time></trkpt><trkpt lat="44.261781380244415" lon="11.332959793232126"><ele>707.6</ele><time>2026-05-03T07:10:26.985Z</time></trkpt><trkpt lat="44.26177723134688" lon="11.333100886641665"><ele>706.2</ele><time>2026-05-03T07:10:27.985Z</time></trkpt><trkpt lat="44.261770610152055" lon="11.333236975018163"><ele>704.8000000000001</ele><time>2026-05-03T07:10:28.985Z</time></trkpt><trkpt lat="44.26174639370037" lon="11.333373661241517"><ele>703.4000000000001</ele><time>2026-05-03T07:10:29.985Z</time></trkpt><trkpt lat="44.2617164516005" lon="11.33352109718316"><ele>702.0</ele><time>2026-05-03T07:10:30.985Z</time></trkpt><trkpt lat="44.26165673618021" lon="11.333656926175303"><ele>702.0</ele><time>2026-05-03T07:10:31.985Z</time></trkpt><trkpt lat="44.26158867033621" lon="11.333788884082226"><ele>702.0</ele><time>2026-05-03T07:10:32.985Z</time></trkpt><trkpt lat="44.26152483603056" lon="11.333942959335028"><ele>702.0</ele><time>2026-05-03T07:10:33.985Z</time></trkpt><trkpt lat="44.26148993696553" lon="11.334136627084057"><ele>702.0</ele><time>2026-05-03T07:10:34.985Z</time></trkpt><trkpt lat="44.26146218332993" lon="11.334327817237384"><ele>704.25</ele><time>2026-05-03T07:10:35.985Z</time></trkpt><trkpt lat="44.26143382708814" lon="11.334518427637827"><ele>706.5</ele><time>2026-05-03T07:10:36.985Z</time></trkpt><trkpt lat="44.26141467723051" lon="11.334686399912718"><ele>708.75</ele><time>2026-05-03T07:10:37.985Z</time></trkpt><trkpt lat="44.261425918433766" lon="11.33485480549518"><ele>711.0</ele><time>2026-05-03T07:10:38.985Z</time></trkpt><trkpt lat="44.26146763536629" lon="11.335003538186314"><ele>708.8</ele><time>2026-05-03T07:10:39.985Z</time></trkpt><trkpt lat="44.26153603733972" lon="11.33512336903247"><ele>706.5999999999999</ele><time>2026-05-03T07:10:40.985Z</time></trkpt><trkpt lat="44.26161077293691" lon="11.33524171548676"><ele>704.4</ele><time>2026-05-03T07:10:41.985Z</time></trkpt><trkpt lat="44.26168391356654" lon="11.335353655160821"><ele>702.2</ele><time>2026-05-03T07:10:42.985Z</time></trkpt><trkpt lat="44.26174987334675" lon="11.335487650191915"><ele>700.0</ele><time>2026-05-03T07:10:43.985Z</time></trkpt><trkpt lat="44.2618064279578" lon="11.335635116469666"><ele>700.0</ele><time>2026-05-03T07:10:44.985Z</time></trkpt><trkpt lat="44.261849853188345" lon="11.33578544467952"><ele>700.0</ele><time>2026-05-03T07:10:45.985Z</time></trkpt><trkpt lat="44.261878253971624" lon="11.33595883167181"><ele>700.0</ele><time>2026-05-03T07:10:46.985Z</time></trkpt><trkpt lat="44.26188862332543" lon="11.336127761732435"><ele>700.0</ele><time>2026-05-03T07:10:47.985Z</time></trkpt><trkpt lat="44.26187312654908" lon="11.336315208481164"><ele>699.25</ele><time>2026-05-03T07:10:48.985Z</time></trkpt><trkpt lat="44.26181918006889" lon="11.336507072666002"><ele>698.5</ele><time>2026-05-03T07:10:49.985Z</time></trkpt><trkpt lat="44.26176303422392" lon="11.33670106211213"><ele>697.75</ele><time>2026-05-03T07:10:50.985Z</time></trkpt><trkpt lat="44.261699062272704" lon="11.336880950930146"><ele>697.0</ele><time>2026-05-03T07:10:51.985Z</time></trkpt><trkpt lat="44.261633205653624" lon="11.33705665964896"><ele>695.5</ele><time>2026-05-03T07:10:52.985Z</time></trkpt><trkpt lat="44.261585726537994" lon="11.337219419270761"><ele>694.0</ele><time>2026-05-03T07:10:53.985Z</time></trkpt><trkpt lat="44.26155748561612" lon="11.337389992408875"><ele>692.5</ele><time>2026-05-03T07:10:54.985Z</time></trkpt><trkpt lat="44.26156088881847" lon="11.337565304542704"><ele>691.0</ele><time>2026-05-03T07:10:55.985Z</time></trkpt><trkpt lat="44.26154648803816" lon="11.337722946449379"><ele>691.0</ele><time>2026-05-03T07:10:56.985Z</time></trkpt><trkpt lat="44.261580485897895" lon="11.337886616051595"><ele>691.0</ele><time>2026-05-03T07:10:57.985Z</time></trkpt><trkpt lat="44.261606720747196" lon="11.338053833120894"><ele>691.0</ele><time>2026-05-03T07:10:58.985Z</time></trkpt><trkpt lat="44.26163950393195" lon="11.33821019029631"><ele>691.0</ele><time>2026-05-03T07:10:59.985Z</time></trkpt><trkpt lat="44.2616627245375" lon="11.338373873271859"><ele>690.0</ele><time>2026-05-03T07:11:00.985Z</time></trkpt><trkpt lat="44.261705637125075" lon="11.338531292354288"><ele>689.0</ele><time>2026-05-03T07:11:01.985Z</time></trkpt><trkpt lat="44.2617550630464" lon="11.338667879025632"><ele>688.0</ele><time>2026-05-03T07:11:02.985Z</time></trkpt><trkpt lat="44.26181094521474" lon="11.338808368513922"><ele>687.0</ele><time>2026-05-03T07:11:03.985Z</time></trkpt><trkpt lat="44.26186997243888" lon="11.33896022077148"><ele>683.75</ele><time>2026-05-03T07:11:04.985Z</time></trkpt><trkpt lat="44.26193296137403" lon="11.339121333737785"><ele>680.5</ele><time>2026-05-03T07:11:05.985Z</time></trkpt><trkpt lat="44.261995542038285" lon="11.339280348389156"><ele>677.25</ele><time>2026-05-03T07:11:06.985Z</time></trkpt><trkpt lat="44.26206772570441" lon="11.33946258343635"><ele>674.0</ele><time>2026-05-03T07:11:07.985Z</time></trkpt><trkpt lat="44.2621436843018" lon="11.339640946333951"><ele>676.25</ele><time>2026-05-03T07:11:08.985Z</time></trkpt><trkpt lat="44.262223967380436" lon="11.339807240978168"><ele>678.5</ele><time>2026-05-03T07:11:09.985Z</time></trkpt><trkpt lat="44.26229349665491" lon="11.339957816513632"><ele>680.75</ele><time>2026-05-03T07:11:10.985Z</time></trkpt><trkpt lat="44.26235348877386" lon="11.340103513656572"><ele>683.0</ele><time>2026-05-03T07:11:11.985Z</time></trkpt><trkpt lat="44.26241419071143" lon="11.340267573929536"><ele>683.0</ele><time>2026-05-03T07:11:12.985Z</time></trkpt><trkpt lat="44.26246190087335" lon="11.340419369596296"><ele>683.0</ele><time>2026-05-03T07:11:13.985Z</time></trkpt><trkpt lat="44.26250147994737" lon="11.340591288470641"><ele>683.0</ele><time>2026-05-03T07:11:14.985Z</time></trkpt><trkpt lat="44.262536912105354" lon="11.340777841743668"><ele>683.0</ele><time>2026-05-03T07:11:15.985Z</time></trkpt><trkpt lat="44.2625945577883" lon="11.340975119107851"><ele>681.75</ele><time>2026-05-03T07:11:16.985Z</time></trkpt><trkpt lat="44.262699801661086" lon="11.34115927918727"><ele>680.5</ele><time>2026-05-03T07:11:17.985Z</time></trkpt><trkpt lat="44.2627925346448" lon="11.341294234560083"><ele>679.25</ele><time>2026-05-03T07:11:18.985Z</time></trkpt><trkpt lat="44.26287817540577" lon="11.34141429336187"><ele>678.0</ele><time>2026-05-03T07:11:19.985Z</time></trkpt><trkpt lat="44.262967492848624" lon="11.341536484633119"><ele>676.0</ele><time>2026-05-03T07:11:20.985Z</time></trkpt><trkpt lat="44.263058407549956" lon="11.341660309616207"><ele>674.0</ele><time>2026-05-03T07:11:21.985Z</time></trkpt><trkpt lat="44.26314454377538" lon="11.341780742392451"><ele>672.0</ele><time>2026-05-03T07:11:22.985Z</time></trkpt><trkpt lat="44.26322901705577" lon="11.341904784730993"><ele>670.0</ele><time>2026-05-03T07:11:23.985Z</time></trkpt><trkpt lat="44.26331075530793" lon="11.342044301685998"><ele>670.0</ele><time>2026-05-03T07:11:24.985Z</time></trkpt><trkpt lat="44.26337508237509" lon="11.342194479103393"><ele>670.0</ele><time>2026-05-03T07:11:25.985Z</time></trkpt><trkpt lat="44.263409509449964" lon="11.342359999515631"><ele>670.0</ele><time>2026-05-03T07:11:26.985Z</time></trkpt><trkpt lat="44.26344857817071" lon="11.34252980324683"><ele>670.0</ele><time>2026-05-03T07:11:27.985Z</time></trkpt><trkpt lat="44.26345391740606" lon="11.342707990495418"><ele>669.0</ele><time>2026-05-03T07:11:28.985Z</time></trkpt><trkpt lat="44.263455414350446" lon="11.342892068206485"><ele>668.0</ele><time>2026-05-03T07:11:29.985Z</time></trkpt><trkpt lat="44.26346158800417" lon="11.34307591248726"><ele>667.0</ele><time>2026-05-03T07:11:30.985Z</time></trkpt><trkpt lat="44.263483825496344" lon="11.343252070064967"><ele>666.0</ele><time>2026-05-03T07:11:31.985Z</time></trkpt><trkpt lat="44.26352170187029" lon="11.34341991998725"><ele>666.0</ele><time>2026-05-03T07:11:32.985Z</time></trkpt><trkpt lat="44.263575518239946" lon="11.343584673722921"><ele>666.0</ele><time>2026-05-03T07:11:33.985Z</time></trkpt><trkpt lat="44.26362356131741" lon="11.343754393424415"><ele>666.0</ele><time>2026-05-03T07:11:34.985Z</time></trkpt><trkpt lat="44.26365704804589" lon="11.34393908368005"><ele>666.0</ele><time>2026-05-03T07:11:35.985Z</time></trkpt><trkpt lat="44.263662858403436" lon="11.344138681433895"><ele>664.75</ele><time>2026-05-03T07:11:36.985Z</time></trkpt><trkpt lat="44.263664188824" lon="11.344338391641392"><ele>663.5</ele><time>2026-05-03T07:11:37.985Z</time></trkpt><trkpt lat="44.263681079936575" lon="11.344526324461457"><ele>662.25</ele><time>2026-05-03T07:11:38.985Z</time></trkpt><trkpt lat="44.26372263315245" lon="11.344700819115136"><ele>661.0</ele><time>2026-05-03T07:11:39.985Z</time></trkpt><trkpt lat="44.263778184894434" lon="11.34486803519947"><ele>658.25</ele><time>2026-05-03T07:11:40.985Z</time></trkpt><trkpt lat="44.263846328424826" lon="11.345022260158695"><ele>655.5</ele><time>2026-05-03T07:11:41.985Z</time></trkpt><trkpt lat="44.26390640951276" lon="11.345188346172037"><ele>652.75</ele><time>2026-05-03T07:11:42.985Z</time></trkpt><trkpt lat="44.26394237009035" lon="11.345381446434548"><ele>650.0</ele><time>2026-05-03T07:11:43.985Z</time></trkpt><trkpt lat="44.26396540713296" lon="11.345594272552882"><ele>649.3333333333333</ele><time>2026-05-03T07:11:44.985Z</time></trkpt><trkpt lat="44.263979514327325" lon="11.345809045752667"><ele>648.6666666666666</ele><time>2026-05-03T07:11:45.985Z</time></trkpt><trkpt lat="44.26398376173974" lon="11.346022021140724"><ele>648.0</ele><time>2026-05-03T07:11:46.985Z</time></trkpt><trkpt lat="44.26398400482727" lon="11.3462361510838"><ele>647.25</ele><time>2026-05-03T07:11:47.985Z</time></trkpt><trkpt lat="44.263984789379755" lon="11.346444825034412"><ele>646.5</ele><time>2026-05-03T07:11:48.985Z</time></trkpt><trkpt lat="44.26398084815047" lon="11.34664614697702"><ele>645.75</ele><time>2026-05-03T07:11:49.985Z</time></trkpt><trkpt lat="44.263978777565704" lon="11.346838167370334"><ele>645.0</ele><time>2026-05-03T07:11:50.985Z</time></trkpt><trkpt lat="44.26397312320115" lon="11.347021523790087"><ele>645.0</ele><time>2026-05-03T07:11:51.985Z</time></trkpt><trkpt lat="44.263950940046676" lon="11.347198086891321"><ele>645.0</ele><time>2026-05-03T07:11:52.985Z</time></trkpt><trkpt lat="44.26394894510379" lon="11.347370228959313"><ele>645.0</ele><time>2026-05-03T07:11:53.985Z</time></trkpt><trkpt lat="44.26396481580403" lon="11.347542538396219"><ele>645.0</ele><time>2026-05-03T07:11:54.985Z</time></trkpt><trkpt lat="44.264021127285204" lon="11.347704255654484"><ele>644.75</ele><time>2026-05-03T07:11:55.985Z</time></trkpt><trkpt lat="44.2640709997602" lon="11.34785414061347"><ele>644.5</ele><time>2026-05-03T07:11:56.985Z</time></trkpt><trkpt lat="44.26412595519912" lon="11.348014127674276"><ele>644.25</ele><time>2026-05-03T07:11:57.985Z</time></trkpt><trkpt lat="44.2641857846787" lon="11.348169850739039"><ele>644.0</ele><time>2026-05-03T07:11:58.985Z</time></trkpt><trkpt lat="44.26424390508432" lon="11.34832091213036"><ele>643.0</ele><time>2026-05-03T07:11:59.985Z</time></trkpt><trkpt lat="44.26430292152662" lon="11.348466348238937"><ele>642.0</ele><time>2026-05-03T07:12:00.985Z</time></trkpt><trkpt lat="44.26435928328358" lon="11.348614937369728"><ele>641.0</ele><time>2026-05-03T07:12:01.985Z</time></trkpt><trkpt lat="44.26441969130516" lon="11.348749820296451"><ele>640.0</ele><time>2026-05-03T07:12:02.985Z</time></trkpt><trkpt lat="44.264473225947285" lon="11.34889118800311"><ele>640.0</ele><time>2026-05-03T07:12:03.984Z</time></trkpt><trkpt lat="44.26453888320308" lon="11.349016100881906"><ele>640.0</ele><time>2026-05-03T07:12:04.984Z</time></trkpt><trkpt lat="44.26461027076893" lon="11.349128407103859"><ele>640.0</ele><time>2026-05-03T07:12:05.984Z</time></trkpt><trkpt lat="44.26468847187386" lon="11.349237513503352"><ele>640.0</ele><time>2026-05-03T07:12:06.984Z</time></trkpt><trkpt lat="44.26476712882021" lon="11.349349062986946"><ele>640.0</ele><time>2026-05-03T07:12:07.983Z</time></trkpt><trkpt lat="44.26484518802664" lon="11.349459961789542"><ele>640.6</ele><time>2026-05-03T07:12:08.983Z</time></trkpt><trkpt lat="44.26492394950825" lon="11.349568937680376"><ele>641.2</ele><time>2026-05-03T07:12:09.984Z</time></trkpt><trkpt lat="44.26500128213919" lon="11.34967279610385"><ele>641.8</ele><time>2026-05-03T07:12:10.984Z</time></trkpt><trkpt lat="44.265080673842064" lon="11.349774586547221"><ele>642.4</ele><time>2026-05-03T07:12:11.984Z</time></trkpt><trkpt lat="44.26515185733179" lon="11.349893633254393"><ele>643.0</ele><time>2026-05-03T07:12:12.984Z</time></trkpt><trkpt lat="44.265209136470894" lon="11.350018575191129"><ele>642.5999999999999</ele><time>2026-05-03T07:12:13.984Z</time></trkpt><trkpt lat="44.26527023345641" lon="11.350144026600654"><ele>642.1999999999999</ele><time>2026-05-03T07:12:14.984Z</time></trkpt><trkpt lat="44.265329294213096" lon="11.350272778264724"><ele>641.8</ele><time>2026-05-03T07:12:15.983Z</time></trkpt><trkpt lat="44.26538301355061" lon="11.350411931687326"><ele>641.4</ele><time>2026-05-03T07:12:16.983Z</time></trkpt><trkpt lat="44.26543236936603" lon="11.35055661393125"><ele>641.0</ele><time>2026-05-03T07:12:17.983Z</time></trkpt><trkpt lat="44.265461298164716" lon="11.35070727464284"><ele>641.0</ele><time>2026-05-03T07:12:18.983Z</time></trkpt><trkpt lat="44.265510594373474" lon="11.350840947957193"><ele>641.0</ele><time>2026-05-03T07:12:19.983Z</time></trkpt><trkpt lat="44.265553733890165" lon="11.350991089791204"><ele>641.0</ele><time>2026-05-03T07:12:20.983Z</time></trkpt><trkpt lat="44.26558801753911" lon="11.351139717052991"><ele>641.0</ele><time>2026-05-03T07:12:21.983Z</time></trkpt><trkpt lat="44.26561917106579" lon="11.351280355194618"><ele>641.0</ele><time>2026-05-03T07:12:22.983Z</time></trkpt><trkpt lat="44.26566103754014" lon="11.351411099012543"><ele>640.1999999999999</ele><time>2026-05-03T07:12:23.983Z</time></trkpt><trkpt lat="44.265726068505394" lon="11.351517011642011"><ele>639.4</ele><time>2026-05-03T07:12:24.983Z</time></trkpt><trkpt lat="44.26579590549003" lon="11.351604700109942"><ele>638.6</ele><time>2026-05-03T07:12:25.983Z</time></trkpt><trkpt lat="44.26588094488909" lon="11.351672473518938"><ele>637.8</ele><time>2026-05-03T07:12:26.983Z</time></trkpt><trkpt lat="44.265966747041716" lon="11.351720117954784"><ele>637.0</ele><time>2026-05-03T07:12:27.983Z</time></trkpt><trkpt lat="44.26605563424631" lon="11.351777528671384"><ele>637.0</ele><time>2026-05-03T07:12:28.983Z</time></trkpt><trkpt lat="44.266163518991476" lon="11.351811657406877"><ele>637.0</ele><time>2026-05-03T07:12:29.983Z</time></trkpt><trkpt lat="44.26627484607166" lon="11.351837009555853"><ele>637.0</ele><time>2026-05-03T07:12:30.983Z</time></trkpt><trkpt lat="44.26639718217745" lon="11.351859563640641"><ele>637.0</ele><time>2026-05-03T07:12:31.983Z</time></trkpt><trkpt lat="44.266526546623574" lon="11.351880979915205"><ele>636.5</ele><time>2026-05-03T07:12:32.983Z</time></trkpt><trkpt lat="44.26666946724215" lon="11.351902916585159"><ele>636.0</ele><time>2026-05-03T07:12:33.983Z</time></trkpt><trkpt lat="44.26681745363053" lon="11.351925619055871"><ele>635.5</ele><time>2026-05-03T07:12:34.983Z</time></trkpt><trkpt lat="44.26696539044947" lon="11.351935542829645"><ele>635.0</ele><time>2026-05-03T07:12:35.983Z</time></trkpt><trkpt lat="44.26710770705632" lon="11.351964208950024"><ele>635.0</ele><time>2026-05-03T07:12:36.983Z</time></trkpt><trkpt lat="44.26724681956571" lon="11.351996295849078"><ele>635.0</ele><time>2026-05-03T07:12:37.983Z</time></trkpt><trkpt lat="44.26738312553607" lon="11.352026105485955"><ele>635.0</ele><time>2026-05-03T07:12:38.983Z</time></trkpt><trkpt lat="44.26751951770905" lon="11.352052963076508"><ele>635.0</ele><time>2026-05-03T07:12:39.983Z</time></trkpt><trkpt lat="44.26765098290408" lon="11.352079619475148"><ele>634.0</ele><time>2026-05-03T07:12:40.983Z</time></trkpt><trkpt lat="44.267781274911044" lon="11.352107501162948"><ele>633.0</ele><time>2026-05-03T07:12:41.983Z</time></trkpt><trkpt lat="44.26790856437544" lon="11.352126519336595"><ele>632.0</ele><time>2026-05-03T07:12:42.983Z</time></trkpt><trkpt lat="44.26803746991539" lon="11.35214785104507"><ele>631.0</ele><time>2026-05-03T07:12:43.983Z</time></trkpt><trkpt lat="44.26815626841054" lon="11.352173117246076"><ele>631.0</ele><time>2026-05-03T07:12:44.983Z</time></trkpt><trkpt lat="44.268274496793175" lon="11.352197678342526"><ele>631.0</ele><time>2026-05-03T07:12:45.983Z</time></trkpt><trkpt lat="44.26839523601233" lon="11.352234661221907"><ele>631.0</ele><time>2026-05-03T07:12:46.983Z</time></trkpt><trkpt lat="44.268511390009195" lon="11.352277299304838"><ele>631.0</ele><time>2026-05-03T07:12:47.983Z</time></trkpt><trkpt lat="44.268626304999174" lon="11.352325329011896"><ele>630.2</ele><time>2026-05-03T07:12:48.983Z</time></trkpt><trkpt lat="44.26874270129514" lon="11.352366387196044"><ele>629.4000000000001</ele><time>2026-05-03T07:12:49.983Z</time></trkpt><trkpt lat="44.26884717535744" lon="11.352425748585928"><ele>628.6</ele><time>2026-05-03T07:12:50.983Z</time></trkpt><trkpt lat="44.26893486284642" lon="11.352496187937852"><ele>627.8000000000001</ele><time>2026-05-03T07:12:51.983Z</time></trkpt><trkpt lat="44.26901665791928" lon="11.352566274135443"><ele>627.0</ele><time>2026-05-03T07:12:52.983Z</time></trkpt><trkpt lat="44.26906180589399" lon="11.352676219967233"><ele>627.0</ele><time>2026-05-03T07:12:53.983Z</time></trkpt><trkpt lat="44.26904232003179" lon="11.352840269738461"><ele>627.0</ele><time>2026-05-03T07:12:54.983Z</time></trkpt><trkpt lat="44.26897455991994" lon="11.352931738718517"><ele>627.0</ele><time>2026-05-03T07:12:55.983Z</time></trkpt><trkpt lat="44.268926014081075" lon="11.353016702878957"><ele>627.0</ele><time>2026-05-03T07:12:56.983Z</time></trkpt><trkpt lat="44.268874973400806" lon="11.353104612912643"><ele>627.0</ele><time>2026-05-03T07:12:57.983Z</time></trkpt><trkpt lat="44.268810201467154" lon="11.353217622717102"><ele>623.5</ele><time>2026-05-03T07:12:58.983Z</time></trkpt><trkpt lat="44.268742015494475" lon="11.353336406935924"><ele>620.0</ele><time>2026-05-03T07:12:59.983Z</time></trkpt><trkpt lat="44.26866807531653" lon="11.353465142299362"><ele>616.5</ele><time>2026-05-03T07:13:00.983Z</time></trkpt><trkpt lat="44.268586683742015" lon="11.35360685106926"><ele>613.0</ele><time>2026-05-03T07:13:01.983Z</time></trkpt><trkpt lat="44.26850164495204" lon="11.353754909906362"><ele>610.5</ele><time>2026-05-03T07:13:02.983Z</time></trkpt><trkpt lat="44.26843024072995" lon="11.35391633898992"><ele>608.0</ele><time>2026-05-03T07:13:03.983Z</time></trkpt><trkpt lat="44.26834533808626" lon="11.354060236102788"><ele>605.5</ele><time>2026-05-03T07:13:04.983Z</time></trkpt><trkpt lat="44.268259902313346" lon="11.354206343299024"><ele>603.0</ele><time>2026-05-03T07:13:05.983Z</time></trkpt><trkpt lat="44.26820965568628" lon="11.35430327284245"><ele>603.0</ele><time>2026-05-03T07:13:06.983Z</time></trkpt><trkpt lat="44.268120984358916" lon="11.35446223533879"><ele>603.0</ele><time>2026-05-03T07:13:07.983Z</time></trkpt><trkpt lat="44.26803520440674" lon="11.354612417516243"><ele>603.0</ele><time>2026-05-03T07:13:08.983Z</time></trkpt><trkpt lat="44.26795437014825" lon="11.354758296713367"><ele>603.0</ele><time>2026-05-03T07:13:09.983Z</time></trkpt><trkpt lat="44.2678764958274" lon="11.354895627564364"><ele>603.75</ele><time>2026-05-03T07:13:10.983Z</time></trkpt><trkpt lat="44.267786318044365" lon="11.35500912817704"><ele>604.5</ele><time>2026-05-03T07:13:11.983Z</time></trkpt><trkpt lat="44.26770572125152" lon="11.355139871299622"><ele>605.25</ele><time>2026-05-03T07:13:12.983Z</time></trkpt><trkpt lat="44.267607426590594" lon="11.355249480058811"><ele>606.0</ele><time>2026-05-03T07:13:13.983Z</time></trkpt><trkpt lat="44.267504795056354" lon="11.355357186848861"><ele>606.0</ele><time>2026-05-03T07:13:14.983Z</time></trkpt><trkpt lat="44.2673982745899" lon="11.355459893858152"><ele>606.0</ele><time>2026-05-03T07:13:15.983Z</time></trkpt><trkpt lat="44.26728836942515" lon="11.355560971477136"><ele>606.0</ele><time>2026-05-03T07:13:16.983Z</time></trkpt><trkpt lat="44.2671787900631" lon="11.355665966074003"><ele>606.0</ele><time>2026-05-03T07:13:17.983Z</time></trkpt><trkpt lat="44.26706862406447" lon="11.355772444300861"><ele>604.5</ele><time>2026-05-03T07:13:18.983Z</time></trkpt><trkpt lat="44.266956812912895" lon="11.355880596059423"><ele>603.0</ele><time>2026-05-03T07:13:19.983Z</time></trkpt><trkpt lat="44.266847989853794" lon="11.355983375680346"><ele>601.5</ele><time>2026-05-03T07:13:20.983Z</time></trkpt><trkpt lat="44.26674065544269" lon="11.356085250095145"><ele>600.0</ele><time>2026-05-03T07:13:21.983Z</time></trkpt><trkpt lat="44.2666412186441" lon="11.356193455832033"><ele>600.0</ele><time>2026-05-03T07:13:22.983Z</time></trkpt><trkpt lat="44.26656313124685" lon="11.356320131832634"><ele>600.0</ele><time>2026-05-03T07:13:23.983Z</time></trkpt><trkpt lat="44.26651389387931" lon="11.356466456740495"><ele>600.0</ele><time>2026-05-03T07:13:24.983Z</time></trkpt><trkpt lat="44.266488408267776" lon="11.35662672705882"><ele>600.0</ele><time>2026-05-03T07:13:25.983Z</time></trkpt><trkpt lat="44.26647728950162" lon="11.356784820917186"><ele>598.75</ele><time>2026-05-03T07:13:26.983Z</time></trkpt><trkpt lat="44.26646535495249" lon="11.356954708016026"><ele>597.5</ele><time>2026-05-03T07:13:27.983Z</time></trkpt><trkpt lat="44.26645225805556" lon="11.357119264825869"><ele>596.25</ele><time>2026-05-03T07:13:28.983Z</time></trkpt><trkpt lat="44.266465766010626" lon="11.357287340816248"><ele>595.0</ele><time>2026-05-03T07:13:29.983Z</time></trkpt><trkpt lat="44.266444244173556" lon="11.357447250202481"><ele>595.0</ele><time>2026-05-03T07:13:30.983Z</time></trkpt><trkpt lat="44.266428050444965" lon="11.35760977382089"><ele>595.0</ele><time>2026-05-03T07:13:31.983Z</time></trkpt><trkpt lat="44.26641288868951" lon="11.357775048479995"><ele>595.0</ele><time>2026-05-03T07:13:32.983Z</time></trkpt><trkpt lat="44.26639870195288" lon="11.357939417633032"><ele>595.0</ele><time>2026-05-03T07:13:33.983Z</time></trkpt><trkpt lat="44.266381327128464" lon="11.358097491805044"><ele>593.25</ele><time>2026-05-03T07:13:34.983Z</time></trkpt><trkpt lat="44.26634732067901" lon="11.358249200946368"><ele>591.5</ele><time>2026-05-03T07:13:35.983Z</time></trkpt><trkpt lat="44.266302910438576" lon="11.358391461891564"><ele>589.75</ele><time>2026-05-03T07:13:36.983Z</time></trkpt><trkpt lat="44.26624406817559" lon="11.358533930169003"><ele>588.0</ele><time>2026-05-03T07:13:37.983Z</time></trkpt><trkpt lat="44.266140372256395" lon="11.358622384843459"><ele>588.0</ele><time>2026-05-03T07:13:38.983Z</time></trkpt><trkpt lat="44.26604014242156" lon="11.358693119400137"><ele>588.0</ele><time>2026-05-03T07:13:39.983Z</time></trkpt><trkpt lat="44.265936952195425" lon="11.358795242031068"><ele>588.0</ele><time>2026-05-03T07:13:40.983Z</time></trkpt><trkpt lat="44.265816179089136" lon="11.358890623583026"><ele>588.0</ele><time>2026-05-03T07:13:41.983Z</time></trkpt><trkpt lat="44.265700736108656" lon="11.358998604255715"><ele>586.75</ele><time>2026-05-03T07:13:42.983Z</time></trkpt><trkpt lat="44.26558939737009" lon="11.359107878133308"><ele>585.5</ele><time>2026-05-03T07:13:43.983Z</time></trkpt><trkpt lat="44.26548646510971" lon="11.359223443444096"><ele>584.25</ele><time>2026-05-03T07:13:44.983Z</time></trkpt><trkpt lat="44.26538728822278" lon="11.359304294050467"><ele>583.0</ele><time>2026-05-03T07:13:45.983Z</time></trkpt><trkpt lat="44.265303691183185" lon="11.359391078271917"><ele>583.0</ele><time>2026-05-03T07:13:46.983Z</time></trkpt><trkpt lat="44.26520914319849" lon="11.359422283264056"><ele>583.0</ele><time>2026-05-03T07:13:47.983Z</time></trkpt><trkpt lat="44.265106589409584" lon="11.359415228894134"><ele>583.0</ele><time>2026-05-03T07:13:48.983Z</time></trkpt><trkpt lat="44.26499913231034" lon="11.359440279429542"><ele>583.0</ele><time>2026-05-03T07:13:49.983Z</time></trkpt><trkpt lat="44.26488696550468" lon="11.359433264986402"><ele>583.0</ele><time>2026-05-03T07:13:50.983Z</time></trkpt><trkpt lat="44.26477391863005" lon="11.359422755265532"><ele>581.75</ele><time>2026-05-03T07:13:51.983Z</time></trkpt><trkpt lat="44.26466247450729" lon="11.359419980367017"><ele>580.5</ele><time>2026-05-03T07:13:52.983Z</time></trkpt><trkpt lat="44.26454859413261" lon="11.359424695933507"><ele>579.25</ele><time>2026-05-03T07:13:53.983Z</time></trkpt><trkpt lat="44.26443457173224" lon="11.359423991663489"><ele>578.0</ele><time>2026-05-03T07:13:54.983Z</time></trkpt><trkpt lat="44.26431809789115" lon="11.359404686086132"><ele>578.0</ele><time>2026-05-03T07:13:55.983Z</time></trkpt><trkpt lat="44.264199042540675" lon="11.359423347253559"><ele>578.0</ele><time>2026-05-03T07:13:56.983Z</time></trkpt><trkpt lat="44.26408350742807" lon="11.359467948110575"><ele>578.0</ele><time>2026-05-03T07:13:57.983Z</time></trkpt><trkpt lat="44.26398127248717" lon="11.359539995138913"><ele>578.0</ele><time>2026-05-03T07:13:58.983Z</time></trkpt><trkpt lat="44.2638987041764" lon="11.359643026378386"><ele>576.0</ele><time>2026-05-03T07:13:59.983Z</time></trkpt><trkpt lat="44.26385814191098" lon="11.3597794212391"><ele>574.0</ele><time>2026-05-03T07:14:00.983Z</time></trkpt><trkpt lat="44.263874848755904" lon="11.359939775217645"><ele>572.0</ele><time>2026-05-03T07:14:01.983Z</time></trkpt><trkpt lat="44.263934214147845" lon="11.360091956613301"><ele>570.0</ele><time>2026-05-03T07:14:02.983Z</time></trkpt><trkpt lat="44.26399416074476" lon="11.360228726745456"><ele>570.0</ele><time>2026-05-03T07:14:03.983Z</time></trkpt><trkpt lat="44.26399583451263" lon="11.360381787413848"><ele>570.0</ele><time>2026-05-03T07:14:04.983Z</time></trkpt><trkpt lat="44.26396754909341" lon="11.360539003010656"><ele>570.0</ele><time>2026-05-03T07:14:05.983Z</time></trkpt><trkpt lat="44.263934323800925" lon="11.360701724997478"><ele>570.0</ele><time>2026-05-03T07:14:06.983Z</time></trkpt><trkpt lat="44.263876647439105" lon="11.360856845076688"><ele>566.5</ele><time>2026-05-03T07:14:07.983Z</time></trkpt><trkpt lat="44.26381915110115" lon="11.361007099423366"><ele>563.0</ele><time>2026-05-03T07:14:08.983Z</time></trkpt><trkpt lat="44.26375170869051" lon="11.36114371056821"><ele>559.5</ele><time>2026-05-03T07:14:09.983Z</time></trkpt><trkpt lat="44.263684962931755" lon="11.361283544594897"><ele>556.0</ele><time>2026-05-03T07:14:10.982Z</time></trkpt><trkpt lat="44.263625943069265" lon="11.361435429105986"><ele>555.0</ele><time>2026-05-03T07:14:11.982Z</time></trkpt><trkpt lat="44.26359425342888" lon="11.361601234973403"><ele>554.0</ele><time>2026-05-03T07:14:12.983Z</time></trkpt><trkpt lat="44.263572096529124" lon="11.361766763972788"><ele>553.0</ele><time>2026-05-03T07:14:13.983Z</time></trkpt><trkpt lat="44.26354991733563" lon="11.361929384461343"><ele>552.0</ele><time>2026-05-03T07:14:14.983Z</time></trkpt><trkpt lat="44.26352944279068" lon="11.362098635322075"><ele>550.5</ele><time>2026-05-03T07:14:15.982Z</time></trkpt><trkpt lat="44.26350649843659" lon="11.3622715196458"><ele>549.0</ele><time>2026-05-03T07:14:16.982Z</time></trkpt><trkpt lat="44.263488569947185" lon="11.362441641946026"><ele>547.5</ele><time>2026-05-03T07:14:17.982Z</time></trkpt><trkpt lat="44.263463888224926" lon="11.362612001202516"><ele>546.0</ele><time>2026-05-03T07:14:18.983Z</time></trkpt><trkpt lat="44.26343520594237" lon="11.362779442145097"><ele>546.0</ele><time>2026-05-03T07:14:19.983Z</time></trkpt><trkpt lat="44.26340789677801" lon="11.362953082412938"><ele>546.0</ele><time>2026-05-03T07:14:20.983Z</time></trkpt><trkpt lat="44.263381809470836" lon="11.363126348322144"><ele>546.0</ele><time>2026-05-03T07:14:21.982Z</time></trkpt><trkpt lat="44.26335234335534" lon="11.363294971958174"><ele>546.0</ele><time>2026-05-03T07:14:22.983Z</time></trkpt><trkpt lat="44.263316634857624" lon="11.363465639519951"><ele>544.25</ele><time>2026-05-03T07:14:23.983Z</time></trkpt><trkpt lat="44.263274832929625" lon="11.363624506817237"><ele>542.5</ele><time>2026-05-03T07:14:24.983Z</time></trkpt><trkpt lat="44.26322387774945" lon="11.363788352136794"><ele>540.75</ele><time>2026-05-03T07:14:25.983Z</time></trkpt><trkpt lat="44.26318102781201" lon="11.36395772400959"><ele>539.0</ele><time>2026-05-03T07:14:26.983Z</time></trkpt><trkpt lat="44.263147932758216" lon="11.364131215124075"><ele>536.75</ele><time>2026-05-03T07:14:27.983Z</time></trkpt><trkpt lat="44.26313128080498" lon="11.364284806744557"><ele>534.5</ele><time>2026-05-03T07:14:28.983Z</time></trkpt><trkpt lat="44.26313651232833" lon="11.36443964162122"><ele>532.25</ele><time>2026-05-03T07:14:29.983Z</time></trkpt><trkpt lat="44.26316725523561" lon="11.364602260585253"><ele>530.0</ele><time>2026-05-03T07:14:30.983Z</time></trkpt><trkpt lat="44.26323601622326" lon="11.36474470118442"><ele>527.0</ele><time>2026-05-03T07:14:31.983Z</time></trkpt><trkpt lat="44.26334157833237" lon="11.364842269020311"><ele>524.0</ele><time>2026-05-03T07:14:32.983Z</time></trkpt><trkpt lat="44.26344628217794" lon="11.364924032419736"><ele>521.0</ele><time>2026-05-03T07:14:33.983Z</time></trkpt><trkpt lat="44.263547428627334" lon="11.365010473018977"><ele>518.0</ele><time>2026-05-03T07:14:34.983Z</time></trkpt><trkpt lat="44.26364063455407" lon="11.365116494332439"><ele>518.0</ele><time>2026-05-03T07:14:35.983Z</time></trkpt><trkpt lat="44.26372388715527" lon="11.365235027007833"><ele>518.0</ele><time>2026-05-03T07:14:36.983Z</time></trkpt><trkpt lat="44.263800833132045" lon="11.36535548671415"><ele>518.0</ele><time>2026-05-03T07:14:37.983Z</time></trkpt><trkpt lat="44.263877601220344" lon="11.365488681843317"><ele>518.0</ele><time>2026-05-03T07:14:38.983Z</time></trkpt><trkpt lat="44.2639556353294" lon="11.365614266721504"><ele>518.8</ele><time>2026-05-03T07:14:39.983Z</time></trkpt><trkpt lat="44.2640248747761" lon="11.365741074171465"><ele>519.5999999999999</ele><time>2026-05-03T07:14:40.983Z</time></trkpt><trkpt lat="44.26409333252364" lon="11.365867516686546"><ele>520.4000000000001</ele><time>2026-05-03T07:14:41.983Z</time></trkpt><trkpt lat="44.26416053279828" lon="11.365979924898129"><ele>521.2</ele><time>2026-05-03T07:14:42.983Z</time></trkpt><trkpt lat="44.264223208403386" lon="11.36610567049013"><ele>522.0</ele><time>2026-05-03T07:14:43.983Z</time></trkpt><trkpt lat="44.26428283930956" lon="11.366220685494962"><ele>522.0</ele><time>2026-05-03T07:14:44.983Z</time></trkpt><trkpt lat="44.264323466003745" lon="11.366323300476527"><ele>522.0</ele><time>2026-05-03T07:14:45.983Z</time></trkpt><trkpt lat="44.26434452394008" lon="11.366409874051795"><ele>522.0</ele><time>2026-05-03T07:14:46.983Z</time></trkpt><trkpt lat="44.26432214908823" lon="11.366501494294644"><ele>522.0</ele><time>2026-05-03T07:14:47.983Z</time></trkpt><trkpt lat="44.26425006404026" lon="11.366555613706472"><ele>522.0</ele><time>2026-05-03T07:14:48.983Z</time></trkpt><trkpt lat="44.26417227366411" lon="11.36653248023008"><ele>522.0</ele><time>2026-05-03T07:14:49.983Z</time></trkpt><trkpt lat="44.26407551331881" lon="11.366441073173737"><ele>522.0</ele><time>2026-05-03T07:14:50.983Z</time></trkpt><trkpt lat="44.2639890561836" lon="11.36633519533975"><ele>522.0</ele><time>2026-05-03T07:14:51.983Z</time></trkpt><trkpt lat="44.26390595999095" lon="11.366261436428642"><ele>522.0</ele><time>2026-05-03T07:14:52.983Z</time></trkpt><trkpt lat="44.263828867823705" lon="11.366219844491457"><ele>522.0</ele><time>2026-05-03T07:14:53.983Z</time></trkpt><trkpt lat="44.26374219207391" lon="11.366203872927413"><ele>522.0</ele><time>2026-05-03T07:14:54.983Z</time></trkpt><trkpt lat="44.263656718239645" lon="11.366201674169371"><ele>519.8333333333334</ele><time>2026-05-03T07:14:55.983Z</time></trkpt><trkpt lat="44.26357960293628" lon="11.366208844926737"><ele>517.6666666666666</ele><time>2026-05-03T07:14:56.983Z</time></trkpt><trkpt lat="44.263493781121234" lon="11.366230894096734"><ele>515.5</ele><time>2026-05-03T07:14:57.983Z</time></trkpt><trkpt lat="44.26340167019262" lon="11.366289084594996"><ele>513.3333333333333</ele><time>2026-05-03T07:14:58.983Z</time></trkpt><trkpt lat="44.26331778008031" lon="11.366318556356836"><ele>511.16666666666663</ele><time>2026-05-03T07:14:59.983Z</time></trkpt><trkpt lat="44.2632285656535" lon="11.366350404777942"><ele>509.0</ele><time>2026-05-03T07:15:00.983Z</time></trkpt><trkpt lat="44.26313686448631" lon="11.366377521195766"><ele>506.79999999999995</ele><time>2026-05-03T07:15:01.983Z</time></trkpt><trkpt lat="44.26304719185041" lon="11.366385988247382"><ele>504.59999999999997</ele><time>2026-05-03T07:15:02.983Z</time></trkpt><trkpt lat="44.26295853544437" lon="11.366374671872558"><ele>502.4</ele><time>2026-05-03T07:15:03.983Z</time></trkpt><trkpt lat="44.262872071687745" lon="11.36633798775517"><ele>500.2</ele><time>2026-05-03T07:15:04.983Z</time></trkpt><trkpt lat="44.26278380511852" lon="11.366310287447432"><ele>498.0</ele><time>2026-05-03T07:15:05.983Z</time></trkpt><trkpt lat="44.26269174009982" lon="11.36627681565709"><ele>498.0</ele><time>2026-05-03T07:15:06.983Z</time></trkpt><trkpt lat="44.262602878499095" lon="11.366232561298714"><ele>497.99999999999994</ele><time>2026-05-03T07:15:07.983Z</time></trkpt><trkpt lat="44.26251342527312" lon="11.366186174176478"><ele>497.99999999999994</ele><time>2026-05-03T07:15:08.983Z</time></trkpt><trkpt lat="44.26243403958163" lon="11.366121107144657"><ele>498.0</ele><time>2026-05-03T07:15:09.983Z</time></trkpt><trkpt lat="44.26235374945711" lon="11.366052359753358"><ele>498.0</ele><time>2026-05-03T07:15:10.983Z</time></trkpt><trkpt lat="44.26227472406539" lon="11.365983307333265"><ele>496.59999999999997</ele><time>2026-05-03T07:15:11.983Z</time></trkpt><trkpt lat="44.26219510876264" lon="11.365918665314295"><ele>495.19999999999993</ele><time>2026-05-03T07:15:12.983Z</time></trkpt><trkpt lat="44.26211051019195" lon="11.365843433214621"><ele>493.8</ele><time>2026-05-03T07:15:13.983Z</time></trkpt><trkpt lat="44.26202535423874" lon="11.365785600584129"><ele>492.4</ele><time>2026-05-03T07:15:14.983Z</time></trkpt><trkpt lat="44.26192936482432" lon="11.365740649093631"><ele>491.0</ele><time>2026-05-03T07:15:15.983Z</time></trkpt><trkpt lat="44.26182623075759" lon="11.365783179449242"><ele>491.0</ele><time>2026-05-03T07:15:16.983Z</time></trkpt><trkpt lat="44.26173655564057" lon="11.36585987093531"><ele>491.0</ele><time>2026-05-03T07:15:17.983Z</time></trkpt><trkpt lat="44.26167069426762" lon="11.365963748752794"><ele>491.0</ele><time>2026-05-03T07:15:18.983Z</time></trkpt><trkpt lat="44.26160969167726" lon="11.366065654754577"><ele>491.0</ele><time>2026-05-03T07:15:19.983Z</time></trkpt><trkpt lat="44.26154558655564" lon="11.36616069611458"><ele>491.0</ele><time>2026-05-03T07:15:20.983Z</time></trkpt><trkpt lat="44.26147259198535" lon="11.366258161951349"><ele>492.0</ele><time>2026-05-03T07:15:21.983Z</time></trkpt><trkpt lat="44.261401085296285" lon="11.366354071125196"><ele>493.0</ele><time>2026-05-03T07:15:22.983Z</time></trkpt><trkpt lat="44.261331117741584" lon="11.366442548381048"><ele>494.0</ele><time>2026-05-03T07:15:23.983Z</time></trkpt><trkpt lat="44.261261648969835" lon="11.36653398319291"><ele>495.0</ele><time>2026-05-03T07:15:24.983Z</time></trkpt><trkpt lat="44.26118340994666" lon="11.366608467652362"><ele>496.0</ele><time>2026-05-03T07:15:25.983Z</time></trkpt><trkpt lat="44.26112014680742" lon="11.366691864428729"><ele>496.1666666666667</ele><time>2026-05-03T07:15:26.983Z</time></trkpt><trkpt lat="44.26105363329045" lon="11.366783598916369"><ele>496.33333333333337</ele><time>2026-05-03T07:15:27.983Z</time></trkpt><trkpt lat="44.260989114131604" lon="11.366869875043575"><ele>496.5</ele><time>2026-05-03T07:15:28.983Z</time></trkpt><trkpt lat="44.26092417782655" lon="11.366956161560777"><ele>496.66666666666663</ele><time>2026-05-03T07:15:29.983Z</time></trkpt><trkpt lat="44.260861225509444" lon="11.36704214342038"><ele>496.8333333333333</ele><time>2026-05-03T07:15:30.983Z</time></trkpt><trkpt lat="44.260802001053975" lon="11.367121361011728"><ele>497.0</ele><time>2026-05-03T07:15:31.983Z</time></trkpt><trkpt lat="44.26073693761326" lon="11.367213655752122"><ele>496.66666666666663</ele><time>2026-05-03T07:15:32.983Z</time></trkpt><trkpt lat="44.26067405126597" lon="11.367251505361544"><ele>496.3333333333333</ele><time>2026-05-03T07:15:33.983Z</time></trkpt><trkpt lat="44.260594218103904" lon="11.36728836437859"><ele>496.0</ele><time>2026-05-03T07:15:34.983Z</time></trkpt><trkpt lat="44.26051811590968" lon="11.367288458073057"><ele>495.66666666666663</ele><time>2026-05-03T07:15:35.983Z</time></trkpt><trkpt lat="44.26041781758327" lon="11.367259819828073"><ele>495.3333333333333</ele><time>2026-05-03T07:15:36.983Z</time></trkpt><trkpt lat="44.26031787249998" lon="11.36721980217738"><ele>495.0</ele><time>2026-05-03T07:15:37.983Z</time></trkpt><trkpt lat="44.260211108693795" lon="11.36718440072565"><ele>494.75</ele><time>2026-05-03T07:15:38.983Z</time></trkpt><trkpt lat="44.26010368630317" lon="11.36711773556586"><ele>494.5</ele><time>2026-05-03T07:15:39.983Z</time></trkpt><trkpt lat="44.2600001625374" lon="11.367059002733058"><ele>494.25</ele><time>2026-05-03T07:15:40.983Z</time></trkpt><trkpt lat="44.25989371206709" lon="11.366977458004849"><ele>494.0</ele><time>2026-05-03T07:15:41.983Z</time></trkpt><trkpt lat="44.259783496224294" lon="11.36692710718311"><ele>490.0</ele><time>2026-05-03T07:15:42.983Z</time></trkpt><trkpt lat="44.25967516779999" lon="11.366870304260395"><ele>486.0</ele><time>2026-05-03T07:15:43.983Z</time></trkpt><trkpt lat="44.259560529924734" lon="11.36683538227069"><ele>482.0</ele><time>2026-05-03T07:15:44.983Z</time></trkpt><trkpt lat="44.25944612130717" lon="11.366811532784162"><ele>478.0</ele><time>2026-05-03T07:15:45.983Z</time></trkpt><trkpt lat="44.25932419519215" lon="11.366793440970321"><ele>478.0</ele><time>2026-05-03T07:15:46.983Z</time></trkpt><trkpt lat="44.25921156832497" lon="11.366792126161062"><ele>478.0</ele><time>2026-05-03T07:15:47.983Z</time></trkpt><trkpt lat="44.259092233637226" lon="11.366782644080295"><ele>478.0</ele><time>2026-05-03T07:15:48.983Z</time></trkpt><trkpt lat="44.25897231297905" lon="11.366776142527986"><ele>478.0</ele><time>2026-05-03T07:15:49.983Z</time></trkpt><trkpt lat="44.25885600798769" lon="11.366779486396144"><ele>477.25</ele><time>2026-05-03T07:15:50.982Z</time></trkpt><trkpt lat="44.25873842833965" lon="11.366787263667657"><ele>476.5</ele><time>2026-05-03T07:15:51.982Z</time></trkpt><trkpt lat="44.25862144591801" lon="11.366795975123116"><ele>475.75</ele><time>2026-05-03T07:15:52.982Z</time></trkpt><trkpt lat="44.25850636615899" lon="11.366812610584184"><ele>475.0</ele><time>2026-05-03T07:15:53.982Z</time></trkpt><trkpt lat="44.25839054573454" lon="11.366835236934612"><ele>475.0</ele><time>2026-05-03T07:15:54.982Z</time></trkpt><trkpt lat="44.258273064221996" lon="11.366865007985064"><ele>475.0</ele><time>2026-05-03T07:15:55.982Z</time></trkpt><trkpt lat="44.258162638535495" lon="11.366903561363372"><ele>475.0</ele><time>2026-05-03T07:15:56.982Z</time></trkpt><trkpt lat="44.2580538498029" lon="11.366949139982067"><ele>475.0</ele><time>2026-05-03T07:15:57.982Z</time></trkpt><trkpt lat="44.257944020195005" lon="11.36699832949947"><ele>474.0</ele><time>2026-05-03T07:15:58.982Z</time></trkpt><trkpt lat="44.257836081106056" lon="11.367054950586152"><ele>473.0</ele><time>2026-05-03T07:15:59.982Z</time></trkpt><trkpt lat="44.25773420941289" lon="11.367121957105565"><ele>472.0</ele><time>2026-05-03T07:16:00.982Z</time></trkpt><trkpt lat="44.25763167034467" lon="11.367194898726172"><ele>471.0</ele><time>2026-05-03T07:16:01.982Z</time></trkpt><trkpt lat="44.257528649850514" lon="11.367273976378872"><ele>471.25</ele><time>2026-05-03T07:16:02.982Z</time></trkpt><trkpt lat="44.25742852865812" lon="11.367360709549494"><ele>471.5</ele><time>2026-05-03T07:16:03.982Z</time></trkpt><trkpt lat="44.257340375159814" lon="11.3674614652121"><ele>471.75</ele><time>2026-05-03T07:16:04.982Z</time></trkpt><trkpt lat="44.257259295786895" lon="11.367570052366265"><ele>472.0</ele><time>2026-05-03T07:16:05.982Z</time></trkpt><trkpt lat="44.257184968459065" lon="11.367676551766667"><ele>472.0</ele><time>2026-05-03T07:16:06.982Z</time></trkpt><trkpt lat="44.25710367984259" lon="11.3677755325442"><ele>472.00000000000006</ele><time>2026-05-03T07:16:07.982Z</time></trkpt><trkpt lat="44.257016611226334" lon="11.367858604777902"><ele>472.00000000000006</ele><time>2026-05-03T07:16:08.982Z</time></trkpt><trkpt lat="44.25692313303975" lon="11.367924878083649"><ele>472.0</ele><time>2026-05-03T07:16:09.982Z</time></trkpt><trkpt lat="44.25683093238374" lon="11.36800372064236"><ele>472.0</ele><time>2026-05-03T07:16:10.982Z</time></trkpt><trkpt lat="44.2567444493818" lon="11.36808580137879"><ele>468.6</ele><time>2026-05-03T07:16:11.982Z</time></trkpt><trkpt lat="44.25666791204349" lon="11.368166968253158"><ele>465.20000000000005</ele><time>2026-05-03T07:16:12.982Z</time></trkpt><trkpt lat="44.256612872181705" lon="11.368261380716731"><ele>461.8</ele><time>2026-05-03T07:16:13.982Z</time></trkpt><trkpt lat="44.25653196668022" lon="11.368329905205663"><ele>458.4</ele><time>2026-05-03T07:16:14.982Z</time></trkpt><trkpt lat="44.25644725718201" lon="11.368393137004627"><ele>455.0</ele><time>2026-05-03T07:16:15.982Z</time></trkpt><trkpt lat="44.256367194665536" lon="11.368466235952381"><ele>454.4</ele><time>2026-05-03T07:16:16.981Z</time></trkpt><trkpt lat="44.25628530582996" lon="11.368547824698522"><ele>453.8</ele><time>2026-05-03T07:16:17.981Z</time></trkpt><trkpt lat="44.2561971078745" lon="11.368639206604719"><ele>453.20000000000005</ele><time>2026-05-03T07:16:18.982Z</time></trkpt><trkpt lat="44.256108482967775" lon="11.368721835438944"><ele>452.6</ele><time>2026-05-03T07:16:19.982Z</time></trkpt><trkpt lat="44.256015067593744" lon="11.368807282650275"><ele>452.0</ele><time>2026-05-03T07:16:20.982Z</time></trkpt><trkpt lat="44.255920075929325" lon="11.368891675817887"><ele>449.5</ele><time>2026-05-03T07:16:21.981Z</time></trkpt><trkpt lat="44.25582895485217" lon="11.368983046776941"><ele>447.0</ele><time>2026-05-03T07:16:22.982Z</time></trkpt><trkpt lat="44.25574895187774" lon="11.369098017130213"><ele>444.5</ele><time>2026-05-03T07:16:23.982Z</time></trkpt><trkpt lat="44.25568702421305" lon="11.369234768363821"><ele>442.0</ele><time>2026-05-03T07:16:24.981Z</time></trkpt><trkpt lat="44.25565044124041" lon="11.369375566441498"><ele>441.40000000000003</ele><time>2026-05-03T07:16:25.982Z</time></trkpt><trkpt lat="44.255613942834565" lon="11.369512942006256"><ele>440.80000000000007</ele><time>2026-05-03T07:16:26.982Z</time></trkpt><trkpt lat="44.25560654274046" lon="11.369674160066147"><ele>440.2</ele><time>2026-05-03T07:16:27.982Z</time></trkpt><trkpt lat="44.25560885088359" lon="11.369824667684629"><ele>439.6</ele><time>2026-05-03T07:16:28.981Z</time></trkpt><trkpt lat="44.255619012834885" lon="11.369952932702919"><ele>439.0</ele><time>2026-05-03T07:16:29.981Z</time></trkpt><trkpt lat="44.25556057817469" lon="11.370065260998823"><ele>436.2</ele><time>2026-05-03T07:16:30.981Z</time></trkpt><trkpt lat="44.25547091993883" lon="11.37013701372704"><ele>433.4</ele><time>2026-05-03T07:16:31.981Z</time></trkpt><trkpt lat="44.2553900129812" lon="11.370131629755273"><ele>430.6</ele><time>2026-05-03T07:16:32.981Z</time></trkpt><trkpt lat="44.25531917474926" lon="11.370058430110412"><ele>427.8</ele><time>2026-05-03T07:16:33.981Z</time></trkpt><trkpt lat="44.25528410504501" lon="11.369923404437193"><ele>425.0</ele><time>2026-05-03T07:16:34.981Z</time></trkpt><trkpt lat="44.25523711090806" lon="11.369808583893661"><ele>425.0</ele><time>2026-05-03T07:16:35.981Z</time></trkpt><trkpt lat="44.25518961448014" lon="11.369724316309373"><ele>425.0</ele><time>2026-05-03T07:16:36.981Z</time></trkpt><trkpt lat="44.25507106764417" lon="11.369593561321837"><ele>425.0</ele><time>2026-05-03T07:16:38.981Z</time></trkpt><trkpt lat="44.25484216096704" lon="11.370000773294537"><ele>425.0</ele><time>2026-05-03T07:16:39.981Z</time></trkpt><trkpt lat="44.254933270043736" lon="11.370240687742708"><ele>425.0</ele><time>2026-05-03T07:16:40.981Z</time></trkpt><trkpt lat="44.25484392167751" lon="11.37012490857973"><ele>425.0</ele><time>2026-05-03T07:16:43.981Z</time></trkpt><trkpt lat="44.254895968388084" lon="11.370240260849172"><ele>425.0</ele><time>2026-05-03T07:16:44.981Z</time></trkpt><trkpt lat="44.254967061130586" lon="11.370353764395105"><ele>425.0</ele><time>2026-05-03T07:16:45.981Z</time></trkpt><trkpt lat="44.25503715904203" lon="11.370471924521759"><ele>425.0</ele><time>2026-05-03T07:16:46.981Z</time></trkpt><trkpt lat="44.25510980399325" lon="11.370582651280484"><ele>425.0</ele><time>2026-05-03T07:16:47.981Z</time></trkpt><trkpt lat="44.25519589828622" lon="11.370682005420075"><ele>425.0</ele><time>2026-05-03T07:16:48.981Z</time></trkpt><trkpt lat="44.25528273908964" lon="11.370772772617443"><ele>425.0</ele><time>2026-05-03T07:16:49.981Z</time></trkpt><trkpt lat="44.255374367112545" lon="11.370866186330733"><ele>423.5</ele><time>2026-05-03T07:16:50.981Z</time></trkpt><trkpt lat="44.25546468399088" lon="11.370960220906332"><ele>422.0</ele><time>2026-05-03T07:16:51.981Z</time></trkpt><trkpt lat="44.25556061862181" lon="11.371060859070031"><ele>420.5</ele><time>2026-05-03T07:16:52.981Z</time></trkpt><trkpt lat="44.25564925986801" lon="11.3711587335115"><ele>419.0</ele><time>2026-05-03T07:16:53.981Z</time></trkpt><trkpt lat="44.255740370441025" lon="11.37125817519405"><ele>419.0</ele><time>2026-05-03T07:16:54.981Z</time></trkpt><trkpt lat="44.255825419051355" lon="11.371348583292813"><ele>419.0</ele><time>2026-05-03T07:16:55.981Z</time></trkpt><trkpt lat="44.25591639438346" lon="11.37144129758043"><ele>419.0</ele><time>2026-05-03T07:16:56.981Z</time></trkpt><trkpt lat="44.25600671935509" lon="11.37153728902472"><ele>419.0</ele><time>2026-05-03T07:16:57.981Z</time></trkpt><trkpt lat="44.25607139251605" lon="11.371632014259234"><ele>419.0</ele><time>2026-05-03T07:16:58.981Z</time></trkpt><trkpt lat="44.25609873421414" lon="11.371752135856136"><ele>416.6</ele><time>2026-05-03T07:16:59.981Z</time></trkpt><trkpt lat="44.256085063326054" lon="11.371881510003174"><ele>414.2</ele><time>2026-05-03T07:17:00.981Z</time></trkpt><trkpt lat="44.2559956308596" lon="11.371952695845033"><ele>411.8</ele><time>2026-05-03T07:17:01.981Z</time></trkpt><trkpt lat="44.255913366190626" lon="11.372021892746695"><ele>409.40000000000003</ele><time>2026-05-03T07:17:02.981Z</time></trkpt><trkpt lat="44.25580190685784" lon="11.371970246790264"><ele>407.0</ele><time>2026-05-03T07:17:03.981Z</time></trkpt><trkpt lat="44.25569755126592" lon="11.37198639221021"><ele>405.25</ele><time>2026-05-03T07:17:04.981Z</time></trkpt><trkpt lat="44.25553797790669" lon="11.371975686926207"><ele>403.5</ele><time>2026-05-03T07:17:05.981Z</time></trkpt><trkpt lat="44.255440790628406" lon="11.371997006357235"><ele>401.75</ele><time>2026-05-03T07:17:06.981Z</time></trkpt><trkpt lat="44.25534118519405" lon="11.372099352276479"><ele>400.0</ele><time>2026-05-03T07:17:07.981Z</time></trkpt><trkpt lat="44.255311622908735" lon="11.372257439490683"><ele>397.5</ele><time>2026-05-03T07:17:08.981Z</time></trkpt><trkpt lat="44.255339035579276" lon="11.372413660261994"><ele>395.0</ele><time>2026-05-03T07:17:09.981Z</time></trkpt><trkpt lat="44.25538585222436" lon="11.372560194380315"><ele>392.5</ele><time>2026-05-03T07:17:10.981Z</time></trkpt><trkpt lat="44.255430028153974" lon="11.372703739422077"><ele>390.0</ele><time>2026-05-03T07:17:11.981Z</time></trkpt><trkpt lat="44.255463738174306" lon="11.372855578981676"><ele>390.0</ele><time>2026-05-03T07:17:12.981Z</time></trkpt><trkpt lat="44.25550326823215" lon="11.373003275032579"><ele>390.0</ele><time>2026-05-03T07:17:13.981Z</time></trkpt><trkpt lat="44.25554492479601" lon="11.373156390083546"><ele>390.0</ele><time>2026-05-03T07:17:14.981Z</time></trkpt><trkpt lat="44.25557481294443" lon="11.373287801286198"><ele>390.0</ele><time>2026-05-03T07:17:15.981Z</time></trkpt><trkpt lat="44.25555567637505" lon="11.373416773991"><ele>390.0</ele><time>2026-05-03T07:17:16.981Z</time></trkpt><trkpt lat="44.255469409185366" lon="11.373528328297455"><ele>387.75</ele><time>2026-05-03T07:17:17.981Z</time></trkpt><trkpt lat="44.25536063357871" lon="11.373595099704234"><ele>385.5</ele><time>2026-05-03T07:17:18.981Z</time></trkpt><trkpt lat="44.25526170944751" lon="11.373656715705264"><ele>383.25</ele><time>2026-05-03T07:17:19.981Z</time></trkpt><trkpt lat="44.25515849162344" lon="11.373729883578008"><ele>381.0</ele><time>2026-05-03T07:17:20.981Z</time></trkpt><trkpt lat="44.25506705618179" lon="11.373813836625802"><ele>379.0</ele><time>2026-05-03T07:17:21.981Z</time></trkpt><trkpt lat="44.25497902883083" lon="11.373939199225441"><ele>377.0</ele><time>2026-05-03T07:17:22.981Z</time></trkpt><trkpt lat="44.254898621847964" lon="11.374082833288794"><ele>375.0</ele><time>2026-05-03T07:17:23.981Z</time></trkpt><trkpt lat="44.25484044882328" lon="11.374223472691698"><ele>373.0</ele><time>2026-05-03T07:17:24.981Z</time></trkpt><trkpt lat="44.254770112739365" lon="11.374357044308399"><ele>372.0</ele><time>2026-05-03T07:17:25.981Z</time></trkpt><trkpt lat="44.25470302937255" lon="11.374494416660934"><ele>371.0</ele><time>2026-05-03T07:17:26.981Z</time></trkpt><trkpt lat="44.25461849704899" lon="11.374624945521747"><ele>370.0</ele><time>2026-05-03T07:17:27.981Z</time></trkpt><trkpt lat="44.25454878261745" lon="11.3747621641485"><ele>369.0</ele><time>2026-05-03T07:17:28.981Z</time></trkpt><trkpt lat="44.25447885965539" lon="11.37489992240998"><ele>366.75</ele><time>2026-05-03T07:17:29.981Z</time></trkpt><trkpt lat="44.2544038114419" lon="11.375032086836878"><ele>364.5</ele><time>2026-05-03T07:17:30.981Z</time></trkpt><trkpt lat="44.25433013168879" lon="11.375164433507962"><ele>362.25</ele><time>2026-05-03T07:17:31.981Z</time></trkpt><trkpt lat="44.254280998179155" lon="11.37530770029755"><ele>360.0</ele><time>2026-05-03T07:17:32.981Z</time></trkpt><trkpt lat="44.25426544811219" lon="11.37547029094846"><ele>358.75</ele><time>2026-05-03T07:17:33.981Z</time></trkpt><trkpt lat="44.25429315213879" lon="11.375619004369456"><ele>357.5</ele><time>2026-05-03T07:17:34.981Z</time></trkpt><trkpt lat="44.25432398330152" lon="11.37578649799457"><ele>356.25</ele><time>2026-05-03T07:17:35.981Z</time></trkpt><trkpt lat="44.25436836851443" lon="11.375933822196771"><ele>355.0</ele><time>2026-05-03T07:17:36.981Z</time></trkpt><trkpt lat="44.254402276530904" lon="11.376078279664112"><ele>355.0</ele><time>2026-05-03T07:17:37.981Z</time></trkpt><trkpt lat="44.25446737271317" lon="11.376202883170302"><ele>355.0</ele><time>2026-05-03T07:17:38.981Z</time></trkpt><trkpt lat="44.254538719212626" lon="11.376311491095105"><ele>355.0</ele><time>2026-05-03T07:17:39.981Z</time></trkpt><trkpt lat="44.2546171727888" lon="11.376398819991607"><ele>355.0</ele><time>2026-05-03T07:17:40.981Z</time></trkpt><trkpt lat="44.25469665186901" lon="11.37646549743801"><ele>355.0</ele><time>2026-05-03T07:17:41.981Z</time></trkpt><trkpt lat="44.25478378433108" lon="11.376517174044011"><ele>354.0</ele><time>2026-05-03T07:17:42.981Z</time></trkpt><trkpt lat="44.25487242033252" lon="11.376557144818957"><ele>353.0</ele><time>2026-05-03T07:17:43.981Z</time></trkpt><trkpt lat="44.25495601869399" lon="11.376584240924283"><ele>352.0</ele><time>2026-05-03T07:17:44.981Z</time></trkpt><trkpt lat="44.25503913904684" lon="11.376593273613548"><ele>351.0</ele><time>2026-05-03T07:17:45.981Z</time></trkpt><trkpt lat="44.255111187448286" lon="11.37660179192382"><ele>350.0</ele><time>2026-05-03T07:17:46.981Z</time></trkpt><trkpt lat="44.25517798980886" lon="11.376622098476894"><ele>349.0</ele><time>2026-05-03T07:17:47.981Z</time></trkpt><trkpt lat="44.2552517012668" lon="11.376641892500864"><ele>349.0</ele><time>2026-05-03T07:17:48.981Z</time></trkpt><trkpt lat="44.25532136846482" lon="11.37665882790781"><ele>349.0</ele><time>2026-05-03T07:17:49.981Z</time></trkpt><trkpt lat="44.255383597165256" lon="11.37667313900746"><ele>349.0</ele><time>2026-05-03T07:17:50.981Z</time></trkpt><trkpt lat="44.255493931256716" lon="11.376690981511535"><ele>349.0</ele><time>2026-05-03T07:17:52.981Z</time></trkpt><trkpt lat="44.25558005502558" lon="11.376692701555896"><ele>349.0</ele><time>2026-05-03T07:17:54.981Z</time></trkpt><trkpt lat="44.25565224093606" lon="11.376693382955857"><ele>349.0</ele><time>2026-05-03T07:17:56.981Z</time></trkpt><trkpt lat="44.25572725284884" lon="11.376706092763813"><ele>349.8333333333333</ele><time>2026-05-03T07:17:58.981Z</time></trkpt><trkpt lat="44.25580273251925" lon="11.376711432760404"><ele>350.66666666666663</ele><time>2026-05-03T07:18:00.981Z</time></trkpt><trkpt lat="44.2558691197306" lon="11.376742004522399"><ele>351.5</ele><time>2026-05-03T07:18:02.981Z</time></trkpt><trkpt lat="44.25593312397307" lon="11.376754243299423"><ele>352.3333333333333</ele><time>2026-05-03T07:18:04.981Z</time></trkpt><trkpt lat="44.256008917821134" lon="11.376777946338748"><ele>353.1666666666667</ele><time>2026-05-03T07:18:06.981Z</time></trkpt><trkpt lat="44.256107867295285" lon="11.37689734654643"><ele>354.0</ele><time>2026-05-03T07:18:08.981Z</time></trkpt><trkpt lat="44.25612724787985" lon="11.377022807865513"><ele>354.0</ele><time>2026-05-03T07:18:09.981Z</time></trkpt><trkpt lat="44.25614781041702" lon="11.377154680485859"><ele>354.0</ele><time>2026-05-03T07:18:10.981Z</time></trkpt><trkpt lat="44.25619120763356" lon="11.377276811606349"><ele>354.0</ele><time>2026-05-03T07:18:11.981Z</time></trkpt><trkpt lat="44.25622773242235" lon="11.377409042822345"><ele>354.0</ele><time>2026-05-03T07:18:12.981Z</time></trkpt><trkpt lat="44.25626360516106" lon="11.377548872388596"><ele>354.0</ele><time>2026-05-03T07:18:13.981Z</time></trkpt><trkpt lat="44.256302544873435" lon="11.377690691242577"><ele>352.6</ele><time>2026-05-03T07:18:14.981Z</time></trkpt><trkpt lat="44.256341230217814" lon="11.377834672306257"><ele>351.2</ele><time>2026-05-03T07:18:15.981Z</time></trkpt><trkpt lat="44.256373694230476" lon="11.377975955160862"><ele>349.8</ele><time>2026-05-03T07:18:16.981Z</time></trkpt><trkpt lat="44.256403696119854" lon="11.378103939238498"><ele>348.40000000000003</ele><time>2026-05-03T07:18:17.981Z</time></trkpt><trkpt lat="44.256412505067935" lon="11.378199061176423"><ele>347.0</ele><time>2026-05-03T07:18:18.981Z</time></trkpt><trkpt lat="44.256455252763544" lon="11.378340225296851"><ele>345.0</ele><time>2026-05-03T07:18:20.981Z</time></trkpt><trkpt lat="44.256455812868516" lon="11.378445188230138"><ele>343.0</ele><time>2026-05-03T07:18:22.98Z</time></trkpt><trkpt lat="44.25644760791371" lon="11.37857169615734"><ele>341.0</ele><time>2026-05-03T07:18:26.98Z</time></trkpt><trkpt lat="44.25653780010763" lon="11.378737427343143"><ele>339.0</ele><time>2026-05-03T07:18:28.98Z</time></trkpt><trkpt lat="44.25660631078528" lon="11.378810104453683"><ele>337.0</ele><time>2026-05-03T07:18:29.98Z</time></trkpt><trkpt lat="44.256679106696836" lon="11.37887870422706"><ele>335.6</ele><time>2026-05-03T07:18:30.98Z</time></trkpt><trkpt lat="44.25675310331931" lon="11.378949770957286"><ele>334.20000000000005</ele><time>2026-05-03T07:18:31.98Z</time></trkpt><trkpt lat="44.25683652432781" lon="11.379012078511261"><ele>332.8</ele><time>2026-05-03T07:18:32.98Z</time></trkpt><trkpt lat="44.25691683256016" lon="11.379081365746826"><ele>331.4</ele><time>2026-05-03T07:18:33.98Z</time></trkpt><trkpt lat="44.25699752319398" lon="11.37915022643952"><ele>330.0</ele><time>2026-05-03T07:18:34.98Z</time></trkpt><trkpt lat="44.257083259397795" lon="11.379210511032621"><ele>330.0</ele><time>2026-05-03T07:18:35.98Z</time></trkpt><trkpt lat="44.257173825269916" lon="11.379274209821618"><ele>330.0</ele><time>2026-05-03T07:18:36.98Z</time></trkpt><trkpt lat="44.257265610679454" lon="11.37932784456025"><ele>330.0</ele><time>2026-05-03T07:18:37.98Z</time></trkpt><trkpt lat="44.25736317069449" lon="11.379381997380113"><ele>330.0</ele><time>2026-05-03T07:18:38.98Z</time></trkpt><trkpt lat="44.25746098917664" lon="11.379439684574491"><ele>330.0</ele><time>2026-05-03T07:18:39.98Z</time></trkpt><trkpt lat="44.25755654227119" lon="11.379486841175114"><ele>329.4</ele><time>2026-05-03T07:18:40.98Z</time></trkpt><trkpt lat="44.25765531970377" lon="11.379534832046001"><ele>328.8</ele><time>2026-05-03T07:18:41.98Z</time></trkpt><trkpt lat="44.25775254894898" lon="11.379575175995567"><ele>328.20000000000005</ele><time>2026-05-03T07:18:42.98Z</time></trkpt><trkpt lat="44.25784894948865" lon="11.379628723776547"><ele>327.6</ele><time>2026-05-03T07:18:43.98Z</time></trkpt><trkpt lat="44.25795112003194" lon="11.379686952919906"><ele>327.0</ele><time>2026-05-03T07:18:44.98Z</time></trkpt><trkpt lat="44.2580550721075" lon="11.37972449874108"><ele>325.0</ele><time>2026-05-03T07:18:45.98Z</time></trkpt><trkpt lat="44.25816252558321" lon="11.379753731771402"><ele>323.0</ele><time>2026-05-03T07:18:46.98Z</time></trkpt><trkpt lat="44.25827068330024" lon="11.379781332764038"><ele>321.0</ele><time>2026-05-03T07:18:47.98Z</time></trkpt><trkpt lat="44.258382203967976" lon="11.37979297215071"><ele>319.0</ele><time>2026-05-03T07:18:48.98Z</time></trkpt><trkpt lat="44.25848892562608" lon="11.379794355687833"><ele>317.0</ele><time>2026-05-03T07:18:49.98Z</time></trkpt><trkpt lat="44.258601124479945" lon="11.379766727026185"><ele>317.0</ele><time>2026-05-03T07:18:50.98Z</time></trkpt><trkpt lat="44.25870639027847" lon="11.379719154937375"><ele>317.0</ele><time>2026-05-03T07:18:51.98Z</time></trkpt><trkpt lat="44.258805177555" lon="11.379658550586411"><ele>317.0</ele><time>2026-05-03T07:18:52.98Z</time></trkpt><trkpt lat="44.258900078729994" lon="11.379582347495958"><ele>317.0</ele><time>2026-05-03T07:18:53.98Z</time></trkpt><trkpt lat="44.25899629086421" lon="11.379498946099154"><ele>317.0</ele><time>2026-05-03T07:18:54.98Z</time></trkpt><trkpt lat="44.25909696803955" lon="11.379435076676337"><ele>317.0</ele><time>2026-05-03T07:18:55.98Z</time></trkpt><trkpt lat="44.25919733137596" lon="11.379386756890442"><ele>317.0</ele><time>2026-05-03T07:18:56.98Z</time></trkpt><trkpt lat="44.259304393981616" lon="11.379356245214534"><ele>317.0</ele><time>2026-05-03T07:18:57.98Z</time></trkpt><trkpt lat="44.25942034963712" lon="11.379390258060955"><ele>317.0</ele><time>2026-05-03T07:18:58.98Z</time></trkpt><trkpt lat="44.25951073902977" lon="11.379437692827771"><ele>317.0</ele><time>2026-05-03T07:18:59.98Z</time></trkpt><trkpt lat="44.25961548170322" lon="11.37948519087651"><ele>317.0</ele><time>2026-05-03T07:19:00.98Z</time></trkpt><trkpt lat="44.259718641587696" lon="11.379531797635057"><ele>317.0</ele><time>2026-05-03T07:19:01.98Z</time></trkpt><trkpt lat="44.25982937824655" lon="11.379594557196787"><ele>317.0</ele><time>2026-05-03T07:19:02.98Z</time></trkpt><trkpt lat="44.25993076090633" lon="11.379664328420404"><ele>317.0</ele><time>2026-05-03T07:19:03.98Z</time></trkpt><trkpt lat="44.26003151283783" lon="11.379747825846739"><ele>313.75</ele><time>2026-05-03T07:19:04.98Z</time></trkpt><trkpt lat="44.260124136088294" lon="11.379846849845274"><ele>310.5</ele><time>2026-05-03T07:19:05.98Z</time></trkpt><trkpt lat="44.26021862628494" lon="11.379945407780047"><ele>307.25</ele><time>2026-05-03T07:19:06.98Z</time></trkpt><trkpt lat="44.2603199538186" lon="11.380040338754792"><ele>304.0</ele><time>2026-05-03T07:19:07.98Z</time></trkpt><trkpt lat="44.26042308681094" lon="11.380142777064732"><ele>304.0</ele><time>2026-05-03T07:19:08.98Z</time></trkpt><trkpt lat="44.26051580143899" lon="11.380245444037287"><ele>304.0</ele><time>2026-05-03T07:19:09.98Z</time></trkpt><trkpt lat="44.26061889281654" lon="11.380337433961754"><ele>304.0</ele><time>2026-05-03T07:19:10.98Z</time></trkpt><trkpt lat="44.260734707359866" lon="11.380412947848072"><ele>304.0</ele><time>2026-05-03T07:19:11.98Z</time></trkpt><trkpt lat="44.260847590396914" lon="11.380471255607093"><ele>302.25</ele><time>2026-05-03T07:19:12.98Z</time></trkpt><trkpt lat="44.2609665811847" lon="11.380519771746222"><ele>300.5</ele><time>2026-05-03T07:19:13.98Z</time></trkpt><trkpt lat="44.26108721878889" lon="11.380570147892069"><ele>298.75</ele><time>2026-05-03T07:19:14.98Z</time></trkpt><trkpt lat="44.261205514581" lon="11.380615006500856"><ele>297.0</ele><time>2026-05-03T07:19:15.98Z</time></trkpt><trkpt lat="44.261322449833365" lon="11.380662651764325"><ele>297.0</ele><time>2026-05-03T07:19:16.98Z</time></trkpt><trkpt lat="44.261440829131274" lon="11.380708826174255"><ele>297.0</ele><time>2026-05-03T07:19:17.98Z</time></trkpt><trkpt lat="44.26155168071316" lon="11.380749555554745"><ele>297.0</ele><time>2026-05-03T07:19:18.98Z</time></trkpt><trkpt lat="44.26166405525858" lon="11.38078646913453"><ele>297.0</ele><time>2026-05-03T07:19:19.98Z</time></trkpt><trkpt lat="44.261772105136224" lon="11.38082812053718"><ele>297.0</ele><time>2026-05-03T07:19:20.98Z</time></trkpt><trkpt lat="44.26187831571243" lon="11.380870624848262"><ele>297.0</ele><time>2026-05-03T07:19:21.98Z</time></trkpt><trkpt lat="44.261986921116296" lon="11.380914817471098"><ele>297.0</ele><time>2026-05-03T07:19:22.98Z</time></trkpt><trkpt lat="44.26209792383972" lon="11.380955023620702"><ele>297.0</ele><time>2026-05-03T07:19:23.98Z</time></trkpt><trkpt lat="44.262205076988515" lon="11.381000146866063"><ele>297.5</ele><time>2026-05-03T07:19:24.98Z</time></trkpt><trkpt lat="44.26231438673108" lon="11.381050885941299"><ele>298.0</ele><time>2026-05-03T07:19:25.98Z</time></trkpt><trkpt lat="44.26241975493431" lon="11.381125117597746"><ele>298.5</ele><time>2026-05-03T07:19:26.98Z</time></trkpt><trkpt lat="44.2625193826316" lon="11.381207859076408"><ele>299.0</ele><time>2026-05-03T07:19:27.98Z</time></trkpt><trkpt lat="44.262611109317426" lon="11.381313337038359"><ele>297.5</ele><time>2026-05-03T07:19:28.98Z</time></trkpt><trkpt lat="44.262696978444396" lon="11.381429553897622"><ele>296.0</ele><time>2026-05-03T07:19:29.98Z</time></trkpt><trkpt lat="44.26278833604976" lon="11.38151796305026"><ele>294.5</ele><time>2026-05-03T07:19:30.98Z</time></trkpt><trkpt lat="44.26288968628783" lon="11.381597875794286"><ele>293.0</ele><time>2026-05-03T07:19:31.98Z</time></trkpt><trkpt lat="44.26299832127432" lon="11.381656431914191"><ele>293.0</ele><time>2026-05-03T07:19:32.98Z</time></trkpt><trkpt lat="44.263110262551656" lon="11.38169841367041"><ele>293.0</ele><time>2026-05-03T07:19:33.98Z</time></trkpt><trkpt lat="44.26322612344148" lon="11.381737200750273"><ele>293.0</ele><time>2026-05-03T07:19:34.98Z</time></trkpt><trkpt lat="44.263339580477634" lon="11.381773404566928"><ele>293.0</ele><time>2026-05-03T07:19:35.98Z</time></trkpt><trkpt lat="44.26345854271481" lon="11.381800635434427"><ele>292.75</ele><time>2026-05-03T07:19:36.98Z</time></trkpt><trkpt lat="44.26357408581701" lon="11.381798854361234"><ele>292.5</ele><time>2026-05-03T07:19:37.98Z</time></trkpt><trkpt lat="44.26368966226811" lon="11.381765530030856"><ele>292.25</ele><time>2026-05-03T07:19:38.98Z</time></trkpt><trkpt lat="44.26379961329854" lon="11.381700871671713"><ele>292.0</ele><time>2026-05-03T07:19:39.98Z</time></trkpt><trkpt lat="44.263902190898776" lon="11.381619587223133"><ele>292.0</ele><time>2026-05-03T07:19:40.98Z</time></trkpt><trkpt lat="44.26399753846503" lon="11.3815231686043"><ele>292.0</ele><time>2026-05-03T07:19:41.98Z</time></trkpt><trkpt lat="44.264099542147285" lon="11.381432125443725"><ele>292.0</ele><time>2026-05-03T07:19:42.98Z</time></trkpt><trkpt lat="44.26420599366837" lon="11.38136395921029"><ele>292.0</ele><time>2026-05-03T07:19:43.98Z</time></trkpt><trkpt lat="44.26431398264391" lon="11.3813107777124"><ele>293.4</ele><time>2026-05-03T07:19:44.98Z</time></trkpt><trkpt lat="44.264424255865784" lon="11.381280207696797"><ele>294.79999999999995</ele><time>2026-05-03T07:19:45.98Z</time></trkpt><trkpt lat="44.26453575210453" lon="11.381262456162307"><ele>296.2</ele><time>2026-05-03T07:19:46.98Z</time></trkpt><trkpt lat="44.2646434014928" lon="11.381261547480628"><ele>297.59999999999997</ele><time>2026-05-03T07:19:47.98Z</time></trkpt><trkpt lat="44.26475476777289" lon="11.381267352645029"><ele>299.0</ele><time>2026-05-03T07:19:48.98Z</time></trkpt><trkpt lat="44.26487371043385" lon="11.38127855068927"><ele>299.0</ele><time>2026-05-03T07:19:49.98Z</time></trkpt><trkpt lat="44.26499268226195" lon="11.381293127383138"><ele>299.0</ele><time>2026-05-03T07:19:50.98Z</time></trkpt><trkpt lat="44.26510767886414" lon="11.38129680115194"><ele>299.0</ele><time>2026-05-03T07:19:51.98Z</time></trkpt><trkpt lat="44.265222369601624" lon="11.381299313251883"><ele>299.0</ele><time>2026-05-03T07:19:52.98Z</time></trkpt><trkpt lat="44.26534015462426" lon="11.381304978566053"><ele>299.0</ele><time>2026-05-03T07:19:53.98Z</time></trkpt><trkpt lat="44.265458134545824" lon="11.38131409134504"><ele>299.0</ele><time>2026-05-03T07:19:54.98Z</time></trkpt><trkpt lat="44.26557397480289" lon="11.381324235288895"><ele>299.0</ele><time>2026-05-03T07:19:55.98Z</time></trkpt><trkpt lat="44.2656865502137" lon="11.381335607715787"><ele>299.0</ele><time>2026-05-03T07:19:56.98Z</time></trkpt><trkpt lat="44.26580203737793" lon="11.381346031396347"><ele>296.75</ele><time>2026-05-03T07:19:57.98Z</time></trkpt><trkpt lat="44.265921227750795" lon="11.381360802597603"><ele>294.5</ele><time>2026-05-03T07:19:58.98Z</time></trkpt><trkpt lat="44.266034592039105" lon="11.38139274282939"><ele>292.25</ele><time>2026-05-03T07:19:59.98Z</time></trkpt><trkpt lat="44.26614575161403" lon="11.381438475500564"><ele>290.0</ele><time>2026-05-03T07:20:00.98Z</time></trkpt><trkpt lat="44.26625533507248" lon="11.381493380147871"><ele>290.0</ele><time>2026-05-03T07:20:01.98Z</time></trkpt><trkpt lat="44.26635538002949" lon="11.381553345691872"><ele>290.0</ele><time>2026-05-03T07:20:02.98Z</time></trkpt><trkpt lat="44.26645219677873" lon="11.381614010648814"><ele>290.0</ele><time>2026-05-03T07:20:03.98Z</time></trkpt><trkpt lat="44.26655008585285" lon="11.381679132943107"><ele>290.0</ele><time>2026-05-03T07:20:04.98Z</time></trkpt><trkpt lat="44.26663883300989" lon="11.381745594516001"><ele>290.0</ele><time>2026-05-03T07:20:05.98Z</time></trkpt><trkpt lat="44.266731157697656" lon="11.381807023861226"><ele>290.8</ele><time>2026-05-03T07:20:06.98Z</time></trkpt><trkpt lat="44.26682706928611" lon="11.381870924676"><ele>291.6</ele><time>2026-05-03T07:20:07.98Z</time></trkpt><trkpt lat="44.26692339119307" lon="11.38193339304551"><ele>292.4</ele><time>2026-05-03T07:20:08.98Z</time></trkpt><trkpt lat="44.26702799322087" lon="11.381989434019797"><ele>293.2</ele><time>2026-05-03T07:20:09.98Z</time></trkpt><trkpt lat="44.26713149218261" lon="11.38204550462298"><ele>294.0</ele><time>2026-05-03T07:20:10.98Z</time></trkpt><trkpt lat="44.267242178925315" lon="11.382096811716819"><ele>293.0</ele><time>2026-05-03T07:20:11.98Z</time></trkpt><trkpt lat="44.26735809318855" lon="11.382134287302078"><ele>292.0</ele><time>2026-05-03T07:20:12.98Z</time></trkpt><trkpt lat="44.26747493630961" lon="11.382162869345501"><ele>291.0</ele><time>2026-05-03T07:20:13.98Z</time></trkpt><trkpt lat="44.26758913082408" lon="11.382175350428351"><ele>290.0</ele><time>2026-05-03T07:20:14.98Z</time></trkpt><trkpt lat="44.2677052650459" lon="11.382182958705172"><ele>290.0</ele><time>2026-05-03T07:20:15.98Z</time></trkpt><trkpt lat="44.26781854625433" lon="11.382205186580963"><ele>290.0</ele><time>2026-05-03T07:20:16.98Z</time></trkpt><trkpt lat="44.26791908076409" lon="11.38226770664226"><ele>290.0</ele><time>2026-05-03T07:20:17.98Z</time></trkpt><trkpt lat="44.26800795417268" lon="11.382370033957688"><ele>290.0</ele><time>2026-05-03T07:20:18.98Z</time></trkpt><trkpt lat="44.26808740834503" lon="11.382484065827283"><ele>296.0</ele><time>2026-05-03T07:20:19.98Z</time></trkpt><trkpt lat="44.268161201354395" lon="11.382602795302525"><ele>302.0</ele><time>2026-05-03T07:20:20.98Z</time></trkpt><trkpt lat="44.26824748999883" lon="11.382708414014006"><ele>308.0</ele><time>2026-05-03T07:20:21.98Z</time></trkpt><trkpt lat="44.268338961921465" lon="11.382811316256428"><ele>314.0</ele><time>2026-05-03T07:20:22.98Z</time></trkpt><trkpt lat="44.26842552012806" lon="11.382925959518982"><ele>314.0</ele><time>2026-05-03T07:20:23.98Z</time></trkpt><trkpt lat="44.26853139100049" lon="11.383000043241248"><ele>314.0</ele><time>2026-05-03T07:20:24.98Z</time></trkpt><trkpt lat="44.26863952011831" lon="11.383084617812825"><ele>314.0</ele><time>2026-05-03T07:20:25.98Z</time></trkpt><trkpt lat="44.26873621812613" lon="11.383195388876606"><ele>314.0</ele><time>2026-05-03T07:20:26.98Z</time></trkpt><trkpt lat="44.26881648797393" lon="11.383322132717815"><ele>310.5</ele><time>2026-05-03T07:20:27.979Z</time></trkpt><trkpt lat="44.26887623855489" lon="11.38346783711316"><ele>307.0</ele><time>2026-05-03T07:20:28.979Z</time></trkpt><trkpt lat="44.26893754830975" lon="11.383609458594577"><ele>303.5</ele><time>2026-05-03T07:20:29.979Z</time></trkpt><trkpt lat="44.269010303174106" lon="11.383730231284847"><ele>300.0</ele><time>2026-05-03T07:20:30.979Z</time></trkpt><trkpt lat="44.26909819944458" lon="11.383830130585542"><ele>295.75</ele><time>2026-05-03T07:20:31.979Z</time></trkpt><trkpt lat="44.26919663793955" lon="11.383895794460276"><ele>291.5</ele><time>2026-05-03T07:20:32.979Z</time></trkpt><trkpt lat="44.269304642755586" lon="11.383957788513356"><ele>287.25</ele><time>2026-05-03T07:20:33.979Z</time></trkpt><trkpt lat="44.269409450784536" lon="11.384009819618528"><ele>283.0</ele><time>2026-05-03T07:20:34.978Z</time></trkpt><trkpt lat="44.269521676036135" lon="11.38405257380723"><ele>283.0</ele><time>2026-05-03T07:20:35.978Z</time></trkpt><trkpt lat="44.26962462289164" lon="11.38411496501701"><ele>283.0</ele><time>2026-05-03T07:20:36.979Z</time></trkpt><trkpt lat="44.26973708190447" lon="11.384141611062981"><ele>283.0</ele><time>2026-05-03T07:20:37.979Z</time></trkpt><trkpt lat="44.26984864372918" lon="11.384166124487649"><ele>283.0</ele><time>2026-05-03T07:20:38.979Z</time></trkpt><trkpt lat="44.26995595569844" lon="11.384174537791933"><ele>283.0</ele><time>2026-05-03T07:20:39.979Z</time></trkpt><trkpt lat="44.27005918364847" lon="11.384205094136105"><ele>285.6</ele><time>2026-05-03T07:20:40.978Z</time></trkpt><trkpt lat="44.27016320410484" lon="11.384243135528967"><ele>288.20000000000005</ele><time>2026-05-03T07:20:41.978Z</time></trkpt><trkpt lat="44.2702620344235" lon="11.384282637932497"><ele>290.8</ele><time>2026-05-03T07:20:42.978Z</time></trkpt><trkpt lat="44.27035689446846" lon="11.384325166609731"><ele>293.40000000000003</ele><time>2026-05-03T07:20:43.978Z</time></trkpt><trkpt lat="44.270451359166344" lon="11.384367899961875"><ele>296.0</ele><time>2026-05-03T07:20:44.978Z</time></trkpt><trkpt lat="44.27054903064663" lon="11.38440120299807"><ele>298.2</ele><time>2026-05-03T07:20:45.978Z</time></trkpt><trkpt lat="44.270642154911954" lon="11.384443128273555"><ele>300.40000000000003</ele><time>2026-05-03T07:20:46.978Z</time></trkpt><trkpt lat="44.270743873666916" lon="11.384474992397092"><ele>302.6</ele><time>2026-05-03T07:20:47.978Z</time></trkpt><trkpt lat="44.27085304298313" lon="11.38451092702099"><ele>304.8</ele><time>2026-05-03T07:20:48.978Z</time></trkpt><trkpt lat="44.27095851378433" lon="11.384520648869696"><ele>307.0</ele><time>2026-05-03T07:20:49.978Z</time></trkpt><trkpt lat="44.27106643880876" lon="11.384547711683634"><ele>307.0</ele><time>2026-05-03T07:20:50.978Z</time></trkpt><trkpt lat="44.27117978206427" lon="11.384576232298427"><ele>307.0</ele><time>2026-05-03T07:20:51.978Z</time></trkpt><trkpt lat="44.27128984675297" lon="11.384597686377695"><ele>307.0</ele><time>2026-05-03T07:20:52.978Z</time></trkpt><trkpt lat="44.271402190005674" lon="11.384631959995822"><ele>307.0</ele><time>2026-05-03T07:20:53.978Z</time></trkpt><trkpt lat="44.271517592684205" lon="11.384646600430903"><ele>308.0</ele><time>2026-05-03T07:20:54.978Z</time></trkpt><trkpt lat="44.27162929963837" lon="11.384651130599304"><ele>309.0</ele><time>2026-05-03T07:20:55.978Z</time></trkpt><trkpt lat="44.27174206642115" lon="11.38465589820378"><ele>310.0</ele><time>2026-05-03T07:20:56.978Z</time></trkpt><trkpt lat="44.27185166723969" lon="11.384653945910756"><ele>311.0</ele><time>2026-05-03T07:20:57.978Z</time></trkpt><trkpt lat="44.271966197198914" lon="11.38467524588569"><ele>308.8</ele><time>2026-05-03T07:20:58.978Z</time></trkpt><trkpt lat="44.27207625827355" lon="11.384712939554419"><ele>306.6</ele><time>2026-05-03T07:20:59.978Z</time></trkpt><trkpt lat="44.272176946255826" lon="11.38476998179664"><ele>304.4</ele><time>2026-05-03T07:21:00.978Z</time></trkpt><trkpt lat="44.272276540575284" lon="11.384839457993285"><ele>302.2</ele><time>2026-05-03T07:21:01.978Z</time></trkpt><trkpt lat="44.27236904539437" lon="11.384905513157658"><ele>300.0</ele><time>2026-05-03T07:21:02.978Z</time></trkpt><trkpt lat="44.27246430968526" lon="11.384971002574826"><ele>300.0</ele><time>2026-05-03T07:21:03.978Z</time></trkpt><trkpt lat="44.27255531312967" lon="11.385047300760556"><ele>300.0</ele><time>2026-05-03T07:21:04.978Z</time></trkpt><trkpt lat="44.2726369357251" lon="11.385141733258129"><ele>300.0</ele><time>2026-05-03T07:21:05.978Z</time></trkpt><trkpt lat="44.27269913317474" lon="11.385270700742847"><ele>300.0</ele><time>2026-05-03T07:21:06.978Z</time></trkpt><trkpt lat="44.2727412260776" lon="11.385412695288032"><ele>300.0</ele><time>2026-05-03T07:21:07.978Z</time></trkpt><trkpt lat="44.272774489690335" lon="11.385549886383656"><ele>296.2</ele><time>2026-05-03T07:21:08.978Z</time></trkpt><trkpt lat="44.27279496898754" lon="11.385695670671499"><ele>292.4</ele><time>2026-05-03T07:21:09.978Z</time></trkpt><trkpt lat="44.2728113741875" lon="11.385837718415699"><ele>288.6</ele><time>2026-05-03T07:21:10.978Z</time></trkpt><trkpt lat="44.272829664024584" lon="11.385987379282064"><ele>284.8</ele><time>2026-05-03T07:21:11.978Z</time></trkpt><trkpt lat="44.27284065135893" lon="11.386139695196844"><ele>281.0</ele><time>2026-05-03T07:21:12.978Z</time></trkpt><trkpt lat="44.272833639082386" lon="11.386297398988964"><ele>281.0</ele><time>2026-05-03T07:21:13.978Z</time></trkpt><trkpt lat="44.272809696850324" lon="11.386449750894192"><ele>281.0</ele><time>2026-05-03T07:21:14.978Z</time></trkpt><trkpt lat="44.27276737358692" lon="11.386597342520902"><ele>281.0</ele><time>2026-05-03T07:21:15.978Z</time></trkpt><trkpt lat="44.27272350268904" lon="11.386741469413337"><ele>281.0</ele><time>2026-05-03T07:21:16.978Z</time></trkpt><trkpt lat="44.27270243155593" lon="11.3868849299501"><ele>281.0</ele><time>2026-05-03T07:21:17.978Z</time></trkpt><trkpt lat="44.27272973290416" lon="11.387010915626929"><ele>281.0</ele><time>2026-05-03T07:21:18.978Z</time></trkpt><trkpt lat="44.27278665459135" lon="11.387119288106016"><ele>281.0</ele><time>2026-05-03T07:21:19.978Z</time></trkpt><trkpt lat="44.272867580210054" lon="11.387174792541565"><ele>281.0</ele><time>2026-05-03T07:21:20.978Z</time></trkpt><trkpt lat="44.27295927592227" lon="11.387185817372195"><ele>281.0</ele><time>2026-05-03T07:21:21.978Z</time></trkpt><trkpt lat="44.27305556292674" lon="11.3871777403545"><ele>281.0</ele><time>2026-05-03T07:21:22.978Z</time></trkpt><trkpt lat="44.27315648197317" lon="11.38716782966044"><ele>281.2</ele><time>2026-05-03T07:21:23.978Z</time></trkpt><trkpt lat="44.27325755873081" lon="11.38719516286856"><ele>281.40000000000003</ele><time>2026-05-03T07:21:24.978Z</time></trkpt><trkpt lat="44.27335063060359" lon="11.387179815729972"><ele>281.6</ele><time>2026-05-03T07:21:25.978Z</time></trkpt><trkpt lat="44.273456250346406" lon="11.387186623309757"><ele>281.8</ele><time>2026-05-03T07:21:26.978Z</time></trkpt><trkpt lat="44.273558176395525" lon="11.387222578245293"><ele>282.0</ele><time>2026-05-03T07:21:27.978Z</time></trkpt><trkpt lat="44.27365481041529" lon="11.387291332829284"><ele>282.0</ele><time>2026-05-03T07:21:28.978Z</time></trkpt><trkpt lat="44.2737472502595" lon="11.38737325514657"><ele>282.0</ele><time>2026-05-03T07:21:29.978Z</time></trkpt><trkpt lat="44.273836360352774" lon="11.387473462518189"><ele>282.0</ele><time>2026-05-03T07:21:30.978Z</time></trkpt><trkpt lat="44.27391630361696" lon="11.387576109217742"><ele>282.0</ele><time>2026-05-03T07:21:31.978Z</time></trkpt><trkpt lat="44.273993832576934" lon="11.38767891368237"><ele>282.0</ele><time>2026-05-03T07:21:32.978Z</time></trkpt><trkpt lat="44.274074255578675" lon="11.387769682554072"><ele>281.0</ele><time>2026-05-03T07:21:33.978Z</time></trkpt><trkpt lat="44.2741470397666" lon="11.387855381462607"><ele>280.0</ele><time>2026-05-03T07:21:34.978Z</time></trkpt><trkpt lat="44.274218170557845" lon="11.387933980839259"><ele>279.0</ele><time>2026-05-03T07:21:35.978Z</time></trkpt><trkpt lat="44.2742819528526" lon="11.388012103410164"><ele>278.0</ele><time>2026-05-03T07:21:36.978Z</time></trkpt><trkpt lat="44.27437185364052" lon="11.388085409742379"><ele>277.0</ele><time>2026-05-03T07:21:37.978Z</time></trkpt><trkpt lat="44.27442932897094" lon="11.388209990933053"><ele>277.0</ele><time>2026-05-03T07:21:38.978Z</time></trkpt><trkpt lat="44.27445588586768" lon="11.38833009573201"><ele>277.0</ele><time>2026-05-03T07:21:39.978Z</time></trkpt><trkpt lat="44.27439423109523" lon="11.388380694844448"><ele>277.0</ele><time>2026-05-03T07:21:43.978Z</time></trkpt><trkpt lat="44.27432942017035" lon="11.388347254047689"><ele>277.0</ele><time>2026-05-03T07:21:44.978Z</time></trkpt><trkpt lat="44.274213645157886" lon="11.388353011679072"><ele>277.0</ele><time>2026-05-03T07:21:46.978Z</time></trkpt><trkpt lat="44.274090562166805" lon="11.388341017496112"><ele>277.0</ele><time>2026-05-03T07:21:48.978Z</time></trkpt><trkpt lat="44.27397351186718" lon="11.388243650619602"><ele>277.0</ele><time>2026-05-03T07:21:50.978Z</time></trkpt><trkpt lat="44.27392218027835" lon="11.38815221562327"><ele>277.0</ele><time>2026-05-03T07:21:51.978Z</time></trkpt><trkpt lat="44.27385942341966" lon="11.388068977125345"><ele>277.0</ele><time>2026-05-03T07:21:52.978Z</time></trkpt><trkpt lat="44.27377849600002" lon="11.388004141317294"><ele>277.0</ele><time>2026-05-03T07:21:53.978Z</time></trkpt><trkpt lat="44.273695357403305" lon="11.387951855469181"><ele>277.16666666666663</ele><time>2026-05-03T07:21:54.978Z</time></trkpt><trkpt lat="44.27360772739801" lon="11.387917772263066"><ele>277.3333333333333</ele><time>2026-05-03T07:21:55.978Z</time></trkpt><trkpt lat="44.27352030918765" lon="11.387927417250292"><ele>277.5</ele><time>2026-05-03T07:21:56.978Z</time></trkpt><trkpt lat="44.27343294112052" lon="11.387962497799823"><ele>277.6666666666667</ele><time>2026-05-03T07:21:57.978Z</time></trkpt><trkpt lat="44.273356765134494" lon="11.388007058768501"><ele>277.83333333333337</ele><time>2026-05-03T07:21:58.978Z</time></trkpt><trkpt lat="44.27328370926531" lon="11.388056706502121"><ele>278.0</ele><time>2026-05-03T07:21:59.978Z</time></trkpt><trkpt lat="44.27320885758937" lon="11.388094123245095"><ele>278.0</ele><time>2026-05-03T07:22:00.978Z</time></trkpt><trkpt lat="44.27313587605808" lon="11.388127604247135"><ele>278.0</ele><time>2026-05-03T07:22:01.978Z</time></trkpt><trkpt lat="44.273057687569775" lon="11.388163090383177"><ele>278.0</ele><time>2026-05-03T07:22:02.978Z</time></trkpt><trkpt lat="44.27297702812687" lon="11.388202379091233"><ele>278.0</ele><time>2026-05-03T07:22:03.978Z</time></trkpt><trkpt lat="44.27290012585748" lon="11.388277277125535"><ele>278.0</ele><time>2026-05-03T07:22:04.978Z</time></trkpt><trkpt lat="44.2728406785381" lon="11.388360608822856"><ele>278.0</ele><time>2026-05-03T07:22:05.978Z</time></trkpt><trkpt lat="44.27279509957883" lon="11.388459502998428"><ele>280.83333333333337</ele><time>2026-05-03T07:22:06.978Z</time></trkpt><trkpt lat="44.27275278199614" lon="11.388565111074028"><ele>283.6666666666667</ele><time>2026-05-03T07:22:07.978Z</time></trkpt><trkpt lat="44.272720412595" lon="11.388680040752899"><ele>286.5</ele><time>2026-05-03T07:22:08.978Z</time></trkpt><trkpt lat="44.2726968342557" lon="11.388803085100344"><ele>289.3333333333333</ele><time>2026-05-03T07:22:09.978Z</time></trkpt><trkpt lat="44.2726653146566" lon="11.388920908750585"><ele>292.16666666666663</ele><time>2026-05-03T07:22:10.978Z</time></trkpt><trkpt lat="44.27261098609914" lon="11.389022593250075"><ele>295.0</ele><time>2026-05-03T07:22:11.978Z</time></trkpt><trkpt lat="44.27254006824539" lon="11.38910578027728"><ele>295.0</ele><time>2026-05-03T07:22:12.978Z</time></trkpt><trkpt lat="44.27245049272637" lon="11.389130990992912"><ele>295.0</ele><time>2026-05-03T07:22:13.978Z</time></trkpt><trkpt lat="44.27236986322177" lon="11.389179914478726"><ele>295.0</ele><time>2026-05-03T07:22:14.978Z</time></trkpt><trkpt lat="44.272296229398286" lon="11.389235551242576"><ele>295.0</ele><time>2026-05-03T07:22:15.978Z</time></trkpt><trkpt lat="44.27224442924522" lon="11.389319333615926"><ele>295.0</ele><time>2026-05-03T07:22:16.978Z</time></trkpt><trkpt lat="44.2722020310214" lon="11.38941104030119"><ele>295.0</ele><time>2026-05-03T07:22:17.978Z</time></trkpt><trkpt lat="44.272168279391344" lon="11.389520193642548"><ele>298.8</ele><time>2026-05-03T07:22:18.978Z</time></trkpt><trkpt lat="44.27218820010823" lon="11.389653688204056"><ele>302.6</ele><time>2026-05-03T07:22:19.978Z</time></trkpt><trkpt lat="44.27218737212456" lon="11.389762380147419"><ele>306.4</ele><time>2026-05-03T07:22:20.978Z</time></trkpt><trkpt lat="44.272169376552334" lon="11.389883308430516"><ele>310.2</ele><time>2026-05-03T07:22:21.978Z</time></trkpt><trkpt lat="44.272178980627025" lon="11.390017481582662"><ele>314.0</ele><time>2026-05-03T07:22:22.978Z</time></trkpt><trkpt lat="44.27218959798518" lon="11.390157517306479"><ele>314.0</ele><time>2026-05-03T07:22:23.978Z</time></trkpt><trkpt lat="44.27219809700072" lon="11.390303571351964"><ele>314.0</ele><time>2026-05-03T07:22:24.978Z</time></trkpt><trkpt lat="44.272197443739735" lon="11.390444030672521"><ele>314.0</ele><time>2026-05-03T07:22:25.978Z</time></trkpt><trkpt lat="44.27219552079913" lon="11.39058932073151"><ele>314.0</ele><time>2026-05-03T07:22:26.978Z</time></trkpt><trkpt lat="44.27220373837027" lon="11.390733742686814"><ele>314.0</ele><time>2026-05-03T07:22:27.978Z</time></trkpt><trkpt lat="44.27222449087287" lon="11.390868695966791"><ele>314.4</ele><time>2026-05-03T07:22:28.978Z</time></trkpt><trkpt lat="44.27225133797414" lon="11.390998309792234"><ele>314.79999999999995</ele><time>2026-05-03T07:22:29.978Z</time></trkpt><trkpt lat="44.27223831433559" lon="11.39112553918976"><ele>315.20000000000005</ele><time>2026-05-03T07:22:30.978Z</time></trkpt><trkpt lat="44.27224070325415" lon="11.39125499616676"><ele>315.6</ele><time>2026-05-03T07:22:31.978Z</time></trkpt><trkpt lat="44.27221702266185" lon="11.391374048397113"><ele>316.0</ele><time>2026-05-03T07:22:32.978Z</time></trkpt><trkpt lat="44.27219422987838" lon="11.391497734080096"><ele>317.4</ele><time>2026-05-03T07:22:33.979Z</time></trkpt><trkpt lat="44.272174248270204" lon="11.391620685759312"><ele>318.8</ele><time>2026-05-03T07:22:34.978Z</time></trkpt><trkpt lat="44.27213196423154" lon="11.391731311478935"><ele>320.2</ele><time>2026-05-03T07:22:35.978Z</time></trkpt><trkpt lat="44.27209593061352" lon="11.391846785643155"><ele>321.59999999999997</ele><time>2026-05-03T07:22:36.978Z</time></trkpt><trkpt lat="44.272080406249174" lon="11.391972191458668"><ele>323.0</ele><time>2026-05-03T07:22:37.978Z</time></trkpt><trkpt lat="44.272051648869954" lon="11.392094467044773"><ele>323.4</ele><time>2026-05-03T07:22:38.978Z</time></trkpt><trkpt lat="44.2720310672887" lon="11.392221873697197"><ele>323.79999999999995</ele><time>2026-05-03T07:22:39.978Z</time></trkpt><trkpt lat="44.27198554131087" lon="11.392337945613683"><ele>324.2</ele><time>2026-05-03T07:22:40.979Z</time></trkpt><trkpt lat="44.271958629196995" lon="11.392458453385363"><ele>324.6</ele><time>2026-05-03T07:22:41.979Z</time></trkpt><trkpt lat="44.271893858339126" lon="11.392553360296786"><ele>325.0</ele><time>2026-05-03T07:22:42.978Z</time></trkpt><trkpt lat="44.271865167747215" lon="11.392673123250638"><ele>325.0</ele><time>2026-05-03T07:22:43.978Z</time></trkpt><trkpt lat="44.27184573974566" lon="11.392790196303531"><ele>325.0</ele><time>2026-05-03T07:22:44.978Z</time></trkpt><trkpt lat="44.27186805848583" lon="11.392905153034597"><ele>325.0</ele><time>2026-05-03T07:22:45.977Z</time></trkpt><trkpt lat="44.271933271061876" lon="11.39300343770557"><ele>325.0</ele><time>2026-05-03T07:22:46.978Z</time></trkpt><trkpt lat="44.272023540199335" lon="11.39306463037561"><ele>325.0</ele><time>2026-05-03T07:22:47.978Z</time></trkpt><trkpt lat="44.27212732730441" lon="11.393083371762158"><ele>326.0</ele><time>2026-05-03T07:22:48.978Z</time></trkpt><trkpt lat="44.2722231045961" lon="11.393079857978435"><ele>327.0</ele><time>2026-05-03T07:22:49.978Z</time></trkpt><trkpt lat="44.27229853749771" lon="11.393096187954542"><ele>328.0</ele><time>2026-05-03T07:22:50.978Z</time></trkpt><trkpt lat="44.272282827668874" lon="11.393242567454358"><ele>329.0</ele><time>2026-05-03T07:22:52.978Z</time></trkpt><trkpt lat="44.27221080225342" lon="11.393294414644465"><ele>330.0</ele><time>2026-05-03T07:22:53.978Z</time></trkpt><trkpt lat="44.272135335437795" lon="11.393335371051114"><ele>331.0</ele><time>2026-05-03T07:22:54.978Z</time></trkpt><trkpt lat="44.272054776995766" lon="11.393371178824903"><ele>331.66666666666663</ele><time>2026-05-03T07:22:55.978Z</time></trkpt><trkpt lat="44.2719707051763" lon="11.39339210637951"><ele>332.3333333333333</ele><time>2026-05-03T07:22:56.978Z</time></trkpt><trkpt lat="44.27187982663148" lon="11.393380267351361"><ele>333.0</ele><time>2026-05-03T07:22:57.978Z</time></trkpt><trkpt lat="44.27179159074717" lon="11.393324941318918"><ele>333.6666666666667</ele><time>2026-05-03T07:22:58.978Z</time></trkpt><trkpt lat="44.271703554270566" lon="11.393285421123842"><ele>334.33333333333337</ele><time>2026-05-03T07:22:59.978Z</time></trkpt><trkpt lat="44.27162569616813" lon="11.393313201886755"><ele>335.0</ele><time>2026-05-03T07:23:00.978Z</time></trkpt><trkpt lat="44.2715910608066" lon="11.393398410160184"><ele>335.0</ele><time>2026-05-03T07:23:01.978Z</time></trkpt><trkpt lat="44.27162542948455" lon="11.393500808663251"><ele>335.0</ele><time>2026-05-03T07:23:02.978Z</time></trkpt><trkpt lat="44.27169691637292" lon="11.393597291189897"><ele>335.0</ele><time>2026-05-03T07:23:03.978Z</time></trkpt><trkpt lat="44.27178590927976" lon="11.393615513775037"><ele>335.0</ele><time>2026-05-03T07:23:04.978Z</time></trkpt><trkpt lat="44.271880134723155" lon="11.393608590904927"><ele>335.0</ele><time>2026-05-03T07:23:05.978Z</time></trkpt><trkpt lat="44.271966257639264" lon="11.393656026240592"><ele>335.0</ele><time>2026-05-03T07:23:06.978Z</time></trkpt><trkpt lat="44.27203153800657" lon="11.393743814395386"><ele>335.0</ele><time>2026-05-03T07:23:07.978Z</time></trkpt><trkpt lat="44.272110141155274" lon="11.393788159862977"><ele>335.0</ele><time>2026-05-03T07:23:08.978Z</time></trkpt><trkpt lat="44.272210726394974" lon="11.393784266817265"><ele>335.0</ele><time>2026-05-03T07:23:09.978Z</time></trkpt><trkpt lat="44.272308242983016" lon="11.393757245334026"><ele>335.0</ele><time>2026-05-03T07:23:10.978Z</time></trkpt><trkpt lat="44.272399654365735" lon="11.393731619348252"><ele>334.2</ele><time>2026-05-03T07:23:11.978Z</time></trkpt><trkpt lat="44.27248619372341" lon="11.393729041883349"><ele>333.4</ele><time>2026-05-03T07:23:12.978Z</time></trkpt><trkpt lat="44.27258671478893" lon="11.393754540591713"><ele>332.6</ele><time>2026-05-03T07:23:13.978Z</time></trkpt><trkpt lat="44.27268204342125" lon="11.39380029663206"><ele>331.8</ele><time>2026-05-03T07:23:14.978Z</time></trkpt><trkpt lat="44.27276661652828" lon="11.393876917932042"><ele>331.0</ele><time>2026-05-03T07:23:15.978Z</time></trkpt><trkpt lat="44.272835605210574" lon="11.393975639151545"><ele>334.8</ele><time>2026-05-03T07:23:16.978Z</time></trkpt><trkpt lat="44.27290372961292" lon="11.394077684749723"><ele>338.6</ele><time>2026-05-03T07:23:17.978Z</time></trkpt><trkpt lat="44.27296208322868" lon="11.394193173856905"><ele>342.4</ele><time>2026-05-03T07:23:18.978Z</time></trkpt><trkpt lat="44.27299486866037" lon="11.394324864740714"><ele>346.2</ele><time>2026-05-03T07:23:19.978Z</time></trkpt><trkpt lat="44.273005065049965" lon="11.3944689569381"><ele>350.0</ele><time>2026-05-03T07:23:20.978Z</time></trkpt><trkpt lat="44.27301843942088" lon="11.394607691907527"><ele>353.4</ele><time>2026-05-03T07:23:21.978Z</time></trkpt><trkpt lat="44.27303443313508" lon="11.39474661032065"><ele>356.8</ele><time>2026-05-03T07:23:22.978Z</time></trkpt><trkpt lat="44.27304639335009" lon="11.394883922271667"><ele>360.20000000000005</ele><time>2026-05-03T07:23:23.978Z</time></trkpt><trkpt lat="44.27305950930512" lon="11.395019827231755"><ele>363.6</ele><time>2026-05-03T07:23:24.978Z</time></trkpt><trkpt lat="44.273061125203235" lon="11.395156951886912"><ele>367.0</ele><time>2026-05-03T07:23:25.978Z</time></trkpt><trkpt lat="44.27305238389918" lon="11.395291996860328"><ele>367.0</ele><time>2026-05-03T07:23:26.978Z</time></trkpt><trkpt lat="44.273030937534145" lon="11.395429883319066"><ele>367.0</ele><time>2026-05-03T07:23:27.978Z</time></trkpt><trkpt lat="44.27300031573291" lon="11.395556732591047"><ele>367.0</ele><time>2026-05-03T07:23:28.978Z</time></trkpt><trkpt lat="44.27296769167223" lon="11.395686468051926"><ele>367.0</ele><time>2026-05-03T07:23:29.978Z</time></trkpt><trkpt lat="44.27297395112823" lon="11.395810763062466"><ele>367.0</ele><time>2026-05-03T07:23:30.979Z</time></trkpt><trkpt lat="44.27301666382329" lon="11.395910801617351"><ele>365.8</ele><time>2026-05-03T07:23:31.979Z</time></trkpt><trkpt lat="44.273100154568496" lon="11.395978959342255"><ele>364.6</ele><time>2026-05-03T07:23:32.979Z</time></trkpt><trkpt lat="44.2731992956361" lon="11.395995951199364"><ele>363.40000000000003</ele><time>2026-05-03T07:23:33.979Z</time></trkpt><trkpt lat="44.273298345562814" lon="11.396000500033658"><ele>362.20000000000005</ele><time>2026-05-03T07:23:34.979Z</time></trkpt><trkpt lat="44.27338371798361" lon="11.396020593835793"><ele>361.0</ele><time>2026-05-03T07:23:35.979Z</time></trkpt><trkpt lat="44.27346873383992" lon="11.396054150012597"><ele>361.0</ele><time>2026-05-03T07:23:36.979Z</time></trkpt><trkpt lat="44.27353636960041" lon="11.39612590271135"><ele>361.0</ele><time>2026-05-03T07:23:37.979Z</time></trkpt><trkpt lat="44.27356788039917" lon="11.396241659856578"><ele>361.0</ele><time>2026-05-03T07:23:38.98Z</time></trkpt><trkpt lat="44.27354652907113" lon="11.396347704935135"><ele>361.0</ele><time>2026-05-03T07:23:39.98Z</time></trkpt><trkpt lat="44.2734977332773" lon="11.396455724081799"><ele>361.0</ele><time>2026-05-03T07:23:40.98Z</time></trkpt><trkpt lat="44.273451146303785" lon="11.396560168414341"><ele>361.0</ele><time>2026-05-03T07:23:41.98Z</time></trkpt><trkpt lat="44.273411536534034" lon="11.396659739882336"><ele>363.20000000000005</ele><time>2026-05-03T07:23:42.98Z</time></trkpt><trkpt lat="44.27337956984826" lon="11.396784782117585"><ele>365.40000000000003</ele><time>2026-05-03T07:23:43.98Z</time></trkpt><trkpt lat="44.273356907852616" lon="11.396918203117021"><ele>367.6</ele><time>2026-05-03T07:23:44.98Z</time></trkpt><trkpt lat="44.27334869915894" lon="11.397045348201688"><ele>369.8</ele><time>2026-05-03T07:23:45.98Z</time></trkpt><trkpt lat="44.27337160127111" lon="11.397183966282427"><ele>372.0</ele><time>2026-05-03T07:23:46.98Z</time></trkpt><trkpt lat="44.273411410161316" lon="11.397312124961914"><ele>373.0</ele><time>2026-05-03T07:23:47.98Z</time></trkpt><trkpt lat="44.273447764142226" lon="11.397440636497885"><ele>374.0</ele><time>2026-05-03T07:23:48.98Z</time></trkpt><trkpt lat="44.27347864936307" lon="11.397572605268573"><ele>375.0</ele><time>2026-05-03T07:23:49.98Z</time></trkpt><trkpt lat="44.27351066206533" lon="11.39770159016817"><ele>376.0</ele><time>2026-05-03T07:23:50.98Z</time></trkpt><trkpt lat="44.27354069489889" lon="11.397845142544236"><ele>377.0</ele><time>2026-05-03T07:23:51.98Z</time></trkpt><trkpt lat="44.27353617495576" lon="11.397980341070362"><ele>377.0</ele><time>2026-05-03T07:23:52.98Z</time></trkpt><trkpt lat="44.2734808869275" lon="11.398104138535247"><ele>377.0</ele><time>2026-05-03T07:23:53.98Z</time></trkpt><trkpt lat="44.27341628180563" lon="11.39819627576444"><ele>377.0</ele><time>2026-05-03T07:23:54.98Z</time></trkpt><trkpt lat="44.27334090540687" lon="11.398285805976746"><ele>377.0</ele><time>2026-05-03T07:23:55.98Z</time></trkpt><trkpt lat="44.273277334575496" lon="11.39836135532851"><ele>377.0</ele><time>2026-05-03T07:23:56.98Z</time></trkpt><trkpt lat="44.273198066698114" lon="11.39845217198433"><ele>377.0</ele><time>2026-05-03T07:23:57.98Z</time></trkpt><trkpt lat="44.27313163993007" lon="11.398557721595541"><ele>377.0</ele><time>2026-05-03T07:23:58.981Z</time></trkpt><trkpt lat="44.273049409564656" lon="11.398630321369039"><ele>377.0</ele><time>2026-05-03T07:23:59.981Z</time></trkpt><trkpt lat="44.272977017331314" lon="11.398717429241477"><ele>377.0</ele><time>2026-05-03T07:24:00.981Z</time></trkpt><trkpt lat="44.272898768373864" lon="11.398804680597705"><ele>377.0</ele><time>2026-05-03T07:24:01.981Z</time></trkpt><trkpt lat="44.27282207824384" lon="11.398893081411895"><ele>378.8</ele><time>2026-05-03T07:24:02.981Z</time></trkpt><trkpt lat="44.27274429311229" lon="11.398976436007173"><ele>380.6</ele><time>2026-05-03T07:24:03.981Z</time></trkpt><trkpt lat="44.27266751245344" lon="11.39906261417533"><ele>382.40000000000003</ele><time>2026-05-03T07:24:04.981Z</time></trkpt><trkpt lat="44.27258862392418" lon="11.399142973454872"><ele>384.20000000000005</ele><time>2026-05-03T07:24:05.981Z</time></trkpt><trkpt lat="44.272511229071085" lon="11.39923245009999"><ele>386.0</ele><time>2026-05-03T07:24:06.981Z</time></trkpt><trkpt lat="44.272441929897475" lon="11.399326900689625"><ele>386.0</ele><time>2026-05-03T07:24:07.981Z</time></trkpt><trkpt lat="44.27237045066203" lon="11.39941750448995"><ele>386.0</ele><time>2026-05-03T07:24:08.981Z</time></trkpt><trkpt lat="44.27230430666405" lon="11.399518140141467"><ele>386.0</ele><time>2026-05-03T07:24:09.981Z</time></trkpt><trkpt lat="44.272244626753945" lon="11.399630905866792"><ele>386.0</ele><time>2026-05-03T07:24:10.981Z</time></trkpt><trkpt lat="44.27222226908714" lon="11.399771930999945"><ele>386.0</ele><time>2026-05-03T07:24:11.981Z</time></trkpt><trkpt lat="44.272230106448525" lon="11.399926784680323"><ele>385.6</ele><time>2026-05-03T07:24:12.981Z</time></trkpt><trkpt lat="44.272257590106236" lon="11.40007150030983"><ele>385.20000000000005</ele><time>2026-05-03T07:24:13.981Z</time></trkpt><trkpt lat="44.27231940547401" lon="11.400199844358482"><ele>384.79999999999995</ele><time>2026-05-03T07:24:14.981Z</time></trkpt><trkpt lat="44.27237390782202" lon="11.400310350788056"><ele>384.4</ele><time>2026-05-03T07:24:15.981Z</time></trkpt><trkpt lat="44.27242751409471" lon="11.400426614639452"><ele>384.0</ele><time>2026-05-03T07:24:16.981Z</time></trkpt><trkpt lat="44.272471272026394" lon="11.400545156444313"><ele>384.79999999999995</ele><time>2026-05-03T07:24:17.981Z</time></trkpt><trkpt lat="44.272500921662996" lon="11.400667450684553"><ele>385.59999999999997</ele><time>2026-05-03T07:24:18.981Z</time></trkpt><trkpt lat="44.27250703894611" lon="11.400797880819125"><ele>386.4</ele><time>2026-05-03T07:24:19.981Z</time></trkpt><trkpt lat="44.27250415473184" lon="11.400930882842879"><ele>387.2</ele><time>2026-05-03T07:24:20.981Z</time></trkpt><trkpt lat="44.27245583245554" lon="11.401048884016056"><ele>388.0</ele><time>2026-05-03T07:24:21.981Z</time></trkpt><trkpt lat="44.272402779150156" lon="11.401150015465863"><ele>388.0</ele><time>2026-05-03T07:24:22.981Z</time></trkpt><trkpt lat="44.272340255028375" lon="11.401246805925464"><ele>388.0</ele><time>2026-05-03T07:24:23.981Z</time></trkpt><trkpt lat="44.272252065748724" lon="11.401301074054297"><ele>388.0</ele><time>2026-05-03T07:24:24.981Z</time></trkpt><trkpt lat="44.27215317074033" lon="11.401338579093622"><ele>388.0</ele><time>2026-05-03T07:24:25.981Z</time></trkpt><trkpt lat="44.27206258026067" lon="11.401379211707537"><ele>388.0</ele><time>2026-05-03T07:24:26.981Z</time></trkpt><trkpt lat="44.271962949893165" lon="11.401423116506868"><ele>389.79999999999995</ele><time>2026-05-03T07:24:27.981Z</time></trkpt><trkpt lat="44.27186912473171" lon="11.401465148835182"><ele>391.6</ele><time>2026-05-03T07:24:28.981Z</time></trkpt><trkpt lat="44.2717773344427" lon="11.401506348390807"><ele>393.4</ele><time>2026-05-03T07:24:29.981Z</time></trkpt><trkpt lat="44.27168368175889" lon="11.401549580214736"><ele>395.20000000000005</ele><time>2026-05-03T07:24:30.981Z</time></trkpt><trkpt lat="44.27158966299568" lon="11.401593523576812"><ele>397.0</ele><time>2026-05-03T07:24:31.981Z</time></trkpt><trkpt lat="44.27149646866" lon="11.40162803922092"><ele>400.8</ele><time>2026-05-03T07:24:32.981Z</time></trkpt><trkpt lat="44.271414504052665" lon="11.401700193884553"><ele>404.6</ele><time>2026-05-03T07:24:33.981Z</time></trkpt><trkpt lat="44.271328440330485" lon="11.401777587296527"><ele>408.40000000000003</ele><time>2026-05-03T07:24:34.981Z</time></trkpt><trkpt lat="44.27128196043006" lon="11.401906782054436"><ele>412.20000000000005</ele><time>2026-05-03T07:24:35.981Z</time></trkpt><trkpt lat="44.27123097361565" lon="11.402027378360941"><ele>416.0</ele><time>2026-05-03T07:24:36.981Z</time></trkpt><trkpt lat="44.27117385452186" lon="11.402155613071708"><ele>413.6</ele><time>2026-05-03T07:24:37.981Z</time></trkpt><trkpt lat="44.271107313801416" lon="11.402250364488305"><ele>411.20000000000005</ele><time>2026-05-03T07:24:38.981Z</time></trkpt><trkpt lat="44.27101890248384" lon="11.402320114760872"><ele>408.79999999999995</ele><time>2026-05-03T07:24:39.98Z</time></trkpt><trkpt lat="44.270919974024295" lon="11.402368071476719"><ele>406.4</ele><time>2026-05-03T07:24:40.98Z</time></trkpt><trkpt lat="44.270823206905604" lon="11.402392182676873"><ele>404.0</ele><time>2026-05-03T07:24:41.98Z</time></trkpt><trkpt lat="44.270726508628165" lon="11.402395529805455"><ele>403.99999999999994</ele><time>2026-05-03T07:24:42.98Z</time></trkpt><trkpt lat="44.27063492537837" lon="11.402393314925627"><ele>404.0</ele><time>2026-05-03T07:24:43.98Z</time></trkpt><trkpt lat="44.27054796011221" lon="11.402405391358672"><ele>404.0</ele><time>2026-05-03T07:24:44.98Z</time></trkpt><trkpt lat="44.27046742078945" lon="11.402454101003984"><ele>404.0</ele><time>2026-05-03T07:24:45.98Z</time></trkpt><trkpt lat="44.27039443690701" lon="11.402532828778433"><ele>403.99999999999994</ele><time>2026-05-03T07:24:46.98Z</time></trkpt><trkpt lat="44.270347119813536" lon="11.402629820905856"><ele>404.0</ele><time>2026-05-03T07:24:47.98Z</time></trkpt><trkpt lat="44.270305495720834" lon="11.402748200357577"><ele>407.2</ele><time>2026-05-03T07:24:48.98Z</time></trkpt><trkpt lat="44.27028002975846" lon="11.402875749847071"><ele>410.4</ele><time>2026-05-03T07:24:49.98Z</time></trkpt><trkpt lat="44.27028928653617" lon="11.403022409101418"><ele>413.6</ele><time>2026-05-03T07:24:50.98Z</time></trkpt><trkpt lat="44.27032765804341" lon="11.403147294312452"><ele>416.8</ele><time>2026-05-03T07:24:51.98Z</time></trkpt><trkpt lat="44.27039744733256" lon="11.40324529562935"><ele>420.0</ele><time>2026-05-03T07:24:52.98Z</time></trkpt><trkpt lat="44.2704581077457" lon="11.403356427825747"><ele>420.2</ele><time>2026-05-03T07:24:53.98Z</time></trkpt><trkpt lat="44.270513447497414" lon="11.403456264623072"><ele>420.4</ele><time>2026-05-03T07:24:54.98Z</time></trkpt><trkpt lat="44.270573030751585" lon="11.403564666088503"><ele>420.6</ele><time>2026-05-03T07:24:55.98Z</time></trkpt><trkpt lat="44.27062954253939" lon="11.403655742812292"><ele>420.8</ele><time>2026-05-03T07:24:56.98Z</time></trkpt><trkpt lat="44.27068448309543" lon="11.403761196113615"><ele>421.0</ele><time>2026-05-03T07:24:57.98Z</time></trkpt><trkpt lat="44.27074931826474" lon="11.403863562055434"><ele>421.00000000000006</ele><time>2026-05-03T07:24:58.98Z</time></trkpt><trkpt lat="44.27082253255947" lon="11.403950769942941"><ele>421.0</ele><time>2026-05-03T07:24:59.98Z</time></trkpt><trkpt lat="44.27089526187905" lon="11.404015727265843"><ele>421.0</ele><time>2026-05-03T07:25:00.98Z</time></trkpt><trkpt lat="44.27097531071833" lon="11.404053634023613"><ele>421.0</ele><time>2026-05-03T07:25:01.98Z</time></trkpt><trkpt lat="44.27106979247813" lon="11.404042804474562"><ele>421.00000000000006</ele><time>2026-05-03T07:25:02.98Z</time></trkpt><trkpt lat="44.271155280577375" lon="11.40402874944651"><ele>421.0</ele><time>2026-05-03T07:25:03.98Z</time></trkpt><trkpt lat="44.27123174691338" lon="11.404002382875676"><ele>421.00000000000006</ele><time>2026-05-03T07:25:04.98Z</time></trkpt><trkpt lat="44.27130101974687" lon="11.404074660134123"><ele>421.0</ele><time>2026-05-03T07:25:05.98Z</time></trkpt><trkpt lat="44.27133766771906" lon="11.404181024539383"><ele>421.0</ele><time>2026-05-03T07:25:06.98Z</time></trkpt><trkpt lat="44.27132031882177" lon="11.404296057370345"><ele>421.0</ele><time>2026-05-03T07:25:07.98Z</time></trkpt><trkpt lat="44.271274288720946" lon="11.404358681958298"><ele>421.00000000000006</ele><time>2026-05-03T07:25:08.98Z</time></trkpt><trkpt lat="44.271202939892234" lon="11.40440284741716"><ele>421.0</ele><time>2026-05-03T07:25:09.98Z</time></trkpt><trkpt lat="44.271125933317194" lon="11.404408850457227"><ele>421.00000000000006</ele><time>2026-05-03T07:25:10.98Z</time></trkpt><trkpt lat="44.27104790129175" lon="11.404411672434957"><ele>421.0</ele><time>2026-05-03T07:25:11.98Z</time></trkpt><trkpt lat="44.27095926610872" lon="11.404411999424608"><ele>421.0</ele><time>2026-05-03T07:25:12.98Z</time></trkpt><trkpt lat="44.27087171260648" lon="11.40439975816741"><ele>421.0</ele><time>2026-05-03T07:25:13.98Z</time></trkpt><trkpt lat="44.27078226781364" lon="11.404403922263656"><ele>421.00000000000006</ele><time>2026-05-03T07:25:14.98Z</time></trkpt><trkpt lat="44.27068925712451" lon="11.404402642194242"><ele>421.0</ele><time>2026-05-03T07:25:15.98Z</time></trkpt><trkpt lat="44.270598592254785" lon="11.404371545195028"><ele>424.6</ele><time>2026-05-03T07:25:16.98Z</time></trkpt><trkpt lat="44.27050814821365" lon="11.40433605330105"><ele>428.20000000000005</ele><time>2026-05-03T07:25:17.98Z</time></trkpt><trkpt lat="44.270418550628335" lon="11.404310128995922"><ele>431.79999999999995</ele><time>2026-05-03T07:25:18.98Z</time></trkpt><trkpt lat="44.27032583761425" lon="11.404293009809306"><ele>435.4</ele><time>2026-05-03T07:25:19.98Z</time></trkpt><trkpt lat="44.27023201784745" lon="11.404252312854858"><ele>439.0</ele><time>2026-05-03T07:25:20.98Z</time></trkpt><trkpt lat="44.27013493256395" lon="11.404210652629926"><ele>439.0</ele><time>2026-05-03T07:25:21.98Z</time></trkpt><trkpt lat="44.27003929571935" lon="11.404171237678542"><ele>439.0</ele><time>2026-05-03T07:25:22.98Z</time></trkpt><trkpt lat="44.26994502489122" lon="11.404128119363326"><ele>439.0</ele><time>2026-05-03T07:25:23.98Z</time></trkpt><trkpt lat="44.26986378834759" lon="11.40404800934878"><ele>439.0</ele><time>2026-05-03T07:25:24.98Z</time></trkpt><trkpt lat="44.26980161929475" lon="11.403947433642603"><ele>439.0</ele><time>2026-05-03T07:25:25.98Z</time></trkpt><trkpt lat="44.26975118083205" lon="11.403841064062004"><ele>440.79999999999995</ele><time>2026-05-03T07:25:26.98Z</time></trkpt><trkpt lat="44.26968325338339" lon="11.403740741722263"><ele>442.59999999999997</ele><time>2026-05-03T07:25:27.98Z</time></trkpt><trkpt lat="44.269590682481024" lon="11.40368502564624"><ele>444.4</ele><time>2026-05-03T07:25:28.98Z</time></trkpt><trkpt lat="44.26948964464081" lon="11.403666315319775"><ele>446.2</ele><time>2026-05-03T07:25:29.98Z</time></trkpt><trkpt lat="44.26939037577294" lon="11.403663260478657"><ele>448.0</ele><time>2026-05-03T07:25:30.98Z</time></trkpt><trkpt lat="44.269290086947436" lon="11.403653611655853"><ele>448.0</ele><time>2026-05-03T07:25:31.98Z</time></trkpt><trkpt lat="44.269196319897034" lon="11.403639967043755"><ele>447.99999999999994</ele><time>2026-05-03T07:25:32.98Z</time></trkpt><trkpt lat="44.26910850536972" lon="11.403628687617172"><ele>447.99999999999994</ele><time>2026-05-03T07:25:33.98Z</time></trkpt><trkpt lat="44.26901115251553" lon="11.403611207704852"><ele>448.0</ele><time>2026-05-03T07:25:34.98Z</time></trkpt><trkpt lat="44.26891196229386" lon="11.403578900310723"><ele>448.0</ele><time>2026-05-03T07:25:35.98Z</time></trkpt><trkpt lat="44.26882117548422" lon="11.403567407945165"><ele>451.0</ele><time>2026-05-03T07:25:36.98Z</time></trkpt><trkpt lat="44.26872044208216" lon="11.403552637971936"><ele>453.99999999999994</ele><time>2026-05-03T07:25:37.98Z</time></trkpt><trkpt lat="44.2686241369635" lon="11.403533378878128"><ele>456.99999999999994</ele><time>2026-05-03T07:25:38.98Z</time></trkpt><trkpt lat="44.26853880799088" lon="11.403489037158538"><ele>460.0</ele><time>2026-05-03T07:25:39.98Z</time></trkpt><trkpt lat="44.26846538473928" lon="11.4034144425815"><ele>463.0</ele><time>2026-05-03T07:25:40.98Z</time></trkpt><trkpt lat="44.26840487568891" lon="11.403302392220258"><ele>463.0</ele><time>2026-05-03T07:25:41.98Z</time></trkpt><trkpt lat="44.26836747642893" lon="11.403182205237718"><ele>462.99999999999994</ele><time>2026-05-03T07:25:42.98Z</time></trkpt><trkpt lat="44.268314151089044" lon="11.403064405539602"><ele>462.99999999999994</ele><time>2026-05-03T07:25:43.98Z</time></trkpt><trkpt lat="44.268278819170696" lon="11.402927489657817"><ele>463.0</ele><time>2026-05-03T07:25:44.98Z</time></trkpt><trkpt lat="44.26825696772442" lon="11.40279765941082"><ele>463.0</ele><time>2026-05-03T07:25:45.98Z</time></trkpt><trkpt lat="44.268222568756656" lon="11.40267785057845"><ele>461.2</ele><time>2026-05-03T07:25:46.98Z</time></trkpt><trkpt lat="44.26817753927305" lon="11.402554399762241"><ele>459.4</ele><time>2026-05-03T07:25:47.98Z</time></trkpt><trkpt lat="44.26811270898789" lon="11.402464562675716"><ele>457.59999999999997</ele><time>2026-05-03T07:25:48.98Z</time></trkpt><trkpt lat="44.26805908500548" lon="11.402366958178362"><ele>455.79999999999995</ele><time>2026-05-03T07:25:49.98Z</time></trkpt><trkpt lat="44.26796006818115" lon="11.402300355337116"><ele>454.0</ele><time>2026-05-03T07:25:50.98Z</time></trkpt><trkpt lat="44.267867024802534" lon="11.402262104113156"><ele>456.79999999999995</ele><time>2026-05-03T07:25:51.98Z</time></trkpt><trkpt lat="44.267759352767" lon="11.402288338049129"><ele>459.59999999999997</ele><time>2026-05-03T07:25:52.98Z</time></trkpt><trkpt lat="44.267663497178475" lon="11.402279356194702"><ele>462.4</ele><time>2026-05-03T07:25:53.98Z</time></trkpt><trkpt lat="44.26756346918448" lon="11.402253700200562"><ele>465.2</ele><time>2026-05-03T07:25:54.98Z</time></trkpt><trkpt lat="44.267480475836926" lon="11.402187283634419"><ele>468.0</ele><time>2026-05-03T07:25:55.98Z</time></trkpt><trkpt lat="44.267416533763" lon="11.402094794834127"><ele>468.0</ele><time>2026-05-03T07:25:56.98Z</time></trkpt><trkpt lat="44.26738462165327" lon="11.401975305957516"><ele>467.99999999999994</ele><time>2026-05-03T07:25:57.98Z</time></trkpt><trkpt lat="44.26736281427327" lon="11.401851793518324"><ele>467.99999999999994</ele><time>2026-05-03T07:25:58.98Z</time></trkpt><trkpt lat="44.26735099839975" lon="11.401726060465018"><ele>468.0</ele><time>2026-05-03T07:25:59.98Z</time></trkpt><trkpt lat="44.26731512273591" lon="11.401591843042091"><ele>468.0</ele><time>2026-05-03T07:26:00.98Z</time></trkpt><trkpt lat="44.26728364047144" lon="11.401461391850114"><ele>471.0</ele><time>2026-05-03T07:26:01.98Z</time></trkpt><trkpt lat="44.26725018393296" lon="11.401332230983492"><ele>473.99999999999994</ele><time>2026-05-03T07:26:02.98Z</time></trkpt><trkpt lat="44.267176650656246" lon="11.401244853304693"><ele>476.99999999999994</ele><time>2026-05-03T07:26:03.98Z</time></trkpt><trkpt lat="44.26710093136606" lon="11.401151751273941"><ele>480.0</ele><time>2026-05-03T07:26:04.98Z</time></trkpt><trkpt lat="44.26703728059082" lon="11.401043639115954"><ele>483.0</ele><time>2026-05-03T07:26:05.98Z</time></trkpt><trkpt lat="44.26699816433705" lon="11.40091809281346"><ele>483.0</ele><time>2026-05-03T07:26:06.98Z</time></trkpt><trkpt lat="44.26700518639839" lon="11.400773650673676"><ele>482.99999999999994</ele><time>2026-05-03T07:26:07.98Z</time></trkpt><trkpt lat="44.267043374412346" lon="11.400649273080287"><ele>482.99999999999994</ele><time>2026-05-03T07:26:08.98Z</time></trkpt><trkpt lat="44.267089378879064" lon="11.400532329949316"><ele>483.0</ele><time>2026-05-03T07:26:09.98Z</time></trkpt><trkpt lat="44.267137764139356" lon="11.400424761550516"><ele>483.0</ele><time>2026-05-03T07:26:10.98Z</time></trkpt><trkpt lat="44.26719254189158" lon="11.400318821226145"><ele>483.2</ele><time>2026-05-03T07:26:11.98Z</time></trkpt><trkpt lat="44.26724357495537" lon="11.400197807577136"><ele>483.4</ele><time>2026-05-03T07:26:12.98Z</time></trkpt><trkpt lat="44.267301665715934" lon="11.400077745584149"><ele>483.59999999999997</ele><time>2026-05-03T07:26:13.98Z</time></trkpt><trkpt lat="44.2673703493788" lon="11.399974665116764"><ele>483.79999999999995</ele><time>2026-05-03T07:26:14.98Z</time></trkpt><trkpt lat="44.267449175694686" lon="11.399887369805384"><ele>484.0</ele><time>2026-05-03T07:26:15.98Z</time></trkpt><trkpt lat="44.26753215329357" lon="11.399813827932217"><ele>484.0</ele><time>2026-05-03T07:26:16.98Z</time></trkpt><trkpt lat="44.26761415358606" lon="11.399735498172443"><ele>484.0</ele><time>2026-05-03T07:26:17.98Z</time></trkpt><trkpt lat="44.26768201790195" lon="11.399644851800975"><ele>484.0</ele><time>2026-05-03T07:26:18.98Z</time></trkpt><trkpt lat="44.26774176480644" lon="11.39954531181687"><ele>484.0</ele><time>2026-05-03T07:26:19.98Z</time></trkpt><trkpt lat="44.267759763168364" lon="11.399416560464914"><ele>484.0</ele><time>2026-05-03T07:26:20.98Z</time></trkpt><trkpt lat="44.267736857582555" lon="11.39927453890555"><ele>484.6666666666667</ele><time>2026-05-03T07:26:21.98Z</time></trkpt><trkpt lat="44.26767378449134" lon="11.399161731949468"><ele>485.33333333333337</ele><time>2026-05-03T07:26:22.98Z</time></trkpt><trkpt lat="44.26758554534979" lon="11.399102667919381"><ele>486.0</ele><time>2026-05-03T07:26:23.98Z</time></trkpt><trkpt lat="44.267500473087146" lon="11.399094415404294"><ele>486.66666666666663</ele><time>2026-05-03T07:26:24.98Z</time></trkpt><trkpt lat="44.26742111882453" lon="11.399104063368231"><ele>487.3333333333333</ele><time>2026-05-03T07:26:25.98Z</time></trkpt><trkpt lat="44.26737228370765" lon="11.399172900162682"><ele>488.0</ele><time>2026-05-03T07:26:26.98Z</time></trkpt><trkpt lat="44.26731769703246" lon="11.399243509393704"><ele>488.2</ele><time>2026-05-03T07:26:27.98Z</time></trkpt><trkpt lat="44.26725024269821" lon="11.3993108523257"><ele>488.4</ele><time>2026-05-03T07:26:28.98Z</time></trkpt><trkpt lat="44.26717549923486" lon="11.399428000329724"><ele>488.59999999999997</ele><time>2026-05-03T07:26:29.98Z</time></trkpt><trkpt lat="44.26713183835511" lon="11.399493074438226"><ele>488.79999999999995</ele><time>2026-05-03T07:26:30.98Z</time></trkpt><trkpt lat="44.26705668846859" lon="11.399596629993777"><ele>489.0</ele><time>2026-05-03T07:26:31.98Z</time></trkpt><trkpt lat="44.26698483644103" lon="11.399706709278192"><ele>489.0</ele><time>2026-05-03T07:26:32.98Z</time></trkpt><trkpt lat="44.26690759423824" lon="11.399812723601638"><ele>489.0</ele><time>2026-05-03T07:26:33.98Z</time></trkpt><trkpt lat="44.26681972046444" lon="11.399909932987457"><ele>489.0</ele><time>2026-05-03T07:26:34.98Z</time></trkpt><trkpt lat="44.266732959228676" lon="11.40000232865122"><ele>489.0</ele><time>2026-05-03T07:26:35.98Z</time></trkpt><trkpt lat="44.266645393563294" lon="11.400077170861291"><ele>489.0</ele><time>2026-05-03T07:26:36.98Z</time></trkpt><trkpt lat="44.266542393564905" lon="11.40010430176971"><ele>490.79999999999995</ele><time>2026-05-03T07:26:37.98Z</time></trkpt><trkpt lat="44.26643876352923" lon="11.400150582958641"><ele>492.59999999999997</ele><time>2026-05-03T07:26:38.98Z</time></trkpt><trkpt lat="44.2663313581844" lon="11.400124586873451"><ele>494.4</ele><time>2026-05-03T07:26:39.98Z</time></trkpt><trkpt lat="44.266226940433235" lon="11.400135461702192"><ele>496.2</ele><time>2026-05-03T07:26:40.98Z</time></trkpt><trkpt lat="44.26612730329671" lon="11.400131918149912"><ele>498.0</ele><time>2026-05-03T07:26:41.98Z</time></trkpt><trkpt lat="44.266033245424076" lon="11.400108109882867"><ele>498.0</ele><time>2026-05-03T07:26:42.98Z</time></trkpt><trkpt lat="44.265949426002216" lon="11.400063637892567"><ele>497.99999999999994</ele><time>2026-05-03T07:26:43.98Z</time></trkpt><trkpt lat="44.265871520129856" lon="11.399993032598065"><ele>497.99999999999994</ele><time>2026-05-03T07:26:44.98Z</time></trkpt><trkpt lat="44.265796285370904" lon="11.399915411160865"><ele>498.0</ele><time>2026-05-03T07:26:45.979Z</time></trkpt><trkpt lat="44.26571818516388" lon="11.39983368584156"><ele>498.0</ele><time>2026-05-03T07:26:46.979Z</time></trkpt><trkpt lat="44.2656426603562" lon="11.399754654998702"><ele>498.0</ele><time>2026-05-03T07:26:47.979Z</time></trkpt><trkpt lat="44.265566855181525" lon="11.399675332324001"><ele>497.99999999999994</ele><time>2026-05-03T07:26:48.979Z</time></trkpt><trkpt lat="44.26549013328419" lon="11.399595208958837"><ele>497.99999999999994</ele><time>2026-05-03T07:26:49.979Z</time></trkpt><trkpt lat="44.26540202244643" lon="11.399537801503579"><ele>498.0</ele><time>2026-05-03T07:26:50.979Z</time></trkpt><trkpt lat="44.26531488285955" lon="11.399484508982031"><ele>498.0</ele><time>2026-05-03T07:26:51.979Z</time></trkpt><trkpt lat="44.26522589056272" lon="11.39947194702486"><ele>498.0</ele><time>2026-05-03T07:26:52.979Z</time></trkpt><trkpt lat="44.26513584360647" lon="11.399521462124568"><ele>498.0</ele><time>2026-05-03T07:26:53.979Z</time></trkpt><trkpt lat="44.265071970385684" lon="11.399602842831289"><ele>498.0</ele><time>2026-05-03T07:26:54.979Z</time></trkpt><trkpt lat="44.26499809121915" lon="11.399637212498611"><ele>498.0</ele><time>2026-05-03T07:26:55.979Z</time></trkpt><trkpt lat="44.26493322708563" lon="11.39969981240769"><ele>498.0</ele><time>2026-05-03T07:26:56.979Z</time></trkpt><trkpt lat="44.26485818645054" lon="11.399766577091457"><ele>498.0</ele><time>2026-05-03T07:26:57.979Z</time></trkpt><trkpt lat="44.264775115355235" lon="11.399834850282906"><ele>500.0</ele><time>2026-05-03T07:26:58.979Z</time></trkpt><trkpt lat="44.26468888013137" lon="11.399892476303947"><ele>502.0</ele><time>2026-05-03T07:26:59.979Z</time></trkpt><trkpt lat="44.26460817583683" lon="11.399949712669319"><ele>504.0</ele><time>2026-05-03T07:27:00.979Z</time></trkpt><trkpt lat="44.2645309554747" lon="11.400006381732915"><ele>506.0</ele><time>2026-05-03T07:27:01.979Z</time></trkpt><trkpt lat="44.26444697594477" lon="11.40005416943746"><ele>508.0</ele><time>2026-05-03T07:27:02.979Z</time></trkpt><trkpt lat="44.264376515322844" lon="11.400116350176557"><ele>510.0</ele><time>2026-05-03T07:27:03.979Z</time></trkpt><trkpt lat="44.2643129211873" lon="11.400229795583915"><ele>510.0</ele><time>2026-05-03T07:27:04.979Z</time></trkpt><trkpt lat="44.264286978926926" lon="11.400356602673341"><ele>510.0</ele><time>2026-05-03T07:27:05.979Z</time></trkpt><trkpt lat="44.26429455106668" lon="11.400485443135029"><ele>510.0</ele><time>2026-05-03T07:27:06.979Z</time></trkpt><trkpt lat="44.2643347352532" lon="11.400593649102522"><ele>510.0</ele><time>2026-05-03T07:27:07.979Z</time></trkpt><trkpt lat="44.26437605218569" lon="11.400712286522118"><ele>510.0</ele><time>2026-05-03T07:27:08.979Z</time></trkpt><trkpt lat="44.2644373205216" lon="11.40080218365263"><ele>511.6666666666667</ele><time>2026-05-03T07:27:09.979Z</time></trkpt><trkpt lat="44.26449377263324" lon="11.400892170684497"><ele>513.3333333333334</ele><time>2026-05-03T07:27:10.979Z</time></trkpt><trkpt lat="44.264515178875" lon="11.401003810775517"><ele>515.0</ele><time>2026-05-03T07:27:11.979Z</time></trkpt><trkpt lat="44.26451346071028" lon="11.401125448698412"><ele>516.6666666666667</ele><time>2026-05-03T07:27:12.979Z</time></trkpt><trkpt lat="44.26449548397888" lon="11.401250297060727"><ele>518.3333333333334</ele><time>2026-05-03T07:27:13.979Z</time></trkpt><trkpt lat="44.264452324128655" lon="11.401348214436497"><ele>520.0</ele><time>2026-05-03T07:27:14.979Z</time></trkpt><trkpt lat="44.26441002156899" lon="11.401468124749998"><ele>522.4</ele><time>2026-05-03T07:27:15.979Z</time></trkpt><trkpt lat="44.26434322197073" lon="11.40155879567444"><ele>524.8</ele><time>2026-05-03T07:27:16.979Z</time></trkpt><trkpt lat="44.26428887231744" lon="11.401671373428577"><ele>527.2</ele><time>2026-05-03T07:27:17.979Z</time></trkpt><trkpt lat="44.26424415472223" lon="11.401793930514076"><ele>529.6</ele><time>2026-05-03T07:27:18.979Z</time></trkpt><trkpt lat="44.26417644040414" lon="11.401887159813281"><ele>532.0</ele><time>2026-05-03T07:27:19.979Z</time></trkpt><trkpt lat="44.26412189112793" lon="11.40199101005504"><ele>532.0</ele><time>2026-05-03T07:27:20.979Z</time></trkpt><trkpt lat="44.264082577905405" lon="11.402101404842627"><ele>532.0</ele><time>2026-05-03T07:27:21.979Z</time></trkpt><trkpt lat="44.264028022249036" lon="11.402198951883461"><ele>532.0</ele><time>2026-05-03T07:27:22.979Z</time></trkpt><trkpt lat="44.2639903973485" lon="11.402312455488754"><ele>532.0</ele><time>2026-05-03T07:27:23.979Z</time></trkpt><trkpt lat="44.26394439000002" lon="11.402410936438773"><ele>532.0</ele><time>2026-05-03T07:27:24.979Z</time></trkpt><trkpt lat="44.263906301483345" lon="11.402500181684054"><ele>532.0</ele><time>2026-05-03T07:27:25.979Z</time></trkpt><trkpt lat="44.26387830295127" lon="11.402587134938699"><ele>534.0</ele><time>2026-05-03T07:27:26.979Z</time></trkpt><trkpt lat="44.263862717561615" lon="11.402679219101223"><ele>536.0</ele><time>2026-05-03T07:27:27.979Z</time></trkpt><trkpt lat="44.26386594072197" lon="11.402773319344355"><ele>538.0</ele><time>2026-05-03T07:27:28.979Z</time></trkpt><trkpt lat="44.26384797247936" lon="11.40286786824463"><ele>540.0</ele><time>2026-05-03T07:27:29.979Z</time></trkpt><trkpt lat="44.263867430526545" lon="11.402978466637514"><ele>542.0</ele><time>2026-05-03T07:27:30.979Z</time></trkpt><trkpt lat="44.26387103350397" lon="11.403095681436664"><ele>544.0</ele><time>2026-05-03T07:27:31.979Z</time></trkpt><trkpt lat="44.26388069775855" lon="11.403218948935407"><ele>544.6</ele><time>2026-05-03T07:27:32.979Z</time></trkpt><trkpt lat="44.26390207220449" lon="11.403345812677372"><ele>545.2</ele><time>2026-05-03T07:27:33.979Z</time></trkpt><trkpt lat="44.26392645491185" lon="11.403474832032474"><ele>545.8000000000001</ele><time>2026-05-03T07:27:34.979Z</time></trkpt><trkpt lat="44.26394402890324" lon="11.403614361092703"><ele>546.4</ele><time>2026-05-03T07:27:35.979Z</time></trkpt><trkpt lat="44.26397376061674" lon="11.403752840188929"><ele>547.0</ele><time>2026-05-03T07:27:36.979Z</time></trkpt><trkpt lat="44.26400028571926" lon="11.403896794958039"><ele>544.2</ele><time>2026-05-03T07:27:37.979Z</time></trkpt><trkpt lat="44.26402287675059" lon="11.404043602990198"><ele>541.4000000000001</ele><time>2026-05-03T07:27:38.979Z</time></trkpt><trkpt lat="44.264054830807815" lon="11.404194965794566"><ele>538.5999999999999</ele><time>2026-05-03T07:27:39.979Z</time></trkpt><trkpt lat="44.26408721860545" lon="11.404337568627964"><ele>535.8</ele><time>2026-05-03T07:27:40.979Z</time></trkpt><trkpt lat="44.26412523618683" lon="11.404477112340908"><ele>533.0</ele><time>2026-05-03T07:27:41.979Z</time></trkpt><trkpt lat="44.2641724760441" lon="11.404608045041154"><ele>534.8</ele><time>2026-05-03T07:27:42.979Z</time></trkpt><trkpt lat="44.26423620675178" lon="11.404727997431486"><ele>536.5999999999999</ele><time>2026-05-03T07:27:43.979Z</time></trkpt><trkpt lat="44.26430854581568" lon="11.404844363277817"><ele>538.4000000000001</ele><time>2026-05-03T07:27:44.979Z</time></trkpt><trkpt lat="44.2643803132539" lon="11.404955782776867"><ele>540.2</ele><time>2026-05-03T07:27:45.979Z</time></trkpt><trkpt lat="44.26443841288581" lon="11.405083010852026"><ele>542.0</ele><time>2026-05-03T07:27:46.979Z</time></trkpt><trkpt lat="44.264471902200356" lon="11.40521925195554"><ele>542.0</ele><time>2026-05-03T07:27:47.979Z</time></trkpt><trkpt lat="44.264476709098425" lon="11.405366551277826"><ele>542.0</ele><time>2026-05-03T07:27:48.979Z</time></trkpt><trkpt lat="44.2644530489488" lon="11.40550649565042"><ele>542.0</ele><time>2026-05-03T07:27:49.979Z</time></trkpt><trkpt lat="44.26441750989255" lon="11.405650509999338"><ele>542.0</ele><time>2026-05-03T07:27:50.979Z</time></trkpt><trkpt lat="44.26437827666438" lon="11.4057851103925"><ele>542.0</ele><time>2026-05-03T07:27:51.979Z</time></trkpt><trkpt lat="44.26434594170295" lon="11.405923176952427"><ele>543.2</ele><time>2026-05-03T07:27:52.979Z</time></trkpt><trkpt lat="44.26433069771632" lon="11.40606920230323"><ele>544.4000000000001</ele><time>2026-05-03T07:27:53.979Z</time></trkpt><trkpt lat="44.264327503457324" lon="11.406226684466976"><ele>545.5999999999999</ele><time>2026-05-03T07:27:54.979Z</time></trkpt><trkpt lat="44.264316232653805" lon="11.40637421183922"><ele>546.8</ele><time>2026-05-03T07:27:55.979Z</time></trkpt><trkpt lat="44.26431131933034" lon="11.406520230889228"><ele>548.0</ele><time>2026-05-03T07:27:56.979Z</time></trkpt><trkpt lat="44.2643263271129" lon="11.406677195344212"><ele>548.8</ele><time>2026-05-03T07:27:57.979Z</time></trkpt><trkpt lat="44.26432639198832" lon="11.40682060334963"><ele>549.5999999999999</ele><time>2026-05-03T07:27:58.979Z</time></trkpt><trkpt lat="44.26432704185455" lon="11.406967267302601"><ele>550.4000000000001</ele><time>2026-05-03T07:27:59.979Z</time></trkpt><trkpt lat="44.26432646165583" lon="11.407113709825316"><ele>551.2</ele><time>2026-05-03T07:28:00.979Z</time></trkpt><trkpt lat="44.26433002852281" lon="11.407259570823928"><ele>552.0</ele><time>2026-05-03T07:28:01.979Z</time></trkpt><trkpt lat="44.26433729985847" lon="11.407407349028723"><ele>553.4</ele><time>2026-05-03T07:28:02.979Z</time></trkpt><trkpt lat="44.264351936766204" lon="11.407549851560548"><ele>554.8000000000001</ele><time>2026-05-03T07:28:03.979Z</time></trkpt><trkpt lat="44.26439238249657" lon="11.407688239471966"><ele>556.2</ele><time>2026-05-03T07:28:04.979Z</time></trkpt><trkpt lat="44.26443196462358" lon="11.407828420437536"><ele>557.6</ele><time>2026-05-03T07:28:05.979Z</time></trkpt><trkpt lat="44.264471906076906" lon="11.407964816222668"><ele>559.0</ele><time>2026-05-03T07:28:06.979Z</time></trkpt><trkpt lat="44.264514048851595" lon="11.408101159672661"><ele>560.2</ele><time>2026-05-03T07:28:07.979Z</time></trkpt><trkpt lat="44.26454584674384" lon="11.408234241720669"><ele>561.4</ele><time>2026-05-03T07:28:08.979Z</time></trkpt><trkpt lat="44.264563191137704" lon="11.408381527243206"><ele>562.6</ele><time>2026-05-03T07:28:09.979Z</time></trkpt><trkpt lat="44.264557642333465" lon="11.408531792343418"><ele>563.8</ele><time>2026-05-03T07:28:10.979Z</time></trkpt><trkpt lat="44.26454080101899" lon="11.40867200737562"><ele>565.0</ele><time>2026-05-03T07:28:11.979Z</time></trkpt><trkpt lat="44.264532056645564" lon="11.408824729270215"><ele>565.8</ele><time>2026-05-03T07:28:12.979Z</time></trkpt><trkpt lat="44.26452266752668" lon="11.40897016283333"><ele>566.6</ele><time>2026-05-03T07:28:13.979Z</time></trkpt><trkpt lat="44.26451638432411" lon="11.409113821490195"><ele>567.4</ele><time>2026-05-03T07:28:14.979Z</time></trkpt><trkpt lat="44.264512512889766" lon="11.409261030471994"><ele>568.2</ele><time>2026-05-03T07:28:15.979Z</time></trkpt><trkpt lat="44.26450815459693" lon="11.4094091296128"><ele>569.0</ele><time>2026-05-03T07:28:16.979Z</time></trkpt><trkpt lat="44.26450486639729" lon="11.409557854286"><ele>568.8</ele><time>2026-05-03T07:28:17.979Z</time></trkpt><trkpt lat="44.264508357446694" lon="11.409704487733828"><ele>568.5999999999999</ele><time>2026-05-03T07:28:18.979Z</time></trkpt><trkpt lat="44.26449214686927" lon="11.409841449704333"><ele>568.4</ele><time>2026-05-03T07:28:19.979Z</time></trkpt><trkpt lat="44.26443354431159" lon="11.409949245193955"><ele>568.1999999999999</ele><time>2026-05-03T07:28:20.979Z</time></trkpt><trkpt lat="44.264347393596964" lon="11.410036553914802"><ele>568.0</ele><time>2026-05-03T07:28:21.979Z</time></trkpt><trkpt lat="44.26424319997699" lon="11.410090786178323"><ele>568.0</ele><time>2026-05-03T07:28:22.979Z</time></trkpt><trkpt lat="44.26413973855629" lon="11.410133642508315"><ele>568.0</ele><time>2026-05-03T07:28:23.979Z</time></trkpt><trkpt lat="44.26404993510573" lon="11.410204955247407"><ele>568.0</ele><time>2026-05-03T07:28:24.979Z</time></trkpt><trkpt lat="44.263974185812245" lon="11.410300546756286"><ele>568.0</ele><time>2026-05-03T07:28:25.979Z</time></trkpt><trkpt lat="44.26391510734272" lon="11.410419397286516"><ele>568.0</ele><time>2026-05-03T07:28:26.979Z</time></trkpt><trkpt lat="44.26386969631418" lon="11.41055957968672"><ele>571.1999999999999</ele><time>2026-05-03T07:28:27.979Z</time></trkpt><trkpt lat="44.26382322326642" lon="11.410696253987963"><ele>574.4</ele><time>2026-05-03T07:28:28.979Z</time></trkpt><trkpt lat="44.26378066330045" lon="11.410836637756878"><ele>577.5999999999999</ele><time>2026-05-03T07:28:29.979Z</time></trkpt><trkpt lat="44.263730278786305" lon="11.410968684928516"><ele>580.8</ele><time>2026-05-03T07:28:30.979Z</time></trkpt><trkpt lat="44.26368050881355" lon="11.41109985676181"><ele>584.0</ele><time>2026-05-03T07:28:31.979Z</time></trkpt><trkpt lat="44.26362899636143" lon="11.411233938108586"><ele>582.6</ele><time>2026-05-03T07:28:32.979Z</time></trkpt><trkpt lat="44.26357888738843" lon="11.411365184695244"><ele>581.2</ele><time>2026-05-03T07:28:33.979Z</time></trkpt><trkpt lat="44.26352943802375" lon="11.411497249507157"><ele>579.8000000000001</ele><time>2026-05-03T07:28:34.979Z</time></trkpt><trkpt lat="44.26348554235339" lon="11.411634406425765"><ele>578.4</ele><time>2026-05-03T07:28:35.979Z</time></trkpt><trkpt lat="44.26345450360909" lon="11.411779071138941"><ele>577.0</ele><time>2026-05-03T07:28:36.979Z</time></trkpt><trkpt lat="44.2634475297525" lon="11.411931391412589"><ele>577.0</ele><time>2026-05-03T07:28:37.979Z</time></trkpt><trkpt lat="44.26346192160199" lon="11.41207318759055"><ele>577.0</ele><time>2026-05-03T07:28:38.979Z</time></trkpt><trkpt lat="44.26350456377143" lon="11.41220659589947"><ele>577.0</ele><time>2026-05-03T07:28:39.979Z</time></trkpt><trkpt lat="44.263550342781855" lon="11.412339141830014"><ele>577.0</ele><time>2026-05-03T07:28:40.979Z</time></trkpt><trkpt lat="44.26359954175921" lon="11.41246859816372"><ele>577.0</ele><time>2026-05-03T07:28:41.979Z</time></trkpt><trkpt lat="44.26364722876952" lon="11.412600844523453"><ele>578.0</ele><time>2026-05-03T07:28:42.979Z</time></trkpt><trkpt lat="44.26369681774249" lon="11.412732586610932"><ele>579.0</ele><time>2026-05-03T07:28:43.979Z</time></trkpt><trkpt lat="44.263749168160004" lon="11.412867854141089"><ele>580.0</ele><time>2026-05-03T07:28:44.979Z</time></trkpt><trkpt lat="44.26378485665986" lon="11.413000316435683"><ele>581.0</ele><time>2026-05-03T07:28:45.979Z</time></trkpt><trkpt lat="44.26381033789658" lon="11.41314337045491"><ele>582.0</ele><time>2026-05-03T07:28:46.979Z</time></trkpt><trkpt lat="44.26380313575826" lon="11.413282324200969"><ele>583.0</ele><time>2026-05-03T07:28:47.979Z</time></trkpt><trkpt lat="44.26378452486964" lon="11.41343505627339"><ele>584.0</ele><time>2026-05-03T07:28:48.979Z</time></trkpt><trkpt lat="44.26376140949295" lon="11.413576632841947"><ele>585.0</ele><time>2026-05-03T07:28:49.979Z</time></trkpt><trkpt lat="44.263737414146924" lon="11.41372206124972"><ele>586.0</ele><time>2026-05-03T07:28:50.979Z</time></trkpt><trkpt lat="44.2637142328346" lon="11.413865834769885"><ele>587.0</ele><time>2026-05-03T07:28:51.979Z</time></trkpt><trkpt lat="44.263700445555024" lon="11.414012897658422"><ele>587.4</ele><time>2026-05-03T07:28:52.978Z</time></trkpt><trkpt lat="44.26368981750367" lon="11.414158287718594"><ele>587.8000000000001</ele><time>2026-05-03T07:28:53.978Z</time></trkpt><trkpt lat="44.263671850447246" lon="11.41429519066485"><ele>588.2</ele><time>2026-05-03T07:28:54.979Z</time></trkpt><trkpt lat="44.26364865036167" lon="11.414433890006043"><ele>588.6</ele><time>2026-05-03T07:28:55.978Z</time></trkpt><trkpt lat="44.26363477990739" lon="11.414572627628306"><ele>589.0</ele><time>2026-05-03T07:28:56.978Z</time></trkpt><trkpt lat="44.26362711920163" lon="11.414726242262525"><ele>589.6</ele><time>2026-05-03T07:28:57.978Z</time></trkpt><trkpt lat="44.26361856267231" lon="11.414879728040932"><ele>590.2</ele><time>2026-05-03T07:28:58.978Z</time></trkpt><trkpt lat="44.263620473155335" lon="11.41503538477159"><ele>590.8000000000001</ele><time>2026-05-03T07:28:59.978Z</time></trkpt><trkpt lat="44.26363589314274" lon="11.41518653980786"><ele>591.4</ele><time>2026-05-03T07:29:00.979Z</time></trkpt><trkpt lat="44.26366502222064" lon="11.415328988242482"><ele>592.0</ele><time>2026-05-03T07:29:01.978Z</time></trkpt><trkpt lat="44.26370028905173" lon="11.41546848939769"><ele>592.4</ele><time>2026-05-03T07:29:02.978Z</time></trkpt><trkpt lat="44.26372873434836" lon="11.415606952604064"><ele>592.8000000000001</ele><time>2026-05-03T07:29:03.978Z</time></trkpt><trkpt lat="44.263760974780986" lon="11.415753709367658"><ele>593.2</ele><time>2026-05-03T07:29:04.978Z</time></trkpt><trkpt lat="44.263778915626716" lon="11.415904012647854"><ele>593.6</ele><time>2026-05-03T07:29:05.978Z</time></trkpt><trkpt lat="44.263783074763" lon="11.416054687237525"><ele>594.0</ele><time>2026-05-03T07:29:06.978Z</time></trkpt><trkpt lat="44.26377421397768" lon="11.416200342630479"><ele>594.4</ele><time>2026-05-03T07:29:07.978Z</time></trkpt><trkpt lat="44.263763325866925" lon="11.41634875632055"><ele>594.8</ele><time>2026-05-03T07:29:08.978Z</time></trkpt><trkpt lat="44.26373503885997" lon="11.416488417821835"><ele>595.2</ele><time>2026-05-03T07:29:09.978Z</time></trkpt><trkpt lat="44.26369381462626" lon="11.416619433954464"><ele>595.6</ele><time>2026-05-03T07:29:10.978Z</time></trkpt><trkpt lat="44.26364543559056" lon="11.416752648264906"><ele>596.0</ele><time>2026-05-03T07:29:11.978Z</time></trkpt><trkpt lat="44.263581272651436" lon="11.416877613829376"><ele>596.0</ele><time>2026-05-03T07:29:12.978Z</time></trkpt><trkpt lat="44.26351334676412" lon="11.416989234371224"><ele>596.0</ele><time>2026-05-03T07:29:13.978Z</time></trkpt><trkpt lat="44.26344096072355" lon="11.41710043228264"><ele>596.0</ele><time>2026-05-03T07:29:14.978Z</time></trkpt><trkpt lat="44.26336484291898" lon="11.417204202250105"><ele>596.0</ele><time>2026-05-03T07:29:15.978Z</time></trkpt><trkpt lat="44.26329030166607" lon="11.417307118542029"><ele>596.0</ele><time>2026-05-03T07:29:16.978Z</time></trkpt><trkpt lat="44.26321368522322" lon="11.417410902602471"><ele>594.8</ele><time>2026-05-03T07:29:17.978Z</time></trkpt><trkpt lat="44.26313861314857" lon="11.417521330797463"><ele>593.6</ele><time>2026-05-03T07:29:18.978Z</time></trkpt><trkpt lat="44.26306164423029" lon="11.417630287081325"><ele>592.4</ele><time>2026-05-03T07:29:19.978Z</time></trkpt><trkpt lat="44.26298820473834" lon="11.417737649348712"><ele>591.2</ele><time>2026-05-03T07:29:20.978Z</time></trkpt><trkpt lat="44.26291266400404" lon="11.417845811904817"><ele>590.0</ele><time>2026-05-03T07:29:21.978Z</time></trkpt><trkpt lat="44.26284284264983" lon="11.417958593412084"><ele>593.6</ele><time>2026-05-03T07:29:22.978Z</time></trkpt><trkpt lat="44.262773671278275" lon="11.418067240205533"><ele>597.2</ele><time>2026-05-03T07:29:23.978Z</time></trkpt><trkpt lat="44.262713008356414" lon="11.418186231917586"><ele>600.8</ele><time>2026-05-03T07:29:24.978Z</time></trkpt><trkpt lat="44.26266873734335" lon="11.41831826760204"><ele>604.4</ele><time>2026-05-03T07:29:25.978Z</time></trkpt><trkpt lat="44.26263604843633" lon="11.418452524083724"><ele>608.0</ele><time>2026-05-03T07:29:26.978Z</time></trkpt><trkpt lat="44.26260820446753" lon="11.418599438827288"><ele>608.0</ele><time>2026-05-03T07:29:27.978Z</time></trkpt><trkpt lat="44.262592227643886" lon="11.418745662120294"><ele>608.0</ele><time>2026-05-03T07:29:28.978Z</time></trkpt><trkpt lat="44.262580891978644" lon="11.418892592878763"><ele>608.0</ele><time>2026-05-03T07:29:29.978Z</time></trkpt><trkpt lat="44.26256154966" lon="11.419043512834806"><ele>608.0</ele><time>2026-05-03T07:29:30.978Z</time></trkpt><trkpt lat="44.26253534511973" lon="11.419189857234931"><ele>608.0</ele><time>2026-05-03T07:29:31.978Z</time></trkpt><trkpt lat="44.262512495182584" lon="11.41933663925424"><ele>607.8</ele><time>2026-05-03T07:29:32.978Z</time></trkpt><trkpt lat="44.26249691107172" lon="11.419478691346333"><ele>607.5999999999999</ele><time>2026-05-03T07:29:33.978Z</time></trkpt><trkpt lat="44.26247964287363" lon="11.419620771617371"><ele>607.4000000000001</ele><time>2026-05-03T07:29:34.978Z</time></trkpt><trkpt lat="44.262460434033265" lon="11.419761435258385"><ele>607.2</ele><time>2026-05-03T07:29:35.978Z</time></trkpt><trkpt lat="44.262446360480126" lon="11.419906261615717"><ele>607.0</ele><time>2026-05-03T07:29:36.978Z</time></trkpt><trkpt lat="44.2624366831746" lon="11.42004761501041"><ele>607.4</ele><time>2026-05-03T07:29:37.978Z</time></trkpt><trkpt lat="44.26242935128357" lon="11.420194899702679"><ele>607.8000000000001</ele><time>2026-05-03T07:29:38.978Z</time></trkpt><trkpt lat="44.262436722526296" lon="11.420336036706988"><ele>608.2</ele><time>2026-05-03T07:29:39.978Z</time></trkpt><trkpt lat="44.26244673919119" lon="11.420475723127772"><ele>608.6</ele><time>2026-05-03T07:29:40.978Z</time></trkpt><trkpt lat="44.262472378321604" lon="11.42061924147768"><ele>609.0</ele><time>2026-05-03T07:29:41.978Z</time></trkpt><trkpt lat="44.262517649295596" lon="11.420746995534799"><ele>609.8</ele><time>2026-05-03T07:29:42.978Z</time></trkpt><trkpt lat="44.26256593611207" lon="11.420879217490475"><ele>610.5999999999999</ele><time>2026-05-03T07:29:43.978Z</time></trkpt><trkpt lat="44.26261904814953" lon="11.421005177099657"><ele>611.4</ele><time>2026-05-03T07:29:44.978Z</time></trkpt><trkpt lat="44.262650279778846" lon="11.421140339930993"><ele>612.1999999999999</ele><time>2026-05-03T07:29:45.978Z</time></trkpt><trkpt lat="44.26264497025536" lon="11.421286081766842"><ele>613.0</ele><time>2026-05-03T07:29:46.978Z</time></trkpt><trkpt lat="44.26262140831955" lon="11.421428578251644"><ele>613.8</ele><time>2026-05-03T07:29:47.978Z</time></trkpt><trkpt lat="44.26259519211995" lon="11.421565407999518"><ele>614.5999999999999</ele><time>2026-05-03T07:29:48.978Z</time></trkpt><trkpt lat="44.26257471865262" lon="11.421711878511996"><ele>615.4000000000001</ele><time>2026-05-03T07:29:49.978Z</time></trkpt><trkpt lat="44.262568212551436" lon="11.421849180707973"><ele>616.2</ele><time>2026-05-03T07:29:50.978Z</time></trkpt><trkpt lat="44.26259152156134" lon="11.421985592462983"><ele>617.0</ele><time>2026-05-03T07:29:51.978Z</time></trkpt><trkpt lat="44.26264191772496" lon="11.42212198381692"><ele>618.4</ele><time>2026-05-03T07:29:52.978Z</time></trkpt><trkpt lat="44.26270954665773" lon="11.422227829406703"><ele>619.8000000000001</ele><time>2026-05-03T07:29:53.978Z</time></trkpt><trkpt lat="44.26279924629321" lon="11.422310256167668"><ele>621.2</ele><time>2026-05-03T07:29:54.978Z</time></trkpt><trkpt lat="44.26289475894149" lon="11.422380852828809"><ele>622.6</ele><time>2026-05-03T07:29:55.978Z</time></trkpt><trkpt lat="44.262980780809386" lon="11.422437042112163"><ele>624.0</ele><time>2026-05-03T07:29:56.978Z</time></trkpt><trkpt lat="44.26307745770762" lon="11.422504675313553"><ele>624.0</ele><time>2026-05-03T07:29:57.978Z</time></trkpt><trkpt lat="44.263163595491825" lon="11.42259255330763"><ele>624.0</ele><time>2026-05-03T07:29:58.978Z</time></trkpt><trkpt lat="44.26323250735809" lon="11.422697735693632"><ele>624.0</ele><time>2026-05-03T07:29:59.978Z</time></trkpt><trkpt lat="44.26330204095265" lon="11.422812418439353"><ele>624.0</ele><time>2026-05-03T07:30:00.978Z</time></trkpt><trkpt lat="44.263352823161966" lon="11.422941625526898"><ele>624.0</ele><time>2026-05-03T07:30:01.978Z</time></trkpt><trkpt lat="44.26340491541993" lon="11.423070457308953"><ele>624.0</ele><time>2026-05-03T07:30:02.978Z</time></trkpt><trkpt lat="44.26347161367239" lon="11.42317987346447"><ele>624.0</ele><time>2026-05-03T07:30:03.978Z</time></trkpt><trkpt lat="44.26355376066559" lon="11.423275663516128"><ele>624.0</ele><time>2026-05-03T07:30:04.978Z</time></trkpt><trkpt lat="44.26364776706786" lon="11.423352365572308"><ele>624.0</ele><time>2026-05-03T07:30:05.978Z</time></trkpt><trkpt lat="44.26374076590608" lon="11.423414046376742"><ele>624.0</ele><time>2026-05-03T07:30:06.978Z</time></trkpt><trkpt lat="44.26383450940728" lon="11.423483140605562"><ele>624.0</ele><time>2026-05-03T07:30:07.978Z</time></trkpt><trkpt lat="44.26392930272238" lon="11.423539977498981"><ele>624.0</ele><time>2026-05-03T07:30:08.978Z</time></trkpt><trkpt lat="44.264021350499235" lon="11.423601519423478"><ele>624.0</ele><time>2026-05-03T07:30:09.978Z</time></trkpt><trkpt lat="44.26410422665667" lon="11.423654382160707"><ele>624.0</ele><time>2026-05-03T07:30:10.978Z</time></trkpt><trkpt lat="44.26417249575712" lon="11.42371394084469"><ele>624.0</ele><time>2026-05-03T07:30:11.978Z</time></trkpt><trkpt lat="44.26422637772194" lon="11.423772072331811"><ele>624.0</ele><time>2026-05-03T07:30:12.978Z</time></trkpt><trkpt lat="44.26430690758757" lon="11.423842996822028"><ele>623.0</ele><time>2026-05-03T07:30:14.978Z</time></trkpt><trkpt lat="44.264376862536196" lon="11.42388524947059"><ele>623.0</ele><time>2026-05-03T07:30:17.978Z</time></trkpt><trkpt lat="44.26444522501299" lon="11.423894121234083"><ele>623.0</ele><time>2026-05-03T07:30:27.978Z</time></trkpt></trkseg><trkseg><trkpt lat="44.26453218272711" lon="11.423887678958955"><ele>623.0</ele><time>2026-05-03T07:45:13.979Z</time></trkpt><trkpt lat="44.26466576964454" lon="11.423903651661117"><ele>623.0</ele><time>2026-05-03T07:45:15.979Z</time></trkpt><trkpt lat="44.26475757253775" lon="11.423886391857177"><ele>623.0</ele><time>2026-05-03T07:45:16.979Z</time></trkpt><trkpt lat="44.26484096323586" lon="11.423872823454598"><ele>623.0</ele><time>2026-05-03T07:45:17.979Z</time></trkpt><trkpt lat="44.26492105623554" lon="11.423882476246552"><ele>623.0</ele><time>2026-05-03T07:45:18.979Z</time></trkpt><trkpt lat="44.26500241314145" lon="11.423855474587436"><ele>622.4</ele><time>2026-05-03T07:45:19.979Z</time></trkpt><trkpt lat="44.265089214524544" lon="11.423851694627066"><ele>621.8</ele><time>2026-05-03T07:45:20.979Z</time></trkpt><trkpt lat="44.26518521041836" lon="11.423838314868213"><ele>621.2</ele><time>2026-05-03T07:45:21.979Z</time></trkpt><trkpt lat="44.26527505475683" lon="11.423833843427243"><ele>620.6</ele><time>2026-05-03T07:45:22.979Z</time></trkpt><trkpt lat="44.26536378976021" lon="11.423838764706757"><ele>620.0</ele><time>2026-05-03T07:45:23.979Z</time></trkpt><trkpt lat="44.26546577159232" lon="11.423832923382701"><ele>620.0</ele><time>2026-05-03T07:45:24.979Z</time></trkpt><trkpt lat="44.2655610933411" lon="11.42382893117563"><ele>620.0</ele><time>2026-05-03T07:45:25.979Z</time></trkpt><trkpt lat="44.2656595228245" lon="11.423827255131867"><ele>620.0</ele><time>2026-05-03T07:45:26.979Z</time></trkpt><trkpt lat="44.26576418062079" lon="11.423813658831824"><ele>620.0</ele><time>2026-05-03T07:45:27.979Z</time></trkpt><trkpt lat="44.265875252473464" lon="11.423804671521689"><ele>620.0</ele><time>2026-05-03T07:45:28.979Z</time></trkpt><trkpt lat="44.265986637305" lon="11.42379915657175"><ele>617.4</ele><time>2026-05-03T07:45:29.979Z</time></trkpt><trkpt lat="44.26609536661597" lon="11.423801788054135"><ele>614.8</ele><time>2026-05-03T07:45:30.979Z</time></trkpt><trkpt lat="44.26620069549016" lon="11.423784717313547"><ele>612.2</ele><time>2026-05-03T07:45:31.979Z</time></trkpt><trkpt lat="44.26630435396315" lon="11.423757941075435"><ele>609.6</ele><time>2026-05-03T07:45:32.979Z</time></trkpt><trkpt lat="44.26641060028632" lon="11.423774644298897"><ele>607.0</ele><time>2026-05-03T07:45:33.979Z</time></trkpt><trkpt lat="44.26653494133019" lon="11.423742730384117"><ele>606.0</ele><time>2026-05-03T07:45:34.979Z</time></trkpt><trkpt lat="44.266649040323905" lon="11.423699306422149"><ele>605.0</ele><time>2026-05-03T07:45:35.979Z</time></trkpt><trkpt lat="44.26674725871604" lon="11.423638115907348"><ele>604.0</ele><time>2026-05-03T07:45:36.979Z</time></trkpt><trkpt lat="44.266845221406136" lon="11.42360213790655"><ele>603.0</ele><time>2026-05-03T07:45:37.979Z</time></trkpt><trkpt lat="44.26694083041922" lon="11.423548549712955"><ele>602.0</ele><time>2026-05-03T07:45:38.979Z</time></trkpt><trkpt lat="44.26704280086525" lon="11.42349998935762"><ele>602.0</ele><time>2026-05-03T07:45:39.98Z</time></trkpt><trkpt lat="44.267128640447204" lon="11.423417579562775"><ele>602.0</ele><time>2026-05-03T07:45:40.98Z</time></trkpt><trkpt lat="44.26720822811346" lon="11.423331743279006"><ele>602.0</ele><time>2026-05-03T07:45:41.98Z</time></trkpt><trkpt lat="44.267287172211184" lon="11.42324112707206"><ele>602.0</ele><time>2026-05-03T07:45:42.98Z</time></trkpt><trkpt lat="44.26737680975698" lon="11.423175806779591"><ele>602.0</ele><time>2026-05-03T07:45:43.98Z</time></trkpt><trkpt lat="44.26747199672396" lon="11.423114754772222"><ele>601.4</ele><time>2026-05-03T07:45:44.98Z</time></trkpt><trkpt lat="44.267572997275394" lon="11.423072698407463"><ele>600.8000000000001</ele><time>2026-05-03T07:45:45.979Z</time></trkpt><trkpt lat="44.26768102710536" lon="11.423044193236569"><ele>600.2</ele><time>2026-05-03T07:45:46.98Z</time></trkpt><trkpt lat="44.26779238041877" lon="11.423026725850756"><ele>599.6</ele><time>2026-05-03T07:45:47.98Z</time></trkpt><trkpt lat="44.26790528670605" lon="11.42301119223295"><ele>599.0</ele><time>2026-05-03T07:45:48.98Z</time></trkpt><trkpt lat="44.26801894175887" lon="11.422997286219536"><ele>600.2</ele><time>2026-05-03T07:45:49.979Z</time></trkpt><trkpt lat="44.26813312525265" lon="11.422973959404816"><ele>601.4</ele><time>2026-05-03T07:45:50.979Z</time></trkpt><trkpt lat="44.26824292338459" lon="11.422955731424931"><ele>602.6</ele><time>2026-05-03T07:45:51.979Z</time></trkpt><trkpt lat="44.26835266962638" lon="11.422938758627135"><ele>603.8</ele><time>2026-05-03T07:45:52.98Z</time></trkpt><trkpt lat="44.268462736523674" lon="11.422928311049287"><ele>605.0</ele><time>2026-05-03T07:45:53.98Z</time></trkpt><trkpt lat="44.26857089617343" lon="11.422923165766434"><ele>605.0</ele><time>2026-05-03T07:45:54.98Z</time></trkpt><trkpt lat="44.26868202672716" lon="11.422922682390428"><ele>605.0</ele><time>2026-05-03T07:45:55.98Z</time></trkpt><trkpt lat="44.268798495846106" lon="11.422930471263973"><ele>605.0</ele><time>2026-05-03T07:45:56.98Z</time></trkpt><trkpt lat="44.268912983185885" lon="11.422941471318516"><ele>605.0</ele><time>2026-05-03T07:45:57.98Z</time></trkpt><trkpt lat="44.26902335177106" lon="11.422957946037808"><ele>604.2</ele><time>2026-05-03T07:45:58.98Z</time></trkpt><trkpt lat="44.26913190403314" lon="11.422973930856864"><ele>603.4</ele><time>2026-05-03T07:45:59.98Z</time></trkpt><trkpt lat="44.269236535942206" lon="11.422991500120997"><ele>602.6</ele><time>2026-05-03T07:46:00.98Z</time></trkpt><trkpt lat="44.269336449893856" lon="11.423004584689773"><ele>601.8</ele><time>2026-05-03T07:46:01.98Z</time></trkpt><trkpt lat="44.26943035817314" lon="11.423016255426166"><ele>601.0</ele><time>2026-05-03T07:46:02.98Z</time></trkpt><trkpt lat="44.269496607823456" lon="11.423031928156814"><ele>598.0</ele><time>2026-05-03T07:46:03.98Z</time></trkpt><trkpt lat="44.26952654292686" lon="11.42313822870352"><ele>595.0</ele><time>2026-05-03T07:46:05.98Z</time></trkpt><trkpt lat="44.269457938366024" lon="11.423229890936273"><ele>592.0</ele><time>2026-05-03T07:46:06.98Z</time></trkpt><trkpt lat="44.269366739825905" lon="11.423252519944263"><ele>589.0</ele><time>2026-05-03T07:46:07.98Z</time></trkpt><trkpt lat="44.269272270136" lon="11.423261175926644"><ele>586.0</ele><time>2026-05-03T07:46:08.98Z</time></trkpt><trkpt lat="44.26918223898447" lon="11.423261446076253"><ele>586.0</ele><time>2026-05-03T07:46:09.98Z</time></trkpt><trkpt lat="44.269098848671725" lon="11.423280425949907"><ele>586.0</ele><time>2026-05-03T07:46:10.98Z</time></trkpt><trkpt lat="44.26902199312522" lon="11.423351596357284"><ele>586.0</ele><time>2026-05-03T07:46:11.98Z</time></trkpt><trkpt lat="44.268986323992834" lon="11.4234543637081"><ele>586.0</ele><time>2026-05-03T07:46:12.98Z</time></trkpt><trkpt lat="44.26893213625991" lon="11.423553987359112"><ele>586.0</ele><time>2026-05-03T07:46:13.98Z</time></trkpt><trkpt lat="44.26888766514249" lon="11.423686319224794"><ele>585.6</ele><time>2026-05-03T07:46:14.979Z</time></trkpt><trkpt lat="44.26884610827198" lon="11.423825147556398"><ele>585.2</ele><time>2026-05-03T07:46:15.979Z</time></trkpt><trkpt lat="44.26880856219501" lon="11.423971592544056"><ele>584.8</ele><time>2026-05-03T07:46:16.979Z</time></trkpt><trkpt lat="44.26877342544606" lon="11.424099516959702"><ele>584.4</ele><time>2026-05-03T07:46:17.979Z</time></trkpt><trkpt lat="44.268744527768746" lon="11.424257298816979"><ele>584.0</ele><time>2026-05-03T07:46:18.979Z</time></trkpt><trkpt lat="44.268729484455825" lon="11.424385018439203"><ele>584.0</ele><time>2026-05-03T07:46:19.979Z</time></trkpt><trkpt lat="44.268706558403075" lon="11.424533227275061"><ele>584.0</ele><time>2026-05-03T07:46:20.979Z</time></trkpt><trkpt lat="44.26869139343358" lon="11.424684504704867"><ele>584.0</ele><time>2026-05-03T07:46:21.979Z</time></trkpt><trkpt lat="44.268675419745314" lon="11.424839856361057"><ele>584.0</ele><time>2026-05-03T07:46:22.979Z</time></trkpt><trkpt lat="44.2686715203083" lon="11.424990690024824"><ele>584.0</ele><time>2026-05-03T07:46:23.979Z</time></trkpt><trkpt lat="44.26868098129614" lon="11.425130151530741"><ele>583.2</ele><time>2026-05-03T07:46:24.979Z</time></trkpt><trkpt lat="44.26871871411508" lon="11.425270051278448"><ele>582.4</ele><time>2026-05-03T07:46:25.979Z</time></trkpt><trkpt lat="44.268798939969585" lon="11.425390680035319"><ele>581.6</ele><time>2026-05-03T07:46:26.979Z</time></trkpt><trkpt lat="44.2688871349374" lon="11.425470899326108"><ele>580.8</ele><time>2026-05-03T07:46:27.979Z</time></trkpt><trkpt lat="44.26899519210209" lon="11.425506860780965"><ele>580.0</ele><time>2026-05-03T07:46:28.979Z</time></trkpt><trkpt lat="44.26909590486094" lon="11.425532934527501"><ele>577.2</ele><time>2026-05-03T07:46:29.979Z</time></trkpt><trkpt lat="44.26919598319999" lon="11.425576804496961"><ele>574.4</ele><time>2026-05-03T07:46:30.979Z</time></trkpt><trkpt lat="44.269274583609025" lon="11.425682448992578"><ele>571.6</ele><time>2026-05-03T07:46:31.979Z</time></trkpt><trkpt lat="44.26934372679053" lon="11.425803135877349"><ele>568.8</ele><time>2026-05-03T07:46:32.979Z</time></trkpt><trkpt lat="44.269418891056105" lon="11.425921630537054"><ele>566.0</ele><time>2026-05-03T07:46:33.979Z</time></trkpt><trkpt lat="44.26948550427073" lon="11.4260557409349"><ele>566.0</ele><time>2026-05-03T07:46:34.979Z</time></trkpt><trkpt lat="44.26955652897338" lon="11.426181053361592"><ele>566.0</ele><time>2026-05-03T07:46:35.979Z</time></trkpt><trkpt lat="44.269616451601955" lon="11.426304685889058"><ele>566.0</ele><time>2026-05-03T07:46:36.979Z</time></trkpt><trkpt lat="44.26970911920625" lon="11.426413477272295"><ele>566.0</ele><time>2026-05-03T07:46:37.979Z</time></trkpt><trkpt lat="44.2697835636085" lon="11.426491537907511"><ele>566.0</ele><time>2026-05-03T07:46:38.979Z</time></trkpt><trkpt lat="44.26984775950023" lon="11.42658008461361"><ele>566.0</ele><time>2026-05-03T07:46:39.979Z</time></trkpt><trkpt lat="44.26987812586866" lon="11.426698774764242"><ele>566.0</ele><time>2026-05-03T07:46:40.979Z</time></trkpt><trkpt lat="44.269846660489854" lon="11.426841793857951"><ele>566.0</ele><time>2026-05-03T07:46:41.979Z</time></trkpt><trkpt lat="44.26976776568913" lon="11.426953103572053"><ele>566.0</ele><time>2026-05-03T07:46:42.979Z</time></trkpt><trkpt lat="44.26970160614248" lon="11.42704913941684"><ele>566.0</ele><time>2026-05-03T07:46:43.979Z</time></trkpt><trkpt lat="44.26968425298184" lon="11.42715857868465"><ele>565.4</ele><time>2026-05-03T07:46:44.979Z</time></trkpt><trkpt lat="44.26974469949102" lon="11.427276547954914"><ele>564.8</ele><time>2026-05-03T07:46:45.979Z</time></trkpt><trkpt lat="44.26981488963671" lon="11.427403205227927"><ele>564.1999999999999</ele><time>2026-05-03T07:46:46.979Z</time></trkpt><trkpt lat="44.269876489229496" lon="11.427529530976761"><ele>563.6</ele><time>2026-05-03T07:46:47.979Z</time></trkpt><trkpt lat="44.269918377071065" lon="11.427662588347006"><ele>563.0</ele><time>2026-05-03T07:46:48.979Z</time></trkpt><trkpt lat="44.26997217983177" lon="11.427790578463467"><ele>559.0</ele><time>2026-05-03T07:46:49.979Z</time></trkpt><trkpt lat="44.270023986101215" lon="11.427869614935483"><ele>555.0</ele><time>2026-05-03T07:46:50.979Z</time></trkpt><trkpt lat="44.27011797025906" lon="11.427926371700874"><ele>551.0</ele><time>2026-05-03T07:46:51.979Z</time></trkpt><trkpt lat="44.270224052044824" lon="11.427944588039798"><ele>547.0</ele><time>2026-05-03T07:46:52.979Z</time></trkpt><trkpt lat="44.2703186937585" lon="11.427967183336353"><ele>543.0</ele><time>2026-05-03T07:46:53.979Z</time></trkpt><trkpt lat="44.27040584249713" lon="11.427967137415695"><ele>543.1999999999999</ele><time>2026-05-03T07:46:54.979Z</time></trkpt><trkpt lat="44.270496163703335" lon="11.428069276715023"><ele>543.4</ele><time>2026-05-03T07:46:55.979Z</time></trkpt><trkpt lat="44.270554912400264" lon="11.428196378149849"><ele>543.5999999999999</ele><time>2026-05-03T07:46:56.979Z</time></trkpt><trkpt lat="44.27057686745089" lon="11.42833365287327"><ele>543.8</ele><time>2026-05-03T07:46:57.979Z</time></trkpt><trkpt lat="44.2705342604429" lon="11.428454499164957"><ele>544.0</ele><time>2026-05-03T07:46:58.979Z</time></trkpt><trkpt lat="44.27047830876702" lon="11.42858253423247"><ele>544.0</ele><time>2026-05-03T07:46:59.979Z</time></trkpt><trkpt lat="44.27043299124037" lon="11.428705098329207"><ele>544.0</ele><time>2026-05-03T07:47:00.979Z</time></trkpt><trkpt lat="44.27045012109298" lon="11.428833943083072"><ele>544.0</ele><time>2026-05-03T07:47:01.979Z</time></trkpt><trkpt lat="44.2704846352959" lon="11.42895736441642"><ele>544.0</ele><time>2026-05-03T07:47:02.979Z</time></trkpt><trkpt lat="44.27057529911822" lon="11.429062985897733"><ele>544.0</ele><time>2026-05-03T07:47:03.979Z</time></trkpt><trkpt lat="44.27065686847355" lon="11.429174652464432"><ele>539.2</ele><time>2026-05-03T07:47:04.979Z</time></trkpt><trkpt lat="44.27068378906863" lon="11.429318582408584"><ele>534.4</ele><time>2026-05-03T07:47:05.979Z</time></trkpt><trkpt lat="44.27066578045666" lon="11.429474302235095"><ele>529.6</ele><time>2026-05-03T07:47:06.979Z</time></trkpt><trkpt lat="44.27065597894461" lon="11.429619380001295"><ele>524.8</ele><time>2026-05-03T07:47:07.979Z</time></trkpt><trkpt lat="44.27069519156155" lon="11.429763811950638"><ele>520.0</ele><time>2026-05-03T07:47:08.979Z</time></trkpt><trkpt lat="44.27077178031399" lon="11.429888069000054"><ele>518.0</ele><time>2026-05-03T07:47:09.979Z</time></trkpt><trkpt lat="44.27086045681463" lon="11.43000880049874"><ele>516.0</ele><time>2026-05-03T07:47:10.979Z</time></trkpt><trkpt lat="44.270945646427855" lon="11.43012997346815"><ele>514.0</ele><time>2026-05-03T07:47:11.979Z</time></trkpt><trkpt lat="44.27103062780869" lon="11.43025717788828"><ele>512.0</ele><time>2026-05-03T07:47:12.979Z</time></trkpt><trkpt lat="44.27110688615852" lon="11.430395752180766"><ele>509.0</ele><time>2026-05-03T07:47:13.979Z</time></trkpt><trkpt lat="44.27118414674965" lon="11.430542466033506"><ele>506.0</ele><time>2026-05-03T07:47:14.979Z</time></trkpt><trkpt lat="44.27126558269497" lon="11.4306877267655"><ele>503.0</ele><time>2026-05-03T07:47:15.979Z</time></trkpt><trkpt lat="44.27134782873499" lon="11.430826499541912"><ele>500.0</ele><time>2026-05-03T07:47:16.979Z</time></trkpt><trkpt lat="44.27142929532144" lon="11.430975980410953"><ele>499.8</ele><time>2026-05-03T07:47:17.979Z</time></trkpt><trkpt lat="44.271510207466775" lon="11.431110970875169"><ele>499.6</ele><time>2026-05-03T07:47:18.979Z</time></trkpt><trkpt lat="44.27159862262806" lon="11.43124186493713"><ele>499.4</ele><time>2026-05-03T07:47:19.979Z</time></trkpt><trkpt lat="44.27168067594217" lon="11.431335194483491"><ele>499.2</ele><time>2026-05-03T07:47:20.979Z</time></trkpt><trkpt lat="44.27175742836079" lon="11.431389417376467"><ele>499.0</ele><time>2026-05-03T07:47:21.979Z</time></trkpt><trkpt lat="44.271826331837254" lon="11.431496839325698"><ele>497.1666666666667</ele><time>2026-05-03T07:47:23.979Z</time></trkpt><trkpt lat="44.271756237769345" lon="11.431638867117124"><ele>495.33333333333337</ele><time>2026-05-03T07:47:25.979Z</time></trkpt><trkpt lat="44.27167126636502" lon="11.43167896269937"><ele>493.5</ele><time>2026-05-03T07:47:26.979Z</time></trkpt><trkpt lat="44.27159499854257" lon="11.43170295576641"><ele>491.66666666666663</ele><time>2026-05-03T07:47:27.979Z</time></trkpt><trkpt lat="44.271517792294716" lon="11.431714530928152"><ele>489.8333333333333</ele><time>2026-05-03T07:47:28.979Z</time></trkpt><trkpt lat="44.27145300690312" lon="11.431716895443795"><ele>488.0</ele><time>2026-05-03T07:47:29.979Z</time></trkpt><trkpt lat="44.27134556765548" lon="11.431755858506726"><ele>487.0</ele><time>2026-05-03T07:47:30.979Z</time></trkpt><trkpt lat="44.271245396587005" lon="11.431763265455524"><ele>485.99999999999994</ele><time>2026-05-03T07:47:31.979Z</time></trkpt><trkpt lat="44.27114035822606" lon="11.431763737537329"><ele>484.99999999999994</ele><time>2026-05-03T07:47:32.979Z</time></trkpt><trkpt lat="44.271037874629734" lon="11.431773956954116"><ele>484.0</ele><time>2026-05-03T07:47:33.979Z</time></trkpt><trkpt lat="44.27094606507336" lon="11.431799099793244"><ele>483.0</ele><time>2026-05-03T07:47:34.979Z</time></trkpt><trkpt lat="44.27084645746525" lon="11.431848185324437"><ele>483.0</ele><time>2026-05-03T07:47:35.979Z</time></trkpt><trkpt lat="44.270761586435924" lon="11.431938120171177"><ele>482.99999999999994</ele><time>2026-05-03T07:47:36.979Z</time></trkpt><trkpt lat="44.27069279446544" lon="11.432054546405974"><ele>482.99999999999994</ele><time>2026-05-03T07:47:37.979Z</time></trkpt><trkpt lat="44.27062729250557" lon="11.432178853578767"><ele>483.0</ele><time>2026-05-03T07:47:38.979Z</time></trkpt><trkpt lat="44.270560113099165" lon="11.432290760917104"><ele>483.0</ele><time>2026-05-03T07:47:39.979Z</time></trkpt><trkpt lat="44.27048774378322" lon="11.4323945166565"><ele>481.0</ele><time>2026-05-03T07:47:40.979Z</time></trkpt><trkpt lat="44.27041000942432" lon="11.43249568233073"><ele>478.99999999999994</ele><time>2026-05-03T07:47:41.979Z</time></trkpt><trkpt lat="44.27032624568596" lon="11.432584678022485"><ele>476.99999999999994</ele><time>2026-05-03T07:47:42.979Z</time></trkpt><trkpt lat="44.27024073682369" lon="11.432673908402803"><ele>475.0</ele><time>2026-05-03T07:47:43.979Z</time></trkpt><trkpt lat="44.27015828640826" lon="11.432756284750774"><ele>473.0</ele><time>2026-05-03T07:47:44.979Z</time></trkpt><trkpt lat="44.2700730954037" lon="11.432840869376642"><ele>473.0</ele><time>2026-05-03T07:47:45.978Z</time></trkpt><trkpt lat="44.26999651171528" lon="11.432936018292851"><ele>472.99999999999994</ele><time>2026-05-03T07:47:46.979Z</time></trkpt><trkpt lat="44.26993422738199" lon="11.43305595931617"><ele>472.99999999999994</ele><time>2026-05-03T07:47:47.979Z</time></trkpt><trkpt lat="44.269892230518295" lon="11.433192410455316"><ele>473.0</ele><time>2026-05-03T07:47:48.978Z</time></trkpt><trkpt lat="44.26985546534648" lon="11.433320577675032"><ele>473.0</ele><time>2026-05-03T07:47:49.978Z</time></trkpt><trkpt lat="44.26979599529845" lon="11.43343273027667"><ele>470.59999999999997</ele><time>2026-05-03T07:47:50.978Z</time></trkpt><trkpt lat="44.26970692160676" lon="11.433511632357469"><ele>468.19999999999993</ele><time>2026-05-03T07:47:51.979Z</time></trkpt><trkpt lat="44.26959567695586" lon="11.433521525773687"><ele>465.8</ele><time>2026-05-03T07:47:52.978Z</time></trkpt><trkpt lat="44.269483525635614" lon="11.433515538148276"><ele>463.4</ele><time>2026-05-03T07:47:53.978Z</time></trkpt><trkpt lat="44.269386998994776" lon="11.433526721576087"><ele>461.0</ele><time>2026-05-03T07:47:54.978Z</time></trkpt><trkpt lat="44.26929425834418" lon="11.43357392179778"><ele>461.0</ele><time>2026-05-03T07:47:55.978Z</time></trkpt><trkpt lat="44.269204513446255" lon="11.433626847301692"><ele>461.0</ele><time>2026-05-03T07:47:56.978Z</time></trkpt><trkpt lat="44.26911026436696" lon="11.433680973426888"><ele>461.0</ele><time>2026-05-03T07:47:57.978Z</time></trkpt><trkpt lat="44.26901764256055" lon="11.433731928391124"><ele>461.0</ele><time>2026-05-03T07:47:58.979Z</time></trkpt><trkpt lat="44.26892802683028" lon="11.43377923120967"><ele>461.0</ele><time>2026-05-03T07:47:59.979Z</time></trkpt><trkpt lat="44.26884101953229" lon="11.433825825281401"><ele>459.0</ele><time>2026-05-03T07:48:00.979Z</time></trkpt><trkpt lat="44.268746866869584" lon="11.43385481337688"><ele>457.0</ele><time>2026-05-03T07:48:01.979Z</time></trkpt><trkpt lat="44.268668785781685" lon="11.433904691469635"><ele>455.0</ele><time>2026-05-03T07:48:02.979Z</time></trkpt><trkpt lat="44.268578347885786" lon="11.433923834092674"><ele>453.0</ele><time>2026-05-03T07:48:03.979Z</time></trkpt><trkpt lat="44.268492630471734" lon="11.433934647169378"><ele>451.0</ele><time>2026-05-03T07:48:04.979Z</time></trkpt><trkpt lat="44.268399228943856" lon="11.433973010723896"><ele>451.00000000000006</ele><time>2026-05-03T07:48:05.979Z</time></trkpt><trkpt lat="44.26832261026996" lon="11.434047665453766"><ele>451.0</ele><time>2026-05-03T07:48:06.979Z</time></trkpt><trkpt lat="44.268274587191435" lon="11.434144640764226"><ele>451.0</ele><time>2026-05-03T07:48:07.979Z</time></trkpt><trkpt lat="44.26823065816791" lon="11.434231564728492"><ele>451.0</ele><time>2026-05-03T07:48:08.979Z</time></trkpt><trkpt lat="44.268182776967926" lon="11.434310235721037"><ele>451.00000000000006</ele><time>2026-05-03T07:48:09.979Z</time></trkpt><trkpt lat="44.26813272377315" lon="11.434412366371966"><ele>451.0</ele><time>2026-05-03T07:48:10.979Z</time></trkpt><trkpt lat="44.26807029616666" lon="11.434501581370661"><ele>451.4</ele><time>2026-05-03T07:48:11.979Z</time></trkpt><trkpt lat="44.26800847636868" lon="11.434602788161056"><ele>451.8</ele><time>2026-05-03T07:48:12.979Z</time></trkpt><trkpt lat="44.267937880826956" lon="11.434696444722835"><ele>452.19999999999993</ele><time>2026-05-03T07:48:13.979Z</time></trkpt><trkpt lat="44.26785026769716" lon="11.434750890317101"><ele>452.59999999999997</ele><time>2026-05-03T07:48:14.979Z</time></trkpt><trkpt lat="44.26776179966595" lon="11.434817774595928"><ele>453.0</ele><time>2026-05-03T07:48:15.979Z</time></trkpt><trkpt lat="44.26766539973499" lon="11.434834869275853"><ele>450.4</ele><time>2026-05-03T07:48:16.979Z</time></trkpt><trkpt lat="44.26757405393586" lon="11.434883945975583"><ele>447.79999999999995</ele><time>2026-05-03T07:48:17.979Z</time></trkpt><trkpt lat="44.26747726079189" lon="11.434910643570387"><ele>445.2</ele><time>2026-05-03T07:48:18.979Z</time></trkpt><trkpt lat="44.267394413056714" lon="11.434929487443869"><ele>442.6</ele><time>2026-05-03T07:48:19.979Z</time></trkpt><trkpt lat="44.26732733142955" lon="11.434986764903453"><ele>440.0</ele><time>2026-05-03T07:48:20.979Z</time></trkpt><trkpt lat="44.26723804207481" lon="11.435083900902162"><ele>439.8</ele><time>2026-05-03T07:48:21.979Z</time></trkpt><trkpt lat="44.267217212513614" lon="11.435207432439665"><ele>439.6</ele><time>2026-05-03T07:48:22.979Z</time></trkpt><trkpt lat="44.267231976812944" lon="11.435333747108297"><ele>439.4</ele><time>2026-05-03T07:48:23.979Z</time></trkpt><trkpt lat="44.26726371289898" lon="11.435446738379493"><ele>439.2</ele><time>2026-05-03T07:48:24.979Z</time></trkpt><trkpt lat="44.267308408157774" lon="11.435576434893147"><ele>439.0</ele><time>2026-05-03T07:48:25.979Z</time></trkpt><trkpt lat="44.267348742175976" lon="11.43569677707191"><ele>437.2</ele><time>2026-05-03T07:48:26.979Z</time></trkpt><trkpt lat="44.2673974136261" lon="11.435835272848204"><ele>435.4</ele><time>2026-05-03T07:48:27.979Z</time></trkpt><trkpt lat="44.2674439274223" lon="11.435961465327708"><ele>433.6</ele><time>2026-05-03T07:48:28.979Z</time></trkpt><trkpt lat="44.267491455831774" lon="11.43608064413845"><ele>431.8</ele><time>2026-05-03T07:48:29.979Z</time></trkpt><trkpt lat="44.26753977152018" lon="11.436197888733988"><ele>430.0</ele><time>2026-05-03T07:48:30.979Z</time></trkpt><trkpt lat="44.267591483054936" lon="11.436306273087146"><ele>429.6</ele><time>2026-05-03T07:48:31.979Z</time></trkpt><trkpt lat="44.2676729868275" lon="11.43636682899152"><ele>429.2</ele><time>2026-05-03T07:48:32.979Z</time></trkpt><trkpt lat="44.267762245893564" lon="11.43639846676659"><ele>428.79999999999995</ele><time>2026-05-03T07:48:33.979Z</time></trkpt><trkpt lat="44.267858388910774" lon="11.436425784291878"><ele>428.4</ele><time>2026-05-03T07:48:34.979Z</time></trkpt><trkpt lat="44.26793929357788" lon="11.436477006078178"><ele>428.0</ele><time>2026-05-03T07:48:35.979Z</time></trkpt><trkpt lat="44.26799964309679" lon="11.436585529480775"><ele>428.0</ele><time>2026-05-03T07:48:36.979Z</time></trkpt><trkpt lat="44.268011355101926" lon="11.436718646997392"><ele>427.99999999999994</ele><time>2026-05-03T07:48:37.979Z</time></trkpt><trkpt lat="44.267970487168775" lon="11.436843431410837"><ele>427.99999999999994</ele><time>2026-05-03T07:48:38.979Z</time></trkpt><trkpt lat="44.26791321246795" lon="11.43694759332002"><ele>428.0</ele><time>2026-05-03T07:48:39.979Z</time></trkpt><trkpt lat="44.26789286607143" lon="11.437061557902888"><ele>428.0</ele><time>2026-05-03T07:48:40.979Z</time></trkpt><trkpt lat="44.26789891683637" lon="11.437193205914108"><ele>428.59999999999997</ele><time>2026-05-03T07:48:41.979Z</time></trkpt><trkpt lat="44.267932245904454" lon="11.437316351818243"><ele>429.19999999999993</ele><time>2026-05-03T07:48:42.979Z</time></trkpt><trkpt lat="44.26797316128135" lon="11.437434307295199"><ele>429.8</ele><time>2026-05-03T07:48:43.979Z</time></trkpt><trkpt lat="44.26801487384309" lon="11.43752313633574"><ele>430.4</ele><time>2026-05-03T07:48:44.979Z</time></trkpt><trkpt lat="44.26807454472178" lon="11.437652117313746"><ele>431.0</ele><time>2026-05-03T07:48:45.978Z</time></trkpt><trkpt lat="44.268118434962844" lon="11.437778704806115"><ele>428.8333333333333</ele><time>2026-05-03T07:48:46.978Z</time></trkpt><trkpt lat="44.2681567375974" lon="11.437901133960512"><ele>426.66666666666663</ele><time>2026-05-03T07:48:47.978Z</time></trkpt><trkpt lat="44.26818857795808" lon="11.438023426607218"><ele>424.5</ele><time>2026-05-03T07:48:48.978Z</time></trkpt><trkpt lat="44.26821823044064" lon="11.438137702431506"><ele>422.33333333333337</ele><time>2026-05-03T07:48:49.978Z</time></trkpt><trkpt lat="44.26824216170159" lon="11.438257462081417"><ele>420.1666666666667</ele><time>2026-05-03T07:48:50.978Z</time></trkpt><trkpt lat="44.26824872427691" lon="11.438374358193215"><ele>418.0</ele><time>2026-05-03T07:48:51.978Z</time></trkpt><trkpt lat="44.26826297817767" lon="11.438485000313069"><ele>418.00000000000006</ele><time>2026-05-03T07:48:52.978Z</time></trkpt><trkpt lat="44.26829612791055" lon="11.438584326123527"><ele>418.0</ele><time>2026-05-03T07:48:53.978Z</time></trkpt><trkpt lat="44.26834187773554" lon="11.438662436102078"><ele>418.0</ele><time>2026-05-03T07:48:54.978Z</time></trkpt><trkpt lat="44.268391429281166" lon="11.43871774590133"><ele>418.0</ele><time>2026-05-03T07:48:55.978Z</time></trkpt><trkpt lat="44.268449263166424" lon="11.438768617488694"><ele>418.00000000000006</ele><time>2026-05-03T07:48:56.978Z</time></trkpt><trkpt lat="44.26854401981593" lon="11.438883677618117"><ele>418.0</ele><time>2026-05-03T07:48:58.978Z</time></trkpt><trkpt lat="44.26855845968268" lon="11.43897124562635"><ele>419.42857142857144</ele><time>2026-05-03T07:48:59.978Z</time></trkpt><trkpt lat="44.26859148532757" lon="11.439073629859077"><ele>420.85714285714283</ele><time>2026-05-03T07:49:00.978Z</time></trkpt><trkpt lat="44.26861060314967" lon="11.439179696616181"><ele>422.28571428571433</ele><time>2026-05-03T07:49:01.978Z</time></trkpt><trkpt lat="44.268630571188865" lon="11.439283574719072"><ele>423.7142857142857</ele><time>2026-05-03T07:49:02.978Z</time></trkpt><trkpt lat="44.268658409356355" lon="11.43937564195272"><ele>425.14285714285717</ele><time>2026-05-03T07:49:03.978Z</time></trkpt><trkpt lat="44.26869982742097" lon="11.439446196258963"><ele>426.5714285714286</ele><time>2026-05-03T07:49:04.978Z</time></trkpt><trkpt lat="44.2687598273835" lon="11.439505366171355"><ele>428.0</ele><time>2026-05-03T07:49:05.978Z</time></trkpt><trkpt lat="44.26886052348602" lon="11.439597900490176"><ele>428.8571428571429</ele><time>2026-05-03T07:49:07.978Z</time></trkpt><trkpt lat="44.268911770415855" lon="11.439649191928341"><ele>429.7142857142857</ele><time>2026-05-03T07:49:08.978Z</time></trkpt><trkpt lat="44.268957762432386" lon="11.439711541492489"><ele>430.57142857142856</ele><time>2026-05-03T07:49:09.978Z</time></trkpt><trkpt lat="44.26900335745962" lon="11.439792329162913"><ele>431.42857142857144</ele><time>2026-05-03T07:49:10.978Z</time></trkpt><trkpt lat="44.26903469635908" lon="11.439882560743628"><ele>432.2857142857143</ele><time>2026-05-03T07:49:11.978Z</time></trkpt><trkpt lat="44.269057119069124" lon="11.439968338754525"><ele>433.14285714285717</ele><time>2026-05-03T07:49:12.978Z</time></trkpt><trkpt lat="44.269088877020266" lon="11.440051985659364"><ele>434.0</ele><time>2026-05-03T07:49:13.978Z</time></trkpt><trkpt lat="44.26911830964422" lon="11.440137235489427"><ele>432.66666666666663</ele><time>2026-05-03T07:49:14.978Z</time></trkpt><trkpt lat="44.26915180275649" lon="11.440222651924234"><ele>431.3333333333333</ele><time>2026-05-03T07:49:15.978Z</time></trkpt><trkpt lat="44.26917880293911" lon="11.440305289191867"><ele>430.0</ele><time>2026-05-03T07:49:16.978Z</time></trkpt><trkpt lat="44.269215499217935" lon="11.440453080919973"><ele>428.66666666666663</ele><time>2026-05-03T07:49:18.978Z</time></trkpt><trkpt lat="44.26928862199946" lon="11.440585428290841"><ele>427.3333333333333</ele><time>2026-05-03T07:49:20.978Z</time></trkpt><trkpt lat="44.269318986868115" lon="11.440673258872769"><ele>426.0</ele><time>2026-05-03T07:49:21.978Z</time></trkpt><trkpt lat="44.26934356123301" lon="11.440767159868711"><ele>425.99999999999994</ele><time>2026-05-03T07:49:22.978Z</time></trkpt><trkpt lat="44.269378647277435" lon="11.440860364508003"><ele>426.0</ele><time>2026-05-03T07:49:23.978Z</time></trkpt><trkpt lat="44.26940310846257" lon="11.440956633720223"><ele>426.0</ele><time>2026-05-03T07:49:24.978Z</time></trkpt><trkpt lat="44.26940640265596" lon="11.441055604329824"><ele>426.0</ele><time>2026-05-03T07:49:25.978Z</time></trkpt><trkpt lat="44.26939856899173" lon="11.441147770756048"><ele>426.0</ele><time>2026-05-03T07:49:26.978Z</time></trkpt><trkpt lat="44.26938802985756" lon="11.44124686684385"><ele>425.99999999999994</ele><time>2026-05-03T07:49:27.978Z</time></trkpt><trkpt lat="44.26936793222272" lon="11.441335641003127"><ele>426.0</ele><time>2026-05-03T07:49:28.978Z</time></trkpt><trkpt lat="44.269352621763424" lon="11.441430925155544"><ele>427.3333333333333</ele><time>2026-05-03T07:49:29.978Z</time></trkpt><trkpt lat="44.26933829465289" lon="11.441522436777142"><ele>428.66666666666663</ele><time>2026-05-03T07:49:30.978Z</time></trkpt><trkpt lat="44.26931994231456" lon="11.441620028419344"><ele>430.0</ele><time>2026-05-03T07:49:31.978Z</time></trkpt><trkpt lat="44.26930843280587" lon="11.441732121795415"><ele>431.3333333333333</ele><time>2026-05-03T07:49:32.978Z</time></trkpt><trkpt lat="44.26929250975513" lon="11.4418472109918"><ele>432.66666666666663</ele><time>2026-05-03T07:49:33.978Z</time></trkpt><trkpt lat="44.26927364878758" lon="11.44196314837369"><ele>434.0</ele><time>2026-05-03T07:49:34.978Z</time></trkpt><trkpt lat="44.26925836476229" lon="11.442067279944409"><ele>433.99999999999994</ele><time>2026-05-03T07:49:35.978Z</time></trkpt><trkpt lat="44.2692453630228" lon="11.442167790481914"><ele>434.0</ele><time>2026-05-03T07:49:36.978Z</time></trkpt><trkpt lat="44.269234457179834" lon="11.442260139123722"><ele>434.0</ele><time>2026-05-03T07:49:37.978Z</time></trkpt><trkpt lat="44.26920986819523" lon="11.442435568655423"><ele>434.0</ele><time>2026-05-03T07:49:39.978Z</time></trkpt><trkpt lat="44.26920672559057" lon="11.442538995319104"><ele>433.99999999999994</ele><time>2026-05-03T07:49:40.978Z</time></trkpt><trkpt lat="44.26920315293283" lon="11.442641207365712"><ele>434.0</ele><time>2026-05-03T07:49:41.978Z</time></trkpt><trkpt lat="44.26919761898529" lon="11.44274226606195"><ele>433.99999999999994</ele><time>2026-05-03T07:49:42.978Z</time></trkpt><trkpt lat="44.269201912695756" lon="11.442842539393153"><ele>434.0</ele><time>2026-05-03T07:49:43.978Z</time></trkpt><trkpt lat="44.269211467902736" lon="11.44294918643911"><ele>434.0</ele><time>2026-05-03T07:49:44.978Z</time></trkpt><trkpt lat="44.269223712031824" lon="11.443056561958645"><ele>434.0</ele><time>2026-05-03T07:49:45.978Z</time></trkpt><trkpt lat="44.269240627632826" lon="11.443163242769737"><ele>433.99999999999994</ele><time>2026-05-03T07:49:46.978Z</time></trkpt><trkpt lat="44.26926789003256" lon="11.4432696594996"><ele>434.0</ele><time>2026-05-03T07:49:47.978Z</time></trkpt><trkpt lat="44.26930515431733" lon="11.443358884762748"><ele>434.2857142857143</ele><time>2026-05-03T07:49:48.978Z</time></trkpt><trkpt lat="44.269347602801545" lon="11.443439154222554"><ele>434.57142857142856</ele><time>2026-05-03T07:49:49.978Z</time></trkpt><trkpt lat="44.269392304473804" lon="11.443512693988149"><ele>434.8571428571429</ele><time>2026-05-03T07:49:50.978Z</time></trkpt><trkpt lat="44.26942262189303" lon="11.443598393230724"><ele>435.1428571428571</ele><time>2026-05-03T07:49:51.977Z</time></trkpt><trkpt lat="44.26946739802065" lon="11.443672346711768"><ele>435.42857142857144</ele><time>2026-05-03T07:49:52.977Z</time></trkpt><trkpt lat="44.269512231671406" lon="11.443750662034763"><ele>435.7142857142857</ele><time>2026-05-03T07:49:53.977Z</time></trkpt><trkpt lat="44.26955418665336" lon="11.443830366793541"><ele>436.0</ele><time>2026-05-03T07:49:54.977Z</time></trkpt><trkpt lat="44.26960061477322" lon="11.443913112598242"><ele>436.00000000000006</ele><time>2026-05-03T07:49:55.977Z</time></trkpt><trkpt lat="44.2696550503911" lon="11.443993770688556"><ele>436.0</ele><time>2026-05-03T07:49:56.977Z</time></trkpt><trkpt lat="44.269715522597274" lon="11.444074006525591"><ele>436.0</ele><time>2026-05-03T07:49:57.978Z</time></trkpt><trkpt lat="44.26977024393282" lon="11.444169175333005"><ele>436.0</ele><time>2026-05-03T07:49:58.977Z</time></trkpt><trkpt lat="44.269817609267946" lon="11.444265215912065"><ele>436.00000000000006</ele><time>2026-05-03T07:49:59.977Z</time></trkpt><trkpt lat="44.26985884420001" lon="11.444366157670835"><ele>436.0</ele><time>2026-05-03T07:50:00.977Z</time></trkpt><trkpt lat="44.26990228965125" lon="11.444467666170864"><ele>434.83333333333337</ele><time>2026-05-03T07:50:01.977Z</time></trkpt><trkpt lat="44.269947936702536" lon="11.444566227874345"><ele>433.6666666666667</ele><time>2026-05-03T07:50:02.977Z</time></trkpt><trkpt lat="44.26998552321718" lon="11.44466759787206"><ele>432.5</ele><time>2026-05-03T07:50:03.977Z</time></trkpt><trkpt lat="44.27002379181473" lon="11.444762367910018"><ele>431.33333333333337</ele><time>2026-05-03T07:50:04.977Z</time></trkpt><trkpt lat="44.27006248085138" lon="11.444856738095355"><ele>430.1666666666667</ele><time>2026-05-03T07:50:05.977Z</time></trkpt><trkpt lat="44.27010441886238" lon="11.444968138523262"><ele>429.0</ele><time>2026-05-03T07:50:06.977Z</time></trkpt><trkpt lat="44.27014994681904" lon="11.445071946601486"><ele>429.0</ele><time>2026-05-03T07:50:07.977Z</time></trkpt><trkpt lat="44.270193496856805" lon="11.445182066138914"><ele>429.0</ele><time>2026-05-03T07:50:08.977Z</time></trkpt><trkpt lat="44.270250636938215" lon="11.445284832493897"><ele>429.0</ele><time>2026-05-03T07:50:09.977Z</time></trkpt><trkpt lat="44.27032306759896" lon="11.445362127876743"><ele>429.0</ele><time>2026-05-03T07:50:10.977Z</time></trkpt><trkpt lat="44.27041125255311" lon="11.445420749351847"><ele>429.0</ele><time>2026-05-03T07:50:11.977Z</time></trkpt><trkpt lat="44.27050300447641" lon="11.44546546279972"><ele>428.4</ele><time>2026-05-03T07:50:12.977Z</time></trkpt><trkpt lat="44.27060043209162" lon="11.445498559315215"><ele>427.79999999999995</ele><time>2026-05-03T07:50:13.977Z</time></trkpt><trkpt lat="44.270710085669016" lon="11.445506585502619"><ele>427.20000000000005</ele><time>2026-05-03T07:50:14.977Z</time></trkpt><trkpt lat="44.27081975197128" lon="11.445515092587353"><ele>426.6</ele><time>2026-05-03T07:50:15.977Z</time></trkpt><trkpt lat="44.27092522970427" lon="11.445516015772169"><ele>426.0</ele><time>2026-05-03T07:50:16.977Z</time></trkpt><trkpt lat="44.27103916142938" lon="11.445520157615164"><ele>426.0</ele><time>2026-05-03T07:50:17.977Z</time></trkpt><trkpt lat="44.2711484978778" lon="11.445524720793008"><ele>426.0</ele><time>2026-05-03T07:50:18.977Z</time></trkpt><trkpt lat="44.27126139824905" lon="11.445547521545166"><ele>426.0</ele><time>2026-05-03T07:50:19.977Z</time></trkpt><trkpt lat="44.27137299125317" lon="11.445586213236503"><ele>426.0</ele><time>2026-05-03T07:50:20.977Z</time></trkpt><trkpt lat="44.27147351086229" lon="11.445681054951805"><ele>422.75</ele><time>2026-05-03T07:50:21.977Z</time></trkpt><trkpt lat="44.27155765434095" lon="11.445797337298645"><ele>419.5</ele><time>2026-05-03T07:50:22.977Z</time></trkpt><trkpt lat="44.271645259610885" lon="11.445905123739944"><ele>416.25</ele><time>2026-05-03T07:50:23.977Z</time></trkpt><trkpt lat="44.27171230000749" lon="11.44603729521258"><ele>413.0</ele><time>2026-05-03T07:50:24.977Z</time></trkpt><trkpt lat="44.27178843298479" lon="11.446167515822529"><ele>413.0</ele><time>2026-05-03T07:50:25.977Z</time></trkpt><trkpt lat="44.27186403170724" lon="11.446288378112271"><ele>413.0</ele><time>2026-05-03T07:50:26.977Z</time></trkpt><trkpt lat="44.27194368675897" lon="11.446410520178027"><ele>413.0</ele><time>2026-05-03T07:50:27.977Z</time></trkpt><trkpt lat="44.27202832738773" lon="11.446532736444672"><ele>413.0</ele><time>2026-05-03T07:50:28.977Z</time></trkpt><trkpt lat="44.272106032446516" lon="11.446676492961382"><ele>413.59999999999997</ele><time>2026-05-03T07:50:29.977Z</time></trkpt><trkpt lat="44.27218339619021" lon="11.44679275592295"><ele>414.2</ele><time>2026-05-03T07:50:30.977Z</time></trkpt><trkpt lat="44.27226366620096" lon="11.446916621117696"><ele>414.8</ele><time>2026-05-03T07:50:31.977Z</time></trkpt><trkpt lat="44.27233070308485" lon="11.447034183448515"><ele>415.4</ele><time>2026-05-03T07:50:32.977Z</time></trkpt><trkpt lat="44.27238875921129" lon="11.44715145587712"><ele>416.0</ele><time>2026-05-03T07:50:33.977Z</time></trkpt><trkpt lat="44.272441309823876" lon="11.447267449462561"><ele>413.4</ele><time>2026-05-03T07:50:34.977Z</time></trkpt><trkpt lat="44.27246949639224" lon="11.447383233178304"><ele>410.8</ele><time>2026-05-03T07:50:35.977Z</time></trkpt><trkpt lat="44.27249463221747" lon="11.44752016067538"><ele>408.2</ele><time>2026-05-03T07:50:36.977Z</time></trkpt><trkpt lat="44.2725136032447" lon="11.447661443176822"><ele>405.59999999999997</ele><time>2026-05-03T07:50:37.977Z</time></trkpt><trkpt lat="44.27253118882878" lon="11.447797546375456"><ele>403.0</ele><time>2026-05-03T07:50:38.977Z</time></trkpt><trkpt lat="44.27256089909962" lon="11.447948094199914"><ele>401.25</ele><time>2026-05-03T07:50:39.977Z</time></trkpt><trkpt lat="44.272576474489334" lon="11.448105679229762"><ele>399.5</ele><time>2026-05-03T07:50:40.977Z</time></trkpt><trkpt lat="44.272584084555575" lon="11.448270374506645"><ele>397.75</ele><time>2026-05-03T07:50:41.977Z</time></trkpt><trkpt lat="44.272588465216316" lon="11.448434190351538"><ele>396.0</ele><time>2026-05-03T07:50:42.977Z</time></trkpt><trkpt lat="44.27257441492654" lon="11.448599247003731"><ele>396.0</ele><time>2026-05-03T07:50:43.977Z</time></trkpt><trkpt lat="44.27255258356099" lon="11.448760286186694"><ele>396.0</ele><time>2026-05-03T07:50:44.977Z</time></trkpt><trkpt lat="44.2725329326911" lon="11.448909494776117"><ele>396.0</ele><time>2026-05-03T07:50:45.977Z</time></trkpt><trkpt lat="44.27251391432167" lon="11.449035909024033"><ele>396.0</ele><time>2026-05-03T07:50:46.977Z</time></trkpt><trkpt lat="44.27250181094772" lon="11.44916803292653"><ele>396.0</ele><time>2026-05-03T07:50:47.977Z</time></trkpt><trkpt lat="44.272511060446575" lon="11.449309631714474"><ele>394.0</ele><time>2026-05-03T07:50:48.977Z</time></trkpt><trkpt lat="44.2725425608042" lon="11.449445424248173"><ele>392.0</ele><time>2026-05-03T07:50:49.977Z</time></trkpt><trkpt lat="44.27260249214345" lon="11.449573948302591"><ele>390.0</ele><time>2026-05-03T07:50:50.977Z</time></trkpt><trkpt lat="44.272677264593796" lon="11.449652691115778"><ele>388.0</ele><time>2026-05-03T07:50:51.977Z</time></trkpt><trkpt lat="44.272778294974565" lon="11.449707073291622"><ele>386.0</ele><time>2026-05-03T07:50:52.977Z</time></trkpt><trkpt lat="44.272880232418956" lon="11.449752099199186"><ele>384.25</ele><time>2026-05-03T07:50:53.977Z</time></trkpt><trkpt lat="44.27299381139154" lon="11.44976216825885"><ele>382.5</ele><time>2026-05-03T07:50:54.977Z</time></trkpt><trkpt lat="44.2731036500805" lon="11.449722407714155"><ele>380.75</ele><time>2026-05-03T07:50:55.977Z</time></trkpt><trkpt lat="44.273218972358514" lon="11.449667878626396"><ele>379.0</ele><time>2026-05-03T07:50:56.977Z</time></trkpt><trkpt lat="44.27333113789352" lon="11.449644132365624"><ele>376.25</ele><time>2026-05-03T07:50:57.977Z</time></trkpt><trkpt lat="44.273450201899124" lon="11.449636260895875"><ele>373.5</ele><time>2026-05-03T07:50:58.977Z</time></trkpt><trkpt lat="44.27356393562382" lon="11.449622616283321"><ele>370.75</ele><time>2026-05-03T07:50:59.977Z</time></trkpt><trkpt lat="44.27368190418496" lon="11.449625154104837"><ele>368.0</ele><time>2026-05-03T07:51:00.977Z</time></trkpt><trkpt lat="44.273794291428516" lon="11.449621086294588"><ele>368.0</ele><time>2026-05-03T07:51:01.977Z</time></trkpt><trkpt lat="44.273896907305364" lon="11.449621155660886"><ele>368.0</ele><time>2026-05-03T07:51:02.977Z</time></trkpt><trkpt lat="44.27395894453179" lon="11.449636606873865"><ele>368.0</ele><time>2026-05-03T07:51:03.977Z</time></trkpt><trkpt lat="44.274036007351995" lon="11.44971766088692"><ele>368.0</ele><time>2026-05-03T07:51:05.977Z</time></trkpt><trkpt lat="44.27397178279613" lon="11.449874458061702"><ele>368.0</ele><time>2026-05-03T07:51:06.977Z</time></trkpt><trkpt lat="44.273872959786914" lon="11.449921179918528"><ele>368.0</ele><time>2026-05-03T07:51:07.977Z</time></trkpt><trkpt lat="44.2737913351774" lon="11.450015257457395"><ele>368.0</ele><time>2026-05-03T07:51:08.977Z</time></trkpt><trkpt lat="44.27370768511097" lon="11.45010052516478"><ele>368.0</ele><time>2026-05-03T07:51:09.977Z</time></trkpt><trkpt lat="44.27365462009246" lon="11.450243521296985"><ele>368.0</ele><time>2026-05-03T07:51:10.977Z</time></trkpt><trkpt lat="44.27362058815528" lon="11.450396359247426"><ele>368.0</ele><time>2026-05-03T07:51:11.977Z</time></trkpt><trkpt lat="44.2735926499048" lon="11.450552681563936"><ele>365.0</ele><time>2026-05-03T07:51:12.977Z</time></trkpt><trkpt lat="44.27354727467545" lon="11.450687857662118"><ele>362.0</ele><time>2026-05-03T07:51:13.977Z</time></trkpt><trkpt lat="44.27346026094962" lon="11.450799302850678"><ele>359.0</ele><time>2026-05-03T07:51:14.977Z</time></trkpt><trkpt lat="44.27335413103561" lon="11.45088611754703"><ele>356.0</ele><time>2026-05-03T07:51:15.977Z</time></trkpt><trkpt lat="44.27328340592859" lon="11.451005014433797"><ele>356.0</ele><time>2026-05-03T07:51:16.977Z</time></trkpt><trkpt lat="44.27325352006776" lon="11.451161913563034"><ele>356.0</ele><time>2026-05-03T07:51:17.977Z</time></trkpt><trkpt lat="44.273275982165615" lon="11.451322727319495"><ele>356.0</ele><time>2026-05-03T07:51:18.977Z</time></trkpt><trkpt lat="44.273296970746784" lon="11.451481545183585"><ele>356.0</ele><time>2026-05-03T07:51:19.977Z</time></trkpt><trkpt lat="44.273325670868026" lon="11.451648077042105"><ele>354.5</ele><time>2026-05-03T07:51:20.977Z</time></trkpt><trkpt lat="44.273349855223685" lon="11.451812491733994"><ele>353.0</ele><time>2026-05-03T07:51:21.977Z</time></trkpt><trkpt lat="44.27337620225617" lon="11.4519813287912"><ele>351.5</ele><time>2026-05-03T07:51:22.977Z</time></trkpt><trkpt lat="44.273401689052825" lon="11.452146367044367"><ele>350.0</ele><time>2026-05-03T07:51:23.977Z</time></trkpt><trkpt lat="44.2734085877343" lon="11.452311534005132"><ele>348.5</ele><time>2026-05-03T07:51:24.977Z</time></trkpt><trkpt lat="44.273435827948035" lon="11.45247000248316"><ele>347.0</ele><time>2026-05-03T07:51:25.977Z</time></trkpt><trkpt lat="44.27343228863834" lon="11.452633860933123"><ele>345.5</ele><time>2026-05-03T07:51:26.977Z</time></trkpt><trkpt lat="44.2734457631951" lon="11.452788519916231"><ele>344.0</ele><time>2026-05-03T07:51:27.977Z</time></trkpt><trkpt lat="44.27345582473758" lon="11.452954454006946"><ele>341.75</ele><time>2026-05-03T07:51:28.977Z</time></trkpt><trkpt lat="44.273476350665455" lon="11.453108526796623"><ele>339.5</ele><time>2026-05-03T07:51:29.977Z</time></trkpt><trkpt lat="44.27351009221246" lon="11.453269007876246"><ele>337.25</ele><time>2026-05-03T07:51:30.977Z</time></trkpt><trkpt lat="44.27356982905075" lon="11.453410563049747"><ele>335.0</ele><time>2026-05-03T07:51:31.977Z</time></trkpt><trkpt lat="44.273640481697086" lon="11.453554179479477"><ele>335.0</ele><time>2026-05-03T07:51:32.977Z</time></trkpt><trkpt lat="44.27370488868057" lon="11.453704916345256"><ele>335.0</ele><time>2026-05-03T07:51:33.977Z</time></trkpt><trkpt lat="44.27376815628215" lon="11.45385898053237"><ele>335.0</ele><time>2026-05-03T07:51:34.977Z</time></trkpt><trkpt lat="44.273834724550355" lon="11.454015915208656"><ele>335.0</ele><time>2026-05-03T07:51:35.977Z</time></trkpt><trkpt lat="44.27389871161518" lon="11.454177845922368"><ele>332.0</ele><time>2026-05-03T07:51:36.977Z</time></trkpt><trkpt lat="44.273963559745006" lon="11.454340687768322"><ele>329.0</ele><time>2026-05-03T07:51:37.977Z</time></trkpt><trkpt lat="44.27402894547854" lon="11.454502001760309"><ele>326.0</ele><time>2026-05-03T07:51:38.977Z</time></trkpt><trkpt lat="44.2740918846193" lon="11.454659674688843"><ele>323.0</ele><time>2026-05-03T07:51:39.977Z</time></trkpt><trkpt lat="44.274154984588215" lon="11.454814309844494"><ele>321.25</ele><time>2026-05-03T07:51:40.977Z</time></trkpt><trkpt lat="44.27421819417784" lon="11.45497161949252"><ele>319.5</ele><time>2026-05-03T07:51:41.977Z</time></trkpt><trkpt lat="44.27428180136899" lon="11.455127776869828"><ele>317.75</ele><time>2026-05-03T07:51:42.977Z</time></trkpt><trkpt lat="44.274342711261305" lon="11.455282114274883"><ele>316.0</ele><time>2026-05-03T07:51:43.977Z</time></trkpt><trkpt lat="44.27439397162108" lon="11.455427935177205"><ele>315.6</ele><time>2026-05-03T07:51:44.977Z</time></trkpt><trkpt lat="44.2744636010636" lon="11.455548950031522"><ele>315.20000000000005</ele><time>2026-05-03T07:51:45.977Z</time></trkpt><trkpt lat="44.274561267888146" lon="11.455619125146582"><ele>314.79999999999995</ele><time>2026-05-03T07:51:46.977Z</time></trkpt><trkpt lat="44.27464707095073" lon="11.455713251677254"><ele>314.4</ele><time>2026-05-03T07:51:47.977Z</time></trkpt><trkpt lat="44.27473543655388" lon="11.455810194030098"><ele>314.0</ele><time>2026-05-03T07:51:48.977Z</time></trkpt><trkpt lat="44.27480508217289" lon="11.45587110534265"><ele>313.99999999999994</ele><time>2026-05-03T07:51:49.977Z</time></trkpt><trkpt lat="44.27486671704355" lon="11.455914488786568"><ele>314.0</ele><time>2026-05-03T07:51:50.977Z</time></trkpt><trkpt lat="44.274925805708236" lon="11.45597847232673"><ele>314.0</ele><time>2026-05-03T07:51:51.977Z</time></trkpt><trkpt lat="44.27496752500132" lon="11.456047223998247"><ele>314.0</ele><time>2026-05-03T07:51:52.977Z</time></trkpt><trkpt lat="44.274981963296696" lon="11.456133666928325"><ele>314.0</ele><time>2026-05-03T07:51:53.977Z</time></trkpt><trkpt lat="44.27494758036765" lon="11.456214206526624"><ele>313.99999999999994</ele><time>2026-05-03T07:51:54.977Z</time></trkpt><trkpt lat="44.27486193802558" lon="11.45625607378147"><ele>314.0</ele><time>2026-05-03T07:51:55.977Z</time></trkpt><trkpt lat="44.274783624915266" lon="11.456203712319494"><ele>312.8</ele><time>2026-05-03T07:51:56.977Z</time></trkpt><trkpt lat="44.274678044275284" lon="11.45620691401861"><ele>311.59999999999997</ele><time>2026-05-03T07:51:57.976Z</time></trkpt><trkpt lat="44.27459291000696" lon="11.456210133013512"><ele>310.4</ele><time>2026-05-03T07:51:58.976Z</time></trkpt><trkpt lat="44.274506742086565" lon="11.456231985721393"><ele>309.2</ele><time>2026-05-03T07:51:59.976Z</time></trkpt><trkpt lat="44.27441103250936" lon="11.456223665938815"><ele>308.0</ele><time>2026-05-03T07:52:00.977Z</time></trkpt><trkpt lat="44.27431532451867" lon="11.456213008348685"><ele>308.0</ele><time>2026-05-03T07:52:01.976Z</time></trkpt><trkpt lat="44.27421588712138" lon="11.45619913514884"><ele>308.0</ele><time>2026-05-03T07:52:02.976Z</time></trkpt><trkpt lat="44.27411875472059" lon="11.456177464587421"><ele>308.0</ele><time>2026-05-03T07:52:03.976Z</time></trkpt><trkpt lat="44.27403620232142" lon="11.456222567631244"><ele>308.0</ele><time>2026-05-03T07:52:04.976Z</time></trkpt><trkpt lat="44.27396817749683" lon="11.456310189938232"><ele>308.0</ele><time>2026-05-03T07:52:05.976Z</time></trkpt><trkpt lat="44.273922839450044" lon="11.456435284034356"><ele>305.6</ele><time>2026-05-03T07:52:06.977Z</time></trkpt><trkpt lat="44.27389147109335" lon="11.456588236262126"><ele>303.20000000000005</ele><time>2026-05-03T07:52:07.977Z</time></trkpt><trkpt lat="44.27385951269023" lon="11.456741048986846"><ele>300.8</ele><time>2026-05-03T07:52:08.977Z</time></trkpt><trkpt lat="44.27382505443618" lon="11.456876649914507"><ele>298.40000000000003</ele><time>2026-05-03T07:52:09.976Z</time></trkpt><trkpt lat="44.27376192110137" lon="11.456999076777382"><ele>296.0</ele><time>2026-05-03T07:52:10.976Z</time></trkpt><trkpt lat="44.27369395748711" lon="11.457085236785465"><ele>296.0</ele><time>2026-05-03T07:52:11.976Z</time></trkpt><trkpt lat="44.27360803424903" lon="11.457122994875425"><ele>296.0</ele><time>2026-05-03T07:52:12.976Z</time></trkpt><trkpt lat="44.27354530653676" lon="11.45710498415572"><ele>296.0</ele><time>2026-05-03T07:52:13.976Z</time></trkpt><trkpt lat="44.27350141276579" lon="11.457186726791539"><ele>296.0</ele><time>2026-05-03T07:52:15.976Z</time></trkpt><trkpt lat="44.27352537436647" lon="11.45729271028164"><ele>296.0</ele><time>2026-05-03T07:52:17.976Z</time></trkpt><trkpt lat="44.273592301922584" lon="11.457370288788272"><ele>296.0</ele><time>2026-05-03T07:52:26.976Z</time></trkpt><trkpt lat="44.273675325097734" lon="11.457411325006714"><ele>294.5</ele><time>2026-05-03T07:52:29.976Z</time></trkpt><trkpt lat="44.273750607957304" lon="11.457444703980736"><ele>293.0</ele><time>2026-05-03T07:52:32.976Z</time></trkpt><trkpt lat="44.273803760920096" lon="11.457507563838975"><ele>291.5</ele><time>2026-05-03T07:52:36.976Z</time></trkpt><trkpt lat="44.273796405770064" lon="11.45760994207149"><ele>290.0</ele><time>2026-05-03T07:52:51.976Z</time></trkpt><trkpt lat="44.27370138025067" lon="11.45754511809445"><ele>288.5</ele><time>2026-05-03T07:52:52.976Z</time></trkpt><trkpt lat="44.27360793894516" lon="11.457509067380563"><ele>287.0</ele><time>2026-05-03T07:52:54.976Z</time></trkpt><trkpt lat="44.273537875545756" lon="11.457479038984227"><ele>287.0</ele><time>2026-05-03T07:52:55.976Z</time></trkpt><trkpt lat="44.27347247373608" lon="11.45747287346828"><ele>287.0</ele><time>2026-05-03T07:52:56.976Z</time></trkpt><trkpt lat="44.273414493390305" lon="11.457424840410539"><ele>287.0</ele><time>2026-05-03T07:52:57.976Z</time></trkpt><trkpt lat="44.27333371330809" lon="11.457407750995696"><ele>287.0</ele><time>2026-05-03T07:52:58.976Z</time></trkpt><trkpt lat="44.273256713003214" lon="11.457370672527865"><ele>287.0</ele><time>2026-05-03T07:52:59.976Z</time></trkpt><trkpt lat="44.273177750698906" lon="11.457347534030708"><ele>287.0</ele><time>2026-05-03T07:53:00.976Z</time></trkpt><trkpt lat="44.27309941969146" lon="11.45732379128344"><ele>287.83333333333337</ele><time>2026-05-03T07:53:01.976Z</time></trkpt><trkpt lat="44.273018043880825" lon="11.457321237651785"><ele>288.6666666666667</ele><time>2026-05-03T07:53:02.976Z</time></trkpt><trkpt lat="44.272943405752784" lon="11.457356864094994"><ele>289.5</ele><time>2026-05-03T07:53:03.976Z</time></trkpt><trkpt lat="44.27287588801745" lon="11.457409213607058"><ele>290.3333333333333</ele><time>2026-05-03T07:53:04.976Z</time></trkpt><trkpt lat="44.272814244352354" lon="11.45749762213248"><ele>291.16666666666663</ele><time>2026-05-03T07:53:05.976Z</time></trkpt><trkpt lat="44.27274948708826" lon="11.457601915285647"><ele>292.0</ele><time>2026-05-03T07:53:06.976Z</time></trkpt><trkpt lat="44.27268650731915" lon="11.457702111473"><ele>292.0</ele><time>2026-05-03T07:53:07.976Z</time></trkpt><trkpt lat="44.27261910499102" lon="11.457806231247432"><ele>292.0</ele><time>2026-05-03T07:53:08.976Z</time></trkpt><trkpt lat="44.27254290974465" lon="11.457911454405934"><ele>292.0</ele><time>2026-05-03T07:53:09.976Z</time></trkpt><trkpt lat="44.272460064367856" lon="11.458000193479416"><ele>292.0</ele><time>2026-05-03T07:53:10.976Z</time></trkpt><trkpt lat="44.272366821255154" lon="11.458075874739672"><ele>292.0</ele><time>2026-05-03T07:53:11.976Z</time></trkpt><trkpt lat="44.27226121933177" lon="11.458104861735595"><ele>291.5</ele><time>2026-05-03T07:53:12.975Z</time></trkpt><trkpt lat="44.272152791698346" lon="11.458160185768664"><ele>291.0</ele><time>2026-05-03T07:53:13.975Z</time></trkpt><trkpt lat="44.272053755856334" lon="11.458226247805067"><ele>290.5</ele><time>2026-05-03T07:53:14.975Z</time></trkpt><trkpt lat="44.27196086198655" lon="11.458325232483578"><ele>290.0</ele><time>2026-05-03T07:53:15.975Z</time></trkpt><trkpt lat="44.271869078017936" lon="11.458424461732571"><ele>290.0</ele><time>2026-05-03T07:53:16.975Z</time></trkpt><trkpt lat="44.271788013359306" lon="11.458538730335107"><ele>290.0</ele><time>2026-05-03T07:53:17.975Z</time></trkpt><trkpt lat="44.271726778998186" lon="11.458672066967674"><ele>290.0</ele><time>2026-05-03T07:53:18.975Z</time></trkpt><trkpt lat="44.27167455166045" lon="11.458812946473277"><ele>290.0</ele><time>2026-05-03T07:53:19.975Z</time></trkpt><trkpt lat="44.27162798554206" lon="11.458958318855192"><ele>289.0</ele><time>2026-05-03T07:53:20.975Z</time></trkpt><trkpt lat="44.271584398355515" lon="11.459102890595831"><ele>288.0</ele><time>2026-05-03T07:53:21.975Z</time></trkpt><trkpt lat="44.27154621862748" lon="11.459246338873397"><ele>287.0</ele><time>2026-05-03T07:53:22.975Z</time></trkpt><trkpt lat="44.271511700733654" lon="11.459396092802065"><ele>286.0</ele><time>2026-05-03T07:53:23.975Z</time></trkpt><trkpt lat="44.271477290048885" lon="11.459544303977339"><ele>285.0</ele><time>2026-05-03T07:53:24.975Z</time></trkpt><trkpt lat="44.27143953929788" lon="11.459693920769158"><ele>288.25</ele><time>2026-05-03T07:53:25.975Z</time></trkpt><trkpt lat="44.27138725929474" lon="11.459834046711146"><ele>291.5</ele><time>2026-05-03T07:53:26.975Z</time></trkpt><trkpt lat="44.27132577765591" lon="11.45997188410501"><ele>294.75</ele><time>2026-05-03T07:53:27.975Z</time></trkpt><trkpt lat="44.27125623478218" lon="11.460103404000142"><ele>298.0</ele><time>2026-05-03T07:53:28.975Z</time></trkpt><trkpt lat="44.27117734786681" lon="11.46022574928023"><ele>298.0</ele><time>2026-05-03T07:53:29.975Z</time></trkpt><trkpt lat="44.271095101901" lon="11.460340954221618"><ele>298.0</ele><time>2026-05-03T07:53:30.975Z</time></trkpt><trkpt lat="44.2710124191512" lon="11.460455463487934"><ele>298.0</ele><time>2026-05-03T07:53:31.975Z</time></trkpt><trkpt lat="44.27093422181187" lon="11.460579485468015"><ele>298.0</ele><time>2026-05-03T07:53:32.975Z</time></trkpt><trkpt lat="44.270859709812036" lon="11.460708226919058"><ele>296.25</ele><time>2026-05-03T07:53:33.975Z</time></trkpt><trkpt lat="44.27079621567865" lon="11.460846234685851"><ele>294.5</ele><time>2026-05-03T07:53:34.975Z</time></trkpt><trkpt lat="44.27072996681915" lon="11.46097563709344"><ele>292.75</ele><time>2026-05-03T07:53:35.975Z</time></trkpt><trkpt lat="44.27065835820999" lon="11.461100804574924"><ele>291.0</ele><time>2026-05-03T07:53:36.975Z</time></trkpt><trkpt lat="44.27058432279907" lon="11.46122634548476"><ele>293.0</ele><time>2026-05-03T07:53:37.975Z</time></trkpt><trkpt lat="44.270510400643325" lon="11.461348883712796"><ele>295.0</ele><time>2026-05-03T07:53:38.975Z</time></trkpt><trkpt lat="44.270434364911424" lon="11.461475474315616"><ele>297.0</ele><time>2026-05-03T07:53:39.975Z</time></trkpt><trkpt lat="44.27035958469464" lon="11.46160340890783"><ele>299.0</ele><time>2026-05-03T07:53:40.975Z</time></trkpt><trkpt lat="44.27028704622757" lon="11.461732117440091"><ele>299.0</ele><time>2026-05-03T07:53:41.975Z</time></trkpt><trkpt lat="44.270206861044386" lon="11.461858899054294"><ele>299.0</ele><time>2026-05-03T07:53:42.975Z</time></trkpt><trkpt lat="44.270130422694805" lon="11.461993236959636"><ele>299.0</ele><time>2026-05-03T07:53:43.975Z</time></trkpt><trkpt lat="44.27006645530222" lon="11.462143911083691"><ele>299.0</ele><time>2026-05-03T07:53:44.975Z</time></trkpt><trkpt lat="44.27002684727379" lon="11.462304626853403"><ele>297.5</ele><time>2026-05-03T07:53:45.975Z</time></trkpt><trkpt lat="44.270012105711665" lon="11.462468932844509"><ele>296.0</ele><time>2026-05-03T07:53:46.975Z</time></trkpt><trkpt lat="44.2700357436318" lon="11.462643350017963"><ele>294.5</ele><time>2026-05-03T07:53:47.975Z</time></trkpt><trkpt lat="44.27009219050993" lon="11.46280267326247"><ele>293.0</ele><time>2026-05-03T07:53:48.975Z</time></trkpt><trkpt lat="44.270137770664824" lon="11.46295059900327"><ele>292.0</ele><time>2026-05-03T07:53:49.975Z</time></trkpt><trkpt lat="44.27014896900468" lon="11.463118223771598"><ele>291.0</ele><time>2026-05-03T07:53:50.975Z</time></trkpt><trkpt lat="44.27010560807014" lon="11.463288796832316"><ele>290.0</ele><time>2026-05-03T07:53:51.975Z</time></trkpt><trkpt lat="44.27007748896888" lon="11.463457992381379"><ele>289.0</ele><time>2026-05-03T07:53:52.975Z</time></trkpt><trkpt lat="44.27001745763915" lon="11.463616576672203"><ele>289.0</ele><time>2026-05-03T07:53:53.975Z</time></trkpt><trkpt lat="44.269959967906544" lon="11.463766900309276"><ele>289.0</ele><time>2026-05-03T07:53:54.975Z</time></trkpt><trkpt lat="44.26989115514096" lon="11.463902780527349"><ele>289.0</ele><time>2026-05-03T07:53:55.975Z</time></trkpt><trkpt lat="44.26980577536658" lon="11.464036246151315"><ele>289.0</ele><time>2026-05-03T07:53:56.975Z</time></trkpt><trkpt lat="44.2697473622233" lon="11.4641759185783"><ele>288.25</ele><time>2026-05-03T07:53:57.975Z</time></trkpt><trkpt lat="44.26972485238391" lon="11.464341409441825"><ele>287.5</ele><time>2026-05-03T07:53:58.975Z</time></trkpt><trkpt lat="44.26974149008657" lon="11.464516174360783"><ele>286.75</ele><time>2026-05-03T07:53:59.975Z</time></trkpt><trkpt lat="44.269760739228936" lon="11.464672214472253"><ele>286.0</ele><time>2026-05-03T07:54:00.975Z</time></trkpt><trkpt lat="44.269771276904116" lon="11.464833397317053"><ele>284.75</ele><time>2026-05-03T07:54:01.975Z</time></trkpt><trkpt lat="44.26976576507084" lon="11.464995992458297"><ele>283.5</ele><time>2026-05-03T07:54:02.975Z</time></trkpt><trkpt lat="44.26973703538916" lon="11.465149661220671"><ele>282.25</ele><time>2026-05-03T07:54:03.975Z</time></trkpt><trkpt lat="44.269681652601406" lon="11.465300017970566"><ele>281.0</ele><time>2026-05-03T07:54:04.976Z</time></trkpt><trkpt lat="44.26962030537693" lon="11.465429394312071"><ele>282.0</ele><time>2026-05-03T07:54:05.976Z</time></trkpt><trkpt lat="44.26955829365358" lon="11.465555101271248"><ele>283.0</ele><time>2026-05-03T07:54:06.975Z</time></trkpt><trkpt lat="44.26949629838712" lon="11.465680151066055"><ele>284.0</ele><time>2026-05-03T07:54:07.976Z</time></trkpt><trkpt lat="44.269440089114774" lon="11.4658079260522"><ele>285.0</ele><time>2026-05-03T07:54:08.976Z</time></trkpt><trkpt lat="44.269365095363106" lon="11.465928477647676"><ele>286.0</ele><time>2026-05-03T07:54:09.975Z</time></trkpt><trkpt lat="44.269300367962366" lon="11.466052243554525"><ele>286.0</ele><time>2026-05-03T07:54:10.975Z</time></trkpt><trkpt lat="44.269247465130505" lon="11.466192776694458"><ele>286.0</ele><time>2026-05-03T07:54:11.975Z</time></trkpt><trkpt lat="44.269176217380036" lon="11.466311372237536"><ele>286.0</ele><time>2026-05-03T07:54:12.975Z</time></trkpt><trkpt lat="44.26911513303212" lon="11.466448080692269"><ele>286.0</ele><time>2026-05-03T07:54:13.975Z</time></trkpt><trkpt lat="44.26905126728518" lon="11.46658539316302"><ele>285.5</ele><time>2026-05-03T07:54:14.975Z</time></trkpt><trkpt lat="44.2689641775934" lon="11.466706798263075"><ele>285.0</ele><time>2026-05-03T07:54:15.976Z</time></trkpt><trkpt lat="44.26886918059571" lon="11.466807191848774"><ele>284.5</ele><time>2026-05-03T07:54:16.975Z</time></trkpt><trkpt lat="44.268787023147404" lon="11.46691966752899"><ele>284.0</ele><time>2026-05-03T07:54:17.975Z</time></trkpt><trkpt lat="44.268725396665786" lon="11.467049558230295"><ele>284.75</ele><time>2026-05-03T07:54:18.975Z</time></trkpt><trkpt lat="44.268699703803186" lon="11.467208724822257"><ele>285.5</ele><time>2026-05-03T07:54:19.975Z</time></trkpt><trkpt lat="44.268692860155674" lon="11.467370811408625"><ele>286.25</ele><time>2026-05-03T07:54:20.975Z</time></trkpt><trkpt lat="44.268693821782556" lon="11.467538675728472"><ele>287.0</ele><time>2026-05-03T07:54:21.975Z</time></trkpt><trkpt lat="44.26867593212354" lon="11.467697486853787"><ele>287.0</ele><time>2026-05-03T07:54:22.975Z</time></trkpt><trkpt lat="44.268647951903915" lon="11.467853943065846"><ele>287.0</ele><time>2026-05-03T07:54:23.975Z</time></trkpt><trkpt lat="44.26861026331552" lon="11.46801218857777"><ele>287.0</ele><time>2026-05-03T07:54:24.975Z</time></trkpt><trkpt lat="44.26856753975879" lon="11.468166027304997"><ele>287.0</ele><time>2026-05-03T07:54:25.975Z</time></trkpt><trkpt lat="44.26851298242213" lon="11.468316198588182"><ele>288.0</ele><time>2026-05-03T07:54:26.975Z</time></trkpt><trkpt lat="44.26846146267744" lon="11.468462167011682"><ele>289.0</ele><time>2026-05-03T07:54:27.975Z</time></trkpt><trkpt lat="44.26840874564008" lon="11.468607169778116"><ele>290.0</ele><time>2026-05-03T07:54:28.975Z</time></trkpt><trkpt lat="44.26835265777351" lon="11.468756646201893"><ele>291.0</ele><time>2026-05-03T07:54:29.975Z</time></trkpt><trkpt lat="44.268292847284336" lon="11.46890464283879"><ele>292.75</ele><time>2026-05-03T07:54:30.975Z</time></trkpt><trkpt lat="44.268230405961106" lon="11.469052462254234"><ele>294.5</ele><time>2026-05-03T07:54:31.975Z</time></trkpt><trkpt lat="44.26816660336405" lon="11.469199116501967"><ele>296.25</ele><time>2026-05-03T07:54:32.975Z</time></trkpt><trkpt lat="44.268098733579166" lon="11.469348777215094"><ele>298.0</ele><time>2026-05-03T07:54:33.975Z</time></trkpt><trkpt lat="44.268045190859326" lon="11.469507043706349"><ele>295.5</ele><time>2026-05-03T07:54:34.975Z</time></trkpt><trkpt lat="44.267990383274565" lon="11.469660064963204"><ele>293.0</ele><time>2026-05-03T07:54:35.975Z</time></trkpt><trkpt lat="44.2679394598489" lon="11.469811826040686"><ele>290.5</ele><time>2026-05-03T07:54:36.975Z</time></trkpt><trkpt lat="44.26789027897984" lon="11.46996163781537"><ele>288.0</ele><time>2026-05-03T07:54:37.975Z</time></trkpt><trkpt lat="44.26783555912502" lon="11.470106471412333"><ele>288.0</ele><time>2026-05-03T07:54:38.975Z</time></trkpt><trkpt lat="44.26777399152186" lon="11.4702471003883"><ele>288.0</ele><time>2026-05-03T07:54:39.975Z</time></trkpt><trkpt lat="44.267708803800694" lon="11.470383876458182"><ele>288.0</ele><time>2026-05-03T07:54:40.975Z</time></trkpt><trkpt lat="44.26763269864535" lon="11.470505235795262"><ele>288.0</ele><time>2026-05-03T07:54:41.975Z</time></trkpt><trkpt lat="44.26754913848295" lon="11.47062025864542"><ele>288.0</ele><time>2026-05-03T07:54:42.975Z</time></trkpt><trkpt lat="44.26746576355143" lon="11.47073217708366"><ele>288.0</ele><time>2026-05-03T07:54:43.975Z</time></trkpt><trkpt lat="44.26738270472186" lon="11.470847813051854"><ele>288.0</ele><time>2026-05-03T07:54:44.975Z</time></trkpt><trkpt lat="44.26730171079771" lon="11.470964933767117"><ele>288.0</ele><time>2026-05-03T07:54:45.975Z</time></trkpt><trkpt lat="44.26722510839397" lon="11.47108273731854"><ele>288.0</ele><time>2026-05-03T07:54:46.975Z</time></trkpt><trkpt lat="44.26715090272704" lon="11.471203414284831"><ele>288.0</ele><time>2026-05-03T07:54:47.975Z</time></trkpt><trkpt lat="44.26707579466675" lon="11.47131470658379"><ele>288.0</ele><time>2026-05-03T07:54:48.975Z</time></trkpt><trkpt lat="44.26699590431764" lon="11.471420000295813"><ele>288.0</ele><time>2026-05-03T07:54:49.975Z</time></trkpt><trkpt lat="44.26692352343825" lon="11.471527286523717"><ele>288.0</ele><time>2026-05-03T07:54:50.975Z</time></trkpt><trkpt lat="44.2668515692725" lon="11.471640051680252"><ele>289.6</ele><time>2026-05-03T07:54:51.975Z</time></trkpt><trkpt lat="44.26677190825721" lon="11.471747220133881"><ele>291.20000000000005</ele><time>2026-05-03T07:54:52.975Z</time></trkpt><trkpt lat="44.266690012803735" lon="11.471844314339956"><ele>292.8</ele><time>2026-05-03T07:54:53.975Z</time></trkpt><trkpt lat="44.26660080380377" lon="11.471928509016134"><ele>294.40000000000003</ele><time>2026-05-03T07:54:54.975Z</time></trkpt><trkpt lat="44.26650481487651" lon="11.471999750249271"><ele>296.0</ele><time>2026-05-03T07:54:55.975Z</time></trkpt><trkpt lat="44.266407575945216" lon="11.47206337319117"><ele>298.40000000000003</ele><time>2026-05-03T07:54:56.975Z</time></trkpt><trkpt lat="44.26630480719274" lon="11.472113801493032"><ele>300.8</ele><time>2026-05-03T07:54:57.975Z</time></trkpt><trkpt lat="44.26620060511858" lon="11.47216348246251"><ele>303.20000000000005</ele><time>2026-05-03T07:54:58.975Z</time></trkpt><trkpt lat="44.266095536401274" lon="11.472212055625514"><ele>305.6</ele><time>2026-05-03T07:54:59.975Z</time></trkpt><trkpt lat="44.26598814016141" lon="11.472260316727667"><ele>308.0</ele><time>2026-05-03T07:55:00.975Z</time></trkpt><trkpt lat="44.26588153143996" lon="11.472307071983968"><ele>308.0</ele><time>2026-05-03T07:55:01.975Z</time></trkpt><trkpt lat="44.26577551405375" lon="11.472359611717662"><ele>308.0</ele><time>2026-05-03T07:55:02.975Z</time></trkpt><trkpt lat="44.26566374885984" lon="11.472406257422453"><ele>308.0</ele><time>2026-05-03T07:55:03.975Z</time></trkpt><trkpt lat="44.26555659225498" lon="11.472471632194333"><ele>308.0</ele><time>2026-05-03T07:55:04.975Z</time></trkpt><trkpt lat="44.265450416501" lon="11.472541543675502"><ele>306.75</ele><time>2026-05-03T07:55:05.975Z</time></trkpt><trkpt lat="44.2653487439193" lon="11.47262418425795"><ele>305.5</ele><time>2026-05-03T07:55:06.975Z</time></trkpt><trkpt lat="44.26525441659292" lon="11.472721292582543"><ele>304.25</ele><time>2026-05-03T07:55:07.975Z</time></trkpt><trkpt lat="44.265151460203846" lon="11.472797413528424"><ele>303.0</ele><time>2026-05-03T07:55:08.975Z</time></trkpt><trkpt lat="44.265062607062106" lon="11.472908065541347"><ele>305.0</ele><time>2026-05-03T07:55:09.975Z</time></trkpt><trkpt lat="44.26496826262205" lon="11.473009545522174"><ele>307.0</ele><time>2026-05-03T07:55:10.975Z</time></trkpt><trkpt lat="44.264887114731756" lon="11.473125673442803"><ele>309.0</ele><time>2026-05-03T07:55:11.975Z</time></trkpt><trkpt lat="44.264826015361656" lon="11.473260770950196"><ele>311.0</ele><time>2026-05-03T07:55:12.975Z</time></trkpt><trkpt lat="44.26479137788362" lon="11.473416993982108"><ele>311.0</ele><time>2026-05-03T07:55:13.975Z</time></trkpt><trkpt lat="44.26478415008096" lon="11.473582123892955"><ele>311.0</ele><time>2026-05-03T07:55:14.975Z</time></trkpt><trkpt lat="44.264805263950926" lon="11.473751102256667"><ele>311.0</ele><time>2026-05-03T07:55:15.975Z</time></trkpt><trkpt lat="44.26485396893854" lon="11.473902278320905"><ele>311.0</ele><time>2026-05-03T07:55:16.975Z</time></trkpt><trkpt lat="44.26490817907822" lon="11.4740468788879"><ele>311.25</ele><time>2026-05-03T07:55:17.975Z</time></trkpt><trkpt lat="44.264968819094655" lon="11.474188644859378"><ele>311.5</ele><time>2026-05-03T07:55:18.975Z</time></trkpt><trkpt lat="44.26503268820992" lon="11.474326980722738"><ele>311.75</ele><time>2026-05-03T07:55:19.975Z</time></trkpt><trkpt lat="44.26510173341501" lon="11.474457060716396"><ele>312.0</ele><time>2026-05-03T07:55:20.975Z</time></trkpt><trkpt lat="44.26517919724512" lon="11.47458099511974"><ele>310.5</ele><time>2026-05-03T07:55:21.975Z</time></trkpt><trkpt lat="44.26526437352745" lon="11.474698828836157"><ele>309.0</ele><time>2026-05-03T07:55:22.975Z</time></trkpt><trkpt lat="44.265343460457814" lon="11.47482206469916"><ele>307.5</ele><time>2026-05-03T07:55:23.975Z</time></trkpt><trkpt lat="44.26541656399402" lon="11.474943460991287"><ele>306.0</ele><time>2026-05-03T07:55:24.975Z</time></trkpt><trkpt lat="44.26546656289012" lon="11.475081380599974"><ele>306.0</ele><time>2026-05-03T07:55:25.975Z</time></trkpt><trkpt lat="44.26547783405827" lon="11.475230977305635"><ele>306.0</ele><time>2026-05-03T07:55:26.975Z</time></trkpt><trkpt lat="44.26544417528556" lon="11.475380404146135"><ele>306.0</ele><time>2026-05-03T07:55:27.975Z</time></trkpt><trkpt lat="44.26538212221442" lon="11.475504231125221"><ele>306.0</ele><time>2026-05-03T07:55:28.975Z</time></trkpt><trkpt lat="44.26531026193938" lon="11.475620522330015"><ele>306.0</ele><time>2026-05-03T07:55:29.975Z</time></trkpt><trkpt lat="44.26524588415938" lon="11.475745078553617"><ele>307.2</ele><time>2026-05-03T07:55:30.975Z</time></trkpt><trkpt lat="44.265211144202475" lon="11.475899066939728"><ele>308.40000000000003</ele><time>2026-05-03T07:55:31.975Z</time></trkpt><trkpt lat="44.26516749654333" lon="11.476036059477504"><ele>309.6</ele><time>2026-05-03T07:55:32.975Z</time></trkpt><trkpt lat="44.26511571361575" lon="11.476160456611202"><ele>310.8</ele><time>2026-05-03T07:55:33.975Z</time></trkpt><trkpt lat="44.26505792580969" lon="11.476271367144122"><ele>312.0</ele><time>2026-05-03T07:55:34.975Z</time></trkpt><trkpt lat="44.26499137909002" lon="11.476371652089504"><ele>313.6</ele><time>2026-05-03T07:55:35.975Z</time></trkpt><trkpt lat="44.264908613435374" lon="11.476453369669155"><ele>315.2</ele><time>2026-05-03T07:55:36.975Z</time></trkpt><trkpt lat="44.26481410988809" lon="11.476504480781518"><ele>316.8</ele><time>2026-05-03T07:55:37.975Z</time></trkpt><trkpt lat="44.26472042550181" lon="11.476501446833106"><ele>318.4</ele><time>2026-05-03T07:55:38.975Z</time></trkpt><trkpt lat="44.2646318775455" lon="11.476459978398067"><ele>320.0</ele><time>2026-05-03T07:55:39.975Z</time></trkpt><trkpt lat="44.26453959845227" lon="11.476418477263406"><ele>320.6</ele><time>2026-05-03T07:55:40.975Z</time></trkpt><trkpt lat="44.26444893518569" lon="11.476364105457964"><ele>321.2</ele><time>2026-05-03T07:55:41.975Z</time></trkpt><trkpt lat="44.26438223236918" lon="11.476261418162462"><ele>321.79999999999995</ele><time>2026-05-03T07:55:42.975Z</time></trkpt><trkpt lat="44.26432968168726" lon="11.476139054900903"><ele>322.4</ele><time>2026-05-03T07:55:43.975Z</time></trkpt><trkpt lat="44.26427660030488" lon="11.47601563031706"><ele>323.0</ele><time>2026-05-03T07:55:44.975Z</time></trkpt><trkpt lat="44.264217274833435" lon="11.475896208676232"><ele>323.0</ele><time>2026-05-03T07:55:45.975Z</time></trkpt><trkpt lat="44.26415569527823" lon="11.47577940025367"><ele>323.0</ele><time>2026-05-03T07:55:46.975Z</time></trkpt><trkpt lat="44.26408311953331" lon="11.475671024498357"><ele>323.0</ele><time>2026-05-03T07:55:47.975Z</time></trkpt><trkpt lat="44.26400619396917" lon="11.475573219185684"><ele>323.0</ele><time>2026-05-03T07:55:48.975Z</time></trkpt><trkpt lat="44.26393649305445" lon="11.4754625224549"><ele>323.0</ele><time>2026-05-03T07:55:49.975Z</time></trkpt><trkpt lat="44.26385608691953" lon="11.475361925806459"><ele>324.79999999999995</ele><time>2026-05-03T07:55:50.975Z</time></trkpt><trkpt lat="44.263775364463875" lon="11.475274541187034"><ele>326.6</ele><time>2026-05-03T07:55:51.975Z</time></trkpt><trkpt lat="44.26369151011224" lon="11.475190434877959"><ele>328.4</ele><time>2026-05-03T07:55:52.975Z</time></trkpt><trkpt lat="44.26360340515253" lon="11.475116139385433"><ele>330.20000000000005</ele><time>2026-05-03T07:55:53.975Z</time></trkpt><trkpt lat="44.26351355160994" lon="11.475052665145801"><ele>332.0</ele><time>2026-05-03T07:55:54.975Z</time></trkpt><trkpt lat="44.2634173693069" lon="11.474992621424985"><ele>332.0</ele><time>2026-05-03T07:55:55.975Z</time></trkpt><trkpt lat="44.26331995586849" lon="11.474939939432273"><ele>332.0</ele><time>2026-05-03T07:55:56.975Z</time></trkpt><trkpt lat="44.263219961217" lon="11.474894787074987"><ele>332.0</ele><time>2026-05-03T07:55:57.975Z</time></trkpt><trkpt lat="44.2631179951505" lon="11.474855798516236"><ele>332.0</ele><time>2026-05-03T07:55:58.975Z</time></trkpt><trkpt lat="44.263012245966515" lon="11.474837514068716"><ele>332.0</ele><time>2026-05-03T07:55:59.975Z</time></trkpt><trkpt lat="44.26290323262404" lon="11.474830554706513"><ele>333.40000000000003</ele><time>2026-05-03T07:56:00.975Z</time></trkpt><trkpt lat="44.26279364232177" lon="11.474828536720834"><ele>334.8</ele><time>2026-05-03T07:56:01.975Z</time></trkpt><trkpt lat="44.26268056765976" lon="11.474832470748881"><ele>336.2</ele><time>2026-05-03T07:56:02.975Z</time></trkpt><trkpt lat="44.26256909254536" lon="11.474832976640227"><ele>337.6</ele><time>2026-05-03T07:56:03.975Z</time></trkpt><trkpt lat="44.262458825233885" lon="11.474815118104186"><ele>339.0</ele><time>2026-05-03T07:56:04.975Z</time></trkpt><trkpt lat="44.26235488783007" lon="11.474761319121345"><ele>339.79999999999995</ele><time>2026-05-03T07:56:05.975Z</time></trkpt><trkpt lat="44.262262374918464" lon="11.47468477537723"><ele>340.59999999999997</ele><time>2026-05-03T07:56:06.975Z</time></trkpt><trkpt lat="44.26217774959053" lon="11.474604701281114"><ele>341.4</ele><time>2026-05-03T07:56:07.975Z</time></trkpt><trkpt lat="44.262095796358516" lon="11.474515849267028"><ele>342.2</ele><time>2026-05-03T07:56:08.974Z</time></trkpt><trkpt lat="44.26199626836907" lon="11.47448011283554"><ele>343.0</ele><time>2026-05-03T07:56:09.974Z</time></trkpt><trkpt lat="44.26188522564121" lon="11.474453263119667"><ele>343.0</ele><time>2026-05-03T07:56:10.974Z</time></trkpt><trkpt lat="44.26177779492201" lon="11.474457899100365"><ele>343.0</ele><time>2026-05-03T07:56:11.974Z</time></trkpt><trkpt lat="44.26167326528092" lon="11.474477944258068"><ele>343.0</ele><time>2026-05-03T07:56:12.974Z</time></trkpt><trkpt lat="44.26157859519921" lon="11.474530238321401"><ele>343.0</ele><time>2026-05-03T07:56:13.974Z</time></trkpt><trkpt lat="44.26149513106949" lon="11.474622681355424"><ele>343.0</ele><time>2026-05-03T07:56:14.974Z</time></trkpt><trkpt lat="44.26141877841885" lon="11.47473396996045"><ele>342.4</ele><time>2026-05-03T07:56:15.974Z</time></trkpt><trkpt lat="44.26135027684411" lon="11.474851126482847"><ele>341.79999999999995</ele><time>2026-05-03T07:56:16.974Z</time></trkpt><trkpt lat="44.261280025437735" lon="11.474964536022593"><ele>341.2</ele><time>2026-05-03T07:56:17.974Z</time></trkpt><trkpt lat="44.26118881108136" lon="11.475059030525557"><ele>340.6</ele><time>2026-05-03T07:56:18.974Z</time></trkpt><trkpt lat="44.261079268214225" lon="11.47510771553364"><ele>340.0</ele><time>2026-05-03T07:56:19.974Z</time></trkpt><trkpt lat="44.26096318579493" lon="11.47512619744455"><ele>340.0</ele><time>2026-05-03T07:56:20.974Z</time></trkpt><trkpt lat="44.260847901659446" lon="11.475120055064215"><ele>340.0</ele><time>2026-05-03T07:56:21.974Z</time></trkpt><trkpt lat="44.26073538597815" lon="11.475090605252417"><ele>340.0</ele><time>2026-05-03T07:56:22.974Z</time></trkpt><trkpt lat="44.260619070573426" lon="11.475068058889716"><ele>340.0</ele><time>2026-05-03T07:56:23.974Z</time></trkpt><trkpt lat="44.260505555088535" lon="11.475052728684108"><ele>340.75</ele><time>2026-05-03T07:56:24.974Z</time></trkpt><trkpt lat="44.2603895363211" lon="11.475036696233841"><ele>341.5</ele><time>2026-05-03T07:56:25.974Z</time></trkpt><trkpt lat="44.26027626038283" lon="11.47502081578736"><ele>342.25</ele><time>2026-05-03T07:56:26.974Z</time></trkpt><trkpt lat="44.260157524826965" lon="11.475020849941666"><ele>343.0</ele><time>2026-05-03T07:56:27.974Z</time></trkpt><trkpt lat="44.260040175538094" lon="11.475044529175094"><ele>343.0</ele><time>2026-05-03T07:56:28.974Z</time></trkpt><trkpt lat="44.259920115018836" lon="11.475070915847724"><ele>343.0</ele><time>2026-05-03T07:56:29.974Z</time></trkpt><trkpt lat="44.25980232753748" lon="11.475112800869617"><ele>343.0</ele><time>2026-05-03T07:56:30.974Z</time></trkpt><trkpt lat="44.2596844987874" lon="11.475139532616813"><ele>343.0</ele><time>2026-05-03T07:56:31.974Z</time></trkpt><trkpt lat="44.259563065164336" lon="11.475135717944026"><ele>344.25</ele><time>2026-05-03T07:56:32.974Z</time></trkpt><trkpt lat="44.25944257614179" lon="11.475107224574527"><ele>345.5</ele><time>2026-05-03T07:56:33.974Z</time></trkpt><trkpt lat="44.25932525628159" lon="11.475068900733959"><ele>346.75</ele><time>2026-05-03T07:56:34.974Z</time></trkpt><trkpt lat="44.25921286140876" lon="11.475020181764224"><ele>348.0</ele><time>2026-05-03T07:56:35.974Z</time></trkpt><trkpt lat="44.259103497777" lon="11.474972304594317"><ele>348.0</ele><time>2026-05-03T07:56:36.974Z</time></trkpt><trkpt lat="44.25899259370648" lon="11.47493491965044"><ele>348.0</ele><time>2026-05-03T07:56:37.974Z</time></trkpt><trkpt lat="44.25887832739297" lon="11.474910191177912"><ele>348.0</ele><time>2026-05-03T07:56:38.974Z</time></trkpt><trkpt lat="44.258765009490475" lon="11.474933289329886"><ele>348.0</ele><time>2026-05-03T07:56:39.974Z</time></trkpt><trkpt lat="44.25866781050841" lon="11.475018324156832"><ele>348.79999999999995</ele><time>2026-05-03T07:56:40.974Z</time></trkpt><trkpt lat="44.258607168647316" lon="11.4751501805962"><ele>349.6</ele><time>2026-05-03T07:56:41.974Z</time></trkpt><trkpt lat="44.25859014074049" lon="11.47530370835959"><ele>350.4</ele><time>2026-05-03T07:56:42.974Z</time></trkpt><trkpt lat="44.25862232488812" lon="11.475455609402628"><ele>351.20000000000005</ele><time>2026-05-03T07:56:43.974Z</time></trkpt><trkpt lat="44.258685889175794" lon="11.475579453450012"><ele>352.0</ele><time>2026-05-03T07:56:44.974Z</time></trkpt><trkpt lat="44.258783475734845" lon="11.475641767682713"><ele>353.6</ele><time>2026-05-03T07:56:45.974Z</time></trkpt><trkpt lat="44.25889274876524" lon="11.475650971663626"><ele>355.20000000000005</ele><time>2026-05-03T07:56:46.974Z</time></trkpt><trkpt lat="44.258999773746716" lon="11.475657056895367"><ele>356.8</ele><time>2026-05-03T07:56:47.974Z</time></trkpt><trkpt lat="44.259106975532255" lon="11.475658364329165"><ele>358.4</ele><time>2026-05-03T07:56:48.974Z</time></trkpt><trkpt lat="44.259214733918725" lon="11.475659471485969"><ele>360.0</ele><time>2026-05-03T07:56:49.974Z</time></trkpt><trkpt lat="44.259321184495384" lon="11.475678581582414"><ele>360.0</ele><time>2026-05-03T07:56:50.974Z</time></trkpt><trkpt lat="44.259422654620764" lon="11.475727148221813"><ele>360.0</ele><time>2026-05-03T07:56:51.974Z</time></trkpt><trkpt lat="44.25952114195368" lon="11.475786041223913"><ele>360.0</ele><time>2026-05-03T07:56:52.974Z</time></trkpt><trkpt lat="44.25961663207865" lon="11.475858975078326"><ele>360.0</ele><time>2026-05-03T07:56:53.974Z</time></trkpt><trkpt lat="44.25970893376767" lon="11.475948001983712"><ele>360.0</ele><time>2026-05-03T07:56:54.974Z</time></trkpt><trkpt lat="44.25979304059106" lon="11.476054714138382"><ele>359.0</ele><time>2026-05-03T07:56:55.974Z</time></trkpt><trkpt lat="44.2598663728133" lon="11.47617728141458"><ele>358.0</ele><time>2026-05-03T07:56:56.974Z</time></trkpt><trkpt lat="44.2599378038921" lon="11.476295482633969"><ele>357.0</ele><time>2026-05-03T07:56:57.974Z</time></trkpt><trkpt lat="44.26000068945223" lon="11.476421835310767"><ele>356.0</ele><time>2026-05-03T07:56:58.974Z</time></trkpt><trkpt lat="44.26006842850515" lon="11.476544067431194"><ele>355.0</ele><time>2026-05-03T07:56:59.974Z</time></trkpt><trkpt lat="44.26014016600232" lon="11.476661745430134"><ele>357.5</ele><time>2026-05-03T07:57:00.974Z</time></trkpt><trkpt lat="44.26022645512058" lon="11.476766138118041"><ele>360.0</ele><time>2026-05-03T07:57:01.974Z</time></trkpt><trkpt lat="44.26032060675423" lon="11.476855032012226"><ele>362.5</ele><time>2026-05-03T07:57:02.974Z</time></trkpt><trkpt lat="44.260422347657986" lon="11.47692916646297"><ele>365.0</ele><time>2026-05-03T07:57:03.974Z</time></trkpt><trkpt lat="44.260530832498844" lon="11.476993957470823"><ele>364.5</ele><time>2026-05-03T07:57:04.974Z</time></trkpt><trkpt lat="44.26064065659784" lon="11.477041217017584"><ele>364.0</ele><time>2026-05-03T07:57:05.974Z</time></trkpt><trkpt lat="44.26074979535326" lon="11.477085272500194"><ele>363.5</ele><time>2026-05-03T07:57:06.974Z</time></trkpt><trkpt lat="44.260858040069834" lon="11.477136253313015"><ele>363.0</ele><time>2026-05-03T07:57:07.974Z</time></trkpt><trkpt lat="44.260964661655116" lon="11.47719146467658"><ele>366.0</ele><time>2026-05-03T07:57:08.974Z</time></trkpt><trkpt lat="44.26106403052993" lon="11.477260547942207"><ele>369.0</ele><time>2026-05-03T07:57:09.974Z</time></trkpt><trkpt lat="44.26116064196181" lon="11.47733986540919"><ele>372.0</ele><time>2026-05-03T07:57:10.974Z</time></trkpt><trkpt lat="44.261254008052404" lon="11.47741865497006"><ele>375.0</ele><time>2026-05-03T07:57:11.974Z</time></trkpt><trkpt lat="44.261339084390414" lon="11.477510823653729"><ele>378.0</ele><time>2026-05-03T07:57:12.974Z</time></trkpt><trkpt lat="44.26142649627188" lon="11.47760479187752"><ele>378.4</ele><time>2026-05-03T07:57:13.974Z</time></trkpt><trkpt lat="44.261516566269336" lon="11.477689913328122"><ele>378.79999999999995</ele><time>2026-05-03T07:57:14.974Z</time></trkpt><trkpt lat="44.26162059691126" lon="11.477730275039029"><ele>379.2</ele><time>2026-05-03T07:57:15.974Z</time></trkpt><trkpt lat="44.261727685826045" lon="11.477731406959686"><ele>379.6</ele><time>2026-05-03T07:57:16.974Z</time></trkpt><trkpt lat="44.261833092532164" lon="11.477696322540798"><ele>380.0</ele><time>2026-05-03T07:57:17.974Z</time></trkpt><trkpt lat="44.26193500269884" lon="11.477646151022435"><ele>380.0</ele><time>2026-05-03T07:57:18.974Z</time></trkpt><trkpt lat="44.26203592869348" lon="11.47760017017298"><ele>380.0</ele><time>2026-05-03T07:57:19.974Z</time></trkpt><trkpt lat="44.2621413142447" lon="11.477571323192873"><ele>380.0</ele><time>2026-05-03T07:57:20.974Z</time></trkpt><trkpt lat="44.26225015980949" lon="11.477569693633939"><ele>380.0</ele><time>2026-05-03T07:57:21.974Z</time></trkpt><trkpt lat="44.262359353127415" lon="11.477600413315454"><ele>380.0</ele><time>2026-05-03T07:57:22.974Z</time></trkpt><trkpt lat="44.26246919552954" lon="11.477657390353745"><ele>381.0</ele><time>2026-05-03T07:57:23.974Z</time></trkpt><trkpt lat="44.2625568243953" lon="11.477757123025059"><ele>382.0</ele><time>2026-05-03T07:57:24.974Z</time></trkpt><trkpt lat="44.26260894057651" lon="11.477890032206801"><ele>383.0</ele><time>2026-05-03T07:57:25.974Z</time></trkpt><trkpt lat="44.26261955290128" lon="11.478028140622978"><ele>384.0</ele><time>2026-05-03T07:57:26.974Z</time></trkpt><trkpt lat="44.26259684504143" lon="11.478161374504722"><ele>385.0</ele><time>2026-05-03T07:57:27.974Z</time></trkpt><trkpt lat="44.26257119800514" lon="11.478297855361395"><ele>385.0</ele><time>2026-05-03T07:57:28.974Z</time></trkpt><trkpt lat="44.26255014985024" lon="11.478435188921983"><ele>385.0</ele><time>2026-05-03T07:57:29.974Z</time></trkpt><trkpt lat="44.26252399405194" lon="11.478569907512236"><ele>385.0</ele><time>2026-05-03T07:57:30.974Z</time></trkpt><trkpt lat="44.26249291575763" lon="11.478702012846066"><ele>385.0</ele><time>2026-05-03T07:57:31.974Z</time></trkpt><trkpt lat="44.262464461359414" lon="11.478839961605395"><ele>385.0</ele><time>2026-05-03T07:57:32.974Z</time></trkpt><trkpt lat="44.26242800330189" lon="11.478978239556001"><ele>386.0</ele><time>2026-05-03T07:57:33.974Z</time></trkpt><trkpt lat="44.26239150791274" lon="11.479119693153784"><ele>387.0</ele><time>2026-05-03T07:57:34.974Z</time></trkpt><trkpt lat="44.2623519916443" lon="11.479255076172926"><ele>388.0</ele><time>2026-05-03T07:57:35.974Z</time></trkpt><trkpt lat="44.26231791901284" lon="11.47939344771094"><ele>389.0</ele><time>2026-05-03T07:57:36.974Z</time></trkpt><trkpt lat="44.26229280183988" lon="11.479532606580486"><ele>390.0</ele><time>2026-05-03T07:57:37.974Z</time></trkpt><trkpt lat="44.262268117615626" lon="11.479675128217195"><ele>392.4</ele><time>2026-05-03T07:57:38.974Z</time></trkpt><trkpt lat="44.262263434045906" lon="11.47982079181248"><ele>394.8</ele><time>2026-05-03T07:57:39.974Z</time></trkpt><trkpt lat="44.26226040088634" lon="11.479970631655341"><ele>397.20000000000005</ele><time>2026-05-03T07:57:40.974Z</time></trkpt><trkpt lat="44.262262130684604" lon="11.480127677856466"><ele>399.6</ele><time>2026-05-03T07:57:41.974Z</time></trkpt><trkpt lat="44.26227476433667" lon="11.480285133710343"><ele>402.0</ele><time>2026-05-03T07:57:42.974Z</time></trkpt><trkpt lat="44.2622903127299" lon="11.480441171693501"><ele>402.0</ele><time>2026-05-03T07:57:43.974Z</time></trkpt><trkpt lat="44.26231360813616" lon="11.480593458652988"><ele>402.0</ele><time>2026-05-03T07:57:44.974Z</time></trkpt><trkpt lat="44.262355631330195" lon="11.480734826366104"><ele>402.0</ele><time>2026-05-03T07:57:45.974Z</time></trkpt><trkpt lat="44.26241953887753" lon="11.480868787565369"><ele>402.0</ele><time>2026-05-03T07:57:46.974Z</time></trkpt><trkpt lat="44.26249841932489" lon="11.480985065588218"><ele>402.0</ele><time>2026-05-03T07:57:47.974Z</time></trkpt><trkpt lat="44.26258886316794" lon="11.48107589254566"><ele>402.0</ele><time>2026-05-03T07:57:48.974Z</time></trkpt><trkpt lat="44.2626674860403" lon="11.48116842663003"><ele>402.0</ele><time>2026-05-03T07:57:49.974Z</time></trkpt><trkpt lat="44.2627575661996" lon="11.481255377120583"><ele>402.0</ele><time>2026-05-03T07:57:50.974Z</time></trkpt><trkpt lat="44.26285021608444" lon="11.481352800331324"><ele>402.0</ele><time>2026-05-03T07:57:51.974Z</time></trkpt><trkpt lat="44.26292682606599" lon="11.481456730631148"><ele>402.20000000000005</ele><time>2026-05-03T07:57:52.974Z</time></trkpt><trkpt lat="44.26297929201837" lon="11.481582638459827"><ele>402.4</ele><time>2026-05-03T07:57:53.974Z</time></trkpt><trkpt lat="44.26300443680826" lon="11.481731304868958"><ele>402.6</ele><time>2026-05-03T07:57:54.974Z</time></trkpt><trkpt lat="44.26304184000479" lon="11.481878166882076"><ele>402.79999999999995</ele><time>2026-05-03T07:57:55.974Z</time></trkpt><trkpt lat="44.26309836039899" lon="11.482015086469282"><ele>403.0</ele><time>2026-05-03T07:57:56.974Z</time></trkpt><trkpt lat="44.26317267013382" lon="11.48214363530933"><ele>403.0</ele><time>2026-05-03T07:57:57.974Z</time></trkpt><trkpt lat="44.26325304580975" lon="11.482258756140995"><ele>403.0</ele><time>2026-05-03T07:57:58.974Z</time></trkpt><trkpt lat="44.26333820363246" lon="11.482367415062303"><ele>403.0</ele><time>2026-05-03T07:57:59.974Z</time></trkpt><trkpt lat="44.263421193166316" lon="11.482481977990561"><ele>403.0</ele><time>2026-05-03T07:58:00.974Z</time></trkpt><trkpt lat="44.26349051745387" lon="11.482609177235467"><ele>403.0</ele><time>2026-05-03T07:58:01.974Z</time></trkpt><trkpt lat="44.26354374303199" lon="11.482752630086761"><ele>403.0</ele><time>2026-05-03T07:58:02.974Z</time></trkpt><trkpt lat="44.26358304440294" lon="11.482904287680913"><ele>403.0</ele><time>2026-05-03T07:58:03.974Z</time></trkpt><trkpt lat="44.26361842024548" lon="11.483062239028925"><ele>403.0</ele><time>2026-05-03T07:58:04.974Z</time></trkpt><trkpt lat="44.26365386421919" lon="11.483215618960907"><ele>406.5</ele><time>2026-05-03T07:58:05.974Z</time></trkpt><trkpt lat="44.26368799295628" lon="11.483368324471103"><ele>410.0</ele><time>2026-05-03T07:58:06.974Z</time></trkpt><trkpt lat="44.26372690619008" lon="11.483522189051047"><ele>413.5</ele><time>2026-05-03T07:58:07.974Z</time></trkpt><trkpt lat="44.263766779670625" lon="11.483677196782615"><ele>417.0</ele><time>2026-05-03T07:58:08.974Z</time></trkpt><trkpt lat="44.2638081411616" lon="11.483832667816005"><ele>418.75</ele><time>2026-05-03T07:58:09.974Z</time></trkpt><trkpt lat="44.2638491853383" lon="11.483988467253312"><ele>420.5</ele><time>2026-05-03T07:58:10.974Z</time></trkpt><trkpt lat="44.26388341367567" lon="11.484148402937556"><ele>422.25</ele><time>2026-05-03T07:58:11.974Z</time></trkpt><trkpt lat="44.26391278187714" lon="11.48431180892034"><ele>424.0</ele><time>2026-05-03T07:58:12.974Z</time></trkpt><trkpt lat="44.263939459202774" lon="11.484474893035912"><ele>420.0</ele><time>2026-05-03T07:58:13.974Z</time></trkpt><trkpt lat="44.26396356943251" lon="11.48464605757612"><ele>416.0</ele><time>2026-05-03T07:58:14.974Z</time></trkpt><trkpt lat="44.26398687497086" lon="11.48481725875927"><ele>412.0</ele><time>2026-05-03T07:58:15.973Z</time></trkpt><trkpt lat="44.26401420279208" lon="11.484985508237509"><ele>408.0</ele><time>2026-05-03T07:58:16.973Z</time></trkpt><trkpt lat="44.26403936168708" lon="11.48514051788659"><ele>408.0</ele><time>2026-05-03T07:58:17.973Z</time></trkpt><trkpt lat="44.2640649839891" lon="11.485290804285924"><ele>408.0</ele><time>2026-05-03T07:58:18.973Z</time></trkpt><trkpt lat="44.26409350147821" lon="11.48543655675848"><ele>408.0</ele><time>2026-05-03T07:58:19.973Z</time></trkpt><trkpt lat="44.26412161571313" lon="11.485571792711797"><ele>408.0</ele><time>2026-05-03T07:58:20.973Z</time></trkpt><trkpt lat="44.26414405575642" lon="11.485695152184801"><ele>408.0</ele><time>2026-05-03T07:58:21.973Z</time></trkpt><trkpt lat="44.26415902803108" lon="11.485807171393924"><ele>409.2</ele><time>2026-05-03T07:58:22.974Z</time></trkpt><trkpt lat="44.26409216658695" lon="11.485931190341121"><ele>410.4</ele><time>2026-05-03T07:58:24.974Z</time></trkpt><trkpt lat="44.26398749535934" lon="11.485964904310338"><ele>411.59999999999997</ele><time>2026-05-03T07:58:25.973Z</time></trkpt><trkpt lat="44.26389477898652" lon="11.485944670307884"><ele>412.79999999999995</ele><time>2026-05-03T07:58:26.973Z</time></trkpt><trkpt lat="44.263813603472485" lon="11.48587795857545"><ele>414.0</ele><time>2026-05-03T07:58:27.973Z</time></trkpt><trkpt lat="44.26382667288905" lon="11.485762416043416"><ele>417.0</ele><time>2026-05-03T07:58:29.973Z</time></trkpt><trkpt lat="44.26382536029196" lon="11.485652994144703"><ele>420.0</ele><time>2026-05-03T07:58:31.973Z</time></trkpt><trkpt lat="44.26375079722161" lon="11.485500216731808"><ele>423.0</ele><time>2026-05-03T07:58:33.973Z</time></trkpt><trkpt lat="44.26437270319899" lon="11.48664665677055"><ele>423.0</ele><time>2026-05-03T07:58:34.973Z</time></trkpt><trkpt lat="44.26443209924591" lon="11.486707663331236"><ele>423.0</ele><time>2026-05-03T07:58:35.973Z</time></trkpt><trkpt lat="44.26448552805309" lon="11.48677285628874"><ele>423.0</ele><time>2026-05-03T07:58:36.973Z</time></trkpt><trkpt lat="44.26453309720778" lon="11.486838333121367"><ele>423.0</ele><time>2026-05-03T07:58:37.973Z</time></trkpt><trkpt lat="44.26458858541773" lon="11.486905877688846"><ele>423.0</ele><time>2026-05-03T07:58:38.973Z</time></trkpt><trkpt lat="44.26464649221662" lon="11.486976942350061"><ele>423.0</ele><time>2026-05-03T07:58:39.973Z</time></trkpt><trkpt lat="44.26470687995699" lon="11.487047318509415"><ele>423.0</ele><time>2026-05-03T07:58:40.973Z</time></trkpt><trkpt lat="44.26476333935969" lon="11.487125805090878"><ele>422.79999999999995</ele><time>2026-05-03T07:58:41.973Z</time></trkpt><trkpt lat="44.26482646206979" lon="11.487211190836556"><ele>422.6</ele><time>2026-05-03T07:58:42.973Z</time></trkpt><trkpt lat="44.26489406823519" lon="11.487286772870828"><ele>422.4</ele><time>2026-05-03T07:58:43.973Z</time></trkpt><trkpt lat="44.26496624080317" lon="11.487365258597558"><ele>422.20000000000005</ele><time>2026-05-03T07:58:44.973Z</time></trkpt><trkpt lat="44.26503229870509" lon="11.487452159226942"><ele>422.0</ele><time>2026-05-03T07:58:45.973Z</time></trkpt><trkpt lat="44.26510244273406" lon="11.487538870868475"><ele>422.0</ele><time>2026-05-03T07:58:46.973Z</time></trkpt><trkpt lat="44.265179318200865" lon="11.487628143385361"><ele>422.0</ele><time>2026-05-03T07:58:47.973Z</time></trkpt><trkpt lat="44.26525920397833" lon="11.487714295905034"><ele>422.0</ele><time>2026-05-03T07:58:48.973Z</time></trkpt><trkpt lat="44.26534248210275" lon="11.487801201471452"><ele>422.0</ele><time>2026-05-03T07:58:49.973Z</time></trkpt><trkpt lat="44.265424853219486" lon="11.487892037753566"><ele>422.0</ele><time>2026-05-03T07:58:50.973Z</time></trkpt><trkpt lat="44.265509463808975" lon="11.48798599728361"><ele>421.5</ele><time>2026-05-03T07:58:51.973Z</time></trkpt><trkpt lat="44.2655846193975" lon="11.488099164541179"><ele>421.0</ele><time>2026-05-03T07:58:52.973Z</time></trkpt><trkpt lat="44.26565991119111" lon="11.488214661159311"><ele>420.5</ele><time>2026-05-03T07:58:53.973Z</time></trkpt><trkpt lat="44.26573822566257" lon="11.488328617092836"><ele>420.0</ele><time>2026-05-03T07:58:54.973Z</time></trkpt><trkpt lat="44.265820334075904" lon="11.488447265305098"><ele>420.0</ele><time>2026-05-03T07:58:55.973Z</time></trkpt><trkpt lat="44.265897998377085" lon="11.48856744014359"><ele>420.0</ele><time>2026-05-03T07:58:56.973Z</time></trkpt><trkpt lat="44.26597169544922" lon="11.488706927449508"><ele>420.0</ele><time>2026-05-03T07:58:57.973Z</time></trkpt><trkpt lat="44.266012419350865" lon="11.48887903945768"><ele>420.0</ele><time>2026-05-03T07:58:58.973Z</time></trkpt><trkpt lat="44.266050491031265" lon="11.489048759329524"><ele>416.25</ele><time>2026-05-03T07:58:59.973Z</time></trkpt><trkpt lat="44.26608077069328" lon="11.489223858411613"><ele>412.5</ele><time>2026-05-03T07:59:00.973Z</time></trkpt><trkpt lat="44.26609722155993" lon="11.489399534752682"><ele>408.75</ele><time>2026-05-03T07:59:01.973Z</time></trkpt><trkpt lat="44.26611438103528" lon="11.489569143077839"><ele>405.0</ele><time>2026-05-03T07:59:02.973Z</time></trkpt><trkpt lat="44.266132091135496" lon="11.489743741275422"><ele>403.0</ele><time>2026-05-03T07:59:03.973Z</time></trkpt><trkpt lat="44.26614490241916" lon="11.489915205250648"><ele>401.0</ele><time>2026-05-03T07:59:04.973Z</time></trkpt><trkpt lat="44.266144112533546" lon="11.490087501414553"><ele>399.0</ele><time>2026-05-03T07:59:05.973Z</time></trkpt><trkpt lat="44.26615053140207" lon="11.490255455177733"><ele>397.0</ele><time>2026-05-03T07:59:06.973Z</time></trkpt><trkpt lat="44.266168681286274" lon="11.490420383113895"><ele>394.75</ele><time>2026-05-03T07:59:07.973Z</time></trkpt><trkpt lat="44.26620500936953" lon="11.490577274036696"><ele>392.5</ele><time>2026-05-03T07:59:08.973Z</time></trkpt><trkpt lat="44.26625769552142" lon="11.49072511633105"><ele>390.25</ele><time>2026-05-03T07:59:09.973Z</time></trkpt><trkpt lat="44.26633262515157" lon="11.490857714283173"><ele>388.0</ele><time>2026-05-03T07:59:10.973Z</time></trkpt><trkpt lat="44.26642534221062" lon="11.490965247678895"><ele>392.5</ele><time>2026-05-03T07:59:11.973Z</time></trkpt><trkpt lat="44.266528753913846" lon="11.491053928494162"><ele>397.0</ele><time>2026-05-03T07:59:12.973Z</time></trkpt><trkpt lat="44.26664034190331" lon="11.491120970077105"><ele>401.5</ele><time>2026-05-03T07:59:13.973Z</time></trkpt><trkpt lat="44.26675172082687" lon="11.491176363005138"><ele>406.0</ele><time>2026-05-03T07:59:14.973Z</time></trkpt><trkpt lat="44.266857475173154" lon="11.491233686728776"><ele>402.5</ele><time>2026-05-03T07:59:15.973Z</time></trkpt><trkpt lat="44.266967475209746" lon="11.49129423867795"><ele>399.0</ele><time>2026-05-03T07:59:16.973Z</time></trkpt><trkpt lat="44.26707902891327" lon="11.491355358895326"><ele>395.5</ele><time>2026-05-03T07:59:17.973Z</time></trkpt><trkpt lat="44.26718809139057" lon="11.491417168424174"><ele>392.0</ele><time>2026-05-03T07:59:18.973Z</time></trkpt><trkpt lat="44.2672986709213" lon="11.491475353965184"><ele>392.0</ele><time>2026-05-03T07:59:19.973Z</time></trkpt><trkpt lat="44.2674061882904" lon="11.491509542304996"><ele>392.0</ele><time>2026-05-03T07:59:20.973Z</time></trkpt><trkpt lat="44.267517095441555" lon="11.491516407608438"><ele>392.0</ele><time>2026-05-03T07:59:21.973Z</time></trkpt><trkpt lat="44.26762874557947" lon="11.491502078717405"><ele>392.0</ele><time>2026-05-03T07:59:22.973Z</time></trkpt><trkpt lat="44.26773674172551" lon="11.491477356734624"><ele>392.0</ele><time>2026-05-03T07:59:23.973Z</time></trkpt><trkpt lat="44.26784684453031" lon="11.491463938227643"><ele>392.0</ele><time>2026-05-03T07:59:24.973Z</time></trkpt><trkpt lat="44.267959978950145" lon="11.491473308834372"><ele>392.0</ele><time>2026-05-03T07:59:25.973Z</time></trkpt><trkpt lat="44.26806838223821" lon="11.491513226319892"><ele>392.0</ele><time>2026-05-03T07:59:26.973Z</time></trkpt><trkpt lat="44.26817201912865" lon="11.491603372003201"><ele>392.0</ele><time>2026-05-03T07:59:27.973Z</time></trkpt><trkpt lat="44.26824802428423" lon="11.491736855736537"><ele>392.75</ele><time>2026-05-03T07:59:28.973Z</time></trkpt><trkpt lat="44.26831670546266" lon="11.49187275809453"><ele>393.5</ele><time>2026-05-03T07:59:29.973Z</time></trkpt><trkpt lat="44.26838214598039" lon="11.492006014139625"><ele>394.25</ele><time>2026-05-03T07:59:30.973Z</time></trkpt><trkpt lat="44.26846892734934" lon="11.492112716973194"><ele>395.0</ele><time>2026-05-03T07:59:31.973Z</time></trkpt><trkpt lat="44.26857583926482" lon="11.492186222866888"><ele>391.25</ele><time>2026-05-03T07:59:32.973Z</time></trkpt><trkpt lat="44.268689951993586" lon="11.492222997587733"><ele>387.5</ele><time>2026-05-03T07:59:33.973Z</time></trkpt><trkpt lat="44.2688069986235" lon="11.49223730261209"><ele>383.75</ele><time>2026-05-03T07:59:34.973Z</time></trkpt><trkpt lat="44.26892250350269" lon="11.492247559357073"><ele>380.0</ele><time>2026-05-03T07:59:35.973Z</time></trkpt><trkpt lat="44.26903691407325" lon="11.492272048643644"><ele>380.0</ele><time>2026-05-03T07:59:36.973Z</time></trkpt><trkpt lat="44.26914761657361" lon="11.492309431935421"><ele>380.0</ele><time>2026-05-03T07:59:37.973Z</time></trkpt><trkpt lat="44.2692592673126" lon="11.492361637767221"><ele>380.0</ele><time>2026-05-03T07:59:38.973Z</time></trkpt><trkpt lat="44.26936479303823" lon="11.492430960438575"><ele>380.0</ele><time>2026-05-03T07:59:39.973Z</time></trkpt><trkpt lat="44.26945802068653" lon="11.492526990551365"><ele>380.0</ele><time>2026-05-03T07:59:40.973Z</time></trkpt><trkpt lat="44.26954220234055" lon="11.4926461126372"><ele>380.0</ele><time>2026-05-03T07:59:41.973Z</time></trkpt><trkpt lat="44.26961565074754" lon="11.492772909284591"><ele>380.0</ele><time>2026-05-03T07:59:42.973Z</time></trkpt><trkpt lat="44.2696957118481" lon="11.492884395501108"><ele>380.0</ele><time>2026-05-03T07:59:43.973Z</time></trkpt><trkpt lat="44.269772982468524" lon="11.492992119788715"><ele>378.6</ele><time>2026-05-03T07:59:44.973Z</time></trkpt><trkpt lat="44.269848585950726" lon="11.493100220581562"><ele>377.2</ele><time>2026-05-03T07:59:45.973Z</time></trkpt><trkpt lat="44.26992570128343" lon="11.493202945486553"><ele>375.79999999999995</ele><time>2026-05-03T07:59:46.973Z</time></trkpt><trkpt lat="44.26999435418702" lon="11.493293271988781"><ele>374.4</ele><time>2026-05-03T07:59:47.973Z</time></trkpt><trkpt lat="44.270039447981304" lon="11.493402034365667"><ele>373.0</ele><time>2026-05-03T07:59:48.973Z</time></trkpt><trkpt lat="44.270045304049475" lon="11.49353243086977"><ele>373.0</ele><time>2026-05-03T07:59:49.973Z</time></trkpt><trkpt lat="44.270004622207566" lon="11.49365877784799"><ele>373.0</ele><time>2026-05-03T07:59:50.973Z</time></trkpt><trkpt lat="44.26992470486539" lon="11.493744700796961"><ele>373.0</ele><time>2026-05-03T07:59:51.973Z</time></trkpt><trkpt lat="44.269820377155575" lon="11.493779389055625"><ele>373.0</ele><time>2026-05-03T07:59:52.973Z</time></trkpt><trkpt lat="44.26970891314862" lon="11.493716834321472"><ele>373.0</ele><time>2026-05-03T07:59:53.973Z</time></trkpt><trkpt lat="44.26961254839071" lon="11.493625343314186"><ele>370.75</ele><time>2026-05-03T07:59:54.973Z</time></trkpt><trkpt lat="44.26949929240335" lon="11.493537710911664"><ele>368.5</ele><time>2026-05-03T07:59:55.973Z</time></trkpt><trkpt lat="44.26939120178195" lon="11.493484416604579"><ele>366.25</ele><time>2026-05-03T07:59:56.973Z</time></trkpt><trkpt lat="44.269285939440955" lon="11.493420886604275"><ele>364.0</ele><time>2026-05-03T07:59:57.973Z</time></trkpt><trkpt lat="44.26917337593407" lon="11.493394745210601"><ele>364.0</ele><time>2026-05-03T07:59:58.973Z</time></trkpt><trkpt lat="44.26905585495755" lon="11.49340464140436"><ele>364.0</ele><time>2026-05-03T07:59:59.973Z</time></trkpt><trkpt lat="44.26893760805376" lon="11.49344110225526"><ele>364.0</ele><time>2026-05-03T08:00:00.973Z</time></trkpt><trkpt lat="44.26882501891657" lon="11.493508337575781"><ele>364.0</ele><time>2026-05-03T08:00:01.973Z</time></trkpt><trkpt lat="44.268720565164124" lon="11.493601562579551"><ele>363.25</ele><time>2026-05-03T08:00:02.973Z</time></trkpt><trkpt lat="44.26862029634645" lon="11.493696629809047"><ele>362.5</ele><time>2026-05-03T08:00:03.973Z</time></trkpt><trkpt lat="44.26851708183783" lon="11.493791199788642"><ele>361.75</ele><time>2026-05-03T08:00:04.973Z</time></trkpt><trkpt lat="44.26841345657297" lon="11.493881132686527"><ele>361.0</ele><time>2026-05-03T08:00:05.973Z</time></trkpt><trkpt lat="44.268307953849565" lon="11.493971453713396"><ele>359.75</ele><time>2026-05-03T08:00:06.973Z</time></trkpt><trkpt lat="44.26820989623204" lon="11.49407150846265"><ele>358.5</ele><time>2026-05-03T08:00:07.973Z</time></trkpt><trkpt lat="44.26810684437663" lon="11.494172766394108"><ele>357.25</ele><time>2026-05-03T08:00:08.973Z</time></trkpt><trkpt lat="44.2680046258814" lon="11.494265786885302"><ele>356.0</ele><time>2026-05-03T08:00:09.973Z</time></trkpt><trkpt lat="44.26790363849307" lon="11.494356467303586"><ele>355.4</ele><time>2026-05-03T08:00:10.973Z</time></trkpt><trkpt lat="44.26780430647248" lon="11.494447682297954"><ele>354.8</ele><time>2026-05-03T08:00:11.973Z</time></trkpt><trkpt lat="44.26771033562678" lon="11.494536369494915"><ele>354.2</ele><time>2026-05-03T08:00:12.973Z</time></trkpt><trkpt lat="44.26762246490626" lon="11.494624735667658"><ele>353.59999999999997</ele><time>2026-05-03T08:00:13.973Z</time></trkpt><trkpt lat="44.26753663691061" lon="11.494704361486606"><ele>353.0</ele><time>2026-05-03T08:00:14.973Z</time></trkpt><trkpt lat="44.26745355965287" lon="11.494777189195288"><ele>353.59999999999997</ele><time>2026-05-03T08:00:15.973Z</time></trkpt><trkpt lat="44.26736807751248" lon="11.494844217993151"><ele>354.2</ele><time>2026-05-03T08:00:16.973Z</time></trkpt><trkpt lat="44.267286526227984" lon="11.494916019713786"><ele>354.8</ele><time>2026-05-03T08:00:17.973Z</time></trkpt><trkpt lat="44.26720457764473" lon="11.49499273595622"><ele>355.4</ele><time>2026-05-03T08:00:18.973Z</time></trkpt><trkpt lat="44.26712268401838" lon="11.495066241890433"><ele>356.0</ele><time>2026-05-03T08:00:19.973Z</time></trkpt><trkpt lat="44.26703998190854" lon="11.495140441280846"><ele>356.0</ele><time>2026-05-03T08:00:20.973Z</time></trkpt><trkpt lat="44.26695993754503" lon="11.495215419152393"><ele>356.0</ele><time>2026-05-03T08:00:21.972Z</time></trkpt><trkpt lat="44.26687979979979" lon="11.495290230145134"><ele>356.0</ele><time>2026-05-03T08:00:22.972Z</time></trkpt><trkpt lat="44.26679736925292" lon="11.495364712050849"><ele>356.0</ele><time>2026-05-03T08:00:23.972Z</time></trkpt><trkpt lat="44.26671522292881" lon="11.49544107567185"><ele>356.0</ele><time>2026-05-03T08:00:24.972Z</time></trkpt><trkpt lat="44.2666351630646" lon="11.495515098470198"><ele>358.0</ele><time>2026-05-03T08:00:25.972Z</time></trkpt><trkpt lat="44.266551229591116" lon="11.495579688546812"><ele>360.0</ele><time>2026-05-03T08:00:26.972Z</time></trkpt><trkpt lat="44.266464506595646" lon="11.495655638238242"><ele>362.0</ele><time>2026-05-03T08:00:27.972Z</time></trkpt><trkpt lat="44.26638462001375" lon="11.495724615410856"><ele>364.0</ele><time>2026-05-03T08:00:28.973Z</time></trkpt><trkpt lat="44.26630859794419" lon="11.495804042397483"><ele>366.0</ele><time>2026-05-03T08:00:29.973Z</time></trkpt><trkpt lat="44.26624517910733" lon="11.49591155775035"><ele>367.20000000000005</ele><time>2026-05-03T08:00:30.972Z</time></trkpt><trkpt lat="44.26621177599403" lon="11.496041984785112"><ele>368.40000000000003</ele><time>2026-05-03T08:00:31.972Z</time></trkpt><trkpt lat="44.266233661294564" lon="11.496190099948578"><ele>369.6</ele><time>2026-05-03T08:00:32.972Z</time></trkpt><trkpt lat="44.26628750279532" lon="11.496322420598911"><ele>370.8</ele><time>2026-05-03T08:00:33.972Z</time></trkpt><trkpt lat="44.26635980751387" lon="11.496414042851073"><ele>372.0</ele><time>2026-05-03T08:00:34.972Z</time></trkpt><trkpt lat="44.26646795751385" lon="11.496451208627922"><ele>374.0</ele><time>2026-05-03T08:00:35.972Z</time></trkpt><trkpt lat="44.266583472099455" lon="11.496453464807237"><ele>376.0</ele><time>2026-05-03T08:00:36.972Z</time></trkpt><trkpt lat="44.26668621085954" lon="11.49641790552117"><ele>378.0</ele><time>2026-05-03T08:00:37.972Z</time></trkpt><trkpt lat="44.26678822521832" lon="11.496379251926683"><ele>380.0</ele><time>2026-05-03T08:00:38.972Z</time></trkpt><trkpt lat="44.266889781996674" lon="11.496357713714039"><ele>382.0</ele><time>2026-05-03T08:00:39.972Z</time></trkpt><trkpt lat="44.26699266171788" lon="11.496345826617496"><ele>382.0</ele><time>2026-05-03T08:00:40.972Z</time></trkpt><trkpt lat="44.26709449727103" lon="11.496347498995405"><ele>382.0</ele><time>2026-05-03T08:00:41.972Z</time></trkpt><trkpt lat="44.26719652739175" lon="11.496389548299165"><ele>382.0</ele><time>2026-05-03T08:00:42.972Z</time></trkpt><trkpt lat="44.26729281333678" lon="11.496457077634604"><ele>382.0</ele><time>2026-05-03T08:00:43.972Z</time></trkpt><trkpt lat="44.267377712300714" lon="11.49654431906835"><ele>382.0</ele><time>2026-05-03T08:00:44.972Z</time></trkpt><trkpt lat="44.26745769366504" lon="11.49664315292996"><ele>381.20000000000005</ele><time>2026-05-03T08:00:45.972Z</time></trkpt><trkpt lat="44.267537822658234" lon="11.496740341400153"><ele>380.4</ele><time>2026-05-03T08:00:46.972Z</time></trkpt><trkpt lat="44.267613297080295" lon="11.496837800135074"><ele>379.6</ele><time>2026-05-03T08:00:47.972Z</time></trkpt><trkpt lat="44.26769038801427" lon="11.496931988321675"><ele>378.79999999999995</ele><time>2026-05-03T08:00:48.972Z</time></trkpt><trkpt lat="44.26777009701916" lon="11.497027654648917"><ele>378.0</ele><time>2026-05-03T08:00:49.972Z</time></trkpt><trkpt lat="44.267849555856124" lon="11.4971209020862"><ele>379.4</ele><time>2026-05-03T08:00:50.972Z</time></trkpt><trkpt lat="44.267928089062224" lon="11.49721595443783"><ele>380.79999999999995</ele><time>2026-05-03T08:00:51.972Z</time></trkpt><trkpt lat="44.26800615327674" lon="11.49730638950406"><ele>382.2</ele><time>2026-05-03T08:00:52.972Z</time></trkpt><trkpt lat="44.26808657523232" lon="11.497399271932697"><ele>383.6</ele><time>2026-05-03T08:00:53.972Z</time></trkpt><trkpt lat="44.26816451455655" lon="11.497492726878162"><ele>385.0</ele><time>2026-05-03T08:00:54.972Z</time></trkpt><trkpt lat="44.268239837573624" lon="11.497590393150702"><ele>385.0</ele><time>2026-05-03T08:00:55.972Z</time></trkpt><trkpt lat="44.268320808416156" lon="11.497680037219666"><ele>385.0</ele><time>2026-05-03T08:00:56.972Z</time></trkpt><trkpt lat="44.26840582567352" lon="11.497777993791415"><ele>385.0</ele><time>2026-05-03T08:00:57.972Z</time></trkpt><trkpt lat="44.26848223265997" lon="11.497869555879682"><ele>385.0</ele><time>2026-05-03T08:00:58.972Z</time></trkpt><trkpt lat="44.26856554439404" lon="11.497961250385949"><ele>385.0</ele><time>2026-05-03T08:00:59.972Z</time></trkpt><trkpt lat="44.268646572170695" lon="11.498054336710538"><ele>386.6</ele><time>2026-05-03T08:01:00.972Z</time></trkpt><trkpt lat="44.26872581012918" lon="11.498149737608697"><ele>388.2</ele><time>2026-05-03T08:01:01.972Z</time></trkpt><trkpt lat="44.26880650466273" lon="11.498243537222402"><ele>389.79999999999995</ele><time>2026-05-03T08:01:02.972Z</time></trkpt><trkpt lat="44.2688875208887" lon="11.498337438494078"><ele>391.4</ele><time>2026-05-03T08:01:03.972Z</time></trkpt><trkpt lat="44.268966586174734" lon="11.498434005992673"><ele>393.0</ele><time>2026-05-03T08:01:04.972Z</time></trkpt><trkpt lat="44.26904830659606" lon="11.498529011202548"><ele>393.0</ele><time>2026-05-03T08:01:05.972Z</time></trkpt><trkpt lat="44.26912914087693" lon="11.498620673366093"><ele>393.0</ele><time>2026-05-03T08:01:06.972Z</time></trkpt><trkpt lat="44.26921174596432" lon="11.498721589837897"><ele>393.0</ele><time>2026-05-03T08:01:07.972Z</time></trkpt><trkpt lat="44.26929346343244" lon="11.498813167236658"><ele>393.0</ele><time>2026-05-03T08:01:08.972Z</time></trkpt><trkpt lat="44.26937577191815" lon="11.498901897306256"><ele>393.0</ele><time>2026-05-03T08:01:09.972Z</time></trkpt><trkpt lat="44.269456523641644" lon="11.498991458792359"><ele>395.79999999999995</ele><time>2026-05-03T08:01:10.972Z</time></trkpt><trkpt lat="44.26952981697534" lon="11.499102195371876"><ele>398.6</ele><time>2026-05-03T08:01:11.972Z</time></trkpt><trkpt lat="44.26956896780171" lon="11.499228522682833"><ele>401.4</ele><time>2026-05-03T08:01:12.972Z</time></trkpt><trkpt lat="44.26961048220435" lon="11.499368228922878"><ele>404.20000000000005</ele><time>2026-05-03T08:01:13.972Z</time></trkpt><trkpt lat="44.269643709466706" lon="11.4995029274428"><ele>407.0</ele><time>2026-05-03T08:01:14.972Z</time></trkpt><trkpt lat="44.269680619482195" lon="11.499627063306484"><ele>408.49999999999994</ele><time>2026-05-03T08:01:15.972Z</time></trkpt><trkpt lat="44.26970470236875" lon="11.499735794570844"><ele>410.0</ele><time>2026-05-03T08:01:16.972Z</time></trkpt><trkpt lat="44.26972331120713" lon="11.499826501166352"><ele>411.5</ele><time>2026-05-03T08:01:17.972Z</time></trkpt><trkpt lat="44.26962231115422" lon="11.499891869523374"><ele>413.0</ele><time>2026-05-03T08:01:21.972Z</time></trkpt><trkpt lat="44.269556430971726" lon="11.49985603451405"><ele>414.49999999999994</ele><time>2026-05-03T08:01:23.972Z</time></trkpt><trkpt lat="44.26949564381245" lon="11.499825067226904"><ele>416.0</ele><time>2026-05-03T08:02:35.971Z</time></trkpt><trkpt lat="44.26955793611094" lon="11.499857493754655"><ele>415.99999999999994</ele><time>2026-05-03T08:02:38.971Z</time></trkpt><trkpt lat="44.26962005640041" lon="11.499892209133742"><ele>416.0</ele><time>2026-05-03T08:02:40.971Z</time></trkpt><trkpt lat="44.269523937433874" lon="11.499834822473234"><ele>416.0</ele><time>2026-05-03T08:02:51.971Z</time></trkpt><trkpt lat="44.269455541438504" lon="11.499766380972822"><ele>416.0</ele><time>2026-05-03T08:02:53.971Z</time></trkpt><trkpt lat="44.26940089845826" lon="11.499712097001654"><ele>415.99999999999994</ele><time>2026-05-03T08:02:54.971Z</time></trkpt><trkpt lat="44.26932426013676" lon="11.499635011186859"><ele>416.0</ele><time>2026-05-03T08:02:55.971Z</time></trkpt><trkpt lat="44.26923401460421" lon="11.499537238673996"><ele>414.20000000000005</ele><time>2026-05-03T08:02:56.971Z</time></trkpt><trkpt lat="44.26915961014841" lon="11.499417332789013"><ele>412.40000000000003</ele><time>2026-05-03T08:02:57.971Z</time></trkpt><trkpt lat="44.2692518133859" lon="11.49955239360894"><ele>410.6</ele><time>2026-05-03T08:02:58.971Z</time></trkpt><trkpt lat="44.269205358098624" lon="11.499488497692804"><ele>408.8</ele><time>2026-05-03T08:02:59.971Z</time></trkpt><trkpt lat="44.26915415026709" lon="11.499408839348284"><ele>407.0</ele><time>2026-05-03T08:03:00.971Z</time></trkpt><trkpt lat="44.26910829201286" lon="11.499322237337418"><ele>406.99999999999994</ele><time>2026-05-03T08:03:01.971Z</time></trkpt><trkpt lat="44.2690628988743" lon="11.499254268577822"><ele>407.0</ele><time>2026-05-03T08:03:02.971Z</time></trkpt><trkpt lat="44.26900874007278" lon="11.499186102481977"><ele>407.0</ele><time>2026-05-03T08:03:03.971Z</time></trkpt><trkpt lat="44.26893934241272" lon="11.49912511537653"><ele>407.0</ele><time>2026-05-03T08:03:04.971Z</time></trkpt><trkpt lat="44.26884363704666" lon="11.499113866052188"><ele>406.99999999999994</ele><time>2026-05-03T08:03:05.971Z</time></trkpt><trkpt lat="44.268765107045276" lon="11.499079950056707"><ele>407.0</ele><time>2026-05-03T08:03:06.971Z</time></trkpt><trkpt lat="44.268701434362455" lon="11.499026032190875"><ele>408.8</ele><time>2026-05-03T08:03:07.971Z</time></trkpt><trkpt lat="44.26858523606195" lon="11.498983788351696"><ele>410.6</ele><time>2026-05-03T08:03:09.971Z</time></trkpt><trkpt lat="44.26852697511551" lon="11.498944292116837"><ele>412.40000000000003</ele><time>2026-05-03T08:03:10.971Z</time></trkpt><trkpt lat="44.268418899023224" lon="11.498903434350101"><ele>414.20000000000005</ele><time>2026-05-03T08:03:12.971Z</time></trkpt><trkpt lat="44.26836206174383" lon="11.498969211079018"><ele>416.0</ele><time>2026-05-03T08:03:15.971Z</time></trkpt><trkpt lat="44.26840709300022" lon="11.499082831205909"><ele>416.0</ele><time>2026-05-03T08:03:17.971Z</time></trkpt><trkpt lat="44.26846821344172" lon="11.499168669640648"><ele>416.0</ele><time>2026-05-03T08:03:19.971Z</time></trkpt><trkpt lat="44.26847320519262" lon="11.49931343510609"><ele>416.0</ele><time>2026-05-03T08:03:21.971Z</time></trkpt><trkpt lat="44.268450316640944" lon="11.499443984117216"><ele>416.0</ele><time>2026-05-03T08:03:23.971Z</time></trkpt><trkpt lat="44.268416458422564" lon="11.499580671459396"><ele>416.0</ele><time>2026-05-03T08:03:25.971Z</time></trkpt><trkpt lat="44.26840025013872" lon="11.499725251067519"><ele>416.8333333333333</ele><time>2026-05-03T08:03:27.971Z</time></trkpt><trkpt lat="44.26836540872727" lon="11.499893006922067"><ele>417.66666666666663</ele><time>2026-05-03T08:03:29.971Z</time></trkpt><trkpt lat="44.26835079746817" lon="11.499990036662993"><ele>418.5</ele><time>2026-05-03T08:03:30.971Z</time></trkpt><trkpt lat="44.26833250918356" lon="11.500084558715074"><ele>419.33333333333337</ele><time>2026-05-03T08:03:31.971Z</time></trkpt><trkpt lat="44.268315230420086" lon="11.500180997742275"><ele>420.1666666666667</ele><time>2026-05-03T08:03:32.971Z</time></trkpt><trkpt lat="44.268289848017595" lon="11.50027037579753"><ele>421.0</ele><time>2026-05-03T08:03:33.971Z</time></trkpt><trkpt lat="44.26826637680207" lon="11.500369390744774"><ele>422.14285714285717</ele><time>2026-05-03T08:03:34.971Z</time></trkpt><trkpt lat="44.2682639051419" lon="11.500466699821631"><ele>423.2857142857143</ele><time>2026-05-03T08:03:35.971Z</time></trkpt><trkpt lat="44.268271569593665" lon="11.50057268695558"><ele>424.42857142857144</ele><time>2026-05-03T08:03:36.971Z</time></trkpt><trkpt lat="44.26829152905832" lon="11.50066651358614"><ele>425.57142857142856</ele><time>2026-05-03T08:03:37.971Z</time></trkpt><trkpt lat="44.2683203154576" lon="11.50076273742432"><ele>426.7142857142857</ele><time>2026-05-03T08:03:38.971Z</time></trkpt><trkpt lat="44.26835698825517" lon="11.500860019440205"><ele>427.8571428571429</ele><time>2026-05-03T08:03:39.971Z</time></trkpt><trkpt lat="44.2683840832316" lon="11.500960958881752"><ele>429.0</ele><time>2026-05-03T08:03:40.971Z</time></trkpt><trkpt lat="44.26840761086556" lon="11.501069875684035"><ele>429.0</ele><time>2026-05-03T08:03:41.971Z</time></trkpt><trkpt lat="44.2684382289275" lon="11.501173882453784"><ele>429.0</ele><time>2026-05-03T08:03:42.971Z</time></trkpt><trkpt lat="44.26846794099865" lon="11.501280574909732"><ele>429.0</ele><time>2026-05-03T08:03:43.971Z</time></trkpt><trkpt lat="44.268484901552476" lon="11.501384910050978"><ele>429.0</ele><time>2026-05-03T08:03:44.971Z</time></trkpt><trkpt lat="44.26845892637709" lon="11.501491145793812"><ele>429.0</ele><time>2026-05-03T08:03:45.971Z</time></trkpt><trkpt lat="44.26839308904584" lon="11.501560048014044"><ele>429.0</ele><time>2026-05-03T08:03:46.971Z</time></trkpt><trkpt lat="44.26829952530111" lon="11.501546798250253"><ele>430.6666666666667</ele><time>2026-05-03T08:03:47.971Z</time></trkpt><trkpt lat="44.26821432443365" lon="11.501525097947855"><ele>432.33333333333337</ele><time>2026-05-03T08:03:48.971Z</time></trkpt><trkpt lat="44.268136489477584" lon="11.501503167581287"><ele>434.0</ele><time>2026-05-03T08:03:49.971Z</time></trkpt><trkpt lat="44.26805990168402" lon="11.501517562545564"><ele>435.6666666666667</ele><time>2026-05-03T08:03:50.971Z</time></trkpt><trkpt lat="44.26799094179179" lon="11.5015073561715"><ele>437.33333333333337</ele><time>2026-05-03T08:03:51.971Z</time></trkpt><trkpt lat="44.267922522991036" lon="11.501526226790908"><ele>439.0</ele><time>2026-05-03T08:03:52.971Z</time></trkpt><trkpt lat="44.267861781961386" lon="11.501589061890657"><ele>439.7142857142857</ele><time>2026-05-03T08:03:53.971Z</time></trkpt><trkpt lat="44.26781438497677" lon="11.501662500571308"><ele>440.42857142857144</ele><time>2026-05-03T08:03:54.971Z</time></trkpt><trkpt lat="44.26777059175789" lon="11.501740310139525"><ele>441.1428571428571</ele><time>2026-05-03T08:03:55.971Z</time></trkpt><trkpt lat="44.26773204511147" lon="11.501821318722396"><ele>441.8571428571429</ele><time>2026-05-03T08:03:56.971Z</time></trkpt><trkpt lat="44.267689984886175" lon="11.501902115810887"><ele>442.5714285714286</ele><time>2026-05-03T08:03:57.971Z</time></trkpt><trkpt lat="44.267649779046046" lon="11.50197961476336"><ele>443.2857142857143</ele><time>2026-05-03T08:03:58.971Z</time></trkpt><trkpt lat="44.267594443155126" lon="11.502059310786805"><ele>444.0</ele><time>2026-05-03T08:03:59.971Z</time></trkpt><trkpt lat="44.267529523752415" lon="11.502129768968986"><ele>445.6666666666667</ele><time>2026-05-03T08:04:00.971Z</time></trkpt><trkpt lat="44.26746171146193" lon="11.502182038717292"><ele>447.33333333333337</ele><time>2026-05-03T08:04:01.971Z</time></trkpt><trkpt lat="44.26738448466521" lon="11.502241128979236"><ele>449.0</ele><time>2026-05-03T08:04:02.971Z</time></trkpt><trkpt lat="44.26730780154055" lon="11.502301212269625"><ele>450.6666666666667</ele><time>2026-05-03T08:04:03.971Z</time></trkpt><trkpt lat="44.267240786464846" lon="11.50237292595464"><ele>452.33333333333337</ele><time>2026-05-03T08:04:04.971Z</time></trkpt><trkpt lat="44.267182398929535" lon="11.502448940783188"><ele>454.0</ele><time>2026-05-03T08:04:05.971Z</time></trkpt><trkpt lat="44.267130760993034" lon="11.502531535262982"><ele>454.83333333333337</ele><time>2026-05-03T08:04:06.971Z</time></trkpt><trkpt lat="44.26708684852807" lon="11.502605939993591"><ele>455.6666666666667</ele><time>2026-05-03T08:04:07.971Z</time></trkpt><trkpt lat="44.26704291390264" lon="11.502685370129656"><ele>456.5</ele><time>2026-05-03T08:04:08.971Z</time></trkpt><trkpt lat="44.26699942105653" lon="11.50274913508883"><ele>457.33333333333337</ele><time>2026-05-03T08:04:09.971Z</time></trkpt><trkpt lat="44.266952908336975" lon="11.502817807626071"><ele>458.1666666666667</ele><time>2026-05-03T08:04:11.971Z</time></trkpt><trkpt lat="44.26704639610395" lon="11.50296542917533"><ele>459.0</ele><time>2026-05-03T08:04:12.971Z</time></trkpt><trkpt lat="44.267138423049865" lon="11.503037864624984"><ele>459.2</ele><time>2026-05-03T08:04:14.971Z</time></trkpt><trkpt lat="44.26723763726253" lon="11.503115744908031"><ele>459.4</ele><time>2026-05-03T08:04:16.971Z</time></trkpt><trkpt lat="44.2673069492574" lon="11.503163008058193"><ele>459.6</ele><time>2026-05-03T08:04:17.971Z</time></trkpt><trkpt lat="44.26738400230697" lon="11.503224138569948"><ele>459.8</ele><time>2026-05-03T08:04:18.971Z</time></trkpt><trkpt lat="44.267464437012535" lon="11.503294719297697"><ele>460.0</ele><time>2026-05-03T08:04:19.971Z</time></trkpt><trkpt lat="44.26754964556124" lon="11.503372425447118"><ele>460.0</ele><time>2026-05-03T08:04:20.971Z</time></trkpt><trkpt lat="44.26763844725217" lon="11.503446876965995"><ele>460.0</ele><time>2026-05-03T08:04:21.971Z</time></trkpt><trkpt lat="44.2677265606956" lon="11.503523617239058"><ele>460.0</ele><time>2026-05-03T08:04:22.971Z</time></trkpt><trkpt lat="44.267820536328045" lon="11.503596971178137"><ele>460.0</ele><time>2026-05-03T08:04:23.971Z</time></trkpt><trkpt lat="44.26790150105777" lon="11.50368135297359"><ele>460.0</ele><time>2026-05-03T08:04:24.971Z</time></trkpt><trkpt lat="44.267979529933896" lon="11.503778234563345"><ele>460.8</ele><time>2026-05-03T08:04:25.971Z</time></trkpt><trkpt lat="44.26804839704922" lon="11.50389302581086"><ele>461.6</ele><time>2026-05-03T08:04:26.971Z</time></trkpt><trkpt lat="44.26810996988671" lon="11.504019461309106"><ele>462.4</ele><time>2026-05-03T08:04:27.971Z</time></trkpt><trkpt lat="44.26817623681421" lon="11.504145184806733"><ele>463.2</ele><time>2026-05-03T08:04:28.971Z</time></trkpt><trkpt lat="44.26823622096301" lon="11.5042665500696"><ele>464.0</ele><time>2026-05-03T08:04:29.971Z</time></trkpt><trkpt lat="44.26830574977296" lon="11.504378144605587"><ele>464.0</ele><time>2026-05-03T08:04:30.971Z</time></trkpt><trkpt lat="44.26838581850965" lon="11.504469282894801"><ele>464.0</ele><time>2026-05-03T08:04:31.971Z</time></trkpt><trkpt lat="44.268476638612285" lon="11.504541565852932"><ele>464.0</ele><time>2026-05-03T08:04:32.971Z</time></trkpt><trkpt lat="44.26857219390002" lon="11.504595911462488"><ele>464.0</ele><time>2026-05-03T08:04:33.97Z</time></trkpt><trkpt lat="44.26866750439347" lon="11.504637285737797"><ele>464.0</ele><time>2026-05-03T08:04:34.97Z</time></trkpt><trkpt lat="44.26876494992982" lon="11.504678208529864"><ele>464.4</ele><time>2026-05-03T08:04:35.97Z</time></trkpt><trkpt lat="44.268872036421875" lon="11.504629081851727"><ele>464.79999999999995</ele><time>2026-05-03T08:04:36.97Z</time></trkpt><trkpt lat="44.26897422812264" lon="11.504586212609981"><ele>465.20000000000005</ele><time>2026-05-03T08:04:37.97Z</time></trkpt><trkpt lat="44.2690774996128" lon="11.50453649356079"><ele>465.6</ele><time>2026-05-03T08:04:38.97Z</time></trkpt><trkpt lat="44.26918125892166" lon="11.504494013633865"><ele>466.0</ele><time>2026-05-03T08:04:39.97Z</time></trkpt><trkpt lat="44.2692831543858" lon="11.504448067771328"><ele>466.0</ele><time>2026-05-03T08:04:40.97Z</time></trkpt><trkpt lat="44.26937926280159" lon="11.504439787005252"><ele>466.0</ele><time>2026-05-03T08:04:41.97Z</time></trkpt><trkpt lat="44.269474863569734" lon="11.504498411869237"><ele>466.0</ele><time>2026-05-03T08:04:42.97Z</time></trkpt><trkpt lat="44.269548408448216" lon="11.50460323628835"><ele>466.0</ele><time>2026-05-03T08:04:43.97Z</time></trkpt><trkpt lat="44.26961772782148" lon="11.504706306507854"><ele>466.0</ele><time>2026-05-03T08:04:44.97Z</time></trkpt><trkpt lat="44.269690916612234" lon="11.504821098528907"><ele>466.25</ele><time>2026-05-03T08:04:45.97Z</time></trkpt><trkpt lat="44.269761615005876" lon="11.504955241303742"><ele>466.5</ele><time>2026-05-03T08:04:46.969Z</time></trkpt><trkpt lat="44.2698654506835" lon="11.505078835081187"><ele>466.75</ele><time>2026-05-03T08:04:47.969Z</time></trkpt><trkpt lat="44.269954633187034" lon="11.505207076266244"><ele>467.0</ele><time>2026-05-03T08:04:48.969Z</time></trkpt><trkpt lat="44.27003214160087" lon="11.505333495265614"><ele>466.25</ele><time>2026-05-03T08:04:49.969Z</time></trkpt><trkpt lat="44.27014086248869" lon="11.505415991347013"><ele>465.5</ele><time>2026-05-03T08:04:50.969Z</time></trkpt><trkpt lat="44.2702556127448" lon="11.50547357657513"><ele>464.75</ele><time>2026-05-03T08:04:51.969Z</time></trkpt><trkpt lat="44.270373412604265" lon="11.505519654737267"><ele>464.0</ele><time>2026-05-03T08:04:52.969Z</time></trkpt><trkpt lat="44.27049136142368" lon="11.505554806631688"><ele>464.0</ele><time>2026-05-03T08:04:53.969Z</time></trkpt><trkpt lat="44.27060474681268" lon="11.505582841742024"><ele>464.0</ele><time>2026-05-03T08:04:54.969Z</time></trkpt><trkpt lat="44.27071262913532" lon="11.505614694352593"><ele>464.0</ele><time>2026-05-03T08:04:55.969Z</time></trkpt><trkpt lat="44.270808432865934" lon="11.505665596447937"><ele>464.0</ele><time>2026-05-03T08:04:56.969Z</time></trkpt><trkpt lat="44.27087945046355" lon="11.50574420624966"><ele>464.0</ele><time>2026-05-03T08:04:57.969Z</time></trkpt><trkpt lat="44.270923383045336" lon="11.505866596200477"><ele>465.4</ele><time>2026-05-03T08:04:58.969Z</time></trkpt><trkpt lat="44.270948170607504" lon="11.506004427827339"><ele>466.79999999999995</ele><time>2026-05-03T08:04:59.969Z</time></trkpt><trkpt lat="44.27096496030252" lon="11.50613729698151"><ele>468.20000000000005</ele><time>2026-05-03T08:05:00.969Z</time></trkpt><trkpt lat="44.27099357229493" lon="11.506257586846226"><ele>469.6</ele><time>2026-05-03T08:05:01.969Z</time></trkpt><trkpt lat="44.27107778297605" lon="11.506324436615287"><ele>471.0</ele><time>2026-05-03T08:05:02.969Z</time></trkpt><trkpt lat="44.27118722556754" lon="11.506327744334643"><ele>471.0</ele><time>2026-05-03T08:05:03.969Z</time></trkpt><trkpt lat="44.27130056068948" lon="11.506295651046113"><ele>471.0</ele><time>2026-05-03T08:05:04.969Z</time></trkpt><trkpt lat="44.27140412274345" lon="11.506270672612924"><ele>471.0</ele><time>2026-05-03T08:05:05.969Z</time></trkpt><trkpt lat="44.27150822609515" lon="11.506259180947044"><ele>471.0</ele><time>2026-05-03T08:05:06.969Z</time></trkpt><trkpt lat="44.27161617771524" lon="11.506236319779273"><ele>471.0</ele><time>2026-05-03T08:05:07.969Z</time></trkpt><trkpt lat="44.271720588531025" lon="11.506196198329086"><ele>471.1666666666667</ele><time>2026-05-03T08:05:08.969Z</time></trkpt><trkpt lat="44.27181465940739" lon="11.506153905231887"><ele>471.33333333333337</ele><time>2026-05-03T08:05:09.969Z</time></trkpt><trkpt lat="44.2719010851452" lon="11.506116120462448"><ele>471.5</ele><time>2026-05-03T08:05:10.969Z</time></trkpt><trkpt lat="44.27198602919555" lon="11.50609127135976"><ele>471.6666666666667</ele><time>2026-05-03T08:05:11.969Z</time></trkpt><trkpt lat="44.272067472404075" lon="11.50611052727852"><ele>471.83333333333337</ele><time>2026-05-03T08:05:12.969Z</time></trkpt><trkpt lat="44.2721380253768" lon="11.506168759522913"><ele>472.0</ele><time>2026-05-03T08:05:13.969Z</time></trkpt><trkpt lat="44.272183585031506" lon="11.50625088231172"><ele>473.6666666666667</ele><time>2026-05-03T08:05:14.969Z</time></trkpt><trkpt lat="44.27223629578502" lon="11.506343524857929"><ele>475.33333333333337</ele><time>2026-05-03T08:05:15.969Z</time></trkpt><trkpt lat="44.27227869839957" lon="11.5064341104714"><ele>477.0</ele><time>2026-05-03T08:05:16.969Z</time></trkpt><trkpt lat="44.2723330915262" lon="11.506522139781978"><ele>478.66666666666663</ele><time>2026-05-03T08:05:17.969Z</time></trkpt><trkpt lat="44.272382273105734" lon="11.506623625705814"><ele>480.3333333333333</ele><time>2026-05-03T08:05:18.969Z</time></trkpt><trkpt lat="44.27243250630421" lon="11.506739655383267"><ele>482.0</ele><time>2026-05-03T08:05:19.969Z</time></trkpt><trkpt lat="44.272457470200166" lon="11.506878308460742"><ele>482.0</ele><time>2026-05-03T08:05:20.969Z</time></trkpt><trkpt lat="44.272503741063524" lon="11.507011247012592"><ele>482.00000000000006</ele><time>2026-05-03T08:05:21.969Z</time></trkpt><trkpt lat="44.27253723686376" lon="11.507160369867973"><ele>482.00000000000006</ele><time>2026-05-03T08:05:22.969Z</time></trkpt><trkpt lat="44.272577412385395" lon="11.507310257405603"><ele>482.0</ele><time>2026-05-03T08:05:23.969Z</time></trkpt><trkpt lat="44.27263034873354" lon="11.507451189281666"><ele>482.0</ele><time>2026-05-03T08:05:24.969Z</time></trkpt><trkpt lat="44.272703669558496" lon="11.507577958635823"><ele>483.25</ele><time>2026-05-03T08:05:25.969Z</time></trkpt><trkpt lat="44.27280050752785" lon="11.507670140227894"><ele>484.5</ele><time>2026-05-03T08:05:26.969Z</time></trkpt><trkpt lat="44.272910816923755" lon="11.507706911271267"><ele>485.75</ele><time>2026-05-03T08:05:27.969Z</time></trkpt><trkpt lat="44.27302792148949" lon="11.507687909577736"><ele>487.0</ele><time>2026-05-03T08:05:28.969Z</time></trkpt><trkpt lat="44.27313056945379" lon="11.507648589848525"><ele>487.0</ele><time>2026-05-03T08:05:29.969Z</time></trkpt><trkpt lat="44.27321949304903" lon="11.507655218091063"><ele>487.00000000000006</ele><time>2026-05-03T08:05:30.969Z</time></trkpt><trkpt lat="44.27328745870781" lon="11.507732505140174"><ele>487.00000000000006</ele><time>2026-05-03T08:05:31.969Z</time></trkpt><trkpt lat="44.27330161251033" lon="11.50787814525321"><ele>487.0</ele><time>2026-05-03T08:05:32.969Z</time></trkpt><trkpt lat="44.27334847128657" lon="11.508013958196988"><ele>487.0</ele><time>2026-05-03T08:05:33.969Z</time></trkpt><trkpt lat="44.27338234856088" lon="11.508135920723701"><ele>487.20000000000005</ele><time>2026-05-03T08:05:34.969Z</time></trkpt><trkpt lat="44.273432600584734" lon="11.508249218274692"><ele>487.40000000000003</ele><time>2026-05-03T08:05:35.969Z</time></trkpt><trkpt lat="44.27348961796607" lon="11.508359006097773"><ele>487.59999999999997</ele><time>2026-05-03T08:05:36.969Z</time></trkpt><trkpt lat="44.273534573067195" lon="11.508479854686342"><ele>487.79999999999995</ele><time>2026-05-03T08:05:37.969Z</time></trkpt><trkpt lat="44.27358631316024" lon="11.508604268572585"><ele>488.0</ele><time>2026-05-03T08:05:38.969Z</time></trkpt><trkpt lat="44.27364273235379" lon="11.508714721541455"><ele>485.4</ele><time>2026-05-03T08:05:39.969Z</time></trkpt><trkpt lat="44.27371155049465" lon="11.508816242151918"><ele>482.79999999999995</ele><time>2026-05-03T08:05:40.969Z</time></trkpt><trkpt lat="44.27376345661989" lon="11.508944067177866"><ele>480.2</ele><time>2026-05-03T08:05:41.969Z</time></trkpt><trkpt lat="44.27379968902794" lon="11.509085321472556"><ele>477.6</ele><time>2026-05-03T08:05:42.969Z</time></trkpt><trkpt lat="44.27381868636218" lon="11.509207395124903"><ele>475.0</ele><time>2026-05-03T08:05:43.969Z</time></trkpt><trkpt lat="44.2738479549247" lon="11.509319373659965"><ele>475.00000000000006</ele><time>2026-05-03T08:05:44.969Z</time></trkpt><trkpt lat="44.2738837097976" lon="11.509417920800368"><ele>475.0</ele><time>2026-05-03T08:05:45.969Z</time></trkpt><trkpt lat="44.27391020303049" lon="11.509499928483622"><ele>475.0</ele><time>2026-05-03T08:05:46.969Z</time></trkpt><trkpt lat="44.274002286876964" lon="11.509549925849951"><ele>475.0</ele><time>2026-05-03T08:05:47.969Z</time></trkpt><trkpt lat="44.274063216337154" lon="11.509631964462065"><ele>475.00000000000006</ele><time>2026-05-03T08:05:48.969Z</time></trkpt><trkpt lat="44.2741126154771" lon="11.50974023539162"><ele>475.0</ele><time>2026-05-03T08:05:49.969Z</time></trkpt><trkpt lat="44.27411348667172" lon="11.509843774220583"><ele>474.0</ele><time>2026-05-03T08:05:50.969Z</time></trkpt><trkpt lat="44.27408263167862" lon="11.509967460822267"><ele>473.0</ele><time>2026-05-03T08:05:51.969Z</time></trkpt><trkpt lat="44.27412246256551" lon="11.510082790899519"><ele>472.0</ele><time>2026-05-03T08:05:52.969Z</time></trkpt><trkpt lat="44.2741660860563" lon="11.510196763984343"><ele>471.0</ele><time>2026-05-03T08:05:53.969Z</time></trkpt><trkpt lat="44.274221065269074" lon="11.510297329723388"><ele>470.0</ele><time>2026-05-03T08:05:54.969Z</time></trkpt><trkpt lat="44.274274072462376" lon="11.51039752114952"><ele>469.4</ele><time>2026-05-03T08:05:55.969Z</time></trkpt><trkpt lat="44.27432961775314" lon="11.510495199477688"><ele>468.8</ele><time>2026-05-03T08:05:56.969Z</time></trkpt><trkpt lat="44.27438707822996" lon="11.51059390868076"><ele>468.20000000000005</ele><time>2026-05-03T08:05:57.969Z</time></trkpt><trkpt lat="44.274445413460185" lon="11.510692439566412"><ele>467.6</ele><time>2026-05-03T08:05:58.969Z</time></trkpt><trkpt lat="44.27450304522027" lon="11.510793732530384"><ele>467.0</ele><time>2026-05-03T08:05:59.969Z</time></trkpt><trkpt lat="44.274562761068324" lon="11.5109007157357"><ele>467.0</ele><time>2026-05-03T08:06:00.969Z</time></trkpt><trkpt lat="44.27462106200322" lon="11.5110099245446"><ele>467.00000000000006</ele><time>2026-05-03T08:06:01.969Z</time></trkpt><trkpt lat="44.27468102996123" lon="11.511122877745109"><ele>467.00000000000006</ele><time>2026-05-03T08:06:02.969Z</time></trkpt><trkpt lat="44.27474348750023" lon="11.511240313822158"><ele>467.0</ele><time>2026-05-03T08:06:03.969Z</time></trkpt><trkpt lat="44.27481044118598" lon="11.511363932606482"><ele>467.0</ele><time>2026-05-03T08:06:04.969Z</time></trkpt><trkpt lat="44.27488010737473" lon="11.511490571449814"><ele>465.5</ele><time>2026-05-03T08:06:05.969Z</time></trkpt><trkpt lat="44.274952770429195" lon="11.511620386617823"><ele>464.0</ele><time>2026-05-03T08:06:06.969Z</time></trkpt><trkpt lat="44.27502482822236" lon="11.51175094131343"><ele>462.5</ele><time>2026-05-03T08:06:07.969Z</time></trkpt><trkpt lat="44.2750955857116" lon="11.51188011994019"><ele>461.0</ele><time>2026-05-03T08:06:08.969Z</time></trkpt><trkpt lat="44.27516571710673" lon="11.512007897091612"><ele>460.6</ele><time>2026-05-03T08:06:09.969Z</time></trkpt><trkpt lat="44.2752398740081" lon="11.512140602318073"><ele>460.20000000000005</ele><time>2026-05-03T08:06:10.969Z</time></trkpt><trkpt lat="44.27534363019257" lon="11.512224023753733"><ele>459.79999999999995</ele><time>2026-05-03T08:06:11.969Z</time></trkpt><trkpt lat="44.27544465899485" lon="11.51231584806288"><ele>459.4</ele><time>2026-05-03T08:06:12.969Z</time></trkpt><trkpt lat="44.275520966178995" lon="11.512327001092887"><ele>459.0</ele><time>2026-05-03T08:06:13.969Z</time></trkpt><trkpt lat="44.27560247937689" lon="11.512369338511624"><ele>459.6</ele><time>2026-05-03T08:06:14.969Z</time></trkpt><trkpt lat="44.27572162381745" lon="11.51242488266761"><ele>460.2</ele><time>2026-05-03T08:06:16.969Z</time></trkpt><trkpt lat="44.27578628197383" lon="11.512362429388242"><ele>460.80000000000007</ele><time>2026-05-03T08:06:18.969Z</time></trkpt><trkpt lat="44.275859173105836" lon="11.512331376392554"><ele>461.40000000000003</ele><time>2026-05-03T08:06:19.969Z</time></trkpt><trkpt lat="44.27592083019465" lon="11.512291996536096"><ele>462.0</ele><time>2026-05-03T08:06:20.969Z</time></trkpt><trkpt lat="44.276085510565366" lon="11.513461421476002"><ele>462.0</ele><time>2026-05-03T08:06:22.969Z</time></trkpt><trkpt lat="44.27608720831071" lon="11.513711692346229"><ele>462.0</ele><time>2026-05-03T08:06:23.969Z</time></trkpt><trkpt lat="44.276104155006735" lon="11.51393056031885"><ele>462.0</ele><time>2026-05-03T08:06:24.969Z</time></trkpt><trkpt lat="44.27621209481408" lon="11.514112088179536"><ele>458.0</ele><time>2026-05-03T08:06:25.969Z</time></trkpt><trkpt lat="44.276287488279884" lon="11.514275633575641"><ele>454.0</ele><time>2026-05-03T08:06:26.969Z</time></trkpt><trkpt lat="44.27635052918843" lon="11.514452781846861"><ele>450.0</ele><time>2026-05-03T08:06:27.969Z</time></trkpt><trkpt lat="44.276429810596944" lon="11.514631222478325"><ele>446.0</ele><time>2026-05-03T08:06:28.969Z</time></trkpt><trkpt lat="44.27651112030832" lon="11.51479693286375"><ele>445.5</ele><time>2026-05-03T08:06:29.969Z</time></trkpt><trkpt lat="44.27659332441051" lon="11.514947051720096"><ele>445.0</ele><time>2026-05-03T08:06:30.969Z</time></trkpt><trkpt lat="44.27667321734804" lon="11.515085011152"><ele>444.5</ele><time>2026-05-03T08:06:31.969Z</time></trkpt><trkpt lat="44.27675012263183" lon="11.5152183025709"><ele>444.0</ele><time>2026-05-03T08:06:32.969Z</time></trkpt><trkpt lat="44.27683571183049" lon="11.515349003365875"><ele>442.0</ele><time>2026-05-03T08:06:33.969Z</time></trkpt><trkpt lat="44.27694519840067" lon="11.515473853249246"><ele>440.0</ele><time>2026-05-03T08:06:34.969Z</time></trkpt><trkpt lat="44.27707885282954" lon="11.515557273834068"><ele>438.0</ele><time>2026-05-03T08:06:35.969Z</time></trkpt><trkpt lat="44.277210023084656" lon="11.515610896188278"><ele>436.0</ele><time>2026-05-03T08:06:36.969Z</time></trkpt><trkpt lat="44.277334652388085" lon="11.515661581547496"><ele>436.0</ele><time>2026-05-03T08:06:37.969Z</time></trkpt><trkpt lat="44.27746432476557" lon="11.515739351359718"><ele>436.0</ele><time>2026-05-03T08:06:38.969Z</time></trkpt><trkpt lat="44.277578935779495" lon="11.515937029544164"><ele>436.0</ele><time>2026-05-03T08:06:39.968Z</time></trkpt><trkpt lat="44.27775792142545" lon="11.515984929521155"><ele>436.0</ele><time>2026-05-03T08:06:40.969Z</time></trkpt><trkpt lat="44.27787276658711" lon="11.516137204621527"><ele>436.0</ele><time>2026-05-03T08:06:41.969Z</time></trkpt><trkpt lat="44.277986221746666" lon="11.516285611589405"><ele>436.0</ele><time>2026-05-03T08:06:42.969Z</time></trkpt><trkpt lat="44.278125172216626" lon="11.51636262333978"><ele>432.5</ele><time>2026-05-03T08:06:43.968Z</time></trkpt><trkpt lat="44.278260262010825" lon="11.516429917023157"><ele>429.0</ele><time>2026-05-03T08:06:44.968Z</time></trkpt><trkpt lat="44.27839549307293" lon="11.516476267665306"><ele>425.5</ele><time>2026-05-03T08:06:45.968Z</time></trkpt><trkpt lat="44.278531463036835" lon="11.516502593180773"><ele>422.0</ele><time>2026-05-03T08:06:46.969Z</time></trkpt><trkpt lat="44.27866934881304" lon="11.516515554716804"><ele>422.0</ele><time>2026-05-03T08:06:47.969Z</time></trkpt><trkpt lat="44.278800709477665" lon="11.516516476056823"><ele>422.0</ele><time>2026-05-03T08:06:48.968Z</time></trkpt><trkpt lat="44.27892828703887" lon="11.51650482131441"><ele>422.0</ele><time>2026-05-03T08:06:49.968Z</time></trkpt><trkpt lat="44.27905542775677" lon="11.516496250939202"><ele>422.0</ele><time>2026-05-03T08:06:50.968Z</time></trkpt><trkpt lat="44.279178571070034" lon="11.516485715088722"><ele>421.75</ele><time>2026-05-03T08:06:51.969Z</time></trkpt><trkpt lat="44.27929800779558" lon="11.516475166210482"><ele>421.5</ele><time>2026-05-03T08:06:52.968Z</time></trkpt><trkpt lat="44.27941171825291" lon="11.5164663599679"><ele>421.25</ele><time>2026-05-03T08:06:53.968Z</time></trkpt><trkpt lat="44.27952181923066" lon="11.516464383969142"><ele>421.0</ele><time>2026-05-03T08:06:54.968Z</time></trkpt><trkpt lat="44.27963523614739" lon="11.516455165257643"><ele>421.0</ele><time>2026-05-03T08:06:55.968Z</time></trkpt><trkpt lat="44.27974360291449" lon="11.516445181920776"><ele>421.0</ele><time>2026-05-03T08:06:56.968Z</time></trkpt><trkpt lat="44.27985541115864" lon="11.516453237804766"><ele>421.0</ele><time>2026-05-03T08:06:57.968Z</time></trkpt><trkpt lat="44.27996577057082" lon="11.516494035866515"><ele>421.0</ele><time>2026-05-03T08:06:58.968Z</time></trkpt><trkpt lat="44.28007171701804" lon="11.516561066773452"><ele>422.75</ele><time>2026-05-03T08:06:59.968Z</time></trkpt><trkpt lat="44.280172864952256" lon="11.516647304906463"><ele>424.5</ele><time>2026-05-03T08:07:00.968Z</time></trkpt><trkpt lat="44.28027100706308" lon="11.516732636765731"><ele>426.25</ele><time>2026-05-03T08:07:01.968Z</time></trkpt><trkpt lat="44.280360624262926" lon="11.51681594151321"><ele>428.0</ele><time>2026-05-03T08:07:02.968Z</time></trkpt><trkpt lat="44.28044816701547" lon="11.516906520607005"><ele>428.0</ele><time>2026-05-03T08:07:03.968Z</time></trkpt><trkpt lat="44.280541276529284" lon="11.51697613034312"><ele>427.99999999999994</ele><time>2026-05-03T08:07:04.968Z</time></trkpt><trkpt lat="44.28063468821362" lon="11.517037343166203"><ele>427.99999999999994</ele><time>2026-05-03T08:07:05.968Z</time></trkpt><trkpt lat="44.28072846359504" lon="11.517111184423566"><ele>428.0</ele><time>2026-05-03T08:07:06.968Z</time></trkpt><trkpt lat="44.280829434118345" lon="11.517186978725917"><ele>428.0</ele><time>2026-05-03T08:07:07.968Z</time></trkpt><trkpt lat="44.280929658111404" lon="11.5172579276483"><ele>430.2</ele><time>2026-05-03T08:07:08.968Z</time></trkpt><trkpt lat="44.281024565480855" lon="11.51732864971307"><ele>432.4</ele><time>2026-05-03T08:07:09.968Z</time></trkpt><trkpt lat="44.28111377732523" lon="11.517417023293028"><ele>434.59999999999997</ele><time>2026-05-03T08:07:10.968Z</time></trkpt><trkpt lat="44.28119306369727" lon="11.51751394125162"><ele>436.79999999999995</ele><time>2026-05-03T08:07:11.968Z</time></trkpt><trkpt lat="44.28125792617698" lon="11.517618754682903"><ele>439.0</ele><time>2026-05-03T08:07:12.968Z</time></trkpt><trkpt lat="44.28130862189317" lon="11.51772494375703"><ele>439.0</ele><time>2026-05-03T08:07:13.968Z</time></trkpt><trkpt lat="44.28134088232831" lon="11.517852612321482"><ele>439.0</ele><time>2026-05-03T08:07:14.968Z</time></trkpt><trkpt lat="44.281341507943246" lon="11.51799792228054"><ele>439.0</ele><time>2026-05-03T08:07:15.968Z</time></trkpt><trkpt lat="44.28136191252724" lon="11.518133109698208"><ele>439.0</ele><time>2026-05-03T08:07:16.968Z</time></trkpt><trkpt lat="44.28137070265855" lon="11.518285976413187"><ele>439.0</ele><time>2026-05-03T08:07:17.968Z</time></trkpt><trkpt lat="44.281383836983544" lon="11.518437959291845"><ele>438.5</ele><time>2026-05-03T08:07:18.968Z</time></trkpt><trkpt lat="44.28139780851833" lon="11.518589596095216"><ele>438.0</ele><time>2026-05-03T08:07:19.968Z</time></trkpt><trkpt lat="44.281410703046205" lon="11.518743652010512"><ele>437.5</ele><time>2026-05-03T08:07:20.968Z</time></trkpt><trkpt lat="44.281421961176164" lon="11.518907087185793"><ele>437.0</ele><time>2026-05-03T08:07:21.968Z</time></trkpt><trkpt lat="44.28144058766085" lon="11.51906737192078"><ele>437.0</ele><time>2026-05-03T08:07:22.968Z</time></trkpt><trkpt lat="44.28145821535437" lon="11.519223408027754"><ele>437.00000000000006</ele><time>2026-05-03T08:07:23.968Z</time></trkpt><trkpt lat="44.28147582529979" lon="11.519376304250413"><ele>437.00000000000006</ele><time>2026-05-03T08:07:24.968Z</time></trkpt><trkpt lat="44.28149058796716" lon="11.519529751708957"><ele>437.0</ele><time>2026-05-03T08:07:25.968Z</time></trkpt><trkpt lat="44.28150268991323" lon="11.519679917845185"><ele>437.0</ele><time>2026-05-03T08:07:26.968Z</time></trkpt><trkpt lat="44.28152395481643" lon="11.519831897725556"><ele>436.6</ele><time>2026-05-03T08:07:27.968Z</time></trkpt><trkpt lat="44.281545595854205" lon="11.519986484547426"><ele>436.20000000000005</ele><time>2026-05-03T08:07:28.968Z</time></trkpt><trkpt lat="44.281551265728794" lon="11.520133449227165"><ele>435.8</ele><time>2026-05-03T08:07:29.968Z</time></trkpt><trkpt lat="44.281566467557944" lon="11.52028228359518"><ele>435.4</ele><time>2026-05-03T08:07:30.968Z</time></trkpt><trkpt lat="44.28157064211893" lon="11.520424758070899"><ele>435.0</ele><time>2026-05-03T08:07:31.968Z</time></trkpt><trkpt lat="44.28156701833002" lon="11.520568328151528"><ele>435.0</ele><time>2026-05-03T08:07:32.968Z</time></trkpt><trkpt lat="44.281560906208526" lon="11.520713516517384"><ele>435.0</ele><time>2026-05-03T08:07:33.968Z</time></trkpt><trkpt lat="44.28155428275869" lon="11.520858930609423"><ele>435.0</ele><time>2026-05-03T08:07:34.968Z</time></trkpt><trkpt lat="44.28153777609024" lon="11.521002416880213"><ele>435.0</ele><time>2026-05-03T08:07:35.968Z</time></trkpt><trkpt lat="44.28151820444518" lon="11.52113785139977"><ele>435.0</ele><time>2026-05-03T08:07:36.968Z</time></trkpt><trkpt lat="44.2814889561299" lon="11.521279978963554"><ele>434.2</ele><time>2026-05-03T08:07:37.968Z</time></trkpt><trkpt lat="44.28146689710392" lon="11.521420544203803"><ele>433.4</ele><time>2026-05-03T08:07:38.968Z</time></trkpt><trkpt lat="44.28144898515468" lon="11.521564398142942"><ele>432.6</ele><time>2026-05-03T08:07:39.968Z</time></trkpt><trkpt lat="44.2814255899736" lon="11.52170906374663"><ele>431.8</ele><time>2026-05-03T08:07:40.968Z</time></trkpt><trkpt lat="44.28139833338733" lon="11.521854646495793"><ele>431.0</ele><time>2026-05-03T08:07:41.968Z</time></trkpt><trkpt lat="44.28137114184307" lon="11.522000231655584"><ele>434.6</ele><time>2026-05-03T08:07:42.968Z</time></trkpt><trkpt lat="44.28134527703937" lon="11.522144673025045"><ele>438.20000000000005</ele><time>2026-05-03T08:07:43.968Z</time></trkpt><trkpt lat="44.281317248442505" lon="11.522292492991578"><ele>441.79999999999995</ele><time>2026-05-03T08:07:44.968Z</time></trkpt><trkpt lat="44.281286815658795" lon="11.522438473409663"><ele>445.4</ele><time>2026-05-03T08:07:45.968Z</time></trkpt><trkpt lat="44.28125486139154" lon="11.522582071585438"><ele>449.0</ele><time>2026-05-03T08:07:46.968Z</time></trkpt><trkpt lat="44.28122721636465" lon="11.52272403447712"><ele>449.0</ele><time>2026-05-03T08:07:47.968Z</time></trkpt><trkpt lat="44.28121117573333" lon="11.522869655284014"><ele>449.0</ele><time>2026-05-03T08:07:48.968Z</time></trkpt><trkpt lat="44.281190582637684" lon="11.523013542831082"><ele>449.0</ele><time>2026-05-03T08:07:49.968Z</time></trkpt><trkpt lat="44.28116122675066" lon="11.523160886769016"><ele>449.0</ele><time>2026-05-03T08:07:50.968Z</time></trkpt><trkpt lat="44.28112149714187" lon="11.523298507348088"><ele>449.0</ele><time>2026-05-03T08:07:51.968Z</time></trkpt><trkpt lat="44.28107147274147" lon="11.523431240389643"><ele>447.25</ele><time>2026-05-03T08:07:52.968Z</time></trkpt><trkpt lat="44.281004309734" lon="11.523556705701564"><ele>445.5</ele><time>2026-05-03T08:07:53.968Z</time></trkpt><trkpt lat="44.280944709665704" lon="11.523686444287264"><ele>443.75</ele><time>2026-05-03T08:07:54.968Z</time></trkpt><trkpt lat="44.28088537576169" lon="11.523822230818713"><ele>442.0</ele><time>2026-05-03T08:07:55.968Z</time></trkpt><trkpt lat="44.280825735269154" lon="11.523959471251603"><ele>440.0</ele><time>2026-05-03T08:07:56.968Z</time></trkpt><trkpt lat="44.28076683164366" lon="11.524095507816703"><ele>438.0</ele><time>2026-05-03T08:07:57.968Z</time></trkpt><trkpt lat="44.28069921581001" lon="11.524232606302197"><ele>436.0</ele><time>2026-05-03T08:07:58.968Z</time></trkpt><trkpt lat="44.280635877386175" lon="11.524363258552398"><ele>434.0</ele><time>2026-05-03T08:07:59.968Z</time></trkpt><trkpt lat="44.28057387895693" lon="11.524494949267833"><ele>431.75</ele><time>2026-05-03T08:08:00.968Z</time></trkpt><trkpt lat="44.28051750323589" lon="11.524635427719499"><ele>429.5</ele><time>2026-05-03T08:08:01.968Z</time></trkpt><trkpt lat="44.28046946387274" lon="11.524780017830704"><ele>427.25</ele><time>2026-05-03T08:08:02.968Z</time></trkpt><trkpt lat="44.2804222450592" lon="11.52492159531205"><ele>425.0</ele><time>2026-05-03T08:08:03.968Z</time></trkpt><trkpt lat="44.28037635178589" lon="11.525068697207187"><ele>425.0</ele><time>2026-05-03T08:08:04.968Z</time></trkpt><trkpt lat="44.280338357362076" lon="11.525215262479293"><ele>425.0</ele><time>2026-05-03T08:08:05.968Z</time></trkpt><trkpt lat="44.28031501048164" lon="11.525351552654287"><ele>425.0</ele><time>2026-05-03T08:08:06.968Z</time></trkpt><trkpt lat="44.28029705942136" lon="11.52547215017968"><ele>425.0</ele><time>2026-05-03T08:08:07.968Z</time></trkpt><trkpt lat="44.280274805670565" lon="11.525590448800251"><ele>425.0</ele><time>2026-05-03T08:08:08.968Z</time></trkpt><trkpt lat="44.28025679553672" lon="11.525741417843193"><ele>424.8333333333333</ele><time>2026-05-03T08:08:10.968Z</time></trkpt><trkpt lat="44.280249409738175" lon="11.52585424529239"><ele>424.66666666666663</ele><time>2026-05-03T08:08:13.968Z</time></trkpt><trkpt lat="44.28026678389166" lon="11.525943319829397"><ele>424.5</ele><time>2026-05-03T08:08:16.968Z</time></trkpt><trkpt lat="44.280206822764676" lon="11.5259845643821"><ele>424.33333333333337</ele><time>2026-05-03T08:10:27.967Z</time></trkpt><trkpt lat="44.28018194947058" lon="11.52607582590125"><ele>424.1666666666667</ele><time>2026-05-03T08:10:40.967Z</time></trkpt><trkpt lat="44.28017131288027" lon="11.526171460044614"><ele>424.0</ele><time>2026-05-03T08:10:42.967Z</time></trkpt><trkpt lat="44.28010808959726" lon="11.526293310616563"><ele>425.2857142857143</ele><time>2026-05-03T08:10:44.967Z</time></trkpt><trkpt lat="44.28007234676522" lon="11.526366420996816"><ele>426.57142857142856</ele><time>2026-05-03T08:10:45.967Z</time></trkpt><trkpt lat="44.2800374199674" lon="11.526444934114101"><ele>427.85714285714283</ele><time>2026-05-03T08:10:46.967Z</time></trkpt><trkpt lat="44.28000112186652" lon="11.526531373067026"><ele>429.1428571428571</ele><time>2026-05-03T08:10:47.967Z</time></trkpt><trkpt lat="44.2799600818513" lon="11.526618114958048"><ele>430.42857142857144</ele><time>2026-05-03T08:10:48.967Z</time></trkpt><trkpt lat="44.27991194652172" lon="11.52670076887291"><ele>431.71428571428567</ele><time>2026-05-03T08:10:49.967Z</time></trkpt><trkpt lat="44.279858154591466" lon="11.526774313473345"><ele>433.0</ele><time>2026-05-03T08:10:50.967Z</time></trkpt><trkpt lat="44.27979535252931" lon="11.526836430750636"><ele>434.1428571428571</ele><time>2026-05-03T08:10:51.966Z</time></trkpt><trkpt lat="44.279750502736" lon="11.526903402501853"><ele>435.2857142857143</ele><time>2026-05-03T08:10:52.966Z</time></trkpt><trkpt lat="44.27968608232032" lon="11.526958116348762"><ele>436.42857142857144</ele><time>2026-05-03T08:10:53.966Z</time></trkpt><trkpt lat="44.279622592773194" lon="11.527012335631175"><ele>437.57142857142856</ele><time>2026-05-03T08:10:54.966Z</time></trkpt><trkpt lat="44.27955857601137" lon="11.527064704325444"><ele>438.7142857142857</ele><time>2026-05-03T08:10:55.966Z</time></trkpt><trkpt lat="44.27949515152826" lon="11.527122671430984"><ele>439.85714285714283</ele><time>2026-05-03T08:10:56.966Z</time></trkpt><trkpt lat="44.279435845421965" lon="11.527193103654612"><ele>441.0</ele><time>2026-05-03T08:10:57.966Z</time></trkpt><trkpt lat="44.27938749772386" lon="11.52727665372503"><ele>441.0</ele><time>2026-05-03T08:10:58.966Z</time></trkpt><trkpt lat="44.27933684885651" lon="11.527360743232546"><ele>441.0</ele><time>2026-05-03T08:10:59.966Z</time></trkpt><trkpt lat="44.27928398850499" lon="11.527452114330638"><ele>441.0</ele><time>2026-05-03T08:11:00.967Z</time></trkpt><trkpt lat="44.2792273555959" lon="11.527539388294155"><ele>441.0</ele><time>2026-05-03T08:11:01.966Z</time></trkpt><trkpt lat="44.279169069272555" lon="11.527617945961437"><ele>441.0</ele><time>2026-05-03T08:11:02.966Z</time></trkpt><trkpt lat="44.27910469603301" lon="11.527688628552427"><ele>441.0</ele><time>2026-05-03T08:11:03.966Z</time></trkpt><trkpt lat="44.279037194589" lon="11.527750491072199"><ele>441.0</ele><time>2026-05-03T08:11:04.966Z</time></trkpt><trkpt lat="44.27896759345216" lon="11.527805781114068"><ele>441.0</ele><time>2026-05-03T08:11:05.966Z</time></trkpt><trkpt lat="44.27888955869231" lon="11.52784112716017"><ele>441.0</ele><time>2026-05-03T08:11:06.966Z</time></trkpt><trkpt lat="44.278814448019205" lon="11.527878717519615"><ele>441.0</ele><time>2026-05-03T08:11:07.966Z</time></trkpt><trkpt lat="44.27873614774217" lon="11.527914256252851"><ele>441.0</ele><time>2026-05-03T08:11:08.966Z</time></trkpt><trkpt lat="44.2786569746395" lon="11.52795367723067"><ele>441.0</ele><time>2026-05-03T08:11:09.966Z</time></trkpt><trkpt lat="44.278579906508625" lon="11.52799416623606"><ele>443.5</ele><time>2026-05-03T08:11:10.966Z</time></trkpt><trkpt lat="44.2785039240723" lon="11.528039139777125"><ele>446.0</ele><time>2026-05-03T08:11:11.966Z</time></trkpt><trkpt lat="44.2784279115875" lon="11.528095292817234"><ele>448.5</ele><time>2026-05-03T08:11:12.966Z</time></trkpt><trkpt lat="44.278359593415644" lon="11.528156519672443"><ele>451.0</ele><time>2026-05-03T08:11:13.966Z</time></trkpt><trkpt lat="44.27828930069344" lon="11.528226616613185"><ele>453.5</ele><time>2026-05-03T08:11:14.966Z</time></trkpt><trkpt lat="44.27823192711405" lon="11.528318568398428"><ele>456.0</ele><time>2026-05-03T08:11:15.966Z</time></trkpt><trkpt lat="44.27817266192631" lon="11.52841367802886"><ele>456.0</ele><time>2026-05-03T08:11:16.966Z</time></trkpt><trkpt lat="44.27812072946887" lon="11.528501490923091"><ele>456.0</ele><time>2026-05-03T08:11:17.966Z</time></trkpt><trkpt lat="44.27806679475339" lon="11.528592561098232"><ele>456.0</ele><time>2026-05-03T08:11:18.966Z</time></trkpt><trkpt lat="44.27801780545911" lon="11.528697229363617"><ele>456.0</ele><time>2026-05-03T08:11:19.966Z</time></trkpt><trkpt lat="44.27795499077085" lon="11.528797889997486"><ele>456.0</ele><time>2026-05-03T08:11:20.966Z</time></trkpt><trkpt lat="44.27788358457808" lon="11.528869183161195"><ele>456.0</ele><time>2026-05-03T08:11:21.966Z</time></trkpt><trkpt lat="44.277796898177535" lon="11.528935484507297"><ele>455.4</ele><time>2026-05-03T08:11:22.966Z</time></trkpt><trkpt lat="44.277701426425544" lon="11.528989993225183"><ele>454.8</ele><time>2026-05-03T08:11:23.966Z</time></trkpt><trkpt lat="44.27761606953718" lon="11.5290346515328"><ele>454.19999999999993</ele><time>2026-05-03T08:11:24.966Z</time></trkpt><trkpt lat="44.27753619917734" lon="11.529101881139637"><ele>453.59999999999997</ele><time>2026-05-03T08:11:25.966Z</time></trkpt><trkpt lat="44.27747146739259" lon="11.529194287967274"><ele>453.0</ele><time>2026-05-03T08:11:26.966Z</time></trkpt><trkpt lat="44.27742741672021" lon="11.52931134776652"><ele>453.0</ele><time>2026-05-03T08:11:27.966Z</time></trkpt><trkpt lat="44.2773868820535" lon="11.52943409293844"><ele>452.99999999999994</ele><time>2026-05-03T08:11:28.966Z</time></trkpt><trkpt lat="44.27735117245603" lon="11.529563221075236"><ele>452.99999999999994</ele><time>2026-05-03T08:11:29.966Z</time></trkpt><trkpt lat="44.27732430438472" lon="11.529690999498163"><ele>453.0</ele><time>2026-05-03T08:11:30.966Z</time></trkpt><trkpt lat="44.27728314988788" lon="11.529812242689099"><ele>453.0</ele><time>2026-05-03T08:11:31.966Z</time></trkpt><trkpt lat="44.27722261464638" lon="11.52990462566036"><ele>451.79999999999995</ele><time>2026-05-03T08:11:32.966Z</time></trkpt><trkpt lat="44.27714319643379" lon="11.529960674507524"><ele>450.59999999999997</ele><time>2026-05-03T08:11:33.966Z</time></trkpt><trkpt lat="44.277045473353354" lon="11.529986966907439"><ele>449.40000000000003</ele><time>2026-05-03T08:11:34.966Z</time></trkpt><trkpt lat="44.27694428398856" lon="11.529954950149598"><ele>448.20000000000005</ele><time>2026-05-03T08:11:35.966Z</time></trkpt><trkpt lat="44.276841018605886" lon="11.529942119358147"><ele>447.0</ele><time>2026-05-03T08:11:36.966Z</time></trkpt><trkpt lat="44.27673467509717" lon="11.52995090919195"><ele>447.0</ele><time>2026-05-03T08:11:37.966Z</time></trkpt><trkpt lat="44.27663302393277" lon="11.529916328651915"><ele>447.00000000000006</ele><time>2026-05-03T08:11:38.966Z</time></trkpt><trkpt lat="44.27652922445256" lon="11.529909964203894"><ele>447.00000000000006</ele><time>2026-05-03T08:11:39.966Z</time></trkpt><trkpt lat="44.27642485815343" lon="11.529900542167987"><ele>447.0</ele><time>2026-05-03T08:11:40.966Z</time></trkpt><trkpt lat="44.27631646056484" lon="11.529883823869865"><ele>447.0</ele><time>2026-05-03T08:11:41.966Z</time></trkpt><trkpt lat="44.276206670309975" lon="11.529867858164147"><ele>445.6</ele><time>2026-05-03T08:11:42.966Z</time></trkpt><trkpt lat="44.27609841766104" lon="11.529850522721908"><ele>444.20000000000005</ele><time>2026-05-03T08:11:43.966Z</time></trkpt><trkpt lat="44.27599105427571" lon="11.529836428909025"><ele>442.8</ele><time>2026-05-03T08:11:44.966Z</time></trkpt><trkpt lat="44.27588416490908" lon="11.529826598042561"><ele>441.4</ele><time>2026-05-03T08:11:45.966Z</time></trkpt><trkpt lat="44.27578389265927" lon="11.529818115618836"><ele>440.0</ele><time>2026-05-03T08:11:46.966Z</time></trkpt><trkpt lat="44.27568600544562" lon="11.529812410366752"><ele>440.4</ele><time>2026-05-03T08:11:47.966Z</time></trkpt><trkpt lat="44.27559242942951" lon="11.52979670410043"><ele>440.8</ele><time>2026-05-03T08:11:48.966Z</time></trkpt><trkpt lat="44.275500504197296" lon="11.529781102597568"><ele>441.20000000000005</ele><time>2026-05-03T08:11:49.966Z</time></trkpt><trkpt lat="44.275409759865525" lon="11.52977216830847"><ele>441.6</ele><time>2026-05-03T08:11:50.966Z</time></trkpt><trkpt lat="44.27532062223338" lon="11.52976067028065"><ele>442.0</ele><time>2026-05-03T08:11:51.966Z</time></trkpt><trkpt lat="44.27523227406214" lon="11.52974349317856"><ele>442.0</ele><time>2026-05-03T08:11:52.966Z</time></trkpt><trkpt lat="44.27513832249842" lon="11.529730176384701"><ele>442.00000000000006</ele><time>2026-05-03T08:11:53.966Z</time></trkpt><trkpt lat="44.27504361135138" lon="11.529719480089385"><ele>442.00000000000006</ele><time>2026-05-03T08:11:54.966Z</time></trkpt><trkpt lat="44.274945419205984" lon="11.529715054545822"><ele>442.0</ele><time>2026-05-03T08:11:55.966Z</time></trkpt><trkpt lat="44.27484566642787" lon="11.529724540151712"><ele>442.0</ele><time>2026-05-03T08:11:56.966Z</time></trkpt><trkpt lat="44.27474827867894" lon="11.529761070452931"><ele>440.20000000000005</ele><time>2026-05-03T08:11:57.966Z</time></trkpt><trkpt lat="44.274656444635944" lon="11.529808728496947"><ele>438.40000000000003</ele><time>2026-05-03T08:11:58.966Z</time></trkpt><trkpt lat="44.27457135266283" lon="11.529878776507715"><ele>436.59999999999997</ele><time>2026-05-03T08:11:59.966Z</time></trkpt><trkpt lat="44.27449150686196" lon="11.52997064675139"><ele>434.79999999999995</ele><time>2026-05-03T08:12:00.966Z</time></trkpt><trkpt lat="44.274421065571964" lon="11.530077372149917"><ele>433.0</ele><time>2026-05-03T08:12:01.966Z</time></trkpt><trkpt lat="44.274358121698185" lon="11.53019275664179"><ele>433.0</ele><time>2026-05-03T08:12:02.966Z</time></trkpt><trkpt lat="44.274302266099376" lon="11.530317123640513"><ele>432.99999999999994</ele><time>2026-05-03T08:12:03.966Z</time></trkpt><trkpt lat="44.27424432964124" lon="11.530443506991821"><ele>432.99999999999994</ele><time>2026-05-03T08:12:04.966Z</time></trkpt><trkpt lat="44.274180474898856" lon="11.530566390532579"><ele>433.0</ele><time>2026-05-03T08:12:05.966Z</time></trkpt><trkpt lat="44.2741128128151" lon="11.530688842379789"><ele>433.0</ele><time>2026-05-03T08:12:06.966Z</time></trkpt><trkpt lat="44.27404192775445" lon="11.53080335445531"><ele>433.2</ele><time>2026-05-03T08:12:07.966Z</time></trkpt><trkpt lat="44.27396658848805" lon="11.530913620601384"><ele>433.4</ele><time>2026-05-03T08:12:08.966Z</time></trkpt><trkpt lat="44.27388703072806" lon="11.531013904347686"><ele>433.59999999999997</ele><time>2026-05-03T08:12:09.966Z</time></trkpt><trkpt lat="44.273799633766764" lon="11.531090407083392"><ele>433.79999999999995</ele><time>2026-05-03T08:12:10.966Z</time></trkpt><trkpt lat="44.27370770788402" lon="11.531156713605556"><ele>434.0</ele><time>2026-05-03T08:12:11.966Z</time></trkpt><trkpt lat="44.27361113354801" lon="11.53121921654157"><ele>433.0</ele><time>2026-05-03T08:12:12.966Z</time></trkpt><trkpt lat="44.27351830687981" lon="11.531285376349608"><ele>432.0</ele><time>2026-05-03T08:12:13.966Z</time></trkpt><trkpt lat="44.273427572585796" lon="11.531342695810592"><ele>431.0</ele><time>2026-05-03T08:12:14.966Z</time></trkpt><trkpt lat="44.27334372004118" lon="11.531405333306829"><ele>430.0</ele><time>2026-05-03T08:12:15.966Z</time></trkpt><trkpt lat="44.273265540269705" lon="11.531484815729106"><ele>429.0</ele><time>2026-05-03T08:12:16.966Z</time></trkpt><trkpt lat="44.273189400855124" lon="11.531572550386132"><ele>429.0</ele><time>2026-05-03T08:12:17.966Z</time></trkpt><trkpt lat="44.27311808688528" lon="11.531669457275514"><ele>429.0</ele><time>2026-05-03T08:12:18.966Z</time></trkpt><trkpt lat="44.27304599196867" lon="11.53175831605293"><ele>429.0</ele><time>2026-05-03T08:12:19.966Z</time></trkpt><trkpt lat="44.27296960064846" lon="11.531850297499577"><ele>429.0</ele><time>2026-05-03T08:12:20.966Z</time></trkpt><trkpt lat="44.272893347788646" lon="11.531936550398992"><ele>429.0</ele><time>2026-05-03T08:12:21.966Z</time></trkpt><trkpt lat="44.27281812834141" lon="11.532021223107447"><ele>430.0</ele><time>2026-05-03T08:12:22.966Z</time></trkpt><trkpt lat="44.27274334849035" lon="11.532106748922514"><ele>431.0</ele><time>2026-05-03T08:12:23.966Z</time></trkpt><trkpt lat="44.2726666914351" lon="11.532185435400256"><ele>432.0</ele><time>2026-05-03T08:12:24.966Z</time></trkpt><trkpt lat="44.27259027702265" lon="11.532258666443813"><ele>433.0</ele><time>2026-05-03T08:12:25.966Z</time></trkpt><trkpt lat="44.27251315504724" lon="11.532324395643334"><ele>434.0</ele><time>2026-05-03T08:12:26.966Z</time></trkpt><trkpt lat="44.27243485735327" lon="11.532375974345241"><ele>433.99999999999994</ele><time>2026-05-03T08:12:27.966Z</time></trkpt><trkpt lat="44.27235425824518" lon="11.532411777020645"><ele>434.0</ele><time>2026-05-03T08:12:28.966Z</time></trkpt><trkpt lat="44.27227259669553" lon="11.532434105616176"><ele>434.0</ele><time>2026-05-03T08:12:29.966Z</time></trkpt><trkpt lat="44.27219034137531" lon="11.532443693742415"><ele>434.0</ele><time>2026-05-03T08:12:30.966Z</time></trkpt><trkpt lat="44.272107885382184" lon="11.5324410752544"><ele>433.99999999999994</ele><time>2026-05-03T08:12:31.966Z</time></trkpt><trkpt lat="44.27202352802868" lon="11.532426397820592"><ele>434.0</ele><time>2026-05-03T08:12:32.966Z</time></trkpt><trkpt lat="44.27194109043833" lon="11.53239851728779"><ele>434.99999999999994</ele><time>2026-05-03T08:12:33.966Z</time></trkpt><trkpt lat="44.2718658334908" lon="11.532338136320867"><ele>436.0</ele><time>2026-05-03T08:12:34.966Z</time></trkpt><trkpt lat="44.27178843579088" lon="11.532287914929364"><ele>437.0</ele><time>2026-05-03T08:12:35.966Z</time></trkpt><trkpt lat="44.271704137315034" lon="11.532246394727089"><ele>438.0</ele><time>2026-05-03T08:12:36.966Z</time></trkpt><trkpt lat="44.271636735430405" lon="11.532157927269244"><ele>438.99999999999994</ele><time>2026-05-03T08:12:37.966Z</time></trkpt><trkpt lat="44.27156176517689" lon="11.532083728580446"><ele>440.0</ele><time>2026-05-03T08:12:38.966Z</time></trkpt><trkpt lat="44.271487277204706" lon="11.532008207189193"><ele>442.0</ele><time>2026-05-03T08:12:39.966Z</time></trkpt><trkpt lat="44.27141279986251" lon="11.531931413832107"><ele>444.0</ele><time>2026-05-03T08:12:40.966Z</time></trkpt><trkpt lat="44.27133929338395" lon="11.53185562149843"><ele>446.0</ele><time>2026-05-03T08:12:41.966Z</time></trkpt><trkpt lat="44.271266371113306" lon="11.531780431558765"><ele>448.0</ele><time>2026-05-03T08:12:42.966Z</time></trkpt><trkpt lat="44.271184546218734" lon="11.53172543635458"><ele>450.0</ele><time>2026-05-03T08:12:43.966Z</time></trkpt><trkpt lat="44.27111314687629" lon="11.531651162505193"><ele>450.0</ele><time>2026-05-03T08:12:44.966Z</time></trkpt><trkpt lat="44.271039938105034" lon="11.531578825525695"><ele>450.0</ele><time>2026-05-03T08:12:45.966Z</time></trkpt><trkpt lat="44.27095767226543" lon="11.531511196038975"><ele>450.0</ele><time>2026-05-03T08:12:46.966Z</time></trkpt><trkpt lat="44.27087898801094" lon="11.531442240384576"><ele>450.0</ele><time>2026-05-03T08:12:47.966Z</time></trkpt><trkpt lat="44.27079714037231" lon="11.531382531679292"><ele>450.0</ele><time>2026-05-03T08:12:48.966Z</time></trkpt><trkpt lat="44.270700698317654" lon="11.531342181848991"><ele>449.8</ele><time>2026-05-03T08:12:49.966Z</time></trkpt><trkpt lat="44.27060501192015" lon="11.531305298992597"><ele>449.6</ele><time>2026-05-03T08:12:50.966Z</time></trkpt><trkpt lat="44.270504648497045" lon="11.531289619480118"><ele>449.4</ele><time>2026-05-03T08:12:51.966Z</time></trkpt><trkpt lat="44.27039995194608" lon="11.5312882429859"><ele>449.2</ele><time>2026-05-03T08:12:52.966Z</time></trkpt><trkpt lat="44.270294399963646" lon="11.531289114765189"><ele>449.0</ele><time>2026-05-03T08:12:53.966Z</time></trkpt><trkpt lat="44.27018280702937" lon="11.531294063501251"><ele>449.0</ele><time>2026-05-03T08:12:54.966Z</time></trkpt><trkpt lat="44.27007171973797" lon="11.531297474448477"><ele>449.0</ele><time>2026-05-03T08:12:55.966Z</time></trkpt><trkpt lat="44.269964692642354" lon="11.531291100253753"><ele>449.0</ele><time>2026-05-03T08:12:56.966Z</time></trkpt><trkpt lat="44.26985036680477" lon="11.53127392247329"><ele>449.0</ele><time>2026-05-03T08:12:57.964Z</time></trkpt><trkpt lat="44.2697512711431" lon="11.531237987418095"><ele>449.0</ele><time>2026-05-03T08:12:58.965Z</time></trkpt><trkpt lat="44.26966834641145" lon="11.531153939730165"><ele>445.49999999999994</ele><time>2026-05-03T08:12:59.965Z</time></trkpt><trkpt lat="44.269578346920234" lon="11.531108183270383"><ele>442.0</ele><time>2026-05-03T08:13:00.964Z</time></trkpt><trkpt lat="44.26949739680619" lon="11.531072802463445"><ele>438.5</ele><time>2026-05-03T08:13:01.964Z</time></trkpt><trkpt lat="44.26942137514389" lon="11.531090576589932"><ele>435.0</ele><time>2026-05-03T08:13:02.964Z</time></trkpt><trkpt lat="44.26936161874845" lon="11.53117572535783"><ele>431.49999999999994</ele><time>2026-05-03T08:13:03.964Z</time></trkpt><trkpt lat="44.26934700975891" lon="11.531296557382776"><ele>428.0</ele><time>2026-05-03T08:13:04.964Z</time></trkpt><trkpt lat="44.26936697537716" lon="11.531417408706853"><ele>428.0</ele><time>2026-05-03T08:13:05.964Z</time></trkpt><trkpt lat="44.26940580326734" lon="11.531545127487664"><ele>427.99999999999994</ele><time>2026-05-03T08:13:06.964Z</time></trkpt><trkpt lat="44.26945208293356" lon="11.53167690868697"><ele>427.99999999999994</ele><time>2026-05-03T08:13:07.965Z</time></trkpt><trkpt lat="44.26948798407594" lon="11.531815033927089"><ele>428.0</ele><time>2026-05-03T08:13:08.965Z</time></trkpt><trkpt lat="44.269509443877126" lon="11.531953942739936"><ele>428.0</ele><time>2026-05-03T08:13:09.964Z</time></trkpt><trkpt lat="44.26951229420511" lon="11.532098424801712"><ele>428.59999999999997</ele><time>2026-05-03T08:13:10.964Z</time></trkpt><trkpt lat="44.269491091688224" lon="11.532249409613131"><ele>429.19999999999993</ele><time>2026-05-03T08:13:11.964Z</time></trkpt><trkpt lat="44.269442123243664" lon="11.532383661843772"><ele>429.8</ele><time>2026-05-03T08:13:12.964Z</time></trkpt><trkpt lat="44.26935302524622" lon="11.532481974997921"><ele>430.4</ele><time>2026-05-03T08:13:13.964Z</time></trkpt><trkpt lat="44.269260599416064" lon="11.532574217344807"><ele>431.0</ele><time>2026-05-03T08:13:14.964Z</time></trkpt><trkpt lat="44.26917812087417" lon="11.532674560659757"><ele>431.0</ele><time>2026-05-03T08:13:15.964Z</time></trkpt><trkpt lat="44.26909136618753" lon="11.532760927368901"><ele>431.0</ele><time>2026-05-03T08:13:16.964Z</time></trkpt><trkpt lat="44.269016153680006" lon="11.532862971369731"><ele>431.0</ele><time>2026-05-03T08:13:17.964Z</time></trkpt><trkpt lat="44.268968512906845" lon="11.532996689340699"><ele>431.0</ele><time>2026-05-03T08:13:18.964Z</time></trkpt><trkpt lat="44.26894306611746" lon="11.533133222208622"><ele>431.0</ele><time>2026-05-03T08:13:19.964Z</time></trkpt><trkpt lat="44.26894966537156" lon="11.533266500820279"><ele>430.4</ele><time>2026-05-03T08:13:20.964Z</time></trkpt><trkpt lat="44.26897294879237" lon="11.533416195601673"><ele>429.8</ele><time>2026-05-03T08:13:21.964Z</time></trkpt><trkpt lat="44.26902522082639" lon="11.53354355027088"><ele>429.19999999999993</ele><time>2026-05-03T08:13:22.964Z</time></trkpt><trkpt lat="44.26909454334137" lon="11.533649025003466"><ele>428.59999999999997</ele><time>2026-05-03T08:13:23.964Z</time></trkpt><trkpt lat="44.26916689375895" lon="11.53374475579947"><ele>428.0</ele><time>2026-05-03T08:13:24.964Z</time></trkpt><trkpt lat="44.26924939606878" lon="11.533845400819828"><ele>425.4</ele><time>2026-05-03T08:13:25.964Z</time></trkpt><trkpt lat="44.26932715065168" lon="11.533960578940212"><ele>422.79999999999995</ele><time>2026-05-03T08:13:26.964Z</time></trkpt><trkpt lat="44.269386375727564" lon="11.534087570060604"><ele>420.2</ele><time>2026-05-03T08:13:27.964Z</time></trkpt><trkpt lat="44.269431104931606" lon="11.534216719665306"><ele>417.6</ele><time>2026-05-03T08:13:28.964Z</time></trkpt><trkpt lat="44.26945580088313" lon="11.534361460325883"><ele>415.0</ele><time>2026-05-03T08:13:29.964Z</time></trkpt><trkpt lat="44.269449905851914" lon="11.53452792142482"><ele>414.6</ele><time>2026-05-03T08:13:30.964Z</time></trkpt><trkpt lat="44.26944110266244" lon="11.53467368616569"><ele>414.2</ele><time>2026-05-03T08:13:31.964Z</time></trkpt><trkpt lat="44.26939848306204" lon="11.534812963084516"><ele>413.79999999999995</ele><time>2026-05-03T08:13:32.964Z</time></trkpt><trkpt lat="44.269337358727824" lon="11.534939481916448"><ele>413.4</ele><time>2026-05-03T08:13:33.964Z</time></trkpt><trkpt lat="44.26927075556551" lon="11.53504625685292"><ele>413.0</ele><time>2026-05-03T08:13:34.964Z</time></trkpt><trkpt lat="44.26920147748574" lon="11.535153571503349"><ele>413.0</ele><time>2026-05-03T08:13:35.964Z</time></trkpt><trkpt lat="44.26912626032233" lon="11.535271832696457"><ele>413.0</ele><time>2026-05-03T08:13:36.964Z</time></trkpt><trkpt lat="44.269052169882336" lon="11.5353887277976"><ele>413.0</ele><time>2026-05-03T08:13:37.964Z</time></trkpt><trkpt lat="44.2689831811782" lon="11.535502069847894"><ele>413.0</ele><time>2026-05-03T08:13:38.963Z</time></trkpt><trkpt lat="44.268909545549796" lon="11.5356080765335"><ele>413.0</ele><time>2026-05-03T08:13:39.963Z</time></trkpt><trkpt lat="44.268834563559224" lon="11.53571070219282"><ele>410.79999999999995</ele><time>2026-05-03T08:13:40.963Z</time></trkpt><trkpt lat="44.26874920094042" lon="11.535803810545298"><ele>408.6</ele><time>2026-05-03T08:13:41.963Z</time></trkpt><trkpt lat="44.26865895244695" lon="11.535884424947325"><ele>406.4</ele><time>2026-05-03T08:13:42.963Z</time></trkpt><trkpt lat="44.26856122840118" lon="11.535963468895718"><ele>404.20000000000005</ele><time>2026-05-03T08:13:43.962Z</time></trkpt><trkpt lat="44.268458206976604" lon="11.536026495520016"><ele>402.0</ele><time>2026-05-03T08:13:44.962Z</time></trkpt><trkpt lat="44.2683464789483" lon="11.53607661707663"><ele>402.0</ele><time>2026-05-03T08:13:45.962Z</time></trkpt><trkpt lat="44.268231902449074" lon="11.53612445740258"><ele>402.0</ele><time>2026-05-03T08:13:46.962Z</time></trkpt><trkpt lat="44.26812196845825" lon="11.536166070661618"><ele>402.0</ele><time>2026-05-03T08:13:47.962Z</time></trkpt><trkpt lat="44.268008634187694" lon="11.53618018439066"><ele>402.0</ele><time>2026-05-03T08:13:48.962Z</time></trkpt><trkpt lat="44.26790093206715" lon="11.536222299008527"><ele>402.0</ele><time>2026-05-03T08:13:49.962Z</time></trkpt><trkpt lat="44.267790255336564" lon="11.536265477345799"><ele>402.0</ele><time>2026-05-03T08:13:50.962Z</time></trkpt><trkpt lat="44.26768495945879" lon="11.536307869595424"><ele>402.0</ele><time>2026-05-03T08:13:51.961Z</time></trkpt><trkpt lat="44.26757839067705" lon="11.5363180235287"><ele>402.0</ele><time>2026-05-03T08:13:52.961Z</time></trkpt><trkpt lat="44.26747698937588" lon="11.53634997572623"><ele>402.0</ele><time>2026-05-03T08:13:53.961Z</time></trkpt><trkpt lat="44.267373953847994" lon="11.536382721967755"><ele>400.8</ele><time>2026-05-03T08:13:54.961Z</time></trkpt><trkpt lat="44.267269530177224" lon="11.536416116836383"><ele>399.6</ele><time>2026-05-03T08:13:55.961Z</time></trkpt><trkpt lat="44.26717056919875" lon="11.536447764714033"><ele>398.40000000000003</ele><time>2026-05-03T08:13:56.961Z</time></trkpt><trkpt lat="44.26706675968457" lon="11.53648022514764"><ele>397.20000000000005</ele><time>2026-05-03T08:13:57.961Z</time></trkpt><trkpt lat="44.266963773464376" lon="11.536511433089881"><ele>396.0</ele><time>2026-05-03T08:13:58.961Z</time></trkpt><trkpt lat="44.2668637069376" lon="11.536558559833848"><ele>396.0</ele><time>2026-05-03T08:13:59.961Z</time></trkpt><trkpt lat="44.266755072322674" lon="11.536577235452128"><ele>396.0</ele><time>2026-05-03T08:14:00.961Z</time></trkpt><trkpt lat="44.266651144663626" lon="11.536609353229041"><ele>396.0</ele><time>2026-05-03T08:14:01.961Z</time></trkpt><trkpt lat="44.26654718366402" lon="11.53665890938235"><ele>396.0</ele><time>2026-05-03T08:14:02.961Z</time></trkpt><trkpt lat="44.26644375904008" lon="11.536734128098352"><ele>396.0</ele><time>2026-05-03T08:14:03.961Z</time></trkpt><trkpt lat="44.266340079664126" lon="11.536799698021925"><ele>396.5</ele><time>2026-05-03T08:14:04.961Z</time></trkpt><trkpt lat="44.26626110385483" lon="11.536913861718206"><ele>397.0</ele><time>2026-05-03T08:14:05.96Z</time></trkpt><trkpt lat="44.26621466007397" lon="11.537064323062317"><ele>397.5</ele><time>2026-05-03T08:14:06.96Z</time></trkpt><trkpt lat="44.26616815179779" lon="11.537200383488008"><ele>398.0</ele><time>2026-05-03T08:14:07.96Z</time></trkpt><trkpt lat="44.26613953275637" lon="11.53735628955349"><ele>398.0</ele><time>2026-05-03T08:14:08.96Z</time></trkpt><trkpt lat="44.26610804298" lon="11.537508118751855"><ele>398.0</ele><time>2026-05-03T08:14:09.96Z</time></trkpt><trkpt lat="44.26607209343623" lon="11.537661003025141"><ele>398.0</ele><time>2026-05-03T08:14:10.96Z</time></trkpt><trkpt lat="44.26604232228076" lon="11.537812232672657"><ele>398.0</ele><time>2026-05-03T08:14:11.96Z</time></trkpt><trkpt lat="44.26601305093435" lon="11.53796012963721"><ele>396.0</ele><time>2026-05-03T08:14:12.96Z</time></trkpt><trkpt lat="44.2659866872848" lon="11.538102587322495"><ele>394.0</ele><time>2026-05-03T08:14:13.96Z</time></trkpt><trkpt lat="44.26593979140127" lon="11.538239409645103"><ele>392.0</ele><time>2026-05-03T08:14:14.96Z</time></trkpt><trkpt lat="44.265909037027534" lon="11.538379518068542"><ele>390.0</ele><time>2026-05-03T08:14:15.96Z</time></trkpt><trkpt lat="44.26588385223946" lon="11.538519770187452"><ele>388.0</ele><time>2026-05-03T08:14:16.96Z</time></trkpt><trkpt lat="44.26585792006178" lon="11.53865235932142"><ele>386.59999999999997</ele><time>2026-05-03T08:14:17.96Z</time></trkpt><trkpt lat="44.265829639769144" lon="11.538782657525916"><ele>385.2</ele><time>2026-05-03T08:14:18.96Z</time></trkpt><trkpt lat="44.26579832498652" lon="11.538911186746299"><ele>383.8</ele><time>2026-05-03T08:14:19.96Z</time></trkpt><trkpt lat="44.26576349257434" lon="11.539040434248692"><ele>382.4</ele><time>2026-05-03T08:14:20.96Z</time></trkpt><trkpt lat="44.26570899679769" lon="11.539149018909825"><ele>381.0</ele><time>2026-05-03T08:14:21.96Z</time></trkpt><trkpt lat="44.2656431360654" lon="11.539247165391604"><ele>381.6</ele><time>2026-05-03T08:14:22.96Z</time></trkpt><trkpt lat="44.265566609677116" lon="11.539333368406824"><ele>382.20000000000005</ele><time>2026-05-03T08:14:23.96Z</time></trkpt><trkpt lat="44.26548155083703" lon="11.539418815153711"><ele>382.79999999999995</ele><time>2026-05-03T08:14:24.96Z</time></trkpt><trkpt lat="44.26539273127504" lon="11.539502270749049"><ele>383.4</ele><time>2026-05-03T08:14:25.96Z</time></trkpt><trkpt lat="44.265302520839874" lon="11.539577217008576"><ele>384.0</ele><time>2026-05-03T08:14:26.96Z</time></trkpt><trkpt lat="44.26521571721668" lon="11.539671233012749"><ele>381.6</ele><time>2026-05-03T08:14:27.96Z</time></trkpt><trkpt lat="44.26512982591171" lon="11.539765702533458"><ele>379.2</ele><time>2026-05-03T08:14:28.96Z</time></trkpt><trkpt lat="44.26504338390456" lon="11.539847753451003"><ele>376.8</ele><time>2026-05-03T08:14:29.96Z</time></trkpt><trkpt lat="44.264958504651474" lon="11.539936403305006"><ele>374.40000000000003</ele><time>2026-05-03T08:14:30.96Z</time></trkpt><trkpt lat="44.26487456235672" lon="11.540022581794496"><ele>372.0</ele><time>2026-05-03T08:14:31.96Z</time></trkpt><trkpt lat="44.26479145394922" lon="11.540108576689192"><ele>372.40000000000003</ele><time>2026-05-03T08:14:32.96Z</time></trkpt><trkpt lat="44.26470829793045" lon="11.540193115125069"><ele>372.8</ele><time>2026-05-03T08:14:33.96Z</time></trkpt><trkpt lat="44.26462599594158" lon="11.54027710076891"><ele>373.2</ele><time>2026-05-03T08:14:34.96Z</time></trkpt><trkpt lat="44.26454155884507" lon="11.540356089486506"><ele>373.6</ele><time>2026-05-03T08:14:35.96Z</time></trkpt><trkpt lat="44.26445457233159" lon="11.540413980306184"><ele>374.0</ele><time>2026-05-03T08:14:36.96Z</time></trkpt><trkpt lat="44.26436596325757" lon="11.540462818200321"><ele>374.0</ele><time>2026-05-03T08:14:37.96Z</time></trkpt><trkpt lat="44.26427680783888" lon="11.540502736663756"><ele>374.0</ele><time>2026-05-03T08:14:38.96Z</time></trkpt><trkpt lat="44.26418816521319" lon="11.540521779337743"><ele>374.0</ele><time>2026-05-03T08:14:39.96Z</time></trkpt><trkpt lat="44.26409549202958" lon="11.540522957788859"><ele>374.0</ele><time>2026-05-03T08:14:40.96Z</time></trkpt><trkpt lat="44.263999818220434" lon="11.54051508219482"><ele>374.0</ele><time>2026-05-03T08:14:41.96Z</time></trkpt><trkpt lat="44.263909091630055" lon="11.540495182093954"><ele>374.4</ele><time>2026-05-03T08:14:42.96Z</time></trkpt><trkpt lat="44.26382045503627" lon="11.540476948715204"><ele>374.79999999999995</ele><time>2026-05-03T08:14:43.96Z</time></trkpt><trkpt lat="44.263723958060446" lon="11.54046174550156"><ele>375.20000000000005</ele><time>2026-05-03T08:14:44.96Z</time></trkpt><trkpt lat="44.26362571200413" lon="11.540453010267342"><ele>375.6</ele><time>2026-05-03T08:14:45.96Z</time></trkpt><trkpt lat="44.26352843338891" lon="11.540445202811192"><ele>376.0</ele><time>2026-05-03T08:14:46.96Z</time></trkpt><trkpt lat="44.26343145413309" lon="11.54043018948405"><ele>376.0</ele><time>2026-05-03T08:14:47.96Z</time></trkpt><trkpt lat="44.263334017929026" lon="11.540421002644957"><ele>376.0</ele><time>2026-05-03T08:14:48.96Z</time></trkpt><trkpt lat="44.263236129098104" lon="11.540409133496658"><ele>376.0</ele><time>2026-05-03T08:14:49.96Z</time></trkpt><trkpt lat="44.263136828364" lon="11.540396133481357"><ele>376.0</ele><time>2026-05-03T08:14:50.96Z</time></trkpt><trkpt lat="44.26304072289037" lon="11.540358953662215"><ele>376.0</ele><time>2026-05-03T08:14:51.96Z</time></trkpt><trkpt lat="44.26294158750738" lon="11.540319323131104"><ele>371.8</ele><time>2026-05-03T08:14:52.96Z</time></trkpt><trkpt lat="44.26284411489768" lon="11.540288053425753"><ele>367.6</ele><time>2026-05-03T08:14:53.96Z</time></trkpt><trkpt lat="44.262746085795456" lon="11.540259168516942"><ele>363.4</ele><time>2026-05-03T08:14:54.96Z</time></trkpt><trkpt lat="44.26264810906234" lon="11.540242291431676"><ele>359.2</ele><time>2026-05-03T08:14:55.96Z</time></trkpt><trkpt lat="44.26255174995994" lon="11.540232607395241"><ele>355.0</ele><time>2026-05-03T08:14:56.96Z</time></trkpt><trkpt lat="44.26245321970443" lon="11.54025529263903"><ele>355.0</ele><time>2026-05-03T08:14:57.96Z</time></trkpt><trkpt lat="44.26235863697205" lon="11.540281704154802"><ele>355.0</ele><time>2026-05-03T08:14:58.96Z</time></trkpt><trkpt lat="44.26228052034954" lon="11.5403519559392"><ele>355.0</ele><time>2026-05-03T08:14:59.96Z</time></trkpt><trkpt lat="44.26221060908195" lon="11.540438794866734"><ele>355.0</ele><time>2026-05-03T08:15:00.96Z</time></trkpt><trkpt lat="44.26215272252211" lon="11.540535778740976"><ele>355.0</ele><time>2026-05-03T08:15:01.96Z</time></trkpt><trkpt lat="44.262101918944104" lon="11.54064538253736"><ele>354.6</ele><time>2026-05-03T08:15:02.96Z</time></trkpt><trkpt lat="44.26206806376964" lon="11.54076872758258"><ele>354.2</ele><time>2026-05-03T08:15:03.959Z</time></trkpt><trkpt lat="44.26205457800203" lon="11.540904740498846"><ele>353.79999999999995</ele><time>2026-05-03T08:15:04.958Z</time></trkpt><trkpt lat="44.26204597067814" lon="11.541042443302134"><ele>353.4</ele><time>2026-05-03T08:15:05.958Z</time></trkpt><trkpt lat="44.26206159836258" lon="11.541175965658807"><ele>353.0</ele><time>2026-05-03T08:15:06.958Z</time></trkpt><trkpt lat="44.262100100365714" lon="11.541302848335032"><ele>354.79999999999995</ele><time>2026-05-03T08:15:07.959Z</time></trkpt><trkpt lat="44.262151862252274" lon="11.541428017730665"><ele>356.6</ele><time>2026-05-03T08:15:08.959Z</time></trkpt><trkpt lat="44.26221314050824" lon="11.541531410798914"><ele>358.4</ele><time>2026-05-03T08:15:09.959Z</time></trkpt><trkpt lat="44.26229330964241" lon="11.541611736293158"><ele>360.20000000000005</ele><time>2026-05-03T08:15:10.958Z</time></trkpt><trkpt lat="44.26238031224392" lon="11.541661517002062"><ele>362.0</ele><time>2026-05-03T08:15:11.958Z</time></trkpt><trkpt lat="44.26246682500179" lon="11.541708400799406"><ele>362.0</ele><time>2026-05-03T08:15:12.959Z</time></trkpt><trkpt lat="44.26256516950977" lon="11.54176184582588"><ele>362.0</ele><time>2026-05-03T08:15:13.959Z</time></trkpt><trkpt lat="44.262665994569275" lon="11.541809232019345"><ele>362.0</ele><time>2026-05-03T08:15:14.959Z</time></trkpt><trkpt lat="44.26276836435271" lon="11.541850380930686"><ele>362.0</ele><time>2026-05-03T08:15:15.958Z</time></trkpt><trkpt lat="44.26286919277275" lon="11.541893828856209"><ele>362.0</ele><time>2026-05-03T08:15:16.959Z</time></trkpt><trkpt lat="44.26296853079471" lon="11.54193615872488"><ele>362.0</ele><time>2026-05-03T08:15:17.959Z</time></trkpt><trkpt lat="44.26307297118305" lon="11.541975784585903"><ele>362.0</ele><time>2026-05-03T08:15:18.959Z</time></trkpt><trkpt lat="44.26317510271665" lon="11.542014433505082"><ele>362.0</ele><time>2026-05-03T08:15:19.959Z</time></trkpt><trkpt lat="44.26327767290359" lon="11.542055676045994"><ele>362.0</ele><time>2026-05-03T08:15:20.959Z</time></trkpt><trkpt lat="44.263380193614005" lon="11.542100465524642"><ele>362.0</ele><time>2026-05-03T08:15:21.959Z</time></trkpt><trkpt lat="44.26348200617381" lon="11.542154117196363"><ele>358.40000000000003</ele><time>2026-05-03T08:15:22.959Z</time></trkpt><trkpt lat="44.26358455831156" lon="11.542199665154396"><ele>354.8</ele><time>2026-05-03T08:15:23.959Z</time></trkpt><trkpt lat="44.26368473300637" lon="11.542249816199815"><ele>351.2</ele><time>2026-05-03T08:15:24.959Z</time></trkpt><trkpt lat="44.26378426261723" lon="11.542308087520974"><ele>347.6</ele><time>2026-05-03T08:15:25.959Z</time></trkpt><trkpt lat="44.263876262307164" lon="11.54238912684114"><ele>344.0</ele><time>2026-05-03T08:15:26.959Z</time></trkpt><trkpt lat="44.2639734116728" lon="11.542454091213731"><ele>344.0</ele><time>2026-05-03T08:15:27.959Z</time></trkpt><trkpt lat="44.26405410916733" lon="11.542544880538248"><ele>344.0</ele><time>2026-05-03T08:15:28.959Z</time></trkpt><trkpt lat="44.26414087693158" lon="11.54262323436404"><ele>344.0</ele><time>2026-05-03T08:15:29.959Z</time></trkpt><trkpt lat="44.26421740403089" lon="11.542723409551904"><ele>344.0</ele><time>2026-05-03T08:15:30.959Z</time></trkpt><trkpt lat="44.264296154316234" lon="11.542814882901107"><ele>344.0</ele><time>2026-05-03T08:15:31.959Z</time></trkpt><trkpt lat="44.26436823238346" lon="11.542917935075678"><ele>339.79999999999995</ele><time>2026-05-03T08:15:32.959Z</time></trkpt><trkpt lat="44.2644348367766" lon="11.543023409701961"><ele>335.59999999999997</ele><time>2026-05-03T08:15:33.959Z</time></trkpt><trkpt lat="44.26450169037667" lon="11.543123660788995"><ele>331.4</ele><time>2026-05-03T08:15:34.959Z</time></trkpt><trkpt lat="44.26456935398442" lon="11.543219784334344"><ele>327.2</ele><time>2026-05-03T08:15:35.959Z</time></trkpt><trkpt lat="44.26463377913836" lon="11.543314765145569"><ele>323.0</ele><time>2026-05-03T08:15:36.959Z</time></trkpt><trkpt lat="44.26469705204981" lon="11.543411763852065"><ele>323.0</ele><time>2026-05-03T08:15:37.959Z</time></trkpt><trkpt lat="44.26475705141582" lon="11.543508939394775"><ele>323.0</ele><time>2026-05-03T08:15:38.959Z</time></trkpt><trkpt lat="44.264811106836156" lon="11.543613783927128"><ele>323.0</ele><time>2026-05-03T08:15:39.959Z</time></trkpt><trkpt lat="44.264845460303576" lon="11.54372589221744"><ele>323.0</ele><time>2026-05-03T08:15:40.959Z</time></trkpt><trkpt lat="44.26484269875642" lon="11.543848558437151"><ele>323.0</ele><time>2026-05-03T08:15:41.959Z</time></trkpt><trkpt lat="44.26480375919491" lon="11.543950021740862"><ele>323.0</ele><time>2026-05-03T08:15:42.959Z</time></trkpt><trkpt lat="44.26472447544577" lon="11.544026571545741"><ele>323.0</ele><time>2026-05-03T08:15:43.959Z</time></trkpt><trkpt lat="44.26463405305588" lon="11.544005392132098"><ele>323.0</ele><time>2026-05-03T08:15:44.959Z</time></trkpt><trkpt lat="44.26455377772605" lon="11.543917589825435"><ele>323.0</ele><time>2026-05-03T08:15:45.959Z</time></trkpt><trkpt lat="44.264507986749706" lon="11.543774131516205"><ele>323.0</ele><time>2026-05-03T08:15:46.959Z</time></trkpt><trkpt lat="44.26448345914572" lon="11.543618568074297"><ele>323.0</ele><time>2026-05-03T08:15:47.959Z</time></trkpt><trkpt lat="44.26444984832022" lon="11.543501434582318"><ele>323.0</ele><time>2026-05-03T08:15:48.959Z</time></trkpt><trkpt lat="44.26439761097732" lon="11.543411139237074"><ele>323.0</ele><time>2026-05-03T08:15:49.959Z</time></trkpt><trkpt lat="44.264317617684554" lon="11.543337300495384"><ele>323.0</ele><time>2026-05-03T08:15:50.959Z</time></trkpt><trkpt lat="44.26422694034881" lon="11.543284277573694"><ele>323.0</ele><time>2026-05-03T08:15:51.959Z</time></trkpt><trkpt lat="44.26412363643392" lon="11.543244748773912"><ele>323.0</ele><time>2026-05-03T08:15:52.959Z</time></trkpt><trkpt lat="44.26401944695449" lon="11.543233464011573"><ele>321.2</ele><time>2026-05-03T08:15:53.959Z</time></trkpt><trkpt lat="44.26391486792953" lon="11.543238008115406"><ele>319.4</ele><time>2026-05-03T08:15:54.959Z</time></trkpt><trkpt lat="44.26381235425658" lon="11.543247704290042"><ele>317.59999999999997</ele><time>2026-05-03T08:15:55.959Z</time></trkpt><trkpt lat="44.2637129404505" lon="11.543251728457381"><ele>315.79999999999995</ele><time>2026-05-03T08:15:56.959Z</time></trkpt><trkpt lat="44.26361633623929" lon="11.543254796503886"><ele>314.0</ele><time>2026-05-03T08:15:57.959Z</time></trkpt><trkpt lat="44.26352400319403" lon="11.543249988480833"><ele>314.0</ele><time>2026-05-03T08:15:58.959Z</time></trkpt><trkpt lat="44.2634346010272" lon="11.543249091090145"><ele>314.0</ele><time>2026-05-03T08:15:59.959Z</time></trkpt><trkpt lat="44.26335149789511" lon="11.543272404478195"><ele>314.0</ele><time>2026-05-03T08:16:00.959Z</time></trkpt><trkpt lat="44.26327815897782" lon="11.543337654491715"><ele>314.0</ele><time>2026-05-03T08:16:01.959Z</time></trkpt><trkpt lat="44.26323824253814" lon="11.543443794355936"><ele>314.0</ele><time>2026-05-03T08:16:02.959Z</time></trkpt><trkpt lat="44.263248086626874" lon="11.543578229852603"><ele>314.0</ele><time>2026-05-03T08:16:03.959Z</time></trkpt><trkpt lat="44.263300486655965" lon="11.543695620077255"><ele>310.59999999999997</ele><time>2026-05-03T08:16:04.959Z</time></trkpt><trkpt lat="44.26339264054684" lon="11.543764549742226"><ele>307.2</ele><time>2026-05-03T08:16:05.959Z</time></trkpt><trkpt lat="44.26350119869343" lon="11.543767039773822"><ele>303.79999999999995</ele><time>2026-05-03T08:16:06.959Z</time></trkpt><trkpt lat="44.263606177629974" lon="11.543723505799038"><ele>300.4</ele><time>2026-05-03T08:16:07.959Z</time></trkpt><trkpt lat="44.263707321562954" lon="11.543726095464297"><ele>297.0</ele><time>2026-05-03T08:16:08.959Z</time></trkpt><trkpt lat="44.26380156236879" lon="11.543720901350456"><ele>297.0</ele><time>2026-05-03T08:16:09.959Z</time></trkpt><trkpt lat="44.26389360385292" lon="11.543736751430718"><ele>297.0</ele><time>2026-05-03T08:16:10.959Z</time></trkpt><trkpt lat="44.26397640545595" lon="11.543796359105036"><ele>297.0</ele><time>2026-05-03T08:16:11.959Z</time></trkpt><trkpt lat="44.26405350450889" lon="11.543879069993567"><ele>297.0</ele><time>2026-05-03T08:16:12.959Z</time></trkpt><trkpt lat="44.26411780202332" lon="11.543984715513387"><ele>297.0</ele><time>2026-05-03T08:16:13.959Z</time></trkpt><trkpt lat="44.264145297217084" lon="11.544146207660482"><ele>298.4</ele><time>2026-05-03T08:16:14.959Z</time></trkpt><trkpt lat="44.2641563116111" lon="11.544277039485701"><ele>299.79999999999995</ele><time>2026-05-03T08:16:15.959Z</time></trkpt><trkpt lat="44.26413592488621" lon="11.544403046306375"><ele>301.2</ele><time>2026-05-03T08:16:16.959Z</time></trkpt><trkpt lat="44.26412648046589" lon="11.544537422779685"><ele>302.59999999999997</ele><time>2026-05-03T08:16:17.959Z</time></trkpt><trkpt lat="44.26409623324768" lon="11.544664962206978"><ele>304.0</ele><time>2026-05-03T08:16:18.959Z</time></trkpt><trkpt lat="44.26406636568321" lon="11.544802555240759"><ele>304.0</ele><time>2026-05-03T08:16:19.959Z</time></trkpt><trkpt lat="44.26403762635106" lon="11.544944578394938"><ele>304.0</ele><time>2026-05-03T08:16:20.959Z</time></trkpt><trkpt lat="44.264011150574234" lon="11.545082502531805"><ele>304.0</ele><time>2026-05-03T08:16:21.959Z</time></trkpt><trkpt lat="44.263970387931764" lon="11.545213454943344"><ele>304.0</ele><time>2026-05-03T08:16:22.959Z</time></trkpt><trkpt lat="44.26395751871539" lon="11.54535940910635"><ele>304.0</ele><time>2026-05-03T08:16:23.959Z</time></trkpt><trkpt lat="44.26393431407364" lon="11.545494724336343"><ele>302.8</ele><time>2026-05-03T08:16:24.959Z</time></trkpt><trkpt lat="44.26392091584738" lon="11.545638185999652"><ele>301.59999999999997</ele><time>2026-05-03T08:16:25.959Z</time></trkpt><trkpt lat="44.26391469980305" lon="11.54577631748581"><ele>300.4</ele><time>2026-05-03T08:16:26.959Z</time></trkpt><trkpt lat="44.2639309692892" lon="11.545911861087298"><ele>299.2</ele><time>2026-05-03T08:16:27.959Z</time></trkpt><trkpt lat="44.26394918065335" lon="11.546057959077336"><ele>298.0</ele><time>2026-05-03T08:16:28.959Z</time></trkpt><trkpt lat="44.26397205425334" lon="11.546200234282582"><ele>296.6</ele><time>2026-05-03T08:16:29.959Z</time></trkpt><trkpt lat="44.26400048883498" lon="11.546351675691925"><ele>295.20000000000005</ele><time>2026-05-03T08:16:30.959Z</time></trkpt><trkpt lat="44.264036803600504" lon="11.546503530155983"><ele>293.8</ele><time>2026-05-03T08:16:31.959Z</time></trkpt><trkpt lat="44.264066770300104" lon="11.54664988265857"><ele>292.40000000000003</ele><time>2026-05-03T08:16:32.959Z</time></trkpt><trkpt lat="44.26408990718332" lon="11.546799110431843"><ele>291.0</ele><time>2026-05-03T08:16:33.959Z</time></trkpt><trkpt lat="44.26411604868193" lon="11.5469486977061"><ele>290.6</ele><time>2026-05-03T08:16:34.959Z</time></trkpt><trkpt lat="44.26412920544915" lon="11.547098851082387"><ele>290.20000000000005</ele><time>2026-05-03T08:16:35.959Z</time></trkpt><trkpt lat="44.26413700501288" lon="11.547243700291123"><ele>289.79999999999995</ele><time>2026-05-03T08:16:36.959Z</time></trkpt><trkpt lat="44.26410680892541" lon="11.547383512279895"><ele>289.4</ele><time>2026-05-03T08:16:37.959Z</time></trkpt><trkpt lat="44.26406312155372" lon="11.547512452395189"><ele>289.0</ele><time>2026-05-03T08:16:38.959Z</time></trkpt><trkpt lat="44.264013176685594" lon="11.547645820723877"><ele>289.0</ele><time>2026-05-03T08:16:39.959Z</time></trkpt><trkpt lat="44.2639894364589" lon="11.5477793150322"><ele>289.0</ele><time>2026-05-03T08:16:40.959Z</time></trkpt><trkpt lat="44.263960631848484" lon="11.547910232104682"><ele>289.0</ele><time>2026-05-03T08:16:41.958Z</time></trkpt><trkpt lat="44.26396678465998" lon="11.548049249123096"><ele>289.0</ele><time>2026-05-03T08:16:42.958Z</time></trkpt><trkpt lat="44.26401796231527" lon="11.548178024409854"><ele>289.0</ele><time>2026-05-03T08:16:43.958Z</time></trkpt><trkpt lat="44.264100482554426" lon="11.548259760397263"><ele>286.8</ele><time>2026-05-03T08:16:44.958Z</time></trkpt><trkpt lat="44.264198452362024" lon="11.548305233882717"><ele>284.59999999999997</ele><time>2026-05-03T08:16:45.958Z</time></trkpt><trkpt lat="44.26429459771517" lon="11.54834386423089"><ele>282.4</ele><time>2026-05-03T08:16:46.958Z</time></trkpt><trkpt lat="44.264385173004996" lon="11.548384424128932"><ele>280.2</ele><time>2026-05-03T08:16:47.958Z</time></trkpt><trkpt lat="44.26446716936582" lon="11.548460378093301"><ele>278.0</ele><time>2026-05-03T08:16:48.958Z</time></trkpt><trkpt lat="44.264532435040415" lon="11.54855593987365"><ele>278.0</ele><time>2026-05-03T08:16:49.958Z</time></trkpt><trkpt lat="44.264543770434656" lon="11.548701919538127"><ele>278.0</ele><time>2026-05-03T08:16:50.958Z</time></trkpt><trkpt lat="44.264571393498244" lon="11.548835000649968"><ele>278.0</ele><time>2026-05-03T08:16:51.958Z</time></trkpt><trkpt lat="44.264616811632955" lon="11.548937075399461"><ele>278.0</ele><time>2026-05-03T08:16:52.958Z</time></trkpt><trkpt lat="44.26466497741296" lon="11.549045881321595"><ele>278.0</ele><time>2026-05-03T08:16:53.958Z</time></trkpt><trkpt lat="44.26475109430691" lon="11.549111159441413"><ele>276.6</ele><time>2026-05-03T08:16:54.958Z</time></trkpt><trkpt lat="44.26485057615349" lon="11.549127541993425"><ele>275.20000000000005</ele><time>2026-05-03T08:16:55.958Z</time></trkpt><trkpt lat="44.26495687197134" lon="11.54909296579534"><ele>273.8</ele><time>2026-05-03T08:16:56.958Z</time></trkpt><trkpt lat="44.26504036312624" lon="11.549007280171782"><ele>272.40000000000003</ele><time>2026-05-03T08:16:57.958Z</time></trkpt><trkpt lat="44.265103226838235" lon="11.548906262271464"><ele>271.0</ele><time>2026-05-03T08:16:58.958Z</time></trkpt><trkpt lat="44.2651522812048" lon="11.548784679960919"><ele>272.0</ele><time>2026-05-03T08:16:59.958Z</time></trkpt><trkpt lat="44.26519248529384" lon="11.548649211540777"><ele>273.0</ele><time>2026-05-03T08:17:00.958Z</time></trkpt><trkpt lat="44.26523225985484" lon="11.548517451036508"><ele>274.0</ele><time>2026-05-03T08:17:01.958Z</time></trkpt><trkpt lat="44.2652753670691" lon="11.548383270958329"><ele>275.0</ele><time>2026-05-03T08:17:02.958Z</time></trkpt><trkpt lat="44.26532306688957" lon="11.54824688126363"><ele>276.0</ele><time>2026-05-03T08:17:03.958Z</time></trkpt><trkpt lat="44.26536479266779" lon="11.548108202796525"><ele>276.0</ele><time>2026-05-03T08:17:04.958Z</time></trkpt><trkpt lat="44.2654029159813" lon="11.547965061811723"><ele>276.0</ele><time>2026-05-03T08:17:05.958Z</time></trkpt><trkpt lat="44.265439017812966" lon="11.547822802360415"><ele>276.0</ele><time>2026-05-03T08:17:06.958Z</time></trkpt><trkpt lat="44.2654841963863" lon="11.54767943548381"><ele>276.0</ele><time>2026-05-03T08:17:07.958Z</time></trkpt><trkpt lat="44.265529817629954" lon="11.547538969391107"><ele>276.0</ele><time>2026-05-03T08:17:08.958Z</time></trkpt><trkpt lat="44.26557441505754" lon="11.547399219860027"><ele>273.8</ele><time>2026-05-03T08:17:09.957Z</time></trkpt><trkpt lat="44.26561846911256" lon="11.5472553832394"><ele>271.6</ele><time>2026-05-03T08:17:10.958Z</time></trkpt><trkpt lat="44.26565846017705" lon="11.547111633687846"><ele>269.4</ele><time>2026-05-03T08:17:11.958Z</time></trkpt><trkpt lat="44.26569957048379" lon="11.54697567857348"><ele>267.2</ele><time>2026-05-03T08:17:12.957Z</time></trkpt><trkpt lat="44.26573730153546" lon="11.546838175227416"><ele>265.0</ele><time>2026-05-03T08:17:13.957Z</time></trkpt><trkpt lat="44.265777907699466" lon="11.546699679151006"><ele>265.0</ele><time>2026-05-03T08:17:14.957Z</time></trkpt><trkpt lat="44.26583219575603" lon="11.54657173735769"><ele>265.0</ele><time>2026-05-03T08:17:15.957Z</time></trkpt><trkpt lat="44.265910477674545" lon="11.546463717042032"><ele>265.0</ele><time>2026-05-03T08:17:16.957Z</time></trkpt><trkpt lat="44.266014634066046" lon="11.546411476783089"><ele>265.0</ele><time>2026-05-03T08:17:17.957Z</time></trkpt><trkpt lat="44.26611633144557" lon="11.546349291866346"><ele>265.0</ele><time>2026-05-03T08:17:18.957Z</time></trkpt><trkpt lat="44.26621711340249" lon="11.546373447305012"><ele>265.0</ele><time>2026-05-03T08:17:19.957Z</time></trkpt><trkpt lat="44.26631744862416" lon="11.546402832632248"><ele>265.0</ele><time>2026-05-03T08:17:20.957Z</time></trkpt><trkpt lat="44.26641528782414" lon="11.546453967341867"><ele>265.0</ele><time>2026-05-03T08:17:21.957Z</time></trkpt><trkpt lat="44.26651108665108" lon="11.546513078334318"><ele>265.0</ele><time>2026-05-03T08:17:22.957Z</time></trkpt><trkpt lat="44.26660723121348" lon="11.546566384534504"><ele>265.0</ele><time>2026-05-03T08:17:23.957Z</time></trkpt><trkpt lat="44.266702220972164" lon="11.546640346676087"><ele>263.6</ele><time>2026-05-03T08:17:24.957Z</time></trkpt><trkpt lat="44.26679734079507" lon="11.546704824188547"><ele>262.2</ele><time>2026-05-03T08:17:25.957Z</time></trkpt><trkpt lat="44.2668945977128" lon="11.546767661989628"><ele>260.8</ele><time>2026-05-03T08:17:26.957Z</time></trkpt><trkpt lat="44.26699442780476" lon="11.546832281193721"><ele>259.4</ele><time>2026-05-03T08:17:27.957Z</time></trkpt><trkpt lat="44.26708987323238" lon="11.546889895420215"><ele>258.0</ele><time>2026-05-03T08:17:28.957Z</time></trkpt><trkpt lat="44.267184634632166" lon="11.546968924746"><ele>256.0</ele><time>2026-05-03T08:17:29.957Z</time></trkpt><trkpt lat="44.26728796849388" lon="11.54701881595128"><ele>254.0</ele><time>2026-05-03T08:17:30.957Z</time></trkpt><trkpt lat="44.26740162685585" lon="11.547029319966754"><ele>252.0</ele><time>2026-05-03T08:17:31.957Z</time></trkpt><trkpt lat="44.267512674023216" lon="11.547015176304535"><ele>250.0</ele><time>2026-05-03T08:17:32.957Z</time></trkpt><trkpt lat="44.26761663618097" lon="11.54695186886614"><ele>248.0</ele><time>2026-05-03T08:17:33.957Z</time></trkpt><trkpt lat="44.26770760610328" lon="11.546868123778282"><ele>248.0</ele><time>2026-05-03T08:17:34.957Z</time></trkpt><trkpt lat="44.26779232610261" lon="11.546775735017023"><ele>248.0</ele><time>2026-05-03T08:17:35.957Z</time></trkpt><trkpt lat="44.267870637382906" lon="11.546680379639257"><ele>248.0</ele><time>2026-05-03T08:17:36.957Z</time></trkpt><trkpt lat="44.26794411707409" lon="11.5465798113123"><ele>248.0</ele><time>2026-05-03T08:17:37.957Z</time></trkpt><trkpt lat="44.268020546465145" lon="11.546487492275684"><ele>248.0</ele><time>2026-05-03T08:17:38.957Z</time></trkpt><trkpt lat="44.2680954922094" lon="11.546383065938238"><ele>246.60000000000002</ele><time>2026-05-03T08:17:39.957Z</time></trkpt><trkpt lat="44.26816843587927" lon="11.546270199707207"><ele>245.20000000000002</ele><time>2026-05-03T08:17:40.957Z</time></trkpt><trkpt lat="44.268237165656316" lon="11.54615489532239"><ele>243.8</ele><time>2026-05-03T08:17:41.957Z</time></trkpt><trkpt lat="44.268295404281794" lon="11.546031851585578"><ele>242.4</ele><time>2026-05-03T08:17:42.957Z</time></trkpt><trkpt lat="44.26835056118545" lon="11.545904264170597"><ele>241.0</ele><time>2026-05-03T08:17:43.957Z</time></trkpt><trkpt lat="44.26841703188843" lon="11.545789366677248"><ele>241.0</ele><time>2026-05-03T08:17:44.957Z</time></trkpt><trkpt lat="44.268494010582344" lon="11.545693072094805"><ele>241.00000000000003</ele><time>2026-05-03T08:17:45.957Z</time></trkpt><trkpt lat="44.26858959382959" lon="11.545633834520277"><ele>241.00000000000003</ele><time>2026-05-03T08:17:46.957Z</time></trkpt><trkpt lat="44.26869676120733" lon="11.545630353220346"><ele>241.0</ele><time>2026-05-03T08:17:47.957Z</time></trkpt><trkpt lat="44.26880071635368" lon="11.545636806550805"><ele>241.0</ele><time>2026-05-03T08:17:48.957Z</time></trkpt><trkpt lat="44.26889829845991" lon="11.545678200066906"><ele>238.60000000000002</ele><time>2026-05-03T08:17:49.957Z</time></trkpt><trkpt lat="44.2690002898046" lon="11.545707358315001"><ele>236.20000000000002</ele><time>2026-05-03T08:17:50.957Z</time></trkpt><trkpt lat="44.26909463554499" lon="11.545767050547495"><ele>233.79999999999998</ele><time>2026-05-03T08:17:51.957Z</time></trkpt><trkpt lat="44.269192864506394" lon="11.545821551215539"><ele>231.39999999999998</ele><time>2026-05-03T08:17:52.957Z</time></trkpt><trkpt lat="44.26929268426549" lon="11.545866844230698"><ele>229.0</ele><time>2026-05-03T08:17:53.957Z</time></trkpt><trkpt lat="44.26939458690963" lon="11.545880476889684"><ele>229.0</ele><time>2026-05-03T08:17:54.957Z</time></trkpt><trkpt lat="44.269494912929524" lon="11.545847160203797"><ele>228.99999999999997</ele><time>2026-05-03T08:17:55.957Z</time></trkpt><trkpt lat="44.26959063472083" lon="11.545792105546507"><ele>228.99999999999997</ele><time>2026-05-03T08:17:56.957Z</time></trkpt><trkpt lat="44.26967780328498" lon="11.54571368267247"><ele>229.0</ele><time>2026-05-03T08:17:57.956Z</time></trkpt><trkpt lat="44.26975249487695" lon="11.54563132645128"><ele>229.0</ele><time>2026-05-03T08:17:58.956Z</time></trkpt><trkpt lat="44.2698400595182" lon="11.54559749193083"><ele>227.2</ele><time>2026-05-03T08:17:59.956Z</time></trkpt><trkpt lat="44.26992671069997" lon="11.545595185853053"><ele>225.39999999999998</ele><time>2026-05-03T08:18:00.956Z</time></trkpt><trkpt lat="44.270014455063105" lon="11.545603570768378"><ele>223.6</ele><time>2026-05-03T08:18:01.956Z</time></trkpt><trkpt lat="44.27005199172816" lon="11.545747263758738"><ele>221.8</ele><time>2026-05-03T08:18:02.956Z</time></trkpt><trkpt lat="44.270048637449015" lon="11.545889541171483"><ele>220.0</ele><time>2026-05-03T08:18:03.956Z</time></trkpt><trkpt lat="44.26999907789667" lon="11.546030745392509"><ele>220.0</ele><time>2026-05-03T08:18:04.956Z</time></trkpt><trkpt lat="44.26990083485568" lon="11.546105761446507"><ele>220.0</ele><time>2026-05-03T08:18:05.956Z</time></trkpt><trkpt lat="44.26981014267415" lon="11.546170915153478"><ele>220.0</ele><time>2026-05-03T08:18:06.956Z</time></trkpt><trkpt lat="44.26972068205205" lon="11.546246358988851"><ele>220.0</ele><time>2026-05-03T08:18:07.956Z</time></trkpt><trkpt lat="44.2696497195796" lon="11.546353888399478"><ele>220.0</ele><time>2026-05-03T08:18:08.956Z</time></trkpt><trkpt lat="44.269586834283864" lon="11.546458490685128"><ele>220.0</ele><time>2026-05-03T08:18:09.956Z</time></trkpt><trkpt lat="44.26954548926583" lon="11.54658863002605"><ele>220.0</ele><time>2026-05-03T08:18:10.956Z</time></trkpt><trkpt lat="44.26952567750945" lon="11.546718495504672"><ele>220.0</ele><time>2026-05-03T08:18:11.956Z</time></trkpt><trkpt lat="44.269536799816" lon="11.54686179017946"><ele>220.0</ele><time>2026-05-03T08:18:12.956Z</time></trkpt><trkpt lat="44.269568872663406" lon="11.546998658114754"><ele>220.0</ele><time>2026-05-03T08:18:13.956Z</time></trkpt><trkpt lat="44.2696248033305" lon="11.54712657643312"><ele>220.0</ele><time>2026-05-03T08:18:14.956Z</time></trkpt><trkpt lat="44.26968096674827" lon="11.547240421112422"><ele>220.0</ele><time>2026-05-03T08:18:15.956Z</time></trkpt><trkpt lat="44.269717397821026" lon="11.54737327625926"><ele>220.0</ele><time>2026-05-03T08:18:16.956Z</time></trkpt><trkpt lat="44.26972400609252" lon="11.54750792197217"><ele>220.0</ele><time>2026-05-03T08:18:17.956Z</time></trkpt><trkpt lat="44.26972510203275" lon="11.547642269984646"><ele>220.0</ele><time>2026-05-03T08:18:18.956Z</time></trkpt><trkpt lat="44.26970876880464" lon="11.547780608615293"><ele>216.6</ele><time>2026-05-03T08:18:19.956Z</time></trkpt><trkpt lat="44.26969392437909" lon="11.547919776920631"><ele>213.2</ele><time>2026-05-03T08:18:20.956Z</time></trkpt><trkpt lat="44.26962026273524" lon="11.54802135764987"><ele>209.8</ele><time>2026-05-03T08:18:21.956Z</time></trkpt><trkpt lat="44.26955231254044" lon="11.548113873515828"><ele>206.4</ele><time>2026-05-03T08:18:22.956Z</time></trkpt><trkpt lat="44.26947953575257" lon="11.548200439983724"><ele>203.0</ele><time>2026-05-03T08:18:23.956Z</time></trkpt><trkpt lat="44.26940339803013" lon="11.54826640747918"><ele>203.0</ele><time>2026-05-03T08:18:24.956Z</time></trkpt><trkpt lat="44.269319755353884" lon="11.548332960248008"><ele>203.0</ele><time>2026-05-03T08:18:25.956Z</time></trkpt><trkpt lat="44.26922327380042" lon="11.54833096793865"><ele>203.0</ele><time>2026-05-03T08:18:26.956Z</time></trkpt><trkpt lat="44.269121320463356" lon="11.548359455387034"><ele>203.0</ele><time>2026-05-03T08:18:27.956Z</time></trkpt><trkpt lat="44.269018127384236" lon="11.5483659278396"><ele>203.0</ele><time>2026-05-03T08:18:28.956Z</time></trkpt><trkpt lat="44.26891817476064" lon="11.548372452068715"><ele>204.0</ele><time>2026-05-03T08:18:29.956Z</time></trkpt><trkpt lat="44.26881526229198" lon="11.548405489915357"><ele>205.0</ele><time>2026-05-03T08:18:30.956Z</time></trkpt><trkpt lat="44.2687108255624" lon="11.548447862285071"><ele>206.0</ele><time>2026-05-03T08:18:31.956Z</time></trkpt><trkpt lat="44.26861788904183" lon="11.548511266737687"><ele>207.0</ele><time>2026-05-03T08:18:32.956Z</time></trkpt><trkpt lat="44.268540318800646" lon="11.548594746972187"><ele>208.0</ele><time>2026-05-03T08:18:33.956Z</time></trkpt><trkpt lat="44.268465793193755" lon="11.548683208505034"><ele>205.60000000000002</ele><time>2026-05-03T08:18:34.956Z</time></trkpt><trkpt lat="44.2683950325032" lon="11.548792606419982"><ele>203.20000000000002</ele><time>2026-05-03T08:18:35.956Z</time></trkpt><trkpt lat="44.26834325449834" lon="11.548902713115226"><ele>200.8</ele><time>2026-05-03T08:18:36.956Z</time></trkpt><trkpt lat="44.26830536212525" lon="11.549028856725336"><ele>198.4</ele><time>2026-05-03T08:18:37.956Z</time></trkpt><trkpt lat="44.268281402836244" lon="11.549163247906696"><ele>196.0</ele><time>2026-05-03T08:18:38.956Z</time></trkpt><trkpt lat="44.2682693054751" lon="11.549304344050714"><ele>196.0</ele><time>2026-05-03T08:18:39.956Z</time></trkpt><trkpt lat="44.26826404398327" lon="11.549446432301721"><ele>196.0</ele><time>2026-05-03T08:18:40.956Z</time></trkpt><trkpt lat="44.268234341592" lon="11.549586826622582"><ele>196.0</ele><time>2026-05-03T08:18:41.956Z</time></trkpt><trkpt lat="44.26821722894382" lon="11.549746352954232"><ele>196.0</ele><time>2026-05-03T08:18:42.956Z</time></trkpt><trkpt lat="44.26819665752412" lon="11.54989509405441"><ele>196.0</ele><time>2026-05-03T08:18:43.956Z</time></trkpt><trkpt lat="44.26818253702021" lon="11.550043741517204"><ele>195.0</ele><time>2026-05-03T08:18:44.956Z</time></trkpt><trkpt lat="44.268163860810546" lon="11.550192839280605"><ele>194.0</ele><time>2026-05-03T08:18:45.956Z</time></trkpt><trkpt lat="44.268140116101485" lon="11.550341607261345"><ele>193.0</ele><time>2026-05-03T08:18:46.956Z</time></trkpt><trkpt lat="44.268123338309465" lon="11.5504913185098"><ele>192.0</ele><time>2026-05-03T08:18:47.956Z</time></trkpt><trkpt lat="44.26811335838348" lon="11.550644790220794"><ele>191.0</ele><time>2026-05-03T08:18:48.956Z</time></trkpt><trkpt lat="44.26810311188212" lon="11.550801350822068"><ele>193.60000000000002</ele><time>2026-05-03T08:18:49.956Z</time></trkpt><trkpt lat="44.26809626008811" lon="11.550952544273605"><ele>196.2</ele><time>2026-05-03T08:18:50.956Z</time></trkpt><trkpt lat="44.2680857654368" lon="11.55110765619238"><ele>198.8</ele><time>2026-05-03T08:18:51.956Z</time></trkpt><trkpt lat="44.26807892106296" lon="11.551268076324408"><ele>201.39999999999998</ele><time>2026-05-03T08:18:52.956Z</time></trkpt><trkpt lat="44.26807380951917" lon="11.551420369034847"><ele>204.0</ele><time>2026-05-03T08:18:53.956Z</time></trkpt><trkpt lat="44.26807631579729" lon="11.551572644119481"><ele>204.0</ele><time>2026-05-03T08:18:54.956Z</time></trkpt><trkpt lat="44.26810088271727" lon="11.551715857056374"><ele>204.0</ele><time>2026-05-03T08:18:55.956Z</time></trkpt><trkpt lat="44.26814530419356" lon="11.551847933569917"><ele>204.0</ele><time>2026-05-03T08:18:56.956Z</time></trkpt><trkpt lat="44.26819945651744" lon="11.551976299253937"><ele>204.0</ele><time>2026-05-03T08:18:57.956Z</time></trkpt><trkpt lat="44.268271931301065" lon="11.552087162060708"><ele>204.0</ele><time>2026-05-03T08:18:58.956Z</time></trkpt><trkpt lat="44.26835334430223" lon="11.552174407620296"><ele>199.6</ele><time>2026-05-03T08:18:59.956Z</time></trkpt><trkpt lat="44.268452634704616" lon="11.552243644059788"><ele>195.2</ele><time>2026-05-03T08:19:00.956Z</time></trkpt><trkpt lat="44.26855550569672" lon="11.55229089420674"><ele>190.79999999999998</ele><time>2026-05-03T08:19:01.956Z</time></trkpt><trkpt lat="44.26866162372307" lon="11.552315402369755"><ele>186.39999999999998</ele><time>2026-05-03T08:19:02.956Z</time></trkpt><trkpt lat="44.26876846001172" lon="11.552323093657952"><ele>182.0</ele><time>2026-05-03T08:19:03.956Z</time></trkpt><trkpt lat="44.26887293257058" lon="11.55232933116479"><ele>179.8</ele><time>2026-05-03T08:19:04.956Z</time></trkpt><trkpt lat="44.26897580172419" lon="11.552351969702267"><ele>177.6</ele><time>2026-05-03T08:19:05.956Z</time></trkpt><trkpt lat="44.2690677801538" lon="11.55239433290731"><ele>175.4</ele><time>2026-05-03T08:19:06.956Z</time></trkpt><trkpt lat="44.26915177343394" lon="11.552468010605098"><ele>173.20000000000002</ele><time>2026-05-03T08:19:07.956Z</time></trkpt><trkpt lat="44.269213282038535" lon="11.552577077161153"><ele>171.0</ele><time>2026-05-03T08:19:08.956Z</time></trkpt><trkpt lat="44.26925505157793" lon="11.552698757914687"><ele>171.0</ele><time>2026-05-03T08:19:09.956Z</time></trkpt><trkpt lat="44.269262598751965" lon="11.552838294877612"><ele>171.0</ele><time>2026-05-03T08:19:10.956Z</time></trkpt><trkpt lat="44.26924275842741" lon="11.552971560309206"><ele>171.0</ele><time>2026-05-03T08:19:11.956Z</time></trkpt><trkpt lat="44.26921570488606" lon="11.553101295429185"><ele>171.0</ele><time>2026-05-03T08:19:12.956Z</time></trkpt><trkpt lat="44.26916489904501" lon="11.553216699200485"><ele>171.0</ele><time>2026-05-03T08:19:13.956Z</time></trkpt><trkpt lat="44.26914503424672" lon="11.553337384147813"><ele>170.33333333333334</ele><time>2026-05-03T08:19:14.956Z</time></trkpt><trkpt lat="44.26909942441088" lon="11.553446355476337"><ele>169.66666666666666</ele><time>2026-05-03T08:19:15.956Z</time></trkpt><trkpt lat="44.2690614201341" lon="11.553559871710517"><ele>169.0</ele><time>2026-05-03T08:19:16.955Z</time></trkpt><trkpt lat="44.26901992698737" lon="11.553668359895497"><ele>168.33333333333331</ele><time>2026-05-03T08:19:17.955Z</time></trkpt><trkpt lat="44.26898157860151" lon="11.553772272429827"><ele>167.66666666666666</ele><time>2026-05-03T08:19:18.955Z</time></trkpt><trkpt lat="44.26894800432405" lon="11.553885110153043"><ele>167.0</ele><time>2026-05-03T08:19:19.955Z</time></trkpt><trkpt lat="44.26890235237157" lon="11.553997740321295"><ele>166.8</ele><time>2026-05-03T08:19:20.955Z</time></trkpt><trkpt lat="44.26883884423275" lon="11.554092305788009"><ele>166.6</ele><time>2026-05-03T08:19:21.956Z</time></trkpt><trkpt lat="44.26876148947382" lon="11.554167113113865"><ele>166.4</ele><time>2026-05-03T08:19:22.955Z</time></trkpt><trkpt lat="44.268676662809526" lon="11.55422125515858"><ele>166.20000000000002</ele><time>2026-05-03T08:19:23.955Z</time></trkpt><trkpt lat="44.268589665520885" lon="11.554258900516801"><ele>166.0</ele><time>2026-05-03T08:19:24.955Z</time></trkpt><trkpt lat="44.268506016790944" lon="11.554293702334641"><ele>166.0</ele><time>2026-05-03T08:19:25.956Z</time></trkpt><trkpt lat="44.26843106874373" lon="11.554351416425696"><ele>166.0</ele><time>2026-05-03T08:19:26.956Z</time></trkpt><trkpt lat="44.268364319478536" lon="11.554421702946174"><ele>166.0</ele><time>2026-05-03T08:19:27.956Z</time></trkpt><trkpt lat="44.26831269284477" lon="11.554518038678102"><ele>166.0</ele><time>2026-05-03T08:19:28.955Z</time></trkpt><trkpt lat="44.26826128770034" lon="11.554635001383822"><ele>166.0</ele><time>2026-05-03T08:19:29.955Z</time></trkpt><trkpt lat="44.2682400431179" lon="11.554777697110813"><ele>163.60000000000002</ele><time>2026-05-03T08:19:30.955Z</time></trkpt><trkpt lat="44.26826591715212" lon="11.554920488183763"><ele>161.20000000000002</ele><time>2026-05-03T08:19:31.955Z</time></trkpt><trkpt lat="44.2682963052271" lon="11.555045793906592"><ele>158.8</ele><time>2026-05-03T08:19:32.955Z</time></trkpt><trkpt lat="44.26834268004085" lon="11.555167343330254"><ele>156.4</ele><time>2026-05-03T08:19:33.955Z</time></trkpt><trkpt lat="44.268405615592705" lon="11.555276717499446"><ele>154.0</ele><time>2026-05-03T08:19:34.955Z</time></trkpt><trkpt lat="44.268470370806305" lon="11.555385416784302"><ele>153.6</ele><time>2026-05-03T08:19:35.955Z</time></trkpt><trkpt lat="44.26852926570747" lon="11.555499081078036"><ele>153.2</ele><time>2026-05-03T08:19:36.955Z</time></trkpt><trkpt lat="44.26857217402832" lon="11.555620012882386"><ele>152.79999999999998</ele><time>2026-05-03T08:19:37.955Z</time></trkpt><trkpt lat="44.26860195985427" lon="11.555748090067432"><ele>152.4</ele><time>2026-05-03T08:19:38.955Z</time></trkpt><trkpt lat="44.26861928981233" lon="11.55588650926938"><ele>152.0</ele><time>2026-05-03T08:19:39.955Z</time></trkpt><trkpt lat="44.26859560012665" lon="11.556026195200271"><ele>152.0</ele><time>2026-05-03T08:19:40.955Z</time></trkpt><trkpt lat="44.26859119433726" lon="11.556159184316776"><ele>152.0</ele><time>2026-05-03T08:19:41.955Z</time></trkpt><trkpt lat="44.268551765259936" lon="11.556283733156546"><ele>152.0</ele><time>2026-05-03T08:19:42.955Z</time></trkpt><trkpt lat="44.26850262565452" lon="11.55640991825152"><ele>152.0</ele><time>2026-05-03T08:19:43.955Z</time></trkpt><trkpt lat="44.26842750172626" lon="11.556510669026396"><ele>152.0</ele><time>2026-05-03T08:19:44.955Z</time></trkpt><trkpt lat="44.26835031218955" lon="11.556610123048282"><ele>150.33333333333331</ele><time>2026-05-03T08:19:45.955Z</time></trkpt><trkpt lat="44.268263093310836" lon="11.556673861484256"><ele>148.66666666666666</ele><time>2026-05-03T08:19:46.955Z</time></trkpt><trkpt lat="44.26817400602588" lon="11.55672269110778"><ele>147.0</ele><time>2026-05-03T08:19:47.955Z</time></trkpt><trkpt lat="44.26808522306971" lon="11.55674633844141"><ele>145.33333333333334</ele><time>2026-05-03T08:19:48.955Z</time></trkpt><trkpt lat="44.268008887379054" lon="11.556776051614845"><ele>143.66666666666669</ele><time>2026-05-03T08:19:49.955Z</time></trkpt><trkpt lat="44.267928011400876" lon="11.55675541892938"><ele>142.0</ele><time>2026-05-03T08:19:50.955Z</time></trkpt><trkpt lat="44.26784578039264" lon="11.556734142018005"><ele>141.16666666666669</ele><time>2026-05-03T08:19:51.955Z</time></trkpt><trkpt lat="44.267770511298934" lon="11.556700504056257"><ele>140.33333333333334</ele><time>2026-05-03T08:19:52.955Z</time></trkpt><trkpt lat="44.26769283985496" lon="11.556680969230069"><ele>139.5</ele><time>2026-05-03T08:19:53.955Z</time></trkpt><trkpt lat="44.267614128858504" lon="11.556649186239964"><ele>138.66666666666666</ele><time>2026-05-03T08:19:54.955Z</time></trkpt><trkpt lat="44.2675310295949" lon="11.556650684800637"><ele>137.83333333333331</ele><time>2026-05-03T08:19:55.955Z</time></trkpt><trkpt lat="44.26743826006236" lon="11.556632767698195"><ele>137.0</ele><time>2026-05-03T08:19:56.955Z</time></trkpt><trkpt lat="44.26734783030779" lon="11.556616759742452"><ele>135.79999999999998</ele><time>2026-05-03T08:19:57.955Z</time></trkpt><trkpt lat="44.26725461900167" lon="11.556600259381268"><ele>134.6</ele><time>2026-05-03T08:19:58.955Z</time></trkpt><trkpt lat="44.26716255447887" lon="11.556583962047192"><ele>133.39999999999998</ele><time>2026-05-03T08:19:59.955Z</time></trkpt><trkpt lat="44.26707007779861" lon="11.55656759174399"><ele>132.2</ele><time>2026-05-03T08:20:00.955Z</time></trkpt><trkpt lat="44.26697534124289" lon="11.556546899001992"><ele>131.0</ele><time>2026-05-03T08:20:01.955Z</time></trkpt><trkpt lat="44.26688075013906" lon="11.55652076044169"><ele>131.0</ele><time>2026-05-03T08:20:02.955Z</time></trkpt><trkpt lat="44.26678647050118" lon="11.55648383775209"><ele>131.0</ele><time>2026-05-03T08:20:03.955Z</time></trkpt><trkpt lat="44.2667005614045" lon="11.556418812540548"><ele>131.0</ele><time>2026-05-03T08:20:04.955Z</time></trkpt><trkpt lat="44.26660791663949" lon="11.556374897767176"><ele>131.0</ele><time>2026-05-03T08:20:05.955Z</time></trkpt><trkpt lat="44.26650742324097" lon="11.556337149424314"><ele>131.0</ele><time>2026-05-03T08:20:06.955Z</time></trkpt><trkpt lat="44.266418701425025" lon="11.55628227462287"><ele>130.8</ele><time>2026-05-03T08:20:07.955Z</time></trkpt><trkpt lat="44.26633264390674" lon="11.556220125436594"><ele>130.6</ele><time>2026-05-03T08:20:08.955Z</time></trkpt><trkpt lat="44.26624483885543" lon="11.55615675569"><ele>130.4</ele><time>2026-05-03T08:20:09.955Z</time></trkpt><trkpt lat="44.266156727981134" lon="11.556102026454855"><ele>130.2</ele><time>2026-05-03T08:20:10.955Z</time></trkpt><trkpt lat="44.26606794246098" lon="11.556039198011234"><ele>130.0</ele><time>2026-05-03T08:20:11.955Z</time></trkpt><trkpt lat="44.265980293492944" lon="11.555974876957825"><ele>130.6</ele><time>2026-05-03T08:20:12.955Z</time></trkpt><trkpt lat="44.265892938628696" lon="11.555911006575482"><ele>131.2</ele><time>2026-05-03T08:20:13.955Z</time></trkpt><trkpt lat="44.2658056972398" lon="11.555844877436568"><ele>131.8</ele><time>2026-05-03T08:20:14.955Z</time></trkpt><trkpt lat="44.26572226464688" lon="11.555784065667002"><ele>132.4</ele><time>2026-05-03T08:20:15.955Z</time></trkpt><trkpt lat="44.265633347407785" lon="11.555735579496009"><ele>133.0</ele><time>2026-05-03T08:20:16.955Z</time></trkpt><trkpt lat="44.26554123293864" lon="11.555710785604312"><ele>131.16666666666669</ele><time>2026-05-03T08:20:17.955Z</time></trkpt><trkpt lat="44.26545264937965" lon="11.555704026703308"><ele>129.33333333333334</ele><time>2026-05-03T08:20:18.955Z</time></trkpt><trkpt lat="44.26535131626136" lon="11.555730279837885"><ele>127.5</ele><time>2026-05-03T08:20:19.955Z</time></trkpt><trkpt lat="44.26526689144221" lon="11.555752652995364"><ele>125.66666666666666</ele><time>2026-05-03T08:20:20.955Z</time></trkpt><trkpt lat="44.26520453037877" lon="11.555768261356516"><ele>123.83333333333333</ele><time>2026-05-03T08:20:21.955Z</time></trkpt><trkpt lat="44.26513681853509" lon="11.55581210167249"><ele>122.0</ele><time>2026-05-03T08:20:22.955Z</time></trkpt><trkpt lat="44.26511452171743" lon="11.55569076634368"><ele>122.0</ele><time>2026-05-03T08:20:25.955Z</time></trkpt><trkpt lat="44.265175423468996" lon="11.55558724252221"><ele>122.0</ele><time>2026-05-03T08:20:26.955Z</time></trkpt><trkpt lat="44.26526057530695" lon="11.555440429513421"><ele>122.0</ele><time>2026-05-03T08:20:27.955Z</time></trkpt><trkpt lat="44.26463872018529" lon="11.556083925374946"><ele>121.57142857142856</ele><time>2026-05-03T08:20:28.955Z</time></trkpt><trkpt lat="44.26456741343769" lon="11.556118330572273"><ele>121.14285714285714</ele><time>2026-05-03T08:20:29.955Z</time></trkpt><trkpt lat="44.26449721347672" lon="11.556153689101233"><ele>120.71428571428571</ele><time>2026-05-03T08:20:30.955Z</time></trkpt><trkpt lat="44.26443302406871" lon="11.556187779844949"><ele>120.28571428571428</ele><time>2026-05-03T08:20:31.955Z</time></trkpt><trkpt lat="44.264364582628914" lon="11.556225028606976"><ele>119.85714285714286</ele><time>2026-05-03T08:20:32.955Z</time></trkpt><trkpt lat="44.26428937517737" lon="11.556265532346815"><ele>119.42857142857143</ele><time>2026-05-03T08:20:33.955Z</time></trkpt><trkpt lat="44.264218912408566" lon="11.556302942138009"><ele>119.0</ele><time>2026-05-03T08:20:34.955Z</time></trkpt><trkpt lat="44.264148603290046" lon="11.556337956031928"><ele>118.99999999999999</ele><time>2026-05-03T08:20:35.955Z</time></trkpt><trkpt lat="44.2640735745929" lon="11.556380667888844"><ele>119.0</ele><time>2026-05-03T08:20:36.955Z</time></trkpt><trkpt lat="44.26399493595568" lon="11.556419731394945"><ele>119.0</ele><time>2026-05-03T08:20:37.955Z</time></trkpt><trkpt lat="44.263917145471304" lon="11.556464866333526"><ele>119.0</ele><time>2026-05-03T08:20:38.955Z</time></trkpt><trkpt lat="44.26384195001111" lon="11.556513162491104"><ele>118.99999999999999</ele><time>2026-05-03T08:20:39.955Z</time></trkpt><trkpt lat="44.26375921747708" lon="11.556558838499658"><ele>119.0</ele><time>2026-05-03T08:20:40.955Z</time></trkpt><trkpt lat="44.26367262095461" lon="11.556601639047258"><ele>119.33333333333333</ele><time>2026-05-03T08:20:41.955Z</time></trkpt><trkpt lat="44.26358922797512" lon="11.556641223488345"><ele>119.66666666666666</ele><time>2026-05-03T08:20:42.955Z</time></trkpt><trkpt lat="44.2635060727987" lon="11.556684078617735"><ele>120.0</ele><time>2026-05-03T08:20:43.955Z</time></trkpt><trkpt lat="44.26342831841174" lon="11.556729780679525"><ele>120.33333333333334</ele><time>2026-05-03T08:20:44.955Z</time></trkpt><trkpt lat="44.26335366222026" lon="11.55677006243071"><ele>120.66666666666667</ele><time>2026-05-03T08:20:45.955Z</time></trkpt><trkpt lat="44.26328145056981" lon="11.556805407288095"><ele>121.0</ele><time>2026-05-03T08:20:46.955Z</time></trkpt><trkpt lat="44.263218635753624" lon="11.556837435285793"><ele>121.0</ele><time>2026-05-03T08:20:47.955Z</time></trkpt><trkpt lat="44.26310360765557" lon="11.556870701506528"><ele>137.0</ele><time>2026-05-03T08:20:49.955Z</time></trkpt><trkpt lat="44.26303532647201" lon="11.556887369276817"><ele>137.0</ele><time>2026-05-03T08:20:51.955Z</time></trkpt><trkpt lat="44.26299800175118" lon="11.55677545514025"><ele>137.0</ele><time>2026-05-03T08:21:20.955Z</time></trkpt></trkseg><trkseg><trkpt lat="44.262965888758686" lon="11.556670065930966"><ele>137.0</ele><time>2026-05-03T09:12:22.999Z</time></trkpt><trkpt lat="44.26292017250147" lon="11.556583268298603"><ele>137.0</ele><time>2026-05-03T09:12:26Z</time></trkpt><trkpt lat="44.26290218818981" lon="11.55645924882959"><ele>137.0</ele><time>2026-05-03T09:12:31Z</time></trkpt><trkpt lat="44.262884064632296" lon="11.55629593348121"><ele>137.0</ele><time>2026-05-03T09:12:33Z</time></trkpt><trkpt lat="44.26288008478488" lon="11.55618795941195"><ele>137.0</ele><time>2026-05-03T09:12:34Z</time></trkpt><trkpt lat="44.262873447794206" lon="11.556063261658558"><ele>136.16666666666666</ele><time>2026-05-03T09:12:35Z</time></trkpt><trkpt lat="44.26287305528345" lon="11.5559427655223"><ele>135.33333333333331</ele><time>2026-05-03T09:12:36Z</time></trkpt><trkpt lat="44.26286658555207" lon="11.555823234405969"><ele>134.5</ele><time>2026-05-03T09:12:37Z</time></trkpt><trkpt lat="44.262863294236084" lon="11.55570117891648"><ele>133.66666666666666</ele><time>2026-05-03T09:12:38Z</time></trkpt><trkpt lat="44.26286719742012" lon="11.555571704849347"><ele>132.83333333333334</ele><time>2026-05-03T09:12:39Z</time></trkpt><trkpt lat="44.26286255956084" lon="11.555439903539988"><ele>132.0</ele><time>2026-05-03T09:12:40Z</time></trkpt><trkpt lat="44.26285097635288" lon="11.55531677586447"><ele>132.0</ele><time>2026-05-03T09:12:41Z</time></trkpt><trkpt lat="44.26284611274729" lon="11.55518907069375"><ele>132.0</ele><time>2026-05-03T09:12:42Z</time></trkpt><trkpt lat="44.26284696105537" lon="11.555060922031293"><ele>132.0</ele><time>2026-05-03T09:12:43Z</time></trkpt><trkpt lat="44.262836469175156" lon="11.554933356591095"><ele>132.0</ele><time>2026-05-03T09:12:44Z</time></trkpt><trkpt lat="44.262834856879536" lon="11.55481733749968"><ele>132.0</ele><time>2026-05-03T09:12:45Z</time></trkpt><trkpt lat="44.26284056518468" lon="11.554684800007939"><ele>132.0</ele><time>2026-05-03T09:12:46Z</time></trkpt><trkpt lat="44.262840885824346" lon="11.554561537123142"><ele>132.0</ele><time>2026-05-03T09:12:47Z</time></trkpt><trkpt lat="44.26283527153646" lon="11.554434691887895"><ele>132.0</ele><time>2026-05-03T09:12:48Z</time></trkpt><trkpt lat="44.2628261705901" lon="11.554307395353502"><ele>132.0</ele><time>2026-05-03T09:12:49Z</time></trkpt><trkpt lat="44.262802393081" lon="11.55418608395824"><ele>132.0</ele><time>2026-05-03T09:12:50Z</time></trkpt><trkpt lat="44.262766594474364" lon="11.554076889441573"><ele>132.0</ele><time>2026-05-03T09:12:51Z</time></trkpt><trkpt lat="44.26271654913419" lon="11.553986188613171"><ele>132.2</ele><time>2026-05-03T09:12:52Z</time></trkpt><trkpt lat="44.26264338288061" lon="11.553921962696483"><ele>132.39999999999998</ele><time>2026-05-03T09:12:53Z</time></trkpt><trkpt lat="44.26254327958353" lon="11.553871855976624"><ele>132.60000000000002</ele><time>2026-05-03T09:12:54Z</time></trkpt><trkpt lat="44.262448195887224" lon="11.55384962365995"><ele>132.8</ele><time>2026-05-03T09:12:55Z</time></trkpt><trkpt lat="44.26234877087022" lon="11.553861542437875"><ele>133.0</ele><time>2026-05-03T09:12:56Z</time></trkpt><trkpt lat="44.2622558258914" lon="11.553899277283751"><ele>134.4</ele><time>2026-05-03T09:12:57Z</time></trkpt><trkpt lat="44.26216894697295" lon="11.553963298025831"><ele>135.8</ele><time>2026-05-03T09:12:58Z</time></trkpt><trkpt lat="44.26207520209221" lon="11.554014933176711"><ele>137.2</ele><time>2026-05-03T09:12:59Z</time></trkpt><trkpt lat="44.26198624143223" lon="11.554064903561704"><ele>138.6</ele><time>2026-05-03T09:13:00Z</time></trkpt><trkpt lat="44.261893324908556" lon="11.554118883355772"><ele>140.0</ele><time>2026-05-03T09:13:01Z</time></trkpt><trkpt lat="44.26180273658534" lon="11.554173525198383"><ele>140.0</ele><time>2026-05-03T09:13:02Z</time></trkpt><trkpt lat="44.261711713988134" lon="11.554227159297787"><ele>140.0</ele><time>2026-05-03T09:13:03Z</time></trkpt><trkpt lat="44.26162091434546" lon="11.554281952033607"><ele>140.0</ele><time>2026-05-03T09:13:04Z</time></trkpt><trkpt lat="44.26152734946317" lon="11.554337011259735"><ele>140.0</ele><time>2026-05-03T09:13:05Z</time></trkpt><trkpt lat="44.261438772193046" lon="11.554394154479702"><ele>140.0</ele><time>2026-05-03T09:13:06Z</time></trkpt><trkpt lat="44.26134692236987" lon="11.554439356561199"><ele>141.6</ele><time>2026-05-03T09:13:07Z</time></trkpt><trkpt lat="44.26125486194691" lon="11.554451948044099"><ele>143.2</ele><time>2026-05-03T09:13:08Z</time></trkpt><trkpt lat="44.26116443227177" lon="11.554435192802478"><ele>144.8</ele><time>2026-05-03T09:13:09Z</time></trkpt><trkpt lat="44.26108444384569" lon="11.554380989897808"><ele>146.4</ele><time>2026-05-03T09:13:10Z</time></trkpt><trkpt lat="44.26101329100252" lon="11.55430766978748"><ele>148.0</ele><time>2026-05-03T09:13:11Z</time></trkpt><trkpt lat="44.26093730574673" lon="11.554232111654022"><ele>148.0</ele><time>2026-05-03T09:13:12Z</time></trkpt><trkpt lat="44.26085354554037" lon="11.554175945436839"><ele>148.0</ele><time>2026-05-03T09:13:13Z</time></trkpt><trkpt lat="44.26077329894601" lon="11.554142088624417"><ele>148.0</ele><time>2026-05-03T09:13:14Z</time></trkpt><trkpt lat="44.26069655768867" lon="11.55411230347554"><ele>148.0</ele><time>2026-05-03T09:13:15Z</time></trkpt><trkpt lat="44.2605928305627" lon="11.554172665222774"><ele>148.0</ele><time>2026-05-03T09:13:17Z</time></trkpt><trkpt lat="44.2605389051388" lon="11.554240689410165"><ele>148.0</ele><time>2026-05-03T09:13:18Z</time></trkpt><trkpt lat="44.26048399482845" lon="11.554317126188849"><ele>149.20000000000002</ele><time>2026-05-03T09:13:19Z</time></trkpt><trkpt lat="44.260422974808236" lon="11.554404059088817"><ele>150.4</ele><time>2026-05-03T09:13:20Z</time></trkpt><trkpt lat="44.26035976170875" lon="11.55449943170577"><ele>151.60000000000002</ele><time>2026-05-03T09:13:21Z</time></trkpt><trkpt lat="44.260276135839185" lon="11.55457730683113"><ele>152.8</ele><time>2026-05-03T09:13:22Z</time></trkpt><trkpt lat="44.260201369178326" lon="11.554673636569952"><ele>154.0</ele><time>2026-05-03T09:13:23Z</time></trkpt><trkpt lat="44.26012603414757" lon="11.554767537227335"><ele>154.8</ele><time>2026-05-03T09:13:24Z</time></trkpt><trkpt lat="44.26004698069172" lon="11.554864719985067"><ele>155.60000000000002</ele><time>2026-05-03T09:13:25Z</time></trkpt><trkpt lat="44.25996624739643" lon="11.554963468303468"><ele>156.4</ele><time>2026-05-03T09:13:26Z</time></trkpt><trkpt lat="44.25988434014101" lon="11.55506033477522"><ele>157.20000000000002</ele><time>2026-05-03T09:13:27Z</time></trkpt><trkpt lat="44.259808918708195" lon="11.555147193797593"><ele>158.0</ele><time>2026-05-03T09:13:28Z</time></trkpt><trkpt lat="44.2597188685673" lon="11.555231553594771"><ele>159.4</ele><time>2026-05-03T09:13:29Z</time></trkpt><trkpt lat="44.25963563513381" lon="11.555310447382391"><ele>160.8</ele><time>2026-05-03T09:13:30Z</time></trkpt><trkpt lat="44.25955133762973" lon="11.555397118090799"><ele>162.2</ele><time>2026-05-03T09:13:31Z</time></trkpt><trkpt lat="44.25946288835542" lon="11.555482879466728"><ele>163.6</ele><time>2026-05-03T09:13:32Z</time></trkpt><trkpt lat="44.259377399010376" lon="11.555553604608331"><ele>165.0</ele><time>2026-05-03T09:13:33Z</time></trkpt><trkpt lat="44.259288917284906" lon="11.555637868603458"><ele>165.2</ele><time>2026-05-03T09:13:34Z</time></trkpt><trkpt lat="44.25920185567045" lon="11.555720913952099"><ele>165.4</ele><time>2026-05-03T09:13:35Z</time></trkpt><trkpt lat="44.259111505941874" lon="11.55580233836801"><ele>165.60000000000002</ele><time>2026-05-03T09:13:36Z</time></trkpt><trkpt lat="44.25902663571405" lon="11.555882174399532"><ele>165.8</ele><time>2026-05-03T09:13:37Z</time></trkpt><trkpt lat="44.258943367167" lon="11.555988901088108"><ele>166.0</ele><time>2026-05-03T09:13:38Z</time></trkpt><trkpt lat="44.258868980322084" lon="11.556090664759443"><ele>166.4</ele><time>2026-05-03T09:13:39Z</time></trkpt><trkpt lat="44.258799658293206" lon="11.556200178208298"><ele>166.8</ele><time>2026-05-03T09:13:40Z</time></trkpt><trkpt lat="44.258725719697566" lon="11.556310797264276"><ele>167.20000000000002</ele><time>2026-05-03T09:13:41Z</time></trkpt><trkpt lat="44.25866025523116" lon="11.5564174270405"><ele>167.60000000000002</ele><time>2026-05-03T09:13:42Z</time></trkpt><trkpt lat="44.25859942984799" lon="11.55652640339816"><ele>168.0</ele><time>2026-05-03T09:13:43Z</time></trkpt><trkpt lat="44.25853712019665" lon="11.55664341583638"><ele>168.0</ele><time>2026-05-03T09:13:44Z</time></trkpt><trkpt lat="44.25847582607565" lon="11.556758346366104"><ele>168.0</ele><time>2026-05-03T09:13:45Z</time></trkpt><trkpt lat="44.25841588437541" lon="11.556874126473193"><ele>168.0</ele><time>2026-05-03T09:13:46Z</time></trkpt><trkpt lat="44.25835717695184" lon="11.5569866720853"><ele>168.0</ele><time>2026-05-03T09:13:47Z</time></trkpt><trkpt lat="44.25829794916066" lon="11.557101373631372"><ele>168.0</ele><time>2026-05-03T09:13:48Z</time></trkpt><trkpt lat="44.258237623779934" lon="11.557208871424612"><ele>168.33333333333334</ele><time>2026-05-03T09:13:49Z</time></trkpt><trkpt lat="44.258177418914585" lon="11.557316376535633"><ele>168.66666666666666</ele><time>2026-05-03T09:13:50Z</time></trkpt><trkpt lat="44.25811209008279" lon="11.557408972250073"><ele>169.0</ele><time>2026-05-03T09:13:51Z</time></trkpt><trkpt lat="44.25805257667524" lon="11.557493331535433"><ele>169.33333333333331</ele><time>2026-05-03T09:13:51.999Z</time></trkpt><trkpt lat="44.25801459754378" lon="11.5575689755285"><ele>169.66666666666666</ele><time>2026-05-03T09:13:52.999Z</time></trkpt><trkpt lat="44.25795708592254" lon="11.55763631682333"><ele>170.0</ele><time>2026-05-03T09:13:54.999Z</time></trkpt><trkpt lat="44.25790490924509" lon="11.5577031779445"><ele>170.6</ele><time>2026-05-03T09:13:57.999Z</time></trkpt><trkpt lat="44.25796256160621" lon="11.557827795260074"><ele>171.2</ele><time>2026-05-03T09:13:59.999Z</time></trkpt><trkpt lat="44.258044294389585" lon="11.557940748939485"><ele>171.8</ele><time>2026-05-03T09:14:01.999Z</time></trkpt><trkpt lat="44.2580920333516" lon="11.55802394060898"><ele>172.4</ele><time>2026-05-03T09:14:02.999Z</time></trkpt><trkpt lat="44.25815140681075" lon="11.558112210050485"><ele>173.0</ele><time>2026-05-03T09:14:03.999Z</time></trkpt><trkpt lat="44.25822519746963" lon="11.558202174935971"><ele>173.4</ele><time>2026-05-03T09:14:04.999Z</time></trkpt><trkpt lat="44.258291012947986" lon="11.558298402465793"><ele>173.8</ele><time>2026-05-03T09:14:05.999Z</time></trkpt><trkpt lat="44.258354482557394" lon="11.558403163885774"><ele>174.2</ele><time>2026-05-03T09:14:06.999Z</time></trkpt><trkpt lat="44.2584184468991" lon="11.55851571280844"><ele>174.6</ele><time>2026-05-03T09:14:07.999Z</time></trkpt><trkpt lat="44.25847898562449" lon="11.558628362964441"><ele>175.0</ele><time>2026-05-03T09:14:08.999Z</time></trkpt><trkpt lat="44.258533410917586" lon="11.558753051892452"><ele>175.2</ele><time>2026-05-03T09:14:09.999Z</time></trkpt><trkpt lat="44.25857361121015" lon="11.558883867656455"><ele>175.4</ele><time>2026-05-03T09:14:10.999Z</time></trkpt><trkpt lat="44.25861080848315" lon="11.559019827444327"><ele>175.60000000000002</ele><time>2026-05-03T09:14:11.999Z</time></trkpt><trkpt lat="44.258616563141025" lon="11.55916350202334"><ele>175.8</ele><time>2026-05-03T09:14:12.999Z</time></trkpt><trkpt lat="44.258653311317545" lon="11.559294889699292"><ele>176.0</ele><time>2026-05-03T09:14:13.999Z</time></trkpt><trkpt lat="44.258685244331566" lon="11.559422597909691"><ele>174.60000000000002</ele><time>2026-05-03T09:14:14.999Z</time></trkpt><trkpt lat="44.258722628572734" lon="11.559558444229028"><ele>173.2</ele><time>2026-05-03T09:14:15.999Z</time></trkpt><trkpt lat="44.25876020621489" lon="11.55968973340445"><ele>171.8</ele><time>2026-05-03T09:14:16.999Z</time></trkpt><trkpt lat="44.25879420213703" lon="11.559825218572387"><ele>170.39999999999998</ele><time>2026-05-03T09:14:17.999Z</time></trkpt><trkpt lat="44.25882109699333" lon="11.559958090619665"><ele>169.0</ele><time>2026-05-03T09:14:18.999Z</time></trkpt><trkpt lat="44.25886700153136" lon="11.560087440020537"><ele>169.0</ele><time>2026-05-03T09:14:19.999Z</time></trkpt><trkpt lat="44.25889899060406" lon="11.560219230617705"><ele>169.0</ele><time>2026-05-03T09:14:20.999Z</time></trkpt><trkpt lat="44.258931200646394" lon="11.560352488596331"><ele>169.0</ele><time>2026-05-03T09:14:21.999Z</time></trkpt><trkpt lat="44.258971271545924" lon="11.560483861788807"><ele>169.0</ele><time>2026-05-03T09:14:23Z</time></trkpt><trkpt lat="44.25899985181819" lon="11.560603596453493"><ele>169.0</ele><time>2026-05-03T09:14:24Z</time></trkpt><trkpt lat="44.25902924397539" lon="11.560713026537549"><ele>169.16666666666669</ele><time>2026-05-03T09:14:25Z</time></trkpt><trkpt lat="44.25906203447774" lon="11.560820832638047"><ele>169.33333333333334</ele><time>2026-05-03T09:14:26Z</time></trkpt><trkpt lat="44.25908801288695" lon="11.560929327461361"><ele>169.5</ele><time>2026-05-03T09:14:27Z</time></trkpt><trkpt lat="44.259130316715506" lon="11.561024945443826"><ele>169.66666666666666</ele><time>2026-05-03T09:14:28Z</time></trkpt><trkpt lat="44.259171863278674" lon="11.561118556804162"><ele>169.83333333333331</ele><time>2026-05-03T09:14:29Z</time></trkpt><trkpt lat="44.25921144375125" lon="11.561231213727549"><ele>170.0</ele><time>2026-05-03T09:14:30Z</time></trkpt><trkpt lat="44.25925445378772" lon="11.561340147486005"><ele>170.6</ele><time>2026-05-03T09:14:31Z</time></trkpt><trkpt lat="44.25931047532121" lon="11.561442870682809"><ele>171.2</ele><time>2026-05-03T09:14:32Z</time></trkpt><trkpt lat="44.259384896047166" lon="11.561530507217118"><ele>171.8</ele><time>2026-05-03T09:14:33Z</time></trkpt><trkpt lat="44.259467567693015" lon="11.56161094359548"><ele>172.4</ele><time>2026-05-03T09:14:34Z</time></trkpt><trkpt lat="44.25955752140498" lon="11.56167325493399"><ele>173.0</ele><time>2026-05-03T09:14:35Z</time></trkpt><trkpt lat="44.25963804775051" lon="11.561753253390863"><ele>173.0</ele><time>2026-05-03T09:14:36Z</time></trkpt><trkpt lat="44.259730634446676" lon="11.561814472568923"><ele>173.0</ele><time>2026-05-03T09:14:37Z</time></trkpt><trkpt lat="44.259823022628034" lon="11.561845403629349"><ele>173.0</ele><time>2026-05-03T09:14:38Z</time></trkpt><trkpt lat="44.25991466520203" lon="11.56190413167281"><ele>173.0</ele><time>2026-05-03T09:14:39Z</time></trkpt><trkpt lat="44.26001861815571" lon="11.561946484694905"><ele>173.0</ele><time>2026-05-03T09:14:40Z</time></trkpt><trkpt lat="44.2601251009552" lon="11.56199860569279"><ele>172.66666666666666</ele><time>2026-05-03T09:14:41Z</time></trkpt><trkpt lat="44.26022970016892" lon="11.562047244232984"><ele>172.33333333333331</ele><time>2026-05-03T09:14:42Z</time></trkpt><trkpt lat="44.26031219807496" lon="11.562100441675366"><ele>172.0</ele><time>2026-05-03T09:14:43Z</time></trkpt><trkpt lat="44.260396113023255" lon="11.56213979910565"><ele>171.66666666666666</ele><time>2026-05-03T09:14:44Z</time></trkpt><trkpt lat="44.26047062678668" lon="11.562165788343856"><ele>171.33333333333334</ele><time>2026-05-03T09:14:45Z</time></trkpt><trkpt lat="44.26054662672572" lon="11.562206825809579"><ele>171.0</ele><time>2026-05-03T09:14:46Z</time></trkpt><trkpt lat="44.26062612634393" lon="11.562259299888357"><ele>171.0</ele><time>2026-05-03T09:14:47Z</time></trkpt><trkpt lat="44.26071054001185" lon="11.562314497302781"><ele>171.0</ele><time>2026-05-03T09:14:48Z</time></trkpt><trkpt lat="44.260796842396516" lon="11.56237474989045"><ele>171.0</ele><time>2026-05-03T09:14:49Z</time></trkpt><trkpt lat="44.26087752476703" lon="11.56243992271605"><ele>171.0</ele><time>2026-05-03T09:14:50Z</time></trkpt><trkpt lat="44.26096363667208" lon="11.56250770144205"><ele>171.0</ele><time>2026-05-03T09:14:51Z</time></trkpt><trkpt lat="44.26104376460613" lon="11.562585164315424"><ele>171.0</ele><time>2026-05-03T09:14:52.001Z</time></trkpt><trkpt lat="44.26112129032072" lon="11.56266661288975"><ele>171.0</ele><time>2026-05-03T09:14:53.001Z</time></trkpt><trkpt lat="44.26120045604109" lon="11.562757285495808"><ele>171.0</ele><time>2026-05-03T09:14:54.001Z</time></trkpt><trkpt lat="44.26127967866244" lon="11.56285566790891"><ele>171.0</ele><time>2026-05-03T09:14:55.001Z</time></trkpt><trkpt lat="44.261362697842365" lon="11.562948734016542"><ele>171.0</ele><time>2026-05-03T09:14:56.001Z</time></trkpt><trkpt lat="44.261442236224916" lon="11.563052144024892"><ele>170.0</ele><time>2026-05-03T09:14:57.001Z</time></trkpt><trkpt lat="44.26152399556074" lon="11.563155494679703"><ele>169.0</ele><time>2026-05-03T09:14:58.001Z</time></trkpt><trkpt lat="44.26160500990693" lon="11.563256236467637"><ele>168.0</ele><time>2026-05-03T09:14:59.001Z</time></trkpt><trkpt lat="44.261688184155034" lon="11.563364599142528"><ele>167.0</ele><time>2026-05-03T09:15:00.001Z</time></trkpt><trkpt lat="44.26177193344769" lon="11.56346996331973"><ele>166.0</ele><time>2026-05-03T09:15:01.001Z</time></trkpt><trkpt lat="44.261854564844214" lon="11.563583115211134"><ele>166.0</ele><time>2026-05-03T09:15:02.001Z</time></trkpt><trkpt lat="44.261939283282636" lon="11.563691348414961"><ele>166.0</ele><time>2026-05-03T09:15:03.001Z</time></trkpt><trkpt lat="44.26202019843899" lon="11.563802963074815"><ele>166.0</ele><time>2026-05-03T09:15:04.001Z</time></trkpt><trkpt lat="44.26210656211473" lon="11.563916234514176"><ele>166.0</ele><time>2026-05-03T09:15:05.001Z</time></trkpt><trkpt lat="44.26218902787824" lon="11.564027864236486"><ele>165.0</ele><time>2026-05-03T09:15:06.001Z</time></trkpt><trkpt lat="44.26227560203065" lon="11.56413854436824"><ele>164.0</ele><time>2026-05-03T09:15:07.001Z</time></trkpt><trkpt lat="44.26236168215672" lon="11.564246257073403"><ele>163.0</ele><time>2026-05-03T09:15:08.001Z</time></trkpt><trkpt lat="44.26244621851349" lon="11.564358221388392"><ele>162.0</ele><time>2026-05-03T09:15:09.001Z</time></trkpt><trkpt lat="44.26253279149499" lon="11.564464828774213"><ele>163.0</ele><time>2026-05-03T09:15:10.001Z</time></trkpt><trkpt lat="44.262621245499844" lon="11.56456988036676"><ele>164.0</ele><time>2026-05-03T09:15:11.001Z</time></trkpt><trkpt lat="44.26270599050336" lon="11.564676162645187"><ele>165.0</ele><time>2026-05-03T09:15:12.001Z</time></trkpt><trkpt lat="44.26279217283239" lon="11.564783071413583"><ele>166.0</ele><time>2026-05-03T09:15:13.001Z</time></trkpt><trkpt lat="44.26287558583058" lon="11.56489260579159"><ele>166.0</ele><time>2026-05-03T09:15:14.001Z</time></trkpt><trkpt lat="44.26296099326511" lon="11.565002358162552"><ele>166.0</ele><time>2026-05-03T09:15:15.001Z</time></trkpt><trkpt lat="44.26304707187994" lon="11.565111975224609"><ele>166.0</ele><time>2026-05-03T09:15:16.001Z</time></trkpt><trkpt lat="44.26313312221338" lon="11.565222573750583"><ele>166.0</ele><time>2026-05-03T09:15:17.001Z</time></trkpt><trkpt lat="44.263218193430994" lon="11.565334106411118"><ele>165.0</ele><time>2026-05-03T09:15:18.001Z</time></trkpt><trkpt lat="44.2633040826445" lon="11.565441913341608"><ele>164.0</ele><time>2026-05-03T09:15:19.001Z</time></trkpt><trkpt lat="44.263389517453234" lon="11.565550074127898"><ele>163.0</ele><time>2026-05-03T09:15:20.001Z</time></trkpt><trkpt lat="44.263477724086634" lon="11.565659480628373"><ele>162.0</ele><time>2026-05-03T09:15:21.001Z</time></trkpt><trkpt lat="44.26356221304422" lon="11.565770530469637"><ele>162.0</ele><time>2026-05-03T09:15:22.001Z</time></trkpt><trkpt lat="44.2636483475908" lon="11.565882711204612"><ele>162.0</ele><time>2026-05-03T09:15:23.001Z</time></trkpt><trkpt lat="44.2637297706985" lon="11.56600254165019"><ele>162.0</ele><time>2026-05-03T09:15:24.001Z</time></trkpt><trkpt lat="44.26380756267081" lon="11.566132030041043"><ele>162.0</ele><time>2026-05-03T09:15:25.001Z</time></trkpt><trkpt lat="44.263873637590386" lon="11.56627335167528"><ele>163.0</ele><time>2026-05-03T09:15:26.001Z</time></trkpt><trkpt lat="44.26393212908968" lon="11.566413732854413"><ele>164.0</ele><time>2026-05-03T09:15:27.001Z</time></trkpt><trkpt lat="44.2639891838173" lon="11.566554180545756"><ele>165.0</ele><time>2026-05-03T09:15:28.001Z</time></trkpt><trkpt lat="44.264042620610084" lon="11.566699296134557"><ele>166.0</ele><time>2026-05-03T09:15:29.001Z</time></trkpt><trkpt lat="44.26409430741036" lon="11.566848095781571"><ele>164.25</ele><time>2026-05-03T09:15:30.001Z</time></trkpt><trkpt lat="44.26414183863997" lon="11.566995591490038"><ele>162.5</ele><time>2026-05-03T09:15:31.001Z</time></trkpt><trkpt lat="44.264189664993836" lon="11.567146935081327"><ele>160.75</ele><time>2026-05-03T09:15:32.001Z</time></trkpt><trkpt lat="44.26423827226638" lon="11.567295733800865"><ele>159.0</ele><time>2026-05-03T09:15:33.001Z</time></trkpt><trkpt lat="44.26428615212347" lon="11.567445257892444"><ele>159.0</ele><time>2026-05-03T09:15:34.001Z</time></trkpt><trkpt lat="44.2643371829931" lon="11.56759490532388"><ele>159.0</ele><time>2026-05-03T09:15:35.001Z</time></trkpt><trkpt lat="44.26439294193685" lon="11.567741661804112"><ele>159.0</ele><time>2026-05-03T09:15:36.001Z</time></trkpt><trkpt lat="44.26445189393917" lon="11.567887044436931"><ele>159.0</ele><time>2026-05-03T09:15:37.001Z</time></trkpt><trkpt lat="44.264488477411206" lon="11.568051263481916"><ele>159.25</ele><time>2026-05-03T09:15:38.001Z</time></trkpt><trkpt lat="44.264543417179" lon="11.568192005817728"><ele>159.5</ele><time>2026-05-03T09:15:39.001Z</time></trkpt><trkpt lat="44.26459202699074" lon="11.568338397822592"><ele>159.75</ele><time>2026-05-03T09:15:40.001Z</time></trkpt><trkpt lat="44.264635494581455" lon="11.568487167033483"><ele>160.0</ele><time>2026-05-03T09:15:41.001Z</time></trkpt><trkpt lat="44.264685221088484" lon="11.56863165821078"><ele>159.0</ele><time>2026-05-03T09:15:42.001Z</time></trkpt><trkpt lat="44.26473512196487" lon="11.568777969492045"><ele>158.0</ele><time>2026-05-03T09:15:43.001Z</time></trkpt><trkpt lat="44.26478621840925" lon="11.568919454911686"><ele>157.0</ele><time>2026-05-03T09:15:44.001Z</time></trkpt><trkpt lat="44.26483439015097" lon="11.569063546527433"><ele>156.0</ele><time>2026-05-03T09:15:45.001Z</time></trkpt><trkpt lat="44.264880522755355" lon="11.569207033069164"><ele>156.0</ele><time>2026-05-03T09:15:46.001Z</time></trkpt><trkpt lat="44.26492837525177" lon="11.569344502861274"><ele>156.0</ele><time>2026-05-03T09:15:47.001Z</time></trkpt><trkpt lat="44.264984586652496" lon="11.569478895020582"><ele>156.0</ele><time>2026-05-03T09:15:48.001Z</time></trkpt><trkpt lat="44.26504205681108" lon="11.569608103386607"><ele>156.0</ele><time>2026-05-03T09:15:49.001Z</time></trkpt><trkpt lat="44.26510901653943" lon="11.569735536367139"><ele>156.0</ele><time>2026-05-03T09:15:50.001Z</time></trkpt><trkpt lat="44.2651829866969" lon="11.569857377742593"><ele>157.0</ele><time>2026-05-03T09:15:51.001Z</time></trkpt><trkpt lat="44.26525734203372" lon="11.569984041400039"><ele>158.0</ele><time>2026-05-03T09:15:52.001Z</time></trkpt><trkpt lat="44.265337781689816" lon="11.570097769473888"><ele>159.0</ele><time>2026-05-03T09:15:53.001Z</time></trkpt><trkpt lat="44.26542707980391" lon="11.570209128923505"><ele>160.0</ele><time>2026-05-03T09:15:54.001Z</time></trkpt><trkpt lat="44.26552450172114" lon="11.570312578249839"><ele>159.5</ele><time>2026-05-03T09:15:55.001Z</time></trkpt><trkpt lat="44.26561183490724" lon="11.570429634382227"><ele>159.0</ele><time>2026-05-03T09:15:56.001Z</time></trkpt><trkpt lat="44.265702332457344" lon="11.5705325536959"><ele>158.5</ele><time>2026-05-03T09:15:57.001Z</time></trkpt><trkpt lat="44.26578969103479" lon="11.57064538484252"><ele>158.0</ele><time>2026-05-03T09:15:58Z</time></trkpt><trkpt lat="44.26587948799175" lon="11.570756079978842"><ele>158.0</ele><time>2026-05-03T09:15:59Z</time></trkpt><trkpt lat="44.26597497837198" lon="11.570864401919943"><ele>158.0</ele><time>2026-05-03T09:16:00Z</time></trkpt><trkpt lat="44.26606751944871" lon="11.570977255258875"><ele>158.0</ele><time>2026-05-03T09:16:01Z</time></trkpt><trkpt lat="44.2661611867282" lon="11.57108605843736"><ele>158.0</ele><time>2026-05-03T09:16:02Z</time></trkpt><trkpt lat="44.2662544096445" lon="11.571196889197445"><ele>159.0</ele><time>2026-05-03T09:16:03Z</time></trkpt><trkpt lat="44.266348361754595" lon="11.571306809599845"><ele>160.0</ele><time>2026-05-03T09:16:04Z</time></trkpt><trkpt lat="44.266441289916955" lon="11.57142212717531"><ele>161.0</ele><time>2026-05-03T09:16:05Z</time></trkpt><trkpt lat="44.266530544296025" lon="11.571535206941876"><ele>162.0</ele><time>2026-05-03T09:16:06Z</time></trkpt><trkpt lat="44.266622494331656" lon="11.571644421817947"><ele>159.75</ele><time>2026-05-03T09:16:07Z</time></trkpt><trkpt lat="44.26671301148369" lon="11.571758035386734"><ele>157.5</ele><time>2026-05-03T09:16:08Z</time></trkpt><trkpt lat="44.26680560891917" lon="11.571866863150793"><ele>155.25</ele><time>2026-05-03T09:16:09Z</time></trkpt><trkpt lat="44.26689207193041" lon="11.571987339306377"><ele>153.0</ele><time>2026-05-03T09:16:10Z</time></trkpt><trkpt lat="44.26696982423536" lon="11.572120644204919"><ele>153.0</ele><time>2026-05-03T09:16:11Z</time></trkpt><trkpt lat="44.267036853499114" lon="11.572256082121276"><ele>153.0</ele><time>2026-05-03T09:16:12Z</time></trkpt><trkpt lat="44.267091340516046" lon="11.572395678411727"><ele>153.0</ele><time>2026-05-03T09:16:13Z</time></trkpt><trkpt lat="44.26714648377359" lon="11.572541909535795"><ele>153.0</ele><time>2026-05-03T09:16:14Z</time></trkpt><trkpt lat="44.2671942836855" lon="11.572695245368699"><ele>153.0</ele><time>2026-05-03T09:16:15Z</time></trkpt><trkpt lat="44.26723686248764" lon="11.572856630140258"><ele>153.0</ele><time>2026-05-03T09:16:16Z</time></trkpt><trkpt lat="44.2672876675001" lon="11.573021596023105"><ele>153.0</ele><time>2026-05-03T09:16:17Z</time></trkpt><trkpt lat="44.26733655946706" lon="11.573185394395574"><ele>153.0</ele><time>2026-05-03T09:16:18Z</time></trkpt><trkpt lat="44.26738469353333" lon="11.573358221063518"><ele>150.75</ele><time>2026-05-03T09:16:19Z</time></trkpt><trkpt lat="44.267426875395856" lon="11.573518970487454"><ele>148.5</ele><time>2026-05-03T09:16:20Z</time></trkpt><trkpt lat="44.26747300910734" lon="11.573689589557283"><ele>146.25</ele><time>2026-05-03T09:16:21Z</time></trkpt><trkpt lat="44.26752265235268" lon="11.5738574308847"><ele>144.0</ele><time>2026-05-03T09:16:22Z</time></trkpt><trkpt lat="44.267568959397146" lon="11.574024456744562"><ele>143.0</ele><time>2026-05-03T09:16:23Z</time></trkpt><trkpt lat="44.267615592987276" lon="11.57419432088769"><ele>142.0</ele><time>2026-05-03T09:16:24Z</time></trkpt><trkpt lat="44.26766073947353" lon="11.574365925240858"><ele>141.0</ele><time>2026-05-03T09:16:25Z</time></trkpt><trkpt lat="44.2677070177862" lon="11.574534875926894"><ele>140.0</ele><time>2026-05-03T09:16:26Z</time></trkpt><trkpt lat="44.26775363473892" lon="11.574700889768781"><ele>139.5</ele><time>2026-05-03T09:16:27Z</time></trkpt><trkpt lat="44.267802099408804" lon="11.574870330137175"><ele>139.0</ele><time>2026-05-03T09:16:28Z</time></trkpt><trkpt lat="44.267847833253406" lon="11.575039934906473"><ele>138.5</ele><time>2026-05-03T09:16:29Z</time></trkpt><trkpt lat="44.267894292377434" lon="11.575207561676475"><ele>138.0</ele><time>2026-05-03T09:16:30Z</time></trkpt><trkpt lat="44.2679426906453" lon="11.575372033777233"><ele>138.0</ele><time>2026-05-03T09:16:31Z</time></trkpt><trkpt lat="44.26798947129726" lon="11.575530554180252"><ele>138.0</ele><time>2026-05-03T09:16:32Z</time></trkpt><trkpt lat="44.26803671981747" lon="11.575690415221501"><ele>138.0</ele><time>2026-05-03T09:16:33Z</time></trkpt><trkpt lat="44.26808034444086" lon="11.575850799922547"><ele>138.0</ele><time>2026-05-03T09:16:34Z</time></trkpt><trkpt lat="44.26812259612445" lon="11.576013813163774"><ele>136.0</ele><time>2026-05-03T09:16:35Z</time></trkpt><trkpt lat="44.26816765987556" lon="11.576170481542603"><ele>134.0</ele><time>2026-05-03T09:16:36Z</time></trkpt><trkpt lat="44.268213227044015" lon="11.576326319900694"><ele>132.0</ele><time>2026-05-03T09:16:37Z</time></trkpt><trkpt lat="44.26826115671013" lon="11.57648216362155"><ele>130.0</ele><time>2026-05-03T09:16:38Z</time></trkpt><trkpt lat="44.268306454159266" lon="11.57664185493277"><ele>129.75</ele><time>2026-05-03T09:16:39Z</time></trkpt><trkpt lat="44.2683488534798" lon="11.576795972855974"><ele>129.5</ele><time>2026-05-03T09:16:40Z</time></trkpt><trkpt lat="44.26839331431905" lon="11.576958012721528"><ele>129.25</ele><time>2026-05-03T09:16:41Z</time></trkpt><trkpt lat="44.26843802702181" lon="11.577116092983868"><ele>129.0</ele><time>2026-05-03T09:16:42Z</time></trkpt><trkpt lat="44.26848253363793" lon="11.577279398020877"><ele>129.5</ele><time>2026-05-03T09:16:43Z</time></trkpt><trkpt lat="44.268527617493554" lon="11.57744085848591"><ele>130.0</ele><time>2026-05-03T09:16:44.001Z</time></trkpt><trkpt lat="44.26857110304049" lon="11.577603086263291"><ele>130.5</ele><time>2026-05-03T09:16:45.001Z</time></trkpt><trkpt lat="44.26861251623509" lon="11.577763099007134"><ele>131.0</ele><time>2026-05-03T09:16:46.001Z</time></trkpt><trkpt lat="44.268655239307016" lon="11.57792503638439"><ele>131.75</ele><time>2026-05-03T09:16:47.001Z</time></trkpt><trkpt lat="44.26870005212318" lon="11.578080060236243"><ele>132.5</ele><time>2026-05-03T09:16:48.001Z</time></trkpt><trkpt lat="44.268742020760065" lon="11.578238706678974"><ele>133.25</ele><time>2026-05-03T09:16:49.001Z</time></trkpt><trkpt lat="44.26878253206893" lon="11.578395332123453"><ele>134.0</ele><time>2026-05-03T09:16:50.001Z</time></trkpt><trkpt lat="44.26882429621254" lon="11.57855072758784"><ele>132.5</ele><time>2026-05-03T09:16:51.001Z</time></trkpt><trkpt lat="44.26886773326384" lon="11.578703182797154"><ele>131.0</ele><time>2026-05-03T09:16:52.001Z</time></trkpt><trkpt lat="44.268910535753164" lon="11.578852045161106"><ele>129.5</ele><time>2026-05-03T09:16:53.001Z</time></trkpt><trkpt lat="44.26895626419747" lon="11.579001952869337"><ele>128.0</ele><time>2026-05-03T09:16:54.001Z</time></trkpt><trkpt lat="44.26901271946614" lon="11.579140991311144"><ele>128.0</ele><time>2026-05-03T09:16:55.001Z</time></trkpt><trkpt lat="44.26908034899792" lon="11.579274537095396"><ele>128.0</ele><time>2026-05-03T09:16:56.001Z</time></trkpt><trkpt lat="44.2691506563731" lon="11.579400236952935"><ele>128.0</ele><time>2026-05-03T09:16:57.001Z</time></trkpt><trkpt lat="44.26923176030634" lon="11.579523320635332"><ele>128.0</ele><time>2026-05-03T09:16:58.001Z</time></trkpt><trkpt lat="44.26931422380273" lon="11.579642705245474"><ele>129.5</ele><time>2026-05-03T09:16:59.001Z</time></trkpt><trkpt lat="44.26939898693233" lon="11.57976329702153"><ele>131.0</ele><time>2026-05-03T09:17:00.001Z</time></trkpt><trkpt lat="44.269483214372904" lon="11.579886953316255"><ele>132.5</ele><time>2026-05-03T09:17:01.001Z</time></trkpt><trkpt lat="44.26956649195188" lon="11.580010071221706"><ele>134.0</ele><time>2026-05-03T09:17:02.001Z</time></trkpt><trkpt lat="44.26964899643155" lon="11.580132555115247"><ele>134.0</ele><time>2026-05-03T09:17:03.001Z</time></trkpt><trkpt lat="44.26973643256274" lon="11.580254041931854"><ele>134.0</ele><time>2026-05-03T09:17:04.001Z</time></trkpt><trkpt lat="44.269821876807896" lon="11.580373037237674"><ele>134.0</ele><time>2026-05-03T09:17:05.001Z</time></trkpt><trkpt lat="44.26990979762682" lon="11.580491494891048"><ele>134.0</ele><time>2026-05-03T09:17:06.001Z</time></trkpt><trkpt lat="44.26999676235552" lon="11.5806117849255"><ele>132.75</ele><time>2026-05-03T09:17:07.001Z</time></trkpt><trkpt lat="44.27009145286425" lon="11.580728461258445"><ele>131.5</ele><time>2026-05-03T09:17:08.001Z</time></trkpt><trkpt lat="44.2701855898398" lon="11.580843396348067"><ele>130.25</ele><time>2026-05-03T09:17:09.001Z</time></trkpt><trkpt lat="44.27027732637389" lon="11.580964510394377"><ele>129.0</ele><time>2026-05-03T09:17:10.001Z</time></trkpt><trkpt lat="44.27036442893223" lon="11.58109201676311"><ele>129.25</ele><time>2026-05-03T09:17:11.001Z</time></trkpt><trkpt lat="44.27045503252073" lon="11.581210171442045"><ele>129.5</ele><time>2026-05-03T09:17:12.001Z</time></trkpt><trkpt lat="44.2705438130409" lon="11.581327624219412"><ele>129.75</ele><time>2026-05-03T09:17:13.001Z</time></trkpt><trkpt lat="44.270629282981346" lon="11.581446016378417"><ele>130.0</ele><time>2026-05-03T09:17:14.001Z</time></trkpt><trkpt lat="44.27072136923726" lon="11.58155312940403"><ele>127.25</ele><time>2026-05-03T09:17:15.001Z</time></trkpt><trkpt lat="44.27081470774298" lon="11.581657366022366"><ele>124.5</ele><time>2026-05-03T09:17:16.001Z</time></trkpt><trkpt lat="44.2709133450501" lon="11.581760264304501"><ele>121.75</ele><time>2026-05-03T09:17:17.001Z</time></trkpt><trkpt lat="44.271011665182" lon="11.581866815516673"><ele>119.0</ele><time>2026-05-03T09:17:18.001Z</time></trkpt><trkpt lat="44.271110776834334" lon="11.581971827968344"><ele>118.5</ele><time>2026-05-03T09:17:19.001Z</time></trkpt><trkpt lat="44.271211425699256" lon="11.582075477129486"><ele>118.0</ele><time>2026-05-03T09:17:20.001Z</time></trkpt><trkpt lat="44.271314196480695" lon="11.582176209913817"><ele>117.5</ele><time>2026-05-03T09:17:21.001Z</time></trkpt><trkpt lat="44.27141859689976" lon="11.582281204737628"><ele>117.0</ele><time>2026-05-03T09:17:22.001Z</time></trkpt><trkpt lat="44.27152153461459" lon="11.582384628695538"><ele>117.0</ele><time>2026-05-03T09:17:23.001Z</time></trkpt><trkpt lat="44.27162479013228" lon="11.582482313864775"><ele>117.0</ele><time>2026-05-03T09:17:24.001Z</time></trkpt><trkpt lat="44.27173086117768" lon="11.582582990723333"><ele>117.0</ele><time>2026-05-03T09:17:25.001Z</time></trkpt><trkpt lat="44.27183715443435" lon="11.582685431395499"><ele>117.0</ele><time>2026-05-03T09:17:26.001Z</time></trkpt><trkpt lat="44.27194133698594" lon="11.582786043518993"><ele>118.5</ele><time>2026-05-03T09:17:27.001Z</time></trkpt><trkpt lat="44.272045419477465" lon="11.582902015906441"><ele>120.0</ele><time>2026-05-03T09:17:28.001Z</time></trkpt><trkpt lat="44.27214433972713" lon="11.583023402024379"><ele>121.5</ele><time>2026-05-03T09:17:29.001Z</time></trkpt><trkpt lat="44.27223909000272" lon="11.58315379948596"><ele>123.0</ele><time>2026-05-03T09:17:30.001Z</time></trkpt><trkpt lat="44.272317042362864" lon="11.583299068936693"><ele>119.75</ele><time>2026-05-03T09:17:31.001Z</time></trkpt><trkpt lat="44.27237935567284" lon="11.583454751938008"><ele>116.5</ele><time>2026-05-03T09:17:32.001Z</time></trkpt><trkpt lat="44.27242167861315" lon="11.583628077574465"><ele>113.25</ele><time>2026-05-03T09:17:33.001Z</time></trkpt><trkpt lat="44.27245604029431" lon="11.58380363170834"><ele>110.0</ele><time>2026-05-03T09:17:34.001Z</time></trkpt><trkpt lat="44.27248465986563" lon="11.583976959566698"><ele>110.0</ele><time>2026-05-03T09:17:35.001Z</time></trkpt><trkpt lat="44.27251056547878" lon="11.584149943619776"><ele>110.0</ele><time>2026-05-03T09:17:36.001Z</time></trkpt><trkpt lat="44.27253455427336" lon="11.584322668036071"><ele>110.0</ele><time>2026-05-03T09:17:37.001Z</time></trkpt><trkpt lat="44.27255975050259" lon="11.584492153909476"><ele>110.0</ele><time>2026-05-03T09:17:38.001Z</time></trkpt><trkpt lat="44.272586760882646" lon="11.584661700206832"><ele>111.0</ele><time>2026-05-03T09:17:39.001Z</time></trkpt><trkpt lat="44.27261178532355" lon="11.584835756989582"><ele>112.0</ele><time>2026-05-03T09:17:40.001Z</time></trkpt><trkpt lat="44.272634540019915" lon="11.585006779316265"><ele>113.0</ele><time>2026-05-03T09:17:41.001Z</time></trkpt><trkpt lat="44.27266939931343" lon="11.585173500092314"><ele>114.0</ele><time>2026-05-03T09:17:42.001Z</time></trkpt><trkpt lat="44.272718236442216" lon="11.58533406337728"><ele>113.5</ele><time>2026-05-03T09:17:43.001Z</time></trkpt><trkpt lat="44.272779211112386" lon="11.585479787181118"><ele>113.0</ele><time>2026-05-03T09:17:44.001Z</time></trkpt><trkpt lat="44.27284688361327" lon="11.585622371125021"><ele>112.5</ele><time>2026-05-03T09:17:45.001Z</time></trkpt><trkpt lat="44.27291298880084" lon="11.585764692016285"><ele>112.0</ele><time>2026-05-03T09:17:46.001Z</time></trkpt><trkpt lat="44.27298030048501" lon="11.585910744522472"><ele>112.0</ele><time>2026-05-03T09:17:47.001Z</time></trkpt><trkpt lat="44.27304838684352" lon="11.586055280751818"><ele>112.0</ele><time>2026-05-03T09:17:48.001Z</time></trkpt><trkpt lat="44.27311716271306" lon="11.586199666003862"><ele>112.0</ele><time>2026-05-03T09:17:49.001Z</time></trkpt><trkpt lat="44.27318883202022" lon="11.586344510695195"><ele>112.0</ele><time>2026-05-03T09:17:50.001Z</time></trkpt><trkpt lat="44.27326129339351" lon="11.58648689097024"><ele>112.0</ele><time>2026-05-03T09:17:51.001Z</time></trkpt><trkpt lat="44.273336635455124" lon="11.586634743301715"><ele>112.0</ele><time>2026-05-03T09:17:52.001Z</time></trkpt><trkpt lat="44.273408860884665" lon="11.586788911342975"><ele>112.0</ele><time>2026-05-03T09:17:53.001Z</time></trkpt><trkpt lat="44.27346218661073" lon="11.586962462765563"><ele>112.0</ele><time>2026-05-03T09:17:54.001Z</time></trkpt><trkpt lat="44.27353882785057" lon="11.587107077185056"><ele>112.0</ele><time>2026-05-03T09:17:55.001Z</time></trkpt><trkpt lat="44.27361029477036" lon="11.587245846050953"><ele>112.0</ele><time>2026-05-03T09:17:56.001Z</time></trkpt><trkpt lat="44.273681001799105" lon="11.587389567461795"><ele>112.0</ele><time>2026-05-03T09:17:57.001Z</time></trkpt><trkpt lat="44.27375350455422" lon="11.587525634496618"><ele>112.0</ele><time>2026-05-03T09:17:58.001Z</time></trkpt><trkpt lat="44.27382015517637" lon="11.587676063152339"><ele>112.0</ele><time>2026-05-03T09:17:59.001Z</time></trkpt><trkpt lat="44.2738954420339" lon="11.58781729028755"><ele>112.0</ele><time>2026-05-03T09:18:00.001Z</time></trkpt><trkpt lat="44.27400116203873" lon="11.58792140138595"><ele>112.0</ele><time>2026-05-03T09:18:01.001Z</time></trkpt><trkpt lat="44.27412095252757" lon="11.587970239279802"><ele>112.0</ele><time>2026-05-03T09:18:02.001Z</time></trkpt><trkpt lat="44.27424338539525" lon="11.587940935282347"><ele>109.5</ele><time>2026-05-03T09:18:03.001Z</time></trkpt><trkpt lat="44.27436385926341" lon="11.587895233084742"><ele>107.0</ele><time>2026-05-03T09:18:04Z</time></trkpt><trkpt lat="44.274469952281706" lon="11.587848495708585"><ele>104.5</ele><time>2026-05-03T09:18:05Z</time></trkpt><trkpt lat="44.27457967683952" lon="11.587796594718412"><ele>102.0</ele><time>2026-05-03T09:18:06Z</time></trkpt><trkpt lat="44.27468617942889" lon="11.587739353549116"><ele>101.75</ele><time>2026-05-03T09:18:07Z</time></trkpt><trkpt lat="44.27479830065992" lon="11.587681870131295"><ele>101.5</ele><time>2026-05-03T09:18:08Z</time></trkpt><trkpt lat="44.27491036599637" lon="11.58763379208037"><ele>101.25</ele><time>2026-05-03T09:18:09Z</time></trkpt><trkpt lat="44.27502266498171" lon="11.587587594437183"><ele>101.0</ele><time>2026-05-03T09:18:10Z</time></trkpt><trkpt lat="44.27513414571557" lon="11.587536336019772"><ele>101.0</ele><time>2026-05-03T09:18:11Z</time></trkpt><trkpt lat="44.27524055226791" lon="11.587474001974437"><ele>101.0</ele><time>2026-05-03T09:18:12Z</time></trkpt><trkpt lat="44.27534749649503" lon="11.58741470961843"><ele>101.0</ele><time>2026-05-03T09:18:13Z</time></trkpt><trkpt lat="44.27545547681123" lon="11.587356412607093"><ele>101.0</ele><time>2026-05-03T09:18:14Z</time></trkpt><trkpt lat="44.275569748759395" lon="11.587330262390232"><ele>101.0</ele><time>2026-05-03T09:18:15Z</time></trkpt><trkpt lat="44.27568307272515" lon="11.587288728538045"><ele>101.0</ele><time>2026-05-03T09:18:16Z</time></trkpt><trkpt lat="44.27580083078871" lon="11.587310176693272"><ele>101.0</ele><time>2026-05-03T09:18:17Z</time></trkpt><trkpt lat="44.27590710489295" lon="11.587371887892893"><ele>101.0</ele><time>2026-05-03T09:18:18Z</time></trkpt><trkpt lat="44.276013207322976" lon="11.587446395396295"><ele>101.0</ele><time>2026-05-03T09:18:19Z</time></trkpt><trkpt lat="44.276112565170294" lon="11.587524886872341"><ele>101.0</ele><time>2026-05-03T09:18:20Z</time></trkpt><trkpt lat="44.276214516998195" lon="11.587590771104058"><ele>101.0</ele><time>2026-05-03T09:18:21Z</time></trkpt><trkpt lat="44.27632040733144" lon="11.587661721739464"><ele>101.0</ele><time>2026-05-03T09:18:22Z</time></trkpt><trkpt lat="44.276419348152544" lon="11.587737786631857"><ele>100.8</ele><time>2026-05-03T09:18:23Z</time></trkpt><trkpt lat="44.2765201653153" lon="11.587808426055169"><ele>100.6</ele><time>2026-05-03T09:18:24Z</time></trkpt><trkpt lat="44.27661981417093" lon="11.587880463800415"><ele>100.4</ele><time>2026-05-03T09:18:25Z</time></trkpt><trkpt lat="44.27671200935936" lon="11.587956696678349"><ele>100.2</ele><time>2026-05-03T09:18:26Z</time></trkpt><trkpt lat="44.27679487422954" lon="11.58802475420949"><ele>100.0</ele><time>2026-05-03T09:18:27Z</time></trkpt><trkpt lat="44.27687455234795" lon="11.588086211723544"><ele>100.00000000000001</ele><time>2026-05-03T09:18:28Z</time></trkpt><trkpt lat="44.27694634488265" lon="11.588149015694569"><ele>100.0</ele><time>2026-05-03T09:18:29Z</time></trkpt><trkpt lat="44.277023422145845" lon="11.588194875344493"><ele>100.0</ele><time>2026-05-03T09:18:30Z</time></trkpt><trkpt lat="44.27709273204289" lon="11.588254896114055"><ele>100.0</ele><time>2026-05-03T09:18:31Z</time></trkpt><trkpt lat="44.277163048204905" lon="11.588304299073977"><ele>100.00000000000001</ele><time>2026-05-03T09:18:32Z</time></trkpt><trkpt lat="44.277245106377315" lon="11.58834989979393"><ele>100.0</ele><time>2026-05-03T09:18:34Z</time></trkpt><trkpt lat="44.27731293252844" lon="11.588374587933929"><ele>99.6</ele><time>2026-05-03T09:18:37Z</time></trkpt><trkpt lat="44.27741059505486" lon="11.588415178927937"><ele>99.2</ele><time>2026-05-03T09:18:53.001Z</time></trkpt><trkpt lat="44.27750928740008" lon="11.588457829511611"><ele>98.80000000000001</ele><time>2026-05-03T09:18:55.001Z</time></trkpt><trkpt lat="44.27757350834697" lon="11.588483924568097"><ele>98.4</ele><time>2026-05-03T09:18:56.001Z</time></trkpt><trkpt lat="44.277651755897246" lon="11.588515719062555"><ele>98.0</ele><time>2026-05-03T09:18:57.001Z</time></trkpt><trkpt lat="44.27776014094303" lon="11.588536804677437"><ele>98.0</ele><time>2026-05-03T09:18:58.001Z</time></trkpt><trkpt lat="44.27785706454484" lon="11.588552527958136"><ele>98.0</ele><time>2026-05-03T09:18:59.001Z</time></trkpt><trkpt lat="44.27796088777271" lon="11.58856318328915"><ele>98.0</ele><time>2026-05-03T09:19:00.001Z</time></trkpt><trkpt lat="44.278083366695405" lon="11.588565981335497"><ele>98.0</ele><time>2026-05-03T09:19:01.001Z</time></trkpt><trkpt lat="44.278225322652155" lon="11.588545545503372"><ele>97.5</ele><time>2026-05-03T09:19:02.001Z</time></trkpt><trkpt lat="44.27833871665297" lon="11.588521718825113"><ele>97.0</ele><time>2026-05-03T09:19:03.001Z</time></trkpt><trkpt lat="44.2784585455152" lon="11.58848821394421"><ele>96.5</ele><time>2026-05-03T09:19:04.001Z</time></trkpt><trkpt lat="44.2785772852408" lon="11.588452542759127"><ele>96.0</ele><time>2026-05-03T09:19:05.001Z</time></trkpt><trkpt lat="44.27869680837572" lon="11.588416636234523"><ele>96.0</ele><time>2026-05-03T09:19:06.001Z</time></trkpt><trkpt lat="44.27881339638889" lon="11.588384169022168"><ele>96.0</ele><time>2026-05-03T09:19:07.001Z</time></trkpt><trkpt lat="44.278924334688526" lon="11.588329924478362"><ele>96.0</ele><time>2026-05-03T09:19:08.001Z</time></trkpt><trkpt lat="44.2790371921653" lon="11.58830081537954"><ele>96.0</ele><time>2026-05-03T09:19:09.001Z</time></trkpt><trkpt lat="44.279151503497765" lon="11.588275319718509"><ele>95.5</ele><time>2026-05-03T09:19:10.001Z</time></trkpt><trkpt lat="44.2792638382518" lon="11.588259863263735"><ele>95.0</ele><time>2026-05-03T09:19:11.001Z</time></trkpt><trkpt lat="44.279379801697" lon="11.588253808803007"><ele>94.5</ele><time>2026-05-03T09:19:12.001Z</time></trkpt><trkpt lat="44.27949114959635" lon="11.588242985300756"><ele>94.0</ele><time>2026-05-03T09:19:13.001Z</time></trkpt><trkpt lat="44.279603853699335" lon="11.588235928435994"><ele>94.0</ele><time>2026-05-03T09:19:14.001Z</time></trkpt><trkpt lat="44.27970900182908" lon="11.58822744921986"><ele>94.0</ele><time>2026-05-03T09:19:15.001Z</time></trkpt><trkpt lat="44.27981274151735" lon="11.588220826340361"><ele>94.0</ele><time>2026-05-03T09:19:16.001Z</time></trkpt><trkpt lat="44.27991392864811" lon="11.588221262345387"><ele>94.0</ele><time>2026-05-03T09:19:17.001Z</time></trkpt><trkpt lat="44.280014966670365" lon="11.588242855613071"><ele>94.0</ele><time>2026-05-03T09:19:18.001Z</time></trkpt><trkpt lat="44.28010394901235" lon="11.58830999135938"><ele>93.6</ele><time>2026-05-03T09:19:19.001Z</time></trkpt><trkpt lat="44.28018403980943" lon="11.588400587138965"><ele>93.2</ele><time>2026-05-03T09:19:20.001Z</time></trkpt><trkpt lat="44.28025113957995" lon="11.588515595213929"><ele>92.8</ele><time>2026-05-03T09:19:21.001Z</time></trkpt><trkpt lat="44.280314295910784" lon="11.58863641563544"><ele>92.39999999999999</ele><time>2026-05-03T09:19:22.001Z</time></trkpt><trkpt lat="44.28037923483429" lon="11.58875902843924"><ele>92.0</ele><time>2026-05-03T09:19:23.001Z</time></trkpt><trkpt lat="44.28042624446279" lon="11.588900080770447"><ele>92.0</ele><time>2026-05-03T09:19:24.001Z</time></trkpt><trkpt lat="44.28049210977923" lon="11.58902920199213"><ele>92.0</ele><time>2026-05-03T09:19:25.001Z</time></trkpt><trkpt lat="44.280560368068876" lon="11.589159320456107"><ele>92.0</ele><time>2026-05-03T09:19:26.001Z</time></trkpt><trkpt lat="44.28062261627246" lon="11.589298380531957"><ele>92.0</ele><time>2026-05-03T09:19:27.001Z</time></trkpt><trkpt lat="44.28069074561233" lon="11.589432074996457"><ele>93.0</ele><time>2026-05-03T09:19:28.001Z</time></trkpt><trkpt lat="44.28075982749567" lon="11.589565438281783"><ele>94.0</ele><time>2026-05-03T09:19:29.001Z</time></trkpt><trkpt lat="44.28082063809298" lon="11.589699538918197"><ele>95.0</ele><time>2026-05-03T09:19:30.001Z</time></trkpt><trkpt lat="44.28088579016255" lon="11.589826694796276"><ele>96.0</ele><time>2026-05-03T09:19:31.001Z</time></trkpt><trkpt lat="44.280951946443835" lon="11.589952945643033"><ele>96.0</ele><time>2026-05-03T09:19:32.001Z</time></trkpt><trkpt lat="44.28101282957648" lon="11.590078212856888"><ele>96.0</ele><time>2026-05-03T09:19:33.001Z</time></trkpt><trkpt lat="44.28108184996934" lon="11.590203818810197"><ele>96.0</ele><time>2026-05-03T09:19:34.001Z</time></trkpt><trkpt lat="44.2811471997012" lon="11.590336870449477"><ele>96.0</ele><time>2026-05-03T09:19:35.001Z</time></trkpt><trkpt lat="44.28120796811607" lon="11.59047230218087"><ele>96.19999999999999</ele><time>2026-05-03T09:19:36.001Z</time></trkpt><trkpt lat="44.28126632754251" lon="11.590613363964312"><ele>96.39999999999999</ele><time>2026-05-03T09:19:37.001Z</time></trkpt><trkpt lat="44.28133104416871" lon="11.590733053179825"><ele>96.6</ele><time>2026-05-03T09:19:38.001Z</time></trkpt><trkpt lat="44.281394471432826" lon="11.590857708840474"><ele>96.8</ele><time>2026-05-03T09:19:39.001Z</time></trkpt><trkpt lat="44.28146122768699" lon="11.590978117106616"><ele>97.0</ele><time>2026-05-03T09:19:40.001Z</time></trkpt><trkpt lat="44.28152976244873" lon="11.591093830238462"><ele>96.5</ele><time>2026-05-03T09:19:41.001Z</time></trkpt><trkpt lat="44.2815934003042" lon="11.591230348423819"><ele>96.0</ele><time>2026-05-03T09:19:42.001Z</time></trkpt><trkpt lat="44.2816581445556" lon="11.59135193124332"><ele>95.5</ele><time>2026-05-03T09:19:43.001Z</time></trkpt><trkpt lat="44.28172866992809" lon="11.59146857196182"><ele>95.0</ele><time>2026-05-03T09:19:44.001Z</time></trkpt><trkpt lat="44.281790170817864" lon="11.591608690033723"><ele>95.0</ele><time>2026-05-03T09:19:45.001Z</time></trkpt><trkpt lat="44.281854330395504" lon="11.59172499451399"><ele>95.0</ele><time>2026-05-03T09:19:46.001Z</time></trkpt><trkpt lat="44.28191916908999" lon="11.59184349286311"><ele>95.0</ele><time>2026-05-03T09:19:47.001Z</time></trkpt><trkpt lat="44.2819865960955" lon="11.591958741577383"><ele>95.0</ele><time>2026-05-03T09:19:48.001Z</time></trkpt><trkpt lat="44.28205243967426" lon="11.59208198918729"><ele>95.0</ele><time>2026-05-03T09:19:49.001Z</time></trkpt><trkpt lat="44.282121461650476" lon="11.592215353089973"><ele>94.75</ele><time>2026-05-03T09:19:50.001Z</time></trkpt><trkpt lat="44.28219833934626" lon="11.592339826091852"><ele>94.5</ele><time>2026-05-03T09:19:51.001Z</time></trkpt><trkpt lat="44.28227423781196" lon="11.592470515241603"><ele>94.25</ele><time>2026-05-03T09:19:52.001Z</time></trkpt><trkpt lat="44.28234781008355" lon="11.592602430654598"><ele>94.0</ele><time>2026-05-03T09:19:53.001Z</time></trkpt><trkpt lat="44.28241968633499" lon="11.592729832798643"><ele>94.25</ele><time>2026-05-03T09:19:54.001Z</time></trkpt><trkpt lat="44.28249264593885" lon="11.592854628970146"><ele>94.5</ele><time>2026-05-03T09:19:55.001Z</time></trkpt><trkpt lat="44.282562885188625" lon="11.592988866708433"><ele>94.75</ele><time>2026-05-03T09:19:56.001Z</time></trkpt><trkpt lat="44.28263796482727" lon="11.59310974545565"><ele>95.0</ele><time>2026-05-03T09:19:57.001Z</time></trkpt><trkpt lat="44.28270973473035" lon="11.593240573691405"><ele>95.0</ele><time>2026-05-03T09:19:58.001Z</time></trkpt><trkpt lat="44.28278352145637" lon="11.593365541352831"><ele>95.0</ele><time>2026-05-03T09:19:59.001Z</time></trkpt><trkpt lat="44.28285779388938" lon="11.593489157100802"><ele>95.0</ele><time>2026-05-03T09:20:00.001Z</time></trkpt><trkpt lat="44.28293061627455" lon="11.593619468288509"><ele>95.0</ele><time>2026-05-03T09:20:01.001Z</time></trkpt><trkpt lat="44.283001772301894" lon="11.59374629387134"><ele>94.8</ele><time>2026-05-03T09:20:02.001Z</time></trkpt><trkpt lat="44.28307584371862" lon="11.59386961495673"><ele>94.6</ele><time>2026-05-03T09:20:03.001Z</time></trkpt><trkpt lat="44.2831478052321" lon="11.59398991754663"><ele>94.4</ele><time>2026-05-03T09:20:04.001Z</time></trkpt><trkpt lat="44.28321785579119" lon="11.594111859595623"><ele>94.2</ele><time>2026-05-03T09:20:05.001Z</time></trkpt><trkpt lat="44.28328187770278" lon="11.594228725041747"><ele>94.0</ele><time>2026-05-03T09:20:06.001Z</time></trkpt><trkpt lat="44.283350883774766" lon="11.594346452849145"><ele>94.2</ele><time>2026-05-03T09:20:07.001Z</time></trkpt><trkpt lat="44.283417348808" lon="11.594464272547519"><ele>94.4</ele><time>2026-05-03T09:20:08.001Z</time></trkpt><trkpt lat="44.283470719812385" lon="11.594590618015092"><ele>94.6</ele><time>2026-05-03T09:20:09.001Z</time></trkpt><trkpt lat="44.28352068471334" lon="11.594728456678181"><ele>94.8</ele><time>2026-05-03T09:20:10Z</time></trkpt><trkpt lat="44.28357202464803" lon="11.594854032703282"><ele>95.0</ele><time>2026-05-03T09:20:11Z</time></trkpt><trkpt lat="44.28361776609661" lon="11.594994251157257"><ele>95.0</ele><time>2026-05-03T09:20:12Z</time></trkpt><trkpt lat="44.283665230046516" lon="11.595139491143406"><ele>95.0</ele><time>2026-05-03T09:20:13Z</time></trkpt><trkpt lat="44.283709921171294" lon="11.595270438408365"><ele>95.0</ele><time>2026-05-03T09:20:14Z</time></trkpt><trkpt lat="44.283759623853136" lon="11.595408389686376"><ele>95.0</ele><time>2026-05-03T09:20:15Z</time></trkpt><trkpt lat="44.28381698003341" lon="11.59555074928359"><ele>95.0</ele><time>2026-05-03T09:20:16Z</time></trkpt><trkpt lat="44.28387223714972" lon="11.595692503992499"><ele>94.75</ele><time>2026-05-03T09:20:17Z</time></trkpt><trkpt lat="44.28392587863621" lon="11.595836190153058"><ele>94.5</ele><time>2026-05-03T09:20:18Z</time></trkpt><trkpt lat="44.283980665156534" lon="11.595976398746"><ele>94.25</ele><time>2026-05-03T09:20:19Z</time></trkpt><trkpt lat="44.28403772692611" lon="11.596113559071874"><ele>94.0</ele><time>2026-05-03T09:20:20Z</time></trkpt><trkpt lat="44.28409450468897" lon="11.596246278820498"><ele>94.5</ele><time>2026-05-03T09:20:21Z</time></trkpt><trkpt lat="44.284149905112415" lon="11.596386826811493"><ele>95.0</ele><time>2026-05-03T09:20:22Z</time></trkpt><trkpt lat="44.28420664471247" lon="11.596525863832444"><ele>95.5</ele><time>2026-05-03T09:20:23Z</time></trkpt><trkpt lat="44.28426896555896" lon="11.596664060976343"><ele>96.0</ele><time>2026-05-03T09:20:24Z</time></trkpt><trkpt lat="44.28433196944888" lon="11.596791679602253"><ele>96.0</ele><time>2026-05-03T09:20:25Z</time></trkpt><trkpt lat="44.28439693151342" lon="11.596915900237088"><ele>96.0</ele><time>2026-05-03T09:20:26Z</time></trkpt><trkpt lat="44.284459697978065" lon="11.597040121033054"><ele>96.0</ele><time>2026-05-03T09:20:27Z</time></trkpt><trkpt lat="44.28452528526882" lon="11.597165466129587"><ele>96.0</ele><time>2026-05-03T09:20:28Z</time></trkpt><trkpt lat="44.28459494087397" lon="11.597279958744553"><ele>96.0</ele><time>2026-05-03T09:20:29Z</time></trkpt><trkpt lat="44.28466063618248" lon="11.597405108875469"><ele>95.6</ele><time>2026-05-03T09:20:30Z</time></trkpt><trkpt lat="44.28472605681342" lon="11.597534753160392"><ele>95.19999999999999</ele><time>2026-05-03T09:20:31Z</time></trkpt><trkpt lat="44.284792698207916" lon="11.59764807492613"><ele>94.80000000000001</ele><time>2026-05-03T09:20:32Z</time></trkpt><trkpt lat="44.284858527456976" lon="11.597771765466682"><ele>94.4</ele><time>2026-05-03T09:20:33Z</time></trkpt><trkpt lat="44.28492606584037" lon="11.59789221958708"><ele>94.0</ele><time>2026-05-03T09:20:34Z</time></trkpt><trkpt lat="44.284991080317916" lon="11.598008412802319"><ele>94.80000000000001</ele><time>2026-05-03T09:20:35Z</time></trkpt><trkpt lat="44.28506091742591" lon="11.59812689071817"><ele>95.60000000000001</ele><time>2026-05-03T09:20:36Z</time></trkpt><trkpt lat="44.285125060477014" lon="11.598243562778693"><ele>96.4</ele><time>2026-05-03T09:20:37Z</time></trkpt><trkpt lat="44.28518750503601" lon="11.59836648834676"><ele>97.2</ele><time>2026-05-03T09:20:38Z</time></trkpt><trkpt lat="44.28525239858302" lon="11.598479737021938"><ele>98.0</ele><time>2026-05-03T09:20:39Z</time></trkpt><trkpt lat="44.28531775879113" lon="11.598598166110902"><ele>97.25</ele><time>2026-05-03T09:20:40Z</time></trkpt><trkpt lat="44.285383036145966" lon="11.598726281880246"><ele>96.5</ele><time>2026-05-03T09:20:41Z</time></trkpt><trkpt lat="44.28544890736494" lon="11.598866057309486"><ele>95.75</ele><time>2026-05-03T09:20:42Z</time></trkpt><trkpt lat="44.28551956119768" lon="11.598999253252444"><ele>95.0</ele><time>2026-05-03T09:20:43Z</time></trkpt><trkpt lat="44.285592490471004" lon="11.599136116579059"><ele>94.25</ele><time>2026-05-03T09:20:44Z</time></trkpt><trkpt lat="44.28566949137035" lon="11.59926928481433"><ele>93.5</ele><time>2026-05-03T09:20:45.001Z</time></trkpt><trkpt lat="44.285744979066" lon="11.599403664830877"><ele>92.75</ele><time>2026-05-03T09:20:46.001Z</time></trkpt><trkpt lat="44.28582101112448" lon="11.599549613290456"><ele>92.0</ele><time>2026-05-03T09:20:47.001Z</time></trkpt><trkpt lat="44.285898492804705" lon="11.599682437360904"><ele>92.0</ele><time>2026-05-03T09:20:48.001Z</time></trkpt><trkpt lat="44.285972338208445" lon="11.599813724860509"><ele>92.0</ele><time>2026-05-03T09:20:49.001Z</time></trkpt><trkpt lat="44.286046963818166" lon="11.599950634981552"><ele>92.0</ele><time>2026-05-03T09:20:50.001Z</time></trkpt><trkpt lat="44.286107684199024" lon="11.600073217140096"><ele>92.0</ele><time>2026-05-03T09:20:51.001Z</time></trkpt><trkpt lat="44.286174536970016" lon="11.600219340516087"><ele>91.5</ele><time>2026-05-03T09:20:52.001Z</time></trkpt><trkpt lat="44.28623055347609" lon="11.600359226872538"><ele>91.0</ele><time>2026-05-03T09:20:53.001Z</time></trkpt><trkpt lat="44.28627681792744" lon="11.600506312493854"><ele>90.5</ele><time>2026-05-03T09:20:54.001Z</time></trkpt><trkpt lat="44.28632181243862" lon="11.600652072604634"><ele>90.0</ele><time>2026-05-03T09:20:55.001Z</time></trkpt><trkpt lat="44.286360936329096" lon="11.600793366330766"><ele>90.0</ele><time>2026-05-03T09:20:56.001Z</time></trkpt><trkpt lat="44.28638584089127" lon="11.600971438919633"><ele>90.0</ele><time>2026-05-03T09:20:57.001Z</time></trkpt><trkpt lat="44.28640961475812" lon="11.601133616613843"><ele>90.0</ele><time>2026-05-03T09:20:58.001Z</time></trkpt><trkpt lat="44.28643674731241" lon="11.601293935022497"><ele>90.0</ele><time>2026-05-03T09:20:59.001Z</time></trkpt><trkpt lat="44.28646356723368" lon="11.601452501177231"><ele>90.5</ele><time>2026-05-03T09:21:00.001Z</time></trkpt><trkpt lat="44.286492563942005" lon="11.601608750116819"><ele>91.0</ele><time>2026-05-03T09:21:01.001Z</time></trkpt><trkpt lat="44.28653040095624" lon="11.601760361301075"><ele>91.5</ele><time>2026-05-03T09:21:02.001Z</time></trkpt><trkpt lat="44.286569843337844" lon="11.601919788887336"><ele>92.0</ele><time>2026-05-03T09:21:03.001Z</time></trkpt><trkpt lat="44.2866063170711" lon="11.602078499262321"><ele>92.0</ele><time>2026-05-03T09:21:04.001Z</time></trkpt><trkpt lat="44.286643571162486" lon="11.602234003538383"><ele>92.0</ele><time>2026-05-03T09:21:05.001Z</time></trkpt><trkpt lat="44.2866777654586" lon="11.602393258106861"><ele>92.0</ele><time>2026-05-03T09:21:06.001Z</time></trkpt><trkpt lat="44.28670911798488" lon="11.602549909189783"><ele>92.0</ele><time>2026-05-03T09:21:07.001Z</time></trkpt><trkpt lat="44.28673653724053" lon="11.602705915499309"><ele>92.25</ele><time>2026-05-03T09:21:08.001Z</time></trkpt><trkpt lat="44.28675427267641" lon="11.60287077359446"><ele>92.5</ele><time>2026-05-03T09:21:09.001Z</time></trkpt><trkpt lat="44.28676359641936" lon="11.6030406181349"><ele>92.75</ele><time>2026-05-03T09:21:10.001Z</time></trkpt><trkpt lat="44.286767639616215" lon="11.603198528487903"><ele>93.0</ele><time>2026-05-03T09:21:11.001Z</time></trkpt><trkpt lat="44.28675487663046" lon="11.603371476488727"><ele>93.0</ele><time>2026-05-03T09:21:12.001Z</time></trkpt><trkpt lat="44.28673862326874" lon="11.603534053490424"><ele>93.0</ele><time>2026-05-03T09:21:13.001Z</time></trkpt><trkpt lat="44.28671634305876" lon="11.603701819753269"><ele>93.0</ele><time>2026-05-03T09:21:14.001Z</time></trkpt><trkpt lat="44.28669438263331" lon="11.603860311978458"><ele>93.0</ele><time>2026-05-03T09:21:15.001Z</time></trkpt><trkpt lat="44.286673606953926" lon="11.604018204118743"><ele>93.0</ele><time>2026-05-03T09:21:16.001Z</time></trkpt><trkpt lat="44.28664915139758" lon="11.604170743755981"><ele>93.0</ele><time>2026-05-03T09:21:17.001Z</time></trkpt><trkpt lat="44.286621667318514" lon="11.604327080345358"><ele>93.0</ele><time>2026-05-03T09:21:18.001Z</time></trkpt><trkpt lat="44.2865950570499" lon="11.604489021587357"><ele>93.0</ele><time>2026-05-03T09:21:19.001Z</time></trkpt><trkpt lat="44.28657301252475" lon="11.604646312564464"><ele>92.75</ele><time>2026-05-03T09:21:20.001Z</time></trkpt><trkpt lat="44.28654689225769" lon="11.60480566279337"><ele>92.5</ele><time>2026-05-03T09:21:21.001Z</time></trkpt><trkpt lat="44.28652204144336" lon="11.60496600681909"><ele>92.25</ele><time>2026-05-03T09:21:22.001Z</time></trkpt><trkpt lat="44.28649816024139" lon="11.605123240410672"><ele>92.0</ele><time>2026-05-03T09:21:23.001Z</time></trkpt><trkpt lat="44.2864757909377" lon="11.605282063682708"><ele>91.75</ele><time>2026-05-03T09:21:24.001Z</time></trkpt><trkpt lat="44.28645532821607" lon="11.605440627463109"><ele>91.5</ele><time>2026-05-03T09:21:25.001Z</time></trkpt><trkpt lat="44.28643506992724" lon="11.605593263412581"><ele>91.25</ele><time>2026-05-03T09:21:26.001Z</time></trkpt><trkpt lat="44.28640674879044" lon="11.605752465604539"><ele>91.0</ele><time>2026-05-03T09:21:27.001Z</time></trkpt><trkpt lat="44.28638582681505" lon="11.605904659018368"><ele>89.75</ele><time>2026-05-03T09:21:28.001Z</time></trkpt><trkpt lat="44.28636276690393" lon="11.606059519678789"><ele>88.5</ele><time>2026-05-03T09:21:29.001Z</time></trkpt><trkpt lat="44.28633950446592" lon="11.606211816493358"><ele>87.25</ele><time>2026-05-03T09:21:30.001Z</time></trkpt><trkpt lat="44.28631596507924" lon="11.606365200838628"><ele>86.0</ele><time>2026-05-03T09:21:31.001Z</time></trkpt><trkpt lat="44.28628984143974" lon="11.606519470760137"><ele>86.0</ele><time>2026-05-03T09:21:32.001Z</time></trkpt><trkpt lat="44.28626503909059" lon="11.606670988740147"><ele>86.0</ele><time>2026-05-03T09:21:33.001Z</time></trkpt><trkpt lat="44.28624073286824" lon="11.606819006340562"><ele>86.0</ele><time>2026-05-03T09:21:34.001Z</time></trkpt><trkpt lat="44.28622109197274" lon="11.606968010646503"><ele>86.0</ele><time>2026-05-03T09:21:35.001Z</time></trkpt><trkpt lat="44.28619723472692" lon="11.607122373442003"><ele>86.0</ele><time>2026-05-03T09:21:36.001Z</time></trkpt><trkpt lat="44.28617293800626" lon="11.607274341894735"><ele>86.19999999999999</ele><time>2026-05-03T09:21:37.001Z</time></trkpt><trkpt lat="44.286158602799475" lon="11.607416361012206"><ele>86.39999999999999</ele><time>2026-05-03T09:21:38.001Z</time></trkpt><trkpt lat="44.286148966826445" lon="11.607564853460605"><ele>86.6</ele><time>2026-05-03T09:21:39.001Z</time></trkpt><trkpt lat="44.28613372961243" lon="11.60771638947665"><ele>86.8</ele><time>2026-05-03T09:21:40.001Z</time></trkpt><trkpt lat="44.28612358844277" lon="11.607864616347227"><ele>87.0</ele><time>2026-05-03T09:21:41.001Z</time></trkpt><trkpt lat="44.28613288882135" lon="11.608013067873088"><ele>87.39999999999999</ele><time>2026-05-03T09:21:42.001Z</time></trkpt><trkpt lat="44.286143089167815" lon="11.608170372990408"><ele>87.8</ele><time>2026-05-03T09:21:43.001Z</time></trkpt><trkpt lat="44.28616350436803" lon="11.60831433377727"><ele>88.2</ele><time>2026-05-03T09:21:44.001Z</time></trkpt><trkpt lat="44.28619326323628" lon="11.608460012039496"><ele>88.6</ele><time>2026-05-03T09:21:45.001Z</time></trkpt><trkpt lat="44.28622343386452" lon="11.608604705516784"><ele>89.0</ele><time>2026-05-03T09:21:46.001Z</time></trkpt><trkpt lat="44.28626023155372" lon="11.608743237131403"><ele>89.2</ele><time>2026-05-03T09:21:47.001Z</time></trkpt><trkpt lat="44.28631086099078" lon="11.608878450255226"><ele>89.4</ele><time>2026-05-03T09:21:48.001Z</time></trkpt><trkpt lat="44.286369063619325" lon="11.60901068266167"><ele>89.6</ele><time>2026-05-03T09:21:49.001Z</time></trkpt><trkpt lat="44.28643249621091" lon="11.609138249379484"><ele>89.8</ele><time>2026-05-03T09:21:50.001Z</time></trkpt><trkpt lat="44.286499986063646" lon="11.609269467362232"><ele>90.0</ele><time>2026-05-03T09:21:51.001Z</time></trkpt><trkpt lat="44.28656733277731" lon="11.60939906782817"><ele>90.0</ele><time>2026-05-03T09:21:52.001Z</time></trkpt><trkpt lat="44.286633160240854" lon="11.60952168991785"><ele>90.0</ele><time>2026-05-03T09:21:53.001Z</time></trkpt><trkpt lat="44.28670225025488" lon="11.609646877091855"><ele>90.0</ele><time>2026-05-03T09:21:54.001Z</time></trkpt><trkpt lat="44.28677408329145" lon="11.609773548100335"><ele>90.0</ele><time>2026-05-03T09:21:55.001Z</time></trkpt><trkpt lat="44.28684915927881" lon="11.609895693363324"><ele>90.0</ele><time>2026-05-03T09:21:56.001Z</time></trkpt><trkpt lat="44.28691809186707" lon="11.610024952362469"><ele>90.0</ele><time>2026-05-03T09:21:57.001Z</time></trkpt><trkpt lat="44.2869892243443" lon="11.610155633513827"><ele>90.0</ele><time>2026-05-03T09:21:58.001Z</time></trkpt><trkpt lat="44.28705886651466" lon="11.610280711591829"><ele>90.0</ele><time>2026-05-03T09:21:59.001Z</time></trkpt><trkpt lat="44.28712958293363" lon="11.61041152513928"><ele>89.75</ele><time>2026-05-03T09:22:00.001Z</time></trkpt><trkpt lat="44.287202442178" lon="11.610545700120998"><ele>89.5</ele><time>2026-05-03T09:22:01.001Z</time></trkpt><trkpt lat="44.28727590313752" lon="11.610676287040064"><ele>89.25</ele><time>2026-05-03T09:22:02.001Z</time></trkpt><trkpt lat="44.28735160112563" lon="11.610808253678933"><ele>89.0</ele><time>2026-05-03T09:22:03.001Z</time></trkpt><trkpt lat="44.287426498523814" lon="11.610938559587023"><ele>89.0</ele><time>2026-05-03T09:22:04.001Z</time></trkpt><trkpt lat="44.28749215326457" lon="11.611060587585598"><ele>89.0</ele><time>2026-05-03T09:22:05.001Z</time></trkpt><trkpt lat="44.287560213013705" lon="11.611184028151392"><ele>89.0</ele><time>2026-05-03T09:22:06.001Z</time></trkpt><trkpt lat="44.28762805012889" lon="11.6113073065615"><ele>89.0</ele><time>2026-05-03T09:22:07.001Z</time></trkpt><trkpt lat="44.287699235934745" lon="11.611427919467147"><ele>89.0</ele><time>2026-05-03T09:22:08.001Z</time></trkpt><trkpt lat="44.28776808630639" lon="11.611551091312375"><ele>88.75</ele><time>2026-05-03T09:22:09.001Z</time></trkpt><trkpt lat="44.28783506367447" lon="11.611675651776903"><ele>88.5</ele><time>2026-05-03T09:22:10.001Z</time></trkpt><trkpt lat="44.28790200132798" lon="11.611802709284175"><ele>88.25</ele><time>2026-05-03T09:22:11.001Z</time></trkpt><trkpt lat="44.28797132627032" lon="11.611934312643788"><ele>88.0</ele><time>2026-05-03T09:22:12.001Z</time></trkpt><trkpt lat="44.28803618504006" lon="11.612070541663973"><ele>88.0</ele><time>2026-05-03T09:22:13.001Z</time></trkpt><trkpt lat="44.28809425937315" lon="11.612203273956846"><ele>88.0</ele><time>2026-05-03T09:22:14.001Z</time></trkpt><trkpt lat="44.28814799740557" lon="11.612346274097888"><ele>88.0</ele><time>2026-05-03T09:22:15.001Z</time></trkpt><trkpt lat="44.288199913914035" lon="11.612489090443168"><ele>88.0</ele><time>2026-05-03T09:22:16.001Z</time></trkpt><trkpt lat="44.288248483078505" lon="11.612637336479843"><ele>88.0</ele><time>2026-05-03T09:22:17.001Z</time></trkpt><trkpt lat="44.28829286064279" lon="11.612789347706398"><ele>88.0</ele><time>2026-05-03T09:22:18.002Z</time></trkpt><trkpt lat="44.28833507289089" lon="11.612940762356954"><ele>88.0</ele><time>2026-05-03T09:22:19.002Z</time></trkpt><trkpt lat="44.288377898299416" lon="11.613098378337188"><ele>88.0</ele><time>2026-05-03T09:22:20.002Z</time></trkpt><trkpt lat="44.288422024279356" lon="11.61324764623793"><ele>87.75</ele><time>2026-05-03T09:22:21.002Z</time></trkpt><trkpt lat="44.28846577654468" lon="11.613396154357405"><ele>87.5</ele><time>2026-05-03T09:22:22.002Z</time></trkpt><trkpt lat="44.288513251076715" lon="11.613542327613446"><ele>87.25</ele><time>2026-05-03T09:22:23.002Z</time></trkpt><trkpt lat="44.28855568988769" lon="11.613685325212412"><ele>87.0</ele><time>2026-05-03T09:22:24.002Z</time></trkpt><trkpt lat="44.28859760904107" lon="11.613828381882804"><ele>86.8</ele><time>2026-05-03T09:22:25.002Z</time></trkpt><trkpt lat="44.288638552506356" lon="11.613975366247157"><ele>86.6</ele><time>2026-05-03T09:22:26.002Z</time></trkpt><trkpt lat="44.28867593980719" lon="11.614119574085061"><ele>86.39999999999999</ele><time>2026-05-03T09:22:27.002Z</time></trkpt><trkpt lat="44.288716688018695" lon="11.61426637304734"><ele>86.19999999999999</ele><time>2026-05-03T09:22:28.002Z</time></trkpt><trkpt lat="44.28875557537516" lon="11.614406817642577"><ele>86.0</ele><time>2026-05-03T09:22:29.002Z</time></trkpt><trkpt lat="44.288800153663146" lon="11.614542641655772"><ele>86.0</ele><time>2026-05-03T09:22:30.002Z</time></trkpt><trkpt lat="44.288843987106944" lon="11.614677824008162"><ele>86.0</ele><time>2026-05-03T09:22:31.002Z</time></trkpt><trkpt lat="44.28889325859946" lon="11.614813644257044"><ele>86.0</ele><time>2026-05-03T09:22:32.002Z</time></trkpt><trkpt lat="44.28895230296745" lon="11.61494431862751"><ele>86.0</ele><time>2026-05-03T09:22:33.002Z</time></trkpt><trkpt lat="44.28901662762496" lon="11.615070932588667"><ele>86.0</ele><time>2026-05-03T09:22:34.002Z</time></trkpt><trkpt lat="44.289089091023875" lon="11.615190803307302"><ele>86.6</ele><time>2026-05-03T09:22:35.002Z</time></trkpt><trkpt lat="44.28916458088251" lon="11.615309308070819"><ele>87.19999999999999</ele><time>2026-05-03T09:22:36.002Z</time></trkpt><trkpt lat="44.28924517973322" lon="11.615415352002152"><ele>87.80000000000001</ele><time>2026-05-03T09:22:37.002Z</time></trkpt><trkpt lat="44.289331548529994" lon="11.615519593221787"><ele>88.4</ele><time>2026-05-03T09:22:38.002Z</time></trkpt><trkpt lat="44.289415467088055" lon="11.61561920179475"><ele>89.0</ele><time>2026-05-03T09:22:39.002Z</time></trkpt><trkpt lat="44.28950158395247" lon="11.61571415387511"><ele>89.2</ele><time>2026-05-03T09:22:40.002Z</time></trkpt><trkpt lat="44.28958482602225" lon="11.615811626464886"><ele>89.4</ele><time>2026-05-03T09:22:41.002Z</time></trkpt><trkpt lat="44.28967887810786" lon="11.615907083240845"><ele>89.6</ele><time>2026-05-03T09:22:42.002Z</time></trkpt><trkpt lat="44.289766029170934" lon="11.61600288455588"><ele>89.8</ele><time>2026-05-03T09:22:43.002Z</time></trkpt><trkpt lat="44.289849455550424" lon="11.61610595516233"><ele>90.0</ele><time>2026-05-03T09:22:44.002Z</time></trkpt><trkpt lat="44.289932583302324" lon="11.616204871342873"><ele>90.2</ele><time>2026-05-03T09:22:45.002Z</time></trkpt><trkpt lat="44.290018681224446" lon="11.616294901494516"><ele>90.4</ele><time>2026-05-03T09:22:46.002Z</time></trkpt><trkpt lat="44.290117411857" lon="11.616377829764096"><ele>90.6</ele><time>2026-05-03T09:22:47.002Z</time></trkpt><trkpt lat="44.29020939434886" lon="11.616466839162339"><ele>90.8</ele><time>2026-05-03T09:22:48.002Z</time></trkpt><trkpt lat="44.290299766904894" lon="11.616562640552246"><ele>91.0</ele><time>2026-05-03T09:22:49.002Z</time></trkpt><trkpt lat="44.290386081207686" lon="11.616657899632123"><ele>91.0</ele><time>2026-05-03T09:22:50.002Z</time></trkpt><trkpt lat="44.29047182339049" lon="11.616752126499028"><ele>91.0</ele><time>2026-05-03T09:22:51.002Z</time></trkpt><trkpt lat="44.29055724374737" lon="11.616848891365182"><ele>91.0</ele><time>2026-05-03T09:22:52.002Z</time></trkpt><trkpt lat="44.290646967131906" lon="11.616947917817813"><ele>91.0</ele><time>2026-05-03T09:22:53.002Z</time></trkpt><trkpt lat="44.29073647240074" lon="11.617046861489584"><ele>91.0</ele><time>2026-05-03T09:22:54.002Z</time></trkpt><trkpt lat="44.29082405967159" lon="11.617142545941041"><ele>90.8</ele><time>2026-05-03T09:22:55.002Z</time></trkpt><trkpt lat="44.290908234674724" lon="11.61724501164496"><ele>90.6</ele><time>2026-05-03T09:22:56.002Z</time></trkpt><trkpt lat="44.29099260159625" lon="11.61732648145961"><ele>90.4</ele><time>2026-05-03T09:22:57.002Z</time></trkpt><trkpt lat="44.29107743663755" lon="11.617422779743217"><ele>90.2</ele><time>2026-05-03T09:22:58.002Z</time></trkpt><trkpt lat="44.291161166606294" lon="11.617503843013742"><ele>90.0</ele><time>2026-05-03T09:22:59.002Z</time></trkpt><trkpt lat="44.29124097650952" lon="11.617596897609982"><ele>90.0</ele><time>2026-05-03T09:23:00.002Z</time></trkpt><trkpt lat="44.291323509290756" lon="11.617686002758667"><ele>90.0</ele><time>2026-05-03T09:23:01.002Z</time></trkpt><trkpt lat="44.29141028368054" lon="11.617769075958163"><ele>90.0</ele><time>2026-05-03T09:23:02.002Z</time></trkpt><trkpt lat="44.29149340409157" lon="11.617867041816057"><ele>90.0</ele><time>2026-05-03T09:23:03.002Z</time></trkpt><trkpt lat="44.291579346959566" lon="11.61795810887633"><ele>90.0</ele><time>2026-05-03T09:23:04.002Z</time></trkpt><trkpt lat="44.29166709081385" lon="11.618053704346933"><ele>90.2</ele><time>2026-05-03T09:23:05.002Z</time></trkpt><trkpt lat="44.29175339016446" lon="11.61815092027416"><ele>90.4</ele><time>2026-05-03T09:23:06.002Z</time></trkpt><trkpt lat="44.2918393237935" lon="11.618250486317688"><ele>90.6</ele><time>2026-05-03T09:23:07.002Z</time></trkpt><trkpt lat="44.29193016992606" lon="11.618335905716874"><ele>90.8</ele><time>2026-05-03T09:23:08.002Z</time></trkpt><trkpt lat="44.29201334124161" lon="11.618439790990983"><ele>91.0</ele><time>2026-05-03T09:23:09.002Z</time></trkpt><trkpt lat="44.29209770938186" lon="11.618535697442224"><ele>91.0</ele><time>2026-05-03T09:23:10.002Z</time></trkpt><trkpt lat="44.292181476735564" lon="11.618635955265999"><ele>91.0</ele><time>2026-05-03T09:23:11.002Z</time></trkpt><trkpt lat="44.2922644144626" lon="11.618734542118368"><ele>91.0</ele><time>2026-05-03T09:23:12.002Z</time></trkpt><trkpt lat="44.292349690639014" lon="11.61882110559222"><ele>91.0</ele><time>2026-05-03T09:23:13.002Z</time></trkpt><trkpt lat="44.29243229901607" lon="11.618914504173912"><ele>91.0</ele><time>2026-05-03T09:23:14.002Z</time></trkpt><trkpt lat="44.29251769765116" lon="11.619007229711224"><ele>91.19999999999999</ele><time>2026-05-03T09:23:15.002Z</time></trkpt><trkpt lat="44.29260623585607" lon="11.619097027137167"><ele>91.39999999999999</ele><time>2026-05-03T09:23:16.002Z</time></trkpt><trkpt lat="44.29269577974508" lon="11.619189255893144"><ele>91.6</ele><time>2026-05-03T09:23:17.002Z</time></trkpt><trkpt lat="44.29278045755998" lon="11.619284741424618"><ele>91.8</ele><time>2026-05-03T09:23:18.002Z</time></trkpt><trkpt lat="44.29286972605811" lon="11.61937923325435"><ele>92.0</ele><time>2026-05-03T09:23:19.002Z</time></trkpt><trkpt lat="44.29295538831781" lon="11.619475842231669"><ele>91.75</ele><time>2026-05-03T09:23:20.002Z</time></trkpt><trkpt lat="44.293047595850965" lon="11.619570676324763"><ele>91.5</ele><time>2026-05-03T09:23:21.002Z</time></trkpt><trkpt lat="44.29313847971074" lon="11.619670446653817"><ele>91.25</ele><time>2026-05-03T09:23:22.002Z</time></trkpt><trkpt lat="44.29323005950166" lon="11.619769155647944"><ele>91.0</ele><time>2026-05-03T09:23:23.002Z</time></trkpt><trkpt lat="44.2933192374396" lon="11.619869491102984"><ele>91.0</ele><time>2026-05-03T09:23:24.002Z</time></trkpt><trkpt lat="44.293406225147166" lon="11.619966039225293"><ele>91.0</ele><time>2026-05-03T09:23:25.002Z</time></trkpt><trkpt lat="44.293490274631104" lon="11.620055757100603"><ele>91.0</ele><time>2026-05-03T09:23:26.002Z</time></trkpt><trkpt lat="44.29357315070999" lon="11.620149325645631"><ele>91.0</ele><time>2026-05-03T09:23:27.002Z</time></trkpt><trkpt lat="44.29365597419744" lon="11.620247930122469"><ele>91.0</ele><time>2026-05-03T09:23:28.002Z</time></trkpt><trkpt lat="44.293735360298946" lon="11.620349185895831"><ele>90.19999999999999</ele><time>2026-05-03T09:23:29.002Z</time></trkpt><trkpt lat="44.29381313158541" lon="11.620449237378836"><ele>89.39999999999999</ele><time>2026-05-03T09:23:30.002Z</time></trkpt><trkpt lat="44.29388960796815" lon="11.62056026604408"><ele>88.6</ele><time>2026-05-03T09:23:31.002Z</time></trkpt><trkpt lat="44.293962324066925" lon="11.620670745917547"><ele>87.8</ele><time>2026-05-03T09:23:32.002Z</time></trkpt><trkpt lat="44.294032129586206" lon="11.620781543233395"><ele>87.0</ele><time>2026-05-03T09:23:33.002Z</time></trkpt><trkpt lat="44.29409891862145" lon="11.620897246366267"><ele>88.19999999999999</ele><time>2026-05-03T09:23:34.002Z</time></trkpt><trkpt lat="44.29416358835481" lon="11.621017213578892"><ele>89.4</ele><time>2026-05-03T09:23:35.002Z</time></trkpt><trkpt lat="44.29422857027626" lon="11.621142664101827"><ele>90.6</ele><time>2026-05-03T09:23:36.002Z</time></trkpt><trkpt lat="44.2942937010605" lon="11.621265003744265"><ele>91.80000000000001</ele><time>2026-05-03T09:23:37.002Z</time></trkpt><trkpt lat="44.294361974578074" lon="11.621385668830582"><ele>93.0</ele><time>2026-05-03T09:23:38.002Z</time></trkpt><trkpt lat="44.294431253129474" lon="11.621507728463872"><ele>93.0</ele><time>2026-05-03T09:23:39.002Z</time></trkpt><trkpt lat="44.29450543696983" lon="11.621623529657414"><ele>93.0</ele><time>2026-05-03T09:23:40.002Z</time></trkpt><trkpt lat="44.29457314918895" lon="11.621740666330837"><ele>93.0</ele><time>2026-05-03T09:23:41.002Z</time></trkpt><trkpt lat="44.29463961658257" lon="11.621859516305742"><ele>93.0</ele><time>2026-05-03T09:23:42.002Z</time></trkpt><trkpt lat="44.29470694072292" lon="11.621977014356279"><ele>93.0</ele><time>2026-05-03T09:23:43.002Z</time></trkpt><trkpt lat="44.29476818141658" lon="11.622094484802432"><ele>93.2</ele><time>2026-05-03T09:23:44.002Z</time></trkpt><trkpt lat="44.29483557077283" lon="11.622205510555709"><ele>93.4</ele><time>2026-05-03T09:23:45.002Z</time></trkpt><trkpt lat="44.294901304926164" lon="11.622329539097189"><ele>93.60000000000001</ele><time>2026-05-03T09:23:46.002Z</time></trkpt><trkpt lat="44.29497042632976" lon="11.62244030380362"><ele>93.80000000000001</ele><time>2026-05-03T09:23:47.002Z</time></trkpt><trkpt lat="44.29503513815748" lon="11.622559469350835"><ele>94.0</ele><time>2026-05-03T09:23:48.002Z</time></trkpt><trkpt lat="44.29510015567449" lon="11.622663417916764"><ele>94.0</ele><time>2026-05-03T09:23:49.002Z</time></trkpt><trkpt lat="44.29516433811953" lon="11.622782248020325"><ele>94.0</ele><time>2026-05-03T09:23:50.002Z</time></trkpt><trkpt lat="44.29522797267998" lon="11.62290404916204"><ele>94.0</ele><time>2026-05-03T09:23:51.002Z</time></trkpt><trkpt lat="44.29529328448162" lon="11.623022157945819"><ele>94.0</ele><time>2026-05-03T09:23:52.003Z</time></trkpt><trkpt lat="44.295360914965904" lon="11.623142284310795"><ele>94.0</ele><time>2026-05-03T09:23:53.003Z</time></trkpt><trkpt lat="44.295424738810354" lon="11.62325046661752"><ele>93.80000000000001</ele><time>2026-05-03T09:23:54.003Z</time></trkpt><trkpt lat="44.29548596216746" lon="11.623373061984303"><ele>93.60000000000001</ele><time>2026-05-03T09:23:55.003Z</time></trkpt><trkpt lat="44.295546042643906" lon="11.623487297513524"><ele>93.4</ele><time>2026-05-03T09:23:56.003Z</time></trkpt><trkpt lat="44.29560549677357" lon="11.623607329719423"><ele>93.2</ele><time>2026-05-03T09:23:57.003Z</time></trkpt><trkpt lat="44.29566890930379" lon="11.623725739673018"><ele>93.0</ele><time>2026-05-03T09:23:58.003Z</time></trkpt><trkpt lat="44.29573438966615" lon="11.623842902917799"><ele>92.0</ele><time>2026-05-03T09:23:59.003Z</time></trkpt><trkpt lat="44.29579885852451" lon="11.623964563161513"><ele>91.0</ele><time>2026-05-03T09:24:00.003Z</time></trkpt><trkpt lat="44.29586398119869" lon="11.624077564561714"><ele>90.0</ele><time>2026-05-03T09:24:01.003Z</time></trkpt><trkpt lat="44.295933544176414" lon="11.624199606150247"><ele>89.0</ele><time>2026-05-03T09:24:02.003Z</time></trkpt><trkpt lat="44.29600136803952" lon="11.624324213049702"><ele>88.0</ele><time>2026-05-03T09:24:03.003Z</time></trkpt><trkpt lat="44.29606891085532" lon="11.624450924688144"><ele>87.2</ele><time>2026-05-03T09:24:04.003Z</time></trkpt><trkpt lat="44.29613681176432" lon="11.624576945844279"><ele>86.4</ele><time>2026-05-03T09:24:05.003Z</time></trkpt><trkpt lat="44.29620424922248" lon="11.62470036893068"><ele>85.60000000000001</ele><time>2026-05-03T09:24:06.003Z</time></trkpt><trkpt lat="44.29626883451434" lon="11.624829988629482"><ele>84.80000000000001</ele><time>2026-05-03T09:24:07.003Z</time></trkpt><trkpt lat="44.296335785857956" lon="11.62494334963456"><ele>84.0</ele><time>2026-05-03T09:24:08.003Z</time></trkpt><trkpt lat="44.29639541154068" lon="11.625069007187665"><ele>83.6</ele><time>2026-05-03T09:24:09.003Z</time></trkpt><trkpt lat="44.29645859115757" lon="11.62519524387677"><ele>83.2</ele><time>2026-05-03T09:24:10.003Z</time></trkpt><trkpt lat="44.29652341233583" lon="11.625317582193901"><ele>82.8</ele><time>2026-05-03T09:24:11.003Z</time></trkpt><trkpt lat="44.296586133697865" lon="11.625443938876051"><ele>82.39999999999999</ele><time>2026-05-03T09:24:12.003Z</time></trkpt><trkpt lat="44.29664762108435" lon="11.625565942818598"><ele>82.0</ele><time>2026-05-03T09:24:13.003Z</time></trkpt><trkpt lat="44.2967033650794" lon="11.62569769369307"><ele>82.0</ele><time>2026-05-03T09:24:14.003Z</time></trkpt><trkpt lat="44.29675938083755" lon="11.625840182965574"><ele>82.0</ele><time>2026-05-03T09:24:15.003Z</time></trkpt><trkpt lat="44.29681196004907" lon="11.62597629084163"><ele>82.0</ele><time>2026-05-03T09:24:16.003Z</time></trkpt><trkpt lat="44.29686550443796" lon="11.626113709259982"><ele>82.0</ele><time>2026-05-03T09:24:17.003Z</time></trkpt><trkpt lat="44.29691720957307" lon="11.626231558632066"><ele>82.0</ele><time>2026-05-03T09:24:18.003Z</time></trkpt><trkpt lat="44.29696723628015" lon="11.62636218160412"><ele>81.39999999999999</ele><time>2026-05-03T09:24:19.003Z</time></trkpt><trkpt lat="44.29701459832835" lon="11.626492260317413"><ele>80.8</ele><time>2026-05-03T09:24:20.003Z</time></trkpt><trkpt lat="44.29706582604381" lon="11.62660868752941"><ele>80.2</ele><time>2026-05-03T09:24:21.003Z</time></trkpt><trkpt lat="44.297118378560995" lon="11.626730254242148"><ele>79.6</ele><time>2026-05-03T09:24:22.003Z</time></trkpt><trkpt lat="44.29717135817945" lon="11.626853042552835"><ele>79.0</ele><time>2026-05-03T09:24:23.003Z</time></trkpt><trkpt lat="44.29722359628477" lon="11.626981240186915"><ele>78.60000000000001</ele><time>2026-05-03T09:24:24.003Z</time></trkpt><trkpt lat="44.297276696863925" lon="11.627110817337055"><ele>78.2</ele><time>2026-05-03T09:24:25.003Z</time></trkpt><trkpt lat="44.2973306492433" lon="11.627239596584747"><ele>77.80000000000001</ele><time>2026-05-03T09:24:26.003Z</time></trkpt><trkpt lat="44.29738648957588" lon="11.627373096805002"><ele>77.4</ele><time>2026-05-03T09:24:27.003Z</time></trkpt><trkpt lat="44.29744222657935" lon="11.627509216642942"><ele>77.0</ele><time>2026-05-03T09:24:28.003Z</time></trkpt><trkpt lat="44.29749812137648" lon="11.627632354865025"><ele>77.0</ele><time>2026-05-03T09:24:29.003Z</time></trkpt><trkpt lat="44.297557201565624" lon="11.627765975787035"><ele>77.0</ele><time>2026-05-03T09:24:30.003Z</time></trkpt><trkpt lat="44.297610656761265" lon="11.62790076571574"><ele>77.0</ele><time>2026-05-03T09:24:31.003Z</time></trkpt><trkpt lat="44.29766298907907" lon="11.628034278210558"><ele>77.0</ele><time>2026-05-03T09:24:32.003Z</time></trkpt><trkpt lat="44.297714060959144" lon="11.628165585602487"><ele>77.0</ele><time>2026-05-03T09:24:33.003Z</time></trkpt><trkpt lat="44.297770141061434" lon="11.628295062963831"><ele>77.2</ele><time>2026-05-03T09:24:34.003Z</time></trkpt><trkpt lat="44.297827081957934" lon="11.628422877619874"><ele>77.4</ele><time>2026-05-03T09:24:35.003Z</time></trkpt><trkpt lat="44.2978827925602" lon="11.628552071209969"><ele>77.6</ele><time>2026-05-03T09:24:36.003Z</time></trkpt><trkpt lat="44.29794072797754" lon="11.628680247745336"><ele>77.8</ele><time>2026-05-03T09:24:37.003Z</time></trkpt><trkpt lat="44.297996612873185" lon="11.628810021210521"><ele>78.0</ele><time>2026-05-03T09:24:38.003Z</time></trkpt><trkpt lat="44.29805452796524" lon="11.628934471236875"><ele>77.6</ele><time>2026-05-03T09:24:39.003Z</time></trkpt><trkpt lat="44.29811036724676" lon="11.629064951714017"><ele>77.19999999999999</ele><time>2026-05-03T09:24:40.003Z</time></trkpt><trkpt lat="44.298167541582565" lon="11.629194732247571"><ele>76.8</ele><time>2026-05-03T09:24:41.003Z</time></trkpt><trkpt lat="44.29822281861987" lon="11.629330861095127"><ele>76.39999999999999</ele><time>2026-05-03T09:24:42.003Z</time></trkpt><trkpt lat="44.29827897541578" lon="11.629461321711462"><ele>76.0</ele><time>2026-05-03T09:24:43.003Z</time></trkpt><trkpt lat="44.29833436124473" lon="11.62959449297167"><ele>75.5</ele><time>2026-05-03T09:24:44.003Z</time></trkpt><trkpt lat="44.29839265744951" lon="11.62972775280044"><ele>75.0</ele><time>2026-05-03T09:24:45.003Z</time></trkpt><trkpt lat="44.298449676704216" lon="11.629863752733579"><ele>74.5</ele><time>2026-05-03T09:24:46.003Z</time></trkpt><trkpt lat="44.29850730582519" lon="11.630007806758476"><ele>74.0</ele><time>2026-05-03T09:24:47.003Z</time></trkpt><trkpt lat="44.298569217829694" lon="11.63014166393468"><ele>74.0</ele><time>2026-05-03T09:24:48.003Z</time></trkpt><trkpt lat="44.29863108557889" lon="11.63027828198832"><ele>74.0</ele><time>2026-05-03T09:24:49.003Z</time></trkpt><trkpt lat="44.29868888094536" lon="11.630415503997853"><ele>74.0</ele><time>2026-05-03T09:24:50.003Z</time></trkpt><trkpt lat="44.29874633687576" lon="11.630557693715863"><ele>74.0</ele><time>2026-05-03T09:24:51.003Z</time></trkpt><trkpt lat="44.2988066050807" lon="11.630697856827435"><ele>74.0</ele><time>2026-05-03T09:24:52.003Z</time></trkpt><trkpt lat="44.29886760443781" lon="11.63083493679846"><ele>74.0</ele><time>2026-05-03T09:24:53.003Z</time></trkpt><trkpt lat="44.29892439541059" lon="11.630980412222225"><ele>74.0</ele><time>2026-05-03T09:24:54.003Z</time></trkpt><trkpt lat="44.29898157906127" lon="11.631120290332793"><ele>74.0</ele><time>2026-05-03T09:24:55.003Z</time></trkpt><trkpt lat="44.299039619649044" lon="11.631256295708512"><ele>74.2</ele><time>2026-05-03T09:24:56.003Z</time></trkpt><trkpt lat="44.29909794351599" lon="11.631392233401709"><ele>74.4</ele><time>2026-05-03T09:24:57.003Z</time></trkpt><trkpt lat="44.29915785940145" lon="11.63152816543127"><ele>74.6</ele><time>2026-05-03T09:24:58.003Z</time></trkpt><trkpt lat="44.299217563257066" lon="11.631654177063275"><ele>74.8</ele><time>2026-05-03T09:24:59.003Z</time></trkpt><trkpt lat="44.29927513090124" lon="11.631782536675935"><ele>75.0</ele><time>2026-05-03T09:25:00.003Z</time></trkpt><trkpt lat="44.299333174019196" lon="11.631912761873517"><ele>74.5</ele><time>2026-05-03T09:25:01.003Z</time></trkpt><trkpt lat="44.29938903703935" lon="11.632045449052088"><ele>74.0</ele><time>2026-05-03T09:25:02.003Z</time></trkpt><trkpt lat="44.299444247241084" lon="11.632182253009933"><ele>73.5</ele><time>2026-05-03T09:25:03.003Z</time></trkpt><trkpt lat="44.29950015021185" lon="11.632324337803313"><ele>73.0</ele><time>2026-05-03T09:25:04.003Z</time></trkpt><trkpt lat="44.29955904655199" lon="11.632456390876909"><ele>73.0</ele><time>2026-05-03T09:25:05.003Z</time></trkpt><trkpt lat="44.299616525948764" lon="11.63260184627851"><ele>73.0</ele><time>2026-05-03T09:25:06.003Z</time></trkpt><trkpt lat="44.299675209382585" lon="11.632742404030969"><ele>73.0</ele><time>2026-05-03T09:25:07.003Z</time></trkpt><trkpt lat="44.29973567848048" lon="11.632885757020178"><ele>73.0</ele><time>2026-05-03T09:25:08.003Z</time></trkpt><trkpt lat="44.2997940397555" lon="11.633030627291914"><ele>72.75</ele><time>2026-05-03T09:25:09.003Z</time></trkpt><trkpt lat="44.299852098434506" lon="11.633174252166828"><ele>72.5</ele><time>2026-05-03T09:25:10.003Z</time></trkpt><trkpt lat="44.299910234823436" lon="11.633313326997456"><ele>72.25</ele><time>2026-05-03T09:25:11.003Z</time></trkpt><trkpt lat="44.29996885802467" lon="11.633455304245063"><ele>72.0</ele><time>2026-05-03T09:25:12.003Z</time></trkpt><trkpt lat="44.30002749667707" lon="11.633591823015184"><ele>72.0</ele><time>2026-05-03T09:25:13.003Z</time></trkpt><trkpt lat="44.30008737818363" lon="11.633729602259878"><ele>72.0</ele><time>2026-05-03T09:25:14.003Z</time></trkpt><trkpt lat="44.30015036433983" lon="11.63385897724461"><ele>72.0</ele><time>2026-05-03T09:25:15.003Z</time></trkpt><trkpt lat="44.30021692359006" lon="11.633983568789583"><ele>72.0</ele><time>2026-05-03T09:25:16.003Z</time></trkpt><trkpt lat="44.300290517904855" lon="11.634100185488103"><ele>72.0</ele><time>2026-05-03T09:25:17.003Z</time></trkpt><trkpt lat="44.30037001374611" lon="11.634208134914285"><ele>72.0</ele><time>2026-05-03T09:25:18.003Z</time></trkpt><trkpt lat="44.30045171240508" lon="11.634317516526101"><ele>72.0</ele><time>2026-05-03T09:25:19.003Z</time></trkpt><trkpt lat="44.300535989100474" lon="11.63442395286267"><ele>72.0</ele><time>2026-05-03T09:25:20.003Z</time></trkpt><trkpt lat="44.30061882050334" lon="11.6345284609529"><ele>72.0</ele><time>2026-05-03T09:25:21.003Z</time></trkpt><trkpt lat="44.30070059496719" lon="11.634626099393879"><ele>72.0</ele><time>2026-05-03T09:25:22.003Z</time></trkpt><trkpt lat="44.30078733391379" lon="11.634709395898968"><ele>72.0</ele><time>2026-05-03T09:25:23.003Z</time></trkpt><trkpt lat="44.300876588241934" lon="11.63478724856152"><ele>72.0</ele><time>2026-05-03T09:25:24.003Z</time></trkpt><trkpt lat="44.30096723622252" lon="11.634847208671156"><ele>72.0</ele><time>2026-05-03T09:25:25.003Z</time></trkpt><trkpt lat="44.30106290905967" lon="11.634896350748315"><ele>72.0</ele><time>2026-05-03T09:25:26.004Z</time></trkpt><trkpt lat="44.30116194977783" lon="11.634934500197943"><ele>72.0</ele><time>2026-05-03T09:25:27.004Z</time></trkpt><trkpt lat="44.30126487260645" lon="11.634969957503882"><ele>72.0</ele><time>2026-05-03T09:25:28.004Z</time></trkpt><trkpt lat="44.301368899225096" lon="11.63500834510447"><ele>72.0</ele><time>2026-05-03T09:25:29.004Z</time></trkpt><trkpt lat="44.30147681771634" lon="11.635044410836757"><ele>72.0</ele><time>2026-05-03T09:25:30.004Z</time></trkpt><trkpt lat="44.30158367933711" lon="11.635087593996316"><ele>72.0</ele><time>2026-05-03T09:25:31.004Z</time></trkpt><trkpt lat="44.30169047519154" lon="11.635125626238873"><ele>72.2</ele><time>2026-05-03T09:25:32.004Z</time></trkpt><trkpt lat="44.301798930195226" lon="11.635163407904257"><ele>72.4</ele><time>2026-05-03T09:25:33.004Z</time></trkpt><trkpt lat="44.30190759590731" lon="11.635203105158398"><ele>72.6</ele><time>2026-05-03T09:25:34.004Z</time></trkpt><trkpt lat="44.30201193216732" lon="11.635239590133367"><ele>72.8</ele><time>2026-05-03T09:25:35.004Z</time></trkpt><trkpt lat="44.30211753847017" lon="11.635270329004404"><ele>73.0</ele><time>2026-05-03T09:25:36.004Z</time></trkpt><trkpt lat="44.302220920889" lon="11.635303254812415"><ele>73.0</ele><time>2026-05-03T09:25:37.004Z</time></trkpt><trkpt lat="44.30232430556435" lon="11.635334938168214"><ele>73.0</ele><time>2026-05-03T09:25:38.004Z</time></trkpt><trkpt lat="44.302426851133454" lon="11.635375972393842"><ele>73.0</ele><time>2026-05-03T09:25:39.004Z</time></trkpt><trkpt lat="44.30252424340818" lon="11.635404567663443"><ele>73.0</ele><time>2026-05-03T09:25:40.004Z</time></trkpt><trkpt lat="44.30262056942712" lon="11.63543347996203"><ele>73.0</ele><time>2026-05-03T09:25:41.004Z</time></trkpt><trkpt lat="44.30271367412363" lon="11.635486773761818"><ele>73.0</ele><time>2026-05-03T09:25:42.004Z</time></trkpt><trkpt lat="44.302813587431714" lon="11.635527035516315"><ele>73.0</ele><time>2026-05-03T09:25:43.004Z</time></trkpt><trkpt lat="44.30291396783316" lon="11.635565168773876"><ele>73.0</ele><time>2026-05-03T09:25:44.004Z</time></trkpt><trkpt lat="44.30300792174055" lon="11.635603748250093"><ele>73.0</ele><time>2026-05-03T09:25:45.004Z</time></trkpt><trkpt lat="44.30310066738331" lon="11.635633982008683"><ele>73.0</ele><time>2026-05-03T09:25:46.004Z</time></trkpt><trkpt lat="44.303203739709694" lon="11.63567144698498"><ele>73.6</ele><time>2026-05-03T09:25:47.004Z</time></trkpt><trkpt lat="44.30329615844277" lon="11.635706909239564"><ele>74.19999999999999</ele><time>2026-05-03T09:25:48.004Z</time></trkpt><trkpt lat="44.30339106555184" lon="11.63573885441327"><ele>74.8</ele><time>2026-05-03T09:25:49.004Z</time></trkpt><trkpt lat="44.30347623891624" lon="11.63576506158127"><ele>75.39999999999999</ele><time>2026-05-03T09:25:50.004Z</time></trkpt><trkpt lat="44.30356408970423" lon="11.635797710633888"><ele>76.0</ele><time>2026-05-03T09:25:51.004Z</time></trkpt><trkpt lat="44.30365430699456" lon="11.635831653992907"><ele>76.0</ele><time>2026-05-03T09:25:52.004Z</time></trkpt><trkpt lat="44.30374675142393" lon="11.635859029950591"><ele>76.0</ele><time>2026-05-03T09:25:53.004Z</time></trkpt><trkpt lat="44.303841387510566" lon="11.63589835441952"><ele>76.0</ele><time>2026-05-03T09:25:54.004Z</time></trkpt><trkpt lat="44.30393600780201" lon="11.63593865006671"><ele>76.0</ele><time>2026-05-03T09:25:55.004Z</time></trkpt><trkpt lat="44.304026527300145" lon="11.635990940724897"><ele>76.0</ele><time>2026-05-03T09:25:56.004Z</time></trkpt><trkpt lat="44.30410924612078" lon="11.636061553279527"><ele>76.0</ele><time>2026-05-03T09:25:57.004Z</time></trkpt><trkpt lat="44.30419355666733" lon="11.636142127777864"><ele>76.0</ele><time>2026-05-03T09:25:58.004Z</time></trkpt><trkpt lat="44.30427933353033" lon="11.636232577966034"><ele>76.0</ele><time>2026-05-03T09:25:59.004Z</time></trkpt><trkpt lat="44.304363916341245" lon="11.636324872787215"><ele>76.0</ele><time>2026-05-03T09:26:00.004Z</time></trkpt><trkpt lat="44.304444568012826" lon="11.636425877113263"><ele>76.0</ele><time>2026-05-03T09:26:01.004Z</time></trkpt><trkpt lat="44.304529725695595" lon="11.636522291047664"><ele>76.0</ele><time>2026-05-03T09:26:02.004Z</time></trkpt><trkpt lat="44.30460985924168" lon="11.636629775581426"><ele>76.0</ele><time>2026-05-03T09:26:03.004Z</time></trkpt><trkpt lat="44.30469544569237" lon="11.636728539388935"><ele>76.0</ele><time>2026-05-03T09:26:04.004Z</time></trkpt><trkpt lat="44.30477707122815" lon="11.636836178335823"><ele>76.0</ele><time>2026-05-03T09:26:05.004Z</time></trkpt><trkpt lat="44.304859650279745" lon="11.636939914533388"><ele>76.0</ele><time>2026-05-03T09:26:06.004Z</time></trkpt><trkpt lat="44.30494114330164" lon="11.637052304775422"><ele>75.75</ele><time>2026-05-03T09:26:07.004Z</time></trkpt><trkpt lat="44.30502331506491" lon="11.637163489000407"><ele>75.5</ele><time>2026-05-03T09:26:08.004Z</time></trkpt><trkpt lat="44.30510888862612" lon="11.6372687830142"><ele>75.25</ele><time>2026-05-03T09:26:09.004Z</time></trkpt><trkpt lat="44.3051939061802" lon="11.637381933811639"><ele>75.0</ele><time>2026-05-03T09:26:10.004Z</time></trkpt><trkpt lat="44.30528473775034" lon="11.637487939466796"><ele>75.0</ele><time>2026-05-03T09:26:11.004Z</time></trkpt><trkpt lat="44.305371562070825" lon="11.63759415011493"><ele>75.0</ele><time>2026-05-03T09:26:12.004Z</time></trkpt><trkpt lat="44.30546207002112" lon="11.637689427209315"><ele>75.0</ele><time>2026-05-03T09:26:13.004Z</time></trkpt><trkpt lat="44.30555688059475" lon="11.637775239615861"><ele>75.0</ele><time>2026-05-03T09:26:14.004Z</time></trkpt><trkpt lat="44.3056601925701" lon="11.637849001481879"><ele>75.2</ele><time>2026-05-03T09:26:15.004Z</time></trkpt><trkpt lat="44.30576451691193" lon="11.637909728653907"><ele>75.4</ele><time>2026-05-03T09:26:16.004Z</time></trkpt><trkpt lat="44.30586834985117" lon="11.637968444415538"><ele>75.6</ele><time>2026-05-03T09:26:17.004Z</time></trkpt><trkpt lat="44.30597272762698" lon="11.638029901810954"><ele>75.8</ele><time>2026-05-03T09:26:18.004Z</time></trkpt><trkpt lat="44.30607568374135" lon="11.638084255494274"><ele>76.0</ele><time>2026-05-03T09:26:19.004Z</time></trkpt><trkpt lat="44.306177962444515" lon="11.63814408892716"><ele>76.0</ele><time>2026-05-03T09:26:20.004Z</time></trkpt><trkpt lat="44.3062779560565" lon="11.638207028727138"><ele>76.0</ele><time>2026-05-03T09:26:21.004Z</time></trkpt><trkpt lat="44.30637625866364" lon="11.63826131980424"><ele>76.0</ele><time>2026-05-03T09:26:22.004Z</time></trkpt><trkpt lat="44.30646995241895" lon="11.638308753777773"><ele>76.0</ele><time>2026-05-03T09:26:23.004Z</time></trkpt><trkpt lat="44.306566481041244" lon="11.638352167076311"><ele>76.0</ele><time>2026-05-03T09:26:24.004Z</time></trkpt><trkpt lat="44.30666465848664" lon="11.638404986835603"><ele>75.39999999999999</ele><time>2026-05-03T09:26:25.004Z</time></trkpt><trkpt lat="44.30676052178011" lon="11.638451052200272"><ele>74.8</ele><time>2026-05-03T09:26:26.004Z</time></trkpt><trkpt lat="44.30686034252402" lon="11.638507082838117"><ele>74.19999999999999</ele><time>2026-05-03T09:26:27.004Z</time></trkpt><trkpt lat="44.30696128886255" lon="11.638562008914365"><ele>73.6</ele><time>2026-05-03T09:26:28.004Z</time></trkpt><trkpt lat="44.30706019441108" lon="11.638616134325861"><ele>73.0</ele><time>2026-05-03T09:26:29.004Z</time></trkpt><trkpt lat="44.30715819862934" lon="11.638672014281955"><ele>72.8</ele><time>2026-05-03T09:26:30.004Z</time></trkpt><trkpt lat="44.307256778992645" lon="11.638729623262758"><ele>72.6</ele><time>2026-05-03T09:26:31.004Z</time></trkpt><trkpt lat="44.307353609480295" lon="11.638787581237452"><ele>72.4</ele><time>2026-05-03T09:26:32.004Z</time></trkpt><trkpt lat="44.30745102340032" lon="11.638848863622247"><ele>72.2</ele><time>2026-05-03T09:26:33.004Z</time></trkpt><trkpt lat="44.30754676172854" lon="11.638918942117911"><ele>72.0</ele><time>2026-05-03T09:26:34.004Z</time></trkpt><trkpt lat="44.307643015086676" lon="11.638995816707876"><ele>72.0</ele><time>2026-05-03T09:26:35.004Z</time></trkpt><trkpt lat="44.30773681495215" lon="11.639074097422146"><ele>72.0</ele><time>2026-05-03T09:26:36.004Z</time></trkpt><trkpt lat="44.307829157554785" lon="11.639155706460198"><ele>72.0</ele><time>2026-05-03T09:26:37.004Z</time></trkpt><trkpt lat="44.30792023853944" lon="11.63923510007583"><ele>72.0</ele><time>2026-05-03T09:26:38.004Z</time></trkpt><trkpt lat="44.30801097399364" lon="11.639314526149406"><ele>72.0</ele><time>2026-05-03T09:26:39.004Z</time></trkpt><trkpt lat="44.30810129799859" lon="11.63939732969865"><ele>71.6</ele><time>2026-05-03T09:26:40.004Z</time></trkpt><trkpt lat="44.30819114433699" lon="11.639477528533838"><ele>71.2</ele><time>2026-05-03T09:26:41.004Z</time></trkpt><trkpt lat="44.30828246720057" lon="11.639555098370389"><ele>70.8</ele><time>2026-05-03T09:26:42.004Z</time></trkpt><trkpt lat="44.308371007700586" lon="11.639635076557717"><ele>70.4</ele><time>2026-05-03T09:26:43.004Z</time></trkpt><trkpt lat="44.308461088366535" lon="11.639721873189407"><ele>70.0</ele><time>2026-05-03T09:26:44.004Z</time></trkpt><trkpt lat="44.308541617256715" lon="11.63980725653512"><ele>70.0</ele><time>2026-05-03T09:26:45.004Z</time></trkpt><trkpt lat="44.30862322896596" lon="11.639892519546727"><ele>70.0</ele><time>2026-05-03T09:26:46.004Z</time></trkpt><trkpt lat="44.30870111457841" lon="11.639994547550872"><ele>70.0</ele><time>2026-05-03T09:26:47.004Z</time></trkpt><trkpt lat="44.30877455518744" lon="11.640112051787545"><ele>70.0</ele><time>2026-05-03T09:26:48.004Z</time></trkpt><trkpt lat="44.30885714276145" lon="11.640219261482612"><ele>70.0</ele><time>2026-05-03T09:26:49.004Z</time></trkpt><trkpt lat="44.3089354684245" lon="11.640326815442213"><ele>70.4</ele><time>2026-05-03T09:26:50.004Z</time></trkpt><trkpt lat="44.30900696716474" lon="11.64044285013306"><ele>70.8</ele><time>2026-05-03T09:26:51.004Z</time></trkpt><trkpt lat="44.30907625277872" lon="11.640555632040913"><ele>71.2</ele><time>2026-05-03T09:26:52.004Z</time></trkpt><trkpt lat="44.30914503184859" lon="11.640675200300553"><ele>71.6</ele><time>2026-05-03T09:26:53.004Z</time></trkpt><trkpt lat="44.309215510867844" lon="11.640788850432921"><ele>72.0</ele><time>2026-05-03T09:26:54.004Z</time></trkpt><trkpt lat="44.309283396592264" lon="11.64091127849153"><ele>72.0</ele><time>2026-05-03T09:26:55.004Z</time></trkpt><trkpt lat="44.3093581496984" lon="11.641019288179699"><ele>72.0</ele><time>2026-05-03T09:26:56.004Z</time></trkpt><trkpt lat="44.30942470527383" lon="11.641151278162726"><ele>72.0</ele><time>2026-05-03T09:26:57.004Z</time></trkpt><trkpt lat="44.30948900011249" lon="11.641273641398216"><ele>72.0</ele><time>2026-05-03T09:26:58.004Z</time></trkpt><trkpt lat="44.30956109168208" lon="11.641382472610175"><ele>72.0</ele><time>2026-05-03T09:26:59.004Z</time></trkpt><trkpt lat="44.30963305819197" lon="11.641491873698746"><ele>72.2</ele><time>2026-05-03T09:27:00.005Z</time></trkpt><trkpt lat="44.30969719500543" lon="11.641615826670304"><ele>72.4</ele><time>2026-05-03T09:27:01.005Z</time></trkpt><trkpt lat="44.30976707714408" lon="11.641727927699797"><ele>72.6</ele><time>2026-05-03T09:27:02.005Z</time></trkpt><trkpt lat="44.3098346246858" lon="11.641844820320985"><ele>72.8</ele><time>2026-05-03T09:27:03.005Z</time></trkpt><trkpt lat="44.309906859758634" lon="11.641963580247245"><ele>73.0</ele><time>2026-05-03T09:27:04.005Z</time></trkpt><trkpt lat="44.30997563444291" lon="11.642082296326299"><ele>72.4</ele><time>2026-05-03T09:27:05.005Z</time></trkpt><trkpt lat="44.310043774001585" lon="11.64218708555244"><ele>71.8</ele><time>2026-05-03T09:27:06.005Z</time></trkpt><trkpt lat="44.310111289535584" lon="11.642300374564213"><ele>71.2</ele><time>2026-05-03T09:27:07.005Z</time></trkpt><trkpt lat="44.310180230183526" lon="11.642411002506833"><ele>70.6</ele><time>2026-05-03T09:27:08.005Z</time></trkpt><trkpt lat="44.310249114716314" lon="11.642514780500704"><ele>70.0</ele><time>2026-05-03T09:27:09.005Z</time></trkpt><trkpt lat="44.31031454788468" lon="11.642628941858431"><ele>70.0</ele><time>2026-05-03T09:27:10.005Z</time></trkpt><trkpt lat="44.31038363853212" lon="11.64273618113461"><ele>70.0</ele><time>2026-05-03T09:27:11.005Z</time></trkpt><trkpt lat="44.31045239073233" lon="11.642839364837554"><ele>70.0</ele><time>2026-05-03T09:27:12.005Z</time></trkpt><trkpt lat="44.31052064830883" lon="11.642946891272212"><ele>70.0</ele><time>2026-05-03T09:27:13.005Z</time></trkpt><trkpt lat="44.31058694176939" lon="11.643065174729468"><ele>70.0</ele><time>2026-05-03T09:27:14.005Z</time></trkpt><trkpt lat="44.310653172114925" lon="11.643173333470326"><ele>70.4</ele><time>2026-05-03T09:27:15.005Z</time></trkpt><trkpt lat="44.31072088499282" lon="11.643278066729808"><ele>70.8</ele><time>2026-05-03T09:27:16.005Z</time></trkpt><trkpt lat="44.31078939008426" lon="11.64339899035013"><ele>71.2</ele><time>2026-05-03T09:27:17.005Z</time></trkpt><trkpt lat="44.310858892263255" lon="11.643512922827464"><ele>71.6</ele><time>2026-05-03T09:27:18.005Z</time></trkpt><trkpt lat="44.31092999244632" lon="11.643632987374872"><ele>72.0</ele><time>2026-05-03T09:27:19.005Z</time></trkpt><trkpt lat="44.31100101349685" lon="11.643747615193867"><ele>72.0</ele><time>2026-05-03T09:27:20.005Z</time></trkpt><trkpt lat="44.31107434177634" lon="11.643866868174808"><ele>72.0</ele><time>2026-05-03T09:27:21.005Z</time></trkpt><trkpt lat="44.31114924741619" lon="11.643985534284253"><ele>72.0</ele><time>2026-05-03T09:27:22.005Z</time></trkpt><trkpt lat="44.31122476211283" lon="11.64411008830058"><ele>72.0</ele><time>2026-05-03T09:27:23.005Z</time></trkpt><trkpt lat="44.31129760889083" lon="11.644232521059754"><ele>72.0</ele><time>2026-05-03T09:27:24.005Z</time></trkpt><trkpt lat="44.311372238985385" lon="11.64435554009429"><ele>72.0</ele><time>2026-05-03T09:27:25.005Z</time></trkpt><trkpt lat="44.311450377098375" lon="11.644481636881215"><ele>72.0</ele><time>2026-05-03T09:27:26.005Z</time></trkpt><trkpt lat="44.31152380310875" lon="11.644609043741593"><ele>72.0</ele><time>2026-05-03T09:27:27.005Z</time></trkpt><trkpt lat="44.31160027163866" lon="11.644731895667228"><ele>72.0</ele><time>2026-05-03T09:27:28.005Z</time></trkpt><trkpt lat="44.31167539910414" lon="11.644853614553222"><ele>72.0</ele><time>2026-05-03T09:27:29.005Z</time></trkpt><trkpt lat="44.31175352766274" lon="11.644968603719999"><ele>72.0</ele><time>2026-05-03T09:27:30.005Z</time></trkpt><trkpt lat="44.31182961910436" lon="11.645092974285044"><ele>72.0</ele><time>2026-05-03T09:27:31.005Z</time></trkpt><trkpt lat="44.311903981149996" lon="11.645216679131083"><ele>71.5</ele><time>2026-05-03T09:27:32.005Z</time></trkpt><trkpt lat="44.31197777357183" lon="11.64533735492272"><ele>71.0</ele><time>2026-05-03T09:27:33.005Z</time></trkpt><trkpt lat="44.312050740473474" lon="11.645458016035521"><ele>70.5</ele><time>2026-05-03T09:27:34.005Z</time></trkpt><trkpt lat="44.31212442938756" lon="11.645576697190153"><ele>70.0</ele><time>2026-05-03T09:27:35.005Z</time></trkpt><trkpt lat="44.31219907479126" lon="11.645694683831202"><ele>70.25</ele><time>2026-05-03T09:27:36.005Z</time></trkpt><trkpt lat="44.31227494104549" lon="11.645824766343384"><ele>70.5</ele><time>2026-05-03T09:27:37.005Z</time></trkpt><trkpt lat="44.31235151072487" lon="11.645942010064969"><ele>70.75</ele><time>2026-05-03T09:27:38.005Z</time></trkpt><trkpt lat="44.31242341589399" lon="11.646065994508044"><ele>71.0</ele><time>2026-05-03T09:27:39.005Z</time></trkpt><trkpt lat="44.31249326836837" lon="11.64619346931228"><ele>71.0</ele><time>2026-05-03T09:27:40.005Z</time></trkpt><trkpt lat="44.312566511776396" lon="11.646312366687019"><ele>71.0</ele><time>2026-05-03T09:27:41.005Z</time></trkpt><trkpt lat="44.312638817753864" lon="11.646435612086648"><ele>71.0</ele><time>2026-05-03T09:27:42.005Z</time></trkpt><trkpt lat="44.312708078063785" lon="11.646557241891594"><ele>71.0</ele><time>2026-05-03T09:27:43.005Z</time></trkpt><trkpt lat="44.31278129137897" lon="11.646670416555773"><ele>71.0</ele><time>2026-05-03T09:27:44.005Z</time></trkpt><trkpt lat="44.312855045697404" lon="11.646786567791855"><ele>71.0</ele><time>2026-05-03T09:27:45.005Z</time></trkpt><trkpt lat="44.312932390977046" lon="11.646890866712301"><ele>71.0</ele><time>2026-05-03T09:27:46.005Z</time></trkpt><trkpt lat="44.31301372267256" lon="11.646993563188218"><ele>71.0</ele><time>2026-05-03T09:27:47.005Z</time></trkpt><trkpt lat="44.313096807425254" lon="11.647089713979174"><ele>71.0</ele><time>2026-05-03T09:27:48.005Z</time></trkpt><trkpt lat="44.31318533845571" lon="11.647176702422362"><ele>71.0</ele><time>2026-05-03T09:27:49.005Z</time></trkpt><trkpt lat="44.31327521953724" lon="11.647260174069233"><ele>71.0</ele><time>2026-05-03T09:27:50.005Z</time></trkpt><trkpt lat="44.31336727292529" lon="11.647334678658819"><ele>71.0</ele><time>2026-05-03T09:27:51.005Z</time></trkpt><trkpt lat="44.313459604753426" lon="11.647405820186213"><ele>71.0</ele><time>2026-05-03T09:27:52.005Z</time></trkpt><trkpt lat="44.31355238657166" lon="11.647472468040464"><ele>71.0</ele><time>2026-05-03T09:27:53.005Z</time></trkpt><trkpt lat="44.313645179118936" lon="11.647546575541183"><ele>71.0</ele><time>2026-05-03T09:27:54.005Z</time></trkpt><trkpt lat="44.31374184699424" lon="11.647614401897458"><ele>71.0</ele><time>2026-05-03T09:27:55.005Z</time></trkpt><trkpt lat="44.31383703841822" lon="11.647686610330904"><ele>71.0</ele><time>2026-05-03T09:27:56.005Z</time></trkpt><trkpt lat="44.3139335855956" lon="11.647759814253348"><ele>71.0</ele><time>2026-05-03T09:27:57.005Z</time></trkpt><trkpt lat="44.314028248703245" lon="11.647822595374052"><ele>71.0</ele><time>2026-05-03T09:27:58.005Z</time></trkpt><trkpt lat="44.314125424041585" lon="11.647902842347193"><ele>71.0</ele><time>2026-05-03T09:27:59.005Z</time></trkpt><trkpt lat="44.314218784736205" lon="11.647971413472362"><ele>71.8</ele><time>2026-05-03T09:28:00.005Z</time></trkpt><trkpt lat="44.31431366978781" lon="11.648040412523553"><ele>72.6</ele><time>2026-05-03T09:28:01.005Z</time></trkpt><trkpt lat="44.314395751068794" lon="11.648099790849141"><ele>73.4</ele><time>2026-05-03T09:28:02.005Z</time></trkpt><trkpt lat="44.31447363441482" lon="11.648146240247947"><ele>74.2</ele><time>2026-05-03T09:28:03.005Z</time></trkpt><trkpt lat="44.31455512666938" lon="11.648203767205446"><ele>75.0</ele><time>2026-05-03T09:28:04.005Z</time></trkpt><trkpt lat="44.3146383998368" lon="11.648278825855627"><ele>75.0</ele><time>2026-05-03T09:28:05.005Z</time></trkpt><trkpt lat="44.31471473549637" lon="11.648353947283937"><ele>75.0</ele><time>2026-05-03T09:28:06.005Z</time></trkpt><trkpt lat="44.31480303814211" lon="11.648422252143028"><ele>75.0</ele><time>2026-05-03T09:28:07.005Z</time></trkpt><trkpt lat="44.31489301360628" lon="11.648486857751626"><ele>75.0</ele><time>2026-05-03T09:28:08.005Z</time></trkpt><trkpt lat="44.31498212086132" lon="11.648557363111765"><ele>75.0</ele><time>2026-05-03T09:28:09.005Z</time></trkpt><trkpt lat="44.31507442686748" lon="11.648629250095606"><ele>75.0</ele><time>2026-05-03T09:28:10.005Z</time></trkpt><trkpt lat="44.315167178654974" lon="11.648699201771011"><ele>75.0</ele><time>2026-05-03T09:28:11.005Z</time></trkpt><trkpt lat="44.31526023008158" lon="11.648768555864802"><ele>75.0</ele><time>2026-05-03T09:28:12.005Z</time></trkpt><trkpt lat="44.315356393884294" lon="11.648839380985502"><ele>75.0</ele><time>2026-05-03T09:28:13.005Z</time></trkpt><trkpt lat="44.31545150280789" lon="11.64891252093665"><ele>75.0</ele><time>2026-05-03T09:28:14.005Z</time></trkpt><trkpt lat="44.315546727509876" lon="11.648983623810784"><ele>75.6</ele><time>2026-05-03T09:28:15.005Z</time></trkpt><trkpt lat="44.315642835222" lon="11.649055633121893"><ele>76.2</ele><time>2026-05-03T09:28:16.005Z</time></trkpt><trkpt lat="44.315738870068884" lon="11.649128968183962"><ele>76.8</ele><time>2026-05-03T09:28:17.005Z</time></trkpt><trkpt lat="44.31583436576869" lon="11.649204465879201"><ele>77.4</ele><time>2026-05-03T09:28:18.005Z</time></trkpt><trkpt lat="44.31593302250033" lon="11.64928088363853"><ele>78.0</ele><time>2026-05-03T09:28:19.005Z</time></trkpt><trkpt lat="44.31603137437784" lon="11.649354939053843"><ele>78.0</ele><time>2026-05-03T09:28:20.005Z</time></trkpt><trkpt lat="44.316130288321155" lon="11.649429895601605"><ele>78.0</ele><time>2026-05-03T09:28:21.005Z</time></trkpt><trkpt lat="44.3162270131062" lon="11.649503945812834"><ele>78.0</ele><time>2026-05-03T09:28:22.005Z</time></trkpt><trkpt lat="44.31632745232024" lon="11.649583022613315"><ele>78.0</ele><time>2026-05-03T09:28:23.005Z</time></trkpt><trkpt lat="44.31643140415077" lon="11.649650811670726"><ele>77.25</ele><time>2026-05-03T09:28:24.005Z</time></trkpt><trkpt lat="44.316534138778316" lon="11.649723268171137"><ele>76.5</ele><time>2026-05-03T09:28:25.005Z</time></trkpt><trkpt lat="44.31663892675032" lon="11.649798279132392"><ele>75.75</ele><time>2026-05-03T09:28:26.005Z</time></trkpt><trkpt lat="44.316739135791735" lon="11.649876409568591"><ele>75.0</ele><time>2026-05-03T09:28:27.005Z</time></trkpt><trkpt lat="44.316841113193405" lon="11.649948871708848"><ele>75.0</ele><time>2026-05-03T09:28:28.005Z</time></trkpt><trkpt lat="44.31694336129264" lon="11.650024513044471"><ele>75.0</ele><time>2026-05-03T09:28:29.005Z</time></trkpt><trkpt lat="44.31704519815319" lon="11.65010071696534"><ele>75.0</ele><time>2026-05-03T09:28:30.005Z</time></trkpt><trkpt lat="44.317143540973916" lon="11.650179517211216"><ele>75.0</ele><time>2026-05-03T09:28:31.005Z</time></trkpt><trkpt lat="44.31723525052028" lon="11.650264322798325"><ele>74.0</ele><time>2026-05-03T09:28:32.005Z</time></trkpt><trkpt lat="44.31733310724897" lon="11.650346266646201"><ele>73.0</ele><time>2026-05-03T09:28:33.005Z</time></trkpt><trkpt lat="44.31743025563308" lon="11.650425866863156"><ele>72.0</ele><time>2026-05-03T09:28:34.006Z</time></trkpt><trkpt lat="44.317522745613104" lon="11.650506894725188"><ele>71.0</ele><time>2026-05-03T09:28:35.006Z</time></trkpt><trkpt lat="44.3176178462674" lon="11.650585506324681"><ele>70.0</ele><time>2026-05-03T09:28:36.006Z</time></trkpt><trkpt lat="44.317715030769605" lon="11.650660919172697"><ele>70.0</ele><time>2026-05-03T09:28:37.006Z</time></trkpt><trkpt lat="44.31781223065394" lon="11.65073428932146"><ele>70.0</ele><time>2026-05-03T09:28:38.006Z</time></trkpt><trkpt lat="44.317907819803466" lon="11.650804569215337"><ele>70.0</ele><time>2026-05-03T09:28:39.006Z</time></trkpt><trkpt lat="44.31800510853272" lon="11.650873835375261"><ele>70.0</ele><time>2026-05-03T09:28:40.006Z</time></trkpt><trkpt lat="44.31810137585667" lon="11.650937242350272"><ele>70.0</ele><time>2026-05-03T09:28:41.006Z</time></trkpt><trkpt lat="44.318196613165775" lon="11.651001115098806"><ele>70.6</ele><time>2026-05-03T09:28:42.006Z</time></trkpt><trkpt lat="44.3182909531535" lon="11.651067384145518"><ele>71.2</ele><time>2026-05-03T09:28:43.006Z</time></trkpt><trkpt lat="44.31838592038172" lon="11.651133363424275"><ele>71.8</ele><time>2026-05-03T09:28:44.006Z</time></trkpt><trkpt lat="44.31847639834827" lon="11.651201618462967"><ele>72.4</ele><time>2026-05-03T09:28:45.006Z</time></trkpt><trkpt lat="44.318568819467025" lon="11.65126869413418"><ele>73.0</ele><time>2026-05-03T09:28:46.006Z</time></trkpt><trkpt lat="44.3186599136065" lon="11.651336441821458"><ele>73.4</ele><time>2026-05-03T09:28:47.006Z</time></trkpt><trkpt lat="44.31875008032141" lon="11.651407498928425"><ele>73.8</ele><time>2026-05-03T09:28:48.006Z</time></trkpt><trkpt lat="44.31883380066875" lon="11.65147272732432"><ele>74.2</ele><time>2026-05-03T09:28:49.006Z</time></trkpt><trkpt lat="44.31892356477752" lon="11.651534633860155"><ele>74.6</ele><time>2026-05-03T09:28:50.006Z</time></trkpt><trkpt lat="44.319009188407385" lon="11.65160360371696"><ele>75.0</ele><time>2026-05-03T09:28:51.006Z</time></trkpt><trkpt lat="44.31909645137535" lon="11.651674083290873"><ele>75.4</ele><time>2026-05-03T09:28:52.006Z</time></trkpt><trkpt lat="44.31919239248668" lon="11.65173559768286"><ele>75.8</ele><time>2026-05-03T09:28:53.006Z</time></trkpt><trkpt lat="44.31928331673778" lon="11.65180101135317"><ele>76.2</ele><time>2026-05-03T09:28:54.006Z</time></trkpt><trkpt lat="44.31936434757746" lon="11.651897982437564"><ele>76.6</ele><time>2026-05-03T09:28:55.006Z</time></trkpt><trkpt lat="44.31946754438053" lon="11.651973776298092"><ele>77.0</ele><time>2026-05-03T09:28:56.006Z</time></trkpt><trkpt lat="44.319554640342446" lon="11.652052463117284"><ele>77.0</ele><time>2026-05-03T09:28:57.006Z</time></trkpt><trkpt lat="44.31966487321307" lon="11.652123966958476"><ele>77.0</ele><time>2026-05-03T09:28:58.006Z</time></trkpt><trkpt lat="44.319758580876474" lon="11.652198968215654"><ele>77.0</ele><time>2026-05-03T09:28:59.006Z</time></trkpt><trkpt lat="44.31986160566114" lon="11.652268834393967"><ele>77.0</ele><time>2026-05-03T09:29:00.006Z</time></trkpt><trkpt lat="44.31996024386973" lon="11.652352946591835"><ele>77.75</ele><time>2026-05-03T09:29:01.006Z</time></trkpt><trkpt lat="44.32006204304403" lon="11.652419662317477"><ele>78.5</ele><time>2026-05-03T09:29:02.006Z</time></trkpt><trkpt lat="44.32016229688992" lon="11.652496574350273"><ele>79.25</ele><time>2026-05-03T09:29:03.006Z</time></trkpt><trkpt lat="44.32025766310712" lon="11.652581388125853"><ele>80.0</ele><time>2026-05-03T09:29:04.006Z</time></trkpt><trkpt lat="44.320358766105855" lon="11.652648885938618"><ele>80.0</ele><time>2026-05-03T09:29:05.006Z</time></trkpt><trkpt lat="44.32046250038952" lon="11.65272346458454"><ele>80.0</ele><time>2026-05-03T09:29:06.006Z</time></trkpt><trkpt lat="44.32056061688958" lon="11.652807393790846"><ele>80.0</ele><time>2026-05-03T09:29:07.006Z</time></trkpt><trkpt lat="44.3206634416398" lon="11.652880013521857"><ele>80.0</ele><time>2026-05-03T09:29:08.006Z</time></trkpt><trkpt lat="44.32076330601645" lon="11.652951188669187"><ele>80.0</ele><time>2026-05-03T09:29:09.006Z</time></trkpt><trkpt lat="44.32086003573564" lon="11.653028730099082"><ele>80.0</ele><time>2026-05-03T09:29:10.006Z</time></trkpt><trkpt lat="44.32095754151069" lon="11.653108330118018"><ele>80.0</ele><time>2026-05-03T09:29:11.006Z</time></trkpt><trkpt lat="44.32105182102685" lon="11.653190940284079"><ele>80.0</ele><time>2026-05-03T09:29:12.006Z</time></trkpt><trkpt lat="44.32114455259074" lon="11.65327671426005"><ele>80.0</ele><time>2026-05-03T09:29:13.006Z</time></trkpt><trkpt lat="44.32123837193791" lon="11.653366177821985"><ele>80.0</ele><time>2026-05-03T09:29:14.006Z</time></trkpt><trkpt lat="44.32133490962538" lon="11.65345881036236"><ele>80.0</ele><time>2026-05-03T09:29:15.006Z</time></trkpt><trkpt lat="44.321432441392425" lon="11.653548145572609"><ele>80.0</ele><time>2026-05-03T09:29:16.006Z</time></trkpt><trkpt lat="44.321527539224135" lon="11.653642367690884"><ele>80.0</ele><time>2026-05-03T09:29:17.006Z</time></trkpt><trkpt lat="44.32162552278551" lon="11.653724768423366"><ele>79.75</ele><time>2026-05-03T09:29:18.006Z</time></trkpt><trkpt lat="44.32172271680297" lon="11.653819390988755"><ele>79.5</ele><time>2026-05-03T09:29:19.006Z</time></trkpt><trkpt lat="44.32181994048468" lon="11.653905144557424"><ele>79.25</ele><time>2026-05-03T09:29:20.006Z</time></trkpt><trkpt lat="44.321917855759516" lon="11.653996217567238"><ele>79.0</ele><time>2026-05-03T09:29:21.006Z</time></trkpt><trkpt lat="44.3220121289126" lon="11.654086840402451"><ele>79.0</ele><time>2026-05-03T09:29:22.006Z</time></trkpt><trkpt lat="44.32210305071582" lon="11.654185402092295"><ele>79.0</ele><time>2026-05-03T09:29:23.006Z</time></trkpt><trkpt lat="44.32218890626684" lon="11.654288724121233"><ele>79.0</ele><time>2026-05-03T09:29:24.006Z</time></trkpt><trkpt lat="44.32227149288255" lon="11.654397685929622"><ele>79.0</ele><time>2026-05-03T09:29:25.006Z</time></trkpt><trkpt lat="44.32235330362619" lon="11.654498458717667"><ele>78.75</ele><time>2026-05-03T09:29:26.006Z</time></trkpt><trkpt lat="44.32243128242239" lon="11.654606975938078"><ele>78.5</ele><time>2026-05-03T09:29:27.006Z</time></trkpt><trkpt lat="44.32251139800621" lon="11.654721089335847"><ele>78.25</ele><time>2026-05-03T09:29:28.006Z</time></trkpt><trkpt lat="44.32258798679869" lon="11.654841447205946"><ele>78.0</ele><time>2026-05-03T09:29:29.006Z</time></trkpt><trkpt lat="44.3226647704635" lon="11.65495660366059"><ele>78.0</ele><time>2026-05-03T09:29:30.006Z</time></trkpt><trkpt lat="44.32273765347513" lon="11.655076765162159"><ele>78.0</ele><time>2026-05-03T09:29:31.006Z</time></trkpt><trkpt lat="44.32281092732182" lon="11.655203423020392"><ele>78.0</ele><time>2026-05-03T09:29:32.006Z</time></trkpt><trkpt lat="44.32287648562304" lon="11.655328966270211"><ele>78.0</ele><time>2026-05-03T09:29:33.006Z</time></trkpt><trkpt lat="44.32294217968344" lon="11.655455120378512"><ele>78.2</ele><time>2026-05-03T09:29:34.006Z</time></trkpt><trkpt lat="44.32300593347431" lon="11.655582873885765"><ele>78.4</ele><time>2026-05-03T09:29:35.006Z</time></trkpt><trkpt lat="44.32306939704174" lon="11.655714743228298"><ele>78.60000000000001</ele><time>2026-05-03T09:29:36.006Z</time></trkpt><trkpt lat="44.32313224535355" lon="11.65584746546222"><ele>78.8</ele><time>2026-05-03T09:29:37.006Z</time></trkpt><trkpt lat="44.32319239702652" lon="11.655975313107078"><ele>79.0</ele><time>2026-05-03T09:29:38.006Z</time></trkpt><trkpt lat="44.32325368871611" lon="11.656108001704903"><ele>78.0</ele><time>2026-05-03T09:29:39.006Z</time></trkpt><trkpt lat="44.323313313068844" lon="11.656232644132691"><ele>77.0</ele><time>2026-05-03T09:29:40.006Z</time></trkpt><trkpt lat="44.323374867921586" lon="11.65636009869391"><ele>76.0</ele><time>2026-05-03T09:29:41.006Z</time></trkpt><trkpt lat="44.32343668381431" lon="11.656482639666768"><ele>75.0</ele><time>2026-05-03T09:29:42.006Z</time></trkpt><trkpt lat="44.323497535710914" lon="11.656609196578206"><ele>74.0</ele><time>2026-05-03T09:29:43.006Z</time></trkpt><trkpt lat="44.32355828908902" lon="11.6567363962496"><ele>74.0</ele><time>2026-05-03T09:29:44.006Z</time></trkpt><trkpt lat="44.32361722918469" lon="11.65686015133411"><ele>74.0</ele><time>2026-05-03T09:29:45.006Z</time></trkpt><trkpt lat="44.323678201700275" lon="11.656985317437417"><ele>74.0</ele><time>2026-05-03T09:29:46.006Z</time></trkpt><trkpt lat="44.32374218984774" lon="11.657104691174753"><ele>74.0</ele><time>2026-05-03T09:29:47.006Z</time></trkpt><trkpt lat="44.323802578741656" lon="11.657228126090786"><ele>74.0</ele><time>2026-05-03T09:29:48.006Z</time></trkpt><trkpt lat="44.32386134393898" lon="11.65734509734302"><ele>74.60000000000001</ele><time>2026-05-03T09:29:49.006Z</time></trkpt><trkpt lat="44.32391752973207" lon="11.657466274863644"><ele>75.2</ele><time>2026-05-03T09:29:50.006Z</time></trkpt><trkpt lat="44.32397211627059" lon="11.657581402881936"><ele>75.80000000000001</ele><time>2026-05-03T09:29:51.006Z</time></trkpt><trkpt lat="44.32402851353871" lon="11.657698416956238"><ele>76.4</ele><time>2026-05-03T09:29:52.006Z</time></trkpt><trkpt lat="44.32408402080842" lon="11.657818545360314"><ele>77.0</ele><time>2026-05-03T09:29:53.006Z</time></trkpt><trkpt lat="44.32414210521974" lon="11.657936440172119"><ele>77.0</ele><time>2026-05-03T09:29:54.006Z</time></trkpt><trkpt lat="44.324196949607476" lon="11.658065192539071"><ele>77.0</ele><time>2026-05-03T09:29:55.006Z</time></trkpt><trkpt lat="44.32425484522705" lon="11.658192829113265"><ele>77.0</ele><time>2026-05-03T09:29:56.006Z</time></trkpt><trkpt lat="44.3243120482421" lon="11.658320875178438"><ele>77.0</ele><time>2026-05-03T09:29:57.006Z</time></trkpt><trkpt lat="44.324362059583166" lon="11.658455023860311"><ele>77.0</ele><time>2026-05-03T09:29:58.006Z</time></trkpt><trkpt lat="44.324410305031556" lon="11.658591161689273"><ele>76.8</ele><time>2026-05-03T09:29:59.006Z</time></trkpt><trkpt lat="44.32445323976879" lon="11.658733413026674"><ele>76.6</ele><time>2026-05-03T09:30:00.006Z</time></trkpt><trkpt lat="44.324489151547226" lon="11.658882379478712"><ele>76.39999999999999</ele><time>2026-05-03T09:30:01.006Z</time></trkpt><trkpt lat="44.32453059615478" lon="11.65902833466844"><ele>76.2</ele><time>2026-05-03T09:30:02.006Z</time></trkpt><trkpt lat="44.32457426786358" lon="11.659175181140288"><ele>76.0</ele><time>2026-05-03T09:30:03.006Z</time></trkpt><trkpt lat="44.32461448241028" lon="11.65932406770076"><ele>76.0</ele><time>2026-05-03T09:30:04.006Z</time></trkpt><trkpt lat="44.324658196253594" lon="11.659475051932162"><ele>76.0</ele><time>2026-05-03T09:30:05.006Z</time></trkpt><trkpt lat="44.32469812508348" lon="11.659626714575657"><ele>76.0</ele><time>2026-05-03T09:30:06.006Z</time></trkpt><trkpt lat="44.32474196237514" lon="11.659776096150795"><ele>76.0</ele><time>2026-05-03T09:30:07.006Z</time></trkpt><trkpt lat="44.32478600912064" lon="11.659929502957452"><ele>76.0</ele><time>2026-05-03T09:30:08.007Z</time></trkpt><trkpt lat="44.32482717029216" lon="11.66007672154916"><ele>76.0</ele><time>2026-05-03T09:30:09.007Z</time></trkpt><trkpt lat="44.324869668707" lon="11.660225994401854"><ele>76.0</ele><time>2026-05-03T09:30:10.007Z</time></trkpt><trkpt lat="44.324909573944275" lon="11.66037729785179"><ele>76.0</ele><time>2026-05-03T09:30:11.007Z</time></trkpt><trkpt lat="44.324948389752194" lon="11.660519407673966"><ele>75.2</ele><time>2026-05-03T09:30:12.007Z</time></trkpt><trkpt lat="44.32499216612384" lon="11.660662853707231"><ele>74.39999999999999</ele><time>2026-05-03T09:30:13.007Z</time></trkpt><trkpt lat="44.32503985136187" lon="11.660808233763415"><ele>73.6</ele><time>2026-05-03T09:30:14.007Z</time></trkpt><trkpt lat="44.32509132812117" lon="11.660946025375262"><ele>72.8</ele><time>2026-05-03T09:30:15.007Z</time></trkpt><trkpt lat="44.32514358283828" lon="11.661082788838241"><ele>72.0</ele><time>2026-05-03T09:30:16.007Z</time></trkpt><trkpt lat="44.32520481398992" lon="11.6612125730153"><ele>71.75</ele><time>2026-05-03T09:30:17.007Z</time></trkpt><trkpt lat="44.325273671048166" lon="11.661338488606736"><ele>71.5</ele><time>2026-05-03T09:30:18.007Z</time></trkpt><trkpt lat="44.32534746580902" lon="11.661455963075957"><ele>71.25</ele><time>2026-05-03T09:30:19.007Z</time></trkpt><trkpt lat="44.32542676233576" lon="11.661573511566338"><ele>71.0</ele><time>2026-05-03T09:30:20.007Z</time></trkpt><trkpt lat="44.325508762513415" lon="11.661689951942627"><ele>71.25</ele><time>2026-05-03T09:30:21.007Z</time></trkpt><trkpt lat="44.325597704972274" lon="11.661798017968334"><ele>71.5</ele><time>2026-05-03T09:30:22.007Z</time></trkpt><trkpt lat="44.32568340591358" lon="11.661905563006085"><ele>71.75</ele><time>2026-05-03T09:30:23.007Z</time></trkpt><trkpt lat="44.32576685620302" lon="11.662015047412469"><ele>72.0</ele><time>2026-05-03T09:30:24.007Z</time></trkpt><trkpt lat="44.325852811106394" lon="11.662120086719018"><ele>72.0</ele><time>2026-05-03T09:30:25.007Z</time></trkpt><trkpt lat="44.32593593284251" lon="11.662220570516677"><ele>72.0</ele><time>2026-05-03T09:30:26.007Z</time></trkpt><trkpt lat="44.32602463130001" lon="11.662320986411139"><ele>72.0</ele><time>2026-05-03T09:30:27.007Z</time></trkpt><trkpt lat="44.32612124611871" lon="11.662429178360618"><ele>72.0</ele><time>2026-05-03T09:30:28.007Z</time></trkpt><trkpt lat="44.32621290982337" lon="11.662539548440778"><ele>72.0</ele><time>2026-05-03T09:30:29.007Z</time></trkpt><trkpt lat="44.32630569429666" lon="11.662645019419397"><ele>72.0</ele><time>2026-05-03T09:30:30.007Z</time></trkpt><trkpt lat="44.326391193936125" lon="11.662760553440771"><ele>72.0</ele><time>2026-05-03T09:30:31.007Z</time></trkpt><trkpt lat="44.32647398572824" lon="11.662879670776647"><ele>72.0</ele><time>2026-05-03T09:30:32.007Z</time></trkpt><trkpt lat="44.32655192736206" lon="11.662999175377957"><ele>72.0</ele><time>2026-05-03T09:30:33.007Z</time></trkpt><trkpt lat="44.32662104454245" lon="11.663135430785145"><ele>72.0</ele><time>2026-05-03T09:30:34.007Z</time></trkpt><trkpt lat="44.32667989451436" lon="11.663271297069658"><ele>72.0</ele><time>2026-05-03T09:30:35.007Z</time></trkpt><trkpt lat="44.326743812879045" lon="11.663411809498568"><ele>72.0</ele><time>2026-05-03T09:30:36.007Z</time></trkpt><trkpt lat="44.32680963951759" lon="11.663549953145576"><ele>71.25</ele><time>2026-05-03T09:30:37.007Z</time></trkpt><trkpt lat="44.3268688220979" lon="11.66370666234872"><ele>70.5</ele><time>2026-05-03T09:30:38.007Z</time></trkpt><trkpt lat="44.32693121666289" lon="11.663864917846487"><ele>69.75</ele><time>2026-05-03T09:30:39.007Z</time></trkpt><trkpt lat="44.327000810653736" lon="11.664014552544458"><ele>69.0</ele><time>2026-05-03T09:30:40.007Z</time></trkpt><trkpt lat="44.327070061355315" lon="11.66415266559708"><ele>69.0</ele><time>2026-05-03T09:30:41.007Z</time></trkpt><trkpt lat="44.32713676304899" lon="11.66429118534345"><ele>69.0</ele><time>2026-05-03T09:30:42.007Z</time></trkpt><trkpt lat="44.32720703981071" lon="11.664424888067769"><ele>69.0</ele><time>2026-05-03T09:30:43.007Z</time></trkpt><trkpt lat="44.327268406822554" lon="11.664569838152772"><ele>69.0</ele><time>2026-05-03T09:30:44.007Z</time></trkpt><trkpt lat="44.327325600097936" lon="11.664702105532237"><ele>69.2</ele><time>2026-05-03T09:30:45.007Z</time></trkpt><trkpt lat="44.32738455837981" lon="11.66483342680987"><ele>69.4</ele><time>2026-05-03T09:30:46.007Z</time></trkpt><trkpt lat="44.32744101806908" lon="11.664966719049922"><ele>69.6</ele><time>2026-05-03T09:30:47.007Z</time></trkpt><trkpt lat="44.327502618789744" lon="11.665096683184645"><ele>69.8</ele><time>2026-05-03T09:30:48.007Z</time></trkpt><trkpt lat="44.327562100937435" lon="11.66523119984985"><ele>70.0</ele><time>2026-05-03T09:30:49.007Z</time></trkpt><trkpt lat="44.327625873852114" lon="11.66534986148497"><ele>70.0</ele><time>2026-05-03T09:30:50.007Z</time></trkpt><trkpt lat="44.32769232695785" lon="11.665468576753572"><ele>70.0</ele><time>2026-05-03T09:30:51.007Z</time></trkpt><trkpt lat="44.3277561833486" lon="11.665590816972328"><ele>70.0</ele><time>2026-05-03T09:30:52.007Z</time></trkpt><trkpt lat="44.327802842991694" lon="11.66567898892291"><ele>70.0</ele><time>2026-05-03T09:30:53.007Z</time></trkpt><trkpt lat="44.327845991594366" lon="11.665744319787095"><ele>70.0</ele><time>2026-05-03T09:30:54.007Z</time></trkpt><trkpt lat="44.327909943097396" lon="11.665860854918217"><ele>70.0</ele><time>2026-05-03T09:30:56.007Z</time></trkpt><trkpt lat="44.32795793259481" lon="11.665921910490129"><ele>70.0</ele><time>2026-05-03T09:30:57.007Z</time></trkpt><trkpt lat="44.32827349298196" lon="11.66644285337003"><ele>69.8</ele><time>2026-05-03T09:30:59.007Z</time></trkpt><trkpt lat="44.32835304313609" lon="11.666548060954257"><ele>69.6</ele><time>2026-05-03T09:31:00.007Z</time></trkpt><trkpt lat="44.32843456814656" lon="11.666651687897865"><ele>69.4</ele><time>2026-05-03T09:31:01.007Z</time></trkpt><trkpt lat="44.3285185335842" lon="11.666762371508675"><ele>69.2</ele><time>2026-05-03T09:31:02.007Z</time></trkpt><trkpt lat="44.3285969747557" lon="11.666877208461385"><ele>69.0</ele><time>2026-05-03T09:31:03.007Z</time></trkpt><trkpt lat="44.32867314501418" lon="11.666995760988566"><ele>68.5</ele><time>2026-05-03T09:31:04.007Z</time></trkpt><trkpt lat="44.32874282976642" lon="11.667123090791225"><ele>68.0</ele><time>2026-05-03T09:31:05.007Z</time></trkpt><trkpt lat="44.328806051049426" lon="11.667257336882026"><ele>67.5</ele><time>2026-05-03T09:31:06.007Z</time></trkpt><trkpt lat="44.3288672939605" lon="11.667395132891166"><ele>67.0</ele><time>2026-05-03T09:31:07.007Z</time></trkpt><trkpt lat="44.328925714184464" lon="11.6675332225855"><ele>67.5</ele><time>2026-05-03T09:31:08.007Z</time></trkpt><trkpt lat="44.328981030139" lon="11.667673940430774"><ele>68.0</ele><time>2026-05-03T09:31:09.007Z</time></trkpt><trkpt lat="44.32904231345557" lon="11.667812709993944"><ele>68.5</ele><time>2026-05-03T09:31:10.007Z</time></trkpt><trkpt lat="44.32909812385153" lon="11.667950180449244"><ele>69.0</ele><time>2026-05-03T09:31:11.007Z</time></trkpt><trkpt lat="44.32915431096957" lon="11.668090931011479"><ele>69.0</ele><time>2026-05-03T09:31:12.007Z</time></trkpt><trkpt lat="44.32921159807495" lon="11.668225556412256"><ele>69.0</ele><time>2026-05-03T09:31:13.007Z</time></trkpt><trkpt lat="44.329266841399985" lon="11.668366055181705"><ele>69.0</ele><time>2026-05-03T09:31:14.007Z</time></trkpt><trkpt lat="44.32931754468336" lon="11.668499138543428"><ele>69.0</ele><time>2026-05-03T09:31:15.007Z</time></trkpt><trkpt lat="44.329370059094025" lon="11.668630975125513"><ele>69.0</ele><time>2026-05-03T09:31:16.007Z</time></trkpt><trkpt lat="44.32942190768455" lon="11.668757854062152"><ele>69.0</ele><time>2026-05-03T09:31:17.007Z</time></trkpt><trkpt lat="44.32947054301057" lon="11.668883893719507"><ele>69.0</ele><time>2026-05-03T09:31:18.007Z</time></trkpt><trkpt lat="44.32952197435066" lon="11.66898779341263"><ele>69.0</ele><time>2026-05-03T09:31:19.007Z</time></trkpt><trkpt lat="44.32956410264602" lon="11.669090101410301"><ele>69.0</ele><time>2026-05-03T09:31:20.007Z</time></trkpt><trkpt lat="44.32960061122773" lon="11.669180747154638"><ele>69.0</ele><time>2026-05-03T09:31:21.007Z</time></trkpt><trkpt lat="44.3296571830042" lon="11.669343795140692"><ele>69.0</ele><time>2026-05-03T09:31:23.007Z</time></trkpt><trkpt lat="44.32969077170638" lon="11.669448603545193"><ele>69.0</ele><time>2026-05-03T09:31:25.007Z</time></trkpt><trkpt lat="44.32972811601219" lon="11.669523061326023"><ele>69.0</ele><time>2026-05-03T09:35:34.01Z</time></trkpt><trkpt lat="44.3297787071604" lon="11.669648472770403"><ele>69.0</ele><time>2026-05-03T09:35:36.01Z</time></trkpt><trkpt lat="44.329825406692976" lon="11.669790544105247"><ele>69.0</ele><time>2026-05-03T09:35:38.01Z</time></trkpt><trkpt lat="44.32985970005467" lon="11.669867267106667"><ele>69.0</ele><time>2026-05-03T09:35:39.01Z</time></trkpt><trkpt lat="44.32990237741139" lon="11.669960143237025"><ele>69.0</ele><time>2026-05-03T09:35:40.01Z</time></trkpt><trkpt lat="44.32994497768833" lon="11.670063670371936"><ele>69.0</ele><time>2026-05-03T09:35:41.01Z</time></trkpt><trkpt lat="44.32999238929091" lon="11.670169673447969"><ele>69.0</ele><time>2026-05-03T09:35:42.01Z</time></trkpt><trkpt lat="44.33003776649038" lon="11.670283253709252"><ele>69.0</ele><time>2026-05-03T09:35:43.01Z</time></trkpt><trkpt lat="44.33009283050002" lon="11.670396354777427"><ele>69.0</ele><time>2026-05-03T09:35:44.01Z</time></trkpt><trkpt lat="44.33015190175539" lon="11.670518812587922"><ele>69.2</ele><time>2026-05-03T09:35:45.01Z</time></trkpt><trkpt lat="44.33018414889547" lon="11.670645331951674"><ele>69.4</ele><time>2026-05-03T09:35:46.01Z</time></trkpt><trkpt lat="44.33023643648681" lon="11.670758552196519"><ele>69.6</ele><time>2026-05-03T09:35:47.01Z</time></trkpt><trkpt lat="44.33028418131174" lon="11.67087912013059"><ele>69.8</ele><time>2026-05-03T09:35:48.01Z</time></trkpt><trkpt lat="44.33032042320748" lon="11.670986575889483"><ele>70.0</ele><time>2026-05-03T09:35:49.01Z</time></trkpt><trkpt lat="44.330375153816746" lon="11.671114043982495"><ele>69.6</ele><time>2026-05-03T09:35:50.01Z</time></trkpt><trkpt lat="44.33043389961593" lon="11.67123639860778"><ele>69.2</ele><time>2026-05-03T09:35:51.01Z</time></trkpt><trkpt lat="44.33049211987182" lon="11.67135763449125"><ele>68.8</ele><time>2026-05-03T09:35:52.01Z</time></trkpt><trkpt lat="44.33055768099602" lon="11.67148694724821"><ele>68.4</ele><time>2026-05-03T09:35:53.01Z</time></trkpt><trkpt lat="44.330618190572046" lon="11.671608291531355"><ele>68.0</ele><time>2026-05-03T09:35:54.01Z</time></trkpt><trkpt lat="44.330680090345425" lon="11.671726738378458"><ele>68.0</ele><time>2026-05-03T09:35:55.01Z</time></trkpt><trkpt lat="44.330743142114926" lon="11.67184596447168"><ele>68.0</ele><time>2026-05-03T09:35:56.01Z</time></trkpt><trkpt lat="44.33081079586541" lon="11.671966806139727"><ele>68.0</ele><time>2026-05-03T09:35:57.01Z</time></trkpt><trkpt lat="44.33088170365151" lon="11.672092076473158"><ele>68.0</ele><time>2026-05-03T09:35:58.01Z</time></trkpt><trkpt lat="44.330950502608424" lon="11.672216154137944"><ele>68.0</ele><time>2026-05-03T09:35:59.01Z</time></trkpt><trkpt lat="44.331023963222975" lon="11.672336520920467"><ele>68.0</ele><time>2026-05-03T09:36:00.01Z</time></trkpt><trkpt lat="44.33109776051348" lon="11.672455878278841"><ele>68.0</ele><time>2026-05-03T09:36:01.01Z</time></trkpt><trkpt lat="44.331172342819514" lon="11.672576684373333"><ele>68.0</ele><time>2026-05-03T09:36:02.01Z</time></trkpt><trkpt lat="44.33124656241993" lon="11.672696876119005"><ele>68.0</ele><time>2026-05-03T09:36:03.01Z</time></trkpt><trkpt lat="44.331328859718774" lon="11.67280857290973"><ele>67.5</ele><time>2026-05-03T09:36:04.01Z</time></trkpt><trkpt lat="44.331410743038994" lon="11.672921927699845"><ele>67.0</ele><time>2026-05-03T09:36:05.01Z</time></trkpt><trkpt lat="44.33149495129344" lon="11.673035959339717"><ele>66.5</ele><time>2026-05-03T09:36:06.01Z</time></trkpt><trkpt lat="44.331580848335555" lon="11.673147871797248"><ele>66.0</ele><time>2026-05-03T09:36:07.01Z</time></trkpt><trkpt lat="44.33166715536931" lon="11.673265988168941"><ele>66.0</ele><time>2026-05-03T09:36:08.01Z</time></trkpt><trkpt lat="44.33175192517011" lon="11.673377826019289"><ele>66.0</ele><time>2026-05-03T09:36:09.01Z</time></trkpt><trkpt lat="44.33183599878111" lon="11.67349434853685"><ele>66.0</ele><time>2026-05-03T09:36:10.01Z</time></trkpt><trkpt lat="44.33192035319366" lon="11.673606849568372"><ele>66.0</ele><time>2026-05-03T09:36:11.01Z</time></trkpt><trkpt lat="44.33201135889151" lon="11.673708786220766"><ele>66.0</ele><time>2026-05-03T09:36:12.01Z</time></trkpt><trkpt lat="44.33209245605705" lon="11.673832367829137"><ele>66.0</ele><time>2026-05-03T09:36:13.01Z</time></trkpt><trkpt lat="44.33217556718945" lon="11.673945498267539"><ele>66.0</ele><time>2026-05-03T09:36:14.01Z</time></trkpt><trkpt lat="44.332257212830804" lon="11.674055769434428"><ele>66.0</ele><time>2026-05-03T09:36:15.01Z</time></trkpt><trkpt lat="44.33233832995743" lon="11.67416996292114"><ele>66.0</ele><time>2026-05-03T09:36:16.01Z</time></trkpt><trkpt lat="44.33241697217826" lon="11.674281787764327"><ele>66.0</ele><time>2026-05-03T09:36:17.01Z</time></trkpt><trkpt lat="44.332495263957746" lon="11.674400916845217"><ele>66.0</ele><time>2026-05-03T09:36:18.01Z</time></trkpt><trkpt lat="44.33257312910603" lon="11.674523085602495"><ele>66.0</ele><time>2026-05-03T09:36:19.01Z</time></trkpt><trkpt lat="44.33265441312829" lon="11.674644200250365"><ele>65.0</ele><time>2026-05-03T09:36:20.01Z</time></trkpt><trkpt lat="44.3327362524616" lon="11.674771744975416"><ele>64.0</ele><time>2026-05-03T09:36:21.01Z</time></trkpt><trkpt lat="44.33281696018161" lon="11.674898872963377"><ele>63.0</ele><time>2026-05-03T09:36:22.01Z</time></trkpt><trkpt lat="44.33290039535341" lon="11.675019474457052"><ele>62.0</ele><time>2026-05-03T09:36:23.01Z</time></trkpt><trkpt lat="44.332984220265125" lon="11.675142388261802"><ele>62.0</ele><time>2026-05-03T09:36:24.011Z</time></trkpt><trkpt lat="44.333064280347344" lon="11.67526658847224"><ele>62.0</ele><time>2026-05-03T09:36:25.011Z</time></trkpt><trkpt lat="44.33314166622443" lon="11.675394686914306"><ele>62.0</ele><time>2026-05-03T09:36:26.011Z</time></trkpt><trkpt lat="44.333220468985" lon="11.675514236750251"><ele>62.0</ele><time>2026-05-03T09:36:27.011Z</time></trkpt><trkpt lat="44.33329916467045" lon="11.675639510247255"><ele>62.0</ele><time>2026-05-03T09:36:28.011Z</time></trkpt><trkpt lat="44.33337592874126" lon="11.675773491807822"><ele>62.0</ele><time>2026-05-03T09:36:29.011Z</time></trkpt><trkpt lat="44.33344745283803" lon="11.675903163402177"><ele>62.0</ele><time>2026-05-03T09:36:30.011Z</time></trkpt><trkpt lat="44.33352171728438" lon="11.676040357189803"><ele>62.0</ele><time>2026-05-03T09:36:31.011Z</time></trkpt><trkpt lat="44.33358978842699" lon="11.676179729803671"><ele>61.75</ele><time>2026-05-03T09:36:32.011Z</time></trkpt><trkpt lat="44.33364903070872" lon="11.676331331842418"><ele>61.5</ele><time>2026-05-03T09:36:33.011Z</time></trkpt><trkpt lat="44.33371190355929" lon="11.676479649906907"><ele>61.25</ele><time>2026-05-03T09:36:34.011Z</time></trkpt><trkpt lat="44.3337719181192" lon="11.676629745145592"><ele>61.0</ele><time>2026-05-03T09:36:35.011Z</time></trkpt><trkpt lat="44.33381514546505" lon="11.676783955736147"><ele>61.0</ele><time>2026-05-03T09:36:36.011Z</time></trkpt><trkpt lat="44.333857014118564" lon="11.676933385155461"><ele>61.0</ele><time>2026-05-03T09:36:37.011Z</time></trkpt><trkpt lat="44.333897975219074" lon="11.677096482534859"><ele>61.0</ele><time>2026-05-03T09:36:38.011Z</time></trkpt><trkpt lat="44.3339469564364" lon="11.677252704626275"><ele>61.0</ele><time>2026-05-03T09:36:39.011Z</time></trkpt><trkpt lat="44.333999281831105" lon="11.677409129076555"><ele>61.75</ele><time>2026-05-03T09:36:40.011Z</time></trkpt><trkpt lat="44.33404906227845" lon="11.67756346451562"><ele>62.5</ele><time>2026-05-03T09:36:41.011Z</time></trkpt><trkpt lat="44.334101196432364" lon="11.677707846478741"><ele>63.25</ele><time>2026-05-03T09:36:42.011Z</time></trkpt><trkpt lat="44.33414385483665" lon="11.677871526638553"><ele>64.0</ele><time>2026-05-03T09:36:43.011Z</time></trkpt><trkpt lat="44.33419206805346" lon="11.67802505408283"><ele>64.0</ele><time>2026-05-03T09:36:44.011Z</time></trkpt><trkpt lat="44.33423438127194" lon="11.67818054220044"><ele>64.0</ele><time>2026-05-03T09:36:45.011Z</time></trkpt><trkpt lat="44.334276488217206" lon="11.678340621800709"><ele>64.0</ele><time>2026-05-03T09:36:46.011Z</time></trkpt><trkpt lat="44.334324469897254" lon="11.678495289336594"><ele>64.0</ele><time>2026-05-03T09:36:47.011Z</time></trkpt><trkpt lat="44.33436443718921" lon="11.678655131081253"><ele>64.0</ele><time>2026-05-03T09:36:48.011Z</time></trkpt><trkpt lat="44.3344181286609" lon="11.67880995347244"><ele>64.0</ele><time>2026-05-03T09:36:49.011Z</time></trkpt><trkpt lat="44.334475053165" lon="11.678968128550522"><ele>64.0</ele><time>2026-05-03T09:36:50.011Z</time></trkpt><trkpt lat="44.33452696129343" lon="11.679124115801592"><ele>64.0</ele><time>2026-05-03T09:36:51.011Z</time></trkpt><trkpt lat="44.334577133509065" lon="11.67927529000491"><ele>63.25</ele><time>2026-05-03T09:36:52.011Z</time></trkpt><trkpt lat="44.334612837707134" lon="11.67943924040155"><ele>62.5</ele><time>2026-05-03T09:36:53.011Z</time></trkpt><trkpt lat="44.33464734502155" lon="11.679609115012306"><ele>61.75</ele><time>2026-05-03T09:36:54.011Z</time></trkpt><trkpt lat="44.33469812295194" lon="11.679763845993087"><ele>61.0</ele><time>2026-05-03T09:36:55.011Z</time></trkpt><trkpt lat="44.33475195642889" lon="11.679926280433435"><ele>61.0</ele><time>2026-05-03T09:36:56.011Z</time></trkpt><trkpt lat="44.334803092199756" lon="11.680082985428138"><ele>61.0</ele><time>2026-05-03T09:36:57.011Z</time></trkpt><trkpt lat="44.33485427891956" lon="11.680230278964952"><ele>61.0</ele><time>2026-05-03T09:36:58.011Z</time></trkpt><trkpt lat="44.33490117150276" lon="11.680392522276541"><ele>61.0</ele><time>2026-05-03T09:36:59.011Z</time></trkpt><trkpt lat="44.3349551510395" lon="11.680550548205566"><ele>60.75</ele><time>2026-05-03T09:37:00.011Z</time></trkpt><trkpt lat="44.335018532458086" lon="11.68070177899748"><ele>60.5</ele><time>2026-05-03T09:37:01.011Z</time></trkpt><trkpt lat="44.33509337179764" lon="11.680834281269385"><ele>60.25</ele><time>2026-05-03T09:37:02.011Z</time></trkpt><trkpt lat="44.335177155347296" lon="11.680973486798164"><ele>60.0</ele><time>2026-05-03T09:37:03.011Z</time></trkpt><trkpt lat="44.33525528367633" lon="11.681107419440702"><ele>60.0</ele><time>2026-05-03T09:37:04.011Z</time></trkpt><trkpt lat="44.33532784564762" lon="11.681247060083608"><ele>60.0</ele><time>2026-05-03T09:37:05.011Z</time></trkpt><trkpt lat="44.335401304938834" lon="11.681384785194739"><ele>60.0</ele><time>2026-05-03T09:37:06.011Z</time></trkpt><trkpt lat="44.33548129818186" lon="11.68152392504863"><ele>60.0</ele><time>2026-05-03T09:37:07.011Z</time></trkpt><trkpt lat="44.3355591160824" lon="11.681666038709718"><ele>60.5</ele><time>2026-05-03T09:37:08.011Z</time></trkpt><trkpt lat="44.335648421112936" lon="11.681804429734212"><ele>61.0</ele><time>2026-05-03T09:37:09.011Z</time></trkpt><trkpt lat="44.335739356692855" lon="11.681936977965869"><ele>61.5</ele><time>2026-05-03T09:37:10.011Z</time></trkpt><trkpt lat="44.33585182373702" lon="11.682043402731875"><ele>62.0</ele><time>2026-05-03T09:37:11.011Z</time></trkpt><trkpt lat="44.335962787283364" lon="11.682143412037021"><ele>60.75</ele><time>2026-05-03T09:37:12.011Z</time></trkpt><trkpt lat="44.33606989475594" lon="11.682240707034701"><ele>59.5</ele><time>2026-05-03T09:37:13.011Z</time></trkpt><trkpt lat="44.33617576774968" lon="11.682340325366464"><ele>58.25</ele><time>2026-05-03T09:37:14.011Z</time></trkpt><trkpt lat="44.336277051764476" lon="11.682439413391377"><ele>57.0</ele><time>2026-05-03T09:37:15.011Z</time></trkpt><trkpt lat="44.33638112923821" lon="11.682536877452007"><ele>58.0</ele><time>2026-05-03T09:37:16.011Z</time></trkpt><trkpt lat="44.33648616813815" lon="11.68263290074694"><ele>59.0</ele><time>2026-05-03T09:37:17.011Z</time></trkpt><trkpt lat="44.336587741976246" lon="11.682732807529106"><ele>60.0</ele><time>2026-05-03T09:37:18.011Z</time></trkpt><trkpt lat="44.336689547573044" lon="11.682828758097317"><ele>61.0</ele><time>2026-05-03T09:37:19.011Z</time></trkpt><trkpt lat="44.33679771014304" lon="11.68291143128606"><ele>61.0</ele><time>2026-05-03T09:37:20.011Z</time></trkpt><trkpt lat="44.33690570126127" lon="11.682996709513883"><ele>61.0</ele><time>2026-05-03T09:37:21.011Z</time></trkpt><trkpt lat="44.33700955480856" lon="11.683086986113167"><ele>61.0</ele><time>2026-05-03T09:37:22.011Z</time></trkpt><trkpt lat="44.337113010912404" lon="11.683179496694837"><ele>61.0</ele><time>2026-05-03T09:37:23.011Z</time></trkpt><trkpt lat="44.33722127155595" lon="11.683266076236514"><ele>60.25</ele><time>2026-05-03T09:37:24.011Z</time></trkpt><trkpt lat="44.33732745999356" lon="11.683358714814467"><ele>59.5</ele><time>2026-05-03T09:37:25.011Z</time></trkpt><trkpt lat="44.33743547766572" lon="11.683447313133682"><ele>58.75</ele><time>2026-05-03T09:37:26.011Z</time></trkpt><trkpt lat="44.337547241368625" lon="11.683535905550642"><ele>58.0</ele><time>2026-05-03T09:37:27.011Z</time></trkpt><trkpt lat="44.3376655649269" lon="11.683617217338703"><ele>58.0</ele><time>2026-05-03T09:37:28.011Z</time></trkpt><trkpt lat="44.337775004146906" lon="11.683704038671609"><ele>58.0</ele><time>2026-05-03T09:37:29.011Z</time></trkpt><trkpt lat="44.33788255812935" lon="11.683801342793235"><ele>58.0</ele><time>2026-05-03T09:37:30.011Z</time></trkpt><trkpt lat="44.33799046152833" lon="11.683891825217481"><ele>58.0</ele><time>2026-05-03T09:37:31.011Z</time></trkpt><trkpt lat="44.33810165016896" lon="11.683988887491376"><ele>58.25</ele><time>2026-05-03T09:37:32.011Z</time></trkpt><trkpt lat="44.33821590327843" lon="11.684070673086689"><ele>58.5</ele><time>2026-05-03T09:37:33.011Z</time></trkpt><trkpt lat="44.33832945838826" lon="11.684149752224956"><ele>58.75</ele><time>2026-05-03T09:37:34.011Z</time></trkpt><trkpt lat="44.3384402258142" lon="11.68423239941413"><ele>59.0</ele><time>2026-05-03T09:37:35.011Z</time></trkpt><trkpt lat="44.338551623901786" lon="11.684327877979667"><ele>59.0</ele><time>2026-05-03T09:37:36.011Z</time></trkpt><trkpt lat="44.338661947981315" lon="11.68441736766476"><ele>59.0</ele><time>2026-05-03T09:37:37.011Z</time></trkpt><trkpt lat="44.338764568510456" lon="11.684508445572215"><ele>59.0</ele><time>2026-05-03T09:37:38.011Z</time></trkpt><trkpt lat="44.338872703898026" lon="11.68459880509325"><ele>59.0</ele><time>2026-05-03T09:37:39.011Z</time></trkpt><trkpt lat="44.338983060722676" lon="11.68468783962392"><ele>58.5</ele><time>2026-05-03T09:37:40.011Z</time></trkpt><trkpt lat="44.3390800458248" lon="11.684762715976936"><ele>58.0</ele><time>2026-05-03T09:37:41.011Z</time></trkpt><trkpt lat="44.3391856435235" lon="11.684842637935407"><ele>57.5</ele><time>2026-05-03T09:37:42.011Z</time></trkpt><trkpt lat="44.33928589177021" lon="11.684929495005985"><ele>57.0</ele><time>2026-05-03T09:37:43.011Z</time></trkpt><trkpt lat="44.33938675169235" lon="11.685003400430997"><ele>57.0</ele><time>2026-05-03T09:37:44.011Z</time></trkpt><trkpt lat="44.33948730401716" lon="11.685076433760072"><ele>57.0</ele><time>2026-05-03T09:37:45.011Z</time></trkpt><trkpt lat="44.339584424947176" lon="11.68515582362497"><ele>57.0</ele><time>2026-05-03T09:37:46.011Z</time></trkpt><trkpt lat="44.339678870063764" lon="11.685236727193466"><ele>57.0</ele><time>2026-05-03T09:37:47.011Z</time></trkpt><trkpt lat="44.339774853185475" lon="11.685323662347965"><ele>57.25</ele><time>2026-05-03T09:37:48.011Z</time></trkpt><trkpt lat="44.33987415591941" lon="11.685409425779692"><ele>57.5</ele><time>2026-05-03T09:37:49.011Z</time></trkpt><trkpt lat="44.33997895909043" lon="11.685498940770366"><ele>57.75</ele><time>2026-05-03T09:37:50.011Z</time></trkpt><trkpt lat="44.34007974286214" lon="11.685587723869029"><ele>58.0</ele><time>2026-05-03T09:37:51.011Z</time></trkpt><trkpt lat="44.34018300348381" lon="11.685676625630629"><ele>58.0</ele><time>2026-05-03T09:37:52.011Z</time></trkpt><trkpt lat="44.340279368654755" lon="11.6857684825815"><ele>58.0</ele><time>2026-05-03T09:37:53.011Z</time></trkpt><trkpt lat="44.34037650807117" lon="11.685871709311545"><ele>58.0</ele><time>2026-05-03T09:37:54.011Z</time></trkpt><trkpt lat="44.34047514412886" lon="11.685977198206311"><ele>58.0</ele><time>2026-05-03T09:37:55.011Z</time></trkpt><trkpt lat="44.34056244965781" lon="11.68608702004848"><ele>58.25</ele><time>2026-05-03T09:37:56.011Z</time></trkpt><trkpt lat="44.340648595351354" lon="11.686201732054533"><ele>58.5</ele><time>2026-05-03T09:37:57.011Z</time></trkpt><trkpt lat="44.34073643347307" lon="11.686306027115577"><ele>58.75</ele><time>2026-05-03T09:37:58.012Z</time></trkpt><trkpt lat="44.34082381870229" lon="11.68639756535186"><ele>59.0</ele><time>2026-05-03T09:37:59.012Z</time></trkpt><trkpt lat="44.34090691427934" lon="11.686495776061186"><ele>59.0</ele><time>2026-05-03T09:38:00.012Z</time></trkpt><trkpt lat="44.34098302966183" lon="11.686603509975034"><ele>59.00000000000001</ele><time>2026-05-03T09:38:01.012Z</time></trkpt><trkpt lat="44.341061057629815" lon="11.68671550801361"><ele>59.00000000000001</ele><time>2026-05-03T09:38:02.012Z</time></trkpt><trkpt lat="44.341139862455016" lon="11.686827004133216"><ele>59.0</ele><time>2026-05-03T09:38:03.012Z</time></trkpt><trkpt lat="44.34121827399924" lon="11.686925558806713"><ele>59.0</ele><time>2026-05-03T09:38:04.012Z</time></trkpt><trkpt lat="44.34129812200822" lon="11.687024163508802"><ele>59.0</ele><time>2026-05-03T09:38:05.012Z</time></trkpt><trkpt lat="44.34137782773223" lon="11.687117640039713"><ele>59.00000000000001</ele><time>2026-05-03T09:38:06.012Z</time></trkpt><trkpt lat="44.341466281883406" lon="11.68716739431307"><ele>59.00000000000001</ele><time>2026-05-03T09:38:07.012Z</time></trkpt><trkpt lat="44.34156214152325" lon="11.687205104098675"><ele>59.0</ele><time>2026-05-03T09:38:08.012Z</time></trkpt><trkpt lat="44.3416518666667" lon="11.68723674159559"><ele>59.0</ele><time>2026-05-03T09:38:09.012Z</time></trkpt><trkpt lat="44.3417293317034" lon="11.687281188839542"><ele>59.00000000000001</ele><time>2026-05-03T09:38:10.012Z</time></trkpt><trkpt lat="44.34179470664186" lon="11.687345863961168"><ele>59.0</ele><time>2026-05-03T09:38:11.012Z</time></trkpt><trkpt lat="44.341841938690884" lon="11.687428488707804"><ele>59.0</ele><time>2026-05-03T09:38:12.012Z</time></trkpt><trkpt lat="44.34185546688477" lon="11.687523015815888"><ele>59.0</ele><time>2026-05-03T09:38:13.012Z</time></trkpt><trkpt lat="44.34185878447055" lon="11.687637391019143"><ele>59.00000000000001</ele><time>2026-05-03T09:38:14.012Z</time></trkpt><trkpt lat="44.34186744041847" lon="11.68774917192114"><ele>59.0</ele><time>2026-05-03T09:38:15.012Z</time></trkpt><trkpt lat="44.34190928341004" lon="11.687850221572484"><ele>58.833333333333336</ele><time>2026-05-03T09:38:16.012Z</time></trkpt><trkpt lat="44.34197010772866" lon="11.687925304051427"><ele>58.66666666666667</ele><time>2026-05-03T09:38:17.012Z</time></trkpt><trkpt lat="44.34203999982506" lon="11.687991352596194"><ele>58.5</ele><time>2026-05-03T09:38:18.012Z</time></trkpt><trkpt lat="44.34210687752308" lon="11.688043688406545"><ele>58.33333333333333</ele><time>2026-05-03T09:38:19.012Z</time></trkpt><trkpt lat="44.34213804469751" lon="11.688177550671622"><ele>58.166666666666664</ele><time>2026-05-03T09:38:20.012Z</time></trkpt><trkpt lat="44.34219856868784" lon="11.688275344444943"><ele>58.0</ele><time>2026-05-03T09:38:21.012Z</time></trkpt><trkpt lat="44.34226411990215" lon="11.688368872079355"><ele>57.599999999999994</ele><time>2026-05-03T09:38:22.012Z</time></trkpt><trkpt lat="44.3423308070432" lon="11.688467708846803"><ele>57.199999999999996</ele><time>2026-05-03T09:38:23.012Z</time></trkpt><trkpt lat="44.34239915741083" lon="11.688567019441194"><ele>56.8</ele><time>2026-05-03T09:38:24.012Z</time></trkpt><trkpt lat="44.34247707454503" lon="11.68866701129709"><ele>56.4</ele><time>2026-05-03T09:38:25.012Z</time></trkpt><trkpt lat="44.3425531152627" lon="11.688769876354932"><ele>56.0</ele><time>2026-05-03T09:38:26.012Z</time></trkpt><trkpt lat="44.34263426983844" lon="11.688870380011739"><ele>56.0</ele><time>2026-05-03T09:38:27.012Z</time></trkpt><trkpt lat="44.34271075241676" lon="11.688986476074772"><ele>56.0</ele><time>2026-05-03T09:38:28.012Z</time></trkpt><trkpt lat="44.342789912571526" lon="11.68909749861715"><ele>56.0</ele><time>2026-05-03T09:38:29.012Z</time></trkpt><trkpt lat="44.342870752206125" lon="11.689214053396574"><ele>56.0</ele><time>2026-05-03T09:38:30.012Z</time></trkpt><trkpt lat="44.342950855348185" lon="11.689331310375302"><ele>55.75</ele><time>2026-05-03T09:38:31.012Z</time></trkpt><trkpt lat="44.34303458826696" lon="11.68944365617589"><ele>55.5</ele><time>2026-05-03T09:38:32.012Z</time></trkpt><trkpt lat="44.343118244644074" lon="11.689562573524398"><ele>55.25</ele><time>2026-05-03T09:38:33.012Z</time></trkpt><trkpt lat="44.34320249813716" lon="11.689671717824403"><ele>55.0</ele><time>2026-05-03T09:38:34.012Z</time></trkpt><trkpt lat="44.343284464712475" lon="11.689789928144394"><ele>55.0</ele><time>2026-05-03T09:38:35.012Z</time></trkpt><trkpt lat="44.3433664034343" lon="11.689904574067656"><ele>55.0</ele><time>2026-05-03T09:38:36.012Z</time></trkpt><trkpt lat="44.34344943962431" lon="11.690022188850625"><ele>55.0</ele><time>2026-05-03T09:38:37.012Z</time></trkpt><trkpt lat="44.34353230765066" lon="11.690139620834124"><ele>55.0</ele><time>2026-05-03T09:38:38.012Z</time></trkpt><trkpt lat="44.343618338590524" lon="11.690265029673732"><ele>54.75</ele><time>2026-05-03T09:38:39.012Z</time></trkpt><trkpt lat="44.34370769517855" lon="11.690391176736682"><ele>54.5</ele><time>2026-05-03T09:38:40.012Z</time></trkpt><trkpt lat="44.343797084922166" lon="11.69051783582008"><ele>54.25</ele><time>2026-05-03T09:38:41.012Z</time></trkpt><trkpt lat="44.34389058805434" lon="11.690625823356134"><ele>54.0</ele><time>2026-05-03T09:38:42.012Z</time></trkpt><trkpt lat="44.34397926332315" lon="11.690737757127186"><ele>54.0</ele><time>2026-05-03T09:38:43.012Z</time></trkpt><trkpt lat="44.344061180182344" lon="11.69085657183844"><ele>54.0</ele><time>2026-05-03T09:38:44.012Z</time></trkpt><trkpt lat="44.34413633727829" lon="11.690978132250784"><ele>54.0</ele><time>2026-05-03T09:38:45.012Z</time></trkpt><trkpt lat="44.34421648861407" lon="11.691091277131106"><ele>54.0</ele><time>2026-05-03T09:38:46.012Z</time></trkpt><trkpt lat="44.34429505578591" lon="11.691216070699316"><ele>53.75</ele><time>2026-05-03T09:38:47.012Z</time></trkpt><trkpt lat="44.34437295224882" lon="11.691335287430661"><ele>53.5</ele><time>2026-05-03T09:38:48.012Z</time></trkpt><trkpt lat="44.3444509425056" lon="11.691455505887602"><ele>53.25</ele><time>2026-05-03T09:38:49.012Z</time></trkpt><trkpt lat="44.344530191122075" lon="11.691576245134613"><ele>53.0</ele><time>2026-05-03T09:38:50.012Z</time></trkpt><trkpt lat="44.34461315114089" lon="11.691690677919487"><ele>53.0</ele><time>2026-05-03T09:38:51.012Z</time></trkpt><trkpt lat="44.344692881133966" lon="11.691775425571663"><ele>53.0</ele><time>2026-05-03T09:38:52.012Z</time></trkpt><trkpt lat="44.344768148127976" lon="11.691898848173695"><ele>53.0</ele><time>2026-05-03T09:38:53.012Z</time></trkpt><trkpt lat="44.34484295196144" lon="11.692020034786406"><ele>53.0</ele><time>2026-05-03T09:38:54.012Z</time></trkpt><trkpt lat="44.344909416913396" lon="11.692150033069248"><ele>53.0</ele><time>2026-05-03T09:38:55.012Z</time></trkpt><trkpt lat="44.3449743061576" lon="11.692282629558624"><ele>53.25</ele><time>2026-05-03T09:38:56.012Z</time></trkpt><trkpt lat="44.345031228234454" lon="11.692422390851757"><ele>53.5</ele><time>2026-05-03T09:38:57.012Z</time></trkpt><trkpt lat="44.34509405703936" lon="11.692560953326428"><ele>53.75</ele><time>2026-05-03T09:38:58.012Z</time></trkpt><trkpt lat="44.345157277894565" lon="11.692697822778573"><ele>54.0</ele><time>2026-05-03T09:38:59.012Z</time></trkpt><trkpt lat="44.34521520646446" lon="11.692837437342062"><ele>54.25</ele><time>2026-05-03T09:39:00.012Z</time></trkpt><trkpt lat="44.345271611763295" lon="11.692978476194973"><ele>54.5</ele><time>2026-05-03T09:39:01.012Z</time></trkpt><trkpt lat="44.34532306113338" lon="11.69312120556805"><ele>54.75</ele><time>2026-05-03T09:39:02.012Z</time></trkpt><trkpt lat="44.345362117505324" lon="11.693273814493137"><ele>55.0</ele><time>2026-05-03T09:39:03.012Z</time></trkpt><trkpt lat="44.34540450268407" lon="11.693426502858669"><ele>55.0</ele><time>2026-05-03T09:39:04.012Z</time></trkpt><trkpt lat="44.34543818742433" lon="11.693584549671462"><ele>55.0</ele><time>2026-05-03T09:39:05.012Z</time></trkpt><trkpt lat="44.34546930672496" lon="11.693744407859114"><ele>55.0</ele><time>2026-05-03T09:39:06.012Z</time></trkpt><trkpt lat="44.34550419215571" lon="11.693904942330558"><ele>55.0</ele><time>2026-05-03T09:39:07.012Z</time></trkpt><trkpt lat="44.3455411986596" lon="11.694066326750868"><ele>55.0</ele><time>2026-05-03T09:39:08.012Z</time></trkpt><trkpt lat="44.34557940417911" lon="11.694229004809541"><ele>55.0</ele><time>2026-05-03T09:39:09.012Z</time></trkpt><trkpt lat="44.34561438372541" lon="11.694391396680972"><ele>55.0</ele><time>2026-05-03T09:39:10.012Z</time></trkpt><trkpt lat="44.345650768309746" lon="11.694552020342199"><ele>55.0</ele><time>2026-05-03T09:39:11.012Z</time></trkpt><trkpt lat="44.345689374967066" lon="11.694711671808287"><ele>54.5</ele><time>2026-05-03T09:39:12.012Z</time></trkpt><trkpt lat="44.34573768064539" lon="11.69486476086935"><ele>54.0</ele><time>2026-05-03T09:39:13.012Z</time></trkpt><trkpt lat="44.34578887872451" lon="11.695016828037806"><ele>53.5</ele><time>2026-05-03T09:39:14.012Z</time></trkpt><trkpt lat="44.34586168317489" lon="11.695140039265192"><ele>53.0</ele><time>2026-05-03T09:39:15.012Z</time></trkpt><trkpt lat="44.34593449380427" lon="11.695267683806549"><ele>52.25</ele><time>2026-05-03T09:39:16.012Z</time></trkpt><trkpt lat="44.34601497934586" lon="11.695384005365298"><ele>51.5</ele><time>2026-05-03T09:39:17.012Z</time></trkpt><trkpt lat="44.346102827090725" lon="11.695488752764165"><ele>50.75</ele><time>2026-05-03T09:39:18.012Z</time></trkpt><trkpt lat="44.34619761868788" lon="11.695581718414147"><ele>50.0</ele><time>2026-05-03T09:39:19.012Z</time></trkpt><trkpt lat="44.34629803987049" lon="11.695672728386217"><ele>50.6</ele><time>2026-05-03T09:39:20.012Z</time></trkpt><trkpt lat="44.34639553573261" lon="11.695754721871381"><ele>51.2</ele><time>2026-05-03T09:39:21.012Z</time></trkpt><trkpt lat="44.346492640083596" lon="11.695835950659129"><ele>51.8</ele><time>2026-05-03T09:39:22.012Z</time></trkpt><trkpt lat="44.346589324873136" lon="11.695916300534165"><ele>52.4</ele><time>2026-05-03T09:39:23.012Z</time></trkpt><trkpt lat="44.3466796982724" lon="11.695994899604102"><ele>53.0</ele><time>2026-05-03T09:39:24.012Z</time></trkpt><trkpt lat="44.34677208381549" lon="11.696072717162915"><ele>52.4</ele><time>2026-05-03T09:39:25.012Z</time></trkpt><trkpt lat="44.346861795290074" lon="11.69614702144897"><ele>51.8</ele><time>2026-05-03T09:39:26.012Z</time></trkpt><trkpt lat="44.34694514831667" lon="11.696217640526273"><ele>51.2</ele><time>2026-05-03T09:39:27.012Z</time></trkpt><trkpt lat="44.34702275156441" lon="11.696283591292733"><ele>50.6</ele><time>2026-05-03T09:39:28.012Z</time></trkpt><trkpt lat="44.3470973130412" lon="11.696343122893275"><ele>50.0</ele><time>2026-05-03T09:39:29.012Z</time></trkpt><trkpt lat="44.34716222183231" lon="11.696410271870354"><ele>50.66666666666667</ele><time>2026-05-03T09:39:30.012Z</time></trkpt><trkpt lat="44.347253126903745" lon="11.696459210926466"><ele>51.33333333333333</ele><time>2026-05-03T09:39:32.013Z</time></trkpt><trkpt lat="44.34739189861341" lon="11.696160963815702"><ele>52.0</ele><time>2026-05-03T09:39:33.013Z</time></trkpt><trkpt lat="44.34744031357105" lon="11.696028480587449"><ele>52.400000000000006</ele><time>2026-05-03T09:39:34.013Z</time></trkpt><trkpt lat="44.34747756794211" lon="11.69589258204627"><ele>52.800000000000004</ele><time>2026-05-03T09:39:35.013Z</time></trkpt><trkpt lat="44.347525592938815" lon="11.695757897350173"><ele>53.2</ele><time>2026-05-03T09:39:36.013Z</time></trkpt><trkpt lat="44.347581603949855" lon="11.695612151736603"><ele>53.6</ele><time>2026-05-03T09:39:37.013Z</time></trkpt><trkpt lat="44.34764004837962" lon="11.695474180348866"><ele>54.0</ele><time>2026-05-03T09:39:38.013Z</time></trkpt><trkpt lat="44.347696234797176" lon="11.695345858124103"><ele>54.400000000000006</ele><time>2026-05-03T09:39:39.013Z</time></trkpt><trkpt lat="44.34774367252224" lon="11.695215541348757"><ele>54.800000000000004</ele><time>2026-05-03T09:39:40.013Z</time></trkpt><trkpt lat="44.34779023876132" lon="11.695094249149149"><ele>55.199999999999996</ele><time>2026-05-03T09:39:41.013Z</time></trkpt><trkpt lat="44.34784051804115" lon="11.694983167024722"><ele>55.599999999999994</ele><time>2026-05-03T09:39:42.013Z</time></trkpt><trkpt lat="44.34788715082163" lon="11.694854209865756"><ele>56.0</ele><time>2026-05-03T09:39:43.013Z</time></trkpt><trkpt lat="44.34793031180206" lon="11.694738463109521"><ele>56.0</ele><time>2026-05-03T09:39:44.013Z</time></trkpt><trkpt lat="44.347971528743685" lon="11.694629878924543"><ele>55.99999999999999</ele><time>2026-05-03T09:39:45.013Z</time></trkpt><trkpt lat="44.34800619520825" lon="11.694531857873804"><ele>55.99999999999999</ele><time>2026-05-03T09:39:46.013Z</time></trkpt><trkpt lat="44.34805378684958" lon="11.69442166073048"><ele>56.0</ele><time>2026-05-03T09:39:48.013Z</time></trkpt><trkpt lat="44.348101672431724" lon="11.6943166362296"><ele>56.0</ele><time>2026-05-03T09:39:55.013Z</time></trkpt><trkpt lat="44.34815991347178" lon="11.694155620372364"><ele>55.50000000000001</ele><time>2026-05-03T09:39:57.013Z</time></trkpt><trkpt lat="44.34820383939444" lon="11.694049054006527"><ele>55.0</ele><time>2026-05-03T09:39:58.013Z</time></trkpt><trkpt lat="44.34824124484449" lon="11.693950929078884"><ele>54.5</ele><time>2026-05-03T09:39:59.013Z</time></trkpt><trkpt lat="44.34827903386834" lon="11.693877860272801"><ele>54.0</ele><time>2026-05-03T09:40:00.013Z</time></trkpt><trkpt lat="44.348310950350175" lon="11.693796705596679"><ele>53.50000000000001</ele><time>2026-05-03T09:40:01.013Z</time></trkpt><trkpt lat="44.34833827228703" lon="11.693713803075983"><ele>53.0</ele><time>2026-05-03T09:40:02.013Z</time></trkpt><trkpt lat="44.34839155941957" lon="11.693578104506852"><ele>52.833333333333336</ele><time>2026-05-03T09:40:04.013Z</time></trkpt><trkpt lat="44.3484125852198" lon="11.693492088958058"><ele>52.66666666666667</ele><time>2026-05-03T09:40:05.013Z</time></trkpt><trkpt lat="44.34841654656739" lon="11.69340030688344"><ele>52.5</ele><time>2026-05-03T09:40:06.013Z</time></trkpt><trkpt lat="44.34842104868775" lon="11.693298914698016"><ele>52.33333333333333</ele><time>2026-05-03T09:40:07.013Z</time></trkpt><trkpt lat="44.34840470872676" lon="11.693149368084422"><ele>52.166666666666664</ele><time>2026-05-03T09:40:09.013Z</time></trkpt><trkpt lat="44.348504152249845" lon="11.693131452044225"><ele>52.0</ele><time>2026-05-03T09:40:10.013Z</time></trkpt><trkpt lat="44.34858319546334" lon="11.69310644770344"><ele>52.0</ele><time>2026-05-03T09:40:12.013Z</time></trkpt><trkpt lat="44.34864817369351" lon="11.693078498712477"><ele>52.0</ele><time>2026-05-03T09:41:06.003Z</time></trkpt><trkpt lat="44.348584316117744" lon="11.693105959829165"><ele>52.0</ele><time>2026-05-03T09:41:10.002Z</time></trkpt><trkpt lat="44.34849949612546" lon="11.69314288545118"><ele>52.0</ele><time>2026-05-03T09:41:17.002Z</time></trkpt><trkpt lat="44.34844313604465" lon="11.693102453787501"><ele>52.0</ele><time>2026-05-03T09:41:18.002Z</time></trkpt><trkpt lat="44.34837305134397" lon="11.69313629763141"><ele>52.0</ele><time>2026-05-03T09:41:20.002Z</time></trkpt><trkpt lat="44.34830600667931" lon="11.693089814989229"><ele>52.0</ele><time>2026-05-03T09:41:22.002Z</time></trkpt><trkpt lat="44.34824118801482" lon="11.693037888915528"><ele>51.99999999999999</ele><time>2026-05-03T09:41:24.002Z</time></trkpt><trkpt lat="44.34817209507784" lon="11.693019093414566"><ele>52.0</ele><time>2026-05-03T09:41:31.002Z</time></trkpt><trkpt lat="44.3480721371602" lon="11.69298578587485"><ele>52.0</ele><time>2026-05-03T09:41:33.002Z</time></trkpt><trkpt lat="44.34800577430455" lon="11.692964021584118"><ele>52.0</ele><time>2026-05-03T09:41:34.002Z</time></trkpt><trkpt lat="44.34792870032677" lon="11.692935633758601"><ele>51.99999999999999</ele><time>2026-05-03T09:41:35.002Z</time></trkpt><trkpt lat="44.3478605522389" lon="11.692870627889414"><ele>52.0</ele><time>2026-05-03T09:41:36.002Z</time></trkpt><trkpt lat="44.347802424955205" lon="11.692788131814524"><ele>51.83333333333333</ele><time>2026-05-03T09:41:37.003Z</time></trkpt><trkpt lat="44.347767145871316" lon="11.692678152818702"><ele>51.666666666666664</ele><time>2026-05-03T09:41:38.003Z</time></trkpt><trkpt lat="44.347771702054544" lon="11.692568049930301"><ele>51.5</ele><time>2026-05-03T09:41:39.003Z</time></trkpt><trkpt lat="44.347809459669314" lon="11.692479399810844"><ele>51.33333333333333</ele><time>2026-05-03T09:41:40.003Z</time></trkpt><trkpt lat="44.34787959173683" lon="11.692371275088224"><ele>51.166666666666664</ele><time>2026-05-03T09:41:42.003Z</time></trkpt><trkpt lat="44.347975517788754" lon="11.692368847446781"><ele>51.0</ele><time>2026-05-03T09:41:44.003Z</time></trkpt><trkpt lat="44.34803827835993" lon="11.692388888172973"><ele>51.0</ele><time>2026-05-03T09:41:52.003Z</time></trkpt><trkpt lat="44.34812671358441" lon="11.692417127380397"><ele>51.0</ele><time>2026-05-03T09:41:58.003Z</time></trkpt><trkpt lat="44.34823630958629" lon="11.692452123651014"><ele>51.0</ele><time>2026-05-03T09:42:00.003Z</time></trkpt><trkpt lat="44.34833934527615" lon="11.692485025082496"><ele>51.0</ele><time>2026-05-03T09:42:02.003Z</time></trkpt><trkpt lat="44.348430817275755" lon="11.692527533717913"><ele>51.0</ele><time>2026-05-03T09:42:04.003Z</time></trkpt><trkpt lat="44.34849498118353" lon="11.692545316964678"><ele>51.0</ele><time>2026-05-03T09:42:05.003Z</time></trkpt><trkpt lat="44.348574993687485" lon="11.69256776143738"><ele>51.0</ele><time>2026-05-03T09:42:06.003Z</time></trkpt><trkpt lat="44.34866626618371" lon="11.692594442852391"><ele>51.0</ele><time>2026-05-03T09:42:07.003Z</time></trkpt><trkpt lat="44.34876882811674" lon="11.692614374123405"><ele>51.0</ele><time>2026-05-03T09:42:08.003Z</time></trkpt><trkpt lat="44.34887622098937" lon="11.692640305300682"><ele>51.0</ele><time>2026-05-03T09:42:09.003Z</time></trkpt><trkpt lat="44.34898462347003" lon="11.692669570434036"><ele>51.5</ele><time>2026-05-03T09:42:10.003Z</time></trkpt><trkpt lat="44.349101464069825" lon="11.692695282840473"><ele>52.0</ele><time>2026-05-03T09:42:11.003Z</time></trkpt><trkpt lat="44.349221506117566" lon="11.692714842117232"><ele>52.5</ele><time>2026-05-03T09:42:12.003Z</time></trkpt><trkpt lat="44.349342981276386" lon="11.6927278408504"><ele>53.0</ele><time>2026-05-03T09:42:13.003Z</time></trkpt><trkpt lat="44.34946882817377" lon="11.692741234982538"><ele>53.0</ele><time>2026-05-03T09:42:14.003Z</time></trkpt><trkpt lat="44.349590958650175" lon="11.692754426725141"><ele>53.0</ele><time>2026-05-03T09:42:15.003Z</time></trkpt><trkpt lat="44.34971117031863" lon="11.692775247454042"><ele>53.0</ele><time>2026-05-03T09:42:16.003Z</time></trkpt><trkpt lat="44.34982917621818" lon="11.692792631985915"><ele>53.0</ele><time>2026-05-03T09:42:17.003Z</time></trkpt><trkpt lat="44.34994957193965" lon="11.692827236747387"><ele>53.0</ele><time>2026-05-03T09:42:18.003Z</time></trkpt><trkpt lat="44.350064523939494" lon="11.692855783049671"><ele>53.0</ele><time>2026-05-03T09:42:19.003Z</time></trkpt><trkpt lat="44.35017961294059" lon="11.692885282688433"><ele>53.0</ele><time>2026-05-03T09:42:20.003Z</time></trkpt><trkpt lat="44.35029984049627" lon="11.692938904263558"><ele>53.0</ele><time>2026-05-03T09:42:21.003Z</time></trkpt><trkpt lat="44.35041683194212" lon="11.692954288581332"><ele>53.0</ele><time>2026-05-03T09:42:22.003Z</time></trkpt><trkpt lat="44.35052607695212" lon="11.692998201916977"><ele>53.0</ele><time>2026-05-03T09:42:23.003Z</time></trkpt><trkpt lat="44.35063197051003" lon="11.693046183523201"><ele>53.0</ele><time>2026-05-03T09:42:24.003Z</time></trkpt><trkpt lat="44.350748299023095" lon="11.693087343805583"><ele>53.0</ele><time>2026-05-03T09:42:25.003Z</time></trkpt><trkpt lat="44.35087473768093" lon="11.69311423773584"><ele>53.0</ele><time>2026-05-03T09:42:26.003Z</time></trkpt><trkpt lat="44.35099285232422" lon="11.69313644077337"><ele>53.0</ele><time>2026-05-03T09:42:27.003Z</time></trkpt><trkpt lat="44.35111422662787" lon="11.693145015647184"><ele>53.0</ele><time>2026-05-03T09:42:28.003Z</time></trkpt><trkpt lat="44.351235000026534" lon="11.693150556105092"><ele>53.0</ele><time>2026-05-03T09:42:29.003Z</time></trkpt><trkpt lat="44.351357372617905" lon="11.693140913774572"><ele>52.5</ele><time>2026-05-03T09:42:30.003Z</time></trkpt><trkpt lat="44.35148092909581" lon="11.693119325742966"><ele>52.0</ele><time>2026-05-03T09:42:31.003Z</time></trkpt><trkpt lat="44.35160555824071" lon="11.693087605630904"><ele>51.5</ele><time>2026-05-03T09:42:32.003Z</time></trkpt><trkpt lat="44.351726093103075" lon="11.693043193924881"><ele>51.0</ele><time>2026-05-03T09:42:33.003Z</time></trkpt><trkpt lat="44.35184246586269" lon="11.692984971825343"><ele>51.0</ele><time>2026-05-03T09:42:34.003Z</time></trkpt><trkpt lat="44.3519534570237" lon="11.692919275501891"><ele>51.0</ele><time>2026-05-03T09:42:35.003Z</time></trkpt><trkpt lat="44.35206272968391" lon="11.69284306164413"><ele>51.0</ele><time>2026-05-03T09:42:36.003Z</time></trkpt><trkpt lat="44.35217267803476" lon="11.692761261820461"><ele>51.0</ele><time>2026-05-03T09:42:37.003Z</time></trkpt><trkpt lat="44.352275836028085" lon="11.692673369577799"><ele>51.0</ele><time>2026-05-03T09:42:38.003Z</time></trkpt><trkpt lat="44.352375583027495" lon="11.69258517156308"><ele>51.0</ele><time>2026-05-03T09:42:39.003Z</time></trkpt><trkpt lat="44.352475115914814" lon="11.69248233669349"><ele>51.0</ele><time>2026-05-03T09:42:40.003Z</time></trkpt><trkpt lat="44.35257856732867" lon="11.692382062078078"><ele>51.0</ele><time>2026-05-03T09:42:41.003Z</time></trkpt><trkpt lat="44.352674003295746" lon="11.692275423655722"><ele>51.0</ele><time>2026-05-03T09:42:42.003Z</time></trkpt><trkpt lat="44.35277127409053" lon="11.692162478333557"><ele>51.0</ele><time>2026-05-03T09:42:43.003Z</time></trkpt><trkpt lat="44.352862665865494" lon="11.692055925513577"><ele>51.0</ele><time>2026-05-03T09:42:44.003Z</time></trkpt><trkpt lat="44.352963890440144" lon="11.691943929221026"><ele>51.0</ele><time>2026-05-03T09:42:45.003Z</time></trkpt><trkpt lat="44.353060025794655" lon="11.691834839865443"><ele>51.25</ele><time>2026-05-03T09:42:46.003Z</time></trkpt><trkpt lat="44.353156904491634" lon="11.691723960729146"><ele>51.5</ele><time>2026-05-03T09:42:47.003Z</time></trkpt><trkpt lat="44.353252342406925" lon="11.691614416009177"><ele>51.75</ele><time>2026-05-03T09:42:48.003Z</time></trkpt><trkpt lat="44.35335318644347" lon="11.691501741265247"><ele>52.0</ele><time>2026-05-03T09:42:49.003Z</time></trkpt><trkpt lat="44.3534541235124" lon="11.69139533141668"><ele>52.0</ele><time>2026-05-03T09:42:50.003Z</time></trkpt><trkpt lat="44.3535592396759" lon="11.691292741772042"><ele>52.0</ele><time>2026-05-03T09:42:51.003Z</time></trkpt><trkpt lat="44.35366759369876" lon="11.691193898429477"><ele>52.0</ele><time>2026-05-03T09:42:52.003Z</time></trkpt><trkpt lat="44.353783732354295" lon="11.691114551954097"><ele>52.0</ele><time>2026-05-03T09:42:53.003Z</time></trkpt><trkpt lat="44.353899813018906" lon="11.691040511985108"><ele>52.0</ele><time>2026-05-03T09:42:54.003Z</time></trkpt><trkpt lat="44.35402328123782" lon="11.690969230857158"><ele>52.0</ele><time>2026-05-03T09:42:55.003Z</time></trkpt><trkpt lat="44.35415096869948" lon="11.690942795363867"><ele>52.0</ele><time>2026-05-03T09:42:56.003Z</time></trkpt><trkpt lat="44.35427485603611" lon="11.690910519176255"><ele>52.0</ele><time>2026-05-03T09:42:57.003Z</time></trkpt><trkpt lat="44.354392330954866" lon="11.690891138445684"><ele>52.0</ele><time>2026-05-03T09:42:58.003Z</time></trkpt><trkpt lat="44.35450246543157" lon="11.690882045181834"><ele>52.0</ele><time>2026-05-03T09:42:59.003Z</time></trkpt><trkpt lat="44.354624613575346" lon="11.690878185724698"><ele>52.0</ele><time>2026-05-03T09:43:00.003Z</time></trkpt><trkpt lat="44.354761869674824" lon="11.690898082231088"><ele>52.0</ele><time>2026-05-03T09:43:01.003Z</time></trkpt><trkpt lat="44.354911654124464" lon="11.690927156025428"><ele>51.75</ele><time>2026-05-03T09:43:02.003Z</time></trkpt><trkpt lat="44.35503661666094" lon="11.690968216859847"><ele>51.5</ele><time>2026-05-03T09:43:03.003Z</time></trkpt><trkpt lat="44.35515481065635" lon="11.691019172759193"><ele>51.25</ele><time>2026-05-03T09:43:04.003Z</time></trkpt><trkpt lat="44.35527943885408" lon="11.691085705434322"><ele>51.0</ele><time>2026-05-03T09:43:05.003Z</time></trkpt><trkpt lat="44.3554022970985" lon="11.691156041927494"><ele>51.0</ele><time>2026-05-03T09:43:06.003Z</time></trkpt><trkpt lat="44.355514495845036" lon="11.69121687018192"><ele>51.0</ele><time>2026-05-03T09:43:07.003Z</time></trkpt><trkpt lat="44.355640585549445" lon="11.691303954166836"><ele>51.0</ele><time>2026-05-03T09:43:08.004Z</time></trkpt><trkpt lat="44.35575966225905" lon="11.691390774894872"><ele>51.0</ele><time>2026-05-03T09:43:09.004Z</time></trkpt><trkpt lat="44.3558768429125" lon="11.691480156297544"><ele>50.75</ele><time>2026-05-03T09:43:10.004Z</time></trkpt><trkpt lat="44.35599015258527" lon="11.691575170582292"><ele>50.5</ele><time>2026-05-03T09:43:11.004Z</time></trkpt><trkpt lat="44.356105028716215" lon="11.691673088093255"><ele>50.25</ele><time>2026-05-03T09:43:12.004Z</time></trkpt><trkpt lat="44.356219560034674" lon="11.691765157523664"><ele>50.0</ele><time>2026-05-03T09:43:13.004Z</time></trkpt><trkpt lat="44.3563378524078" lon="11.69185509565729"><ele>51.0</ele><time>2026-05-03T09:43:14.001Z</time></trkpt><trkpt lat="44.356455860617494" lon="11.691942489557285"><ele>52.0</ele><time>2026-05-03T09:43:15.001Z</time></trkpt><trkpt lat="44.35657147485934" lon="11.69203641785118"><ele>53.0</ele><time>2026-05-03T09:43:16.001Z</time></trkpt><trkpt lat="44.35668653404333" lon="11.692128575466738"><ele>54.0</ele><time>2026-05-03T09:43:17.001Z</time></trkpt><trkpt lat="44.35680387172127" lon="11.692217120661649"><ele>54.0</ele><time>2026-05-03T09:43:18.001Z</time></trkpt><trkpt lat="44.35691824798429" lon="11.692309971594945"><ele>54.0</ele><time>2026-05-03T09:43:19.001Z</time></trkpt><trkpt lat="44.357033136095296" lon="11.692398668104987"><ele>54.0</ele><time>2026-05-03T09:43:20.001Z</time></trkpt><trkpt lat="44.35714778214894" lon="11.69249664285166"><ele>54.0</ele><time>2026-05-03T09:43:21.001Z</time></trkpt><trkpt lat="44.35726032382332" lon="11.692595346041728"><ele>54.0</ele><time>2026-05-03T09:43:22.001Z</time></trkpt><trkpt lat="44.35737052863989" lon="11.692692417753438"><ele>54.0</ele><time>2026-05-03T09:43:23.001Z</time></trkpt><trkpt lat="44.35748105939744" lon="11.692785297815806"><ele>54.0</ele><time>2026-05-03T09:43:24.001Z</time></trkpt><trkpt lat="44.35759194074926" lon="11.692878355150095"><ele>54.0</ele><time>2026-05-03T09:43:25.001Z</time></trkpt><trkpt lat="44.35770449773607" lon="11.692977975995579"><ele>54.0</ele><time>2026-05-03T09:43:26.001Z</time></trkpt><trkpt lat="44.357817447005615" lon="11.693072104333169"><ele>54.0</ele><time>2026-05-03T09:43:27Z</time></trkpt><trkpt lat="44.35793880038767" lon="11.693162473404078"><ele>54.0</ele><time>2026-05-03T09:43:28Z</time></trkpt><trkpt lat="44.358041580333634" lon="11.693258202951268"><ele>54.0</ele><time>2026-05-03T09:43:29.001Z</time></trkpt><trkpt lat="44.35814680892568" lon="11.693367507309373"><ele>54.0</ele><time>2026-05-03T09:43:30.001Z</time></trkpt><trkpt lat="44.35826145650975" lon="11.693466309752939"><ele>54.0</ele><time>2026-05-03T09:43:31.001Z</time></trkpt><trkpt lat="44.35837230659514" lon="11.693560191782655"><ele>54.0</ele><time>2026-05-03T09:43:32.001Z</time></trkpt><trkpt lat="44.358479782035126" lon="11.69365780822451"><ele>54.0</ele><time>2026-05-03T09:43:33.001Z</time></trkpt><trkpt lat="44.35858536722385" lon="11.693756718781273"><ele>54.0</ele><time>2026-05-03T09:43:34.001Z</time></trkpt><trkpt lat="44.35868912159078" lon="11.693851478048014"><ele>54.0</ele><time>2026-05-03T09:43:35.001Z</time></trkpt><trkpt lat="44.358797224366704" lon="11.693942205838978"><ele>54.0</ele><time>2026-05-03T09:43:36.001Z</time></trkpt><trkpt lat="44.35890628294765" lon="11.694023869792721"><ele>54.0</ele><time>2026-05-03T09:43:37.001Z</time></trkpt><trkpt lat="44.359017847849536" lon="11.69410291659012"><ele>54.5</ele><time>2026-05-03T09:43:38.001Z</time></trkpt><trkpt lat="44.35912942627259" lon="11.694178529443699"><ele>55.0</ele><time>2026-05-03T09:43:39.001Z</time></trkpt><trkpt lat="44.359242567604014" lon="11.694252093493796"><ele>55.5</ele><time>2026-05-03T09:43:40.001Z</time></trkpt><trkpt lat="44.359360872768264" lon="11.694312529635548"><ele>56.0</ele><time>2026-05-03T09:43:41.001Z</time></trkpt><trkpt lat="44.35947972401657" lon="11.69436585944608"><ele>56.0</ele><time>2026-05-03T09:43:42.001Z</time></trkpt><trkpt lat="44.35960208495362" lon="11.694411679425478"><ele>56.0</ele><time>2026-05-03T09:43:43.001Z</time></trkpt><trkpt lat="44.35972487693368" lon="11.694452011850673"><ele>56.0</ele><time>2026-05-03T09:43:44.001Z</time></trkpt><trkpt lat="44.3598498148748" lon="11.694502164893414"><ele>56.0</ele><time>2026-05-03T09:43:45.001Z</time></trkpt><trkpt lat="44.35997198327476" lon="11.694540836500812"><ele>55.75</ele><time>2026-05-03T09:43:46.001Z</time></trkpt><trkpt lat="44.360094185134884" lon="11.694576062432677"><ele>55.5</ele><time>2026-05-03T09:43:47.001Z</time></trkpt><trkpt lat="44.360212598177554" lon="11.694624394174145"><ele>55.25</ele><time>2026-05-03T09:43:48.001Z</time></trkpt><trkpt lat="44.36033964636765" lon="11.694662528840277"><ele>55.0</ele><time>2026-05-03T09:43:49.001Z</time></trkpt><trkpt lat="44.36046414684008" lon="11.694700195781373"><ele>54.0</ele><time>2026-05-03T09:43:50.001Z</time></trkpt><trkpt lat="44.360588171580964" lon="11.694742622521744"><ele>53.0</ele><time>2026-05-03T09:43:51.001Z</time></trkpt><trkpt lat="44.36071230458352" lon="11.694789530520518"><ele>52.0</ele><time>2026-05-03T09:43:52.001Z</time></trkpt><trkpt lat="44.36083797864896" lon="11.6948341730944"><ele>51.0</ele><time>2026-05-03T09:43:53.001Z</time></trkpt><trkpt lat="44.360961781791424" lon="11.694872532084133"><ele>51.0</ele><time>2026-05-03T09:43:54.001Z</time></trkpt><trkpt lat="44.36108641595708" lon="11.694916700193625"><ele>51.0</ele><time>2026-05-03T09:43:55.001Z</time></trkpt><trkpt lat="44.361210607164146" lon="11.694963546715018"><ele>51.0</ele><time>2026-05-03T09:43:56.001Z</time></trkpt><trkpt lat="44.36133467214069" lon="11.695011341735539"><ele>51.0</ele><time>2026-05-03T09:43:57.001Z</time></trkpt><trkpt lat="44.36146002595472" lon="11.695050785464836"><ele>50.25</ele><time>2026-05-03T09:43:58.001Z</time></trkpt><trkpt lat="44.36159331603294" lon="11.69513714635666"><ele>49.5</ele><time>2026-05-03T09:43:59.001Z</time></trkpt><trkpt lat="44.36171877748293" lon="11.695194387871977"><ele>48.75</ele><time>2026-05-03T09:44:00.001Z</time></trkpt><trkpt lat="44.36180674869544" lon="11.695312962598535"><ele>48.0</ele><time>2026-05-03T09:44:01.001Z</time></trkpt><trkpt lat="44.36190888601952" lon="11.695406341518062"><ele>47.0</ele><time>2026-05-03T09:44:02.001Z</time></trkpt><trkpt lat="44.36211625010715" lon="11.695564149807115"><ele>46.0</ele><time>2026-05-03T09:44:04.001Z</time></trkpt><trkpt lat="44.36221406476412" lon="11.695647798826137"><ele>45.0</ele><time>2026-05-03T09:44:05.001Z</time></trkpt><trkpt lat="44.36230166858579" lon="11.695722716395968"><ele>45.0</ele><time>2026-05-03T09:44:06.001Z</time></trkpt><trkpt lat="44.362386438115124" lon="11.695795501521072"><ele>45.0</ele><time>2026-05-03T09:44:07.001Z</time></trkpt><trkpt lat="44.36243663974856" lon="11.695921993113974"><ele>45.0</ele><time>2026-05-03T09:44:08.001Z</time></trkpt><trkpt lat="44.362487755942304" lon="11.696026583219188"><ele>45.0</ele><time>2026-05-03T09:44:09.001Z</time></trkpt><trkpt lat="44.36250153197949" lon="11.696150596630805"><ele>45.0</ele><time>2026-05-03T09:44:10.001Z</time></trkpt><trkpt lat="44.36249738829973" lon="11.696277435973666"><ele>45.6</ele><time>2026-05-03T09:44:11.001Z</time></trkpt><trkpt lat="44.36245633754825" lon="11.696401849874759"><ele>46.2</ele><time>2026-05-03T09:44:12.001Z</time></trkpt><trkpt lat="44.36238679229088" lon="11.696522300553857"><ele>46.8</ele><time>2026-05-03T09:44:13.001Z</time></trkpt><trkpt lat="44.36230902790868" lon="11.696622745408671"><ele>47.4</ele><time>2026-05-03T09:44:14.001Z</time></trkpt><trkpt lat="44.362214390414614" lon="11.696683549377722"><ele>48.0</ele><time>2026-05-03T09:44:15.001Z</time></trkpt><trkpt lat="44.362109307745534" lon="11.696699721956689"><ele>48.0</ele><time>2026-05-03T09:44:16.001Z</time></trkpt><trkpt lat="44.36200372146252" lon="11.69666968255867"><ele>48.0</ele><time>2026-05-03T09:44:17.001Z</time></trkpt><trkpt lat="44.36190417602446" lon="11.696601180912074"><ele>48.0</ele><time>2026-05-03T09:44:18.001Z</time></trkpt><trkpt lat="44.36181676381966" lon="11.696495350060916"><ele>48.0</ele><time>2026-05-03T09:44:19.001Z</time></trkpt><trkpt lat="44.36173259018555" lon="11.69639716630379"><ele>48.0</ele><time>2026-05-03T09:44:20.001Z</time></trkpt><trkpt lat="44.361644549459285" lon="11.696306753244825"><ele>48.0</ele><time>2026-05-03T09:44:21.001Z</time></trkpt><trkpt lat="44.361554323447656" lon="11.696218915557125"><ele>48.0</ele><time>2026-05-03T09:44:22.001Z</time></trkpt><trkpt lat="44.36146698620613" lon="11.696129245258046"><ele>48.0</ele><time>2026-05-03T09:44:23.001Z</time></trkpt><trkpt lat="44.36138854425949" lon="11.696036690033214"><ele>48.0</ele><time>2026-05-03T09:44:24.001Z</time></trkpt><trkpt lat="44.36131943152975" lon="11.695945057951555"><ele>48.0</ele><time>2026-05-03T09:44:25.001Z</time></trkpt><trkpt lat="44.36129002428733" lon="11.69581558334925"><ele>48.0</ele><time>2026-05-03T09:44:26.001Z</time></trkpt><trkpt lat="44.36128133870035" lon="11.695679588367007"><ele>48.0</ele><time>2026-05-03T09:44:27.001Z</time></trkpt><trkpt lat="44.36128208155163" lon="11.695561071380823"><ele>48.0</ele><time>2026-05-03T09:44:28.001Z</time></trkpt><trkpt lat="44.36126817566216" lon="11.695447913282845"><ele>48.0</ele><time>2026-05-03T09:44:29.001Z</time></trkpt><trkpt lat="44.36135936718212" lon="11.695387056481001"><ele>48.0</ele><time>2026-05-03T09:44:30.001Z</time></trkpt><trkpt lat="44.361403658685354" lon="11.69530701530348"><ele>48.0</ele><time>2026-05-03T09:44:31.001Z</time></trkpt><trkpt lat="44.36144201507425" lon="11.69521935326437"><ele>48.0</ele><time>2026-05-03T09:44:32.001Z</time></trkpt><trkpt lat="44.36146238148102" lon="11.695108177985551"><ele>48.0</ele><time>2026-05-03T09:44:33.001Z</time></trkpt><trkpt lat="44.36146484098889" lon="11.694982330563276"><ele>48.0</ele><time>2026-05-03T09:44:34.001Z</time></trkpt><trkpt lat="44.36143689488646" lon="11.69485615852877"><ele>48.0</ele><time>2026-05-03T09:44:35.001Z</time></trkpt><trkpt lat="44.36138254259154" lon="11.694744766679399"><ele>48.0</ele><time>2026-05-03T09:44:36.001Z</time></trkpt><trkpt lat="44.36129709305316" lon="11.694670556445345"><ele>48.599999999999994</ele><time>2026-05-03T09:44:37.001Z</time></trkpt><trkpt lat="44.361258837120324" lon="11.694526603742625"><ele>49.199999999999996</ele><time>2026-05-03T09:44:38.001Z</time></trkpt><trkpt lat="44.36125413836204" lon="11.694390162318"><ele>49.8</ele><time>2026-05-03T09:44:39.001Z</time></trkpt><trkpt lat="44.36127570021238" lon="11.694249516244652"><ele>50.4</ele><time>2026-05-03T09:44:40.001Z</time></trkpt><trkpt lat="44.36131871218926" lon="11.694113817292523"><ele>51.0</ele><time>2026-05-03T09:44:41.001Z</time></trkpt><trkpt lat="44.361364979838946" lon="11.693983065023549"><ele>51.599999999999994</ele><time>2026-05-03T09:44:42.001Z</time></trkpt><trkpt lat="44.36142050264584" lon="11.693856953069877"><ele>52.2</ele><time>2026-05-03T09:44:43.001Z</time></trkpt><trkpt lat="44.361478584922075" lon="11.693729179488724"><ele>52.800000000000004</ele><time>2026-05-03T09:44:44.001Z</time></trkpt><trkpt lat="44.36153274890385" lon="11.693603533212732"><ele>53.400000000000006</ele><time>2026-05-03T09:44:45.001Z</time></trkpt><trkpt lat="44.361587399946636" lon="11.69346798927571"><ele>54.0</ele><time>2026-05-03T09:44:46.001Z</time></trkpt><trkpt lat="44.361642127465245" lon="11.693336762607357"><ele>54.400000000000006</ele><time>2026-05-03T09:44:47.001Z</time></trkpt><trkpt lat="44.36169512309394" lon="11.693205416908418"><ele>54.800000000000004</ele><time>2026-05-03T09:44:48.001Z</time></trkpt><trkpt lat="44.36174856381183" lon="11.693067454765051"><ele>55.199999999999996</ele><time>2026-05-03T09:44:49.001Z</time></trkpt><trkpt lat="44.36180207467569" lon="11.69293188840013"><ele>55.599999999999994</ele><time>2026-05-03T09:44:50.001Z</time></trkpt><trkpt lat="44.36185609078536" lon="11.692797989904443"><ele>56.0</ele><time>2026-05-03T09:44:51.001Z</time></trkpt><trkpt lat="44.36190743484863" lon="11.692663318269387"><ele>56.199999999999996</ele><time>2026-05-03T09:44:52.001Z</time></trkpt><trkpt lat="44.36195639416877" lon="11.692531324568755"><ele>56.39999999999999</ele><time>2026-05-03T09:44:53.001Z</time></trkpt><trkpt lat="44.36200993586229" lon="11.692393942489892"><ele>56.6</ele><time>2026-05-03T09:44:54.001Z</time></trkpt><trkpt lat="44.3620643696326" lon="11.69226172929097"><ele>56.8</ele><time>2026-05-03T09:44:55.001Z</time></trkpt><trkpt lat="44.362118073566435" lon="11.692125627087284"><ele>57.0</ele><time>2026-05-03T09:44:56.001Z</time></trkpt><trkpt lat="44.36217395168367" lon="11.691996911582452"><ele>57.0</ele><time>2026-05-03T09:44:57.001Z</time></trkpt><trkpt lat="44.36222867779864" lon="11.691854816798362"><ele>57.0</ele><time>2026-05-03T09:44:58.001Z</time></trkpt><trkpt lat="44.362290441397896" lon="11.691723347469653"><ele>57.0</ele><time>2026-05-03T09:44:59.001Z</time></trkpt><trkpt lat="44.36234209882004" lon="11.69158859320946"><ele>57.0</ele><time>2026-05-03T09:45:00.002Z</time></trkpt><trkpt lat="44.36239674878082" lon="11.691454221171211"><ele>57.0</ele><time>2026-05-03T09:45:01.002Z</time></trkpt><trkpt lat="44.362446136219596" lon="11.691318355125622"><ele>57.0</ele><time>2026-05-03T09:45:02.002Z</time></trkpt><trkpt lat="44.362498404568385" lon="11.691182469573361"><ele>57.0</ele><time>2026-05-03T09:45:03.002Z</time></trkpt><trkpt lat="44.362550349809794" lon="11.691045280244523"><ele>57.0</ele><time>2026-05-03T09:45:04.002Z</time></trkpt><trkpt lat="44.36260899122882" lon="11.690916695020618"><ele>57.0</ele><time>2026-05-03T09:45:05.002Z</time></trkpt><trkpt lat="44.36265959550781" lon="11.69077831631458"><ele>57.0</ele><time>2026-05-03T09:45:06.002Z</time></trkpt><trkpt lat="44.36271720611171" lon="11.69064056987538"><ele>57.25</ele><time>2026-05-03T09:45:07.002Z</time></trkpt><trkpt lat="44.362773583930746" lon="11.690504557220663"><ele>57.5</ele><time>2026-05-03T09:45:08.002Z</time></trkpt><trkpt lat="44.36283634679828" lon="11.690360209447391"><ele>57.75</ele><time>2026-05-03T09:45:09.002Z</time></trkpt><trkpt lat="44.36288646377968" lon="11.69021763327083"><ele>58.0</ele><time>2026-05-03T09:45:10.002Z</time></trkpt><trkpt lat="44.362944953108084" lon="11.690078953249824"><ele>58.4</ele><time>2026-05-03T09:45:11.002Z</time></trkpt><trkpt lat="44.362998773964414" lon="11.689943051021666"><ele>58.8</ele><time>2026-05-03T09:45:12.002Z</time></trkpt><trkpt lat="44.36304995367435" lon="11.689808209329291"><ele>59.2</ele><time>2026-05-03T09:45:13.002Z</time></trkpt><trkpt lat="44.36310228016731" lon="11.689671144394538"><ele>59.6</ele><time>2026-05-03T09:45:14.002Z</time></trkpt><trkpt lat="44.363151218656306" lon="11.689537984196345"><ele>60.0</ele><time>2026-05-03T09:45:15.002Z</time></trkpt><trkpt lat="44.363195731186934" lon="11.689396635235134"><ele>60.5</ele><time>2026-05-03T09:45:16.002Z</time></trkpt><trkpt lat="44.363248973880864" lon="11.68926152968518"><ele>61.0</ele><time>2026-05-03T09:45:17.002Z</time></trkpt><trkpt lat="44.363295969810494" lon="11.689121166947894"><ele>61.5</ele><time>2026-05-03T09:45:18.002Z</time></trkpt><trkpt lat="44.363357013390406" lon="11.688982503408962"><ele>62.0</ele><time>2026-05-03T09:45:19.002Z</time></trkpt><trkpt lat="44.363418398753616" lon="11.688844948959014"><ele>62.0</ele><time>2026-05-03T09:45:20Z</time></trkpt><trkpt lat="44.36347800381829" lon="11.688695930747462"><ele>62.0</ele><time>2026-05-03T09:45:21Z</time></trkpt><trkpt lat="44.363533746787816" lon="11.68855203403566"><ele>62.0</ele><time>2026-05-03T09:45:22Z</time></trkpt><trkpt lat="44.363589267525626" lon="11.688414782042623"><ele>62.0</ele><time>2026-05-03T09:45:23Z</time></trkpt><trkpt lat="44.363642323622514" lon="11.6882771880265"><ele>62.25</ele><time>2026-05-03T09:45:24Z</time></trkpt><trkpt lat="44.36370070367922" lon="11.688145128963178"><ele>62.5</ele><time>2026-05-03T09:45:25Z</time></trkpt><trkpt lat="44.3637536695139" lon="11.687995236608959"><ele>62.75</ele><time>2026-05-03T09:45:26Z</time></trkpt><trkpt lat="44.363807937107595" lon="11.68785497408803"><ele>63.0</ele><time>2026-05-03T09:45:27Z</time></trkpt><trkpt lat="44.36386164578822" lon="11.687700160987728"><ele>64.0</ele><time>2026-05-03T09:45:28Z</time></trkpt><trkpt lat="44.363914966664076" lon="11.68756079465331"><ele>65.0</ele><time>2026-05-03T09:45:29Z</time></trkpt><trkpt lat="44.36397014386638" lon="11.687418645636892"><ele>66.0</ele><time>2026-05-03T09:45:30Z</time></trkpt><trkpt lat="44.36402134753787" lon="11.687271565498964"><ele>67.0</ele><time>2026-05-03T09:45:31Z</time></trkpt><trkpt lat="44.3640781154776" lon="11.687123341321806"><ele>67.0</ele><time>2026-05-03T09:45:32Z</time></trkpt><trkpt lat="44.36413660253667" lon="11.686982410519803"><ele>67.0</ele><time>2026-05-03T09:45:33Z</time></trkpt><trkpt lat="44.364195589533935" lon="11.68684124573782"><ele>67.0</ele><time>2026-05-03T09:45:34Z</time></trkpt><trkpt lat="44.364262730220375" lon="11.686700488849434"><ele>67.0</ele><time>2026-05-03T09:45:35Z</time></trkpt><trkpt lat="44.3643163255437" lon="11.686557375817795"><ele>67.5</ele><time>2026-05-03T09:45:36Z</time></trkpt><trkpt lat="44.36436781642775" lon="11.686409066658133"><ele>68.0</ele><time>2026-05-03T09:45:37Z</time></trkpt><trkpt lat="44.364424288117206" lon="11.686265193001478"><ele>68.5</ele><time>2026-05-03T09:45:38Z</time></trkpt><trkpt lat="44.36447692430653" lon="11.686114833796767"><ele>69.0</ele><time>2026-05-03T09:45:39Z</time></trkpt><trkpt lat="44.36453637346472" lon="11.685971989502502"><ele>69.0</ele><time>2026-05-03T09:45:40Z</time></trkpt><trkpt lat="44.3645946113085" lon="11.685829185000292"><ele>69.0</ele><time>2026-05-03T09:45:41Z</time></trkpt><trkpt lat="44.36465032614693" lon="11.685688337989244"><ele>69.0</ele><time>2026-05-03T09:45:42Z</time></trkpt><trkpt lat="44.36471465894327" lon="11.6855399277955"><ele>69.0</ele><time>2026-05-03T09:45:43Z</time></trkpt><trkpt lat="44.364771365060236" lon="11.6853957387134"><ele>68.5</ele><time>2026-05-03T09:45:44Z</time></trkpt><trkpt lat="44.364829391085195" lon="11.685251937809614"><ele>68.0</ele><time>2026-05-03T09:45:45Z</time></trkpt><trkpt lat="44.36488638870535" lon="11.685099839357811"><ele>67.5</ele><time>2026-05-03T09:45:46Z</time></trkpt><trkpt lat="44.36494548301176" lon="11.684954010451587"><ele>67.0</ele><time>2026-05-03T09:45:47Z</time></trkpt><trkpt lat="44.365008549551305" lon="11.68481703645682"><ele>67.0</ele><time>2026-05-03T09:45:48Z</time></trkpt><trkpt lat="44.36505987139077" lon="11.684663198305124"><ele>67.0</ele><time>2026-05-03T09:45:49Z</time></trkpt><trkpt lat="44.36511637741182" lon="11.684520933632951"><ele>67.0</ele><time>2026-05-03T09:45:50Z</time></trkpt><trkpt lat="44.36517295160401" lon="11.684370754825963"><ele>67.0</ele><time>2026-05-03T09:45:51Z</time></trkpt><trkpt lat="44.36523168303135" lon="11.684225796879867"><ele>67.5</ele><time>2026-05-03T09:45:52Z</time></trkpt><trkpt lat="44.36528773379525" lon="11.684078142284916"><ele>68.0</ele><time>2026-05-03T09:45:53Z</time></trkpt><trkpt lat="44.36534469285121" lon="11.683931972871267"><ele>68.5</ele><time>2026-05-03T09:45:54Z</time></trkpt><trkpt lat="44.365402068397124" lon="11.683790107206333"><ele>69.0</ele><time>2026-05-03T09:45:55Z</time></trkpt><trkpt lat="44.365455785983876" lon="11.683642481269377"><ele>69.0</ele><time>2026-05-03T09:45:56Z</time></trkpt><trkpt lat="44.36551164160734" lon="11.683502886695619"><ele>69.0</ele><time>2026-05-03T09:45:57Z</time></trkpt><trkpt lat="44.36556453078843" lon="11.683353291705876"><ele>69.0</ele><time>2026-05-03T09:45:58Z</time></trkpt><trkpt lat="44.365625324583334" lon="11.683207769372101"><ele>69.0</ele><time>2026-05-03T09:45:59Z</time></trkpt><trkpt lat="44.36567597327441" lon="11.683063442387052"><ele>68.25</ele><time>2026-05-03T09:46:00Z</time></trkpt><trkpt lat="44.36573432927349" lon="11.682921045256"><ele>67.5</ele><time>2026-05-03T09:46:01Z</time></trkpt><trkpt lat="44.36578584194555" lon="11.682776212330545"><ele>66.75</ele><time>2026-05-03T09:46:02Z</time></trkpt><trkpt lat="44.36583798241652" lon="11.682628091931822"><ele>66.0</ele><time>2026-05-03T09:46:03Z</time></trkpt><trkpt lat="44.3658924395096" lon="11.682481042575278"><ele>66.0</ele><time>2026-05-03T09:46:04Z</time></trkpt><trkpt lat="44.36594553816614" lon="11.682336941274244"><ele>66.0</ele><time>2026-05-03T09:46:05Z</time></trkpt><trkpt lat="44.366002031664266" lon="11.682200180586731"><ele>66.0</ele><time>2026-05-03T09:46:06Z</time></trkpt><trkpt lat="44.36606069373987" lon="11.682066679909239"><ele>66.0</ele><time>2026-05-03T09:46:07Z</time></trkpt><trkpt lat="44.36611963565679" lon="11.68192880839287"><ele>66.5</ele><time>2026-05-03T09:46:08Z</time></trkpt><trkpt lat="44.366172670514096" lon="11.681786363275215"><ele>67.0</ele><time>2026-05-03T09:46:09Z</time></trkpt><trkpt lat="44.36622687314261" lon="11.681649879775623"><ele>67.5</ele><time>2026-05-03T09:46:10Z</time></trkpt><trkpt lat="44.366280945891745" lon="11.681505480704308"><ele>68.0</ele><time>2026-05-03T09:46:11Z</time></trkpt><trkpt lat="44.366337788190776" lon="11.68136273732977"><ele>67.75</ele><time>2026-05-03T09:46:12Z</time></trkpt><trkpt lat="44.366394387712376" lon="11.68122311383922"><ele>67.5</ele><time>2026-05-03T09:46:13Z</time></trkpt><trkpt lat="44.366452243499616" lon="11.68108092759166"><ele>67.25</ele><time>2026-05-03T09:46:14Z</time></trkpt><trkpt lat="44.36651168398545" lon="11.680936611748438"><ele>67.0</ele><time>2026-05-03T09:46:15Z</time></trkpt><trkpt lat="44.36657257007089" lon="11.680792223867527"><ele>67.0</ele><time>2026-05-03T09:46:16Z</time></trkpt><trkpt lat="44.366629607994064" lon="11.68064917691658"><ele>67.0</ele><time>2026-05-03T09:46:17Z</time></trkpt><trkpt lat="44.36668021444988" lon="11.680501209196862"><ele>67.0</ele><time>2026-05-03T09:46:18Z</time></trkpt><trkpt lat="44.36674243317597" lon="11.6803567623336"><ele>67.0</ele><time>2026-05-03T09:46:19Z</time></trkpt><trkpt lat="44.36679730792328" lon="11.680214569275869"><ele>68.25</ele><time>2026-05-03T09:46:20Z</time></trkpt><trkpt lat="44.36685792303583" lon="11.680063696603787"><ele>69.5</ele><time>2026-05-03T09:46:21Z</time></trkpt><trkpt lat="44.36691567212989" lon="11.679912915978143"><ele>70.75</ele><time>2026-05-03T09:46:22Z</time></trkpt><trkpt lat="44.36697191881448" lon="11.679762893862867"><ele>72.0</ele><time>2026-05-03T09:46:23Z</time></trkpt><trkpt lat="44.36703161315602" lon="11.679613379160717"><ele>72.0</ele><time>2026-05-03T09:46:24Z</time></trkpt><trkpt lat="44.3670847384089" lon="11.6794618656589"><ele>72.0</ele><time>2026-05-03T09:46:25Z</time></trkpt><trkpt lat="44.36714152702619" lon="11.679311499425014"><ele>72.0</ele><time>2026-05-03T09:46:26Z</time></trkpt><trkpt lat="44.36720249371932" lon="11.67916393170183"><ele>72.0</ele><time>2026-05-03T09:46:27Z</time></trkpt><trkpt lat="44.36726101539934" lon="11.679018943857296"><ele>71.0</ele><time>2026-05-03T09:46:28Z</time></trkpt><trkpt lat="44.36731838753467" lon="11.678869679467445"><ele>70.0</ele><time>2026-05-03T09:46:29Z</time></trkpt><trkpt lat="44.36737198818741" lon="11.678720516101158"><ele>69.0</ele><time>2026-05-03T09:46:30Z</time></trkpt><trkpt lat="44.367428163754965" lon="11.67857177241443"><ele>68.0</ele><time>2026-05-03T09:46:31Z</time></trkpt><trkpt lat="44.367490380793804" lon="11.678426983724673"><ele>68.0</ele><time>2026-05-03T09:46:32Z</time></trkpt><trkpt lat="44.36754762575739" lon="11.678279656969675"><ele>68.0</ele><time>2026-05-03T09:46:33Z</time></trkpt><trkpt lat="44.36760232819411" lon="11.678130986517052"><ele>68.0</ele><time>2026-05-03T09:46:34Z</time></trkpt><trkpt lat="44.367661013915715" lon="11.677981033906113"><ele>68.0</ele><time>2026-05-03T09:46:35Z</time></trkpt><trkpt lat="44.367715658112964" lon="11.677829607089796"><ele>68.75</ele><time>2026-05-03T09:46:36Z</time></trkpt><trkpt lat="44.36777647366706" lon="11.677679471828894"><ele>69.5</ele><time>2026-05-03T09:46:37Z</time></trkpt><trkpt lat="44.36783537570644" lon="11.677528904908373"><ele>70.25</ele><time>2026-05-03T09:46:38Z</time></trkpt><trkpt lat="44.367891523928144" lon="11.677379640011567"><ele>71.0</ele><time>2026-05-03T09:46:39Z</time></trkpt><trkpt lat="44.367950568077504" lon="11.677228611629614"><ele>71.0</ele><time>2026-05-03T09:46:40Z</time></trkpt><trkpt lat="44.36801151496329" lon="11.677079898436022"><ele>71.0</ele><time>2026-05-03T09:46:41Z</time></trkpt><trkpt lat="44.3680742756271" lon="11.676932061543987"><ele>71.0</ele><time>2026-05-03T09:46:42Z</time></trkpt><trkpt lat="44.36813045489806" lon="11.676781994690106"><ele>71.0</ele><time>2026-05-03T09:46:43Z</time></trkpt><trkpt lat="44.36818646296998" lon="11.676631220236933"><ele>71.0</ele><time>2026-05-03T09:46:44Z</time></trkpt><trkpt lat="44.368244366670424" lon="11.676480362891446"><ele>71.0</ele><time>2026-05-03T09:46:45Z</time></trkpt><trkpt lat="44.3683040142991" lon="11.676330638403979"><ele>71.0</ele><time>2026-05-03T09:46:46.001Z</time></trkpt><trkpt lat="44.368360675680805" lon="11.676183066745635"><ele>71.0</ele><time>2026-05-03T09:46:47.001Z</time></trkpt><trkpt lat="44.36842120069945" lon="11.676034141185081"><ele>70.5</ele><time>2026-05-03T09:46:48.001Z</time></trkpt><trkpt lat="44.368479768964825" lon="11.675887487865108"><ele>70.0</ele><time>2026-05-03T09:46:49.001Z</time></trkpt><trkpt lat="44.36853265083006" lon="11.675734816537984"><ele>69.5</ele><time>2026-05-03T09:46:50.001Z</time></trkpt><trkpt lat="44.36859617184548" lon="11.675592602203407"><ele>69.0</ele><time>2026-05-03T09:46:51.001Z</time></trkpt><trkpt lat="44.36864949253401" lon="11.675440906852689"><ele>69.0</ele><time>2026-05-03T09:46:52.001Z</time></trkpt><trkpt lat="44.368709147143356" lon="11.675294760407162"><ele>69.0</ele><time>2026-05-03T09:46:53.001Z</time></trkpt><trkpt lat="44.36876568620086" lon="11.675147490505244"><ele>69.0</ele><time>2026-05-03T09:46:54.001Z</time></trkpt><trkpt lat="44.36882475301276" lon="11.674998124824935"><ele>69.0</ele><time>2026-05-03T09:46:55.001Z</time></trkpt><trkpt lat="44.368885122634474" lon="11.674853576526852"><ele>69.75</ele><time>2026-05-03T09:46:56.001Z</time></trkpt><trkpt lat="44.3689413781281" lon="11.674707035104937"><ele>70.5</ele><time>2026-05-03T09:46:57.001Z</time></trkpt><trkpt lat="44.36899927034292" lon="11.674566590380245"><ele>71.25</ele><time>2026-05-03T09:46:58.001Z</time></trkpt><trkpt lat="44.369055683622065" lon="11.674422542912678"><ele>72.0</ele><time>2026-05-03T09:46:59.001Z</time></trkpt><trkpt lat="44.369106230515776" lon="11.674273993987201"><ele>72.75</ele><time>2026-05-03T09:47:00.001Z</time></trkpt><trkpt lat="44.3691597231837" lon="11.674133882691645"><ele>73.5</ele><time>2026-05-03T09:47:01.001Z</time></trkpt><trkpt lat="44.36921659580332" lon="11.67399726181337"><ele>74.25</ele><time>2026-05-03T09:47:02.001Z</time></trkpt><trkpt lat="44.36927090883284" lon="11.673859793200496"><ele>75.0</ele><time>2026-05-03T09:47:03.001Z</time></trkpt><trkpt lat="44.369321702325806" lon="11.673720677123928"><ele>75.0</ele><time>2026-05-03T09:47:04.001Z</time></trkpt><trkpt lat="44.369370392296815" lon="11.673576771690065"><ele>75.0</ele><time>2026-05-03T09:47:05.001Z</time></trkpt><trkpt lat="44.36942667497176" lon="11.67344052681026"><ele>75.0</ele><time>2026-05-03T09:47:06.001Z</time></trkpt><trkpt lat="44.36948370059752" lon="11.673305488497517"><ele>75.0</ele><time>2026-05-03T09:47:07.001Z</time></trkpt><trkpt lat="44.36953926417401" lon="11.673169095511563"><ele>75.0</ele><time>2026-05-03T09:47:08.001Z</time></trkpt><trkpt lat="44.36959168120171" lon="11.673033491255964"><ele>75.0</ele><time>2026-05-03T09:47:09.001Z</time></trkpt><trkpt lat="44.36964292491021" lon="11.672897474929137"><ele>75.0</ele><time>2026-05-03T09:47:10.001Z</time></trkpt><trkpt lat="44.36969490797232" lon="11.672762626853935"><ele>75.0</ele><time>2026-05-03T09:47:11.001Z</time></trkpt><trkpt lat="44.36975028249783" lon="11.672626570810703"><ele>75.0</ele><time>2026-05-03T09:47:12.001Z</time></trkpt><trkpt lat="44.369805114734575" lon="11.672494276899116"><ele>75.0</ele><time>2026-05-03T09:47:13.001Z</time></trkpt><trkpt lat="44.36985778323829" lon="11.672354354719674"><ele>75.0</ele><time>2026-05-03T09:47:14.001Z</time></trkpt><trkpt lat="44.36991365522575" lon="11.672216445722324"><ele>75.0</ele><time>2026-05-03T09:47:15.001Z</time></trkpt><trkpt lat="44.36996779041535" lon="11.672077247704799"><ele>75.0</ele><time>2026-05-03T09:47:16.001Z</time></trkpt><trkpt lat="44.37002148421388" lon="11.671937844660642"><ele>75.0</ele><time>2026-05-03T09:47:17.001Z</time></trkpt><trkpt lat="44.37007612841107" lon="11.671800741993657"><ele>75.0</ele><time>2026-05-03T09:47:18.001Z</time></trkpt><trkpt lat="44.3701312587816" lon="11.671659381810604"><ele>75.0</ele><time>2026-05-03T09:47:19.001Z</time></trkpt><trkpt lat="44.3701843169742" lon="11.671516737107725"><ele>75.0</ele><time>2026-05-03T09:47:20.001Z</time></trkpt><trkpt lat="44.370238258694336" lon="11.671375023252399"><ele>75.0</ele><time>2026-05-03T09:47:21.001Z</time></trkpt><trkpt lat="44.370294283963126" lon="11.67123368039125"><ele>75.0</ele><time>2026-05-03T09:47:22.001Z</time></trkpt><trkpt lat="44.370348711495495" lon="11.671088787179464"><ele>75.0</ele><time>2026-05-03T09:47:23.001Z</time></trkpt><trkpt lat="44.370410517863235" lon="11.670947477479677"><ele>75.0</ele><time>2026-05-03T09:47:24.001Z</time></trkpt><trkpt lat="44.370461019669214" lon="11.67080388845999"><ele>75.25</ele><time>2026-05-03T09:47:25.001Z</time></trkpt><trkpt lat="44.37052409937594" lon="11.670660585843722"><ele>75.5</ele><time>2026-05-03T09:47:25.999Z</time></trkpt><trkpt lat="44.37058461605818" lon="11.670524275167882"><ele>75.75</ele><time>2026-05-03T09:47:27Z</time></trkpt><trkpt lat="44.3706438204001" lon="11.67038448547062"><ele>76.0</ele><time>2026-05-03T09:47:28Z</time></trkpt><trkpt lat="44.37070450696954" lon="11.670245457332292"><ele>76.0</ele><time>2026-05-03T09:47:28.999Z</time></trkpt><trkpt lat="44.370758435217596" lon="11.670099312962972"><ele>76.0</ele><time>2026-05-03T09:47:29.999Z</time></trkpt><trkpt lat="44.37080972612888" lon="11.66995344905502"><ele>76.0</ele><time>2026-05-03T09:47:30.999Z</time></trkpt><trkpt lat="44.370864787456334" lon="11.669816663944522"><ele>76.0</ele><time>2026-05-03T09:47:31.999Z</time></trkpt><trkpt lat="44.37091595113543" lon="11.669671220088679"><ele>76.0</ele><time>2026-05-03T09:47:32.999Z</time></trkpt><trkpt lat="44.3709695990844" lon="11.669530588691927"><ele>76.0</ele><time>2026-05-03T09:47:33.999Z</time></trkpt><trkpt lat="44.371019927297915" lon="11.669381244258986"><ele>76.0</ele><time>2026-05-03T09:47:34.999Z</time></trkpt><trkpt lat="44.3710743921232" lon="11.669241045984803"><ele>76.0</ele><time>2026-05-03T09:47:35.999Z</time></trkpt><trkpt lat="44.37112672218995" lon="11.66909483818175"><ele>75.75</ele><time>2026-05-03T09:47:36.999Z</time></trkpt><trkpt lat="44.37117955704465" lon="11.668947820431928"><ele>75.5</ele><time>2026-05-03T09:47:37.999Z</time></trkpt><trkpt lat="44.37123645633465" lon="11.668801431763455"><ele>75.25</ele><time>2026-05-03T09:47:39Z</time></trkpt><trkpt lat="44.3712926292931" lon="11.66865648230953"><ele>75.0</ele><time>2026-05-03T09:47:40Z</time></trkpt><trkpt lat="44.371346121236925" lon="11.668503448172237"><ele>75.0</ele><time>2026-05-03T09:47:41Z</time></trkpt><trkpt lat="44.37139995835454" lon="11.668352212183501"><ele>75.0</ele><time>2026-05-03T09:47:42Z</time></trkpt><trkpt lat="44.37145178288224" lon="11.668204704450503"><ele>75.0</ele><time>2026-05-03T09:47:43Z</time></trkpt><trkpt lat="44.371506325893726" lon="11.668052705228716"><ele>75.0</ele><time>2026-05-03T09:47:44Z</time></trkpt><trkpt lat="44.37156054392557" lon="11.667904766782359"><ele>75.0</ele><time>2026-05-03T09:47:45Z</time></trkpt><trkpt lat="44.3716119377037" lon="11.667754138851874"><ele>75.0</ele><time>2026-05-03T09:47:46Z</time></trkpt><trkpt lat="44.37166838113569" lon="11.667608096599967"><ele>75.0</ele><time>2026-05-03T09:47:47Z</time></trkpt><trkpt lat="44.371723607217035" lon="11.667464441290848"><ele>75.0</ele><time>2026-05-03T09:47:48Z</time></trkpt><trkpt lat="44.37177696242103" lon="11.667320993574965"><ele>75.0</ele><time>2026-05-03T09:47:49Z</time></trkpt><trkpt lat="44.37183003991123" lon="11.667177502859273"><ele>75.0</ele><time>2026-05-03T09:47:50Z</time></trkpt><trkpt lat="44.37188175048537" lon="11.667035444803812"><ele>75.0</ele><time>2026-05-03T09:47:51Z</time></trkpt><trkpt lat="44.3719315701469" lon="11.666895976263032"><ele>75.0</ele><time>2026-05-03T09:47:52Z</time></trkpt><trkpt lat="44.371985307719925" lon="11.666760356471809"><ele>75.2</ele><time>2026-05-03T09:47:53Z</time></trkpt><trkpt lat="44.372034257790254" lon="11.666621215611727"><ele>75.4</ele><time>2026-05-03T09:47:54Z</time></trkpt><trkpt lat="44.37208599199365" lon="11.666483764898464"><ele>75.6</ele><time>2026-05-03T09:47:55Z</time></trkpt><trkpt lat="44.37213596674806" lon="11.666348273997503"><ele>75.8</ele><time>2026-05-03T09:47:56Z</time></trkpt><trkpt lat="44.37218952434583" lon="11.666207747748116"><ele>76.0</ele><time>2026-05-03T09:47:57Z</time></trkpt><trkpt lat="44.372240869624754" lon="11.66606293690423"><ele>75.25</ele><time>2026-05-03T09:47:58Z</time></trkpt><trkpt lat="44.37229525163706" lon="11.665921581530664"><ele>74.5</ele><time>2026-05-03T09:47:59Z</time></trkpt><trkpt lat="44.372351503012176" lon="11.66577507448043"><ele>73.75</ele><time>2026-05-03T09:48:00Z</time></trkpt><trkpt lat="44.372410789373006" lon="11.665630679717324"><ele>73.0</ele><time>2026-05-03T09:48:01Z</time></trkpt><trkpt lat="44.37246466191555" lon="11.665489522160568"><ele>73.0</ele><time>2026-05-03T09:48:02Z</time></trkpt><trkpt lat="44.37251987814956" lon="11.665335515230634"><ele>73.0</ele><time>2026-05-03T09:48:03Z</time></trkpt><trkpt lat="44.37257526669456" lon="11.665183735055393"><ele>73.0</ele><time>2026-05-03T09:48:04Z</time></trkpt><trkpt lat="44.372631229733685" lon="11.665033478592049"><ele>73.0</ele><time>2026-05-03T09:48:05Z</time></trkpt><trkpt lat="44.37268821792901" lon="11.664881998662876"><ele>73.25</ele><time>2026-05-03T09:48:06Z</time></trkpt><trkpt lat="44.37274421615359" lon="11.664732094925037"><ele>73.5</ele><time>2026-05-03T09:48:07Z</time></trkpt><trkpt lat="44.37280356702506" lon="11.664586117779246"><ele>73.75</ele><time>2026-05-03T09:48:08Z</time></trkpt><trkpt lat="44.37285941947921" lon="11.664436116569501"><ele>74.0</ele><time>2026-05-03T09:48:09Z</time></trkpt><trkpt lat="44.37291744947983" lon="11.664281907444453"><ele>74.0</ele><time>2026-05-03T09:48:10Z</time></trkpt><trkpt lat="44.37297735556487" lon="11.664127490191749"><ele>74.0</ele><time>2026-05-03T09:48:11Z</time></trkpt><trkpt lat="44.37303660333997" lon="11.663971980175148"><ele>74.0</ele><time>2026-05-03T09:48:12Z</time></trkpt><trkpt lat="44.37309770415497" lon="11.663820831840582"><ele>74.0</ele><time>2026-05-03T09:48:13Z</time></trkpt><trkpt lat="44.373158263075275" lon="11.663665211077857"><ele>73.75</ele><time>2026-05-03T09:48:14Z</time></trkpt><trkpt lat="44.37322003151914" lon="11.663511171897794"><ele>73.5</ele><time>2026-05-03T09:48:15Z</time></trkpt><trkpt lat="44.37328047281532" lon="11.663357134374419"><ele>73.25</ele><time>2026-05-03T09:48:16Z</time></trkpt><trkpt lat="44.37333841738972" lon="11.66320309286726"><ele>73.0</ele><time>2026-05-03T09:48:17Z</time></trkpt><trkpt lat="44.37339738959139" lon="11.66304644735855"><ele>73.0</ele><time>2026-05-03T09:48:18Z</time></trkpt><trkpt lat="44.373454447242835" lon="11.66288399164273"><ele>73.0</ele><time>2026-05-03T09:48:19Z</time></trkpt><trkpt lat="44.37351563631972" lon="11.662729812499375"><ele>73.0</ele><time>2026-05-03T09:48:20Z</time></trkpt><trkpt lat="44.373576997718544" lon="11.662570975253848"><ele>73.0</ele><time>2026-05-03T09:48:21Z</time></trkpt><trkpt lat="44.37363730128591" lon="11.662410997011479"><ele>72.5</ele><time>2026-05-03T09:48:22Z</time></trkpt><trkpt lat="44.373690303480714" lon="11.66225315886476"><ele>72.0</ele><time>2026-05-03T09:48:23Z</time></trkpt><trkpt lat="44.37375075610487" lon="11.66209632035444"><ele>71.5</ele><time>2026-05-03T09:48:24Z</time></trkpt><trkpt lat="44.37380866820118" lon="11.661941109887985"><ele>71.0</ele><time>2026-05-03T09:48:25Z</time></trkpt><trkpt lat="44.37387150714747" lon="11.661780867009098"><ele>70.5</ele><time>2026-05-03T09:48:26Z</time></trkpt><trkpt lat="44.37393538711404" lon="11.661629840520284"><ele>70.0</ele><time>2026-05-03T09:48:27Z</time></trkpt><trkpt lat="44.37399248126148" lon="11.661471155651766"><ele>69.5</ele><time>2026-05-03T09:48:28Z</time></trkpt><trkpt lat="44.37405294348774" lon="11.66131716782947"><ele>69.0</ele><time>2026-05-03T09:48:29Z</time></trkpt><trkpt lat="44.374112032422445" lon="11.661167623338386"><ele>68.75</ele><time>2026-05-03T09:48:30Z</time></trkpt><trkpt lat="44.37417278055541" lon="11.661015655515921"><ele>68.5</ele><time>2026-05-03T09:48:31Z</time></trkpt><trkpt lat="44.37423191407243" lon="11.660869532836562"><ele>68.25</ele><time>2026-05-03T09:48:32Z</time></trkpt><trkpt lat="44.37429054308935" lon="11.660722316168952"><ele>68.0</ele><time>2026-05-03T09:48:33Z</time></trkpt><trkpt lat="44.37434733999628" lon="11.660575486248971"><ele>68.0</ele><time>2026-05-03T09:48:34Z</time></trkpt><trkpt lat="44.374405075594595" lon="11.66042583230306"><ele>68.0</ele><time>2026-05-03T09:48:35Z</time></trkpt><trkpt lat="44.37446401912043" lon="11.6602785955984"><ele>68.0</ele><time>2026-05-03T09:48:36Z</time></trkpt><trkpt lat="44.37452188523785" lon="11.660131370194716"><ele>68.0</ele><time>2026-05-03T09:48:37Z</time></trkpt><trkpt lat="44.3745766086536" lon="11.659985071400856"><ele>68.5</ele><time>2026-05-03T09:48:38Z</time></trkpt><trkpt lat="44.374634507386936" lon="11.659842374236554"><ele>69.0</ele><time>2026-05-03T09:48:39Z</time></trkpt><trkpt lat="44.37468916780536" lon="11.659695935491717"><ele>69.5</ele><time>2026-05-03T09:48:40Z</time></trkpt><trkpt lat="44.37474686915631" lon="11.659555840813974"><ele>70.0</ele><time>2026-05-03T09:48:41Z</time></trkpt><trkpt lat="44.37479441849825" lon="11.659415192487444"><ele>70.6</ele><time>2026-05-03T09:48:42Z</time></trkpt><trkpt lat="44.37484883713226" lon="11.659280866673468"><ele>71.2</ele><time>2026-05-03T09:48:43Z</time></trkpt><trkpt lat="44.37490428740398" lon="11.659151330349134"><ele>71.8</ele><time>2026-05-03T09:48:44Z</time></trkpt><trkpt lat="44.37495953472241" lon="11.659025981214363"><ele>72.4</ele><time>2026-05-03T09:48:45Z</time></trkpt><trkpt lat="44.37500876719151" lon="11.658907367104428"><ele>73.0</ele><time>2026-05-03T09:48:46Z</time></trkpt><trkpt lat="44.37506267682891" lon="11.658780209691582"><ele>73.0</ele><time>2026-05-03T09:48:47Z</time></trkpt><trkpt lat="44.375112241520554" lon="11.65865828897694"><ele>73.0</ele><time>2026-05-03T09:48:48Z</time></trkpt><trkpt lat="44.37515071964241" lon="11.658551981109236"><ele>73.0</ele><time>2026-05-03T09:48:49Z</time></trkpt><trkpt lat="44.37518643121223" lon="11.658454480126094"><ele>73.0</ele><time>2026-05-03T09:48:50Z</time></trkpt><trkpt lat="44.375220779458424" lon="11.658368226459517"><ele>73.0</ele><time>2026-05-03T09:48:51Z</time></trkpt><trkpt lat="44.37526091364367" lon="11.658250892259812"><ele>73.0</ele><time>2026-05-03T09:48:53Z</time></trkpt><trkpt lat="44.37531343697214" lon="11.658165868519799"><ele>73.33333333333333</ele><time>2026-05-03T09:48:55Z</time></trkpt><trkpt lat="44.37519421601411" lon="11.658115851823252"><ele>73.66666666666667</ele><time>2026-05-03T09:48:56Z</time></trkpt><trkpt lat="44.374958464050856" lon="11.658005074829985"><ele>74.0</ele><time>2026-05-03T09:48:59Z</time></trkpt><trkpt lat="44.374861400522676" lon="11.657958928159404"><ele>74.0</ele><time>2026-05-03T09:49:00Z</time></trkpt><trkpt lat="44.37476501290864" lon="11.657906297701818"><ele>74.0</ele><time>2026-05-03T09:49:01Z</time></trkpt><trkpt lat="44.37466974464941" lon="11.657860023590185"><ele>74.0</ele><time>2026-05-03T09:49:02Z</time></trkpt><trkpt lat="44.374573088277515" lon="11.657816316332541"><ele>74.0</ele><time>2026-05-03T09:49:03Z</time></trkpt><trkpt lat="44.37447191251882" lon="11.657772167810474"><ele>74.0</ele><time>2026-05-03T09:49:04Z</time></trkpt><trkpt lat="44.374369847875215" lon="11.657726468293763"><ele>74.2</ele><time>2026-05-03T09:49:05Z</time></trkpt><trkpt lat="44.3742722219844" lon="11.657668396185782"><ele>74.4</ele><time>2026-05-03T09:49:06Z</time></trkpt><trkpt lat="44.37416993819862" lon="11.657617414211835"><ele>74.6</ele><time>2026-05-03T09:49:07.001Z</time></trkpt><trkpt lat="44.37406319610861" lon="11.657567138152732"><ele>74.8</ele><time>2026-05-03T09:49:08.001Z</time></trkpt><trkpt lat="44.37395819334754" lon="11.65750592291977"><ele>75.0</ele><time>2026-05-03T09:49:09.001Z</time></trkpt><trkpt lat="44.373851790280405" lon="11.657449838233726"><ele>75.5</ele><time>2026-05-03T09:49:10.001Z</time></trkpt><trkpt lat="44.37374619352404" lon="11.657396053075288"><ele>76.0</ele><time>2026-05-03T09:49:11.001Z</time></trkpt><trkpt lat="44.373641313104855" lon="11.657343552464333"><ele>76.5</ele><time>2026-05-03T09:49:12.001Z</time></trkpt><trkpt lat="44.37353399314539" lon="11.657289942775185"><ele>77.0</ele><time>2026-05-03T09:49:13.001Z</time></trkpt><trkpt lat="44.37342785241678" lon="11.657234403834384"><ele>77.0</ele><time>2026-05-03T09:49:14.001Z</time></trkpt><trkpt lat="44.37332398038209" lon="11.657180235186802"><ele>77.0</ele><time>2026-05-03T09:49:15.001Z</time></trkpt><trkpt lat="44.37322020272213" lon="11.657129662463781"><ele>77.0</ele><time>2026-05-03T09:49:16.001Z</time></trkpt><trkpt lat="44.37311673894277" lon="11.657076962860728"><ele>77.0</ele><time>2026-05-03T09:49:17.001Z</time></trkpt><trkpt lat="44.37301225370615" lon="11.657020791128302"><ele>77.0</ele><time>2026-05-03T09:49:18.001Z</time></trkpt><trkpt lat="44.372907454963666" lon="11.656964780133137"><ele>76.5</ele><time>2026-05-03T09:49:19.001Z</time></trkpt><trkpt lat="44.37279941158356" lon="11.656909913699925"><ele>76.0</ele><time>2026-05-03T09:49:20.001Z</time></trkpt><trkpt lat="44.372692470192995" lon="11.656858200023716"><ele>75.5</ele><time>2026-05-03T09:49:21.001Z</time></trkpt><trkpt lat="44.37258885044666" lon="11.656811776515827"><ele>75.0</ele><time>2026-05-03T09:49:22.001Z</time></trkpt><trkpt lat="44.37247610644181" lon="11.656755537700795"><ele>75.0</ele><time>2026-05-03T09:49:23.001Z</time></trkpt><trkpt lat="44.37236720614461" lon="11.656695350016996"><ele>75.0</ele><time>2026-05-03T09:49:24.001Z</time></trkpt><trkpt lat="44.37225581463165" lon="11.656636018147445"><ele>75.0</ele><time>2026-05-03T09:49:25.001Z</time></trkpt><trkpt lat="44.37214311244175" lon="11.656580873643165"><ele>75.0</ele><time>2026-05-03T09:49:26.001Z</time></trkpt><trkpt lat="44.37203265670911" lon="11.656509276474914"><ele>75.0</ele><time>2026-05-03T09:49:27.001Z</time></trkpt><trkpt lat="44.371918898670614" lon="11.656445279743464"><ele>75.0</ele><time>2026-05-03T09:49:28.001Z</time></trkpt><trkpt lat="44.371803660333846" lon="11.656396690126087"><ele>75.0</ele><time>2026-05-03T09:49:29.001Z</time></trkpt><trkpt lat="44.37169410432497" lon="11.656352414783706"><ele>75.0</ele><time>2026-05-03T09:49:30.001Z</time></trkpt><trkpt lat="44.37157905437866" lon="11.65629011622379"><ele>75.0</ele><time>2026-05-03T09:49:31.001Z</time></trkpt><trkpt lat="44.37147285679866" lon="11.656227564539087"><ele>75.0</ele><time>2026-05-03T09:49:31.999Z</time></trkpt><trkpt lat="44.371358271352335" lon="11.656170391832847"><ele>75.0</ele><time>2026-05-03T09:49:32.998Z</time></trkpt><trkpt lat="44.37124534084785" lon="11.65611138383856"><ele>75.0</ele><time>2026-05-03T09:49:33.998Z</time></trkpt><trkpt lat="44.37113295353071" lon="11.656051123992103"><ele>75.5</ele><time>2026-05-03T09:49:34.999Z</time></trkpt><trkpt lat="44.37102334496196" lon="11.655992309602851"><ele>76.0</ele><time>2026-05-03T09:49:35.999Z</time></trkpt><trkpt lat="44.370913846148916" lon="11.655942639561713"><ele>76.5</ele><time>2026-05-03T09:49:36.999Z</time></trkpt><trkpt lat="44.37080278653505" lon="11.655891992889075"><ele>77.0</ele><time>2026-05-03T09:49:37.999Z</time></trkpt><trkpt lat="44.370693639171726" lon="11.655829914251008"><ele>77.0</ele><time>2026-05-03T09:49:38.999Z</time></trkpt><trkpt lat="44.37057992763185" lon="11.655776626246885"><ele>77.0</ele><time>2026-05-03T09:49:39.999Z</time></trkpt><trkpt lat="44.37047326771816" lon="11.655725076750516"><ele>77.0</ele><time>2026-05-03T09:49:40.999Z</time></trkpt><trkpt lat="44.370365671233465" lon="11.655663755751798"><ele>77.0</ele><time>2026-05-03T09:49:41.999Z</time></trkpt><trkpt lat="44.37025367872172" lon="11.655619805334803"><ele>77.5</ele><time>2026-05-03T09:49:42.999Z</time></trkpt><trkpt lat="44.370149317844984" lon="11.655541094617366"><ele>78.0</ele><time>2026-05-03T09:49:43.999Z</time></trkpt><trkpt lat="44.370040357093835" lon="11.655480650055502"><ele>78.5</ele><time>2026-05-03T09:49:44.998Z</time></trkpt><trkpt lat="44.36992435606156" lon="11.655432487544067"><ele>79.0</ele><time>2026-05-03T09:49:45.998Z</time></trkpt><trkpt lat="44.369814283170534" lon="11.655363588873637"><ele>79.0</ele><time>2026-05-03T09:49:46.998Z</time></trkpt><trkpt lat="44.36971241706048" lon="11.655287956866992"><ele>79.0</ele><time>2026-05-03T09:49:47.998Z</time></trkpt><trkpt lat="44.36960355935182" lon="11.655219267458522"><ele>79.0</ele><time>2026-05-03T09:49:48.999Z</time></trkpt><trkpt lat="44.369496372481116" lon="11.655144738224319"><ele>79.0</ele><time>2026-05-03T09:49:49.999Z</time></trkpt><trkpt lat="44.36939048608238" lon="11.655076676725155"><ele>79.0</ele><time>2026-05-03T09:49:50.999Z</time></trkpt><trkpt lat="44.369284788552655" lon="11.654995859465753"><ele>79.0</ele><time>2026-05-03T09:49:51.999Z</time></trkpt><trkpt lat="44.36918039621335" lon="11.654920020451387"><ele>79.0</ele><time>2026-05-03T09:49:52.999Z</time></trkpt><trkpt lat="44.369078937030814" lon="11.654850397491563"><ele>79.0</ele><time>2026-05-03T09:49:53.999Z</time></trkpt><trkpt lat="44.36897738629917" lon="11.654770960895847"><ele>79.0</ele><time>2026-05-03T09:49:54.999Z</time></trkpt><trkpt lat="44.368871003614245" lon="11.654685399629917"><ele>79.0</ele><time>2026-05-03T09:49:55.999Z</time></trkpt><trkpt lat="44.368763746533375" lon="11.654606235991643"><ele>79.0</ele><time>2026-05-03T09:49:56.999Z</time></trkpt><trkpt lat="44.36865842134615" lon="11.654539910578936"><ele>79.0</ele><time>2026-05-03T09:49:57.999Z</time></trkpt><trkpt lat="44.36855466668166" lon="11.654470250610396"><ele>78.75</ele><time>2026-05-03T09:49:58.999Z</time></trkpt><trkpt lat="44.36845125276659" lon="11.654399943446608"><ele>78.5</ele><time>2026-05-03T09:49:59.999Z</time></trkpt><trkpt lat="44.36834616055472" lon="11.65431642535152"><ele>78.25</ele><time>2026-05-03T09:50:00.999Z</time></trkpt><trkpt lat="44.36824218613189" lon="11.654240156831893"><ele>78.0</ele><time>2026-05-03T09:50:01.999Z</time></trkpt><trkpt lat="44.36813258610756" lon="11.654163203802714"><ele>78.0</ele><time>2026-05-03T09:50:02.999Z</time></trkpt><trkpt lat="44.36802777088915" lon="11.654092858061409"><ele>78.0</ele><time>2026-05-03T09:50:03.999Z</time></trkpt><trkpt lat="44.36792222712523" lon="11.654021194746571"><ele>78.0</ele><time>2026-05-03T09:50:04.999Z</time></trkpt><trkpt lat="44.36781600794942" lon="11.653947849542563"><ele>78.0</ele><time>2026-05-03T09:50:05.999Z</time></trkpt><trkpt lat="44.36770849733183" lon="11.653885593850616"><ele>78.5</ele><time>2026-05-03T09:50:06.999Z</time></trkpt><trkpt lat="44.36760647295576" lon="11.653793466252678"><ele>79.0</ele><time>2026-05-03T09:50:07.999Z</time></trkpt><trkpt lat="44.36750095041419" lon="11.653721297857246"><ele>79.5</ele><time>2026-05-03T09:50:08.999Z</time></trkpt><trkpt lat="44.36739567088835" lon="11.653648903326443"><ele>80.0</ele><time>2026-05-03T09:50:09.999Z</time></trkpt><trkpt lat="44.36729305581232" lon="11.653585688045"><ele>80.25</ele><time>2026-05-03T09:50:10.999Z</time></trkpt><trkpt lat="44.36719211086511" lon="11.65350088300543"><ele>80.5</ele><time>2026-05-03T09:50:11.999Z</time></trkpt><trkpt lat="44.36708746397239" lon="11.653420267586457"><ele>80.75</ele><time>2026-05-03T09:50:12.999Z</time></trkpt><trkpt lat="44.36698285087837" lon="11.653342055312628"><ele>81.0</ele><time>2026-05-03T09:50:13.999Z</time></trkpt><trkpt lat="44.36688136438038" lon="11.653279407952294"><ele>81.0</ele><time>2026-05-03T09:50:14.999Z</time></trkpt><trkpt lat="44.36678203998605" lon="11.653208972578177"><ele>81.0</ele><time>2026-05-03T09:50:15.999Z</time></trkpt><trkpt lat="44.366677436190415" lon="11.65313020962211"><ele>81.0</ele><time>2026-05-03T09:50:16.999Z</time></trkpt><trkpt lat="44.36657154025485" lon="11.653058247172362"><ele>81.0</ele><time>2026-05-03T09:50:17.999Z</time></trkpt><trkpt lat="44.36646594737344" lon="11.652984481830675"><ele>81.25</ele><time>2026-05-03T09:50:18.999Z</time></trkpt><trkpt lat="44.36636086895552" lon="11.65290499776727"><ele>81.5</ele><time>2026-05-03T09:50:19.999Z</time></trkpt><trkpt lat="44.36624754668808" lon="11.652829367519063"><ele>81.75</ele><time>2026-05-03T09:50:20.999Z</time></trkpt><trkpt lat="44.36614659005709" lon="11.652751089583116"><ele>82.0</ele><time>2026-05-03T09:50:21.999Z</time></trkpt><trkpt lat="44.36603689630187" lon="11.652677547816076"><ele>82.25</ele><time>2026-05-03T09:50:22.999Z</time></trkpt><trkpt lat="44.36593919841158" lon="11.652607769733775"><ele>82.5</ele><time>2026-05-03T09:50:23.999Z</time></trkpt><trkpt lat="44.36583085316209" lon="11.652537277499558"><ele>82.75</ele><time>2026-05-03T09:50:24.999Z</time></trkpt><trkpt lat="44.36572355098528" lon="11.652467035021992"><ele>83.0</ele><time>2026-05-03T09:50:25.999Z</time></trkpt><trkpt lat="44.365617114709146" lon="11.652388168944158"><ele>83.25</ele><time>2026-05-03T09:50:26.999Z</time></trkpt><trkpt lat="44.365509376612714" lon="11.652312382741146"><ele>83.5</ele><time>2026-05-03T09:50:27.999Z</time></trkpt><trkpt lat="44.36540463500216" lon="11.652238406860556"><ele>83.75</ele><time>2026-05-03T09:50:28.999Z</time></trkpt><trkpt lat="44.365300159723965" lon="11.652165413385832"><ele>84.0</ele><time>2026-05-03T09:50:29.999Z</time></trkpt><trkpt lat="44.36519703848916" lon="11.652086743555602"><ele>84.0</ele><time>2026-05-03T09:50:30.999Z</time></trkpt><trkpt lat="44.36509263766461" lon="11.652000851529625"><ele>84.0</ele><time>2026-05-03T09:50:31.999Z</time></trkpt><trkpt lat="44.36498603609903" lon="11.651921507818578"><ele>84.0</ele><time>2026-05-03T09:50:32.999Z</time></trkpt><trkpt lat="44.36488120379829" lon="11.65184125316632"><ele>84.0</ele><time>2026-05-03T09:50:33.999Z</time></trkpt><trkpt lat="44.36477378510614" lon="11.651749099185263"><ele>84.0</ele><time>2026-05-03T09:50:34.999Z</time></trkpt><trkpt lat="44.364668996867636" lon="11.651669473483773"><ele>84.0</ele><time>2026-05-03T09:50:35.999Z</time></trkpt><trkpt lat="44.36456467679589" lon="11.651578086493455"><ele>84.0</ele><time>2026-05-03T09:50:36.999Z</time></trkpt><trkpt lat="44.36445854886732" lon="11.651487974139947"><ele>84.0</ele><time>2026-05-03T09:50:37.999Z</time></trkpt><trkpt lat="44.36435866564927" lon="11.651394195699645"><ele>84.0</ele><time>2026-05-03T09:50:38.999Z</time></trkpt><trkpt lat="44.364261906956344" lon="11.651286769003896"><ele>84.0</ele><time>2026-05-03T09:50:39.999Z</time></trkpt><trkpt lat="44.36416122766171" lon="11.651172229616341"><ele>84.0</ele><time>2026-05-03T09:50:40.999Z</time></trkpt><trkpt lat="44.36406763442278" lon="11.651056759203987"><ele>84.0</ele><time>2026-05-03T09:50:41.999Z</time></trkpt><trkpt lat="44.36397290478588" lon="11.650937406129962"><ele>84.25</ele><time>2026-05-03T09:50:42.999Z</time></trkpt><trkpt lat="44.363876685668544" lon="11.650814088846417"><ele>84.5</ele><time>2026-05-03T09:50:43.999Z</time></trkpt><trkpt lat="44.36378916446872" lon="11.650687749815402"><ele>84.75</ele><time>2026-05-03T09:50:44.999Z</time></trkpt><trkpt lat="44.36370510714383" lon="11.65056310634036"><ele>85.0</ele><time>2026-05-03T09:50:45.999Z</time></trkpt><trkpt lat="44.363620966042205" lon="11.650423919382618"><ele>84.5</ele><time>2026-05-03T09:50:46.999Z</time></trkpt><trkpt lat="44.363541080329576" lon="11.650286479050772"><ele>84.0</ele><time>2026-05-03T09:50:47.999Z</time></trkpt><trkpt lat="44.36346243546182" lon="11.650149852945352"><ele>83.5</ele><time>2026-05-03T09:50:48.999Z</time></trkpt><trkpt lat="44.36338789840702" lon="11.649999312358206"><ele>83.0</ele><time>2026-05-03T09:50:49.999Z</time></trkpt><trkpt lat="44.36331191095563" lon="11.649855404514712"><ele>83.0</ele><time>2026-05-03T09:50:50.999Z</time></trkpt><trkpt lat="44.36323899449773" lon="11.649714672940277"><ele>83.0</ele><time>2026-05-03T09:50:51.999Z</time></trkpt><trkpt lat="44.36316871545583" lon="11.6495762367556"><ele>83.0</ele><time>2026-05-03T09:50:52.999Z</time></trkpt><trkpt lat="44.363096273893674" lon="11.649437360951016"><ele>83.0</ele><time>2026-05-03T09:50:53.999Z</time></trkpt><trkpt lat="44.36302591556118" lon="11.649296685288022"><ele>82.25</ele><time>2026-05-03T09:50:54.999Z</time></trkpt><trkpt lat="44.362953218412486" lon="11.64915795655476"><ele>81.5</ele><time>2026-05-03T09:50:55.999Z</time></trkpt><trkpt lat="44.36288167492268" lon="11.649022794271506"><ele>80.75</ele><time>2026-05-03T09:50:56.999Z</time></trkpt><trkpt lat="44.36281131674859" lon="11.648886656301643"><ele>80.0</ele><time>2026-05-03T09:50:57.999Z</time></trkpt><trkpt lat="44.362742590541245" lon="11.648749775870936"><ele>81.25</ele><time>2026-05-03T09:50:58.999Z</time></trkpt><trkpt lat="44.36267209117088" lon="11.64861724977871"><ele>82.5</ele><time>2026-05-03T09:50:59.999Z</time></trkpt><trkpt lat="44.36260801410683" lon="11.648477086518566"><ele>83.75</ele><time>2026-05-03T09:51:00.999Z</time></trkpt><trkpt lat="44.36253554327548" lon="11.648347369073488"><ele>85.0</ele><time>2026-05-03T09:51:01.999Z</time></trkpt><trkpt lat="44.36246438941535" lon="11.648219858732281"><ele>85.0</ele><time>2026-05-03T09:51:02.999Z</time></trkpt><trkpt lat="44.36239002653407" lon="11.648090673995027"><ele>85.0</ele><time>2026-05-03T09:51:03.999Z</time></trkpt><trkpt lat="44.362332247704536" lon="11.647947524542264"><ele>85.0</ele><time>2026-05-03T09:51:04.999Z</time></trkpt><trkpt lat="44.36226301143126" lon="11.647805604384628"><ele>85.0</ele><time>2026-05-03T09:51:05.999Z</time></trkpt><trkpt lat="44.362190783126955" lon="11.647672693032039"><ele>84.6</ele><time>2026-05-03T09:51:06.999Z</time></trkpt><trkpt lat="44.36211827794721" lon="11.647538543219655"><ele>84.2</ele><time>2026-05-03T09:51:07.999Z</time></trkpt><trkpt lat="44.362044624361495" lon="11.647403761020714"><ele>83.80000000000001</ele><time>2026-05-03T09:51:08.999Z</time></trkpt><trkpt lat="44.36197776080059" lon="11.647279175225457"><ele>83.4</ele><time>2026-05-03T09:51:09.999Z</time></trkpt><trkpt lat="44.361933348882964" lon="11.647160327543466"><ele>83.0</ele><time>2026-05-03T09:51:10.999Z</time></trkpt><trkpt lat="44.361877539539144" lon="11.647071968063171"><ele>83.0</ele><time>2026-05-03T09:51:12.999Z</time></trkpt><trkpt lat="44.36185116596655" lon="11.64696550627234"><ele>83.0</ele><time>2026-05-03T09:51:26Z</time></trkpt><trkpt lat="44.36179565364432" lon="11.64683755985906"><ele>83.0</ele><time>2026-05-03T10:01:11.998Z</time></trkpt><trkpt lat="44.36172523471808" lon="11.646772004571732"><ele>83.0</ele><time>2026-05-03T10:01:13.998Z</time></trkpt><trkpt lat="44.361653863312675" lon="11.646629290198423"><ele>83.0</ele><time>2026-05-03T10:01:15.998Z</time></trkpt><trkpt lat="44.361610270209624" lon="11.646539639545983"><ele>83.2</ele><time>2026-05-03T10:01:16.998Z</time></trkpt><trkpt lat="44.361560411276145" lon="11.646439836827641"><ele>83.4</ele><time>2026-05-03T10:01:17.998Z</time></trkpt><trkpt lat="44.36150796814103" lon="11.646328581816404"><ele>83.60000000000001</ele><time>2026-05-03T10:01:18.998Z</time></trkpt><trkpt lat="44.36145262313017" lon="11.646218861412178"><ele>83.80000000000001</ele><time>2026-05-03T10:01:19.998Z</time></trkpt><trkpt lat="44.36139444685804" lon="11.646106485957851"><ele>84.0</ele><time>2026-05-03T10:01:20.998Z</time></trkpt><trkpt lat="44.36133241319606" lon="11.645993026705948"><ele>84.0</ele><time>2026-05-03T10:01:21.998Z</time></trkpt><trkpt lat="44.36127158812119" lon="11.645873797721844"><ele>84.0</ele><time>2026-05-03T10:01:22.998Z</time></trkpt><trkpt lat="44.36121005552395" lon="11.645750275403493"><ele>84.0</ele><time>2026-05-03T10:01:23.998Z</time></trkpt><trkpt lat="44.36114084540075" lon="11.645631670048436"><ele>84.0</ele><time>2026-05-03T10:01:24.998Z</time></trkpt><trkpt lat="44.3610745324211" lon="11.64550886835856"><ele>84.0</ele><time>2026-05-03T10:01:25.998Z</time></trkpt><trkpt lat="44.36101120193583" lon="11.645384949462736"><ele>84.2</ele><time>2026-05-03T10:01:26.998Z</time></trkpt><trkpt lat="44.36094377358953" lon="11.64526170662056"><ele>84.4</ele><time>2026-05-03T10:01:27.998Z</time></trkpt><trkpt lat="44.36088047271064" lon="11.64513462772651"><ele>84.6</ele><time>2026-05-03T10:01:28.998Z</time></trkpt><trkpt lat="44.360812699945235" lon="11.645008896020894"><ele>84.8</ele><time>2026-05-03T10:01:29.998Z</time></trkpt><trkpt lat="44.36074897753419" lon="11.644877805865884"><ele>85.0</ele><time>2026-05-03T10:01:30.998Z</time></trkpt><trkpt lat="44.360683631363266" lon="11.644741891755752"><ele>85.0</ele><time>2026-05-03T10:01:31.998Z</time></trkpt><trkpt lat="44.3606202644414" lon="11.644610308036874"><ele>85.0</ele><time>2026-05-03T10:01:32.998Z</time></trkpt><trkpt lat="44.36055622452728" lon="11.644480539434273"><ele>85.0</ele><time>2026-05-03T10:01:33.998Z</time></trkpt><trkpt lat="44.36048728164604" lon="11.644348359602672"><ele>85.0</ele><time>2026-05-03T10:01:34.998Z</time></trkpt><trkpt lat="44.360419089297935" lon="11.644219962714638"><ele>84.25</ele><time>2026-05-03T10:01:35.998Z</time></trkpt><trkpt lat="44.3603526517795" lon="11.64408839394382"><ele>83.5</ele><time>2026-05-03T10:01:36.998Z</time></trkpt><trkpt lat="44.360283928866195" lon="11.643957976532855"><ele>82.75</ele><time>2026-05-03T10:01:37.998Z</time></trkpt><trkpt lat="44.36021475790448" lon="11.643823694077682"><ele>82.0</ele><time>2026-05-03T10:01:38.998Z</time></trkpt><trkpt lat="44.360147973028376" lon="11.643685220942947"><ele>82.25</ele><time>2026-05-03T10:01:39.998Z</time></trkpt><trkpt lat="44.36008089295255" lon="11.643547908966006"><ele>82.5</ele><time>2026-05-03T10:01:40.998Z</time></trkpt><trkpt lat="44.36001426400118" lon="11.643415476930512"><ele>82.75</ele><time>2026-05-03T10:01:41.998Z</time></trkpt><trkpt lat="44.35995120809796" lon="11.643280340077974"><ele>83.0</ele><time>2026-05-03T10:01:42.998Z</time></trkpt><trkpt lat="44.359884321066346" lon="11.643142551183276"><ele>83.0</ele><time>2026-05-03T10:01:43.998Z</time></trkpt><trkpt lat="44.35981425999195" lon="11.64300885636514"><ele>83.0</ele><time>2026-05-03T10:01:44.998Z</time></trkpt><trkpt lat="44.359753871236" lon="11.642880965040478"><ele>83.0</ele><time>2026-05-03T10:01:45.998Z</time></trkpt><trkpt lat="44.359692289930315" lon="11.64275015783699"><ele>83.0</ele><time>2026-05-03T10:01:46.998Z</time></trkpt><trkpt lat="44.359639141763076" lon="11.642635909751109"><ele>83.0</ele><time>2026-05-03T10:01:47.998Z</time></trkpt><trkpt lat="44.35959680771981" lon="11.642541030701539"><ele>83.0</ele><time>2026-05-03T10:01:48.998Z</time></trkpt><trkpt lat="44.35955109365438" lon="11.642430334214279"><ele>83.0</ele><time>2026-05-03T10:01:49.998Z</time></trkpt><trkpt lat="44.359513344719026" lon="11.64231772569775"><ele>83.0</ele><time>2026-05-03T10:01:50.998Z</time></trkpt><trkpt lat="44.35948030659578" lon="11.642213096856738"><ele>83.0</ele><time>2026-05-03T10:01:51.998Z</time></trkpt><trkpt lat="44.35943485945148" lon="11.642099519374256"><ele>83.0</ele><time>2026-05-03T10:01:52.998Z</time></trkpt><trkpt lat="44.35939070772277" lon="11.641968759153384"><ele>84.0</ele><time>2026-05-03T10:01:53.998Z</time></trkpt><trkpt lat="44.35932809854727" lon="11.641793191117987"><ele>85.0</ele><time>2026-05-03T10:01:54.998Z</time></trkpt><trkpt lat="44.359235156798924" lon="11.641586895394628"><ele>86.0</ele><time>2026-05-03T10:01:55.998Z</time></trkpt><trkpt lat="44.35916579048926" lon="11.641414993919703"><ele>86.0</ele><time>2026-05-03T10:01:56.998Z</time></trkpt><trkpt lat="44.35910334803129" lon="11.64125058705847"><ele>86.0</ele><time>2026-05-03T10:01:57.998Z</time></trkpt><trkpt lat="44.35904954531032" lon="11.641097574252102"><ele>86.0</ele><time>2026-05-03T10:01:58.998Z</time></trkpt><trkpt lat="44.358997883417" lon="11.640950538040936"><ele>86.0</ele><time>2026-05-03T10:01:59.998Z</time></trkpt><trkpt lat="44.35894036946526" lon="11.640799239225334"><ele>86.0</ele><time>2026-05-03T10:02:00.998Z</time></trkpt><trkpt lat="44.358879952360994" lon="11.640646212107711"><ele>86.0</ele><time>2026-05-03T10:02:01.998Z</time></trkpt><trkpt lat="44.358821508352456" lon="11.640482685074067"><ele>86.0</ele><time>2026-05-03T10:02:02.998Z</time></trkpt><trkpt lat="44.358770155737844" lon="11.640323948769279"><ele>86.0</ele><time>2026-05-03T10:02:03.998Z</time></trkpt><trkpt lat="44.35871471045675" lon="11.640167609525781"><ele>86.0</ele><time>2026-05-03T10:02:04.998Z</time></trkpt><trkpt lat="44.35866553864979" lon="11.640004828633996"><ele>86.0</ele><time>2026-05-03T10:02:05.998Z</time></trkpt><trkpt lat="44.35863208302469" lon="11.639835209941007"><ele>86.0</ele><time>2026-05-03T10:02:06.995Z</time></trkpt><trkpt lat="44.35859374002095" lon="11.63966493783491"><ele>86.0</ele><time>2026-05-03T10:02:07.995Z</time></trkpt><trkpt lat="44.358558049272084" lon="11.639486531810931"><ele>86.5</ele><time>2026-05-03T10:02:08.995Z</time></trkpt><trkpt lat="44.358523393420455" lon="11.63931094952275"><ele>87.0</ele><time>2026-05-03T10:02:09.995Z</time></trkpt><trkpt lat="44.35849364968604" lon="11.639132415349431"><ele>87.5</ele><time>2026-05-03T10:02:10.996Z</time></trkpt><trkpt lat="44.35846578980379" lon="11.638957826020588"><ele>88.0</ele><time>2026-05-03T10:02:11.996Z</time></trkpt><trkpt lat="44.35844028872452" lon="11.638792065393817"><ele>88.25</ele><time>2026-05-03T10:02:12.996Z</time></trkpt><trkpt lat="44.35841416297929" lon="11.638614715215802"><ele>88.5</ele><time>2026-05-03T10:02:13.995Z</time></trkpt><trkpt lat="44.35838886931849" lon="11.63842618288568"><ele>88.75</ele><time>2026-05-03T10:02:14.995Z</time></trkpt><trkpt lat="44.35836484851002" lon="11.638247730755758"><ele>89.0</ele><time>2026-05-03T10:02:15.995Z</time></trkpt><trkpt lat="44.35834228037257" lon="11.638082202985093"><ele>89.0</ele><time>2026-05-03T10:02:16.995Z</time></trkpt><trkpt lat="44.358319659609414" lon="11.637917507013546"><ele>89.0</ele><time>2026-05-03T10:02:17.995Z</time></trkpt><trkpt lat="44.35829542647134" lon="11.637741071278073"><ele>89.0</ele><time>2026-05-03T10:02:18.996Z</time></trkpt><trkpt lat="44.35827030881282" lon="11.637563074945337"><ele>89.0</ele><time>2026-05-03T10:02:19.994Z</time></trkpt><trkpt lat="44.35824463855657" lon="11.637387044313844"><ele>89.25</ele><time>2026-05-03T10:02:20.994Z</time></trkpt><trkpt lat="44.35821798701445" lon="11.637208612427601"><ele>89.5</ele><time>2026-05-03T10:02:21.994Z</time></trkpt><trkpt lat="44.35818976433953" lon="11.637034492965997"><ele>89.75</ele><time>2026-05-03T10:02:22.994Z</time></trkpt><trkpt lat="44.35816151584803" lon="11.63686785520643"><ele>90.0</ele><time>2026-05-03T10:02:23.994Z</time></trkpt><trkpt lat="44.3581323081218" lon="11.636698087791071"><ele>90.0</ele><time>2026-05-03T10:02:24.994Z</time></trkpt><trkpt lat="44.35809749494664" lon="11.636534506354659"><ele>90.0</ele><time>2026-05-03T10:02:25.994Z</time></trkpt><trkpt lat="44.35806576896533" lon="11.63636962128211"><ele>90.0</ele><time>2026-05-03T10:02:26.994Z</time></trkpt><trkpt lat="44.35803261900588" lon="11.636207103860185"><ele>90.0</ele><time>2026-05-03T10:02:27.995Z</time></trkpt><trkpt lat="44.35800438059397" lon="11.63604450302569"><ele>90.0</ele><time>2026-05-03T10:02:28.995Z</time></trkpt><trkpt lat="44.35797675455506" lon="11.63588252020679"><ele>90.0</ele><time>2026-05-03T10:02:29.995Z</time></trkpt><trkpt lat="44.357951050741434" lon="11.635717633660112"><ele>90.0</ele><time>2026-05-03T10:02:30.995Z</time></trkpt><trkpt lat="44.35792382922613" lon="11.635556226718537"><ele>90.0</ele><time>2026-05-03T10:02:31.995Z</time></trkpt><trkpt lat="44.35789383769442" lon="11.635414509740517"><ele>91.0</ele><time>2026-05-03T10:02:32.995Z</time></trkpt><trkpt lat="44.35784977849731" lon="11.635251830540648"><ele>92.0</ele><time>2026-05-03T10:02:33.995Z</time></trkpt><trkpt lat="44.3578081061603" lon="11.635089928094764"><ele>93.0</ele><time>2026-05-03T10:02:34.995Z</time></trkpt><trkpt lat="44.35777015372655" lon="11.634934082900026"><ele>94.0</ele><time>2026-05-03T10:02:35.995Z</time></trkpt><trkpt lat="44.357733526122054" lon="11.634774706807368"><ele>94.0</ele><time>2026-05-03T10:02:36.994Z</time></trkpt><trkpt lat="44.35769743441978" lon="11.634619385793833"><ele>94.0</ele><time>2026-05-03T10:02:37.994Z</time></trkpt><trkpt lat="44.35766154571472" lon="11.63446030573306"><ele>94.0</ele><time>2026-05-03T10:02:38.994Z</time></trkpt><trkpt lat="44.35762914442029" lon="11.634294773605879"><ele>94.0</ele><time>2026-05-03T10:02:39.994Z</time></trkpt><trkpt lat="44.35758883324971" lon="11.634128016962912"><ele>93.75</ele><time>2026-05-03T10:02:40.994Z</time></trkpt><trkpt lat="44.357548765236494" lon="11.63396798142027"><ele>93.5</ele><time>2026-05-03T10:02:41.994Z</time></trkpt><trkpt lat="44.357527820450386" lon="11.633808821536485"><ele>93.25</ele><time>2026-05-03T10:02:42.994Z</time></trkpt><trkpt lat="44.35749692009063" lon="11.633651291113763"><ele>93.0</ele><time>2026-05-03T10:02:43.994Z</time></trkpt><trkpt lat="44.35746458525568" lon="11.633486080693514"><ele>93.75</ele><time>2026-05-03T10:02:44.994Z</time></trkpt><trkpt lat="44.357423949357866" lon="11.633314281599969"><ele>94.5</ele><time>2026-05-03T10:02:45.994Z</time></trkpt><trkpt lat="44.357384720699116" lon="11.6331411986637"><ele>95.25</ele><time>2026-05-03T10:02:46.994Z</time></trkpt><trkpt lat="44.35734787064415" lon="11.632965705944926"><ele>96.0</ele><time>2026-05-03T10:02:47.994Z</time></trkpt><trkpt lat="44.35730244360154" lon="11.63278728867982"><ele>95.75</ele><time>2026-05-03T10:02:48.994Z</time></trkpt><trkpt lat="44.35726726348877" lon="11.632614095041006"><ele>95.5</ele><time>2026-05-03T10:02:49.994Z</time></trkpt><trkpt lat="44.35722471656493" lon="11.63244161815396"><ele>95.25</ele><time>2026-05-03T10:02:50.994Z</time></trkpt><trkpt lat="44.357188965844514" lon="11.63226499881325"><ele>95.0</ele><time>2026-05-03T10:02:51.994Z</time></trkpt><trkpt lat="44.35715447800945" lon="11.63209081885095"><ele>94.75</ele><time>2026-05-03T10:02:52.994Z</time></trkpt><trkpt lat="44.357117964464386" lon="11.631915341480171"><ele>94.5</ele><time>2026-05-03T10:02:53.994Z</time></trkpt><trkpt lat="44.35707937462805" lon="11.631738109337935"><ele>94.25</ele><time>2026-05-03T10:02:54.994Z</time></trkpt><trkpt lat="44.35704430150464" lon="11.631561819146617"><ele>94.0</ele><time>2026-05-03T10:02:55.994Z</time></trkpt><trkpt lat="44.35700564388129" lon="11.631389138715182"><ele>94.0</ele><time>2026-05-03T10:02:56.994Z</time></trkpt><trkpt lat="44.356969592625994" lon="11.631215356712264"><ele>94.0</ele><time>2026-05-03T10:02:57.994Z</time></trkpt><trkpt lat="44.356932213855906" lon="11.631041525199944"><ele>94.0</ele><time>2026-05-03T10:02:58.994Z</time></trkpt><trkpt lat="44.356893164145994" lon="11.630870578127974"><ele>94.0</ele><time>2026-05-03T10:02:59.994Z</time></trkpt><trkpt lat="44.35685357176396" lon="11.630696590677195"><ele>94.5</ele><time>2026-05-03T10:03:00.994Z</time></trkpt><trkpt lat="44.35681810435947" lon="11.630523981073651"><ele>95.0</ele><time>2026-05-03T10:03:01.994Z</time></trkpt><trkpt lat="44.35677965601385" lon="11.630353057552963"><ele>95.5</ele><time>2026-05-03T10:03:02.994Z</time></trkpt><trkpt lat="44.356747055420456" lon="11.630181973098185"><ele>96.0</ele><time>2026-05-03T10:03:03.994Z</time></trkpt><trkpt lat="44.35671691583381" lon="11.630006914033752"><ele>97.5</ele><time>2026-05-03T10:03:04.994Z</time></trkpt><trkpt lat="44.356687411200305" lon="11.629830990258391"><ele>99.0</ele><time>2026-05-03T10:03:05.994Z</time></trkpt><trkpt lat="44.356656233541266" lon="11.629649205580142"><ele>100.5</ele><time>2026-05-03T10:03:06.994Z</time></trkpt><trkpt lat="44.35662948913245" lon="11.629458367595541"><ele>102.0</ele><time>2026-05-03T10:03:07.994Z</time></trkpt><trkpt lat="44.356594269837444" lon="11.629272373098306"><ele>102.5</ele><time>2026-05-03T10:03:08.994Z</time></trkpt><trkpt lat="44.35655178690627" lon="11.629086610623158"><ele>103.0</ele><time>2026-05-03T10:03:09.994Z</time></trkpt><trkpt lat="44.356500404328756" lon="11.628905548572241"><ele>103.5</ele><time>2026-05-03T10:03:10.994Z</time></trkpt><trkpt lat="44.35645034562302" lon="11.628724434613623"><ele>104.0</ele><time>2026-05-03T10:03:11.994Z</time></trkpt><trkpt lat="44.35639452380936" lon="11.628552147738224"><ele>103.0</ele><time>2026-05-03T10:03:12.994Z</time></trkpt><trkpt lat="44.35634030909525" lon="11.628375531035442"><ele>102.0</ele><time>2026-05-03T10:03:13.994Z</time></trkpt><trkpt lat="44.35628739876608" lon="11.628202523778024"><ele>101.0</ele><time>2026-05-03T10:03:14.994Z</time></trkpt><trkpt lat="44.35622972690146" lon="11.628029274162474"><ele>100.0</ele><time>2026-05-03T10:03:15.994Z</time></trkpt><trkpt lat="44.35616969395145" lon="11.627855443448945"><ele>99.25</ele><time>2026-05-03T10:03:16.994Z</time></trkpt><trkpt lat="44.356106524463755" lon="11.62768272855736"><ele>98.5</ele><time>2026-05-03T10:03:17.994Z</time></trkpt><trkpt lat="44.35604178157079" lon="11.627512069405249"><ele>97.75</ele><time>2026-05-03T10:03:18.994Z</time></trkpt><trkpt lat="44.35597928856154" lon="11.627346358086015"><ele>97.0</ele><time>2026-05-03T10:03:19.994Z</time></trkpt><trkpt lat="44.3559144647504" lon="11.627183448297544"><ele>97.0</ele><time>2026-05-03T10:03:20.994Z</time></trkpt><trkpt lat="44.35585735258762" lon="11.627022309895835"><ele>97.0</ele><time>2026-05-03T10:03:21.994Z</time></trkpt><trkpt lat="44.35579458175638" lon="11.626856684166995"><ele>97.0</ele><time>2026-05-03T10:03:22.994Z</time></trkpt><trkpt lat="44.35573327975095" lon="11.626694262485698"><ele>97.0</ele><time>2026-05-03T10:03:23.994Z</time></trkpt><trkpt lat="44.35567580868837" lon="11.626534313209627"><ele>97.5</ele><time>2026-05-03T10:03:24.994Z</time></trkpt><trkpt lat="44.35561771137455" lon="11.62637558658567"><ele>98.0</ele><time>2026-05-03T10:03:25.994Z</time></trkpt><trkpt lat="44.355563326919885" lon="11.626210806082234"><ele>98.5</ele><time>2026-05-03T10:03:26.994Z</time></trkpt><trkpt lat="44.355505358890134" lon="11.626055368821515"><ele>99.0</ele><time>2026-05-03T10:03:27.994Z</time></trkpt><trkpt lat="44.355453243717534" lon="11.62589643631328"><ele>99.25</ele><time>2026-05-03T10:03:28.994Z</time></trkpt><trkpt lat="44.35540303714768" lon="11.625735369746158"><ele>99.5</ele><time>2026-05-03T10:03:29.994Z</time></trkpt><trkpt lat="44.35535513130114" lon="11.625565793925725"><ele>99.75</ele><time>2026-05-03T10:03:30.994Z</time></trkpt><trkpt lat="44.35531024461504" lon="11.62538782997389"><ele>100.0</ele><time>2026-05-03T10:03:31.994Z</time></trkpt><trkpt lat="44.35526458208364" lon="11.625215348976981"><ele>99.5</ele><time>2026-05-03T10:03:32.994Z</time></trkpt><trkpt lat="44.35522428334632" lon="11.625043255087066"><ele>99.0</ele><time>2026-05-03T10:03:33.994Z</time></trkpt><trkpt lat="44.35518447627935" lon="11.624865928428465"><ele>98.5</ele><time>2026-05-03T10:03:34.994Z</time></trkpt><trkpt lat="44.3551476606995" lon="11.6246857520581"><ele>98.0</ele><time>2026-05-03T10:03:35.994Z</time></trkpt><trkpt lat="44.35511275894824" lon="11.624506303793265"><ele>98.5</ele><time>2026-05-03T10:03:36.994Z</time></trkpt><trkpt lat="44.35507973740971" lon="11.624325975188947"><ele>99.0</ele><time>2026-05-03T10:03:37.994Z</time></trkpt><trkpt lat="44.3550466340376" lon="11.624146756941178"><ele>99.5</ele><time>2026-05-03T10:03:38.994Z</time></trkpt><trkpt lat="44.35501663608912" lon="11.623968593633732"><ele>100.0</ele><time>2026-05-03T10:03:39.994Z</time></trkpt><trkpt lat="44.35498662222326" lon="11.623791670659918"><ele>101.0</ele><time>2026-05-03T10:03:40.994Z</time></trkpt><trkpt lat="44.35495949924303" lon="11.623613428639352"><ele>102.0</ele><time>2026-05-03T10:03:41.994Z</time></trkpt><trkpt lat="44.354934457705845" lon="11.623442157723586"><ele>103.0</ele><time>2026-05-03T10:03:42.994Z</time></trkpt><trkpt lat="44.35490577551488" lon="11.623271443154099"><ele>104.0</ele><time>2026-05-03T10:03:43.994Z</time></trkpt><trkpt lat="44.354869830829976" lon="11.62309636087437"><ele>104.0</ele><time>2026-05-03T10:03:44.994Z</time></trkpt><trkpt lat="44.354830049447" lon="11.62292566899149"><ele>104.0</ele><time>2026-05-03T10:03:45.994Z</time></trkpt><trkpt lat="44.354780776183844" lon="11.622757883161745"><ele>104.0</ele><time>2026-05-03T10:03:46.994Z</time></trkpt><trkpt lat="44.354721529960884" lon="11.622595973387781"><ele>104.0</ele><time>2026-05-03T10:03:47.994Z</time></trkpt><trkpt lat="44.35467125628562" lon="11.62242558314488"><ele>103.5</ele><time>2026-05-03T10:03:48.994Z</time></trkpt><trkpt lat="44.35460151124163" lon="11.622272589539113"><ele>103.0</ele><time>2026-05-03T10:03:49.994Z</time></trkpt><trkpt lat="44.354530807372456" lon="11.622122373877351"><ele>102.5</ele><time>2026-05-03T10:03:50.994Z</time></trkpt><trkpt lat="44.35445516729354" lon="11.621976132583466"><ele>102.0</ele><time>2026-05-03T10:03:51.994Z</time></trkpt><trkpt lat="44.35438092850815" lon="11.621828917691163"><ele>102.0</ele><time>2026-05-03T10:03:52.994Z</time></trkpt><trkpt lat="44.3543098369347" lon="11.621680070936817"><ele>102.0</ele><time>2026-05-03T10:03:53.994Z</time></trkpt><trkpt lat="44.35424448278785" lon="11.621525454634776"><ele>102.0</ele><time>2026-05-03T10:03:54.994Z</time></trkpt><trkpt lat="44.354195101706985" lon="11.62136501711985"><ele>102.0</ele><time>2026-05-03T10:03:55.994Z</time></trkpt><trkpt lat="44.35415777344718" lon="11.621199071964938"><ele>102.5</ele><time>2026-05-03T10:03:56.995Z</time></trkpt><trkpt lat="44.35412598425052" lon="11.621028823087691"><ele>103.0</ele><time>2026-05-03T10:03:57.995Z</time></trkpt><trkpt lat="44.35410328570195" lon="11.620858664723574"><ele>103.5</ele><time>2026-05-03T10:03:58.995Z</time></trkpt><trkpt lat="44.35409187792261" lon="11.62068775084269"><ele>104.0</ele><time>2026-05-03T10:03:59.995Z</time></trkpt><trkpt lat="44.354083588374124" lon="11.620511850385862"><ele>104.0</ele><time>2026-05-03T10:04:00.995Z</time></trkpt><trkpt lat="44.354073727026936" lon="11.620335937768376"><ele>104.0</ele><time>2026-05-03T10:04:01.995Z</time></trkpt><trkpt lat="44.35405294255924" lon="11.620162176576914"><ele>104.0</ele><time>2026-05-03T10:04:02.995Z</time></trkpt><trkpt lat="44.354018923974614" lon="11.61998817762179"><ele>104.0</ele><time>2026-05-03T10:04:03.995Z</time></trkpt><trkpt lat="44.35397685653779" lon="11.619815337435218"><ele>104.0</ele><time>2026-05-03T10:04:04.995Z</time></trkpt><trkpt lat="44.35392752823285" lon="11.619649059148685"><ele>104.0</ele><time>2026-05-03T10:04:05.995Z</time></trkpt><trkpt lat="44.35387011889369" lon="11.619487715641293"><ele>104.0</ele><time>2026-05-03T10:04:06.995Z</time></trkpt><trkpt lat="44.353814803434496" lon="11.619325957235963"><ele>104.0</ele><time>2026-05-03T10:04:07.995Z</time></trkpt><trkpt lat="44.35375575808417" lon="11.619163639500668"><ele>104.25</ele><time>2026-05-03T10:04:08.995Z</time></trkpt><trkpt lat="44.35369292265848" lon="11.619007593641788"><ele>104.5</ele><time>2026-05-03T10:04:09.995Z</time></trkpt><trkpt lat="44.35362967767168" lon="11.618855848536949"><ele>104.75</ele><time>2026-05-03T10:04:10.995Z</time></trkpt><trkpt lat="44.35355844396645" lon="11.618713027479568"><ele>105.0</ele><time>2026-05-03T10:04:11.995Z</time></trkpt><trkpt lat="44.35348108597455" lon="11.618577484106693"><ele>105.0</ele><time>2026-05-03T10:04:12.992Z</time></trkpt><trkpt lat="44.35339804221067" lon="11.618446387848369"><ele>105.0</ele><time>2026-05-03T10:04:13.993Z</time></trkpt><trkpt lat="44.353313022328614" lon="11.618320399261071"><ele>105.0</ele><time>2026-05-03T10:04:14.993Z</time></trkpt><trkpt lat="44.35321908985352" lon="11.618198833247625"><ele>105.0</ele><time>2026-05-03T10:04:15.992Z</time></trkpt><trkpt lat="44.35312130460192" lon="11.618086414396004"><ele>104.5</ele><time>2026-05-03T10:04:16.992Z</time></trkpt><trkpt lat="44.35302193705767" lon="11.617973720210806"><ele>104.0</ele><time>2026-05-03T10:04:17.992Z</time></trkpt><trkpt lat="44.352915851733464" lon="11.61786532071708"><ele>103.5</ele><time>2026-05-03T10:04:18.992Z</time></trkpt><trkpt lat="44.352810847219324" lon="11.617758893680817"><ele>103.0</ele><time>2026-05-03T10:04:19.993Z</time></trkpt><trkpt lat="44.3527017843271" lon="11.617655192663895"><ele>103.0</ele><time>2026-05-03T10:04:20.993Z</time></trkpt><trkpt lat="44.35259127002041" lon="11.617551941401432"><ele>103.0</ele><time>2026-05-03T10:04:21.992Z</time></trkpt><trkpt lat="44.352481537704264" lon="11.617449250842963"><ele>103.0</ele><time>2026-05-03T10:04:22.993Z</time></trkpt><trkpt lat="44.35237177927326" lon="11.61734430034697"><ele>103.0</ele><time>2026-05-03T10:04:23.993Z</time></trkpt><trkpt lat="44.3522590854517" lon="11.617237315583036"><ele>102.5</ele><time>2026-05-03T10:04:24.993Z</time></trkpt><trkpt lat="44.35214732565848" lon="11.61712573150964"><ele>102.0</ele><time>2026-05-03T10:04:25.993Z</time></trkpt><trkpt lat="44.35203673876182" lon="11.617013598726164"><ele>101.5</ele><time>2026-05-03T10:04:26.993Z</time></trkpt><trkpt lat="44.351926263670464" lon="11.616891800789645"><ele>101.0</ele><time>2026-05-03T10:04:27.993Z</time></trkpt><trkpt lat="44.35182791270915" lon="11.616752867331668"><ele>101.0</ele><time>2026-05-03T10:04:28.993Z</time></trkpt><trkpt lat="44.35173670449429" lon="11.61661331604412"><ele>101.0</ele><time>2026-05-03T10:04:29.993Z</time></trkpt><trkpt lat="44.35165106806565" lon="11.616467992724214"><ele>101.0</ele><time>2026-05-03T10:04:30.993Z</time></trkpt><trkpt lat="44.351570776621024" lon="11.616311998252922"><ele>101.0</ele><time>2026-05-03T10:04:31.993Z</time></trkpt><trkpt lat="44.351498955104134" lon="11.61615039265852"><ele>101.5</ele><time>2026-05-03T10:04:32.993Z</time></trkpt><trkpt lat="44.35143360331271" lon="11.615981722516747"><ele>102.0</ele><time>2026-05-03T10:04:33.993Z</time></trkpt><trkpt lat="44.35137778362509" lon="11.615807491320867"><ele>102.5</ele><time>2026-05-03T10:04:34.993Z</time></trkpt><trkpt lat="44.35133459761904" lon="11.615626502042598"><ele>103.0</ele><time>2026-05-03T10:04:35.993Z</time></trkpt><trkpt lat="44.351295981017415" lon="11.615443632592177"><ele>102.75</ele><time>2026-05-03T10:04:36.993Z</time></trkpt><trkpt lat="44.35126340530396" lon="11.615257195443142"><ele>102.5</ele><time>2026-05-03T10:04:37.993Z</time></trkpt><trkpt lat="44.35123852689793" lon="11.615073539241756"><ele>102.25</ele><time>2026-05-03T10:04:38.993Z</time></trkpt><trkpt lat="44.351222935934004" lon="11.614886152561702"><ele>102.0</ele><time>2026-05-03T10:04:39.993Z</time></trkpt><trkpt lat="44.35121478513391" lon="11.614698197964739"><ele>102.0</ele><time>2026-05-03T10:04:40.993Z</time></trkpt><trkpt lat="44.351214654040106" lon="11.614505856492723"><ele>102.0</ele><time>2026-05-03T10:04:41.993Z</time></trkpt><trkpt lat="44.35122025069182" lon="11.614313496397207"><ele>102.0</ele><time>2026-05-03T10:04:42.993Z</time></trkpt><trkpt lat="44.35122697981705" lon="11.614124159721166"><ele>102.0</ele><time>2026-05-03T10:04:43.993Z</time></trkpt><trkpt lat="44.35124009517404" lon="11.613935208744044"><ele>102.0</ele><time>2026-05-03T10:04:44.993Z</time></trkpt><trkpt lat="44.35125272346321" lon="11.61375140001344"><ele>102.0</ele><time>2026-05-03T10:04:45.993Z</time></trkpt><trkpt lat="44.35126643762524" lon="11.613580531976513"><ele>102.0</ele><time>2026-05-03T10:04:46.993Z</time></trkpt><trkpt lat="44.35128022264521" lon="11.613413171002431"><ele>102.0</ele><time>2026-05-03T10:04:47.993Z</time></trkpt><trkpt lat="44.35128959336045" lon="11.613253727884901"><ele>102.0</ele><time>2026-05-03T10:04:48.993Z</time></trkpt><trkpt lat="44.351294157612394" lon="11.613098123407026"><ele>102.0</ele><time>2026-05-03T10:04:49.993Z</time></trkpt><trkpt lat="44.35129864782804" lon="11.612946399077508"><ele>102.0</ele><time>2026-05-03T10:04:50.993Z</time></trkpt><trkpt lat="44.351309077840746" lon="11.61279836885176"><ele>102.0</ele><time>2026-05-03T10:04:51.993Z</time></trkpt><trkpt lat="44.35131864695645" lon="11.612671836252288"><ele>102.0</ele><time>2026-05-03T10:04:52.993Z</time></trkpt><trkpt lat="44.35133043024064" lon="11.612552793104237"><ele>102.19999999999999</ele><time>2026-05-03T10:04:53.993Z</time></trkpt><trkpt lat="44.35133457097916" lon="11.612433730226813"><ele>102.4</ele><time>2026-05-03T10:04:54.993Z</time></trkpt><trkpt lat="44.3513398795086" lon="11.612301079678474"><ele>102.6</ele><time>2026-05-03T10:04:55.993Z</time></trkpt><trkpt lat="44.351343693955656" lon="11.612171532056813"><ele>102.80000000000001</ele><time>2026-05-03T10:04:56.993Z</time></trkpt><trkpt lat="44.35134392888098" lon="11.612047282001292"><ele>103.0</ele><time>2026-05-03T10:04:57.993Z</time></trkpt><trkpt lat="44.35144539093913" lon="11.612131134491522"><ele>104.00000000000001</ele><time>2026-05-03T10:05:01.993Z</time></trkpt><trkpt lat="44.351530626438525" lon="11.612259303125642"><ele>105.0</ele><time>2026-05-03T10:05:03.993Z</time></trkpt><trkpt lat="44.351577778915534" lon="11.61232944307826"><ele>106.0</ele><time>2026-05-03T10:05:04.993Z</time></trkpt><trkpt lat="44.351629782818975" lon="11.612396879753128"><ele>107.0</ele><time>2026-05-03T10:05:05.993Z</time></trkpt><trkpt lat="44.3516866646574" lon="11.612464351973234"><ele>108.00000000000001</ele><time>2026-05-03T10:05:06.993Z</time></trkpt><trkpt lat="44.35174611472197" lon="11.61253200211333"><ele>109.0</ele><time>2026-05-03T10:05:07.993Z</time></trkpt><trkpt lat="44.35180662290489" lon="11.612600342758387"><ele>109.00000000000001</ele><time>2026-05-03T10:05:08.993Z</time></trkpt><trkpt lat="44.35187683791673" lon="11.612662908682267"><ele>109.0</ele><time>2026-05-03T10:05:09.993Z</time></trkpt><trkpt lat="44.351937729721406" lon="11.612732011389923"><ele>109.0</ele><time>2026-05-03T10:05:10.993Z</time></trkpt><trkpt lat="44.35199977001076" lon="11.612805881446592"><ele>109.0</ele><time>2026-05-03T10:05:11.993Z</time></trkpt><trkpt lat="44.35205287123972" lon="11.612899535858325"><ele>109.00000000000001</ele><time>2026-05-03T10:05:12.993Z</time></trkpt><trkpt lat="44.352104050352246" lon="11.612990059377774"><ele>109.0</ele><time>2026-05-03T10:05:13.993Z</time></trkpt><trkpt lat="44.352153268280674" lon="11.61308483242608"><ele>110.83333333333334</ele><time>2026-05-03T10:05:14.993Z</time></trkpt><trkpt lat="44.35220904910853" lon="11.61317677167953"><ele>112.66666666666667</ele><time>2026-05-03T10:05:15.993Z</time></trkpt><trkpt lat="44.352228257741224" lon="11.613298074391134"><ele>114.5</ele><time>2026-05-03T10:05:16.993Z</time></trkpt><trkpt lat="44.35224493247838" lon="11.613410892154182"><ele>116.33333333333334</ele><time>2026-05-03T10:05:17.993Z</time></trkpt><trkpt lat="44.35225429746629" lon="11.61353152128676"><ele>118.16666666666667</ele><time>2026-05-03T10:05:18.993Z</time></trkpt><trkpt lat="44.35226397933405" lon="11.613662142804635"><ele>120.0</ele><time>2026-05-03T10:05:19.993Z</time></trkpt><trkpt lat="44.352276128932544" lon="11.61379853820707"><ele>120.4</ele><time>2026-05-03T10:05:20.993Z</time></trkpt><trkpt lat="44.35230404408959" lon="11.613954671279908"><ele>120.8</ele><time>2026-05-03T10:05:21.993Z</time></trkpt><trkpt lat="44.352341197947574" lon="11.61408610006766"><ele>121.19999999999999</ele><time>2026-05-03T10:05:22.993Z</time></trkpt><trkpt lat="44.3523898588235" lon="11.614215823039205"><ele>121.6</ele><time>2026-05-03T10:05:23.993Z</time></trkpt><trkpt lat="44.35244242772088" lon="11.614344237177503"><ele>122.0</ele><time>2026-05-03T10:05:24.993Z</time></trkpt><trkpt lat="44.35250204565316" lon="11.614461908726328"><ele>121.39999999999999</ele><time>2026-05-03T10:05:25.993Z</time></trkpt><trkpt lat="44.35256507382668" lon="11.61457558122972"><ele>120.79999999999998</ele><time>2026-05-03T10:05:26.993Z</time></trkpt><trkpt lat="44.35264614303988" lon="11.614684403078982"><ele>120.2</ele><time>2026-05-03T10:05:27.993Z</time></trkpt><trkpt lat="44.352706637290225" lon="11.614812974460426"><ele>119.6</ele><time>2026-05-03T10:05:28.993Z</time></trkpt><trkpt lat="44.352777530205444" lon="11.614929605407546"><ele>119.0</ele><time>2026-05-03T10:05:29.993Z</time></trkpt><trkpt lat="44.35284965212348" lon="11.615048258214992"><ele>119.0</ele><time>2026-05-03T10:05:30.993Z</time></trkpt><trkpt lat="44.35292127274417" lon="11.615166086331326"><ele>119.0</ele><time>2026-05-03T10:05:31.993Z</time></trkpt><trkpt lat="44.352990410141324" lon="11.615282339944326"><ele>119.0</ele><time>2026-05-03T10:05:32.993Z</time></trkpt><trkpt lat="44.35305458574518" lon="11.615399567541226"><ele>119.0</ele><time>2026-05-03T10:05:33.993Z</time></trkpt><trkpt lat="44.35311241256097" lon="11.61553187836543"><ele>119.0</ele><time>2026-05-03T10:05:34.993Z</time></trkpt><trkpt lat="44.35316066954587" lon="11.615661982626056"><ele>118.80000000000001</ele><time>2026-05-03T10:05:35.993Z</time></trkpt><trkpt lat="44.35321426151111" lon="11.615802747076929"><ele>118.60000000000001</ele><time>2026-05-03T10:05:36.993Z</time></trkpt><trkpt lat="44.35326078435694" lon="11.615933947306637"><ele>118.4</ele><time>2026-05-03T10:05:37.993Z</time></trkpt><trkpt lat="44.353313164992166" lon="11.616063606209435"><ele>118.2</ele><time>2026-05-03T10:05:38.993Z</time></trkpt><trkpt lat="44.353369058329505" lon="11.616187453567717"><ele>118.0</ele><time>2026-05-03T10:05:39.993Z</time></trkpt><trkpt lat="44.353438492532035" lon="11.616300101586424"><ele>118.0</ele><time>2026-05-03T10:05:40.993Z</time></trkpt><trkpt lat="44.35352501276865" lon="11.616400047313276"><ele>118.0</ele><time>2026-05-03T10:05:41.993Z</time></trkpt><trkpt lat="44.353623064553936" lon="11.61649201125852"><ele>118.0</ele><time>2026-05-03T10:05:42.993Z</time></trkpt><trkpt lat="44.35372226181743" lon="11.616583261221377"><ele>118.0</ele><time>2026-05-03T10:05:43.993Z</time></trkpt><trkpt lat="44.35382320458388" lon="11.616678834160988"><ele>118.25</ele><time>2026-05-03T10:05:44.993Z</time></trkpt><trkpt lat="44.35393025188449" lon="11.616772858005405"><ele>118.5</ele><time>2026-05-03T10:05:45.993Z</time></trkpt><trkpt lat="44.35403761211374" lon="11.61685505955509"><ele>118.75</ele><time>2026-05-03T10:05:46.993Z</time></trkpt><trkpt lat="44.35414080791855" lon="11.616947498264215"><ele>119.0</ele><time>2026-05-03T10:05:47.993Z</time></trkpt><trkpt lat="44.354250480504" lon="11.617053749831317"><ele>119.0</ele><time>2026-05-03T10:05:48.993Z</time></trkpt><trkpt lat="44.354302799373116" lon="11.617211307841124"><ele>119.0</ele><time>2026-05-03T10:05:49.993Z</time></trkpt><trkpt lat="44.35432993157766" lon="11.617363266114282"><ele>119.0</ele><time>2026-05-03T10:05:50.993Z</time></trkpt><trkpt lat="44.35436388787335" lon="11.617527795534503"><ele>119.0</ele><time>2026-05-03T10:05:51.993Z</time></trkpt><trkpt lat="44.35439913299291" lon="11.617672883275201"><ele>119.0</ele><time>2026-05-03T10:05:52.993Z</time></trkpt><trkpt lat="44.35445107549383" lon="11.617807675389756"><ele>119.0</ele><time>2026-05-03T10:05:53.993Z</time></trkpt><trkpt lat="44.354501322638875" lon="11.61794278343287"><ele>119.0</ele><time>2026-05-03T10:05:54.994Z</time></trkpt><trkpt lat="44.354560517116894" lon="11.618071899946798"><ele>119.0</ele><time>2026-05-03T10:05:55.994Z</time></trkpt><trkpt lat="44.35463200988895" lon="11.618189112089869"><ele>119.0</ele><time>2026-05-03T10:05:56.994Z</time></trkpt><trkpt lat="44.35469393235459" lon="11.618310404684193"><ele>120.4</ele><time>2026-05-03T10:05:57.994Z</time></trkpt><trkpt lat="44.354771573640626" lon="11.618411802104859"><ele>121.80000000000001</ele><time>2026-05-03T10:05:58.994Z</time></trkpt><trkpt lat="44.354846368027964" lon="11.618515291736621"><ele>123.19999999999999</ele><time>2026-05-03T10:05:59.994Z</time></trkpt><trkpt lat="44.35491709450387" lon="11.618624518463417"><ele>124.6</ele><time>2026-05-03T10:06:00.994Z</time></trkpt><trkpt lat="44.35495531657782" lon="11.618760219862539"><ele>126.0</ele><time>2026-05-03T10:06:01.994Z</time></trkpt><trkpt lat="44.35498530178464" lon="11.618899898337128"><ele>126.0</ele><time>2026-05-03T10:06:02.994Z</time></trkpt><trkpt lat="44.35503087711605" lon="11.619058734164405"><ele>126.0</ele><time>2026-05-03T10:06:03.994Z</time></trkpt><trkpt lat="44.355092340615286" lon="11.619206185505476"><ele>126.0</ele><time>2026-05-03T10:06:04.994Z</time></trkpt><trkpt lat="44.355134784147836" lon="11.619371791131424"><ele>126.0</ele><time>2026-05-03T10:06:05.994Z</time></trkpt><trkpt lat="44.35520643263997" lon="11.619525199765084"><ele>124.75</ele><time>2026-05-03T10:06:06.994Z</time></trkpt><trkpt lat="44.35528309278492" lon="11.619681588362191"><ele>123.5</ele><time>2026-05-03T10:06:07.994Z</time></trkpt><trkpt lat="44.355355145822884" lon="11.619834359954636"><ele>122.25</ele><time>2026-05-03T10:06:08.994Z</time></trkpt><trkpt lat="44.35542939239819" lon="11.619998423616561"><ele>121.0</ele><time>2026-05-03T10:06:09.994Z</time></trkpt><trkpt lat="44.355513758174965" lon="11.620128554513414"><ele>124.0</ele><time>2026-05-03T10:06:10.994Z</time></trkpt><trkpt lat="44.35559135827428" lon="11.62024010432176"><ele>127.0</ele><time>2026-05-03T10:06:11.994Z</time></trkpt><trkpt lat="44.35565822712549" lon="11.620355808285513"><ele>130.0</ele><time>2026-05-03T10:06:12.994Z</time></trkpt><trkpt lat="44.35571758345686" lon="11.620476376128742"><ele>133.0</ele><time>2026-05-03T10:06:13.994Z</time></trkpt><trkpt lat="44.35577517850668" lon="11.620590132888577"><ele>136.0</ele><time>2026-05-03T10:06:14.994Z</time></trkpt><trkpt lat="44.35583399769415" lon="11.620699616066961"><ele>136.0</ele><time>2026-05-03T10:06:15.994Z</time></trkpt><trkpt lat="44.35590590363969" lon="11.620784785971594"><ele>136.0</ele><time>2026-05-03T10:06:16.994Z</time></trkpt><trkpt lat="44.35599600288548" lon="11.620852172491796"><ele>136.0</ele><time>2026-05-03T10:06:17.994Z</time></trkpt><trkpt lat="44.35608956273427" lon="11.620906591594107"><ele>136.0</ele><time>2026-05-03T10:06:18.991Z</time></trkpt><trkpt lat="44.35617979346034" lon="11.620949937876826"><ele>136.0</ele><time>2026-05-03T10:06:19.991Z</time></trkpt><trkpt lat="44.35626185526657" lon="11.620973262384194"><ele>136.0</ele><time>2026-05-03T10:06:20.991Z</time></trkpt><trkpt lat="44.356345375181924" lon="11.620999175575417"><ele>136.0</ele><time>2026-05-03T10:06:21.991Z</time></trkpt><trkpt lat="44.35644504260133" lon="11.621051556705035"><ele>136.0</ele><time>2026-05-03T10:06:22.991Z</time></trkpt><trkpt lat="44.35652776888411" lon="11.62111518580293"><ele>136.0</ele><time>2026-05-03T10:06:23.991Z</time></trkpt><trkpt lat="44.356570905883935" lon="11.621252684223132"><ele>136.0</ele><time>2026-05-03T10:06:24.992Z</time></trkpt><trkpt lat="44.35662657440997" lon="11.621357281858257"><ele>139.0</ele><time>2026-05-03T10:06:25.991Z</time></trkpt><trkpt lat="44.35669530375614" lon="11.621461435268515"><ele>142.0</ele><time>2026-05-03T10:06:26.991Z</time></trkpt><trkpt lat="44.35673811710797" lon="11.621568896596415"><ele>145.0</ele><time>2026-05-03T10:06:27.991Z</time></trkpt><trkpt lat="44.35678338286636" lon="11.621680436005459"><ele>148.0</ele><time>2026-05-03T10:06:28.991Z</time></trkpt><trkpt lat="44.35682885661311" lon="11.621793705834243"><ele>151.0</ele><time>2026-05-03T10:06:29.991Z</time></trkpt><trkpt lat="44.35688162425097" lon="11.621903612031575"><ele>149.8</ele><time>2026-05-03T10:06:30.991Z</time></trkpt><trkpt lat="44.35695675432197" lon="11.622000946769342"><ele>148.6</ele><time>2026-05-03T10:06:31.991Z</time></trkpt><trkpt lat="44.35702732062517" lon="11.62210738149368"><ele>147.4</ele><time>2026-05-03T10:06:32.991Z</time></trkpt><trkpt lat="44.3570891605407" lon="11.62221569596707"><ele>146.2</ele><time>2026-05-03T10:06:33.991Z</time></trkpt><trkpt lat="44.35715042291703" lon="11.622311668006638"><ele>145.0</ele><time>2026-05-03T10:06:34.991Z</time></trkpt><trkpt lat="44.35721097406348" lon="11.622395942330918"><ele>150.4</ele><time>2026-05-03T10:06:35.991Z</time></trkpt><trkpt lat="44.357278693816546" lon="11.622472336026545"><ele>155.8</ele><time>2026-05-03T10:06:36.991Z</time></trkpt><trkpt lat="44.35735532437161" lon="11.622527059290045"><ele>161.2</ele><time>2026-05-03T10:06:37.991Z</time></trkpt><trkpt lat="44.35743152500191" lon="11.622604545756653"><ele>166.6</ele><time>2026-05-03T10:06:38.992Z</time></trkpt><trkpt lat="44.357507740534786" lon="11.622667518152857"><ele>172.0</ele><time>2026-05-03T10:06:39.992Z</time></trkpt><trkpt lat="44.35758349321362" lon="11.622749681039844"><ele>169.8</ele><time>2026-05-03T10:06:40.992Z</time></trkpt><trkpt lat="44.357659017285506" lon="11.622839795391883"><ele>167.6</ele><time>2026-05-03T10:06:41.992Z</time></trkpt><trkpt lat="44.35773168160099" lon="11.622950639079205"><ele>165.4</ele><time>2026-05-03T10:06:42.992Z</time></trkpt><trkpt lat="44.35778538661979" lon="11.623074848994865"><ele>163.20000000000002</ele><time>2026-05-03T10:06:43.992Z</time></trkpt><trkpt lat="44.357841120890726" lon="11.62320543601266"><ele>161.0</ele><time>2026-05-03T10:06:44.992Z</time></trkpt><trkpt lat="44.35789665555291" lon="11.623323395420302"><ele>161.0</ele><time>2026-05-03T10:06:45.992Z</time></trkpt><trkpt lat="44.357954280506256" lon="11.623423530361977"><ele>161.0</ele><time>2026-05-03T10:06:46.992Z</time></trkpt><trkpt lat="44.35801927730611" lon="11.623507385547846"><ele>161.0</ele><time>2026-05-03T10:06:47.992Z</time></trkpt><trkpt lat="44.35812122552968" lon="11.623530819338278"><ele>161.0</ele><time>2026-05-03T10:06:48.992Z</time></trkpt><trkpt lat="44.35821152832635" lon="11.623549066980015"><ele>161.0</ele><time>2026-05-03T10:06:49.992Z</time></trkpt><trkpt lat="44.3582833154705" lon="11.623610242819046"><ele>163.66666666666666</ele><time>2026-05-03T10:06:50.992Z</time></trkpt><trkpt lat="44.35836253667396" lon="11.623665331485546"><ele>166.33333333333331</ele><time>2026-05-03T10:06:51.992Z</time></trkpt><trkpt lat="44.3584456348251" lon="11.623718852476328"><ele>169.0</ele><time>2026-05-03T10:06:52.992Z</time></trkpt><trkpt lat="44.358517447890314" lon="11.623735201111785"><ele>171.66666666666666</ele><time>2026-05-03T10:06:53.992Z</time></trkpt><trkpt lat="44.35859310360621" lon="11.623772838066984"><ele>174.33333333333334</ele><time>2026-05-03T10:06:55.992Z</time></trkpt><trkpt lat="44.35869707079909" lon="11.62379387497129"><ele>177.0</ele><time>2026-05-03T10:06:57.992Z</time></trkpt><trkpt lat="44.35876258964189" lon="11.623748957835765"><ele>177.0</ele><time>2026-05-03T10:06:58.992Z</time></trkpt><trkpt lat="44.358825861759215" lon="11.623664471814683"><ele>177.0</ele><time>2026-05-03T10:06:59.992Z</time></trkpt><trkpt lat="44.358880442501146" lon="11.623575186024432"><ele>177.0</ele><time>2026-05-03T10:07:00.992Z</time></trkpt><trkpt lat="44.35895300915344" lon="11.623494257689957"><ele>177.0</ele><time>2026-05-03T10:07:01.992Z</time></trkpt><trkpt lat="44.359028828337415" lon="11.623415190525032"><ele>177.0</ele><time>2026-05-03T10:07:02.992Z</time></trkpt><trkpt lat="44.359104994003125" lon="11.62334740209039"><ele>177.0</ele><time>2026-05-03T10:07:03.992Z</time></trkpt><trkpt lat="44.35917358888023" lon="11.623264145726223"><ele>180.0</ele><time>2026-05-03T10:07:04.992Z</time></trkpt><trkpt lat="44.35924615577855" lon="11.623187377253961"><ele>183.0</ele><time>2026-05-03T10:07:05.992Z</time></trkpt><trkpt lat="44.359323796042666" lon="11.623106450173582"><ele>186.0</ele><time>2026-05-03T10:07:06.992Z</time></trkpt><trkpt lat="44.35940595509568" lon="11.623033561098548"><ele>189.0</ele><time>2026-05-03T10:07:07.992Z</time></trkpt><trkpt lat="44.359491994414086" lon="11.622955645211078"><ele>192.0</ele><time>2026-05-03T10:07:08.992Z</time></trkpt><trkpt lat="44.35958283806368" lon="11.62288620076024"><ele>192.0</ele><time>2026-05-03T10:07:09.992Z</time></trkpt><trkpt lat="44.35968797304042" lon="11.622852691543432"><ele>192.0</ele><time>2026-05-03T10:07:10.992Z</time></trkpt><trkpt lat="44.35978328079091" lon="11.622810098116586"><ele>192.0</ele><time>2026-05-03T10:07:11.992Z</time></trkpt><trkpt lat="44.35988462946276" lon="11.622769154276803"><ele>192.0</ele><time>2026-05-03T10:07:12.992Z</time></trkpt><trkpt lat="44.35998003661173" lon="11.622736320068594"><ele>192.0</ele><time>2026-05-03T10:07:13.992Z</time></trkpt><trkpt lat="44.360070651680864" lon="11.62269697454665"><ele>194.2</ele><time>2026-05-03T10:07:14.992Z</time></trkpt><trkpt lat="44.36016506115548" lon="11.622666460418415"><ele>196.39999999999998</ele><time>2026-05-03T10:07:15.992Z</time></trkpt><trkpt lat="44.36026116151019" lon="11.622653872254839"><ele>198.60000000000002</ele><time>2026-05-03T10:07:16.992Z</time></trkpt><trkpt lat="44.360366175604895" lon="11.622672240412156"><ele>200.8</ele><time>2026-05-03T10:07:17.992Z</time></trkpt><trkpt lat="44.360463600378175" lon="11.622695358364215"><ele>203.0</ele><time>2026-05-03T10:07:18.992Z</time></trkpt><trkpt lat="44.36054433223687" lon="11.622721228444016"><ele>203.0</ele><time>2026-05-03T10:07:19.992Z</time></trkpt><trkpt lat="44.36062326344021" lon="11.62273714805917"><ele>203.0</ele><time>2026-05-03T10:07:20.992Z</time></trkpt><trkpt lat="44.36071071661869" lon="11.622769747277092"><ele>203.0</ele><time>2026-05-03T10:07:21.992Z</time></trkpt><trkpt lat="44.36080557035362" lon="11.622798197708939"><ele>203.0</ele><time>2026-05-03T10:07:22.992Z</time></trkpt><trkpt lat="44.36090649950651" lon="11.622841875377018"><ele>203.0</ele><time>2026-05-03T10:07:23.992Z</time></trkpt><trkpt lat="44.36100883911418" lon="11.622896857214414"><ele>203.0</ele><time>2026-05-03T10:07:24.992Z</time></trkpt><trkpt lat="44.36111599671638" lon="11.62294951378855"><ele>203.0</ele><time>2026-05-03T10:07:25.992Z</time></trkpt><trkpt lat="44.36122798745044" lon="11.623000044232233"><ele>203.0</ele><time>2026-05-03T10:07:26.992Z</time></trkpt><trkpt lat="44.36133984268894" lon="11.623043974299444"><ele>203.0</ele><time>2026-05-03T10:07:27.992Z</time></trkpt><trkpt lat="44.361457260150424" lon="11.623086531271763"><ele>201.25</ele><time>2026-05-03T10:07:28.992Z</time></trkpt><trkpt lat="44.36157413607053" lon="11.62315015037428"><ele>199.5</ele><time>2026-05-03T10:07:29.992Z</time></trkpt><trkpt lat="44.361687066389614" lon="11.62319033145213"><ele>197.75</ele><time>2026-05-03T10:07:30.992Z</time></trkpt><trkpt lat="44.36181128146597" lon="11.623234116601841"><ele>196.0</ele><time>2026-05-03T10:07:31.992Z</time></trkpt><trkpt lat="44.361922594422346" lon="11.623278630108318"><ele>196.0</ele><time>2026-05-03T10:07:32.992Z</time></trkpt><trkpt lat="44.36202683598943" lon="11.623324675422893"><ele>196.0</ele><time>2026-05-03T10:07:33.992Z</time></trkpt><trkpt lat="44.36213884688542" lon="11.623367670794613"><ele>196.0</ele><time>2026-05-03T10:07:34.992Z</time></trkpt><trkpt lat="44.36226107502301" lon="11.623413016732492"><ele>196.0</ele><time>2026-05-03T10:07:35.992Z</time></trkpt><trkpt lat="44.36237118093286" lon="11.623458784763171"><ele>194.0</ele><time>2026-05-03T10:07:36.992Z</time></trkpt><trkpt lat="44.362477801923056" lon="11.623503192609844"><ele>192.0</ele><time>2026-05-03T10:07:37.992Z</time></trkpt><trkpt lat="44.36257853019048" lon="11.62355122865676"><ele>190.0</ele><time>2026-05-03T10:07:38.992Z</time></trkpt><trkpt lat="44.36267830043614" lon="11.623604367775263"><ele>188.0</ele><time>2026-05-03T10:07:39.992Z</time></trkpt><trkpt lat="44.36277079055387" lon="11.623664807620067"><ele>186.0</ele><time>2026-05-03T10:07:40.992Z</time></trkpt><trkpt lat="44.36285572020078" lon="11.623758368110241"><ele>185.5</ele><time>2026-05-03T10:07:41.992Z</time></trkpt><trkpt lat="44.362944799157255" lon="11.623856798623217"><ele>185.0</ele><time>2026-05-03T10:07:42.992Z</time></trkpt><trkpt lat="44.363032148988445" lon="11.623952969418536"><ele>184.5</ele><time>2026-05-03T10:07:43.992Z</time></trkpt><trkpt lat="44.36312427435461" lon="11.624056077513854"><ele>184.0</ele><time>2026-05-03T10:07:44.992Z</time></trkpt><trkpt lat="44.36321752126321" lon="11.624155208200198"><ele>183.75</ele><time>2026-05-03T10:07:45.992Z</time></trkpt><trkpt lat="44.363312679796074" lon="11.624259893111795"><ele>183.5</ele><time>2026-05-03T10:07:46.992Z</time></trkpt><trkpt lat="44.363414021945026" lon="11.624365253766097"><ele>183.25</ele><time>2026-05-03T10:07:47.992Z</time></trkpt><trkpt lat="44.363508041702055" lon="11.62447210438877"><ele>183.0</ele><time>2026-05-03T10:07:48.992Z</time></trkpt><trkpt lat="44.363604883894524" lon="11.62457265819582"><ele>181.75</ele><time>2026-05-03T10:07:49.992Z</time></trkpt><trkpt lat="44.36371709693579" lon="11.624668506749648"><ele>180.5</ele><time>2026-05-03T10:07:50.992Z</time></trkpt><trkpt lat="44.36383071322995" lon="11.624749821154904"><ele>179.25</ele><time>2026-05-03T10:07:51.992Z</time></trkpt><trkpt lat="44.3639447181747" lon="11.62484527393293"><ele>178.0</ele><time>2026-05-03T10:07:52.992Z</time></trkpt><trkpt lat="44.36406243849137" lon="11.624918184929212"><ele>176.75</ele><time>2026-05-03T10:07:53.992Z</time></trkpt><trkpt lat="44.36418382996581" lon="11.624993369574758"><ele>175.5</ele><time>2026-05-03T10:07:54.992Z</time></trkpt><trkpt lat="44.36431302009124" lon="11.625046069024899"><ele>174.25</ele><time>2026-05-03T10:07:55.992Z</time></trkpt><trkpt lat="44.364424203375165" lon="11.625139174865975"><ele>173.0</ele><time>2026-05-03T10:07:56.992Z</time></trkpt><trkpt lat="44.36455119561744" lon="11.625203172042436"><ele>173.0</ele><time>2026-05-03T10:07:57.992Z</time></trkpt><trkpt lat="44.36467776171208" lon="11.625268639476946"><ele>173.0</ele><time>2026-05-03T10:07:58.992Z</time></trkpt><trkpt lat="44.36480562903112" lon="11.625328647201712"><ele>173.0</ele><time>2026-05-03T10:07:59.992Z</time></trkpt><trkpt lat="44.36493327018487" lon="11.625383720245285"><ele>173.0</ele><time>2026-05-03T10:08:00.992Z</time></trkpt><trkpt lat="44.36505489559288" lon="11.62543669505223"><ele>171.25</ele><time>2026-05-03T10:08:01.992Z</time></trkpt><trkpt lat="44.36517655086837" lon="11.62549958706999"><ele>169.5</ele><time>2026-05-03T10:08:02.992Z</time></trkpt><trkpt lat="44.36529741079301" lon="11.625543176381804"><ele>167.75</ele><time>2026-05-03T10:08:03.992Z</time></trkpt><trkpt lat="44.3654216141514" lon="11.625589364060055"><ele>166.0</ele><time>2026-05-03T10:08:04.992Z</time></trkpt><trkpt lat="44.36554732224833" lon="11.62563709935568"><ele>165.5</ele><time>2026-05-03T10:08:05.992Z</time></trkpt><trkpt lat="44.365664458056045" lon="11.625680269216067"><ele>165.0</ele><time>2026-05-03T10:08:06.992Z</time></trkpt><trkpt lat="44.365780357449275" lon="11.625716762742748"><ele>164.5</ele><time>2026-05-03T10:08:07.992Z</time></trkpt><trkpt lat="44.36589807041192" lon="11.625749800554006"><ele>164.0</ele><time>2026-05-03T10:08:08.992Z</time></trkpt><trkpt lat="44.366008153043936" lon="11.62578477940644"><ele>164.0</ele><time>2026-05-03T10:08:09.992Z</time></trkpt><trkpt lat="44.36611327264594" lon="11.625816962074989"><ele>164.0</ele><time>2026-05-03T10:08:10.992Z</time></trkpt><trkpt lat="44.36621323367598" lon="11.625851641717139"><ele>164.0</ele><time>2026-05-03T10:08:11.992Z</time></trkpt><trkpt lat="44.366310105594216" lon="11.625888496937899"><ele>164.0</ele><time>2026-05-03T10:08:12.992Z</time></trkpt><trkpt lat="44.3663927161149" lon="11.62591616071116"><ele>164.0</ele><time>2026-05-03T10:08:13.993Z</time></trkpt><trkpt lat="44.366462218327854" lon="11.625952799267361"><ele>159.0</ele><time>2026-05-03T10:08:14.993Z</time></trkpt><trkpt lat="44.366524066998956" lon="11.625996566226656"><ele>159.0</ele><time>2026-05-03T10:08:15.993Z</time></trkpt><trkpt lat="44.366616988191296" lon="11.626052369474515"><ele>159.0</ele><time>2026-05-03T10:08:17.993Z</time></trkpt><trkpt lat="44.36667772393152" lon="11.626091416838168"><ele>159.0</ele><time>2026-05-03T10:08:19.993Z</time></trkpt></trkseg><trkseg><trkpt lat="44.36679544183654" lon="11.626217741056308"><ele>160.0</ele><time>2026-05-03T10:24:56.001Z</time></trkpt><trkpt lat="44.36685352057957" lon="11.626305047596405"><ele>160.0</ele><time>2026-05-03T10:24:58.001Z</time></trkpt><trkpt lat="44.36693494824501" lon="11.626400553567576"><ele>160.0</ele><time>2026-05-03T10:25:00.001Z</time></trkpt><trkpt lat="44.36701536248053" lon="11.626525258126847"><ele>160.0</ele><time>2026-05-03T10:25:02.001Z</time></trkpt><trkpt lat="44.367059616464815" lon="11.626598985587842"><ele>160.0</ele><time>2026-05-03T10:25:03.001Z</time></trkpt><trkpt lat="44.36709987408879" lon="11.626677218881664"><ele>160.0</ele><time>2026-05-03T10:25:04.002Z</time></trkpt><trkpt lat="44.36713948985268" lon="11.626755966692231"><ele>160.0</ele><time>2026-05-03T10:25:05.002Z</time></trkpt><trkpt lat="44.36718487385688" lon="11.626847134526914"><ele>160.0</ele><time>2026-05-03T10:25:06.002Z</time></trkpt><trkpt lat="44.367231185984195" lon="11.626940944277477"><ele>160.0</ele><time>2026-05-03T10:25:07.002Z</time></trkpt><trkpt lat="44.36727892204403" lon="11.627035949757207"><ele>160.0</ele><time>2026-05-03T10:25:08.002Z</time></trkpt><trkpt lat="44.36732780983078" lon="11.627130420383143"><ele>160.0</ele><time>2026-05-03T10:25:09.002Z</time></trkpt><trkpt lat="44.36737807344116" lon="11.627233872285188"><ele>160.0</ele><time>2026-05-03T10:25:10.002Z</time></trkpt><trkpt lat="44.36743031338667" lon="11.627335473727634"><ele>158.6</ele><time>2026-05-03T10:25:11.002Z</time></trkpt><trkpt lat="44.367486307161485" lon="11.627441635806104"><ele>157.2</ele><time>2026-05-03T10:25:12.002Z</time></trkpt><trkpt lat="44.367544966931725" lon="11.627552794622163"><ele>155.8</ele><time>2026-05-03T10:25:13Z</time></trkpt><trkpt lat="44.36760129904036" lon="11.627676097708967"><ele>154.4</ele><time>2026-05-03T10:25:14Z</time></trkpt><trkpt lat="44.367657072665466" lon="11.62780487600247"><ele>153.0</ele><time>2026-05-03T10:25:15Z</time></trkpt><trkpt lat="44.36770959750987" lon="11.627936004595204"><ele>151.0</ele><time>2026-05-03T10:25:16Z</time></trkpt><trkpt lat="44.367764524061315" lon="11.628069367086253"><ele>149.0</ele><time>2026-05-03T10:25:17Z</time></trkpt><trkpt lat="44.36782009030455" lon="11.628209851111798"><ele>147.0</ele><time>2026-05-03T10:25:18Z</time></trkpt><trkpt lat="44.367880071428665" lon="11.628347491975225"><ele>145.0</ele><time>2026-05-03T10:25:19Z</time></trkpt><trkpt lat="44.36794400378049" lon="11.628488844437953"><ele>145.0</ele><time>2026-05-03T10:25:20Z</time></trkpt><trkpt lat="44.3680118384786" lon="11.628631437790176"><ele>145.0</ele><time>2026-05-03T10:25:21Z</time></trkpt><trkpt lat="44.36808885026193" lon="11.628776374426597"><ele>145.0</ele><time>2026-05-03T10:25:22Z</time></trkpt><trkpt lat="44.368172839655244" lon="11.628909857287933"><ele>145.0</ele><time>2026-05-03T10:25:23Z</time></trkpt><trkpt lat="44.36826221941538" lon="11.629038798221806"><ele>143.5</ele><time>2026-05-03T10:25:24Z</time></trkpt><trkpt lat="44.368354963126706" lon="11.629174009388876"><ele>142.0</ele><time>2026-05-03T10:25:25Z</time></trkpt><trkpt lat="44.368451430697206" lon="11.62929644919864"><ele>140.5</ele><time>2026-05-03T10:25:26Z</time></trkpt><trkpt lat="44.368555538917235" lon="11.629408897634333"><ele>139.0</ele><time>2026-05-03T10:25:27Z</time></trkpt><trkpt lat="44.36865363098817" lon="11.629520130904274"><ele>138.75</ele><time>2026-05-03T10:25:28Z</time></trkpt><trkpt lat="44.36875333650127" lon="11.629635162595582"><ele>138.5</ele><time>2026-05-03T10:25:29Z</time></trkpt><trkpt lat="44.368853984297644" lon="11.629746288777069"><ele>138.25</ele><time>2026-05-03T10:25:30Z</time></trkpt><trkpt lat="44.36895404104392" lon="11.62985365048473"><ele>138.0</ele><time>2026-05-03T10:25:31Z</time></trkpt><trkpt lat="44.36905927841464" lon="11.629957833051106"><ele>137.0</ele><time>2026-05-03T10:25:32Z</time></trkpt><trkpt lat="44.369170045020226" lon="11.630048653059859"><ele>136.0</ele><time>2026-05-03T10:25:33Z</time></trkpt><trkpt lat="44.36929731995851" lon="11.630121800682817"><ele>135.0</ele><time>2026-05-03T10:25:34Z</time></trkpt><trkpt lat="44.3694335959232" lon="11.630186739195464"><ele>134.0</ele><time>2026-05-03T10:25:35Z</time></trkpt><trkpt lat="44.36957403878951" lon="11.630249800082739"><ele>132.5</ele><time>2026-05-03T10:25:36Z</time></trkpt><trkpt lat="44.36971090967449" lon="11.630306308645338"><ele>131.0</ele><time>2026-05-03T10:25:37Z</time></trkpt><trkpt lat="44.36984689339517" lon="11.63035546722677"><ele>129.5</ele><time>2026-05-03T10:25:38Z</time></trkpt><trkpt lat="44.36998192406943" lon="11.630403059273194"><ele>128.0</ele><time>2026-05-03T10:25:39Z</time></trkpt><trkpt lat="44.370114346453576" lon="11.630453075947306"><ele>128.0</ele><time>2026-05-03T10:25:40Z</time></trkpt><trkpt lat="44.37024272274538" lon="11.630492948542921"><ele>128.0</ele><time>2026-05-03T10:25:41Z</time></trkpt><trkpt lat="44.37037508925775" lon="11.630516937892057"><ele>128.0</ele><time>2026-05-03T10:25:42Z</time></trkpt><trkpt lat="44.370506571571134" lon="11.630526857709562"><ele>128.0</ele><time>2026-05-03T10:25:43Z</time></trkpt><trkpt lat="44.37063675759641" lon="11.630527079406084"><ele>129.25</ele><time>2026-05-03T10:25:44Z</time></trkpt><trkpt lat="44.3707719439755" lon="11.6305296672475"><ele>130.5</ele><time>2026-05-03T10:25:45Z</time></trkpt><trkpt lat="44.37091687970791" lon="11.630531910679442"><ele>131.75</ele><time>2026-05-03T10:25:46Z</time></trkpt><trkpt lat="44.37107205278511" lon="11.630536781420432"><ele>133.0</ele><time>2026-05-03T10:25:47Z</time></trkpt><trkpt lat="44.371223984571024" lon="11.6305413181"><ele>131.25</ele><time>2026-05-03T10:25:48Z</time></trkpt><trkpt lat="44.37137137175184" lon="11.630531388750944"><ele>129.5</ele><time>2026-05-03T10:25:49Z</time></trkpt><trkpt lat="44.371521208220166" lon="11.630524305692767"><ele>127.75</ele><time>2026-05-03T10:25:50Z</time></trkpt><trkpt lat="44.37166885904109" lon="11.630512637428243"><ele>126.0</ele><time>2026-05-03T10:25:51Z</time></trkpt><trkpt lat="44.37180860951598" lon="11.630520074170414"><ele>126.0</ele><time>2026-05-03T10:25:52Z</time></trkpt><trkpt lat="44.37195163819127" lon="11.630514162979756"><ele>126.0</ele><time>2026-05-03T10:25:53Z</time></trkpt><trkpt lat="44.372088378854244" lon="11.630504233647398"><ele>126.0</ele><time>2026-05-03T10:25:54Z</time></trkpt><trkpt lat="44.37221744760746" lon="11.63050832919548"><ele>126.0</ele><time>2026-05-03T10:25:55Z</time></trkpt><trkpt lat="44.37234601137924" lon="11.630538303036017"><ele>125.0</ele><time>2026-05-03T10:25:56Z</time></trkpt><trkpt lat="44.37245363706463" lon="11.630611146502673"><ele>124.0</ele><time>2026-05-03T10:25:57Z</time></trkpt><trkpt lat="44.37254776909315" lon="11.630698271613591"><ele>123.0</ele><time>2026-05-03T10:25:58Z</time></trkpt><trkpt lat="44.37265671057884" lon="11.630798033968802"><ele>122.0</ele><time>2026-05-03T10:25:59Z</time></trkpt><trkpt lat="44.372751751617066" lon="11.630898605475089"><ele>122.0</ele><time>2026-05-03T10:26:00Z</time></trkpt><trkpt lat="44.37284490898713" lon="11.631007177000345"><ele>122.0</ele><time>2026-05-03T10:26:01Z</time></trkpt><trkpt lat="44.372944562946046" lon="11.631124284801325"><ele>122.0</ele><time>2026-05-03T10:26:02Z</time></trkpt><trkpt lat="44.373058781343076" lon="11.631227216882058"><ele>122.0</ele><time>2026-05-03T10:26:03Z</time></trkpt><trkpt lat="44.37317111610542" lon="11.631320289459254"><ele>120.25</ele><time>2026-05-03T10:26:04Z</time></trkpt><trkpt lat="44.37328907149384" lon="11.631394602945548"><ele>118.5</ele><time>2026-05-03T10:26:05Z</time></trkpt><trkpt lat="44.3734103475128" lon="11.631457736595664"><ele>116.75</ele><time>2026-05-03T10:26:06Z</time></trkpt><trkpt lat="44.373545041147956" lon="11.631521017555793"><ele>115.0</ele><time>2026-05-03T10:26:07.001Z</time></trkpt><trkpt lat="44.37367909260578" lon="11.631581910766865"><ele>115.0</ele><time>2026-05-03T10:26:08.001Z</time></trkpt><trkpt lat="44.37381214410052" lon="11.631653241162747"><ele>115.0</ele><time>2026-05-03T10:26:09.001Z</time></trkpt><trkpt lat="44.373943265492656" lon="11.63173442763268"><ele>115.0</ele><time>2026-05-03T10:26:10.001Z</time></trkpt><trkpt lat="44.374068073142226" lon="11.631818691681453"><ele>115.0</ele><time>2026-05-03T10:26:11.001Z</time></trkpt><trkpt lat="44.37420208337795" lon="11.631902380087"><ele>112.25</ele><time>2026-05-03T10:26:12.001Z</time></trkpt><trkpt lat="44.37433372378291" lon="11.631990373561488"><ele>109.5</ele><time>2026-05-03T10:26:13.001Z</time></trkpt><trkpt lat="44.374474285022664" lon="11.632082239326413"><ele>106.75</ele><time>2026-05-03T10:26:14.001Z</time></trkpt><trkpt lat="44.37460661381817" lon="11.632174115988402"><ele>104.0</ele><time>2026-05-03T10:26:15.001Z</time></trkpt><trkpt lat="44.37474009621968" lon="11.632268677764294"><ele>103.25</ele><time>2026-05-03T10:26:16.001Z</time></trkpt><trkpt lat="44.37487587447949" lon="11.632369730085697"><ele>102.5</ele><time>2026-05-03T10:26:17.001Z</time></trkpt><trkpt lat="44.375002063679524" lon="11.632458807363854"><ele>101.75</ele><time>2026-05-03T10:26:18.001Z</time></trkpt><trkpt lat="44.375117062445106" lon="11.63254538243041"><ele>101.0</ele><time>2026-05-03T10:26:19.001Z</time></trkpt><trkpt lat="44.37522014828729" lon="11.632624709791422"><ele>101.0</ele><time>2026-05-03T10:26:20.001Z</time></trkpt><trkpt lat="44.375316178545184" lon="11.632724848065504"><ele>101.0</ele><time>2026-05-03T10:26:21.001Z</time></trkpt><trkpt lat="44.375402036218844" lon="11.632841222111873"><ele>101.0</ele><time>2026-05-03T10:26:22.001Z</time></trkpt><trkpt lat="44.375474923446404" lon="11.632978430633187"><ele>101.0</ele><time>2026-05-03T10:26:23.001Z</time></trkpt><trkpt lat="44.375551123547126" lon="11.63312300457054"><ele>98.75</ele><time>2026-05-03T10:26:24.001Z</time></trkpt><trkpt lat="44.37562327616444" lon="11.633269247095422"><ele>96.5</ele><time>2026-05-03T10:26:25.001Z</time></trkpt><trkpt lat="44.37569547152878" lon="11.633424528240388"><ele>94.25</ele><time>2026-05-03T10:26:26.001Z</time></trkpt><trkpt lat="44.37576534306599" lon="11.633577269714102"><ele>92.0</ele><time>2026-05-03T10:26:27.001Z</time></trkpt><trkpt lat="44.37584324893104" lon="11.63373025842595"><ele>91.75</ele><time>2026-05-03T10:26:28.001Z</time></trkpt><trkpt lat="44.37591601467935" lon="11.633882665573903"><ele>91.5</ele><time>2026-05-03T10:26:29.001Z</time></trkpt><trkpt lat="44.37598794063685" lon="11.63404428580485"><ele>91.25</ele><time>2026-05-03T10:26:30.001Z</time></trkpt><trkpt lat="44.37606534194693" lon="11.63420636440358"><ele>91.0</ele><time>2026-05-03T10:26:31.001Z</time></trkpt><trkpt lat="44.376140131971276" lon="11.634367113607297"><ele>90.25</ele><time>2026-05-03T10:26:32.001Z</time></trkpt><trkpt lat="44.37621431819032" lon="11.634528654033879"><ele>89.5</ele><time>2026-05-03T10:26:33.001Z</time></trkpt><trkpt lat="44.376291463728634" lon="11.634693217553028"><ele>88.75</ele><time>2026-05-03T10:26:34.001Z</time></trkpt><trkpt lat="44.37637475084919" lon="11.634847219060738"><ele>88.0</ele><time>2026-05-03T10:26:35.001Z</time></trkpt><trkpt lat="44.376474618065984" lon="11.634993669140146"><ele>87.75</ele><time>2026-05-03T10:26:36.001Z</time></trkpt><trkpt lat="44.376579743599564" lon="11.635137392854569"><ele>87.5</ele><time>2026-05-03T10:26:37.001Z</time></trkpt><trkpt lat="44.37667923890631" lon="11.635266515186725"><ele>87.25</ele><time>2026-05-03T10:26:38.001Z</time></trkpt><trkpt lat="44.37678639781112" lon="11.635410537595424"><ele>87.0</ele><time>2026-05-03T10:26:39.001Z</time></trkpt><trkpt lat="44.37689161311937" lon="11.635551973382302"><ele>86.75</ele><time>2026-05-03T10:26:40.001Z</time></trkpt><trkpt lat="44.37700031149246" lon="11.635695176316256"><ele>86.5</ele><time>2026-05-03T10:26:41.001Z</time></trkpt><trkpt lat="44.37710698193597" lon="11.635833154936233"><ele>86.25</ele><time>2026-05-03T10:26:42.001Z</time></trkpt><trkpt lat="44.37721476207423" lon="11.635972539296002"><ele>86.0</ele><time>2026-05-03T10:26:43.001Z</time></trkpt><trkpt lat="44.37731378581954" lon="11.636114729592025"><ele>85.0</ele><time>2026-05-03T10:26:44.001Z</time></trkpt><trkpt lat="44.37740832649109" lon="11.636261241492171"><ele>84.0</ele><time>2026-05-03T10:26:45.001Z</time></trkpt><trkpt lat="44.37750693278318" lon="11.636410852671553"><ele>83.0</ele><time>2026-05-03T10:26:46.001Z</time></trkpt><trkpt lat="44.377607055319935" lon="11.63655589266998"><ele>82.0</ele><time>2026-05-03T10:26:47.001Z</time></trkpt><trkpt lat="44.37770858364344" lon="11.636695207608087"><ele>82.0</ele><time>2026-05-03T10:26:48.001Z</time></trkpt><trkpt lat="44.37781131408598" lon="11.636815271272857"><ele>82.0</ele><time>2026-05-03T10:26:49.001Z</time></trkpt><trkpt lat="44.377915576434546" lon="11.63692592112271"><ele>82.0</ele><time>2026-05-03T10:26:50.001Z</time></trkpt><trkpt lat="44.37801705520764" lon="11.637026693909489"><ele>82.0</ele><time>2026-05-03T10:26:51.001Z</time></trkpt><trkpt lat="44.378121030419344" lon="11.637127839323906"><ele>80.25</ele><time>2026-05-03T10:26:52.001Z</time></trkpt><trkpt lat="44.378219747112176" lon="11.637229336244724"><ele>78.5</ele><time>2026-05-03T10:26:53.001Z</time></trkpt><trkpt lat="44.37832526936706" lon="11.637328964414968"><ele>76.75</ele><time>2026-05-03T10:26:54.001Z</time></trkpt><trkpt lat="44.378432978923804" lon="11.637422872730893"><ele>75.0</ele><time>2026-05-03T10:26:55.001Z</time></trkpt><trkpt lat="44.378531759993024" lon="11.637496877118394"><ele>75.0</ele><time>2026-05-03T10:26:56.001Z</time></trkpt><trkpt lat="44.37862357895709" lon="11.63755399064316"><ele>75.0</ele><time>2026-05-03T10:26:57.001Z</time></trkpt><trkpt lat="44.37871694896325" lon="11.637614200358872"><ele>75.0</ele><time>2026-05-03T10:26:58.001Z</time></trkpt><trkpt lat="44.37881350608117" lon="11.637679459230837"><ele>75.0</ele><time>2026-05-03T10:26:59.001Z</time></trkpt><trkpt lat="44.378913112779045" lon="11.637744980302541"><ele>75.0</ele><time>2026-05-03T10:27:00.001Z</time></trkpt><trkpt lat="44.37901724432754" lon="11.637817729472012"><ele>74.5</ele><time>2026-05-03T10:27:01.001Z</time></trkpt><trkpt lat="44.37911986533325" lon="11.637886067251088"><ele>74.0</ele><time>2026-05-03T10:27:02.001Z</time></trkpt><trkpt lat="44.37922890952197" lon="11.63795659670816"><ele>73.5</ele><time>2026-05-03T10:27:03.001Z</time></trkpt><trkpt lat="44.379341092217594" lon="11.638030852450948"><ele>73.0</ele><time>2026-05-03T10:27:04.001Z</time></trkpt><trkpt lat="44.37944369066144" lon="11.638103733359717"><ele>73.0</ele><time>2026-05-03T10:27:05.001Z</time></trkpt><trkpt lat="44.37953151921723" lon="11.638167343029416"><ele>73.0</ele><time>2026-05-03T10:27:06.001Z</time></trkpt><trkpt lat="44.379608883108894" lon="11.638226635230549"><ele>73.0</ele><time>2026-05-03T10:27:07.001Z</time></trkpt><trkpt lat="44.379682150647135" lon="11.63827758645958"><ele>73.0</ele><time>2026-05-03T10:27:08.001Z</time></trkpt><trkpt lat="44.37976116104308" lon="11.638335207319754"><ele>73.0</ele><time>2026-05-03T10:27:09.001Z</time></trkpt><trkpt lat="44.379826943374944" lon="11.63839523035507"><ele>73.0</ele><time>2026-05-03T10:27:10.002Z</time></trkpt><trkpt lat="44.379892310337155" lon="11.638455281843878"><ele>72.66666666666666</ele><time>2026-05-03T10:27:11.002Z</time></trkpt><trkpt lat="44.37997897500229" lon="11.638539728519367"><ele>72.33333333333333</ele><time>2026-05-03T10:27:13.002Z</time></trkpt><trkpt lat="44.38004195008678" lon="11.6385979557628"><ele>72.0</ele><time>2026-05-03T10:27:15.002Z</time></trkpt><trkpt lat="44.38010155357065" lon="11.638655563018407"><ele>71.66666666666667</ele><time>2026-05-03T10:27:17.002Z</time></trkpt><trkpt lat="44.38017090847853" lon="11.638710053786143"><ele>71.33333333333334</ele><time>2026-05-03T10:27:18.999Z</time></trkpt><trkpt lat="44.38025964661374" lon="11.63879177960823"><ele>71.0</ele><time>2026-05-03T10:27:20.999Z</time></trkpt><trkpt lat="44.38032231040014" lon="11.638839631257628"><ele>71.0</ele><time>2026-05-03T10:27:21.999Z</time></trkpt><trkpt lat="44.38038610258738" lon="11.638890582192106"><ele>71.0</ele><time>2026-05-03T10:27:22.999Z</time></trkpt><trkpt lat="44.380458947289135" lon="11.638951040919927"><ele>71.0</ele><time>2026-05-03T10:27:23.999Z</time></trkpt><trkpt lat="44.38052552098547" lon="11.639015092938523"><ele>71.0</ele><time>2026-05-03T10:27:24.999Z</time></trkpt><trkpt lat="44.38059811996988" lon="11.639073177073527"><ele>71.0</ele><time>2026-05-03T10:27:25.999Z</time></trkpt><trkpt lat="44.38067128643852" lon="11.639126169202713"><ele>71.0</ele><time>2026-05-03T10:27:26.999Z</time></trkpt><trkpt lat="44.38074610219438" lon="11.639188763095799"><ele>70.8</ele><time>2026-05-03T10:27:27.999Z</time></trkpt><trkpt lat="44.380823902421675" lon="11.639255015561307"><ele>70.6</ele><time>2026-05-03T10:27:28.999Z</time></trkpt><trkpt lat="44.38090135088419" lon="11.639319521924193"><ele>70.4</ele><time>2026-05-03T10:27:29.999Z</time></trkpt><trkpt lat="44.38098082211119" lon="11.63939745655997"><ele>70.2</ele><time>2026-05-03T10:27:30.999Z</time></trkpt><trkpt lat="44.38105973378564" lon="11.639475670764545"><ele>70.0</ele><time>2026-05-03T10:27:31.999Z</time></trkpt><trkpt lat="44.381138271009235" lon="11.639559895929342"><ele>70.0</ele><time>2026-05-03T10:27:32.999Z</time></trkpt><trkpt lat="44.38122534326228" lon="11.639639793631057"><ele>70.0</ele><time>2026-05-03T10:27:33.999Z</time></trkpt><trkpt lat="44.38131335092724" lon="11.639715126248047"><ele>70.0</ele><time>2026-05-03T10:27:34.999Z</time></trkpt><trkpt lat="44.381400998421675" lon="11.639788411097628"><ele>70.0</ele><time>2026-05-03T10:27:35.999Z</time></trkpt><trkpt lat="44.38147664763017" lon="11.639857337000386"><ele>70.0</ele><time>2026-05-03T10:27:36.999Z</time></trkpt><trkpt lat="44.38154650098613" lon="11.639923580123872"><ele>70.0</ele><time>2026-05-03T10:27:37.999Z</time></trkpt><trkpt lat="44.38161313303094" lon="11.639982463528488"><ele>70.0</ele><time>2026-05-03T10:27:38.999Z</time></trkpt><trkpt lat="44.38167228157675" lon="11.640032408998156"><ele>70.0</ele><time>2026-05-03T10:27:39.999Z</time></trkpt><trkpt lat="44.38174263786607" lon="11.640109237882681"><ele>70.0</ele><time>2026-05-03T10:27:41.999Z</time></trkpt><trkpt lat="44.381770526490584" lon="11.64019881226856"><ele>70.0</ele><time>2026-05-03T10:27:49Z</time></trkpt><trkpt lat="44.38183232685693" lon="11.640280283271867"><ele>70.0</ele><time>2026-05-03T10:28:23Z</time></trkpt><trkpt lat="44.381884313707324" lon="11.640345021461965"><ele>69.83333333333333</ele><time>2026-05-03T10:28:25Z</time></trkpt><trkpt lat="44.38194041735052" lon="11.640459097078994"><ele>69.66666666666666</ele><time>2026-05-03T10:28:27Z</time></trkpt><trkpt lat="44.38204150789123" lon="11.640527930046606"><ele>69.5</ele><time>2026-05-03T10:28:29Z</time></trkpt><trkpt lat="44.38210567475583" lon="11.640564494434157"><ele>69.33333333333333</ele><time>2026-05-03T10:28:30Z</time></trkpt><trkpt lat="44.38218177567696" lon="11.640593626262632"><ele>69.16666666666667</ele><time>2026-05-03T10:28:31Z</time></trkpt><trkpt lat="44.3822631872338" lon="11.640608793104624"><ele>69.0</ele><time>2026-05-03T10:28:32Z</time></trkpt><trkpt lat="44.38234882984218" lon="11.640636640495329"><ele>68.60000000000001</ele><time>2026-05-03T10:28:33Z</time></trkpt><trkpt lat="44.38242754592315" lon="11.640679767538652"><ele>68.2</ele><time>2026-05-03T10:28:34Z</time></trkpt><trkpt lat="44.38251007025942" lon="11.640739822878768"><ele>67.80000000000001</ele><time>2026-05-03T10:28:35Z</time></trkpt><trkpt lat="44.382600694939725" lon="11.640824260054188"><ele>67.4</ele><time>2026-05-03T10:28:36Z</time></trkpt><trkpt lat="44.3826976207556" lon="11.640902727608289"><ele>67.0</ele><time>2026-05-03T10:28:37Z</time></trkpt><trkpt lat="44.382792092721374" lon="11.640970317336349"><ele>67.0</ele><time>2026-05-03T10:28:38.001Z</time></trkpt><trkpt lat="44.38288687706682" lon="11.641038085072534"><ele>67.0</ele><time>2026-05-03T10:28:39.001Z</time></trkpt><trkpt lat="44.38298477695145" lon="11.641111988361834"><ele>67.0</ele><time>2026-05-03T10:28:40.001Z</time></trkpt><trkpt lat="44.38308732602888" lon="11.64118541748969"><ele>67.0</ele><time>2026-05-03T10:28:41.001Z</time></trkpt><trkpt lat="44.3831888901716" lon="11.641265624662369"><ele>67.0</ele><time>2026-05-03T10:28:42.001Z</time></trkpt><trkpt lat="44.38328853097726" lon="11.641355752018839"><ele>66.5</ele><time>2026-05-03T10:28:43.001Z</time></trkpt><trkpt lat="44.38339410054742" lon="11.641454159362286"><ele>66.0</ele><time>2026-05-03T10:28:44.001Z</time></trkpt><trkpt lat="44.383493038286424" lon="11.641563046243869"><ele>65.5</ele><time>2026-05-03T10:28:45.001Z</time></trkpt><trkpt lat="44.38358866351484" lon="11.64167811571253"><ele>65.0</ele><time>2026-05-03T10:28:46.001Z</time></trkpt><trkpt lat="44.3836896720714" lon="11.641798918865089"><ele>65.0</ele><time>2026-05-03T10:28:47.001Z</time></trkpt><trkpt lat="44.38379514193679" lon="11.641912213951352"><ele>65.0</ele><time>2026-05-03T10:28:48.001Z</time></trkpt><trkpt lat="44.383907506513665" lon="11.6420351797729"><ele>65.0</ele><time>2026-05-03T10:28:49.001Z</time></trkpt><trkpt lat="44.384017846624985" lon="11.642151851146592"><ele>65.0</ele><time>2026-05-03T10:28:50.001Z</time></trkpt><trkpt lat="44.38412386551865" lon="11.642268692729548"><ele>65.25</ele><time>2026-05-03T10:28:51.001Z</time></trkpt><trkpt lat="44.38423564320195" lon="11.642393114066602"><ele>65.5</ele><time>2026-05-03T10:28:52.001Z</time></trkpt><trkpt lat="44.38435029184718" lon="11.642512042581837"><ele>65.75</ele><time>2026-05-03T10:28:53.001Z</time></trkpt><trkpt lat="44.384455314518334" lon="11.642635630849258"><ele>66.0</ele><time>2026-05-03T10:28:54.001Z</time></trkpt><trkpt lat="44.38456020504497" lon="11.642759694219876"><ele>66.25</ele><time>2026-05-03T10:28:55.001Z</time></trkpt><trkpt lat="44.38466591625415" lon="11.642875243531885"><ele>66.5</ele><time>2026-05-03T10:28:56.001Z</time></trkpt><trkpt lat="44.38477164901899" lon="11.642987430101945"><ele>66.75</ele><time>2026-05-03T10:28:57.001Z</time></trkpt><trkpt lat="44.38485966551796" lon="11.643145705206814"><ele>67.0</ele><time>2026-05-03T10:28:58.001Z</time></trkpt><trkpt lat="44.3849695864382" lon="11.643247010255555"><ele>67.0</ele><time>2026-05-03T10:28:59.001Z</time></trkpt><trkpt lat="44.38509232684238" lon="11.643334140686402"><ele>67.0</ele><time>2026-05-03T10:29:00.001Z</time></trkpt><trkpt lat="44.38521874414673" lon="11.643409202059827"><ele>67.0</ele><time>2026-05-03T10:29:01.001Z</time></trkpt><trkpt lat="44.38534955657565" lon="11.643478837445764"><ele>67.0</ele><time>2026-05-03T10:29:02.001Z</time></trkpt><trkpt lat="44.38548637198707" lon="11.643559325170097"><ele>65.75</ele><time>2026-05-03T10:29:03.001Z</time></trkpt><trkpt lat="44.38561892232627" lon="11.643631801463762"><ele>64.5</ele><time>2026-05-03T10:29:04.001Z</time></trkpt><trkpt lat="44.38575281381192" lon="11.643720977343678"><ele>63.25</ele><time>2026-05-03T10:29:05.001Z</time></trkpt><trkpt lat="44.385886770981195" lon="11.643806416832831"><ele>62.0</ele><time>2026-05-03T10:29:06.001Z</time></trkpt><trkpt lat="44.38602054990713" lon="11.643896135320118"><ele>62.0</ele><time>2026-05-03T10:29:07.001Z</time></trkpt><trkpt lat="44.38615288076006" lon="11.64398609334892"><ele>62.0</ele><time>2026-05-03T10:29:08.001Z</time></trkpt><trkpt lat="44.38628897869118" lon="11.6440795599699"><ele>62.0</ele><time>2026-05-03T10:29:09.001Z</time></trkpt><trkpt lat="44.38641886838109" lon="11.644176304158202"><ele>62.0</ele><time>2026-05-03T10:29:10.001Z</time></trkpt><trkpt lat="44.386554141145744" lon="11.644279816594041"><ele>61.333333333333336</ele><time>2026-05-03T10:29:11.001Z</time></trkpt><trkpt lat="44.38669554671552" lon="11.644387795312612"><ele>60.66666666666667</ele><time>2026-05-03T10:29:12.001Z</time></trkpt><trkpt lat="44.38682981858791" lon="11.644495536856084"><ele>60.0</ele><time>2026-05-03T10:29:13.001Z</time></trkpt><trkpt lat="44.386969195421955" lon="11.644598984058845"><ele>59.66666666666667</ele><time>2026-05-03T10:29:14.001Z</time></trkpt><trkpt lat="44.38711286278406" lon="11.644700439955379"><ele>59.333333333333336</ele><time>2026-05-03T10:29:15.001Z</time></trkpt><trkpt lat="44.387259962980245" lon="11.644798626931388"><ele>59.0</ele><time>2026-05-03T10:29:16.001Z</time></trkpt><trkpt lat="44.387413855583084" lon="11.644889529483107"><ele>59.0</ele><time>2026-05-03T10:29:17.001Z</time></trkpt><trkpt lat="44.38756823475943" lon="11.64498070714527"><ele>59.0</ele><time>2026-05-03T10:29:18.001Z</time></trkpt><trkpt lat="44.387726327323655" lon="11.645067148403971"><ele>59.0</ele><time>2026-05-03T10:29:19.001Z</time></trkpt><trkpt lat="44.387882754401254" lon="11.645158994912967"><ele>59.0</ele><time>2026-05-03T10:29:20.001Z</time></trkpt><trkpt lat="44.38804834244537" lon="11.645246913221577"><ele>59.0</ele><time>2026-05-03T10:29:21.001Z</time></trkpt><trkpt lat="44.388209504512155" lon="11.645327060187354"><ele>59.0</ele><time>2026-05-03T10:29:22.001Z</time></trkpt><trkpt lat="44.38837566136392" lon="11.645415196363567"><ele>59.0</ele><time>2026-05-03T10:29:23.001Z</time></trkpt><trkpt lat="44.388539153802604" lon="11.645500278074335"><ele>59.0</ele><time>2026-05-03T10:29:24.001Z</time></trkpt><trkpt lat="44.388703622432665" lon="11.645581007928952"><ele>59.0</ele><time>2026-05-03T10:29:24.999Z</time></trkpt><trkpt lat="44.388870277481125" lon="11.645666154302944"><ele>59.333333333333336</ele><time>2026-05-03T10:29:25.999Z</time></trkpt><trkpt lat="44.38903771706834" lon="11.645742159045831"><ele>59.66666666666667</ele><time>2026-05-03T10:29:26.999Z</time></trkpt><trkpt lat="44.3892082868283" lon="11.645822925581227"><ele>60.0</ele><time>2026-05-03T10:29:27.999Z</time></trkpt><trkpt lat="44.38938279191635" lon="11.64589701401928"><ele>60.0</ele><time>2026-05-03T10:29:28.999Z</time></trkpt><trkpt lat="44.38956366484033" lon="11.64596480846399"><ele>60.0</ele><time>2026-05-03T10:29:29.999Z</time></trkpt><trkpt lat="44.389738375920395" lon="11.646050994139584"><ele>60.0</ele><time>2026-05-03T10:29:30.999Z</time></trkpt><trkpt lat="44.3899179677356" lon="11.646107797892565"><ele>59.0</ele><time>2026-05-03T10:29:31.999Z</time></trkpt><trkpt lat="44.39010223686341" lon="11.646138025622102"><ele>58.0</ele><time>2026-05-03T10:29:32.999Z</time></trkpt><trkpt lat="44.39028054314914" lon="11.64618813833858"><ele>57.0</ele><time>2026-05-03T10:29:33.999Z</time></trkpt><trkpt lat="44.39045991656491" lon="11.64622822668309"><ele>56.66666666666667</ele><time>2026-05-03T10:29:34.999Z</time></trkpt><trkpt lat="44.390641339063464" lon="11.64626733448421"><ele>56.333333333333336</ele><time>2026-05-03T10:29:35.999Z</time></trkpt><trkpt lat="44.39081994751133" lon="11.646312070816926"><ele>56.0</ele><time>2026-05-03T10:29:36.999Z</time></trkpt><trkpt lat="44.39099816753818" lon="11.646352257288603"><ele>56.0</ele><time>2026-05-03T10:29:37.999Z</time></trkpt><trkpt lat="44.39118036858408" lon="11.646392323821448"><ele>56.0</ele><time>2026-05-03T10:29:38.999Z</time></trkpt><trkpt lat="44.391363032192224" lon="11.646434429893976"><ele>56.0</ele><time>2026-05-03T10:29:39.999Z</time></trkpt><trkpt lat="44.39154290548589" lon="11.646480416959214"><ele>56.0</ele><time>2026-05-03T10:29:40.999Z</time></trkpt><trkpt lat="44.39172331834317" lon="11.646523531862439"><ele>56.0</ele><time>2026-05-03T10:29:41.999Z</time></trkpt><trkpt lat="44.39190197547774" lon="11.64657279490675"><ele>56.0</ele><time>2026-05-03T10:29:42.999Z</time></trkpt><trkpt lat="44.39207913773861" lon="11.646615872407503"><ele>55.333333333333336</ele><time>2026-05-03T10:29:43.999Z</time></trkpt><trkpt lat="44.392262210447484" lon="11.646661336459713"><ele>54.66666666666667</ele><time>2026-05-03T10:29:44.999Z</time></trkpt><trkpt lat="44.392446559901735" lon="11.64671118704534"><ele>54.0</ele><time>2026-05-03T10:29:45.999Z</time></trkpt><trkpt lat="44.392623849914486" lon="11.646769698541467"><ele>54.0</ele><time>2026-05-03T10:29:46.999Z</time></trkpt><trkpt lat="44.392805485756384" lon="11.646848361552196"><ele>54.0</ele><time>2026-05-03T10:29:47.999Z</time></trkpt><trkpt lat="44.392975952144425" lon="11.646940670730324"><ele>54.0</ele><time>2026-05-03T10:29:48.999Z</time></trkpt><trkpt lat="44.393148353449796" lon="11.647040084029657"><ele>54.0</ele><time>2026-05-03T10:29:49.999Z</time></trkpt><trkpt lat="44.39331171428663" lon="11.647149825564718"><ele>54.0</ele><time>2026-05-03T10:29:50.999Z</time></trkpt><trkpt lat="44.39347520361762" lon="11.647261313458264"><ele>54.0</ele><time>2026-05-03T10:29:51.999Z</time></trkpt><trkpt lat="44.39364793155896" lon="11.647376832661667"><ele>54.0</ele><time>2026-05-03T10:29:52.999Z</time></trkpt><trkpt lat="44.39382378762741" lon="11.64749717419433"><ele>54.0</ele><time>2026-05-03T10:29:53.999Z</time></trkpt><trkpt lat="44.39398734821367" lon="11.647621419003052"><ele>54.0</ele><time>2026-05-03T10:29:54.999Z</time></trkpt><trkpt lat="44.394153658881564" lon="11.647744498664654"><ele>53.66666666666667</ele><time>2026-05-03T10:29:55.999Z</time></trkpt><trkpt lat="44.394310564605156" lon="11.647869392937352"><ele>53.333333333333336</ele><time>2026-05-03T10:29:56.999Z</time></trkpt><trkpt lat="44.394470249500316" lon="11.647990767727043"><ele>53.0</ele><time>2026-05-03T10:29:57.999Z</time></trkpt><trkpt lat="44.394625135169015" lon="11.648108415929627"><ele>53.0</ele><time>2026-05-03T10:29:59Z</time></trkpt><trkpt lat="44.39478471199374" lon="11.648224821194667"><ele>53.0</ele><time>2026-05-03T10:30:00Z</time></trkpt><trkpt lat="44.39494598091731" lon="11.64834144999802"><ele>53.0</ele><time>2026-05-03T10:30:01Z</time></trkpt><trkpt lat="44.395107294267476" lon="11.648452167909367"><ele>53.0</ele><time>2026-05-03T10:30:02Z</time></trkpt><trkpt lat="44.39526695498897" lon="11.64855973059081"><ele>53.0</ele><time>2026-05-03T10:30:03Z</time></trkpt><trkpt lat="44.39543391050847" lon="11.648667568410087"><ele>53.0</ele><time>2026-05-03T10:30:04Z</time></trkpt><trkpt lat="44.39559847879021" lon="11.648768197422019"><ele>53.66666666666667</ele><time>2026-05-03T10:30:05Z</time></trkpt><trkpt lat="44.39576561206887" lon="11.648864359804158"><ele>54.33333333333333</ele><time>2026-05-03T10:30:06Z</time></trkpt><trkpt lat="44.395935212050716" lon="11.648962010982233"><ele>55.0</ele><time>2026-05-03T10:30:07Z</time></trkpt><trkpt lat="44.39609484941192" lon="11.649060661104905"><ele>55.0</ele><time>2026-05-03T10:30:08Z</time></trkpt><trkpt lat="44.396252590107714" lon="11.649166632322794"><ele>55.0</ele><time>2026-05-03T10:30:09Z</time></trkpt><trkpt lat="44.39641085718959" lon="11.649279782079073"><ele>55.0</ele><time>2026-05-03T10:30:10Z</time></trkpt><trkpt lat="44.39656544472709" lon="11.649390782257841"><ele>54.666666666666664</ele><time>2026-05-03T10:30:11Z</time></trkpt><trkpt lat="44.39672066923703" lon="11.649502902133515"><ele>54.33333333333333</ele><time>2026-05-03T10:30:12Z</time></trkpt><trkpt lat="44.39687446871424" lon="11.649617673949015"><ele>54.0</ele><time>2026-05-03T10:30:13Z</time></trkpt><trkpt lat="44.39703640647577" lon="11.649734025161921"><ele>54.0</ele><time>2026-05-03T10:30:14Z</time></trkpt><trkpt lat="44.39718608340367" lon="11.64984654467158"><ele>54.0</ele><time>2026-05-03T10:30:15Z</time></trkpt><trkpt lat="44.397344009070665" lon="11.649962137082655"><ele>54.0</ele><time>2026-05-03T10:30:16Z</time></trkpt><trkpt lat="44.39750379804399" lon="11.650073647680237"><ele>54.0</ele><time>2026-05-03T10:30:17Z</time></trkpt><trkpt lat="44.397668322226494" lon="11.650194815627117"><ele>54.0</ele><time>2026-05-03T10:30:18Z</time></trkpt><trkpt lat="44.39781993621259" lon="11.650316573638431"><ele>54.0</ele><time>2026-05-03T10:30:19Z</time></trkpt><trkpt lat="44.397971239283294" lon="11.650436945008314"><ele>52.33333333333333</ele><time>2026-05-03T10:30:20Z</time></trkpt><trkpt lat="44.39812596793601" lon="11.650558380298033"><ele>50.666666666666664</ele><time>2026-05-03T10:30:21Z</time></trkpt><trkpt lat="44.39828463623248" lon="11.650678557872602"><ele>49.0</ele><time>2026-05-03T10:30:22Z</time></trkpt><trkpt lat="44.39843992524413" lon="11.650803400900761"><ele>49.0</ele><time>2026-05-03T10:30:23Z</time></trkpt><trkpt lat="44.39859109429701" lon="11.650931449284977"><ele>49.0</ele><time>2026-05-03T10:30:24Z</time></trkpt><trkpt lat="44.398738375456354" lon="11.651054287453183"><ele>49.0</ele><time>2026-05-03T10:30:25Z</time></trkpt><trkpt lat="44.39889393074345" lon="11.651180526075082"><ele>49.33333333333333</ele><time>2026-05-03T10:30:26Z</time></trkpt><trkpt lat="44.3990463187603" lon="11.651306441216562"><ele>49.66666666666667</ele><time>2026-05-03T10:30:27Z</time></trkpt><trkpt lat="44.3992017159794" lon="11.651437405682929"><ele>50.0</ele><time>2026-05-03T10:30:28Z</time></trkpt><trkpt lat="44.39935323772077" lon="11.651565388725425"><ele>50.0</ele><time>2026-05-03T10:30:29Z</time></trkpt><trkpt lat="44.39950820854435" lon="11.6516941762344"><ele>50.0</ele><time>2026-05-03T10:30:30Z</time></trkpt><trkpt lat="44.39966134537091" lon="11.651820821829073"><ele>50.0</ele><time>2026-05-03T10:30:31Z</time></trkpt><trkpt lat="44.39981301384467" lon="11.651946292989853"><ele>50.0</ele><time>2026-05-03T10:30:32Z</time></trkpt><trkpt lat="44.3999659892508" lon="11.652075178087209"><ele>50.0</ele><time>2026-05-03T10:30:33Z</time></trkpt><trkpt lat="44.40011691816647" lon="11.652203800463795"><ele>50.0</ele><time>2026-05-03T10:30:34Z</time></trkpt><trkpt lat="44.40027034240889" lon="11.652330152275528"><ele>50.0</ele><time>2026-05-03T10:30:35Z</time></trkpt><trkpt lat="44.40042473384568" lon="11.652457653475832"><ele>50.0</ele><time>2026-05-03T10:30:36Z</time></trkpt><trkpt lat="44.400571753264835" lon="11.65258594757257"><ele>50.0</ele><time>2026-05-03T10:30:37Z</time></trkpt><trkpt lat="44.40072384658287" lon="11.652713246242607"><ele>49.66666666666667</ele><time>2026-05-03T10:30:38Z</time></trkpt><trkpt lat="44.400884545749726" lon="11.652845336082269"><ele>49.33333333333333</ele><time>2026-05-03T10:30:39Z</time></trkpt><trkpt lat="44.40104434564161" lon="11.652977561345013"><ele>49.0</ele><time>2026-05-03T10:30:40Z</time></trkpt><trkpt lat="44.401198004668665" lon="11.653102135440903"><ele>48.666666666666664</ele><time>2026-05-03T10:30:41Z</time></trkpt><trkpt lat="44.40135395904578" lon="11.653223308647169"><ele>48.33333333333333</ele><time>2026-05-03T10:30:42Z</time></trkpt><trkpt lat="44.40151621338155" lon="11.65333879793728"><ele>48.0</ele><time>2026-05-03T10:30:43Z</time></trkpt><trkpt lat="44.40168142856659" lon="11.65344662560831"><ele>48.0</ele><time>2026-05-03T10:30:44Z</time></trkpt><trkpt lat="44.40184556178869" lon="11.653556578192314"><ele>48.0</ele><time>2026-05-03T10:30:45Z</time></trkpt><trkpt lat="44.40201351588895" lon="11.65366098196042"><ele>48.0</ele><time>2026-05-03T10:30:46Z</time></trkpt><trkpt lat="44.402178816027615" lon="11.653760841842136"><ele>47.666666666666664</ele><time>2026-05-03T10:30:47Z</time></trkpt><trkpt lat="44.402345959918605" lon="11.653860551195923"><ele>47.33333333333333</ele><time>2026-05-03T10:30:48.001Z</time></trkpt><trkpt lat="44.40251470354778" lon="11.653960048167102"><ele>47.0</ele><time>2026-05-03T10:30:49.001Z</time></trkpt><trkpt lat="44.40268616326151" lon="11.654064080287842"><ele>47.0</ele><time>2026-05-03T10:30:50.001Z</time></trkpt><trkpt lat="44.40285581839376" lon="11.654171569720694"><ele>47.0</ele><time>2026-05-03T10:30:51.001Z</time></trkpt><trkpt lat="44.403020933324164" lon="11.654288980398611"><ele>47.0</ele><time>2026-05-03T10:30:52.001Z</time></trkpt><trkpt lat="44.40318376327288" lon="11.654402023411189"><ele>47.0</ele><time>2026-05-03T10:30:53.001Z</time></trkpt><trkpt lat="44.40334984738336" lon="11.654523600632464"><ele>47.0</ele><time>2026-05-03T10:30:54.001Z</time></trkpt><trkpt lat="44.403514834306286" lon="11.654644124926783"><ele>47.0</ele><time>2026-05-03T10:30:55.001Z</time></trkpt><trkpt lat="44.40367598510892" lon="11.654763053370031"><ele>46.33333333333333</ele><time>2026-05-03T10:30:56.001Z</time></trkpt><trkpt lat="44.403838974638" lon="11.654891365702753"><ele>45.666666666666664</ele><time>2026-05-03T10:30:57.001Z</time></trkpt><trkpt lat="44.4040009800901" lon="11.655016567712414"><ele>45.0</ele><time>2026-05-03T10:30:58.001Z</time></trkpt><trkpt lat="44.40416678134477" lon="11.655141688049278"><ele>45.0</ele><time>2026-05-03T10:30:59.001Z</time></trkpt><trkpt lat="44.40432948228808" lon="11.655268634515977"><ele>45.0</ele><time>2026-05-03T10:31:00.001Z</time></trkpt><trkpt lat="44.40448870061887" lon="11.655393397368176"><ele>45.0</ele><time>2026-05-03T10:31:01.001Z</time></trkpt><trkpt lat="44.404648046806635" lon="11.655522537073317"><ele>45.0</ele><time>2026-05-03T10:31:02.001Z</time></trkpt><trkpt lat="44.40480963967481" lon="11.655652307768538"><ele>45.0</ele><time>2026-05-03T10:31:03.001Z</time></trkpt><trkpt lat="44.40497342369525" lon="11.65578322784548"><ele>45.0</ele><time>2026-05-03T10:31:04.001Z</time></trkpt><trkpt lat="44.40513799802384" lon="11.655913209690555"><ele>45.0</ele><time>2026-05-03T10:31:05.001Z</time></trkpt><trkpt lat="44.40529867868904" lon="11.656040578548996"><ele>45.0</ele><time>2026-05-03T10:31:06.001Z</time></trkpt><trkpt lat="44.40546316957761" lon="11.656170530062647"><ele>45.0</ele><time>2026-05-03T10:31:07.001Z</time></trkpt><trkpt lat="44.40562567259823" lon="11.656299905424074"><ele>45.0</ele><time>2026-05-03T10:31:08.001Z</time></trkpt><trkpt lat="44.405794518186966" lon="11.656431033381509"><ele>45.0</ele><time>2026-05-03T10:31:09.001Z</time></trkpt><trkpt lat="44.40595826641504" lon="11.656562919715883"><ele>45.0</ele><time>2026-05-03T10:31:10.001Z</time></trkpt><trkpt lat="44.40612085122174" lon="11.656694215323826"><ele>45.0</ele><time>2026-05-03T10:31:11.001Z</time></trkpt><trkpt lat="44.40628477990429" lon="11.656823114566176"><ele>45.0</ele><time>2026-05-03T10:31:12.001Z</time></trkpt><trkpt lat="44.406447447316374" lon="11.65695133789074"><ele>45.0</ele><time>2026-05-03T10:31:13.001Z</time></trkpt><trkpt lat="44.40660106704379" lon="11.657080349779203"><ele>45.0</ele><time>2026-05-03T10:31:14.001Z</time></trkpt><trkpt lat="44.40675158258129" lon="11.657207405082369"><ele>45.0</ele><time>2026-05-03T10:31:15.001Z</time></trkpt><trkpt lat="44.406896910229214" lon="11.657332607086715"><ele>45.0</ele><time>2026-05-03T10:31:16.001Z</time></trkpt><trkpt lat="44.40703898994607" lon="11.657461537074672"><ele>45.0</ele><time>2026-05-03T10:31:17.001Z</time></trkpt><trkpt lat="44.407179577429964" lon="11.657584491849114"><ele>45.0</ele><time>2026-05-03T10:31:18.001Z</time></trkpt><trkpt lat="44.40731925446925" lon="11.657699988627344"><ele>45.0</ele><time>2026-05-03T10:31:19.001Z</time></trkpt><trkpt lat="44.407462053325375" lon="11.657819358053786"><ele>45.0</ele><time>2026-05-03T10:31:20.001Z</time></trkpt><trkpt lat="44.40759381034421" lon="11.657929244431807"><ele>45.0</ele><time>2026-05-03T10:31:21.001Z</time></trkpt><trkpt lat="44.407727639967" lon="11.658038710591546"><ele>45.0</ele><time>2026-05-03T10:31:22.001Z</time></trkpt><trkpt lat="44.40785900382724" lon="11.65814756260599"><ele>45.0</ele><time>2026-05-03T10:31:23.001Z</time></trkpt><trkpt lat="44.4079831522794" lon="11.6582495225194"><ele>45.0</ele><time>2026-05-03T10:31:24.001Z</time></trkpt><trkpt lat="44.4081211251126" lon="11.658362952285549"><ele>45.0</ele><time>2026-05-03T10:31:25.001Z</time></trkpt><trkpt lat="44.4082494584533" lon="11.658473018529442"><ele>44.75</ele><time>2026-05-03T10:31:26.001Z</time></trkpt><trkpt lat="44.408371476411716" lon="11.658581135309635"><ele>44.5</ele><time>2026-05-03T10:31:27.001Z</time></trkpt><trkpt lat="44.40850114259496" lon="11.658687421308047"><ele>44.25</ele><time>2026-05-03T10:31:28.001Z</time></trkpt><trkpt lat="44.408631130866254" lon="11.658793864939687"><ele>44.0</ele><time>2026-05-03T10:31:29.001Z</time></trkpt><trkpt lat="44.4087520081027" lon="11.6588974531105"><ele>44.0</ele><time>2026-05-03T10:31:30.001Z</time></trkpt><trkpt lat="44.40887739116682" lon="11.659006011253275"><ele>44.0</ele><time>2026-05-03T10:31:30.999Z</time></trkpt><trkpt lat="44.409002313974504" lon="11.659114351933093"><ele>44.0</ele><time>2026-05-03T10:31:31.999Z</time></trkpt><trkpt lat="44.40911115663021" lon="11.659222591713917"><ele>44.0</ele><time>2026-05-03T10:31:32.999Z</time></trkpt><trkpt lat="44.409223247861334" lon="11.659337090023723"><ele>43.75</ele><time>2026-05-03T10:31:33.999Z</time></trkpt><trkpt lat="44.409337810406484" lon="11.659453810697206"><ele>43.5</ele><time>2026-05-03T10:31:34.999Z</time></trkpt><trkpt lat="44.40944598087934" lon="11.659572943773002"><ele>43.25</ele><time>2026-05-03T10:31:35.999Z</time></trkpt><trkpt lat="44.4095544420228" lon="11.659691076820488"><ele>43.0</ele><time>2026-05-03T10:31:36.999Z</time></trkpt><trkpt lat="44.40965604725965" lon="11.65981834256755"><ele>42.75</ele><time>2026-05-03T10:31:37.999Z</time></trkpt><trkpt lat="44.40974607417561" lon="11.659955827046012"><ele>42.5</ele><time>2026-05-03T10:31:38.999Z</time></trkpt><trkpt lat="44.409823692149416" lon="11.660111271789829"><ele>42.25</ele><time>2026-05-03T10:31:39.999Z</time></trkpt><trkpt lat="44.40989675607666" lon="11.660273154874028"><ele>42.0</ele><time>2026-05-03T10:31:40.999Z</time></trkpt><trkpt lat="44.4099675364853" lon="11.66043253119994"><ele>42.0</ele><time>2026-05-03T10:31:41.999Z</time></trkpt><trkpt lat="44.41004551979274" lon="11.660585702627047"><ele>42.0</ele><time>2026-05-03T10:31:42.999Z</time></trkpt><trkpt lat="44.410120171135475" lon="11.660743448329717"><ele>42.0</ele><time>2026-05-03T10:31:43.999Z</time></trkpt><trkpt lat="44.410196553268655" lon="11.660901797371663"><ele>42.0</ele><time>2026-05-03T10:31:44.999Z</time></trkpt><trkpt lat="44.41027227622322" lon="11.661055544804297"><ele>41.75</ele><time>2026-05-03T10:31:45.999Z</time></trkpt><trkpt lat="44.41035014648341" lon="11.661205951549718"><ele>41.5</ele><time>2026-05-03T10:31:46.999Z</time></trkpt><trkpt lat="44.410427979305815" lon="11.661354376081066"><ele>41.25</ele><time>2026-05-03T10:31:47.999Z</time></trkpt><trkpt lat="44.410507973383545" lon="11.661496343519282"><ele>41.0</ele><time>2026-05-03T10:31:48.999Z</time></trkpt><trkpt lat="44.4106006176125" lon="11.66163667948598"><ele>41.0</ele><time>2026-05-03T10:31:49.999Z</time></trkpt><trkpt lat="44.4107010525055" lon="11.661761957790775"><ele>41.0</ele><time>2026-05-03T10:31:50.999Z</time></trkpt><trkpt lat="44.41079351532721" lon="11.661880097060319"><ele>41.0</ele><time>2026-05-03T10:31:51.999Z</time></trkpt><trkpt lat="44.41088760456701" lon="11.661995894225807"><ele>41.0</ele><time>2026-05-03T10:31:52.999Z</time></trkpt><trkpt lat="44.410979319030254" lon="11.662105124147399"><ele>41.0</ele><time>2026-05-03T10:31:53.999Z</time></trkpt><trkpt lat="44.411073962142105" lon="11.662207467891015"><ele>41.0</ele><time>2026-05-03T10:31:54.999Z</time></trkpt><trkpt lat="44.411173878896754" lon="11.662286547945419"><ele>41.0</ele><time>2026-05-03T10:31:55.999Z</time></trkpt><trkpt lat="44.4112858606678" lon="11.662339114738002"><ele>41.0</ele><time>2026-05-03T10:31:56.999Z</time></trkpt><trkpt lat="44.41139706202679" lon="11.66236523860383"><ele>41.0</ele><time>2026-05-03T10:31:57.999Z</time></trkpt><trkpt lat="44.41151091521218" lon="11.662360285852811"><ele>41.0</ele><time>2026-05-03T10:31:58.999Z</time></trkpt><trkpt lat="44.41161887294747" lon="11.66233304432642"><ele>41.0</ele><time>2026-05-03T10:31:59.999Z</time></trkpt><trkpt lat="44.41172947951039" lon="11.662303784252476"><ele>41.0</ele><time>2026-05-03T10:32:00.999Z</time></trkpt><trkpt lat="44.41184235612986" lon="11.662270745034531"><ele>41.0</ele><time>2026-05-03T10:32:01.999Z</time></trkpt><trkpt lat="44.41196014283184" lon="11.662248334418344"><ele>41.0</ele><time>2026-05-03T10:32:02.999Z</time></trkpt><trkpt lat="44.412074650811526" lon="11.662216837158981"><ele>41.0</ele><time>2026-05-03T10:32:03.999Z</time></trkpt><trkpt lat="44.41218687439518" lon="11.662183550719972"><ele>41.0</ele><time>2026-05-03T10:32:04.999Z</time></trkpt><trkpt lat="44.41230163946984" lon="11.662149914917554"><ele>41.5</ele><time>2026-05-03T10:32:05.999Z</time></trkpt><trkpt lat="44.41242270746344" lon="11.662125046830118"><ele>42.0</ele><time>2026-05-03T10:32:07Z</time></trkpt><trkpt lat="44.41254596714905" lon="11.662098631693723"><ele>42.5</ele><time>2026-05-03T10:32:08Z</time></trkpt><trkpt lat="44.41267268889755" lon="11.662067388980423"><ele>43.0</ele><time>2026-05-03T10:32:09Z</time></trkpt><trkpt lat="44.412798727945834" lon="11.662042196471415"><ele>43.0</ele><time>2026-05-03T10:32:10Z</time></trkpt><trkpt lat="44.41292365393893" lon="11.662034378212187"><ele>43.0</ele><time>2026-05-03T10:32:11Z</time></trkpt><trkpt lat="44.41304457780761" lon="11.662055600841649"><ele>43.0</ele><time>2026-05-03T10:32:12Z</time></trkpt><trkpt lat="44.413156741011164" lon="11.662103315319822"><ele>43.0</ele><time>2026-05-03T10:32:13Z</time></trkpt><trkpt lat="44.41327018195172" lon="11.662168714437637"><ele>42.5</ele><time>2026-05-03T10:32:14Z</time></trkpt><trkpt lat="44.41338109010536" lon="11.662243164714116"><ele>42.0</ele><time>2026-05-03T10:32:15Z</time></trkpt><trkpt lat="44.41349865417897" lon="11.662325171105728"><ele>41.5</ele><time>2026-05-03T10:32:16Z</time></trkpt><trkpt lat="44.41362041697184" lon="11.662407780194332"><ele>41.0</ele><time>2026-05-03T10:32:17Z</time></trkpt><trkpt lat="44.413744166930236" lon="11.662495372993865"><ele>40.75</ele><time>2026-05-03T10:32:18Z</time></trkpt><trkpt lat="44.413864870187254" lon="11.662579235651997"><ele>40.5</ele><time>2026-05-03T10:32:19Z</time></trkpt><trkpt lat="44.413989712902584" lon="11.662661200396574"><ele>40.25</ele><time>2026-05-03T10:32:20Z</time></trkpt><trkpt lat="44.4141073340304" lon="11.662743683092291"><ele>40.0</ele><time>2026-05-03T10:32:21Z</time></trkpt><trkpt lat="44.41422865050402" lon="11.662827163679756"><ele>39.75</ele><time>2026-05-03T10:32:22Z</time></trkpt><trkpt lat="44.41434789264214" lon="11.662911801648086"><ele>39.5</ele><time>2026-05-03T10:32:23Z</time></trkpt><trkpt lat="44.41446745014699" lon="11.662991954976352"><ele>39.25</ele><time>2026-05-03T10:32:24Z</time></trkpt><trkpt lat="44.41458480612739" lon="11.663068550492357"><ele>39.0</ele><time>2026-05-03T10:32:25Z</time></trkpt><trkpt lat="44.4147029992104" lon="11.66314483198419"><ele>39.0</ele><time>2026-05-03T10:32:26Z</time></trkpt><trkpt lat="44.414818281903166" lon="11.663208721437082"><ele>39.0</ele><time>2026-05-03T10:32:27Z</time></trkpt><trkpt lat="44.41493525313624" lon="11.663268594538692"><ele>39.0</ele><time>2026-05-03T10:32:28Z</time></trkpt><trkpt lat="44.41505776587689" lon="11.663314766663616"><ele>39.0</ele><time>2026-05-03T10:32:29Z</time></trkpt><trkpt lat="44.41518454570406" lon="11.663351944788204"><ele>39.0</ele><time>2026-05-03T10:32:30Z</time></trkpt><trkpt lat="44.415315276788405" lon="11.663390605071472"><ele>39.0</ele><time>2026-05-03T10:32:31Z</time></trkpt><trkpt lat="44.415445693446024" lon="11.663431471482088"><ele>39.0</ele><time>2026-05-03T10:32:32Z</time></trkpt><trkpt lat="44.415571563790365" lon="11.66348797523374"><ele>39.0</ele><time>2026-05-03T10:32:33Z</time></trkpt><trkpt lat="44.41568879038776" lon="11.66356553994872"><ele>38.25</ele><time>2026-05-03T10:32:34Z</time></trkpt><trkpt lat="44.41579557371443" lon="11.66367289280361"><ele>37.5</ele><time>2026-05-03T10:32:35Z</time></trkpt><trkpt lat="44.4158974391791" lon="11.663798095533002"><ele>36.75</ele><time>2026-05-03T10:32:36Z</time></trkpt><trkpt lat="44.41598324691287" lon="11.663939501893053"><ele>36.0</ele><time>2026-05-03T10:32:37Z</time></trkpt><trkpt lat="44.41606987649516" lon="11.664089327080104"><ele>36.0</ele><time>2026-05-03T10:32:38Z</time></trkpt><trkpt lat="44.416146002069055" lon="11.66424983017476"><ele>36.0</ele><time>2026-05-03T10:32:39Z</time></trkpt><trkpt lat="44.416218828369196" lon="11.664420139854908"><ele>36.0</ele><time>2026-05-03T10:32:40Z</time></trkpt><trkpt lat="44.41629055141265" lon="11.664597222882124"><ele>36.0</ele><time>2026-05-03T10:32:41Z</time></trkpt><trkpt lat="44.416361170766315" lon="11.66477249703756"><ele>36.75</ele><time>2026-05-03T10:32:42Z</time></trkpt><trkpt lat="44.41643406755179" lon="11.664948674513269"><ele>37.5</ele><time>2026-05-03T10:32:43Z</time></trkpt><trkpt lat="44.416507068292965" lon="11.665124770269484"><ele>38.25</ele><time>2026-05-03T10:32:44Z</time></trkpt><trkpt lat="44.41657628323534" lon="11.665300315813052"><ele>39.0</ele><time>2026-05-03T10:32:45Z</time></trkpt><trkpt lat="44.41664694197383" lon="11.665479478800016"><ele>39.0</ele><time>2026-05-03T10:32:46Z</time></trkpt><trkpt lat="44.416718511729606" lon="11.665655621759642"><ele>39.0</ele><time>2026-05-03T10:32:47Z</time></trkpt><trkpt lat="44.41678902222517" lon="11.665834586111448"><ele>39.0</ele><time>2026-05-03T10:32:48Z</time></trkpt><trkpt lat="44.416844717180744" lon="11.66601452927713"><ele>39.0</ele><time>2026-05-03T10:32:49Z</time></trkpt><trkpt lat="44.41688331012147" lon="11.666199252487408"><ele>39.25</ele><time>2026-05-03T10:32:50.001Z</time></trkpt><trkpt lat="44.41689876425695" lon="11.666384518276795"><ele>39.5</ele><time>2026-05-03T10:32:51.001Z</time></trkpt><trkpt lat="44.416890493088395" lon="11.666565993839912"><ele>39.75</ele><time>2026-05-03T10:32:52.001Z</time></trkpt><trkpt lat="44.41686335359293" lon="11.66674302313042"><ele>40.0</ele><time>2026-05-03T10:32:53.001Z</time></trkpt><trkpt lat="44.416827374674426" lon="11.666913008511553"><ele>40.25</ele><time>2026-05-03T10:32:54.001Z</time></trkpt><trkpt lat="44.416785784352285" lon="11.667079225647418"><ele>40.5</ele><time>2026-05-03T10:32:55.001Z</time></trkpt><trkpt lat="44.41673403614985" lon="11.667243180164702"><ele>40.75</ele><time>2026-05-03T10:32:56.001Z</time></trkpt><trkpt lat="44.41668461631287" lon="11.667398150380853"><ele>41.0</ele><time>2026-05-03T10:32:57.001Z</time></trkpt><trkpt lat="44.41663273278856" lon="11.667552277490826"><ele>41.0</ele><time>2026-05-03T10:32:58.001Z</time></trkpt><trkpt lat="44.41658368630195" lon="11.667710422725886"><ele>41.0</ele><time>2026-05-03T10:32:59.001Z</time></trkpt><trkpt lat="44.41652869171181" lon="11.667868848807826"><ele>41.0</ele><time>2026-05-03T10:33:00.001Z</time></trkpt><trkpt lat="44.41647038029763" lon="11.668029191805017"><ele>41.0</ele><time>2026-05-03T10:33:01.001Z</time></trkpt><trkpt lat="44.41641471661452" lon="11.66818818902267"><ele>40.5</ele><time>2026-05-03T10:33:02.001Z</time></trkpt><trkpt lat="44.416360666703596" lon="11.668342619903846"><ele>40.0</ele><time>2026-05-03T10:33:03.001Z</time></trkpt><trkpt lat="44.41630424223267" lon="11.668496548321453"><ele>39.5</ele><time>2026-05-03T10:33:04.001Z</time></trkpt><trkpt lat="44.416243723809984" lon="11.668661239146026"><ele>39.0</ele><time>2026-05-03T10:33:05.001Z</time></trkpt><trkpt lat="44.41618278642098" lon="11.668825575145936"><ele>38.75</ele><time>2026-05-03T10:33:06.001Z</time></trkpt><trkpt lat="44.41612523480505" lon="11.668988734015278"><ele>38.5</ele><time>2026-05-03T10:33:07.001Z</time></trkpt><trkpt lat="44.41606745737853" lon="11.669153706854164"><ele>38.25</ele><time>2026-05-03T10:33:08.001Z</time></trkpt><trkpt lat="44.4160074426722" lon="11.669322995356673"><ele>38.0</ele><time>2026-05-03T10:33:09.001Z</time></trkpt><trkpt lat="44.41594325268267" lon="11.66948640587269"><ele>37.75</ele><time>2026-05-03T10:33:10.001Z</time></trkpt><trkpt lat="44.41588256679192" lon="11.669642370257826"><ele>37.5</ele><time>2026-05-03T10:33:11.001Z</time></trkpt><trkpt lat="44.41581915414294" lon="11.66979895649383"><ele>37.25</ele><time>2026-05-03T10:33:12.001Z</time></trkpt><trkpt lat="44.415757646638674" lon="11.669950822327989"><ele>37.0</ele><time>2026-05-03T10:33:13.001Z</time></trkpt><trkpt lat="44.4156947356027" lon="11.670100574938322"><ele>37.0</ele><time>2026-05-03T10:33:14.001Z</time></trkpt><trkpt lat="44.41563501630786" lon="11.670249521519148"><ele>37.0</ele><time>2026-05-03T10:33:15.001Z</time></trkpt><trkpt lat="44.41557421813581" lon="11.670400197961108"><ele>37.0</ele><time>2026-05-03T10:33:16.001Z</time></trkpt><trkpt lat="44.41551317971425" lon="11.670547664836292"><ele>37.0</ele><time>2026-05-03T10:33:17.001Z</time></trkpt><trkpt lat="44.41545300253031" lon="11.67069620097268"><ele>37.0</ele><time>2026-05-03T10:33:18.001Z</time></trkpt><trkpt lat="44.41539396305801" lon="11.67084510610557"><ele>37.0</ele><time>2026-05-03T10:33:19.001Z</time></trkpt><trkpt lat="44.41533211681009" lon="11.670998864483815"><ele>37.0</ele><time>2026-05-03T10:33:20.001Z</time></trkpt><trkpt lat="44.41526941978596" lon="11.671151951120121"><ele>37.0</ele><time>2026-05-03T10:33:21.001Z</time></trkpt><trkpt lat="44.41520673466855" lon="11.671307204744236"><ele>36.5</ele><time>2026-05-03T10:33:22.001Z</time></trkpt><trkpt lat="44.41514838461344" lon="11.671459902235993"><ele>36.0</ele><time>2026-05-03T10:33:23.001Z</time></trkpt><trkpt lat="44.415087658560935" lon="11.671609804769181"><ele>35.5</ele><time>2026-05-03T10:33:24.001Z</time></trkpt><trkpt lat="44.41502713061272" lon="11.67175542191572"><ele>35.0</ele><time>2026-05-03T10:33:25.001Z</time></trkpt><trkpt lat="44.4149658480033" lon="11.671902298242456"><ele>35.5</ele><time>2026-05-03T10:33:26.001Z</time></trkpt><trkpt lat="44.414908123095" lon="11.672045158697463"><ele>36.0</ele><time>2026-05-03T10:33:27.001Z</time></trkpt><trkpt lat="44.414852901061366" lon="11.672185001731194"><ele>36.5</ele><time>2026-05-03T10:33:28.001Z</time></trkpt><trkpt lat="44.41479563596753" lon="11.67231877267103"><ele>37.0</ele><time>2026-05-03T10:33:29.001Z</time></trkpt><trkpt lat="44.41473823555413" lon="11.67245138227856"><ele>37.0</ele><time>2026-05-03T10:33:30.001Z</time></trkpt><trkpt lat="44.41468395201025" lon="11.672588165257615"><ele>37.0</ele><time>2026-05-03T10:33:31.001Z</time></trkpt><trkpt lat="44.4146279922891" lon="11.672711967694188"><ele>37.0</ele><time>2026-05-03T10:33:32.001Z</time></trkpt><trkpt lat="44.414574320184464" lon="11.672830332386345"><ele>37.0</ele><time>2026-05-03T10:33:33.001Z</time></trkpt><trkpt lat="44.41452466754558" lon="11.672930558418688"><ele>37.0</ele><time>2026-05-03T10:33:34.001Z</time></trkpt><trkpt lat="44.41446964929185" lon="11.673015902577765"><ele>36.833333333333336</ele><time>2026-05-03T10:33:35.001Z</time></trkpt><trkpt lat="44.414408854487505" lon="11.67307475587784"><ele>36.66666666666667</ele><time>2026-05-03T10:33:36.001Z</time></trkpt><trkpt lat="44.41434671104068" lon="11.673116941299536"><ele>36.5</ele><time>2026-05-03T10:33:36.999Z</time></trkpt><trkpt lat="44.41428852056155" lon="11.673164063917536"><ele>36.333333333333336</ele><time>2026-05-03T10:33:37.999Z</time></trkpt><trkpt lat="44.41421829215434" lon="11.673283982956415"><ele>36.166666666666664</ele><time>2026-05-03T10:33:39.999Z</time></trkpt><trkpt lat="44.41430826575007" lon="11.673364867221968"><ele>36.0</ele><time>2026-05-03T10:33:40.999Z</time></trkpt><trkpt lat="44.41438468712646" lon="11.673425838087264"><ele>36.0</ele><time>2026-05-03T10:33:42.999Z</time></trkpt><trkpt lat="44.41446012323499" lon="11.673474419140463"><ele>36.0</ele><time>2026-05-03T10:33:43.999Z</time></trkpt><trkpt lat="44.41453468278988" lon="11.673525712884862"><ele>36.0</ele><time>2026-05-03T10:33:44.999Z</time></trkpt><trkpt lat="44.414614064818736" lon="11.673563162060063"><ele>36.0</ele><time>2026-05-03T10:33:45.999Z</time></trkpt><trkpt lat="44.414679886139076" lon="11.673682545614218"><ele>36.0</ele><time>2026-05-03T10:33:46.999Z</time></trkpt><trkpt lat="44.41474050793739" lon="11.673759498590336"><ele>36.0</ele><time>2026-05-03T10:33:47.999Z</time></trkpt><trkpt lat="44.41481433872213" lon="11.673806785141574"><ele>35.833333333333336</ele><time>2026-05-03T10:33:48.999Z</time></trkpt><trkpt lat="44.4148854405625" lon="11.673847041598881"><ele>35.666666666666664</ele><time>2026-05-03T10:33:49.999Z</time></trkpt><trkpt lat="44.414954576766405" lon="11.673894115816772"><ele>35.5</ele><time>2026-05-03T10:33:50.999Z</time></trkpt><trkpt lat="44.41502968625561" lon="11.673944979127327"><ele>35.33333333333333</ele><time>2026-05-03T10:33:51.999Z</time></trkpt><trkpt lat="44.41510582447865" lon="11.673998064728847"><ele>35.166666666666664</ele><time>2026-05-03T10:33:52.999Z</time></trkpt><trkpt lat="44.415180414470285" lon="11.674055296041697"><ele>35.0</ele><time>2026-05-03T10:33:53.999Z</time></trkpt><trkpt lat="44.41525681281048" lon="11.674114305450203"><ele>35.0</ele><time>2026-05-03T10:33:54.999Z</time></trkpt><trkpt lat="44.41533804200326" lon="11.674170878033005"><ele>35.0</ele><time>2026-05-03T10:33:55.999Z</time></trkpt><trkpt lat="44.41541750618285" lon="11.67423071959837"><ele>35.0</ele><time>2026-05-03T10:33:56.999Z</time></trkpt><trkpt lat="44.41549639199882" lon="11.67429423215386"><ele>35.0</ele><time>2026-05-03T10:33:57.999Z</time></trkpt><trkpt lat="44.41557561811014" lon="11.674352579626719"><ele>35.0</ele><time>2026-05-03T10:33:58.999Z</time></trkpt><trkpt lat="44.41565401945248" lon="11.674411602089826"><ele>35.2</ele><time>2026-05-03T10:33:59.999Z</time></trkpt><trkpt lat="44.41573352377559" lon="11.674476724050939"><ele>35.4</ele><time>2026-05-03T10:34:00.999Z</time></trkpt><trkpt lat="44.41581326986416" lon="11.674542205794483"><ele>35.6</ele><time>2026-05-03T10:34:01.999Z</time></trkpt><trkpt lat="44.41589516643149" lon="11.674606669818893"><ele>35.8</ele><time>2026-05-03T10:34:02.999Z</time></trkpt><trkpt lat="44.41597937679043" lon="11.674673395510588"><ele>36.0</ele><time>2026-05-03T10:34:03.999Z</time></trkpt><trkpt lat="44.41605909611392" lon="11.674741911501044"><ele>36.0</ele><time>2026-05-03T10:34:04.999Z</time></trkpt><trkpt lat="44.41614508542588" lon="11.674811441198093"><ele>36.0</ele><time>2026-05-03T10:34:05.999Z</time></trkpt><trkpt lat="44.416239042987996" lon="11.674879982477416"><ele>36.0</ele><time>2026-05-03T10:34:06.999Z</time></trkpt><trkpt lat="44.41633574749693" lon="11.674955864585629"><ele>36.0</ele><time>2026-05-03T10:34:07.999Z</time></trkpt><trkpt lat="44.416433059292004" lon="11.675027770163156"><ele>36.0</ele><time>2026-05-03T10:34:08.999Z</time></trkpt><trkpt lat="44.416533368207524" lon="11.675109201664041"><ele>35.75</ele><time>2026-05-03T10:34:09.999Z</time></trkpt><trkpt lat="44.416637321978065" lon="11.675187076619725"><ele>35.5</ele><time>2026-05-03T10:34:11Z</time></trkpt><trkpt lat="44.41674237086464" lon="11.675270116633119"><ele>35.25</ele><time>2026-05-03T10:34:12Z</time></trkpt><trkpt lat="44.416850831140735" lon="11.675353147993972"><ele>35.0</ele><time>2026-05-03T10:34:13Z</time></trkpt><trkpt lat="44.41695832539159" lon="11.67544191552576"><ele>34.75</ele><time>2026-05-03T10:34:14Z</time></trkpt><trkpt lat="44.41706987496054" lon="11.675526285919245"><ele>34.5</ele><time>2026-05-03T10:34:15Z</time></trkpt><trkpt lat="44.41717869575553" lon="11.675613816832833"><ele>34.25</ele><time>2026-05-03T10:34:16Z</time></trkpt><trkpt lat="44.417285579737886" lon="11.675703574753806"><ele>34.0</ele><time>2026-05-03T10:34:17Z</time></trkpt><trkpt lat="44.41739778051672" lon="11.675785348174342"><ele>34.0</ele><time>2026-05-03T10:34:18Z</time></trkpt><trkpt lat="44.417500860888325" lon="11.675875471340712"><ele>34.0</ele><time>2026-05-03T10:34:19Z</time></trkpt><trkpt lat="44.41760896330259" lon="11.675967854056912"><ele>34.0</ele><time>2026-05-03T10:34:20Z</time></trkpt><trkpt lat="44.41771719057232" lon="11.676052170626551"><ele>34.0</ele><time>2026-05-03T10:34:21Z</time></trkpt><trkpt lat="44.41781983998107" lon="11.67613953654169"><ele>34.0</ele><time>2026-05-03T10:34:22Z</time></trkpt><trkpt lat="44.41792241026031" lon="11.676227498112526"><ele>34.0</ele><time>2026-05-03T10:34:23Z</time></trkpt><trkpt lat="44.41802513874351" lon="11.676313152154664"><ele>34.0</ele><time>2026-05-03T10:34:24Z</time></trkpt><trkpt lat="44.41813135815759" lon="11.67639732297332"><ele>34.0</ele><time>2026-05-03T10:34:25Z</time></trkpt><trkpt lat="44.41823697701904" lon="11.676483511732725"><ele>34.0</ele><time>2026-05-03T10:34:26Z</time></trkpt><trkpt lat="44.41834853772015" lon="11.676559302246435"><ele>34.0</ele><time>2026-05-03T10:34:27Z</time></trkpt><trkpt lat="44.41845760387137" lon="11.676633569996143"><ele>34.0</ele><time>2026-05-03T10:34:28Z</time></trkpt><trkpt lat="44.41856582851445" lon="11.676707984057916"><ele>34.0</ele><time>2026-05-03T10:34:29Z</time></trkpt><trkpt lat="44.418679331662084" lon="11.67677574185424"><ele>34.0</ele><time>2026-05-03T10:34:30Z</time></trkpt><trkpt lat="44.41879986493885" lon="11.67682802409712"><ele>34.0</ele><time>2026-05-03T10:34:31Z</time></trkpt><trkpt lat="44.41892361698384" lon="11.676862624761391"><ele>34.0</ele><time>2026-05-03T10:34:32Z</time></trkpt><trkpt lat="44.41904651348375" lon="11.676880535915497"><ele>34.0</ele><time>2026-05-03T10:34:33Z</time></trkpt><trkpt lat="44.41916417253815" lon="11.676884532702168"><ele>33.5</ele><time>2026-05-03T10:34:34Z</time></trkpt><trkpt lat="44.41928589931624" lon="11.67688659730945"><ele>33.0</ele><time>2026-05-03T10:34:35Z</time></trkpt><trkpt lat="44.419408821458745" lon="11.676893096791247"><ele>32.5</ele><time>2026-05-03T10:34:36Z</time></trkpt><trkpt lat="44.419523163589886" lon="11.676898636986598"><ele>32.0</ele><time>2026-05-03T10:34:37Z</time></trkpt><trkpt lat="44.41964018576729" lon="11.676907333759788"><ele>31.75</ele><time>2026-05-03T10:34:38Z</time></trkpt><trkpt lat="44.41975659473233" lon="11.67691785676295"><ele>31.5</ele><time>2026-05-03T10:34:39Z</time></trkpt><trkpt lat="44.41986729881695" lon="11.67692658988004"><ele>31.25</ele><time>2026-05-03T10:34:40Z</time></trkpt><trkpt lat="44.41998790776403" lon="11.67693282031576"><ele>31.0</ele><time>2026-05-03T10:34:41Z</time></trkpt><trkpt lat="44.42010561446335" lon="11.67693532623232"><ele>30.8</ele><time>2026-05-03T10:34:42Z</time></trkpt><trkpt lat="44.42021475682811" lon="11.67694811692248"><ele>30.6</ele><time>2026-05-03T10:34:43Z</time></trkpt><trkpt lat="44.42032139719285" lon="11.676969872845191"><ele>30.4</ele><time>2026-05-03T10:34:44Z</time></trkpt><trkpt lat="44.42042226135285" lon="11.677004873824536"><ele>30.2</ele><time>2026-05-03T10:34:45Z</time></trkpt><trkpt lat="44.420522731522574" lon="11.677055426231847"><ele>30.0</ele><time>2026-05-03T10:34:46Z</time></trkpt><trkpt lat="44.4206184259416" lon="11.67712025322091"><ele>31.0</ele><time>2026-05-03T10:34:47Z</time></trkpt><trkpt lat="44.420709177022424" lon="11.67720184635451"><ele>32.0</ele><time>2026-05-03T10:34:48Z</time></trkpt><trkpt lat="44.42079763655114" lon="11.677298557096536"><ele>33.0</ele><time>2026-05-03T10:34:49Z</time></trkpt><trkpt lat="44.42088020130003" lon="11.67740329939152"><ele>34.0</ele><time>2026-05-03T10:34:50Z</time></trkpt><trkpt lat="44.42095763656169" lon="11.67751178835118"><ele>35.0</ele><time>2026-05-03T10:34:51Z</time></trkpt><trkpt lat="44.421041999408686" lon="11.677618336547809"><ele>35.0</ele><time>2026-05-03T10:34:52Z</time></trkpt><trkpt lat="44.421126965238585" lon="11.67773188980977"><ele>35.0</ele><time>2026-05-03T10:34:53.001Z</time></trkpt><trkpt lat="44.421213233676156" lon="11.677851797985678"><ele>35.0</ele><time>2026-05-03T10:34:54.001Z</time></trkpt><trkpt lat="44.4213003338485" lon="11.677970518293812"><ele>35.0</ele><time>2026-05-03T10:34:55.001Z</time></trkpt><trkpt lat="44.42139271770266" lon="11.67809721455184"><ele>35.0</ele><time>2026-05-03T10:34:56.001Z</time></trkpt><trkpt lat="44.421484185446985" lon="11.678224021814097"><ele>35.0</ele><time>2026-05-03T10:34:57.001Z</time></trkpt><trkpt lat="44.42157787017591" lon="11.678352310958978"><ele>35.0</ele><time>2026-05-03T10:34:58.001Z</time></trkpt><trkpt lat="44.42167342324551" lon="11.67848496397831"><ele>35.0</ele><time>2026-05-03T10:34:59.001Z</time></trkpt><trkpt lat="44.42176150338607" lon="11.67862245014301"><ele>34.75</ele><time>2026-05-03T10:35:00.001Z</time></trkpt><trkpt lat="44.42185792567799" lon="11.678762877759052"><ele>34.5</ele><time>2026-05-03T10:35:01.001Z</time></trkpt><trkpt lat="44.421956835881275" lon="11.67890163417423"><ele>34.25</ele><time>2026-05-03T10:35:02.001Z</time></trkpt><trkpt lat="44.42205595396898" lon="11.679033699707823"><ele>34.0</ele><time>2026-05-03T10:35:03.001Z</time></trkpt><trkpt lat="44.422156930349715" lon="11.679167078340509"><ele>34.0</ele><time>2026-05-03T10:35:04.001Z</time></trkpt><trkpt lat="44.4222513749699" lon="11.679309799909104"><ele>34.0</ele><time>2026-05-03T10:35:05.001Z</time></trkpt><trkpt lat="44.42234674578007" lon="11.679452663106847"><ele>34.0</ele><time>2026-05-03T10:35:06.001Z</time></trkpt><trkpt lat="44.422440748763606" lon="11.679596570821824"><ele>34.0</ele><time>2026-05-03T10:35:07.001Z</time></trkpt><trkpt lat="44.42253328043672" lon="11.679731749616591"><ele>33.75</ele><time>2026-05-03T10:35:08.001Z</time></trkpt><trkpt lat="44.422627361728814" lon="11.679865018059493"><ele>33.5</ele><time>2026-05-03T10:35:09.001Z</time></trkpt><trkpt lat="44.42272303685982" lon="11.679998753766185"><ele>33.25</ele><time>2026-05-03T10:35:10.001Z</time></trkpt><trkpt lat="44.42281784319314" lon="11.680132230905151"><ele>33.0</ele><time>2026-05-03T10:35:11.001Z</time></trkpt><trkpt lat="44.42290847593598" lon="11.680258584180521"><ele>32.75</ele><time>2026-05-03T10:35:12.001Z</time></trkpt><trkpt lat="44.422997106749726" lon="11.68038183270657"><ele>32.5</ele><time>2026-05-03T10:35:13.001Z</time></trkpt><trkpt lat="44.42308752749197" lon="11.680510673901237"><ele>32.25</ele><time>2026-05-03T10:35:14.001Z</time></trkpt><trkpt lat="44.42317393837183" lon="11.68063490879066"><ele>32.0</ele><time>2026-05-03T10:35:15.001Z</time></trkpt><trkpt lat="44.423255471280626" lon="11.68075684701258"><ele>32.0</ele><time>2026-05-03T10:35:16.001Z</time></trkpt><trkpt lat="44.423343009340556" lon="11.680873205187828"><ele>32.0</ele><time>2026-05-03T10:35:17.001Z</time></trkpt><trkpt lat="44.42343192422286" lon="11.68098976397667"><ele>32.0</ele><time>2026-05-03T10:35:18.001Z</time></trkpt><trkpt lat="44.42351480845756" lon="11.681110333773864"><ele>32.0</ele><time>2026-05-03T10:35:19.001Z</time></trkpt><trkpt lat="44.423598187871455" lon="11.681228112601755"><ele>31.75</ele><time>2026-05-03T10:35:20.001Z</time></trkpt><trkpt lat="44.42368118301885" lon="11.68135090366602"><ele>31.5</ele><time>2026-05-03T10:35:21.001Z</time></trkpt><trkpt lat="44.42376509687799" lon="11.681479055480763"><ele>31.25</ele><time>2026-05-03T10:35:22.001Z</time></trkpt><trkpt lat="44.42384833409164" lon="11.681605158403427"><ele>31.0</ele><time>2026-05-03T10:35:23.001Z</time></trkpt><trkpt lat="44.423931299819785" lon="11.681730916693652"><ele>31.0</ele><time>2026-05-03T10:35:24.001Z</time></trkpt><trkpt lat="44.424015845751704" lon="11.681853285641502"><ele>31.0</ele><time>2026-05-03T10:35:25.001Z</time></trkpt><trkpt lat="44.42410180588038" lon="11.681977067390354"><ele>31.0</ele><time>2026-05-03T10:35:26.001Z</time></trkpt><trkpt lat="44.424188496766746" lon="11.682099626175688"><ele>31.0</ele><time>2026-05-03T10:35:27.001Z</time></trkpt><trkpt lat="44.42427120210787" lon="11.682217482456634"><ele>30.75</ele><time>2026-05-03T10:35:28.001Z</time></trkpt><trkpt lat="44.42435648091181" lon="11.682337550627082"><ele>30.5</ele><time>2026-05-03T10:35:29.001Z</time></trkpt><trkpt lat="44.42443812108632" lon="11.68245989567628"><ele>30.25</ele><time>2026-05-03T10:35:30.001Z</time></trkpt><trkpt lat="44.42452323868557" lon="11.682583900954338"><ele>30.0</ele><time>2026-05-03T10:35:31.001Z</time></trkpt><trkpt lat="44.42460415827501" lon="11.682709780446856"><ele>29.75</ele><time>2026-05-03T10:35:32.001Z</time></trkpt><trkpt lat="44.42468847592587" lon="11.682838869505424"><ele>29.5</ele><time>2026-05-03T10:35:33.001Z</time></trkpt><trkpt lat="44.42477501567172" lon="11.682968744156513"><ele>29.25</ele><time>2026-05-03T10:35:34.001Z</time></trkpt><trkpt lat="44.424860998468276" lon="11.68309501111268"><ele>29.0</ele><time>2026-05-03T10:35:35.001Z</time></trkpt><trkpt lat="44.42494881634773" lon="11.683225161819362"><ele>29.0</ele><time>2026-05-03T10:35:36.001Z</time></trkpt><trkpt lat="44.425037667753756" lon="11.683348919033309"><ele>29.0</ele><time>2026-05-03T10:35:37.002Z</time></trkpt><trkpt lat="44.425122209030334" lon="11.683472127231049"><ele>29.0</ele><time>2026-05-03T10:35:38.002Z</time></trkpt><trkpt lat="44.42520965038345" lon="11.683596211527632"><ele>29.0</ele><time>2026-05-03T10:35:39.002Z</time></trkpt><trkpt lat="44.42529206673671" lon="11.683715578461504"><ele>29.0</ele><time>2026-05-03T10:35:40.002Z</time></trkpt><trkpt lat="44.425375563250824" lon="11.683833427388493"><ele>29.0</ele><time>2026-05-03T10:35:41.002Z</time></trkpt><trkpt lat="44.42545873375865" lon="11.68395631723437"><ele>29.0</ele><time>2026-05-03T10:35:42.002Z</time></trkpt><trkpt lat="44.4255400993329" lon="11.684072926471373"><ele>29.0</ele><time>2026-05-03T10:35:42.999Z</time></trkpt><trkpt lat="44.425621847783226" lon="11.684193360477327"><ele>29.0</ele><time>2026-05-03T10:35:43.999Z</time></trkpt><trkpt lat="44.42570366293815" lon="11.684312684499616"><ele>29.0</ele><time>2026-05-03T10:35:44.999Z</time></trkpt><trkpt lat="44.4257883816988" lon="11.684431985629901"><ele>29.0</ele><time>2026-05-03T10:35:45.999Z</time></trkpt><trkpt lat="44.42587685243786" lon="11.684550143890494"><ele>29.0</ele><time>2026-05-03T10:35:46.999Z</time></trkpt><trkpt lat="44.42595885196427" lon="11.684668768104181"><ele>29.25</ele><time>2026-05-03T10:35:47.999Z</time></trkpt><trkpt lat="44.426042717981396" lon="11.684787807894025"><ele>29.5</ele><time>2026-05-03T10:35:48.999Z</time></trkpt><trkpt lat="44.42612736719053" lon="11.68491200953372"><ele>29.75</ele><time>2026-05-03T10:35:49.999Z</time></trkpt><trkpt lat="44.4262137791691" lon="11.685031368237802"><ele>30.0</ele><time>2026-05-03T10:35:50.999Z</time></trkpt><trkpt lat="44.42629890857207" lon="11.68515322622253"><ele>29.5</ele><time>2026-05-03T10:35:51.999Z</time></trkpt><trkpt lat="44.4263863855312" lon="11.685278189652637"><ele>29.0</ele><time>2026-05-03T10:35:52.999Z</time></trkpt><trkpt lat="44.42647839854404" lon="11.685412182246122"><ele>28.5</ele><time>2026-05-03T10:35:53.999Z</time></trkpt><trkpt lat="44.426566986487906" lon="11.68553395629033"><ele>28.0</ele><time>2026-05-03T10:35:54.999Z</time></trkpt><trkpt lat="44.42665638813591" lon="11.685656399214173"><ele>28.0</ele><time>2026-05-03T10:35:55.999Z</time></trkpt><trkpt lat="44.42674302184076" lon="11.685778438276147"><ele>28.0</ele><time>2026-05-03T10:35:56.999Z</time></trkpt><trkpt lat="44.42682981831398" lon="11.685900645623974"><ele>28.0</ele><time>2026-05-03T10:35:57.999Z</time></trkpt><trkpt lat="44.42691619421231" lon="11.68602711309333"><ele>28.0</ele><time>2026-05-03T10:35:58.999Z</time></trkpt><trkpt lat="44.42700084490735" lon="11.686150665619355"><ele>28.0</ele><time>2026-05-03T10:35:59.999Z</time></trkpt><trkpt lat="44.42708607438994" lon="11.686274509064283"><ele>28.0</ele><time>2026-05-03T10:36:00.999Z</time></trkpt><trkpt lat="44.42717247994629" lon="11.686397233859818"><ele>28.0</ele><time>2026-05-03T10:36:01.999Z</time></trkpt><trkpt lat="44.42725494476228" lon="11.68651786940848"><ele>28.0</ele><time>2026-05-03T10:36:02.999Z</time></trkpt><trkpt lat="44.42733415569058" lon="11.686635036166257"><ele>28.0</ele><time>2026-05-03T10:36:03.999Z</time></trkpt><trkpt lat="44.42741450303619" lon="11.686752283556682"><ele>27.999999999999996</ele><time>2026-05-03T10:36:04.999Z</time></trkpt><trkpt lat="44.42749233595592" lon="11.686866953823234"><ele>27.999999999999996</ele><time>2026-05-03T10:36:05.999Z</time></trkpt><trkpt lat="44.427568888418286" lon="11.686977581893363"><ele>28.0</ele><time>2026-05-03T10:36:06.999Z</time></trkpt><trkpt lat="44.4276435086301" lon="11.687085396192279"><ele>28.0</ele><time>2026-05-03T10:36:08Z</time></trkpt><trkpt lat="44.42771729318499" lon="11.687191727880007"><ele>28.4</ele><time>2026-05-03T10:36:09Z</time></trkpt><trkpt lat="44.42778813913679" lon="11.687295479129602"><ele>28.799999999999997</ele><time>2026-05-03T10:36:10Z</time></trkpt><trkpt lat="44.42785662923577" lon="11.687394700356363"><ele>29.2</ele><time>2026-05-03T10:36:11Z</time></trkpt><trkpt lat="44.42792379739369" lon="11.687492822657438"><ele>29.6</ele><time>2026-05-03T10:36:12Z</time></trkpt><trkpt lat="44.42799144428684" lon="11.687584475510452"><ele>30.0</ele><time>2026-05-03T10:36:13Z</time></trkpt><trkpt lat="44.428057785229484" lon="11.687679945787997"><ele>30.2</ele><time>2026-05-03T10:36:14Z</time></trkpt><trkpt lat="44.42812933692577" lon="11.687769602820893"><ele>30.4</ele><time>2026-05-03T10:36:15Z</time></trkpt><trkpt lat="44.428206387554106" lon="11.687852067409493"><ele>30.6</ele><time>2026-05-03T10:36:16Z</time></trkpt><trkpt lat="44.42827681774423" lon="11.687950029559325"><ele>30.8</ele><time>2026-05-03T10:36:17Z</time></trkpt><trkpt lat="44.428351672246265" lon="11.688048072747426"><ele>31.0</ele><time>2026-05-03T10:36:18Z</time></trkpt><trkpt lat="44.428431132912124" lon="11.688152668115979"><ele>31.0</ele><time>2026-05-03T10:36:19Z</time></trkpt><trkpt lat="44.42851198767579" lon="11.688259524299395"><ele>31.0</ele><time>2026-05-03T10:36:20Z</time></trkpt><trkpt lat="44.42859760805162" lon="11.68836588429607"><ele>31.0</ele><time>2026-05-03T10:36:21Z</time></trkpt><trkpt lat="44.42868247824008" lon="11.688475212803954"><ele>31.0</ele><time>2026-05-03T10:36:22Z</time></trkpt><trkpt lat="44.42876795951709" lon="11.688583286701238"><ele>30.6</ele><time>2026-05-03T10:36:23Z</time></trkpt><trkpt lat="44.42885289813321" lon="11.68869328949559"><ele>30.200000000000003</ele><time>2026-05-03T10:36:24Z</time></trkpt><trkpt lat="44.428938527773305" lon="11.68879688096597"><ele>29.799999999999997</ele><time>2026-05-03T10:36:25Z</time></trkpt><trkpt lat="44.42902172625908" lon="11.688893732448376"><ele>29.4</ele><time>2026-05-03T10:36:26Z</time></trkpt><trkpt lat="44.42910084358714" lon="11.688991110877385"><ele>29.0</ele><time>2026-05-03T10:36:27Z</time></trkpt><trkpt lat="44.42918071474655" lon="11.689082092263499"><ele>29.0</ele><time>2026-05-03T10:36:28Z</time></trkpt><trkpt lat="44.429255394108964" lon="11.689168808153958"><ele>29.0</ele><time>2026-05-03T10:36:29Z</time></trkpt><trkpt lat="44.42933367910394" lon="11.689255933291756"><ele>29.0</ele><time>2026-05-03T10:36:30Z</time></trkpt><trkpt lat="44.42940977926743" lon="11.689336990746993"><ele>29.0</ele><time>2026-05-03T10:36:31Z</time></trkpt><trkpt lat="44.42948086734195" lon="11.68941276489188"><ele>29.0</ele><time>2026-05-03T10:36:32Z</time></trkpt><trkpt lat="44.4295557649939" lon="11.689484823988247"><ele>28.999999999999996</ele><time>2026-05-03T10:36:33Z</time></trkpt><trkpt lat="44.429625930878565" lon="11.689553544952604"><ele>29.0</ele><time>2026-05-03T10:36:34Z</time></trkpt><trkpt lat="44.429692921986046" lon="11.689624969565"><ele>29.0</ele><time>2026-05-03T10:36:35Z</time></trkpt><trkpt lat="44.42975554824016" lon="11.689696607512559"><ele>29.0</ele><time>2026-05-03T10:36:36Z</time></trkpt><trkpt lat="44.42980747489701" lon="11.689780999783535"><ele>28.999999999999996</ele><time>2026-05-03T10:36:37Z</time></trkpt><trkpt lat="44.42983059756676" lon="11.689875546825759"><ele>29.0</ele><time>2026-05-03T10:36:38Z</time></trkpt><trkpt lat="44.42979536594615" lon="11.689963284397761"><ele>29.0</ele><time>2026-05-03T10:36:39Z</time></trkpt><trkpt lat="44.42971992526105" lon="11.690096857135108"><ele>29.0</ele><time>2026-05-03T10:36:41Z</time></trkpt><trkpt lat="44.42967700945307" lon="11.690189955778576"><ele>29.0</ele><time>2026-05-03T10:36:42Z</time></trkpt><trkpt lat="44.42962903115242" lon="11.690294036647808"><ele>29.0</ele><time>2026-05-03T10:36:43Z</time></trkpt><trkpt lat="44.4295772687283" lon="11.690409383952387"><ele>29.0</ele><time>2026-05-03T10:36:44Z</time></trkpt><trkpt lat="44.4295215082183" lon="11.6905342874937"><ele>29.0</ele><time>2026-05-03T10:36:45.001Z</time></trkpt><trkpt lat="44.42946505893066" lon="11.690661553262679"><ele>29.0</ele><time>2026-05-03T10:36:46.001Z</time></trkpt><trkpt lat="44.42940328771917" lon="11.690801173795919"><ele>29.0</ele><time>2026-05-03T10:36:47.001Z</time></trkpt><trkpt lat="44.429339041774064" lon="11.690948318500714"><ele>29.0</ele><time>2026-05-03T10:36:48.001Z</time></trkpt><trkpt lat="44.42927704928964" lon="11.691091434852082"><ele>29.0</ele><time>2026-05-03T10:36:49.001Z</time></trkpt><trkpt lat="44.429218717236836" lon="11.691241315328284"><ele>29.0</ele><time>2026-05-03T10:36:50.001Z</time></trkpt><trkpt lat="44.42915848849269" lon="11.691387868493877"><ele>29.0</ele><time>2026-05-03T10:36:51.001Z</time></trkpt><trkpt lat="44.42910105969481" lon="11.691547469313415"><ele>29.0</ele><time>2026-05-03T10:36:52.001Z</time></trkpt><trkpt lat="44.4290459899726" lon="11.6917101588224"><ele>29.0</ele><time>2026-05-03T10:36:53.001Z</time></trkpt><trkpt lat="44.428988582570405" lon="11.6918797851066"><ele>29.0</ele><time>2026-05-03T10:36:54.001Z</time></trkpt><trkpt lat="44.42891103897782" lon="11.692050684454719"><ele>29.0</ele><time>2026-05-03T10:36:55.001Z</time></trkpt><trkpt lat="44.428851564378604" lon="11.692226389774339"><ele>29.0</ele><time>2026-05-03T10:36:56.001Z</time></trkpt><trkpt lat="44.42879078576079" lon="11.692397791593955"><ele>29.5</ele><time>2026-05-03T10:36:57.001Z</time></trkpt><trkpt lat="44.42873087492129" lon="11.69257008513784"><ele>30.0</ele><time>2026-05-03T10:36:58.001Z</time></trkpt><trkpt lat="44.42867310067803" lon="11.692734387036783"><ele>30.5</ele><time>2026-05-03T10:36:59.001Z</time></trkpt><trkpt lat="44.428610529833904" lon="11.692900323758524"><ele>31.0</ele><time>2026-05-03T10:37:00.001Z</time></trkpt><trkpt lat="44.42855377948949" lon="11.693071100398837"><ele>31.0</ele><time>2026-05-03T10:37:01.001Z</time></trkpt><trkpt lat="44.428494384631676" lon="11.693256223423028"><ele>31.0</ele><time>2026-05-03T10:37:02.001Z</time></trkpt><trkpt lat="44.42843300331375" lon="11.69342094215949"><ele>31.0</ele><time>2026-05-03T10:37:03.001Z</time></trkpt><trkpt lat="44.42837472192422" lon="11.69359355565326"><ele>31.0</ele><time>2026-05-03T10:37:04.001Z</time></trkpt><trkpt lat="44.42831808099781" lon="11.693766608863822"><ele>31.0</ele><time>2026-05-03T10:37:05.001Z</time></trkpt><trkpt lat="44.42825844766099" lon="11.693945633510593"><ele>31.0</ele><time>2026-05-03T10:37:06.001Z</time></trkpt><trkpt lat="44.42820141382197" lon="11.694123874618645"><ele>31.0</ele><time>2026-05-03T10:37:07.001Z</time></trkpt><trkpt lat="44.42814392139655" lon="11.694304477205222"><ele>31.0</ele><time>2026-05-03T10:37:08.001Z</time></trkpt><trkpt lat="44.42808816611772" lon="11.694484778245345"><ele>30.25</ele><time>2026-05-03T10:37:09.001Z</time></trkpt><trkpt lat="44.42803263053872" lon="11.694665872888462"><ele>29.5</ele><time>2026-05-03T10:37:10.001Z</time></trkpt><trkpt lat="44.427978865781064" lon="11.694845208024276"><ele>28.75</ele><time>2026-05-03T10:37:11.001Z</time></trkpt><trkpt lat="44.427927138908174" lon="11.695017278583808"><ele>28.0</ele><time>2026-05-03T10:37:12.001Z</time></trkpt><trkpt lat="44.42787718556135" lon="11.695191071503972"><ele>27.5</ele><time>2026-05-03T10:37:13.001Z</time></trkpt><trkpt lat="44.42782857475416" lon="11.695365187263878"><ele>27.0</ele><time>2026-05-03T10:37:14.001Z</time></trkpt><trkpt lat="44.42778050585025" lon="11.695539510456666"><ele>26.5</ele><time>2026-05-03T10:37:15.001Z</time></trkpt><trkpt lat="44.42773234469035" lon="11.695716707005467"><ele>26.0</ele><time>2026-05-03T10:37:16.001Z</time></trkpt><trkpt lat="44.42768884422497" lon="11.695891476500156"><ele>26.0</ele><time>2026-05-03T10:37:17.001Z</time></trkpt><trkpt lat="44.42764115013194" lon="11.696073593291143"><ele>26.0</ele><time>2026-05-03T10:37:18.001Z</time></trkpt><trkpt lat="44.42759459294196" lon="11.696249666335419"><ele>26.0</ele><time>2026-05-03T10:37:19.001Z</time></trkpt><trkpt lat="44.42755170734058" lon="11.696426408871057"><ele>26.0</ele><time>2026-05-03T10:37:20.001Z</time></trkpt><trkpt lat="44.42750764600865" lon="11.696599605478335"><ele>26.0</ele><time>2026-05-03T10:37:21.001Z</time></trkpt><trkpt lat="44.42746199415846" lon="11.696779104111544"><ele>26.0</ele><time>2026-05-03T10:37:22.001Z</time></trkpt><trkpt lat="44.42741574670505" lon="11.69694983587596"><ele>26.0</ele><time>2026-05-03T10:37:23.001Z</time></trkpt><trkpt lat="44.42736937442247" lon="11.697125433943148"><ele>26.0</ele><time>2026-05-03T10:37:24.001Z</time></trkpt><trkpt lat="44.42732429983591" lon="11.697308423356612"><ele>26.0</ele><time>2026-05-03T10:37:25.001Z</time></trkpt><trkpt lat="44.42728455436483" lon="11.697489099336375"><ele>26.0</ele><time>2026-05-03T10:37:26.002Z</time></trkpt><trkpt lat="44.42725555209767" lon="11.69767845459294"><ele>26.0</ele><time>2026-05-03T10:37:27.002Z</time></trkpt><trkpt lat="44.42723340724169" lon="11.697868711258112"><ele>26.0</ele><time>2026-05-03T10:37:28.002Z</time></trkpt><trkpt lat="44.42722310100089" lon="11.698063646239703"><ele>26.0</ele><time>2026-05-03T10:37:29.002Z</time></trkpt><trkpt lat="44.427221355327006" lon="11.698267976103525"><ele>26.0</ele><time>2026-05-03T10:37:30.002Z</time></trkpt><trkpt lat="44.42722830587527" lon="11.698475321487322"><ele>26.0</ele><time>2026-05-03T10:37:31.002Z</time></trkpt><trkpt lat="44.42723845074579" lon="11.698680783448618"><ele>26.0</ele><time>2026-05-03T10:37:32.002Z</time></trkpt><trkpt lat="44.427249230322275" lon="11.698881374914787"><ele>26.25</ele><time>2026-05-03T10:37:33.002Z</time></trkpt><trkpt lat="44.42725572168443" lon="11.699077314220474"><ele>26.5</ele><time>2026-05-03T10:37:34.002Z</time></trkpt><trkpt lat="44.42726636697188" lon="11.699272113213988"><ele>26.75</ele><time>2026-05-03T10:37:35.002Z</time></trkpt><trkpt lat="44.42727914713984" lon="11.699464838729828"><ele>27.0</ele><time>2026-05-03T10:37:36.002Z</time></trkpt><trkpt lat="44.42729054657481" lon="11.699652513343466"><ele>27.25</ele><time>2026-05-03T10:37:37.002Z</time></trkpt><trkpt lat="44.42730512949001" lon="11.699841020981596"><ele>27.5</ele><time>2026-05-03T10:37:38.002Z</time></trkpt><trkpt lat="44.4273182013748" lon="11.700028655231968"><ele>27.75</ele><time>2026-05-03T10:37:39.002Z</time></trkpt><trkpt lat="44.42732867222158" lon="11.700214550535348"><ele>28.0</ele><time>2026-05-03T10:37:40.002Z</time></trkpt><trkpt lat="44.427334750696865" lon="11.700395506331201"><ele>28.0</ele><time>2026-05-03T10:37:41.002Z</time></trkpt><trkpt lat="44.427342040959815" lon="11.700572015363056"><ele>28.0</ele><time>2026-05-03T10:37:42.002Z</time></trkpt><trkpt lat="44.427347166725575" lon="11.700742088823759"><ele>28.0</ele><time>2026-05-03T10:37:43.002Z</time></trkpt><trkpt lat="44.42735928782529" lon="11.700922229080508"><ele>28.0</ele><time>2026-05-03T10:37:44.002Z</time></trkpt><trkpt lat="44.42737272213372" lon="11.7010926776108"><ele>27.799999999999997</ele><time>2026-05-03T10:37:45.002Z</time></trkpt><trkpt lat="44.4273834845029" lon="11.701254467157192"><ele>27.599999999999998</ele><time>2026-05-03T10:37:46.002Z</time></trkpt><trkpt lat="44.42739587299918" lon="11.70140618466745"><ele>27.400000000000002</ele><time>2026-05-03T10:37:47.002Z</time></trkpt><trkpt lat="44.427405699070405" lon="11.701573390394202"><ele>27.200000000000003</ele><time>2026-05-03T10:37:48.002Z</time></trkpt><trkpt lat="44.42740931780362" lon="11.7017176343588"><ele>27.0</ele><time>2026-05-03T10:37:48.999Z</time></trkpt><trkpt lat="44.42742015089882" lon="11.701860652492797"><ele>27.0</ele><time>2026-05-03T10:37:49.999Z</time></trkpt><trkpt lat="44.42742851821878" lon="11.702001118944265"><ele>27.000000000000004</ele><time>2026-05-03T10:37:50.999Z</time></trkpt><trkpt lat="44.42743907538291" lon="11.702147965324272"><ele>27.000000000000004</ele><time>2026-05-03T10:37:51.999Z</time></trkpt><trkpt lat="44.42744757858925" lon="11.70229606035518"><ele>27.0</ele><time>2026-05-03T10:37:52.999Z</time></trkpt><trkpt lat="44.42745499936215" lon="11.7024425588013"><ele>27.0</ele><time>2026-05-03T10:37:53.999Z</time></trkpt><trkpt lat="44.427463889623034" lon="11.702592303469649"><ele>27.0</ele><time>2026-05-03T10:37:54.999Z</time></trkpt><trkpt lat="44.42747595751325" lon="11.702745879275257"><ele>27.0</ele><time>2026-05-03T10:37:55.999Z</time></trkpt><trkpt lat="44.42748278289641" lon="11.702900447201596"><ele>27.0</ele><time>2026-05-03T10:37:56.999Z</time></trkpt><trkpt lat="44.42749077129057" lon="11.703065110445296"><ele>27.0</ele><time>2026-05-03T10:37:58Z</time></trkpt><trkpt lat="44.42750257662437" lon="11.703224870226457"><ele>26.75</ele><time>2026-05-03T10:37:58.999Z</time></trkpt><trkpt lat="44.42750884827306" lon="11.703385264257959"><ele>26.5</ele><time>2026-05-03T10:37:59.999Z</time></trkpt><trkpt lat="44.42751786235008" lon="11.703548725317741"><ele>26.25</ele><time>2026-05-03T10:38:01Z</time></trkpt><trkpt lat="44.42752862611634" lon="11.703715027719475"><ele>26.0</ele><time>2026-05-03T10:38:02Z</time></trkpt><trkpt lat="44.427538803424596" lon="11.703883137398487"><ele>26.0</ele><time>2026-05-03T10:38:03Z</time></trkpt><trkpt lat="44.42754914657684" lon="11.70405659795409"><ele>26.0</ele><time>2026-05-03T10:38:04Z</time></trkpt><trkpt lat="44.42755877065403" lon="11.704217263207509"><ele>26.0</ele><time>2026-05-03T10:38:05Z</time></trkpt><trkpt lat="44.427562516046" lon="11.704389911210557"><ele>26.0</ele><time>2026-05-03T10:38:06Z</time></trkpt><trkpt lat="44.42757082944751" lon="11.704555468559045"><ele>25.75</ele><time>2026-05-03T10:38:07Z</time></trkpt><trkpt lat="44.42758124734914" lon="11.70472381275832"><ele>25.5</ele><time>2026-05-03T10:38:08Z</time></trkpt><trkpt lat="44.42759107688841" lon="11.704894441605573"><ele>25.25</ele><time>2026-05-03T10:38:09Z</time></trkpt><trkpt lat="44.42760057498057" lon="11.705063315520785"><ele>25.0</ele><time>2026-05-03T10:38:10Z</time></trkpt><trkpt lat="44.42761049996634" lon="11.705234716174953"><ele>25.25</ele><time>2026-05-03T10:38:11Z</time></trkpt><trkpt lat="44.42762008868042" lon="11.705399412156579"><ele>25.5</ele><time>2026-05-03T10:38:12Z</time></trkpt><trkpt lat="44.4276294253471" lon="11.705570099606014"><ele>25.75</ele><time>2026-05-03T10:38:13Z</time></trkpt><trkpt lat="44.427637590655195" lon="11.705739149391166"><ele>26.0</ele><time>2026-05-03T10:38:14Z</time></trkpt><trkpt lat="44.427646960206516" lon="11.705909083312896"><ele>26.25</ele><time>2026-05-03T10:38:15Z</time></trkpt><trkpt lat="44.42765499617515" lon="11.706083750117353"><ele>26.5</ele><time>2026-05-03T10:38:16Z</time></trkpt><trkpt lat="44.4276655439904" lon="11.70625679085169"><ele>26.75</ele><time>2026-05-03T10:38:17Z</time></trkpt><trkpt lat="44.42767729711313" lon="11.706430786979372"><ele>27.0</ele><time>2026-05-03T10:38:18Z</time></trkpt><trkpt lat="44.42768483930469" lon="11.706610613902816"><ele>27.0</ele><time>2026-05-03T10:38:19Z</time></trkpt><trkpt lat="44.42766404654452" lon="11.70679134308889"><ele>27.0</ele><time>2026-05-03T10:38:20Z</time></trkpt><trkpt lat="44.42767446417515" lon="11.706958801656402"><ele>27.0</ele><time>2026-05-03T10:38:21Z</time></trkpt><trkpt lat="44.42768533519661" lon="11.70713806620512"><ele>27.0</ele><time>2026-05-03T10:38:22Z</time></trkpt><trkpt lat="44.42769432202755" lon="11.70731755497142"><ele>26.75</ele><time>2026-05-03T10:38:23Z</time></trkpt><trkpt lat="44.4277042280754" lon="11.707498073656945"><ele>26.5</ele><time>2026-05-03T10:38:24Z</time></trkpt><trkpt lat="44.42771197990878" lon="11.707671992066036"><ele>26.25</ele><time>2026-05-03T10:38:25Z</time></trkpt><trkpt lat="44.42771913252277" lon="11.707847643169774"><ele>26.0</ele><time>2026-05-03T10:38:26Z</time></trkpt><trkpt lat="44.42773087323024" lon="11.708019628633467"><ele>25.75</ele><time>2026-05-03T10:38:27Z</time></trkpt><trkpt lat="44.427739940747884" lon="11.708199721203936"><ele>25.5</ele><time>2026-05-03T10:38:28Z</time></trkpt><trkpt lat="44.427754514348386" lon="11.708378533454662"><ele>25.25</ele><time>2026-05-03T10:38:29Z</time></trkpt><trkpt lat="44.42776623320284" lon="11.708561278679637"><ele>25.0</ele><time>2026-05-03T10:38:30Z</time></trkpt><trkpt lat="44.42777487128602" lon="11.708743470997936"><ele>25.0</ele><time>2026-05-03T10:38:31Z</time></trkpt><trkpt lat="44.42778888109383" lon="11.70893301641585"><ele>25.0</ele><time>2026-05-03T10:38:32Z</time></trkpt><trkpt lat="44.427801206544366" lon="11.709125863191426"><ele>25.0</ele><time>2026-05-03T10:38:33Z</time></trkpt><trkpt lat="44.42781478952986" lon="11.709318092982834"><ele>25.0</ele><time>2026-05-03T10:38:34Z</time></trkpt><trkpt lat="44.42782526937898" lon="11.709514094090068"><ele>25.0</ele><time>2026-05-03T10:38:35Z</time></trkpt><trkpt lat="44.42783470030299" lon="11.709707049173762"><ele>25.0</ele><time>2026-05-03T10:38:36Z</time></trkpt><trkpt lat="44.42784511288988" lon="11.709896700040963"><ele>25.0</ele><time>2026-05-03T10:38:37Z</time></trkpt><trkpt lat="44.427853538520246" lon="11.71008844982533"><ele>25.0</ele><time>2026-05-03T10:38:38Z</time></trkpt><trkpt lat="44.42786433270585" lon="11.710278751045879"><ele>24.75</ele><time>2026-05-03T10:38:39Z</time></trkpt><trkpt lat="44.42787548410978" lon="11.710473215111364"><ele>24.5</ele><time>2026-05-03T10:38:40Z</time></trkpt><trkpt lat="44.42788432468461" lon="11.710660946645083"><ele>24.25</ele><time>2026-05-03T10:38:41Z</time></trkpt><trkpt lat="44.42789473912873" lon="11.710856783094842"><ele>24.0</ele><time>2026-05-03T10:38:42.001Z</time></trkpt><trkpt lat="44.42790377018716" lon="11.71104912654498"><ele>24.25</ele><time>2026-05-03T10:38:43.001Z</time></trkpt><trkpt lat="44.427915313269395" lon="11.711241216683419"><ele>24.5</ele><time>2026-05-03T10:38:44.001Z</time></trkpt><trkpt lat="44.42792628176959" lon="11.711431280579026"><ele>24.75</ele><time>2026-05-03T10:38:45.001Z</time></trkpt><trkpt lat="44.42793532077924" lon="11.711622922713117"><ele>25.0</ele><time>2026-05-03T10:38:46.001Z</time></trkpt><trkpt lat="44.427943375454404" lon="11.711811127096027"><ele>24.5</ele><time>2026-05-03T10:38:47.001Z</time></trkpt><trkpt lat="44.42795420373118" lon="11.712000620832077"><ele>24.0</ele><time>2026-05-03T10:38:48.001Z</time></trkpt><trkpt lat="44.42796689484212" lon="11.712190484534675"><ele>23.5</ele><time>2026-05-03T10:38:49.001Z</time></trkpt><trkpt lat="44.427979071847965" lon="11.71237932393026"><ele>23.0</ele><time>2026-05-03T10:38:50.001Z</time></trkpt><trkpt lat="44.427989829502344" lon="11.712565290177771"><ele>23.0</ele><time>2026-05-03T10:38:51.001Z</time></trkpt><trkpt lat="44.42799903888076" lon="11.71274806652613"><ele>23.0</ele><time>2026-05-03T10:38:52.001Z</time></trkpt><trkpt lat="44.42800906521341" lon="11.712929915079751"><ele>23.0</ele><time>2026-05-03T10:38:53.001Z</time></trkpt><trkpt lat="44.42801848390782" lon="11.713112202267"><ele>23.0</ele><time>2026-05-03T10:38:54.001Z</time></trkpt><trkpt lat="44.42802847919405" lon="11.713296365723203"><ele>23.0</ele><time>2026-05-03T10:38:55.001Z</time></trkpt><trkpt lat="44.42803940575871" lon="11.713482976437735"><ele>23.0</ele><time>2026-05-03T10:38:56.001Z</time></trkpt><trkpt lat="44.42805107713825" lon="11.713672839460973"><ele>23.0</ele><time>2026-05-03T10:38:57.001Z</time></trkpt><trkpt lat="44.428064206890646" lon="11.713868836894402"><ele>23.0</ele><time>2026-05-03T10:38:58.001Z</time></trkpt><trkpt lat="44.42807501952276" lon="11.714058032779409"><ele>23.25</ele><time>2026-05-03T10:38:59.001Z</time></trkpt><trkpt lat="44.428086132629886" lon="11.714251271541844"><ele>23.5</ele><time>2026-05-03T10:39:00.001Z</time></trkpt><trkpt lat="44.428096332319534" lon="11.71444128545927"><ele>23.75</ele><time>2026-05-03T10:39:01.001Z</time></trkpt><trkpt lat="44.428104586679275" lon="11.714622218387051"><ele>24.0</ele><time>2026-05-03T10:39:02.001Z</time></trkpt><trkpt lat="44.42811301715479" lon="11.714812137121926"><ele>24.25</ele><time>2026-05-03T10:39:03.001Z</time></trkpt><trkpt lat="44.42812342232942" lon="11.715000809933692"><ele>24.5</ele><time>2026-05-03T10:39:04.001Z</time></trkpt><trkpt lat="44.42813287344772" lon="11.715189719547546"><ele>24.75</ele><time>2026-05-03T10:39:05.001Z</time></trkpt><trkpt lat="44.42814252705106" lon="11.715375767631807"><ele>25.0</ele><time>2026-05-03T10:39:06.001Z</time></trkpt><trkpt lat="44.428151026504345" lon="11.715565156965157"><ele>25.0</ele><time>2026-05-03T10:39:07.001Z</time></trkpt><trkpt lat="44.42815894880374" lon="11.71575508350411"><ele>25.0</ele><time>2026-05-03T10:39:08.001Z</time></trkpt><trkpt lat="44.42816650620471" lon="11.715944468535444"><ele>25.0</ele><time>2026-05-03T10:39:09.001Z</time></trkpt><trkpt lat="44.42817608085936" lon="11.716128346839032"><ele>25.0</ele><time>2026-05-03T10:39:10.001Z</time></trkpt><trkpt lat="44.428186802015965" lon="11.716312446885546"><ele>24.75</ele><time>2026-05-03T10:39:11.001Z</time></trkpt><trkpt lat="44.42819734173919" lon="11.716499093457307"><ele>24.5</ele><time>2026-05-03T10:39:12.001Z</time></trkpt><trkpt lat="44.42821257763442" lon="11.716675153793828"><ele>24.25</ele><time>2026-05-03T10:39:13.001Z</time></trkpt><trkpt lat="44.428223995696285" lon="11.716859827249158"><ele>24.0</ele><time>2026-05-03T10:39:14.001Z</time></trkpt><trkpt lat="44.42823682458433" lon="11.717041497200519"><ele>23.75</ele><time>2026-05-03T10:39:15.001Z</time></trkpt><trkpt lat="44.428249989292084" lon="11.717215243060455"><ele>23.5</ele><time>2026-05-03T10:39:16.001Z</time></trkpt><trkpt lat="44.428264725474214" lon="11.717381719282871"><ele>23.25</ele><time>2026-05-03T10:39:17.001Z</time></trkpt><trkpt lat="44.428275404145054" lon="11.717539091012513"><ele>23.0</ele><time>2026-05-03T10:39:18.001Z</time></trkpt><trkpt lat="44.428286488738976" lon="11.717695894758837"><ele>23.0</ele><time>2026-05-03T10:39:19.001Z</time></trkpt><trkpt lat="44.42829666920826" lon="11.717852984747948"><ele>23.0</ele><time>2026-05-03T10:39:20.001Z</time></trkpt><trkpt lat="44.4283083320772" lon="11.718009919922908"><ele>23.0</ele><time>2026-05-03T10:39:21.001Z</time></trkpt><trkpt lat="44.42832298218622" lon="11.718169130987524"><ele>23.0</ele><time>2026-05-03T10:39:22.001Z</time></trkpt><trkpt lat="44.42833658582658" lon="11.718335211709189"><ele>23.0</ele><time>2026-05-03T10:39:23.002Z</time></trkpt><trkpt lat="44.42835049851405" lon="11.718501537122995"><ele>23.0</ele><time>2026-05-03T10:39:24.002Z</time></trkpt><trkpt lat="44.42836480247688" lon="11.718667064885814"><ele>23.0</ele><time>2026-05-03T10:39:25.002Z</time></trkpt><trkpt lat="44.42837647188298" lon="11.718840057411676"><ele>23.0</ele><time>2026-05-03T10:39:26.002Z</time></trkpt><trkpt lat="44.42838925863592" lon="11.719009436508642"><ele>23.25</ele><time>2026-05-03T10:39:27.002Z</time></trkpt><trkpt lat="44.428402724107514" lon="11.71918938329535"><ele>23.5</ele><time>2026-05-03T10:39:28.002Z</time></trkpt><trkpt lat="44.42841706347086" lon="11.719368436738606"><ele>23.75</ele><time>2026-05-03T10:39:29.002Z</time></trkpt><trkpt lat="44.42842758555658" lon="11.719547397465728"><ele>24.0</ele><time>2026-05-03T10:39:30.002Z</time></trkpt><trkpt lat="44.428432375480185" lon="11.719723753478497"><ele>23.75</ele><time>2026-05-03T10:39:31.002Z</time></trkpt><trkpt lat="44.42844101498735" lon="11.719899517465148"><ele>23.5</ele><time>2026-05-03T10:39:32.002Z</time></trkpt><trkpt lat="44.42844777778864" lon="11.720076839594073"><ele>23.25</ele><time>2026-05-03T10:39:33.002Z</time></trkpt><trkpt lat="44.42845774639974" lon="11.720255004494938"><ele>23.0</ele><time>2026-05-03T10:39:34.002Z</time></trkpt><trkpt lat="44.42846480682424" lon="11.720435383324594"><ele>23.0</ele><time>2026-05-03T10:39:35.002Z</time></trkpt><trkpt lat="44.428473127458425" lon="11.72061823868188"><ele>23.0</ele><time>2026-05-03T10:39:36.002Z</time></trkpt><trkpt lat="44.428479234393976" lon="11.720796060638698"><ele>23.0</ele><time>2026-05-03T10:39:37.002Z</time></trkpt><trkpt lat="44.42848421636743" lon="11.720976160197678"><ele>23.0</ele><time>2026-05-03T10:39:38.002Z</time></trkpt><trkpt lat="44.42849589069927" lon="11.721156251294136"><ele>22.75</ele><time>2026-05-03T10:39:39.002Z</time></trkpt><trkpt lat="44.428504448860885" lon="11.721336605756996"><ele>22.5</ele><time>2026-05-03T10:39:40.002Z</time></trkpt><trkpt lat="44.428512873846984" lon="11.72151877941251"><ele>22.25</ele><time>2026-05-03T10:39:41.002Z</time></trkpt><trkpt lat="44.42851767987398" lon="11.721700454432337"><ele>22.0</ele><time>2026-05-03T10:39:42.002Z</time></trkpt><trkpt lat="44.428522014460334" lon="11.72187895618415"><ele>22.0</ele><time>2026-05-03T10:39:43.002Z</time></trkpt><trkpt lat="44.428530142051216" lon="11.722058333044037"><ele>22.0</ele><time>2026-05-03T10:39:44.002Z</time></trkpt><trkpt lat="44.428537738562355" lon="11.72224010552734"><ele>22.0</ele><time>2026-05-03T10:39:45.002Z</time></trkpt><trkpt lat="44.42854418471384" lon="11.722417970221752"><ele>22.0</ele><time>2026-05-03T10:39:46.002Z</time></trkpt><trkpt lat="44.42854953263487" lon="11.722596400655098"><ele>22.25</ele><time>2026-05-03T10:39:47.002Z</time></trkpt><trkpt lat="44.42855583800826" lon="11.72277979802504"><ele>22.5</ele><time>2026-05-03T10:39:48.002Z</time></trkpt><trkpt lat="44.428562036927424" lon="11.722965269437164"><ele>22.75</ele><time>2026-05-03T10:39:49.002Z</time></trkpt><trkpt lat="44.42857306814767" lon="11.723149019756043"><ele>23.0</ele><time>2026-05-03T10:39:50.002Z</time></trkpt><trkpt lat="44.42858023520117" lon="11.723336728029256"><ele>23.0</ele><time>2026-05-03T10:39:51.002Z</time></trkpt><trkpt lat="44.42858957724153" lon="11.723515174180823"><ele>23.0</ele><time>2026-05-03T10:39:52.002Z</time></trkpt><trkpt lat="44.42860174962913" lon="11.723686541388172"><ele>23.0</ele><time>2026-05-03T10:39:53.002Z</time></trkpt><trkpt lat="44.42861108943864" lon="11.723836591819449"><ele>23.0</ele><time>2026-05-03T10:39:54.002Z</time></trkpt><trkpt lat="44.42861723595711" lon="11.72398461124647"><ele>23.0</ele><time>2026-05-03T10:39:54.999Z</time></trkpt><trkpt lat="44.428623792749654" lon="11.724129672281983"><ele>23.0</ele><time>2026-05-03T10:39:55.999Z</time></trkpt><trkpt lat="44.42863345070643" lon="11.724277786141661"><ele>23.0</ele><time>2026-05-03T10:39:56.999Z</time></trkpt><trkpt lat="44.42864057743332" lon="11.724430801597475"><ele>23.0</ele><time>2026-05-03T10:39:57.999Z</time></trkpt><trkpt lat="44.42864667132457" lon="11.724589240868358"><ele>23.0</ele><time>2026-05-03T10:39:58.999Z</time></trkpt><trkpt lat="44.42865671303869" lon="11.724754374408032"><ele>23.0</ele><time>2026-05-03T10:39:59.999Z</time></trkpt><trkpt lat="44.428666894025014" lon="11.724924681026176"><ele>23.0</ele><time>2026-05-03T10:40:00.999Z</time></trkpt><trkpt lat="44.42867510557488" lon="11.725105023686902"><ele>23.0</ele><time>2026-05-03T10:40:01.999Z</time></trkpt><trkpt lat="44.42869027847766" lon="11.7252863359073"><ele>23.0</ele><time>2026-05-03T10:40:02.999Z</time></trkpt><trkpt lat="44.428701481863136" lon="11.725467485111363"><ele>23.0</ele><time>2026-05-03T10:40:03.999Z</time></trkpt><trkpt lat="44.42871154171393" lon="11.725650566629064"><ele>23.0</ele><time>2026-05-03T10:40:04.999Z</time></trkpt><trkpt lat="44.428716286305885" lon="11.725841019000427"><ele>23.0</ele><time>2026-05-03T10:40:05.999Z</time></trkpt><trkpt lat="44.42872479468914" lon="11.726027393092101"><ele>23.0</ele><time>2026-05-03T10:40:06.999Z</time></trkpt><trkpt lat="44.42873186357133" lon="11.72622309141001"><ele>22.5</ele><time>2026-05-03T10:40:07.999Z</time></trkpt><trkpt lat="44.42874719578057" lon="11.726408770613437"><ele>22.0</ele><time>2026-05-03T10:40:08.999Z</time></trkpt><trkpt lat="44.428758479797914" lon="11.726606642780741"><ele>21.5</ele><time>2026-05-03T10:40:09.999Z</time></trkpt><trkpt lat="44.428769617309385" lon="11.72679601663543"><ele>21.0</ele><time>2026-05-03T10:40:10.999Z</time></trkpt><trkpt lat="44.42877938511611" lon="11.726991320028345"><ele>21.0</ele><time>2026-05-03T10:40:11.999Z</time></trkpt><trkpt lat="44.428796560377464" lon="11.727168981333575"><ele>21.0</ele><time>2026-05-03T10:40:12.999Z</time></trkpt><trkpt lat="44.428811922757156" lon="11.727348868607594"><ele>21.0</ele><time>2026-05-03T10:40:13.999Z</time></trkpt><trkpt lat="44.428828496166595" lon="11.72752137823261"><ele>21.0</ele><time>2026-05-03T10:40:14.999Z</time></trkpt><trkpt lat="44.42884552467402" lon="11.727692054619636"><ele>20.75</ele><time>2026-05-03T10:40:15.999Z</time></trkpt><trkpt lat="44.42886480760793" lon="11.72785145191833"><ele>20.5</ele><time>2026-05-03T10:40:16.999Z</time></trkpt><trkpt lat="44.428882208846794" lon="11.728009459005506"><ele>20.25</ele><time>2026-05-03T10:40:17.999Z</time></trkpt><trkpt lat="44.428902636368406" lon="11.728171129239563"><ele>20.0</ele><time>2026-05-03T10:40:18.999Z</time></trkpt><trkpt lat="44.42891903942625" lon="11.728340691056934"><ele>20.0</ele><time>2026-05-03T10:40:19.999Z</time></trkpt><trkpt lat="44.428933822465495" lon="11.728506692152509"><ele>20.0</ele><time>2026-05-03T10:40:20.999Z</time></trkpt><trkpt lat="44.42894932425144" lon="11.728674220652595"><ele>20.0</ele><time>2026-05-03T10:40:21.999Z</time></trkpt><trkpt lat="44.428962963856804" lon="11.728844784885265"><ele>20.0</ele><time>2026-05-03T10:40:22.999Z</time></trkpt><trkpt lat="44.428978135417665" lon="11.72900284937376"><ele>20.2</ele><time>2026-05-03T10:40:23.999Z</time></trkpt><trkpt lat="44.428991541578256" lon="11.729164328444279"><ele>20.4</ele><time>2026-05-03T10:40:25Z</time></trkpt><trkpt lat="44.429001026965274" lon="11.72931852185418"><ele>20.6</ele><time>2026-05-03T10:40:26Z</time></trkpt><trkpt lat="44.42900770595159" lon="11.729471941155971"><ele>20.8</ele><time>2026-05-03T10:40:27Z</time></trkpt><trkpt lat="44.42900916871326" lon="11.72962258598811"><ele>21.0</ele><time>2026-05-03T10:40:28Z</time></trkpt><trkpt lat="44.429013981200185" lon="11.729772637836927"><ele>21.0</ele><time>2026-05-03T10:40:29Z</time></trkpt><trkpt lat="44.42901799013005" lon="11.729925869181068"><ele>21.0</ele><time>2026-05-03T10:40:30Z</time></trkpt><trkpt lat="44.429023643313485" lon="11.730081166675452"><ele>21.0</ele><time>2026-05-03T10:40:31Z</time></trkpt><trkpt lat="44.42902947594072" lon="11.730236034488167"><ele>21.0</ele><time>2026-05-03T10:40:32Z</time></trkpt><trkpt lat="44.42903996193925" lon="11.730388806364438"><ele>21.0</ele><time>2026-05-03T10:40:33Z</time></trkpt><trkpt lat="44.42904771658767" lon="11.730546088981844"><ele>21.0</ele><time>2026-05-03T10:40:34Z</time></trkpt><trkpt lat="44.42905564103121" lon="11.730710389987031"><ele>21.0</ele><time>2026-05-03T10:40:35Z</time></trkpt><trkpt lat="44.4290634630816" lon="11.73087399061495"><ele>21.0</ele><time>2026-05-03T10:40:36Z</time></trkpt><trkpt lat="44.429071555269026" lon="11.731037885939775"><ele>21.0</ele><time>2026-05-03T10:40:37Z</time></trkpt><trkpt lat="44.4290783294485" lon="11.731209140963207"><ele>20.75</ele><time>2026-05-03T10:40:38Z</time></trkpt><trkpt lat="44.42908566226388" lon="11.731375956186323"><ele>20.5</ele><time>2026-05-03T10:40:39Z</time></trkpt><trkpt lat="44.429094795720964" lon="11.731543675725703"><ele>20.25</ele><time>2026-05-03T10:40:40Z</time></trkpt><trkpt lat="44.42910169159537" lon="11.731710023140414"><ele>20.0</ele><time>2026-05-03T10:40:41Z</time></trkpt><trkpt lat="44.42910839431553" lon="11.731876276491466"><ele>19.75</ele><time>2026-05-03T10:40:42Z</time></trkpt><trkpt lat="44.42911708800796" lon="11.732043755857628"><ele>19.5</ele><time>2026-05-03T10:40:43Z</time></trkpt><trkpt lat="44.429123785885764" lon="11.73221072287308"><ele>19.25</ele><time>2026-05-03T10:40:44Z</time></trkpt><trkpt lat="44.429131137018814" lon="11.732379575989254"><ele>19.0</ele><time>2026-05-03T10:40:45Z</time></trkpt><trkpt lat="44.42914072488076" lon="11.732550134595705"><ele>19.0</ele><time>2026-05-03T10:40:46Z</time></trkpt><trkpt lat="44.42915264172473" lon="11.732712738363388"><ele>19.0</ele><time>2026-05-03T10:40:47Z</time></trkpt><trkpt lat="44.429162278869526" lon="11.732881734982762"><ele>19.0</ele><time>2026-05-03T10:40:48Z</time></trkpt><trkpt lat="44.42917322478812" lon="11.73304968025153"><ele>19.0</ele><time>2026-05-03T10:40:49Z</time></trkpt><trkpt lat="44.429180412066465" lon="11.733217496169567"><ele>19.5</ele><time>2026-05-03T10:40:50Z</time></trkpt><trkpt lat="44.42918906860974" lon="11.733383580929777"><ele>20.0</ele><time>2026-05-03T10:40:51Z</time></trkpt><trkpt lat="44.42920071675343" lon="11.733560502201126"><ele>20.5</ele><time>2026-05-03T10:40:52Z</time></trkpt><trkpt lat="44.4292095356178" lon="11.733733075171815"><ele>21.0</ele><time>2026-05-03T10:40:53Z</time></trkpt><trkpt lat="44.429218538830945" lon="11.733904438125519"><ele>21.0</ele><time>2026-05-03T10:40:54Z</time></trkpt><trkpt lat="44.42922716440816" lon="11.734073664994321"><ele>21.0</ele><time>2026-05-03T10:40:55Z</time></trkpt><trkpt lat="44.42923163628746" lon="11.734246162114122"><ele>21.0</ele><time>2026-05-03T10:40:56Z</time></trkpt><trkpt lat="44.42923895678509" lon="11.734416872963408"><ele>21.0</ele><time>2026-05-03T10:40:57Z</time></trkpt><trkpt lat="44.42924644493371" lon="11.73458760960736"><ele>20.75</ele><time>2026-05-03T10:40:58Z</time></trkpt><trkpt lat="44.429258571558755" lon="11.734753758759291"><ele>20.5</ele><time>2026-05-03T10:40:59Z</time></trkpt><trkpt lat="44.429269441604426" lon="11.734926821119334"><ele>20.25</ele><time>2026-05-03T10:41:00Z</time></trkpt><trkpt lat="44.429277108428" lon="11.735097651237231"><ele>20.0</ele><time>2026-05-03T10:41:01Z</time></trkpt><trkpt lat="44.429286392730454" lon="11.7352686728575"><ele>20.0</ele><time>2026-05-03T10:41:02Z</time></trkpt><trkpt lat="44.42929563854007" lon="11.735437324052329"><ele>20.0</ele><time>2026-05-03T10:41:03.001Z</time></trkpt><trkpt lat="44.42930529716229" lon="11.735603310399007"><ele>20.0</ele><time>2026-05-03T10:41:04.001Z</time></trkpt><trkpt lat="44.4293145677962" lon="11.735759971841018"><ele>20.0</ele><time>2026-05-03T10:41:05.001Z</time></trkpt><trkpt lat="44.429326204702576" lon="11.735913296847546"><ele>20.0</ele><time>2026-05-03T10:41:06.001Z</time></trkpt><trkpt lat="44.42933290253179" lon="11.736073816481593"><ele>20.0</ele><time>2026-05-03T10:41:07.001Z</time></trkpt><trkpt lat="44.42934322929349" lon="11.736236561826678"><ele>20.0</ele><time>2026-05-03T10:41:08.001Z</time></trkpt><trkpt lat="44.42935329285927" lon="11.736391142028292"><ele>20.0</ele><time>2026-05-03T10:41:09.001Z</time></trkpt><trkpt lat="44.429361980442515" lon="11.736548409488156"><ele>20.0</ele><time>2026-05-03T10:41:10.001Z</time></trkpt><trkpt lat="44.429370947529776" lon="11.736704923156072"><ele>20.0</ele><time>2026-05-03T10:41:11.001Z</time></trkpt><trkpt lat="44.429380763119205" lon="11.736857056355653"><ele>20.0</ele><time>2026-05-03T10:41:12.001Z</time></trkpt><trkpt lat="44.42938967904187" lon="11.737010344009411"><ele>20.0</ele><time>2026-05-03T10:41:13.001Z</time></trkpt><trkpt lat="44.42939739835877" lon="11.737157079535026"><ele>20.0</ele><time>2026-05-03T10:41:14.001Z</time></trkpt><trkpt lat="44.42940540518415" lon="11.737299236044786"><ele>20.166666666666668</ele><time>2026-05-03T10:41:15.001Z</time></trkpt><trkpt lat="44.429410404998194" lon="11.737429825345526"><ele>20.333333333333336</ele><time>2026-05-03T10:41:16.001Z</time></trkpt><trkpt lat="44.42941175473259" lon="11.737547661513203"><ele>20.5</ele><time>2026-05-03T10:41:17.001Z</time></trkpt><trkpt lat="44.42941534119247" lon="11.737650904554478"><ele>20.666666666666668</ele><time>2026-05-03T10:41:18.001Z</time></trkpt><trkpt lat="44.42941610521701" lon="11.737752199977864"><ele>20.833333333333332</ele><time>2026-05-03T10:41:19.001Z</time></trkpt><trkpt lat="44.42941644802307" lon="11.737849480809281"><ele>21.0</ele><time>2026-05-03T10:41:20.001Z</time></trkpt><trkpt lat="44.42941791631034" lon="11.737943814927757"><ele>21.0</ele><time>2026-05-03T10:41:21.001Z</time></trkpt><trkpt lat="44.42941845433748" lon="11.738033602597707"><ele>21.0</ele><time>2026-05-03T10:41:22.001Z</time></trkpt><trkpt lat="44.42942102973936" lon="11.738201843579336"><ele>21.0</ele><time>2026-05-03T10:41:24.001Z</time></trkpt><trkpt lat="44.42942042555937" lon="11.738357239365554"><ele>21.0</ele><time>2026-05-03T10:41:26.001Z</time></trkpt><trkpt lat="44.42942704853464" lon="11.738472130016858"><ele>21.0</ele><time>2026-05-03T10:41:28.001Z</time></trkpt><trkpt lat="44.42942558261613" lon="11.738577186594544"><ele>21.0</ele><time>2026-05-03T10:41:31.001Z</time></trkpt><trkpt lat="44.42942880528209" lon="11.738669258634598"><ele>21.0</ele><time>2026-05-03T10:41:36.001Z</time></trkpt><trkpt lat="44.42943146034355" lon="11.738781506874185"><ele>21.0</ele><time>2026-05-03T10:41:38.001Z</time></trkpt><trkpt lat="44.42943493371716" lon="11.73892944507574"><ele>21.0</ele><time>2026-05-03T10:41:40.001Z</time></trkpt><trkpt lat="44.429444545417496" lon="11.739108692039927"><ele>21.0</ele><time>2026-05-03T10:41:42.002Z</time></trkpt><trkpt lat="44.429447243238116" lon="11.739229326710673"><ele>21.0</ele><time>2026-05-03T10:41:43.002Z</time></trkpt><trkpt lat="44.429452401147586" lon="11.739362956065495"><ele>21.0</ele><time>2026-05-03T10:41:44.002Z</time></trkpt><trkpt lat="44.42945923987317" lon="11.739493974519558"><ele>21.0</ele><time>2026-05-03T10:41:45.002Z</time></trkpt><trkpt lat="44.429470901794765" lon="11.739639997123529"><ele>21.0</ele><time>2026-05-03T10:41:46.002Z</time></trkpt><trkpt lat="44.429481583177626" lon="11.739789842468992"><ele>21.0</ele><time>2026-05-03T10:41:47.002Z</time></trkpt><trkpt lat="44.42949059146682" lon="11.739944257890492"><ele>20.5</ele><time>2026-05-03T10:41:48.002Z</time></trkpt><trkpt lat="44.4294992970531" lon="11.740113088577589"><ele>20.0</ele><time>2026-05-03T10:41:49.002Z</time></trkpt><trkpt lat="44.4295089582358" lon="11.74028681604444"><ele>19.5</ele><time>2026-05-03T10:41:50.002Z</time></trkpt><trkpt lat="44.42951753313032" lon="11.74045708906399"><ele>19.0</ele><time>2026-05-03T10:41:51.002Z</time></trkpt><trkpt lat="44.42952421804376" lon="11.740638156135187"><ele>18.75</ele><time>2026-05-03T10:41:52.002Z</time></trkpt><trkpt lat="44.4295325550526" lon="11.74081571365923"><ele>18.5</ele><time>2026-05-03T10:41:53.002Z</time></trkpt><trkpt lat="44.4295421010557" lon="11.74099006158501"><ele>18.25</ele><time>2026-05-03T10:41:54.002Z</time></trkpt><trkpt lat="44.42954862887274" lon="11.741161985134287"><ele>18.0</ele><time>2026-05-03T10:41:55.002Z</time></trkpt><trkpt lat="44.42955695737999" lon="11.741333469113902"><ele>17.75</ele><time>2026-05-03T10:41:56.002Z</time></trkpt><trkpt lat="44.42956621990198" lon="11.741500509190681"><ele>17.5</ele><time>2026-05-03T10:41:57.002Z</time></trkpt><trkpt lat="44.42957686211875" lon="11.741664643467344"><ele>17.25</ele><time>2026-05-03T10:41:58.002Z</time></trkpt><trkpt lat="44.42958743905821" lon="11.741827914853694"><ele>17.0</ele><time>2026-05-03T10:41:59.002Z</time></trkpt><trkpt lat="44.42959546367032" lon="11.74198065469446"><ele>17.0</ele><time>2026-05-03T10:42:00.002Z</time></trkpt><trkpt lat="44.42960424973578" lon="11.74213252225549"><ele>17.0</ele><time>2026-05-03T10:42:00.999Z</time></trkpt><trkpt lat="44.429611144141376" lon="11.742280953323046"><ele>17.0</ele><time>2026-05-03T10:42:01.999Z</time></trkpt><trkpt lat="44.42961939159886" lon="11.742425849338336"><ele>17.0</ele><time>2026-05-03T10:42:02.999Z</time></trkpt><trkpt lat="44.42962872771101" lon="11.742565656178172"><ele>17.0</ele><time>2026-05-03T10:42:03.999Z</time></trkpt><trkpt lat="44.4296361818593" lon="11.742701683476229"><ele>17.0</ele><time>2026-05-03T10:42:04.999Z</time></trkpt><trkpt lat="44.42964502392604" lon="11.742841722639875"><ele>17.0</ele><time>2026-05-03T10:42:05.999Z</time></trkpt><trkpt lat="44.42965447847106" lon="11.742988469042567"><ele>17.0</ele><time>2026-05-03T10:42:06.999Z</time></trkpt><trkpt lat="44.42966331694589" lon="11.743138950699203"><ele>17.0</ele><time>2026-05-03T10:42:07.999Z</time></trkpt><trkpt lat="44.42967102323515" lon="11.743292865170597"><ele>17.0</ele><time>2026-05-03T10:42:08.999Z</time></trkpt><trkpt lat="44.42968177243487" lon="11.743450316962885"><ele>17.5</ele><time>2026-05-03T10:42:09.999Z</time></trkpt><trkpt lat="44.429688848596506" lon="11.743607400084713"><ele>18.0</ele><time>2026-05-03T10:42:10.999Z</time></trkpt><trkpt lat="44.42969717466432" lon="11.743767352184127"><ele>18.5</ele><time>2026-05-03T10:42:11.999Z</time></trkpt><trkpt lat="44.42971155341348" lon="11.743921445055932"><ele>19.0</ele><time>2026-05-03T10:42:12.999Z</time></trkpt><trkpt lat="44.42971966240519" lon="11.744081993079574"><ele>19.0</ele><time>2026-05-03T10:42:13.999Z</time></trkpt><trkpt lat="44.429727973000965" lon="11.744248564835546"><ele>19.0</ele><time>2026-05-03T10:42:14.999Z</time></trkpt><trkpt lat="44.42973618596088" lon="11.744412546965801"><ele>19.0</ele><time>2026-05-03T10:42:15.999Z</time></trkpt><trkpt lat="44.42974506457284" lon="11.744573739336518"><ele>19.0</ele><time>2026-05-03T10:42:16.999Z</time></trkpt><trkpt lat="44.429753714474536" lon="11.74473960328999"><ele>19.25</ele><time>2026-05-03T10:42:17.999Z</time></trkpt><trkpt lat="44.429763265757096" lon="11.744901433115146"><ele>19.5</ele><time>2026-05-03T10:42:18.999Z</time></trkpt><trkpt lat="44.429770242326754" lon="11.745067763913688"><ele>19.75</ele><time>2026-05-03T10:42:19.999Z</time></trkpt><trkpt lat="44.42977985406254" lon="11.745237966304332"><ele>20.0</ele><time>2026-05-03T10:42:20.999Z</time></trkpt><trkpt lat="44.42978947561078" lon="11.745407252939128"><ele>19.5</ele><time>2026-05-03T10:42:21.999Z</time></trkpt><trkpt lat="44.42979731509036" lon="11.745581478405299"><ele>19.0</ele><time>2026-05-03T10:42:22.999Z</time></trkpt><trkpt lat="44.429807937813095" lon="11.745754352672199"><ele>18.5</ele><time>2026-05-03T10:42:24Z</time></trkpt><trkpt lat="44.429817310180695" lon="11.745932247756725"><ele>18.0</ele><time>2026-05-03T10:42:25Z</time></trkpt><trkpt lat="44.42982481465485" lon="11.746103623079982"><ele>17.8</ele><time>2026-05-03T10:42:26Z</time></trkpt><trkpt lat="44.42983485332972" lon="11.746268086271794"><ele>17.6</ele><time>2026-05-03T10:42:27Z</time></trkpt><trkpt lat="44.42984511253874" lon="11.74642543610875"><ele>17.4</ele><time>2026-05-03T10:42:28Z</time></trkpt><trkpt lat="44.429848666058234" lon="11.746556649138055"><ele>17.2</ele><time>2026-05-03T10:42:29Z</time></trkpt><trkpt lat="44.42985307713397" lon="11.74665907795718"><ele>17.0</ele><time>2026-05-03T10:42:30Z</time></trkpt><trkpt lat="44.42985600625258" lon="11.746778022678434"><ele>17.0</ele><time>2026-05-03T10:42:32Z</time></trkpt><trkpt lat="44.429845932549235" lon="11.746874461049893"><ele>17.0</ele><time>2026-05-03T10:42:35Z</time></trkpt><trkpt lat="44.429846471494976" lon="11.746971819426285"><ele>17.0</ele><time>2026-05-03T10:42:39Z</time></trkpt><trkpt lat="44.42988854706541" lon="11.7470414450527"><ele>17.0</ele><time>2026-05-03T10:42:50Z</time></trkpt><trkpt lat="44.42990570559107" lon="11.747174907323664"><ele>17.0</ele><time>2026-05-03T10:42:52Z</time></trkpt><trkpt lat="44.42990495207741" lon="11.747345285087956"><ele>17.0</ele><time>2026-05-03T10:42:54Z</time></trkpt><trkpt lat="44.4299085606075" lon="11.747450067380928"><ele>17.0</ele><time>2026-05-03T10:42:55Z</time></trkpt><trkpt lat="44.42991316669138" lon="11.747565575519728"><ele>17.0</ele><time>2026-05-03T10:42:56Z</time></trkpt><trkpt lat="44.429917440858944" lon="11.747696309646154"><ele>17.0</ele><time>2026-05-03T10:42:57Z</time></trkpt><trkpt lat="44.42992441040335" lon="11.747833511499378"><ele>17.0</ele><time>2026-05-03T10:42:58Z</time></trkpt><trkpt lat="44.429928340241354" lon="11.747972538284051"><ele>17.0</ele><time>2026-05-03T10:42:59.001Z</time></trkpt><trkpt lat="44.42993727755859" lon="11.748111206411743"><ele>17.0</ele><time>2026-05-03T10:43:00.001Z</time></trkpt><trkpt lat="44.42994759295317" lon="11.74826989614292"><ele>17.0</ele><time>2026-05-03T10:43:01.001Z</time></trkpt><trkpt lat="44.42995794670902" lon="11.748441892514597"><ele>17.0</ele><time>2026-05-03T10:43:02.001Z</time></trkpt><trkpt lat="44.42996945333261" lon="11.748617243815378"><ele>17.0</ele><time>2026-05-03T10:43:03.001Z</time></trkpt><trkpt lat="44.42998294940088" lon="11.748796851396369"><ele>17.0</ele><time>2026-05-03T10:43:04.001Z</time></trkpt><trkpt lat="44.42999905737229" lon="11.74898619573608"><ele>17.0</ele><time>2026-05-03T10:43:05.001Z</time></trkpt><trkpt lat="44.43001114064223" lon="11.749175165589374"><ele>17.0</ele><time>2026-05-03T10:43:06.001Z</time></trkpt><trkpt lat="44.430025628147106" lon="11.749375164420307"><ele>17.0</ele><time>2026-05-03T10:43:07.001Z</time></trkpt><trkpt lat="44.4300329949007" lon="11.749584664119213"><ele>17.25</ele><time>2026-05-03T10:43:08.001Z</time></trkpt><trkpt lat="44.43004252873787" lon="11.749789781373076"><ele>17.5</ele><time>2026-05-03T10:43:09.001Z</time></trkpt><trkpt lat="44.430046982763756" lon="11.749994639342377"><ele>17.75</ele><time>2026-05-03T10:43:10.001Z</time></trkpt><trkpt lat="44.430057339936525" lon="11.750183795232513"><ele>18.0</ele><time>2026-05-03T10:43:11.001Z</time></trkpt><trkpt lat="44.43006252638564" lon="11.7503732486293"><ele>17.75</ele><time>2026-05-03T10:43:12.001Z</time></trkpt><trkpt lat="44.43005412498379" lon="11.750555228673559"><ele>17.5</ele><time>2026-05-03T10:43:13.001Z</time></trkpt><trkpt lat="44.430016128427816" lon="11.75073444137879"><ele>17.25</ele><time>2026-05-03T10:43:14.001Z</time></trkpt><trkpt lat="44.42996940235438" lon="11.75090176061861"><ele>17.0</ele><time>2026-05-03T10:43:15.001Z</time></trkpt><trkpt lat="44.42991399366361" lon="11.751076007544071"><ele>17.0</ele><time>2026-05-03T10:43:16.001Z</time></trkpt><trkpt lat="44.42985555645437" lon="11.751260373466737"><ele>17.0</ele><time>2026-05-03T10:43:17.001Z</time></trkpt><trkpt lat="44.42979554103649" lon="11.751445333412878"><ele>17.0</ele><time>2026-05-03T10:43:18.001Z</time></trkpt><trkpt lat="44.429736622984464" lon="11.751633746391212"><ele>17.0</ele><time>2026-05-03T10:43:19.001Z</time></trkpt><trkpt lat="44.42968044199406" lon="11.751823790270421"><ele>16.333333333333336</ele><time>2026-05-03T10:43:20.001Z</time></trkpt><trkpt lat="44.42961922911442" lon="11.752017465192155"><ele>15.666666666666668</ele><time>2026-05-03T10:43:21.001Z</time></trkpt><trkpt lat="44.42955742328894" lon="11.752210507385854"><ele>15.0</ele><time>2026-05-03T10:43:22.001Z</time></trkpt><trkpt lat="44.42949305722117" lon="11.752408762697732"><ele>15.0</ele><time>2026-05-03T10:43:23.001Z</time></trkpt><trkpt lat="44.42943312722408" lon="11.75260348072535"><ele>15.0</ele><time>2026-05-03T10:43:24.001Z</time></trkpt><trkpt lat="44.4293748956368" lon="11.752807793367316"><ele>15.0</ele><time>2026-05-03T10:43:25.001Z</time></trkpt><trkpt lat="44.42931523813544" lon="11.753012674206332"><ele>14.666666666666668</ele><time>2026-05-03T10:43:26.001Z</time></trkpt><trkpt lat="44.429257649300226" lon="11.75321375225933"><ele>14.333333333333334</ele><time>2026-05-03T10:43:27.001Z</time></trkpt><trkpt lat="44.429202747237134" lon="11.753404187896281"><ele>14.0</ele><time>2026-05-03T10:43:28.001Z</time></trkpt><trkpt lat="44.429119579238325" lon="11.753596449794136"><ele>14.5</ele><time>2026-05-03T10:43:29.001Z</time></trkpt><trkpt lat="44.42906677158522" lon="11.753784788464559"><ele>15.0</ele><time>2026-05-03T10:43:30.001Z</time></trkpt><trkpt lat="44.429009591753186" lon="11.753964363624531"><ele>15.5</ele><time>2026-05-03T10:43:31.001Z</time></trkpt><trkpt lat="44.42894598829632" lon="11.754147622610718"><ele>16.0</ele><time>2026-05-03T10:43:32.001Z</time></trkpt><trkpt lat="44.42888202100603" lon="11.754335560695035"><ele>15.666666666666666</ele><time>2026-05-03T10:43:33.001Z</time></trkpt><trkpt lat="44.42882133688108" lon="11.754529676854286"><ele>15.333333333333332</ele><time>2026-05-03T10:43:34.001Z</time></trkpt><trkpt lat="44.428759292050046" lon="11.754717981661427"><ele>15.0</ele><time>2026-05-03T10:43:35.001Z</time></trkpt><trkpt lat="44.42869817437494" lon="11.754914222894735"><ele>15.0</ele><time>2026-05-03T10:43:36.001Z</time></trkpt><trkpt lat="44.42863762891072" lon="11.75510062717798"><ele>15.0</ele><time>2026-05-03T10:43:37.001Z</time></trkpt><trkpt lat="44.428578450862176" lon="11.75528758784334"><ele>15.0</ele><time>2026-05-03T10:43:38.002Z</time></trkpt><trkpt lat="44.428518474739164" lon="11.755465772475205"><ele>15.0</ele><time>2026-05-03T10:43:39.002Z</time></trkpt><trkpt lat="44.42846062423574" lon="11.755643273062578"><ele>15.0</ele><time>2026-05-03T10:43:40.002Z</time></trkpt><trkpt lat="44.42840281406393" lon="11.755817737362094"><ele>15.0</ele><time>2026-05-03T10:43:41.002Z</time></trkpt><trkpt lat="44.428347202680264" lon="11.75598954356327"><ele>15.0</ele><time>2026-05-03T10:43:42.002Z</time></trkpt><trkpt lat="44.42829423360692" lon="11.756144280740166"><ele>15.0</ele><time>2026-05-03T10:43:43.002Z</time></trkpt><trkpt lat="44.42824703371317" lon="11.75629542583691"><ele>15.2</ele><time>2026-05-03T10:43:44.002Z</time></trkpt><trkpt lat="44.428207004649906" lon="11.756418634531512"><ele>15.4</ele><time>2026-05-03T10:43:45.002Z</time></trkpt><trkpt lat="44.42816870966971" lon="11.756538050234813"><ele>15.600000000000001</ele><time>2026-05-03T10:43:46.002Z</time></trkpt><trkpt lat="44.42813301659221" lon="11.75665373055599"><ele>15.8</ele><time>2026-05-03T10:43:47.002Z</time></trkpt><trkpt lat="44.42809767273345" lon="11.756769170392372"><ele>16.0</ele><time>2026-05-03T10:43:48.002Z</time></trkpt><trkpt lat="44.42806152473475" lon="11.756881615327307"><ele>15.999999999999998</ele><time>2026-05-03T10:43:49.002Z</time></trkpt><trkpt lat="44.42802612061296" lon="11.75699157860869"><ele>16.0</ele><time>2026-05-03T10:43:50.002Z</time></trkpt><trkpt lat="44.427995339372984" lon="11.75709240589698"><ele>16.0</ele><time>2026-05-03T10:43:51.002Z</time></trkpt><trkpt lat="44.42796990221799" lon="11.757186292264548"><ele>16.0</ele><time>2026-05-03T10:43:52.002Z</time></trkpt><trkpt lat="44.42794450102103" lon="11.757274241986408"><ele>15.999999999999998</ele><time>2026-05-03T10:43:53.002Z</time></trkpt><trkpt lat="44.42791911853367" lon="11.7573597190654"><ele>16.0</ele><time>2026-05-03T10:43:54.002Z</time></trkpt><trkpt lat="44.42787631285312" lon="11.757488886771359"><ele>15.999999999999998</ele><time>2026-05-03T10:43:56.002Z</time></trkpt><trkpt lat="44.4278410142331" lon="11.75760076184379"><ele>16.0</ele><time>2026-05-03T10:43:58.002Z</time></trkpt><trkpt lat="44.42780296546292" lon="11.757717531856244"><ele>16.0</ele><time>2026-05-03T10:44:00.002Z</time></trkpt><trkpt lat="44.427774897791096" lon="11.757808955259105"><ele>16.0</ele><time>2026-05-03T10:44:02.002Z</time></trkpt><trkpt lat="44.427748865228075" lon="11.757893504909266"><ele>15.999999999999998</ele><time>2026-05-03T10:44:04.002Z</time></trkpt><trkpt lat="44.427717281913" lon="11.758003472306333"><ele>16.0</ele><time>2026-05-03T10:44:06.002Z</time></trkpt><trkpt lat="44.427674882902295" lon="11.758144620740165"><ele>16.333333333333332</ele><time>2026-05-03T10:44:08Z</time></trkpt><trkpt lat="44.42764748653177" lon="11.758235237858663"><ele>16.666666666666664</ele><time>2026-05-03T10:44:09Z</time></trkpt><trkpt lat="44.42761321989357" lon="11.758336296977285"><ele>17.0</ele><time>2026-05-03T10:44:10Z</time></trkpt><trkpt lat="44.427576959685446" lon="11.758447817644665"><ele>17.333333333333332</ele><time>2026-05-03T10:44:11Z</time></trkpt><trkpt lat="44.42754257591195" lon="11.758554614603911"><ele>17.666666666666668</ele><time>2026-05-03T10:44:12Z</time></trkpt><trkpt lat="44.42750969287286" lon="11.75865588123453"><ele>18.0</ele><time>2026-05-03T10:44:13Z</time></trkpt><trkpt lat="44.42747858889563" lon="11.758753770475764"><ele>18.000000000000004</ele><time>2026-05-03T10:44:13.999Z</time></trkpt><trkpt lat="44.427450064324944" lon="11.758850152073878"><ele>18.0</ele><time>2026-05-03T10:44:15Z</time></trkpt><trkpt lat="44.427420882051564" lon="11.758948993352435"><ele>18.0</ele><time>2026-05-03T10:44:16Z</time></trkpt><trkpt lat="44.427393037213214" lon="11.759043614866997"><ele>18.0</ele><time>2026-05-03T10:44:16.999Z</time></trkpt><trkpt lat="44.42736551761879" lon="11.759131052815281"><ele>18.0</ele><time>2026-05-03T10:44:17.999Z</time></trkpt><trkpt lat="44.42733931570734" lon="11.759219511267812"><ele>18.000000000000004</ele><time>2026-05-03T10:44:18.999Z</time></trkpt><trkpt lat="44.42731447269701" lon="11.759302942512504"><ele>18.0</ele><time>2026-05-03T10:44:19.999Z</time></trkpt><trkpt lat="44.427269291616575" lon="11.75946343207773"><ele>18.0</ele><time>2026-05-03T10:44:21.999Z</time></trkpt><trkpt lat="44.427222136166066" lon="11.759618736117256"><ele>18.0</ele><time>2026-05-03T10:44:23.999Z</time></trkpt><trkpt lat="44.42717815494442" lon="11.759751479007944"><ele>18.0</ele><time>2026-05-03T10:44:26Z</time></trkpt><trkpt lat="44.42713309758874" lon="11.759893999471204"><ele>18.0</ele><time>2026-05-03T10:44:28Z</time></trkpt><trkpt lat="44.42708386023722" lon="11.760054669505065"><ele>17.857142857142858</ele><time>2026-05-03T10:44:30Z</time></trkpt><trkpt lat="44.42705839897781" lon="11.760140333636572"><ele>17.714285714285715</ele><time>2026-05-03T10:44:31Z</time></trkpt><trkpt lat="44.427031807969776" lon="11.760227778883907"><ele>17.57142857142857</ele><time>2026-05-03T10:44:32Z</time></trkpt><trkpt lat="44.427004910534905" lon="11.76031473070986"><ele>17.42857142857143</ele><time>2026-05-03T10:44:33Z</time></trkpt><trkpt lat="44.42697679172977" lon="11.760402001991379"><ele>17.285714285714285</ele><time>2026-05-03T10:44:34Z</time></trkpt><trkpt lat="44.42694909617986" lon="11.760488948964705"><ele>17.142857142857142</ele><time>2026-05-03T10:44:35Z</time></trkpt><trkpt lat="44.42692348188439" lon="11.760573340951224"><ele>17.0</ele><time>2026-05-03T10:44:36Z</time></trkpt><trkpt lat="44.42689733245747" lon="11.760657437309018"><ele>16.833333333333336</ele><time>2026-05-03T10:44:37Z</time></trkpt><trkpt lat="44.42684763377769" lon="11.760818085526537"><ele>16.666666666666668</ele><time>2026-05-03T10:44:39Z</time></trkpt><trkpt lat="44.42682005439851" lon="11.760903965976505"><ele>16.5</ele><time>2026-05-03T10:44:40Z</time></trkpt><trkpt lat="44.426791343373274" lon="11.760993299755775"><ele>16.333333333333332</ele><time>2026-05-03T10:44:41Z</time></trkpt><trkpt lat="44.42676030687374" lon="11.761089294940167"><ele>16.166666666666664</ele><time>2026-05-03T10:44:42Z</time></trkpt><trkpt lat="44.42672963634936" lon="11.761188742108002"><ele>16.0</ele><time>2026-05-03T10:44:43Z</time></trkpt><trkpt lat="44.42669939144061" lon="11.761286299868187"><ele>15.833333333333332</ele><time>2026-05-03T10:44:44Z</time></trkpt><trkpt lat="44.42666826469663" lon="11.76138636235227"><ele>15.666666666666666</ele><time>2026-05-03T10:44:45Z</time></trkpt><trkpt lat="44.426638099665546" lon="11.761488790218086"><ele>15.5</ele><time>2026-05-03T10:44:46Z</time></trkpt><trkpt lat="44.426608162831485" lon="11.761585503517034"><ele>15.333333333333332</ele><time>2026-05-03T10:44:47Z</time></trkpt><trkpt lat="44.426578262211095" lon="11.761690284036355"><ele>15.166666666666666</ele><time>2026-05-03T10:44:48Z</time></trkpt><trkpt lat="44.42654831835638" lon="11.761791308871148"><ele>15.0</ele><time>2026-05-03T10:44:49Z</time></trkpt><trkpt lat="44.4265169847636" lon="11.761895614498414"><ele>15.0</ele><time>2026-05-03T10:44:50Z</time></trkpt><trkpt lat="44.426485065677284" lon="11.762006134683848"><ele>15.0</ele><time>2026-05-03T10:44:51Z</time></trkpt><trkpt lat="44.426452233894445" lon="11.762121426064214"><ele>15.0</ele><time>2026-05-03T10:44:52Z</time></trkpt><trkpt lat="44.426415553830594" lon="11.762243050179851"><ele>15.0</ele><time>2026-05-03T10:44:53Z</time></trkpt><trkpt lat="44.42637829415126" lon="11.762363531739773"><ele>15.0</ele><time>2026-05-03T10:44:54Z</time></trkpt><trkpt lat="44.42634261713126" lon="11.762481953018378"><ele>15.166666666666666</ele><time>2026-05-03T10:44:55Z</time></trkpt><trkpt lat="44.426307855449245" lon="11.762594315298768"><ele>15.333333333333332</ele><time>2026-05-03T10:44:56Z</time></trkpt><trkpt lat="44.42627226723206" lon="11.762707406902877"><ele>15.5</ele><time>2026-05-03T10:44:57Z</time></trkpt><trkpt lat="44.42623906051959" lon="11.7628205001575"><ele>15.666666666666666</ele><time>2026-05-03T10:44:58Z</time></trkpt><trkpt lat="44.426205697908344" lon="11.762938926912877"><ele>15.833333333333332</ele><time>2026-05-03T10:44:59Z</time></trkpt><trkpt lat="44.42617195911294" lon="11.763059207788766"><ele>16.0</ele><time>2026-05-03T10:45:00Z</time></trkpt><trkpt lat="44.42613600421015" lon="11.763175748640082"><ele>16.2</ele><time>2026-05-03T10:45:01Z</time></trkpt><trkpt lat="44.426095545144264" lon="11.763295777720629"><ele>16.400000000000002</ele><time>2026-05-03T10:45:02Z</time></trkpt><trkpt lat="44.4260562690365" lon="11.76342017302852"><ele>16.6</ele><time>2026-05-03T10:45:03.001Z</time></trkpt><trkpt lat="44.426013967254534" lon="11.763540464844704"><ele>16.8</ele><time>2026-05-03T10:45:04.001Z</time></trkpt><trkpt lat="44.42597139195725" lon="11.763665015860296"><ele>17.0</ele><time>2026-05-03T10:45:05.001Z</time></trkpt><trkpt lat="44.42592838367506" lon="11.76379167765876"><ele>17.0</ele><time>2026-05-03T10:45:06.001Z</time></trkpt><trkpt lat="44.42588438194733" lon="11.763925819418615"><ele>17.0</ele><time>2026-05-03T10:45:07.001Z</time></trkpt><trkpt lat="44.42584054107774" lon="11.764058636455108"><ele>17.0</ele><time>2026-05-03T10:45:08.001Z</time></trkpt><trkpt lat="44.42579435700097" lon="11.764193888512663"><ele>17.0</ele><time>2026-05-03T10:45:09.001Z</time></trkpt><trkpt lat="44.42574950506078" lon="11.76433377705498"><ele>17.0</ele><time>2026-05-03T10:45:10.001Z</time></trkpt><trkpt lat="44.42570488291225" lon="11.764478090648014"><ele>17.0</ele><time>2026-05-03T10:45:11.001Z</time></trkpt><trkpt lat="44.42565913674753" lon="11.76462651401465"><ele>17.0</ele><time>2026-05-03T10:45:12.001Z</time></trkpt><trkpt lat="44.42560994473804" lon="11.76477731610621"><ele>17.0</ele><time>2026-05-03T10:45:13.001Z</time></trkpt><trkpt lat="44.42555750880747" lon="11.764930278499724"><ele>17.0</ele><time>2026-05-03T10:45:14.001Z</time></trkpt><trkpt lat="44.425507884952424" lon="11.765086870076372"><ele>16.75</ele><time>2026-05-03T10:45:15.001Z</time></trkpt><trkpt lat="44.42545681159255" lon="11.765248651039892"><ele>16.5</ele><time>2026-05-03T10:45:16.001Z</time></trkpt><trkpt lat="44.42540542815563" lon="11.765408234400882"><ele>16.25</ele><time>2026-05-03T10:45:17.001Z</time></trkpt><trkpt lat="44.42535219690513" lon="11.765575264024406"><ele>16.0</ele><time>2026-05-03T10:45:18.001Z</time></trkpt><trkpt lat="44.42530170893986" lon="11.765740654135636"><ele>16.0</ele><time>2026-05-03T10:45:19.001Z</time></trkpt><trkpt lat="44.42524897348084" lon="11.765912757024518"><ele>16.0</ele><time>2026-05-03T10:45:20.001Z</time></trkpt><trkpt lat="44.42519467778707" lon="11.766080821662545"><ele>16.0</ele><time>2026-05-03T10:45:21.001Z</time></trkpt><trkpt lat="44.425140876461676" lon="11.766249692522411"><ele>16.0</ele><time>2026-05-03T10:45:22.001Z</time></trkpt><trkpt lat="44.42508496907223" lon="11.766421634896671"><ele>16.0</ele><time>2026-05-03T10:45:23.001Z</time></trkpt><trkpt lat="44.42502778314196" lon="11.766597497920717"><ele>16.0</ele><time>2026-05-03T10:45:24.001Z</time></trkpt><trkpt lat="44.42497080017584" lon="11.76677498780147"><ele>16.0</ele><time>2026-05-03T10:45:25.001Z</time></trkpt><trkpt lat="44.424915488261284" lon="11.766952018633013"><ele>16.0</ele><time>2026-05-03T10:45:26.001Z</time></trkpt><trkpt lat="44.424854069698114" lon="11.767138452494164"><ele>15.75</ele><time>2026-05-03T10:45:27.001Z</time></trkpt><trkpt lat="44.424794427541826" lon="11.767320771641911"><ele>15.5</ele><time>2026-05-03T10:45:28.001Z</time></trkpt><trkpt lat="44.424735783283346" lon="11.767503480318567"><ele>15.25</ele><time>2026-05-03T10:45:29.001Z</time></trkpt><trkpt lat="44.424677585665336" lon="11.767686279401884"><ele>15.0</ele><time>2026-05-03T10:45:30.001Z</time></trkpt><trkpt lat="44.42461960815432" lon="11.767866752981638"><ele>15.0</ele><time>2026-05-03T10:45:31.001Z</time></trkpt><trkpt lat="44.42456440355291" lon="11.768041681719897"><ele>15.0</ele><time>2026-05-03T10:45:32.001Z</time></trkpt><trkpt lat="44.42451126982216" lon="11.768217758775954"><ele>15.0</ele><time>2026-05-03T10:45:33.001Z</time></trkpt><trkpt lat="44.424457216059835" lon="11.768387277770646"><ele>15.0</ele><time>2026-05-03T10:45:34.001Z</time></trkpt><trkpt lat="44.424406215117024" lon="11.768548715024053"><ele>15.25</ele><time>2026-05-03T10:45:35.001Z</time></trkpt><trkpt lat="44.42435415483695" lon="11.768710808199197"><ele>15.5</ele><time>2026-05-03T10:45:36.001Z</time></trkpt><trkpt lat="44.42430346845289" lon="11.768870414420062"><ele>15.75</ele><time>2026-05-03T10:45:37.002Z</time></trkpt><trkpt lat="44.42425211889243" lon="11.769029161161617"><ele>16.0</ele><time>2026-05-03T10:45:38.002Z</time></trkpt><trkpt lat="44.4242014062355" lon="11.769184123823527"><ele>16.0</ele><time>2026-05-03T10:45:39.002Z</time></trkpt><trkpt lat="44.42415302143091" lon="11.76933245117043"><ele>16.0</ele><time>2026-05-03T10:45:40.002Z</time></trkpt><trkpt lat="44.424106581022436" lon="11.769477785604582"><ele>16.0</ele><time>2026-05-03T10:45:41.002Z</time></trkpt><trkpt lat="44.42406119710563" lon="11.769624173389346"><ele>16.0</ele><time>2026-05-03T10:45:42.003Z</time></trkpt><trkpt lat="44.42401543994658" lon="11.769767434282786"><ele>16.2</ele><time>2026-05-03T10:45:43.003Z</time></trkpt><trkpt lat="44.42397172045925" lon="11.769906788052285"><ele>16.400000000000002</ele><time>2026-05-03T10:45:44.003Z</time></trkpt><trkpt lat="44.42393066896347" lon="11.770032380103826"><ele>16.6</ele><time>2026-05-03T10:45:45.003Z</time></trkpt><trkpt lat="44.423891467975494" lon="11.77015386388781"><ele>16.8</ele><time>2026-05-03T10:45:46.003Z</time></trkpt><trkpt lat="44.423852429981174" lon="11.77027310213312"><ele>17.0</ele><time>2026-05-03T10:45:47.003Z</time></trkpt><trkpt lat="44.42381682240614" lon="11.770388435546954"><ele>16.5</ele><time>2026-05-03T10:45:48.003Z</time></trkpt><trkpt lat="44.42378287397515" lon="11.77049079803493"><ele>16.0</ele><time>2026-05-03T10:45:49.003Z</time></trkpt><trkpt lat="44.423747824094065" lon="11.770590681689537"><ele>15.5</ele><time>2026-05-03T10:45:50.003Z</time></trkpt><trkpt lat="44.42371476347645" lon="11.770680644489753"><ele>15.0</ele><time>2026-05-03T10:45:51.003Z</time></trkpt><trkpt lat="44.423664183239346" lon="11.770816460016738"><ele>14.500000000000002</ele><time>2026-05-03T10:45:53.003Z</time></trkpt><trkpt lat="44.42362158838602" lon="11.770926238545469"><ele>14.0</ele><time>2026-05-03T10:45:55.003Z</time></trkpt><trkpt lat="44.42358623512894" lon="11.771007669360738"><ele>14.399999999999999</ele><time>2026-05-03T10:45:57.003Z</time></trkpt><trkpt lat="44.42355396794901" lon="11.771093025781296"><ele>14.799999999999999</ele><time>2026-05-03T10:46:01.003Z</time></trkpt><trkpt lat="44.42348929621626" lon="11.771119623364674"><ele>15.200000000000001</ele><time>2026-05-03T10:46:31.001Z</time></trkpt><trkpt lat="44.423477013673235" lon="11.771365511556086"><ele>15.600000000000001</ele><time>2026-05-03T10:46:45.001Z</time></trkpt><trkpt lat="44.42356308908587" lon="11.77147693687412"><ele>16.0</ele><time>2026-05-03T10:46:47.001Z</time></trkpt><trkpt lat="44.423614150291534" lon="11.77152991826239"><ele>16.0</ele><time>2026-05-03T10:46:48.001Z</time></trkpt><trkpt lat="44.4236733040433" lon="11.771589555172168"><ele>16.0</ele><time>2026-05-03T10:46:49.001Z</time></trkpt><trkpt lat="44.423757128232644" lon="11.771629780122536"><ele>16.0</ele><time>2026-05-03T10:46:50.001Z</time></trkpt><trkpt lat="44.42384589374915" lon="11.771698467721142"><ele>16.0</ele><time>2026-05-03T10:46:51.001Z</time></trkpt><trkpt lat="44.423942414209165" lon="11.7717731568665"><ele>16.0</ele><time>2026-05-03T10:46:52.001Z</time></trkpt><trkpt lat="44.42403024161547" lon="11.771867748225217"><ele>15.8</ele><time>2026-05-03T10:46:53.001Z</time></trkpt><trkpt lat="44.424125450186835" lon="11.771937876349766"><ele>15.600000000000001</ele><time>2026-05-03T10:46:54.001Z</time></trkpt><trkpt lat="44.42421965154409" lon="11.772010376441935"><ele>15.4</ele><time>2026-05-03T10:46:55.001Z</time></trkpt><trkpt lat="44.42431785919463" lon="11.772082836195057"><ele>15.2</ele><time>2026-05-03T10:46:56.001Z</time></trkpt><trkpt lat="44.42440948260261" lon="11.772153455428315"><ele>15.0</ele><time>2026-05-03T10:46:57.001Z</time></trkpt><trkpt lat="44.424501407229386" lon="11.77222258554955"><ele>15.0</ele><time>2026-05-03T10:46:58.001Z</time></trkpt><trkpt lat="44.42458175640145" lon="11.772285924682315"><ele>15.0</ele><time>2026-05-03T10:46:59.001Z</time></trkpt><trkpt lat="44.42464663214881" lon="11.772341567091772"><ele>15.0</ele><time>2026-05-03T10:47:00.001Z</time></trkpt><trkpt lat="44.42469583979107" lon="11.772398132793077"><ele>15.0</ele><time>2026-05-03T10:47:01.001Z</time></trkpt><trkpt lat="44.424787467508196" lon="11.772464595943896"><ele>15.0</ele><time>2026-05-03T10:47:03.001Z</time></trkpt><trkpt lat="44.424731101018814" lon="11.772690104707863"><ele>15.0</ele><time>2026-05-03T10:47:04.001Z</time></trkpt><trkpt lat="44.42470508119289" lon="11.772796501797302"><ele>15.0</ele><time>2026-05-03T10:47:05.001Z</time></trkpt><trkpt lat="44.42463738929067" lon="11.772861966317446"><ele>15.0</ele><time>2026-05-03T10:47:06.001Z</time></trkpt><trkpt lat="44.424564750385485" lon="11.772926468115045"><ele>15.0</ele><time>2026-05-03T10:47:07.001Z</time></trkpt><trkpt lat="44.42449676821198" lon="11.773013178189997"><ele>15.0</ele><time>2026-05-03T10:47:08.001Z</time></trkpt><trkpt lat="44.42443651657705" lon="11.773095921709743"><ele>15.0</ele><time>2026-05-03T10:47:09.001Z</time></trkpt><trkpt lat="44.42438384818686" lon="11.773187043575016"><ele>15.0</ele><time>2026-05-03T10:47:10.001Z</time></trkpt><trkpt lat="44.42433435822281" lon="11.773290781264679"><ele>15.0</ele><time>2026-05-03T10:47:11.002Z</time></trkpt><trkpt lat="44.42428735487715" lon="11.773399846859462"><ele>15.0</ele><time>2026-05-03T10:47:12.002Z</time></trkpt><trkpt lat="44.42424283370332" lon="11.773507031969777"><ele>15.0</ele><time>2026-05-03T10:47:13.002Z</time></trkpt><trkpt lat="44.424196096232905" lon="11.773619552820318"><ele>15.0</ele><time>2026-05-03T10:47:14.002Z</time></trkpt><trkpt lat="44.42414853650367" lon="11.773738117188504"><ele>14.8</ele><time>2026-05-03T10:47:15.002Z</time></trkpt><trkpt lat="44.42409883016024" lon="11.773862245399153"><ele>14.6</ele><time>2026-05-03T10:47:16.002Z</time></trkpt><trkpt lat="44.424048247126194" lon="11.77398856289354"><ele>14.399999999999999</ele><time>2026-05-03T10:47:17.002Z</time></trkpt><trkpt lat="44.423996449280665" lon="11.774117914033278"><ele>14.2</ele><time>2026-05-03T10:47:18.002Z</time></trkpt><trkpt lat="44.42394309134948" lon="11.774252770079386"><ele>14.0</ele><time>2026-05-03T10:47:19.002Z</time></trkpt><trkpt lat="44.423889277796356" lon="11.774392597976956"><ele>14.0</ele><time>2026-05-03T10:47:20.002Z</time></trkpt><trkpt lat="44.423836698824914" lon="11.774531291827257"><ele>13.999999999999998</ele><time>2026-05-03T10:47:21.002Z</time></trkpt><trkpt lat="44.42379656006426" lon="11.774668831940721"><ele>13.999999999999998</ele><time>2026-05-03T10:47:22.002Z</time></trkpt><trkpt lat="44.42374340578327" lon="11.774802289373554"><ele>14.0</ele><time>2026-05-03T10:47:23.002Z</time></trkpt><trkpt lat="44.42368983195247" lon="11.774937779496458"><ele>14.0</ele><time>2026-05-03T10:47:24.002Z</time></trkpt><trkpt lat="44.42363040736227" lon="11.775092839190586"><ele>13.75</ele><time>2026-05-03T10:47:25.002Z</time></trkpt><trkpt lat="44.42357042673974" lon="11.775243535030969"><ele>13.5</ele><time>2026-05-03T10:47:26.002Z</time></trkpt><trkpt lat="44.42350963353111" lon="11.7753971015101"><ele>13.25</ele><time>2026-05-03T10:47:27.002Z</time></trkpt><trkpt lat="44.42345397910893" lon="11.775552161098991"><ele>13.0</ele><time>2026-05-03T10:47:28.002Z</time></trkpt><trkpt lat="44.42339724759891" lon="11.775709497702717"><ele>13.0</ele><time>2026-05-03T10:47:29.002Z</time></trkpt><trkpt lat="44.42334157621806" lon="11.775858181305642"><ele>13.0</ele><time>2026-05-03T10:47:30.002Z</time></trkpt><trkpt lat="44.423284519725385" lon="11.776001683879498"><ele>13.0</ele><time>2026-05-03T10:47:31.002Z</time></trkpt><trkpt lat="44.423226107611484" lon="11.776149627144166"><ele>13.0</ele><time>2026-05-03T10:47:32.002Z</time></trkpt><trkpt lat="44.42315011151123" lon="11.776298918397167"><ele>12.75</ele><time>2026-05-03T10:47:33.002Z</time></trkpt><trkpt lat="44.42308648208997" lon="11.776453009469373"><ele>12.5</ele><time>2026-05-03T10:47:34.002Z</time></trkpt><trkpt lat="44.42302708408256" lon="11.776598723047924"><ele>12.25</ele><time>2026-05-03T10:47:35.002Z</time></trkpt><trkpt lat="44.42297012371087" lon="11.776736554564064"><ele>12.0</ele><time>2026-05-03T10:47:36.002Z</time></trkpt><trkpt lat="44.42291194755226" lon="11.77688053936485"><ele>12.6</ele><time>2026-05-03T10:47:37.002Z</time></trkpt><trkpt lat="44.42285727934933" lon="11.777016838393447"><ele>13.2</ele><time>2026-05-03T10:47:38.002Z</time></trkpt><trkpt lat="44.422802328158" lon="11.777151145027974"><ele>13.8</ele><time>2026-05-03T10:47:39.002Z</time></trkpt><trkpt lat="44.42274566596575" lon="11.777290790055112"><ele>14.4</ele><time>2026-05-03T10:47:40.002Z</time></trkpt><trkpt lat="44.42269192212824" lon="11.777426021822198"><ele>15.0</ele><time>2026-05-03T10:47:41.002Z</time></trkpt><trkpt lat="44.422634757396274" lon="11.777565558623825"><ele>14.4</ele><time>2026-05-03T10:47:42.002Z</time></trkpt><trkpt lat="44.42258439116562" lon="11.777698469170282"><ele>13.8</ele><time>2026-05-03T10:47:43.002Z</time></trkpt><trkpt lat="44.42253059639078" lon="11.777829552149308"><ele>13.2</ele><time>2026-05-03T10:47:44.002Z</time></trkpt><trkpt lat="44.42247529164121" lon="11.777966441332273"><ele>12.6</ele><time>2026-05-03T10:47:45.002Z</time></trkpt><trkpt lat="44.42242245299114" lon="11.778108452065148"><ele>12.0</ele><time>2026-05-03T10:47:46.002Z</time></trkpt><trkpt lat="44.42236727152246" lon="11.77825288447091"><ele>12.0</ele><time>2026-05-03T10:47:47.002Z</time></trkpt><trkpt lat="44.42231309582865" lon="11.778396850986933"><ele>12.0</ele><time>2026-05-03T10:47:48.002Z</time></trkpt><trkpt lat="44.42225598000221" lon="11.77855270156922"><ele>12.0</ele><time>2026-05-03T10:47:49.002Z</time></trkpt><trkpt lat="44.422197707268786" lon="11.778714933177781"><ele>12.0</ele><time>2026-05-03T10:47:50.003Z</time></trkpt><trkpt lat="44.42214023833967" lon="11.77886932421776"><ele>12.25</ele><time>2026-05-03T10:47:51.003Z</time></trkpt><trkpt lat="44.422084147464666" lon="11.779026580530052"><ele>12.5</ele><time>2026-05-03T10:47:52.003Z</time></trkpt><trkpt lat="44.42202681636656" lon="11.779194063595957"><ele>12.75</ele><time>2026-05-03T10:47:53.003Z</time></trkpt><trkpt lat="44.42196548485274" lon="11.779365904171682"><ele>13.0</ele><time>2026-05-03T10:47:54.003Z</time></trkpt><trkpt lat="44.42190491410416" lon="11.779530525415284"><ele>13.0</ele><time>2026-05-03T10:47:55.003Z</time></trkpt><trkpt lat="44.42184407317173" lon="11.779712476794314"><ele>13.0</ele><time>2026-05-03T10:47:56.003Z</time></trkpt><trkpt lat="44.42178050698017" lon="11.779878490473987"><ele>13.0</ele><time>2026-05-03T10:47:57.003Z</time></trkpt><trkpt lat="44.42170302635801" lon="11.780037923354449"><ele>13.0</ele><time>2026-05-03T10:47:58.003Z</time></trkpt><trkpt lat="44.42163959852088" lon="11.780192446950801"><ele>12.75</ele><time>2026-05-03T10:47:59.003Z</time></trkpt><trkpt lat="44.4215771953638" lon="11.780344056536507"><ele>12.5</ele><time>2026-05-03T10:48:00.003Z</time></trkpt><trkpt lat="44.421515480317076" lon="11.780493770274854"><ele>12.25</ele><time>2026-05-03T10:48:01.003Z</time></trkpt><trkpt lat="44.42145367986344" lon="11.780643264347773"><ele>12.0</ele><time>2026-05-03T10:48:02.003Z</time></trkpt><trkpt lat="44.42138864234851" lon="11.780800589062954"><ele>12.0</ele><time>2026-05-03T10:48:03.003Z</time></trkpt><trkpt lat="44.42132565914344" lon="11.780952944004614"><ele>12.0</ele><time>2026-05-03T10:48:04.003Z</time></trkpt><trkpt lat="44.42126360057362" lon="11.781103062466512"><ele>12.0</ele><time>2026-05-03T10:48:05.003Z</time></trkpt><trkpt lat="44.42119969966169" lon="11.781258452875514"><ele>12.0</ele><time>2026-05-03T10:48:06.003Z</time></trkpt><trkpt lat="44.42114466598214" lon="11.781416238668692"><ele>12.5</ele><time>2026-05-03T10:48:07.003Z</time></trkpt><trkpt lat="44.42107667088774" lon="11.781573979474208"><ele>13.0</ele><time>2026-05-03T10:48:08.003Z</time></trkpt><trkpt lat="44.42100900443906" lon="11.781729830716566"><ele>13.5</ele><time>2026-05-03T10:48:09.003Z</time></trkpt><trkpt lat="44.42094347283117" lon="11.78188570314973"><ele>14.0</ele><time>2026-05-03T10:48:10.003Z</time></trkpt><trkpt lat="44.42087553984908" lon="11.782056280914217"><ele>14.25</ele><time>2026-05-03T10:48:11.003Z</time></trkpt><trkpt lat="44.420810573899885" lon="11.782217254137969"><ele>14.5</ele><time>2026-05-03T10:48:12.003Z</time></trkpt><trkpt lat="44.420746856983236" lon="11.782372054719001"><ele>14.75</ele><time>2026-05-03T10:48:13.003Z</time></trkpt><trkpt lat="44.42068910906676" lon="11.78252041885515"><ele>15.0</ele><time>2026-05-03T10:48:14.003Z</time></trkpt><trkpt lat="44.420632398145564" lon="11.782674049999141"><ele>14.75</ele><time>2026-05-03T10:48:15.003Z</time></trkpt><trkpt lat="44.42057400316401" lon="11.782826238173898"><ele>14.5</ele><time>2026-05-03T10:48:16.003Z</time></trkpt><trkpt lat="44.42051525375545" lon="11.78298083215267"><ele>14.25</ele><time>2026-05-03T10:48:17.003Z</time></trkpt><trkpt lat="44.420452797677996" lon="11.78313127500788"><ele>14.0</ele><time>2026-05-03T10:48:18.003Z</time></trkpt><trkpt lat="44.42039644811885" lon="11.783288342996821"><ele>14.25</ele><time>2026-05-03T10:48:19.003Z</time></trkpt><trkpt lat="44.420340096697096" lon="11.783435703322715"><ele>14.5</ele><time>2026-05-03T10:48:20.003Z</time></trkpt><trkpt lat="44.42029002582405" lon="11.783588105697195"><ele>14.75</ele><time>2026-05-03T10:48:21.003Z</time></trkpt><trkpt lat="44.42023108217171" lon="11.783738051166555"><ele>15.0</ele><time>2026-05-03T10:48:22.003Z</time></trkpt><trkpt lat="44.42016993845075" lon="11.783892780209595"><ele>15.0</ele><time>2026-05-03T10:48:23.003Z</time></trkpt><trkpt lat="44.42010595775878" lon="11.784042041999236"><ele>15.0</ele><time>2026-05-03T10:48:24.003Z</time></trkpt><trkpt lat="44.42004056241749" lon="11.784206237869487"><ele>15.0</ele><time>2026-05-03T10:48:25.003Z</time></trkpt><trkpt lat="44.41997993498523" lon="11.784372000612791"><ele>15.0</ele><time>2026-05-03T10:48:26.003Z</time></trkpt><trkpt lat="44.41992203652691" lon="11.78453838345798"><ele>15.25</ele><time>2026-05-03T10:48:27.003Z</time></trkpt><trkpt lat="44.41986426355876" lon="11.784703729854693"><ele>15.5</ele><time>2026-05-03T10:48:28.003Z</time></trkpt><trkpt lat="44.419785249879716" lon="11.784858047095689"><ele>15.75</ele><time>2026-05-03T10:48:29.004Z</time></trkpt><trkpt lat="44.41971918600681" lon="11.785019987673714"><ele>16.0</ele><time>2026-05-03T10:48:30.004Z</time></trkpt><trkpt lat="44.41965478623501" lon="11.785173358441698"><ele>16.0</ele><time>2026-05-03T10:48:31.004Z</time></trkpt><trkpt lat="44.41958925257289" lon="11.785337210726471"><ele>16.0</ele><time>2026-05-03T10:48:32.004Z</time></trkpt><trkpt lat="44.41952457959581" lon="11.785493621267621"><ele>16.0</ele><time>2026-05-03T10:48:33.004Z</time></trkpt><trkpt lat="44.41946130983539" lon="11.785654440075655"><ele>16.0</ele><time>2026-05-03T10:48:34.004Z</time></trkpt><trkpt lat="44.41940165418764" lon="11.785810458941834"><ele>16.0</ele><time>2026-05-03T10:48:35.004Z</time></trkpt><trkpt lat="44.41934765275915" lon="11.7859633739971"><ele>16.0</ele><time>2026-05-03T10:48:36.004Z</time></trkpt><trkpt lat="44.419297124022215" lon="11.786117402631596"><ele>16.0</ele><time>2026-05-03T10:48:37.004Z</time></trkpt><trkpt lat="44.419237020069886" lon="11.786258603268482"><ele>16.0</ele><time>2026-05-03T10:48:38.004Z</time></trkpt><trkpt lat="44.41918212688281" lon="11.786405148587699"><ele>15.8</ele><time>2026-05-03T10:48:39.004Z</time></trkpt><trkpt lat="44.41912417739067" lon="11.786544467501683"><ele>15.600000000000001</ele><time>2026-05-03T10:48:40.004Z</time></trkpt><trkpt lat="44.41906841188207" lon="11.78667171270406"><ele>15.4</ele><time>2026-05-03T10:48:41.004Z</time></trkpt><trkpt lat="44.41901994025117" lon="11.786792564629598"><ele>15.2</ele><time>2026-05-03T10:48:42.004Z</time></trkpt><trkpt lat="44.41896882107461" lon="11.786923118892766"><ele>15.0</ele><time>2026-05-03T10:48:43.004Z</time></trkpt><trkpt lat="44.41892307119289" lon="11.787044346036138"><ele>15.0</ele><time>2026-05-03T10:48:44.004Z</time></trkpt><trkpt lat="44.41888152311853" lon="11.787158699310934"><ele>15.0</ele><time>2026-05-03T10:48:45.004Z</time></trkpt><trkpt lat="44.418840994859224" lon="11.787255462752775"><ele>15.0</ele><time>2026-05-03T10:48:46.004Z</time></trkpt><trkpt lat="44.41880332919124" lon="11.787346992947473"><ele>15.0</ele><time>2026-05-03T10:48:47.004Z</time></trkpt><trkpt lat="44.418767008936555" lon="11.787435124854358"><ele>15.0</ele><time>2026-05-03T10:48:48.004Z</time></trkpt><trkpt lat="44.41870565354814" lon="11.787584033377097"><ele>15.0</ele><time>2026-05-03T10:48:50.004Z</time></trkpt><trkpt lat="44.418680550429485" lon="11.787669151808059"><ele>15.0</ele><time>2026-05-03T10:48:52.004Z</time></trkpt><trkpt lat="44.41865164304356" lon="11.787773048530562"><ele>15.0</ele><time>2026-05-03T10:49:03.004Z</time></trkpt><trkpt lat="44.41861142242246" lon="11.787858013866368"><ele>15.0</ele><time>2026-05-03T10:49:07.004Z</time></trkpt><trkpt lat="44.418732517948875" lon="11.787856684236395"><ele>15.0</ele><time>2026-05-03T10:49:09.005Z</time></trkpt><trkpt lat="44.4188111694504" lon="11.787881282307895"><ele>15.0</ele><time>2026-05-03T10:49:11.005Z</time></trkpt><trkpt lat="44.41886764601166" lon="11.787923934068449"><ele>15.0</ele><time>2026-05-03T10:49:12.005Z</time></trkpt><trkpt lat="44.41898648631397" lon="11.788019952741353"><ele>15.0</ele><time>2026-05-03T10:49:14.005Z</time></trkpt><trkpt lat="44.4190614047056" lon="11.78808546201526"><ele>15.0</ele><time>2026-05-03T10:49:15.005Z</time></trkpt><trkpt lat="44.41915615932496" lon="11.78812152802923"><ele>15.0</ele><time>2026-05-03T10:49:16.005Z</time></trkpt><trkpt lat="44.41924501363073" lon="11.788184196818008"><ele>15.0</ele><time>2026-05-03T10:49:17.005Z</time></trkpt><trkpt lat="44.41933623742364" lon="11.788245028862363"><ele>15.0</ele><time>2026-05-03T10:49:18.005Z</time></trkpt><trkpt lat="44.41943615676419" lon="11.788315169019901"><ele>15.0</ele><time>2026-05-03T10:49:19.005Z</time></trkpt><trkpt lat="44.41954993992658" lon="11.788397798207757"><ele>15.0</ele><time>2026-05-03T10:49:20.005Z</time></trkpt><trkpt lat="44.41966588858126" lon="11.788514276773544"><ele>15.0</ele><time>2026-05-03T10:49:21.005Z</time></trkpt><trkpt lat="44.41979364004096" lon="11.788590041110323"><ele>15.0</ele><time>2026-05-03T10:49:22.005Z</time></trkpt><trkpt lat="44.419912736605106" lon="11.788694290489083"><ele>15.0</ele><time>2026-05-03T10:49:23.005Z</time></trkpt><trkpt lat="44.420037797289424" lon="11.78879802623446"><ele>15.0</ele><time>2026-05-03T10:49:24.005Z</time></trkpt><trkpt lat="44.42016135758199" lon="11.78890017409948"><ele>15.0</ele><time>2026-05-03T10:49:25.005Z</time></trkpt><trkpt lat="44.4202847766667" lon="11.788997996978567"><ele>15.0</ele><time>2026-05-03T10:49:26.005Z</time></trkpt><trkpt lat="44.420411025566004" lon="11.789094442844009"><ele>14.5</ele><time>2026-05-03T10:49:27.005Z</time></trkpt><trkpt lat="44.420529200151826" lon="11.789190395410234"><ele>14.0</ele><time>2026-05-03T10:49:28.005Z</time></trkpt><trkpt lat="44.420648725202" lon="11.789286579560228"><ele>13.5</ele><time>2026-05-03T10:49:29.005Z</time></trkpt><trkpt lat="44.42077141684471" lon="11.789377730086809"><ele>13.0</ele><time>2026-05-03T10:49:30.005Z</time></trkpt><trkpt lat="44.420891520172944" lon="11.789467593028084"><ele>13.0</ele><time>2026-05-03T10:49:31.005Z</time></trkpt><trkpt lat="44.421003781294615" lon="11.789558899823515"><ele>13.0</ele><time>2026-05-03T10:49:32.005Z</time></trkpt><trkpt lat="44.42111994583365" lon="11.789648416475133"><ele>13.0</ele><time>2026-05-03T10:49:33.005Z</time></trkpt><trkpt lat="44.421241366059434" lon="11.789734795850627"><ele>13.0</ele><time>2026-05-03T10:49:34.005Z</time></trkpt><trkpt lat="44.42135050929536" lon="11.789823421229688"><ele>12.75</ele><time>2026-05-03T10:49:35.005Z</time></trkpt><trkpt lat="44.421460269030135" lon="11.789909375333506"><ele>12.5</ele><time>2026-05-03T10:49:36.005Z</time></trkpt><trkpt lat="44.42156802052267" lon="11.789991683836526"><ele>12.25</ele><time>2026-05-03T10:49:37.005Z</time></trkpt><trkpt lat="44.42167116306024" lon="11.790073402975171"><ele>12.0</ele><time>2026-05-03T10:49:38.005Z</time></trkpt><trkpt lat="44.421770075282765" lon="11.790156191466757"><ele>12.2</ele><time>2026-05-03T10:49:39.005Z</time></trkpt><trkpt lat="44.421870244055164" lon="11.790232726205815"><ele>12.399999999999999</ele><time>2026-05-03T10:49:40.005Z</time></trkpt><trkpt lat="44.42196261984041" lon="11.790307631950686"><ele>12.600000000000001</ele><time>2026-05-03T10:49:41.005Z</time></trkpt><trkpt lat="44.42205807893483" lon="11.790381587610643"><ele>12.8</ele><time>2026-05-03T10:49:42.005Z</time></trkpt><trkpt lat="44.42214775622045" lon="11.790455576428968"><ele>13.0</ele><time>2026-05-03T10:49:43.005Z</time></trkpt><trkpt lat="44.4222392409554" lon="11.79052465731778"><ele>13.2</ele><time>2026-05-03T10:49:44.005Z</time></trkpt><trkpt lat="44.42233063638359" lon="11.79059017648026"><ele>13.4</ele><time>2026-05-03T10:49:45.005Z</time></trkpt><trkpt lat="44.422421449639785" lon="11.79065769518003"><ele>13.599999999999998</ele><time>2026-05-03T10:49:46.005Z</time></trkpt><trkpt lat="44.42251115986505" lon="11.790723925230957"><ele>13.799999999999999</ele><time>2026-05-03T10:49:47.005Z</time></trkpt><trkpt lat="44.42259390092493" lon="11.790791546313105"><ele>14.0</ele><time>2026-05-03T10:49:48.006Z</time></trkpt><trkpt lat="44.422676372207825" lon="11.790857647874684"><ele>14.0</ele><time>2026-05-03T10:49:49.006Z</time></trkpt><trkpt lat="44.42275942117781" lon="11.790922185131002"><ele>13.999999999999998</ele><time>2026-05-03T10:49:50.006Z</time></trkpt><trkpt lat="44.422846042895934" lon="11.79098608947871"><ele>13.999999999999998</ele><time>2026-05-03T10:49:51.006Z</time></trkpt><trkpt lat="44.422933735623644" lon="11.791047227838613"><ele>14.0</ele><time>2026-05-03T10:49:52.006Z</time></trkpt><trkpt lat="44.42301958334607" lon="11.791112231649944"><ele>14.0</ele><time>2026-05-03T10:49:53.006Z</time></trkpt><trkpt lat="44.42310498503419" lon="11.791176080457065"><ele>14.2</ele><time>2026-05-03T10:49:54.006Z</time></trkpt><trkpt lat="44.423193715215696" lon="11.791242911526908"><ele>14.399999999999999</ele><time>2026-05-03T10:49:55.006Z</time></trkpt><trkpt lat="44.42327412229372" lon="11.791304708261826"><ele>14.6</ele><time>2026-05-03T10:49:56.006Z</time></trkpt><trkpt lat="44.423355171864145" lon="11.791367828475845"><ele>14.8</ele><time>2026-05-03T10:49:57.006Z</time></trkpt><trkpt lat="44.42343686296657" lon="11.791432529623544"><ele>15.0</ele><time>2026-05-03T10:49:58.006Z</time></trkpt><trkpt lat="44.4235189113605" lon="11.791495413730885"><ele>15.0</ele><time>2026-05-03T10:49:59.006Z</time></trkpt><trkpt lat="44.423597857345754" lon="11.791560704029415"><ele>15.0</ele><time>2026-05-03T10:50:00.006Z</time></trkpt><trkpt lat="44.4236750142967" lon="11.791622542949584"><ele>15.0</ele><time>2026-05-03T10:50:01.006Z</time></trkpt><trkpt lat="44.423750465153525" lon="11.79167983831362"><ele>15.0</ele><time>2026-05-03T10:50:02.006Z</time></trkpt><trkpt lat="44.42382635121293" lon="11.791736321947484"><ele>15.0</ele><time>2026-05-03T10:50:03.006Z</time></trkpt><trkpt lat="44.42390516347109" lon="11.791790764918925"><ele>15.0</ele><time>2026-05-03T10:50:04.006Z</time></trkpt><trkpt lat="44.423988744784936" lon="11.79184565507385"><ele>14.8</ele><time>2026-05-03T10:50:05.006Z</time></trkpt><trkpt lat="44.424065858872574" lon="11.791905316352688"><ele>14.6</ele><time>2026-05-03T10:50:06.006Z</time></trkpt><trkpt lat="44.424143474514864" lon="11.791981948105004"><ele>14.399999999999999</ele><time>2026-05-03T10:50:07.006Z</time></trkpt><trkpt lat="44.42422565824965" lon="11.792036830616125"><ele>14.2</ele><time>2026-05-03T10:50:08.006Z</time></trkpt><trkpt lat="44.42430849656556" lon="11.792073004976244"><ele>14.0</ele><time>2026-05-03T10:50:09.006Z</time></trkpt><trkpt lat="44.4243947550815" lon="11.792129281730073"><ele>14.0</ele><time>2026-05-03T10:50:10.006Z</time></trkpt><trkpt lat="44.42449217049565" lon="11.79219333734758"><ele>13.999999999999998</ele><time>2026-05-03T10:50:11.006Z</time></trkpt><trkpt lat="44.42458673964488" lon="11.792258931534468"><ele>13.999999999999998</ele><time>2026-05-03T10:50:12.006Z</time></trkpt><trkpt lat="44.42468461087558" lon="11.792327200797194"><ele>14.0</ele><time>2026-05-03T10:50:13.006Z</time></trkpt><trkpt lat="44.42478625480734" lon="11.792401685991809"><ele>14.0</ele><time>2026-05-03T10:50:14.006Z</time></trkpt><trkpt lat="44.424886462467896" lon="11.7924772370929"><ele>14.25</ele><time>2026-05-03T10:50:15.006Z</time></trkpt><trkpt lat="44.42498609847982" lon="11.792553426753967"><ele>14.5</ele><time>2026-05-03T10:50:16.006Z</time></trkpt><trkpt lat="44.4250848834212" lon="11.792629890925701"><ele>14.75</ele><time>2026-05-03T10:50:17.006Z</time></trkpt><trkpt lat="44.42519049814379" lon="11.792700569600843"><ele>15.0</ele><time>2026-05-03T10:50:18.006Z</time></trkpt><trkpt lat="44.42529289511471" lon="11.792777205093278"><ele>14.75</ele><time>2026-05-03T10:50:19.006Z</time></trkpt><trkpt lat="44.42539804728242" lon="11.792852977048785"><ele>14.5</ele><time>2026-05-03T10:50:20.006Z</time></trkpt><trkpt lat="44.425500106737054" lon="11.792933772425148"><ele>14.25</ele><time>2026-05-03T10:50:21.006Z</time></trkpt><trkpt lat="44.4255994843185" lon="11.79301206966245"><ele>14.0</ele><time>2026-05-03T10:50:22.006Z</time></trkpt><trkpt lat="44.42569871456857" lon="11.79308453885741"><ele>14.0</ele><time>2026-05-03T10:50:23.006Z</time></trkpt><trkpt lat="44.42580091031473" lon="11.793164813784642"><ele>14.0</ele><time>2026-05-03T10:50:24.006Z</time></trkpt><trkpt lat="44.42590516836028" lon="11.7932484250676"><ele>14.0</ele><time>2026-05-03T10:50:25.006Z</time></trkpt><trkpt lat="44.42600768063198" lon="11.793329555213717"><ele>14.0</ele><time>2026-05-03T10:50:26.006Z</time></trkpt><trkpt lat="44.42611282973317" lon="11.793407548354823"><ele>14.0</ele><time>2026-05-03T10:50:27.007Z</time></trkpt><trkpt lat="44.426217676137995" lon="11.793489222615422"><ele>14.0</ele><time>2026-05-03T10:50:28.007Z</time></trkpt><trkpt lat="44.426325936266835" lon="11.793572534599223"><ele>14.0</ele><time>2026-05-03T10:50:29.007Z</time></trkpt><trkpt lat="44.42643654285883" lon="11.793652395796402"><ele>14.0</ele><time>2026-05-03T10:50:30.007Z</time></trkpt><trkpt lat="44.42655344132816" lon="11.793740491784236"><ele>13.75</ele><time>2026-05-03T10:50:31.007Z</time></trkpt><trkpt lat="44.42666437959089" lon="11.793834282589442"><ele>13.5</ele><time>2026-05-03T10:50:32.007Z</time></trkpt><trkpt lat="44.42677861947027" lon="11.793926585433034"><ele>13.25</ele><time>2026-05-03T10:50:33.007Z</time></trkpt><trkpt lat="44.42689348474135" lon="11.794013965303895"><ele>13.0</ele><time>2026-05-03T10:50:34.007Z</time></trkpt><trkpt lat="44.42700103516867" lon="11.794097965188664"><ele>13.0</ele><time>2026-05-03T10:50:35.007Z</time></trkpt><trkpt lat="44.42711170440601" lon="11.794184251089192"><ele>13.0</ele><time>2026-05-03T10:50:36.007Z</time></trkpt><trkpt lat="44.42722395982193" lon="11.794268153057049"><ele>13.0</ele><time>2026-05-03T10:50:37.007Z</time></trkpt><trkpt lat="44.427338532382784" lon="11.794354284282607"><ele>13.0</ele><time>2026-05-03T10:50:38.007Z</time></trkpt><trkpt lat="44.42745453660907" lon="11.794440728984512"><ele>12.75</ele><time>2026-05-03T10:50:39.007Z</time></trkpt><trkpt lat="44.42756682546618" lon="11.794524855970062"><ele>12.5</ele><time>2026-05-03T10:50:40.007Z</time></trkpt><trkpt lat="44.42768036412532" lon="11.794610362513897"><ele>12.25</ele><time>2026-05-03T10:50:41.007Z</time></trkpt><trkpt lat="44.42779075463317" lon="11.794696011189473"><ele>12.0</ele><time>2026-05-03T10:50:42.007Z</time></trkpt><trkpt lat="44.427898575296304" lon="11.794783759352605"><ele>12.25</ele><time>2026-05-03T10:50:43.007Z</time></trkpt><trkpt lat="44.42800902266803" lon="11.79486892906509"><ele>12.5</ele><time>2026-05-03T10:50:44.007Z</time></trkpt><trkpt lat="44.42812075551259" lon="11.79495973696854"><ele>12.75</ele><time>2026-05-03T10:50:45.007Z</time></trkpt><trkpt lat="44.42822955590102" lon="11.795047369495078"><ele>13.0</ele><time>2026-05-03T10:50:46.007Z</time></trkpt><trkpt lat="44.42834506175986" lon="11.795134853558912"><ele>13.0</ele><time>2026-05-03T10:50:47.007Z</time></trkpt><trkpt lat="44.42845994588409" lon="11.795225173821425"><ele>13.0</ele><time>2026-05-03T10:50:48.007Z</time></trkpt><trkpt lat="44.4285761051729" lon="11.795313075783719"><ele>13.0</ele><time>2026-05-03T10:50:49.007Z</time></trkpt><trkpt lat="44.42868829674893" lon="11.795398162204663"><ele>13.0</ele><time>2026-05-03T10:50:50.007Z</time></trkpt><trkpt lat="44.4288020343052" lon="11.795485342227286"><ele>13.0</ele><time>2026-05-03T10:50:51.007Z</time></trkpt><trkpt lat="44.42891537777787" lon="11.79557359992"><ele>13.0</ele><time>2026-05-03T10:50:52.007Z</time></trkpt><trkpt lat="44.42902981241074" lon="11.795660624339964"><ele>13.0</ele><time>2026-05-03T10:50:53.007Z</time></trkpt><trkpt lat="44.42914038433121" lon="11.79574792612239"><ele>13.0</ele><time>2026-05-03T10:50:54.007Z</time></trkpt><trkpt lat="44.42925493718774" lon="11.795836339431506"><ele>13.0</ele><time>2026-05-03T10:50:55.007Z</time></trkpt><trkpt lat="44.429369854217505" lon="11.795921940765929"><ele>13.0</ele><time>2026-05-03T10:50:56.007Z</time></trkpt><trkpt lat="44.429484487978364" lon="11.796005741165505"><ele>13.0</ele><time>2026-05-03T10:50:57.007Z</time></trkpt><trkpt lat="44.42959241635644" lon="11.796092224599313"><ele>13.0</ele><time>2026-05-03T10:50:58.007Z</time></trkpt><trkpt lat="44.42970014394678" lon="11.796177060453926"><ele>13.25</ele><time>2026-05-03T10:50:59.007Z</time></trkpt><trkpt lat="44.42980807931891" lon="11.796259643462246"><ele>13.5</ele><time>2026-05-03T10:51:00.007Z</time></trkpt><trkpt lat="44.4299098958805" lon="11.796347866062023"><ele>13.75</ele><time>2026-05-03T10:51:01.007Z</time></trkpt><trkpt lat="44.43002019046534" lon="11.796435491896004"><ele>14.0</ele><time>2026-05-03T10:51:02.007Z</time></trkpt><trkpt lat="44.430125629149515" lon="11.796516335339465"><ele>14.0</ele><time>2026-05-03T10:51:03.007Z</time></trkpt><trkpt lat="44.43022982307041" lon="11.796605054316627"><ele>14.0</ele><time>2026-05-03T10:51:04.007Z</time></trkpt><trkpt lat="44.430328765128124" lon="11.796701649032187"><ele>14.0</ele><time>2026-05-03T10:51:05.007Z</time></trkpt><trkpt lat="44.43042930888253" lon="11.796791768046521"><ele>14.0</ele><time>2026-05-03T10:51:06.008Z</time></trkpt><trkpt lat="44.430527992720094" lon="11.796879571932196"><ele>13.75</ele><time>2026-05-03T10:51:07.008Z</time></trkpt><trkpt lat="44.43062883677065" lon="11.79696946777947"><ele>13.5</ele><time>2026-05-03T10:51:08.008Z</time></trkpt><trkpt lat="44.4307270901116" lon="11.797059993525085"><ele>13.25</ele><time>2026-05-03T10:51:09.008Z</time></trkpt><trkpt lat="44.43082211745921" lon="11.797152230426923"><ele>13.0</ele><time>2026-05-03T10:51:10.008Z</time></trkpt><trkpt lat="44.430919491611895" lon="11.797245390856288"><ele>13.0</ele><time>2026-05-03T10:51:11.008Z</time></trkpt><trkpt lat="44.43101906793543" lon="11.797335440502199"><ele>13.0</ele><time>2026-05-03T10:51:12.008Z</time></trkpt><trkpt lat="44.43111514537322" lon="11.797416970389401"><ele>13.0</ele><time>2026-05-03T10:51:13.008Z</time></trkpt><trkpt lat="44.43121867028866" lon="11.797497515190624"><ele>13.0</ele><time>2026-05-03T10:51:14.008Z</time></trkpt><trkpt lat="44.43132676748547" lon="11.797579352483918"><ele>13.0</ele><time>2026-05-03T10:51:15.008Z</time></trkpt><trkpt lat="44.431436753668464" lon="11.797663633077692"><ele>13.0</ele><time>2026-05-03T10:51:16.008Z</time></trkpt><trkpt lat="44.431551017586806" lon="11.797753122418575"><ele>13.0</ele><time>2026-05-03T10:51:17.008Z</time></trkpt><trkpt lat="44.4316721473949" lon="11.797841974546019"><ele>13.0</ele><time>2026-05-03T10:51:18.008Z</time></trkpt><trkpt lat="44.431791598933906" lon="11.797931242087406"><ele>13.0</ele><time>2026-05-03T10:51:19.008Z</time></trkpt><trkpt lat="44.43190741955085" lon="11.798022104184746"><ele>13.0</ele><time>2026-05-03T10:51:20.008Z</time></trkpt><trkpt lat="44.43202020512402" lon="11.79811288665361"><ele>13.0</ele><time>2026-05-03T10:51:21.008Z</time></trkpt><trkpt lat="44.43213908834761" lon="11.798201776470991"><ele>13.0</ele><time>2026-05-03T10:51:22.008Z</time></trkpt><trkpt lat="44.43225736962632" lon="11.79828832968711"><ele>12.5</ele><time>2026-05-03T10:51:23.008Z</time></trkpt><trkpt lat="44.43237119327905" lon="11.798375964820668"><ele>12.0</ele><time>2026-05-03T10:51:24.008Z</time></trkpt><trkpt lat="44.43248409681234" lon="11.798464039634165"><ele>11.5</ele><time>2026-05-03T10:51:25.008Z</time></trkpt><trkpt lat="44.43259655602047" lon="11.798551095711618"><ele>11.0</ele><time>2026-05-03T10:51:26.008Z</time></trkpt><trkpt lat="44.43271026767501" lon="11.798636531759982"><ele>11.0</ele><time>2026-05-03T10:51:27.008Z</time></trkpt><trkpt lat="44.43282135022544" lon="11.79872146484926"><ele>11.0</ele><time>2026-05-03T10:51:28.008Z</time></trkpt><trkpt lat="44.43293335077312" lon="11.798807993721274"><ele>11.0</ele><time>2026-05-03T10:51:29.008Z</time></trkpt><trkpt lat="44.43304417039213" lon="11.79889292055204"><ele>11.0</ele><time>2026-05-03T10:51:30.008Z</time></trkpt><trkpt lat="44.433153638219196" lon="11.798976142571037"><ele>10.75</ele><time>2026-05-03T10:51:31.008Z</time></trkpt><trkpt lat="44.43326317152647" lon="11.799060795094997"><ele>10.5</ele><time>2026-05-03T10:51:32.008Z</time></trkpt><trkpt lat="44.43337108813111" lon="11.799145175759486"><ele>10.25</ele><time>2026-05-03T10:51:33.008Z</time></trkpt><trkpt lat="44.43348226980969" lon="11.7992274677269"><ele>10.0</ele><time>2026-05-03T10:51:34.008Z</time></trkpt><trkpt lat="44.43359457206366" lon="11.799312797274524"><ele>10.5</ele><time>2026-05-03T10:51:35.008Z</time></trkpt><trkpt lat="44.43370583743444" lon="11.799397041934297"><ele>11.0</ele><time>2026-05-03T10:51:36.008Z</time></trkpt><trkpt lat="44.43381985808365" lon="11.799481846652974"><ele>11.5</ele><time>2026-05-03T10:51:37.008Z</time></trkpt><trkpt lat="44.433936907410065" lon="11.799568873329962"><ele>12.0</ele><time>2026-05-03T10:51:38.008Z</time></trkpt><trkpt lat="44.43405478496418" lon="11.79966025765126"><ele>12.0</ele><time>2026-05-03T10:51:39.008Z</time></trkpt><trkpt lat="44.4341765850788" lon="11.799752221194472"><ele>12.0</ele><time>2026-05-03T10:51:40.008Z</time></trkpt><trkpt lat="44.43430085227961" lon="11.799845291160077"><ele>12.0</ele><time>2026-05-03T10:51:41.008Z</time></trkpt><trkpt lat="44.43442282473861" lon="11.799934716286243"><ele>12.0</ele><time>2026-05-03T10:51:42.008Z</time></trkpt><trkpt lat="44.434545463316276" lon="11.800024974451238"><ele>12.0</ele><time>2026-05-03T10:51:43.008Z</time></trkpt><trkpt lat="44.43467158346735" lon="11.800120257620092"><ele>12.0</ele><time>2026-05-03T10:51:44.008Z</time></trkpt><trkpt lat="44.43479412674337" lon="11.800215826174066"><ele>12.0</ele><time>2026-05-03T10:51:45.009Z</time></trkpt><trkpt lat="44.434920347535495" lon="11.800310848356059"><ele>12.0</ele><time>2026-05-03T10:51:46.009Z</time></trkpt><trkpt lat="44.43503992854439" lon="11.800407662271821"><ele>12.0</ele><time>2026-05-03T10:51:47.009Z</time></trkpt><trkpt lat="44.43516176027246" lon="11.800505370333195"><ele>12.0</ele><time>2026-05-03T10:51:48.009Z</time></trkpt><trkpt lat="44.435282095716104" lon="11.800600074529667"><ele>12.0</ele><time>2026-05-03T10:51:49.009Z</time></trkpt><trkpt lat="44.435402468523876" lon="11.800689384023766"><ele>12.0</ele><time>2026-05-03T10:51:50.009Z</time></trkpt><trkpt lat="44.43552235447002" lon="11.800779208894754"><ele>11.5</ele><time>2026-05-03T10:51:51.009Z</time></trkpt><trkpt lat="44.43564359905072" lon="11.80086896843962"><ele>11.0</ele><time>2026-05-03T10:51:52.009Z</time></trkpt><trkpt lat="44.43577079195783" lon="11.800962222137436"><ele>10.5</ele><time>2026-05-03T10:51:53.009Z</time></trkpt><trkpt lat="44.435891853378614" lon="11.801057184570139"><ele>10.0</ele><time>2026-05-03T10:51:54.009Z</time></trkpt><trkpt lat="44.4360101098716" lon="11.801153333708744"><ele>10.0</ele><time>2026-05-03T10:51:55.009Z</time></trkpt><trkpt lat="44.43613316860588" lon="11.801244359283045"><ele>10.0</ele><time>2026-05-03T10:51:56.009Z</time></trkpt><trkpt lat="44.436258238596274" lon="11.801340251387202"><ele>10.0</ele><time>2026-05-03T10:51:57.009Z</time></trkpt><trkpt lat="44.43638992478605" lon="11.801408836981391"><ele>10.0</ele><time>2026-05-03T10:51:58.009Z</time></trkpt><trkpt lat="44.436509991841795" lon="11.801515216096167"><ele>10.0</ele><time>2026-05-03T10:51:59.009Z</time></trkpt><trkpt lat="44.43663782015831" lon="11.80159273027201"><ele>10.0</ele><time>2026-05-03T10:52:00.009Z</time></trkpt><trkpt lat="44.436765585135525" lon="11.801673487193817"><ele>10.0</ele><time>2026-05-03T10:52:01.009Z</time></trkpt><trkpt lat="44.43688776131444" lon="11.801750164430377"><ele>10.0</ele><time>2026-05-03T10:52:02.009Z</time></trkpt><trkpt lat="44.437007468979964" lon="11.801832119545951"><ele>10.0</ele><time>2026-05-03T10:52:03.009Z</time></trkpt><trkpt lat="44.437125042952616" lon="11.801911684681567"><ele>10.0</ele><time>2026-05-03T10:52:04.009Z</time></trkpt><trkpt lat="44.43723904955542" lon="11.801990668096247"><ele>10.0</ele><time>2026-05-03T10:52:05.009Z</time></trkpt><trkpt lat="44.437356332224105" lon="11.802066807231942"><ele>10.0</ele><time>2026-05-03T10:52:06.009Z</time></trkpt><trkpt lat="44.43747354700672" lon="11.802143866577069"><ele>9.75</ele><time>2026-05-03T10:52:07.009Z</time></trkpt><trkpt lat="44.43758391201406" lon="11.802220742526421"><ele>9.5</ele><time>2026-05-03T10:52:08.009Z</time></trkpt><trkpt lat="44.43769872590221" lon="11.802298251649495"><ele>9.25</ele><time>2026-05-03T10:52:09.009Z</time></trkpt><trkpt lat="44.43781229484162" lon="11.802375542903809"><ele>9.0</ele><time>2026-05-03T10:52:10.009Z</time></trkpt><trkpt lat="44.43792500462033" lon="11.802451376981178"><ele>9.25</ele><time>2026-05-03T10:52:11.009Z</time></trkpt><trkpt lat="44.438034476431035" lon="11.802526587516256"><ele>9.5</ele><time>2026-05-03T10:52:12.009Z</time></trkpt><trkpt lat="44.4381512055485" lon="11.802603951202698"><ele>9.75</ele><time>2026-05-03T10:52:13.009Z</time></trkpt><trkpt lat="44.43826619121499" lon="11.80267931093417"><ele>10.0</ele><time>2026-05-03T10:52:14.009Z</time></trkpt><trkpt lat="44.438379790415134" lon="11.802754458269348"><ele>10.0</ele><time>2026-05-03T10:52:15.009Z</time></trkpt><trkpt lat="44.43849259732788" lon="11.802828892748998"><ele>10.0</ele><time>2026-05-03T10:52:16.009Z</time></trkpt><trkpt lat="44.4386108178558" lon="11.802908509605938"><ele>10.0</ele><time>2026-05-03T10:52:17.009Z</time></trkpt><trkpt lat="44.43872455960863" lon="11.80299146370026"><ele>10.0</ele><time>2026-05-03T10:52:18.009Z</time></trkpt><trkpt lat="44.43883427866917" lon="11.8030788713824"><ele>10.0</ele><time>2026-05-03T10:52:19.009Z</time></trkpt><trkpt lat="44.43894345822989" lon="11.803166151539797"><ele>10.0</ele><time>2026-05-03T10:52:20.009Z</time></trkpt><trkpt lat="44.43904859071505" lon="11.803259615788326"><ele>10.0</ele><time>2026-05-03T10:52:21.009Z</time></trkpt><trkpt lat="44.43915542645919" lon="11.803358428824037"><ele>10.0</ele><time>2026-05-03T10:52:22.009Z</time></trkpt><trkpt lat="44.439253589559236" lon="11.803469995143246"><ele>10.2</ele><time>2026-05-03T10:52:23.009Z</time></trkpt><trkpt lat="44.4393375103738" lon="11.803591673222067"><ele>10.4</ele><time>2026-05-03T10:52:24.009Z</time></trkpt><trkpt lat="44.439419870797146" lon="11.80371540109288"><ele>10.600000000000001</ele><time>2026-05-03T10:52:25.01Z</time></trkpt><trkpt lat="44.43948940912978" lon="11.803835745045776"><ele>10.8</ele><time>2026-05-03T10:52:26.01Z</time></trkpt><trkpt lat="44.439549024279" lon="11.803939120223516"><ele>11.0</ele><time>2026-05-03T10:52:27.01Z</time></trkpt><trkpt lat="44.43960657410176" lon="11.804029575880447"><ele>11.166666666666666</ele><time>2026-05-03T10:52:28.01Z</time></trkpt><trkpt lat="44.43966222424514" lon="11.804119514710932"><ele>11.333333333333332</ele><time>2026-05-03T10:52:29.01Z</time></trkpt><trkpt lat="44.43971399166362" lon="11.804204656359193"><ele>11.5</ele><time>2026-05-03T10:52:30.01Z</time></trkpt><trkpt lat="44.439761582262776" lon="11.80429120720762"><ele>11.666666666666666</ele><time>2026-05-03T10:52:31.01Z</time></trkpt><trkpt lat="44.439782344681895" lon="11.804398247453065"><ele>11.833333333333334</ele><time>2026-05-03T10:52:32.01Z</time></trkpt><trkpt lat="44.439790923215085" lon="11.804508035365616"><ele>12.0</ele><time>2026-05-03T10:52:33.01Z</time></trkpt><trkpt lat="44.439807287230316" lon="11.804622126844047"><ele>12.0</ele><time>2026-05-03T10:52:34.01Z</time></trkpt><trkpt lat="44.43974534275258" lon="11.80472612111658"><ele>12.0</ele><time>2026-05-03T10:52:35.01Z</time></trkpt><trkpt lat="44.43971027740366" lon="11.804842633977117"><ele>12.0</ele><time>2026-05-03T10:52:36.01Z</time></trkpt><trkpt lat="44.439675338955425" lon="11.80495423520923"><ele>12.0</ele><time>2026-05-03T10:52:37.01Z</time></trkpt><trkpt lat="44.439635417429194" lon="11.805081753213015"><ele>12.0</ele><time>2026-05-03T10:52:38.01Z</time></trkpt><trkpt lat="44.43960691530669" lon="11.805226402643127"><ele>12.0</ele><time>2026-05-03T10:52:39.01Z</time></trkpt><trkpt lat="44.43956513851568" lon="11.805361135104482"><ele>12.0</ele><time>2026-05-03T10:52:40.01Z</time></trkpt><trkpt lat="44.43950621190836" lon="11.805494464521612"><ele>12.0</ele><time>2026-05-03T10:52:41.01Z</time></trkpt><trkpt lat="44.43946145555823" lon="11.805637426214066"><ele>12.0</ele><time>2026-05-03T10:52:42.01Z</time></trkpt><trkpt lat="44.4394133574588" lon="11.80579106225779"><ele>12.0</ele><time>2026-05-03T10:52:43.01Z</time></trkpt><trkpt lat="44.439379688407996" lon="11.805955414650732"><ele>12.0</ele><time>2026-05-03T10:52:44.01Z</time></trkpt><trkpt lat="44.439328215658975" lon="11.806112576938045"><ele>12.0</ele><time>2026-05-03T10:52:45.01Z</time></trkpt><trkpt lat="44.43927074637341" lon="11.806264825775248"><ele>12.0</ele><time>2026-05-03T10:52:46.01Z</time></trkpt><trkpt lat="44.439218625542416" lon="11.806421093786748"><ele>12.0</ele><time>2026-05-03T10:52:47.01Z</time></trkpt><trkpt lat="44.43916519918847" lon="11.806581570764658"><ele>12.0</ele><time>2026-05-03T10:52:48.01Z</time></trkpt><trkpt lat="44.439113951735685" lon="11.80673916147202"><ele>12.0</ele><time>2026-05-03T10:52:49.01Z</time></trkpt><trkpt lat="44.439065009968076" lon="11.80689319979186"><ele>12.0</ele><time>2026-05-03T10:52:50.01Z</time></trkpt><trkpt lat="44.43901680513824" lon="11.80704701867224"><ele>12.0</ele><time>2026-05-03T10:52:51.01Z</time></trkpt><trkpt lat="44.438970225441544" lon="11.807201232936082"><ele>12.0</ele><time>2026-05-03T10:52:52.01Z</time></trkpt><trkpt lat="44.438925008431205" lon="11.807347592330702"><ele>12.0</ele><time>2026-05-03T10:52:53.01Z</time></trkpt><trkpt lat="44.438878514385614" lon="11.807490418676842"><ele>12.0</ele><time>2026-05-03T10:52:54.01Z</time></trkpt><trkpt lat="44.43883221143495" lon="11.80763524530993"><ele>12.0</ele><time>2026-05-03T10:52:55.01Z</time></trkpt><trkpt lat="44.43878646096269" lon="11.807782528409042"><ele>11.75</ele><time>2026-05-03T10:52:56.01Z</time></trkpt><trkpt lat="44.43873871684662" lon="11.807932223497577"><ele>11.5</ele><time>2026-05-03T10:52:57.01Z</time></trkpt><trkpt lat="44.438692423850966" lon="11.808083426702249"><ele>11.25</ele><time>2026-05-03T10:52:58.01Z</time></trkpt><trkpt lat="44.43864704773747" lon="11.808233452556516"><ele>11.0</ele><time>2026-05-03T10:52:59.01Z</time></trkpt><trkpt lat="44.438600768806076" lon="11.808387251258624"><ele>11.0</ele><time>2026-05-03T10:53:00.01Z</time></trkpt><trkpt lat="44.438552611797014" lon="11.808539016341456"><ele>11.0</ele><time>2026-05-03T10:53:01.01Z</time></trkpt><trkpt lat="44.438504771119256" lon="11.808695672766765"><ele>11.0</ele><time>2026-05-03T10:53:02.01Z</time></trkpt><trkpt lat="44.43845285184786" lon="11.808851798082042"><ele>11.0</ele><time>2026-05-03T10:53:03.01Z</time></trkpt><trkpt lat="44.43840328284028" lon="11.80900988758842"><ele>11.0</ele><time>2026-05-03T10:53:04.011Z</time></trkpt><trkpt lat="44.43835331687073" lon="11.80916442666181"><ele>11.0</ele><time>2026-05-03T10:53:05.011Z</time></trkpt><trkpt lat="44.43830666470784" lon="11.809315161848794"><ele>11.0</ele><time>2026-05-03T10:53:06.011Z</time></trkpt><trkpt lat="44.43826085632323" lon="11.809466284130234"><ele>11.0</ele><time>2026-05-03T10:53:07.011Z</time></trkpt><trkpt lat="44.43821666595834" lon="11.809613299035014"><ele>11.0</ele><time>2026-05-03T10:53:08.011Z</time></trkpt><trkpt lat="44.438174679863835" lon="11.809750111265743"><ele>11.0</ele><time>2026-05-03T10:53:09.011Z</time></trkpt><trkpt lat="44.43813878080496" lon="11.809874903527366"><ele>11.0</ele><time>2026-05-03T10:53:10.011Z</time></trkpt><trkpt lat="44.43810273269434" lon="11.809996046748603"><ele>11.0</ele><time>2026-05-03T10:53:11.011Z</time></trkpt><trkpt lat="44.438066876833716" lon="11.810112107473568"><ele>11.0</ele><time>2026-05-03T10:53:12.011Z</time></trkpt><trkpt lat="44.43803058755945" lon="11.81022357483177"><ele>11.0</ele><time>2026-05-03T10:53:13.011Z</time></trkpt><trkpt lat="44.43799260000483" lon="11.810338867954785"><ele>11.0</ele><time>2026-05-03T10:53:14.011Z</time></trkpt><trkpt lat="44.43795752813054" lon="11.81045226627112"><ele>11.0</ele><time>2026-05-03T10:53:15.011Z</time></trkpt><trkpt lat="44.43792301422049" lon="11.810563765897188"><ele>11.0</ele><time>2026-05-03T10:53:16.011Z</time></trkpt><trkpt lat="44.43789111894068" lon="11.810679790138142"><ele>11.0</ele><time>2026-05-03T10:53:17.011Z</time></trkpt><trkpt lat="44.43785626350563" lon="11.81078928905137"><ele>11.0</ele><time>2026-05-03T10:53:18.011Z</time></trkpt><trkpt lat="44.43782337059043" lon="11.810907894912052"><ele>11.200000000000001</ele><time>2026-05-03T10:53:19.011Z</time></trkpt><trkpt lat="44.43778903032337" lon="11.81102718332525"><ele>11.4</ele><time>2026-05-03T10:53:20.011Z</time></trkpt><trkpt lat="44.437750995399135" lon="11.811148792032085"><ele>11.6</ele><time>2026-05-03T10:53:21.011Z</time></trkpt><trkpt lat="44.43771310076024" lon="11.811278825375913"><ele>11.8</ele><time>2026-05-03T10:53:22.011Z</time></trkpt><trkpt lat="44.43767343128832" lon="11.81141298483479"><ele>12.0</ele><time>2026-05-03T10:53:23.011Z</time></trkpt><trkpt lat="44.43763129088242" lon="11.81154981176088"><ele>12.0</ele><time>2026-05-03T10:53:24.011Z</time></trkpt><trkpt lat="44.43759100748973" lon="11.811691669676991"><ele>12.0</ele><time>2026-05-03T10:53:25.011Z</time></trkpt><trkpt lat="44.43754718427507" lon="11.811835770675799"><ele>12.0</ele><time>2026-05-03T10:53:26.011Z</time></trkpt><trkpt lat="44.43750186297714" lon="11.811985394787294"><ele>12.0</ele><time>2026-05-03T10:53:27.011Z</time></trkpt><trkpt lat="44.43745325760082" lon="11.812138298956658"><ele>12.0</ele><time>2026-05-03T10:53:28.011Z</time></trkpt><trkpt lat="44.43740484390989" lon="11.81229176042179"><ele>12.0</ele><time>2026-05-03T10:53:29.011Z</time></trkpt><trkpt lat="44.43735712740247" lon="11.812444672077334"><ele>12.0</ele><time>2026-05-03T10:53:30.011Z</time></trkpt><trkpt lat="44.437308354289044" lon="11.812601264644226"><ele>12.0</ele><time>2026-05-03T10:53:31.011Z</time></trkpt><trkpt lat="44.437258840743205" lon="11.812752649929843"><ele>12.0</ele><time>2026-05-03T10:53:32.011Z</time></trkpt><trkpt lat="44.437210524082055" lon="11.812905461305105"><ele>12.0</ele><time>2026-05-03T10:53:33.011Z</time></trkpt><trkpt lat="44.43716430707799" lon="11.813053815673928"><ele>12.0</ele><time>2026-05-03T10:53:34.011Z</time></trkpt><trkpt lat="44.43711699166302" lon="11.813198767291818"><ele>12.0</ele><time>2026-05-03T10:53:35.011Z</time></trkpt><trkpt lat="44.43707085260011" lon="11.81334465508416"><ele>11.75</ele><time>2026-05-03T10:53:36.011Z</time></trkpt><trkpt lat="44.4370259156807" lon="11.81349138062291"><ele>11.5</ele><time>2026-05-03T10:53:37.011Z</time></trkpt><trkpt lat="44.43698034222668" lon="11.81363323370828"><ele>11.25</ele><time>2026-05-03T10:53:38.011Z</time></trkpt><trkpt lat="44.43693398872635" lon="11.813778384592787"><ele>11.0</ele><time>2026-05-03T10:53:39.011Z</time></trkpt><trkpt lat="44.43688829083491" lon="11.813925890221654"><ele>11.0</ele><time>2026-05-03T10:53:40.011Z</time></trkpt><trkpt lat="44.436843505287364" lon="11.814073587847439"><ele>11.0</ele><time>2026-05-03T10:53:41.011Z</time></trkpt><trkpt lat="44.43679917395397" lon="11.814219355534636"><ele>11.0</ele><time>2026-05-03T10:53:42.011Z</time></trkpt><trkpt lat="44.436754374431835" lon="11.81436325476429"><ele>11.0</ele><time>2026-05-03T10:53:43.012Z</time></trkpt><trkpt lat="44.4367087053483" lon="11.814508493114127"><ele>10.8</ele><time>2026-05-03T10:53:44.012Z</time></trkpt><trkpt lat="44.43666474824954" lon="11.814651933529138"><ele>10.600000000000001</ele><time>2026-05-03T10:53:45.012Z</time></trkpt><trkpt lat="44.436621356533166" lon="11.814791200555268"><ele>10.4</ele><time>2026-05-03T10:53:46.012Z</time></trkpt><trkpt lat="44.43657917166586" lon="11.814929658829557"><ele>10.2</ele><time>2026-05-03T10:53:47.012Z</time></trkpt><trkpt lat="44.43653860132787" lon="11.815061475914648"><ele>10.0</ele><time>2026-05-03T10:53:48.012Z</time></trkpt><trkpt lat="44.43650280221662" lon="11.815178739250621"><ele>10.0</ele><time>2026-05-03T10:53:49.012Z</time></trkpt><trkpt lat="44.4364694951031" lon="11.81528671555484"><ele>10.0</ele><time>2026-05-03T10:53:50.012Z</time></trkpt><trkpt lat="44.436436172518775" lon="11.815390163496893"><ele>10.0</ele><time>2026-05-03T10:53:51.012Z</time></trkpt><trkpt lat="44.43640482509906" lon="11.815484555021147"><ele>10.0</ele><time>2026-05-03T10:53:52.012Z</time></trkpt><trkpt lat="44.436376584791155" lon="11.815576750173884"><ele>10.0</ele><time>2026-05-03T10:53:53.012Z</time></trkpt><trkpt lat="44.4363402711231" lon="11.815720078968448"><ele>10.0</ele><time>2026-05-03T10:53:55.012Z</time></trkpt><trkpt lat="44.43633248184684" lon="11.815845547638181"><ele>10.0</ele><time>2026-05-03T10:53:57.012Z</time></trkpt><trkpt lat="44.43641438831613" lon="11.815920161697402"><ele>10.0</ele><time>2026-05-03T10:53:59.012Z</time></trkpt><trkpt lat="44.436532612034426" lon="11.815999502356446"><ele>10.0</ele><time>2026-05-03T10:54:01.012Z</time></trkpt><trkpt lat="44.43660412590904" lon="11.816044069263159"><ele>10.0</ele><time>2026-05-03T10:54:02.012Z</time></trkpt><trkpt lat="44.43667805713424" lon="11.816090142707722"><ele>10.0</ele><time>2026-05-03T10:54:03.012Z</time></trkpt><trkpt lat="44.436752794880526" lon="11.81613671877305"><ele>10.0</ele><time>2026-05-03T10:54:04.012Z</time></trkpt><trkpt lat="44.436832801237394" lon="11.816186578232424"><ele>10.0</ele><time>2026-05-03T10:54:05.012Z</time></trkpt><trkpt lat="44.43691552185904" lon="11.816238129163953"><ele>10.0</ele><time>2026-05-03T10:54:06.012Z</time></trkpt><trkpt lat="44.43701077625576" lon="11.816297490944672"><ele>10.0</ele><time>2026-05-03T10:54:07.012Z</time></trkpt><trkpt lat="44.43710992605737" lon="11.816359280488452"><ele>10.0</ele><time>2026-05-03T10:54:08.012Z</time></trkpt><trkpt lat="44.43721589431556" lon="11.816425319184885"><ele>10.0</ele><time>2026-05-03T10:54:09.012Z</time></trkpt><trkpt lat="44.43732141505365" lon="11.816515077880338"><ele>10.0</ele><time>2026-05-03T10:54:10.012Z</time></trkpt><trkpt lat="44.43744468138979" lon="11.816592066559902"><ele>10.0</ele><time>2026-05-03T10:54:11.012Z</time></trkpt><trkpt lat="44.43757568334128" lon="11.816674896710722"><ele>10.0</ele><time>2026-05-03T10:54:12.012Z</time></trkpt><trkpt lat="44.437708464146255" lon="11.816732285326255"><ele>10.0</ele><time>2026-05-03T10:54:13.012Z</time></trkpt><trkpt lat="44.43783010238148" lon="11.816831430882688"><ele>10.0</ele><time>2026-05-03T10:54:14.012Z</time></trkpt><trkpt lat="44.43794660570783" lon="11.816901560731532"><ele>10.0</ele><time>2026-05-03T10:54:15.012Z</time></trkpt><trkpt lat="44.438076526623405" lon="11.816964206932967"><ele>10.0</ele><time>2026-05-03T10:54:16.012Z</time></trkpt><trkpt lat="44.4381883758929" lon="11.817027624100335"><ele>10.25</ele><time>2026-05-03T10:54:17.012Z</time></trkpt><trkpt lat="44.43829823284371" lon="11.817087753963165"><ele>10.5</ele><time>2026-05-03T10:54:18.012Z</time></trkpt><trkpt lat="44.43840228238102" lon="11.81714622749619"><ele>10.75</ele><time>2026-05-03T10:54:19.012Z</time></trkpt><trkpt lat="44.4385071515948" lon="11.817208098048711"><ele>11.0</ele><time>2026-05-03T10:54:20.012Z</time></trkpt><trkpt lat="44.43860970517446" lon="11.817266857898789"><ele>11.0</ele><time>2026-05-03T10:54:21.012Z</time></trkpt><trkpt lat="44.43870898040919" lon="11.817329643350245"><ele>11.0</ele><time>2026-05-03T10:54:22.013Z</time></trkpt><trkpt lat="44.43880013348874" lon="11.817389308031172"><ele>11.0</ele><time>2026-05-03T10:54:23.013Z</time></trkpt><trkpt lat="44.43889543137491" lon="11.817449053191615"><ele>11.0</ele><time>2026-05-03T10:54:24.013Z</time></trkpt><trkpt lat="44.43898896071226" lon="11.81751000505783"><ele>11.0</ele><time>2026-05-03T10:54:25.013Z</time></trkpt><trkpt lat="44.43908719972107" lon="11.817571132348547"><ele>11.0</ele><time>2026-05-03T10:54:26.013Z</time></trkpt><trkpt lat="44.43918262980492" lon="11.817627834464314"><ele>11.0</ele><time>2026-05-03T10:54:27.013Z</time></trkpt><trkpt lat="44.439276118451" lon="11.817690462333227"><ele>11.0</ele><time>2026-05-03T10:54:28.013Z</time></trkpt><trkpt lat="44.439373573597315" lon="11.817748449504583"><ele>11.0</ele><time>2026-05-03T10:54:29.013Z</time></trkpt><trkpt lat="44.43946108678625" lon="11.817804016282308"><ele>11.0</ele><time>2026-05-03T10:54:30.013Z</time></trkpt><trkpt lat="44.43955016922494" lon="11.817859268807084"><ele>10.833333333333332</ele><time>2026-05-03T10:54:31.013Z</time></trkpt><trkpt lat="44.439626485291654" lon="11.817906182946931"><ele>10.666666666666666</ele><time>2026-05-03T10:54:32.013Z</time></trkpt><trkpt lat="44.439698155737595" lon="11.817949859048607"><ele>10.5</ele><time>2026-05-03T10:54:33.013Z</time></trkpt><trkpt lat="44.43976338552408" lon="11.817987959654278"><ele>10.333333333333334</ele><time>2026-05-03T10:54:34.013Z</time></trkpt><trkpt lat="44.439857386575525" lon="11.818044744190956"><ele>10.166666666666668</ele><time>2026-05-03T10:54:36.013Z</time></trkpt><trkpt lat="44.439916948322015" lon="11.818078574796077"><ele>10.0</ele><time>2026-05-03T10:54:38.013Z</time></trkpt><trkpt lat="44.439975299731984" lon="11.818145379467017"><ele>10.0</ele><time>2026-05-03T10:54:43.013Z</time></trkpt><trkpt lat="44.439947917235706" lon="11.81825299581442"><ele>10.0</ele><time>2026-05-03T10:54:46.013Z</time></trkpt><trkpt lat="44.43991297135512" lon="11.81836615292692"><ele>10.0</ele><time>2026-05-03T10:54:48.013Z</time></trkpt><trkpt lat="44.43986616816851" lon="11.8185137112777"><ele>10.0</ele><time>2026-05-03T10:54:50.013Z</time></trkpt><trkpt lat="44.43983734705314" lon="11.818604576752827"><ele>10.0</ele><time>2026-05-03T10:54:51.013Z</time></trkpt><trkpt lat="44.43980526704316" lon="11.818704721768917"><ele>10.0</ele><time>2026-05-03T10:54:52.013Z</time></trkpt><trkpt lat="44.43977206904598" lon="11.818808415515125"><ele>10.0</ele><time>2026-05-03T10:54:53.013Z</time></trkpt><trkpt lat="44.4397344576333" lon="11.818926137551005"><ele>10.0</ele><time>2026-05-03T10:54:54.013Z</time></trkpt><trkpt lat="44.439695828581" lon="11.81904859207848"><ele>10.0</ele><time>2026-05-03T10:54:55.013Z</time></trkpt><trkpt lat="44.43965691701916" lon="11.819171942133291"><ele>10.0</ele><time>2026-05-03T10:54:56.013Z</time></trkpt><trkpt lat="44.43961730055035" lon="11.819297526771011"><ele>10.0</ele><time>2026-05-03T10:54:57.013Z</time></trkpt><trkpt lat="44.439583468298395" lon="11.819436823430129"><ele>10.0</ele><time>2026-05-03T10:54:58.013Z</time></trkpt><trkpt lat="44.43954107855914" lon="11.819568254604224"><ele>10.0</ele><time>2026-05-03T10:54:59.013Z</time></trkpt><trkpt lat="44.43949700417257" lon="11.819702053015039"><ele>10.0</ele><time>2026-05-03T10:55:00.013Z</time></trkpt><trkpt lat="44.439455225829526" lon="11.819831092984309"><ele>10.0</ele><time>2026-05-03T10:55:01.014Z</time></trkpt><trkpt lat="44.43941570841331" lon="11.81995193268516"><ele>10.0</ele><time>2026-05-03T10:55:02.014Z</time></trkpt><trkpt lat="44.43938191831326" lon="11.820057187037518"><ele>10.0</ele><time>2026-05-03T10:55:03.014Z</time></trkpt><trkpt lat="44.439353451182456" lon="11.820149247196262"><ele>10.0</ele><time>2026-05-03T10:55:04.014Z</time></trkpt><trkpt lat="44.43932716644003" lon="11.820235260684873"><ele>10.0</ele><time>2026-05-03T10:55:05.014Z</time></trkpt><trkpt lat="44.43929997153973" lon="11.820321680908533"><ele>10.0</ele><time>2026-05-03T10:55:06.014Z</time></trkpt><trkpt lat="44.43927315602202" lon="11.820407167288824"><ele>10.0</ele><time>2026-05-03T10:55:07.014Z</time></trkpt><trkpt lat="44.439246770866475" lon="11.820491322283248"><ele>10.0</ele><time>2026-05-03T10:55:08.014Z</time></trkpt><trkpt lat="44.43922039096244" lon="11.820574954110517"><ele>10.0</ele><time>2026-05-03T10:55:09.014Z</time></trkpt><trkpt lat="44.43919329679377" lon="11.820664955216364"><ele>9.833333333333334</ele><time>2026-05-03T10:55:10.014Z</time></trkpt><trkpt lat="44.4391633775783" lon="11.820762223337235"><ele>9.666666666666668</ele><time>2026-05-03T10:55:11.014Z</time></trkpt><trkpt lat="44.439135730200626" lon="11.820860244419983"><ele>9.5</ele><time>2026-05-03T10:55:12.014Z</time></trkpt><trkpt lat="44.439103053947996" lon="11.820961364111652"><ele>9.333333333333334</ele><time>2026-05-03T10:55:13.014Z</time></trkpt><trkpt lat="44.439070358742626" lon="11.821065333641783"><ele>9.166666666666666</ele><time>2026-05-03T10:55:14.014Z</time></trkpt><trkpt lat="44.43903904637463" lon="11.821170298851591"><ele>9.0</ele><time>2026-05-03T10:55:15.014Z</time></trkpt><trkpt lat="44.43900740237891" lon="11.821273890967293"><ele>9.166666666666666</ele><time>2026-05-03T10:55:16.014Z</time></trkpt><trkpt lat="44.43897654199014" lon="11.821376998376888"><ele>9.333333333333334</ele><time>2026-05-03T10:55:17.014Z</time></trkpt><trkpt lat="44.43894862170541" lon="11.821473405420225"><ele>9.5</ele><time>2026-05-03T10:55:18.014Z</time></trkpt><trkpt lat="44.43892056548381" lon="11.821567521275846"><ele>9.666666666666668</ele><time>2026-05-03T10:55:19.014Z</time></trkpt><trkpt lat="44.43889231153197" lon="11.821661897995988"><ele>9.833333333333334</ele><time>2026-05-03T10:55:20.014Z</time></trkpt><trkpt lat="44.43886905622486" lon="11.821744784429077"><ele>10.0</ele><time>2026-05-03T10:55:21.014Z</time></trkpt><trkpt lat="44.4388179618161" lon="11.821901648851235"><ele>10.166666666666668</ele><time>2026-05-03T10:55:23.014Z</time></trkpt><trkpt lat="44.438790519104" lon="11.821989583419365"><ele>10.333333333333334</ele><time>2026-05-03T10:55:24.014Z</time></trkpt><trkpt lat="44.438760811715404" lon="11.822087983523542"><ele>10.5</ele><time>2026-05-03T10:55:25.014Z</time></trkpt><trkpt lat="44.438730383397086" lon="11.822191658133208"><ele>10.666666666666666</ele><time>2026-05-03T10:55:26.014Z</time></trkpt><trkpt lat="44.438694842362644" lon="11.822298672913126"><ele>10.833333333333332</ele><time>2026-05-03T10:55:27.014Z</time></trkpt><trkpt lat="44.438658478601056" lon="11.822423420163792"><ele>11.0</ele><time>2026-05-03T10:55:28.014Z</time></trkpt><trkpt lat="44.438619942872535" lon="11.822556841195368"><ele>11.0</ele><time>2026-05-03T10:55:29.014Z</time></trkpt><trkpt lat="44.43857883587992" lon="11.822692988678916"><ele>11.0</ele><time>2026-05-03T10:55:30.014Z</time></trkpt><trkpt lat="44.438539268014644" lon="11.822826702431403"><ele>11.0</ele><time>2026-05-03T10:55:31.014Z</time></trkpt><trkpt lat="44.43850008733426" lon="11.822959690846723"><ele>11.0</ele><time>2026-05-03T10:55:32.014Z</time></trkpt><trkpt lat="44.43845858944996" lon="11.823094213812817"><ele>11.0</ele><time>2026-05-03T10:55:33.014Z</time></trkpt><trkpt lat="44.438414725078886" lon="11.823233488409924"><ele>11.0</ele><time>2026-05-03T10:55:34.014Z</time></trkpt><trkpt lat="44.43837101179668" lon="11.823370317112198"><ele>11.0</ele><time>2026-05-03T10:55:35.014Z</time></trkpt><trkpt lat="44.43832659372323" lon="11.823510723277362"><ele>11.0</ele><time>2026-05-03T10:55:36.014Z</time></trkpt><trkpt lat="44.4382816779245" lon="11.823649952357604"><ele>11.0</ele><time>2026-05-03T10:55:37.014Z</time></trkpt><trkpt lat="44.43824047791082" lon="11.82378812553769"><ele>11.0</ele><time>2026-05-03T10:55:38.014Z</time></trkpt><trkpt lat="44.43819721512225" lon="11.82393003002"><ele>11.0</ele><time>2026-05-03T10:55:39.014Z</time></trkpt><trkpt lat="44.43815066236085" lon="11.824079140568735"><ele>11.0</ele><time>2026-05-03T10:55:40.014Z</time></trkpt><trkpt lat="44.438104142190205" lon="11.82421998378828"><ele>11.0</ele><time>2026-05-03T10:55:41.015Z</time></trkpt><trkpt lat="44.43805799525294" lon="11.824363854402565"><ele>11.0</ele><time>2026-05-03T10:55:42.015Z</time></trkpt><trkpt lat="44.438012131945115" lon="11.824499772757624"><ele>11.0</ele><time>2026-05-03T10:55:43.015Z</time></trkpt><trkpt lat="44.43796793561691" lon="11.824640062735256"><ele>11.0</ele><time>2026-05-03T10:55:44.015Z</time></trkpt><trkpt lat="44.437926448197274" lon="11.824775008097264"><ele>11.0</ele><time>2026-05-03T10:55:45.015Z</time></trkpt><trkpt lat="44.43788325310047" lon="11.824910987418722"><ele>11.0</ele><time>2026-05-03T10:55:46.015Z</time></trkpt><trkpt lat="44.43784169957557" lon="11.825043074787118"><ele>11.0</ele><time>2026-05-03T10:55:47.015Z</time></trkpt><trkpt lat="44.43779669457116" lon="11.825178599929634"><ele>11.0</ele><time>2026-05-03T10:55:48.015Z</time></trkpt><trkpt lat="44.4377529636552" lon="11.825316769579409"><ele>11.0</ele><time>2026-05-03T10:55:49.015Z</time></trkpt><trkpt lat="44.43770952551864" lon="11.825455143487037"><ele>11.0</ele><time>2026-05-03T10:55:50.015Z</time></trkpt><trkpt lat="44.437666391849426" lon="11.825594326377233"><ele>11.0</ele><time>2026-05-03T10:55:51.015Z</time></trkpt><trkpt lat="44.437623359476675" lon="11.825736916174915"><ele>11.0</ele><time>2026-05-03T10:55:52.015Z</time></trkpt><trkpt lat="44.43757816419868" lon="11.825879215986541"><ele>11.0</ele><time>2026-05-03T10:55:53.015Z</time></trkpt><trkpt lat="44.4375347563228" lon="11.8260185622984"><ele>10.8</ele><time>2026-05-03T10:55:54.015Z</time></trkpt><trkpt lat="44.43748963378031" lon="11.826162946703642"><ele>10.600000000000001</ele><time>2026-05-03T10:55:55.015Z</time></trkpt><trkpt lat="44.43744516496131" lon="11.826305075281127"><ele>10.4</ele><time>2026-05-03T10:55:56.015Z</time></trkpt><trkpt lat="44.43739955491422" lon="11.826448795460497"><ele>10.2</ele><time>2026-05-03T10:55:57.015Z</time></trkpt><trkpt lat="44.437353136571055" lon="11.826592950520725"><ele>10.0</ele><time>2026-05-03T10:55:58.015Z</time></trkpt><trkpt lat="44.437308271833466" lon="11.826738543719198"><ele>10.0</ele><time>2026-05-03T10:55:59.015Z</time></trkpt><trkpt lat="44.43726172009611" lon="11.826886682984243"><ele>10.0</ele><time>2026-05-03T10:56:00.015Z</time></trkpt><trkpt lat="44.43721497917912" lon="11.827037886046963"><ele>10.0</ele><time>2026-05-03T10:56:01.015Z</time></trkpt><trkpt lat="44.43716891282947" lon="11.827182888527803"><ele>10.0</ele><time>2026-05-03T10:56:02.015Z</time></trkpt><trkpt lat="44.43712241300928" lon="11.827329381407107"><ele>10.0</ele><time>2026-05-03T10:56:03.015Z</time></trkpt><trkpt lat="44.437075747858366" lon="11.827475065543808"><ele>10.0</ele><time>2026-05-03T10:56:04.015Z</time></trkpt><trkpt lat="44.43703085964971" lon="11.8276149531384"><ele>10.0</ele><time>2026-05-03T10:56:05.015Z</time></trkpt><trkpt lat="44.43698796696102" lon="11.827760482010264"><ele>10.0</ele><time>2026-05-03T10:56:06.015Z</time></trkpt><trkpt lat="44.43694428336526" lon="11.827904196769381"><ele>10.0</ele><time>2026-05-03T10:56:07.015Z</time></trkpt><trkpt lat="44.43689887136188" lon="11.82805003670297"><ele>10.25</ele><time>2026-05-03T10:56:08.015Z</time></trkpt><trkpt lat="44.436849838323035" lon="11.828197158551738"><ele>10.5</ele><time>2026-05-03T10:56:09.015Z</time></trkpt><trkpt lat="44.43680426023418" lon="11.828347269052689"><ele>10.75</ele><time>2026-05-03T10:56:10.015Z</time></trkpt><trkpt lat="44.436758098195305" lon="11.82849939001839"><ele>11.0</ele><time>2026-05-03T10:56:11.015Z</time></trkpt><trkpt lat="44.436712131716305" lon="11.828650174792175"><ele>10.5</ele><time>2026-05-03T10:56:12.015Z</time></trkpt><trkpt lat="44.43666494163198" lon="11.828802858813686"><ele>10.0</ele><time>2026-05-03T10:56:13.015Z</time></trkpt><trkpt lat="44.43661780164532" lon="11.828952975956165"><ele>9.5</ele><time>2026-05-03T10:56:14.015Z</time></trkpt><trkpt lat="44.436572151112536" lon="11.829104250478792"><ele>9.0</ele><time>2026-05-03T10:56:15.015Z</time></trkpt><trkpt lat="44.43652477822585" lon="11.82926136811717"><ele>9.25</ele><time>2026-05-03T10:56:16.015Z</time></trkpt><trkpt lat="44.436478159834486" lon="11.829413677242261"><ele>9.5</ele><time>2026-05-03T10:56:17.015Z</time></trkpt><trkpt lat="44.43643159677631" lon="11.82956467169386"><ele>9.75</ele><time>2026-05-03T10:56:18.015Z</time></trkpt><trkpt lat="44.43638441357546" lon="11.82971514015881"><ele>10.0</ele><time>2026-05-03T10:56:19.015Z</time></trkpt><trkpt lat="44.43633738759143" lon="11.829867798398919"><ele>10.0</ele><time>2026-05-03T10:56:20.016Z</time></trkpt><trkpt lat="44.436291367569964" lon="11.8300179557318"><ele>10.0</ele><time>2026-05-03T10:56:21.016Z</time></trkpt><trkpt lat="44.43624231131364" lon="11.8301675890207"><ele>10.0</ele><time>2026-05-03T10:56:22.016Z</time></trkpt><trkpt lat="44.436193322067325" lon="11.830317435316204"><ele>10.0</ele><time>2026-05-03T10:56:23.016Z</time></trkpt><trkpt lat="44.436145655746486" lon="11.830469010740174"><ele>10.0</ele><time>2026-05-03T10:56:24.016Z</time></trkpt><trkpt lat="44.43609783649678" lon="11.830621623294226"><ele>10.0</ele><time>2026-05-03T10:56:25.016Z</time></trkpt><trkpt lat="44.436052446223265" lon="11.830772198293642"><ele>10.0</ele><time>2026-05-03T10:56:26.016Z</time></trkpt><trkpt lat="44.436008058782214" lon="11.830929192913471"><ele>10.0</ele><time>2026-05-03T10:56:27.016Z</time></trkpt><trkpt lat="44.435964470367246" lon="11.831082659231694"><ele>9.75</ele><time>2026-05-03T10:56:28.016Z</time></trkpt><trkpt lat="44.43591540975582" lon="11.831237691872511"><ele>9.5</ele><time>2026-05-03T10:56:29.016Z</time></trkpt><trkpt lat="44.43586626003674" lon="11.831397796937734"><ele>9.25</ele><time>2026-05-03T10:56:30.016Z</time></trkpt><trkpt lat="44.43581605288267" lon="11.831556601810258"><ele>9.0</ele><time>2026-05-03T10:56:31.016Z</time></trkpt><trkpt lat="44.435767367958405" lon="11.83171397826368"><ele>9.25</ele><time>2026-05-03T10:56:32.016Z</time></trkpt><trkpt lat="44.43571709492696" lon="11.83187454631038"><ele>9.5</ele><time>2026-05-03T10:56:33.016Z</time></trkpt><trkpt lat="44.435668789403586" lon="11.832035575648042"><ele>9.75</ele><time>2026-05-03T10:56:34.016Z</time></trkpt><trkpt lat="44.43562237339392" lon="11.832195383430857"><ele>10.0</ele><time>2026-05-03T10:56:35.016Z</time></trkpt><trkpt lat="44.435574942226935" lon="11.83235785043747"><ele>10.0</ele><time>2026-05-03T10:56:36.016Z</time></trkpt><trkpt lat="44.435526512079576" lon="11.832517750933581"><ele>10.0</ele><time>2026-05-03T10:56:37.016Z</time></trkpt><trkpt lat="44.43547903091888" lon="11.832676880350283"><ele>10.0</ele><time>2026-05-03T10:56:38.016Z</time></trkpt><trkpt lat="44.43542781455669" lon="11.832836019709385"><ele>10.0</ele><time>2026-05-03T10:56:39.016Z</time></trkpt><trkpt lat="44.43537335544501" lon="11.832994049622743"><ele>10.25</ele><time>2026-05-03T10:56:40.016Z</time></trkpt><trkpt lat="44.435319212074816" lon="11.833157798533776"><ele>10.5</ele><time>2026-05-03T10:56:41.016Z</time></trkpt><trkpt lat="44.43526745104263" lon="11.833317688017969"><ele>10.75</ele><time>2026-05-03T10:56:42.016Z</time></trkpt><trkpt lat="44.435217374818464" lon="11.833480489446236"><ele>11.0</ele><time>2026-05-03T10:56:43.016Z</time></trkpt><trkpt lat="44.43517502729489" lon="11.833632745764355"><ele>11.0</ele><time>2026-05-03T10:56:44.016Z</time></trkpt><trkpt lat="44.43513263872266" lon="11.833788697043062"><ele>11.0</ele><time>2026-05-03T10:56:45.016Z</time></trkpt><trkpt lat="44.43508551416318" lon="11.833934295319805"><ele>11.0</ele><time>2026-05-03T10:56:46.016Z</time></trkpt><trkpt lat="44.43503698072602" lon="11.834075517720267"><ele>11.0</ele><time>2026-05-03T10:56:47.016Z</time></trkpt><trkpt lat="44.434995426038704" lon="11.834208180687641"><ele>11.0</ele><time>2026-05-03T10:56:48.016Z</time></trkpt><trkpt lat="44.434954861427755" lon="11.834327765585398"><ele>11.166666666666666</ele><time>2026-05-03T10:56:49.016Z</time></trkpt><trkpt lat="44.43491805383751" lon="11.834441189011207"><ele>11.333333333333332</ele><time>2026-05-03T10:56:50.016Z</time></trkpt><trkpt lat="44.43488926114664" lon="11.834544558333556"><ele>11.5</ele><time>2026-05-03T10:56:51.016Z</time></trkpt><trkpt lat="44.43486060272568" lon="11.834641078481292"><ele>11.666666666666666</ele><time>2026-05-03T10:56:52.016Z</time></trkpt><trkpt lat="44.43483378258192" lon="11.83472533103661"><ele>11.833333333333334</ele><time>2026-05-03T10:56:53.016Z</time></trkpt><trkpt lat="44.434790759345844" lon="11.834871470877026"><ele>12.0</ele><time>2026-05-03T10:56:55.016Z</time></trkpt><trkpt lat="44.43476345257518" lon="11.834959941199303"><ele>12.0</ele><time>2026-05-03T10:56:57.016Z</time></trkpt><trkpt lat="44.43472187091642" lon="11.83505865456949"><ele>12.0</ele><time>2026-05-03T10:57:03.017Z</time></trkpt><trkpt lat="44.434692848332965" lon="11.83514586486782"><ele>12.0</ele><time>2026-05-03T10:57:06.017Z</time></trkpt><trkpt lat="44.43468998364471" lon="11.835260378866348"><ele>12.0</ele><time>2026-05-03T10:57:10.017Z</time></trkpt><trkpt lat="44.43476787199818" lon="11.835327783219489"><ele>12.0</ele><time>2026-05-03T10:57:12.017Z</time></trkpt><trkpt lat="44.43485579750273" lon="11.835392380561938"><ele>12.0</ele><time>2026-05-03T10:57:14.017Z</time></trkpt><trkpt lat="44.43491645921524" lon="11.835429830039923"><ele>12.0</ele><time>2026-05-03T10:57:15.017Z</time></trkpt><trkpt lat="44.434989309610444" lon="11.835472875656427"><ele>12.0</ele><time>2026-05-03T10:57:16.017Z</time></trkpt><trkpt lat="44.43507317909065" lon="11.835516429960856"><ele>12.0</ele><time>2026-05-03T10:57:17.017Z</time></trkpt><trkpt lat="44.43515159361476" lon="11.83555840418215"><ele>12.0</ele><time>2026-05-03T10:57:18.017Z</time></trkpt><trkpt lat="44.43523539690956" lon="11.835608997940792"><ele>12.0</ele><time>2026-05-03T10:57:19.017Z</time></trkpt><trkpt lat="44.435321600205505" lon="11.83566040350342"><ele>12.0</ele><time>2026-05-03T10:57:20.017Z</time></trkpt><trkpt lat="44.43541019914277" lon="11.835716483690385"><ele>12.2</ele><time>2026-05-03T10:57:21.017Z</time></trkpt><trkpt lat="44.43550469384478" lon="11.835771267790525"><ele>12.399999999999999</ele><time>2026-05-03T10:57:22.017Z</time></trkpt><trkpt lat="44.43560542334821" lon="11.835829789771875"><ele>12.600000000000001</ele><time>2026-05-03T10:57:23.017Z</time></trkpt><trkpt lat="44.435704463587285" lon="11.835888742001933"><ele>12.8</ele><time>2026-05-03T10:57:24.017Z</time></trkpt><trkpt lat="44.43580253369481" lon="11.83595145790303"><ele>13.0</ele><time>2026-05-03T10:57:25.017Z</time></trkpt><trkpt lat="44.435904633387075" lon="11.836020209754237"><ele>13.0</ele><time>2026-05-03T10:57:26.017Z</time></trkpt><trkpt lat="44.43601378545312" lon="11.836080452215649"><ele>13.0</ele><time>2026-05-03T10:57:27.017Z</time></trkpt><trkpt lat="44.43611548206193" lon="11.836146123452771"><ele>13.0</ele><time>2026-05-03T10:57:28.017Z</time></trkpt><trkpt lat="44.436224515442724" lon="11.836205437471984"><ele>13.0</ele><time>2026-05-03T10:57:29.017Z</time></trkpt><trkpt lat="44.43633466806808" lon="11.836265009062005"><ele>13.25</ele><time>2026-05-03T10:57:30.017Z</time></trkpt><trkpt lat="44.43644700329445" lon="11.83632689333924"><ele>13.5</ele><time>2026-05-03T10:57:31.017Z</time></trkpt><trkpt lat="44.4365515435428" lon="11.836393611362892"><ele>13.75</ele><time>2026-05-03T10:57:32.017Z</time></trkpt><trkpt lat="44.43665447710108" lon="11.836460821146796"><ele>14.0</ele><time>2026-05-03T10:57:33.017Z</time></trkpt><trkpt lat="44.43676155585424" lon="11.836522124209782"><ele>14.0</ele><time>2026-05-03T10:57:34.017Z</time></trkpt><trkpt lat="44.436870480057195" lon="11.8365849094599"><ele>14.0</ele><time>2026-05-03T10:57:35.017Z</time></trkpt><trkpt lat="44.43697971083503" lon="11.83665094647759"><ele>14.0</ele><time>2026-05-03T10:57:36.017Z</time></trkpt><trkpt lat="44.43708504705068" lon="11.836720235350006"><ele>14.0</ele><time>2026-05-03T10:57:37.017Z</time></trkpt><trkpt lat="44.437197246472955" lon="11.836785382777208"><ele>13.5</ele><time>2026-05-03T10:57:38.018Z</time></trkpt><trkpt lat="44.43730531852037" lon="11.83685505857677"><ele>13.0</ele><time>2026-05-03T10:57:39.018Z</time></trkpt><trkpt lat="44.43740944773868" lon="11.836921627736276"><ele>12.5</ele><time>2026-05-03T10:57:40.018Z</time></trkpt><trkpt lat="44.43751565498436" lon="11.836984671170182"><ele>12.0</ele><time>2026-05-03T10:57:41.018Z</time></trkpt><trkpt lat="44.43762975842028" lon="11.837046389805408"><ele>12.0</ele><time>2026-05-03T10:57:42.018Z</time></trkpt><trkpt lat="44.4377361198367" lon="11.837109331002269"><ele>12.0</ele><time>2026-05-03T10:57:43.018Z</time></trkpt><trkpt lat="44.437840539575404" lon="11.83716860577568"><ele>12.0</ele><time>2026-05-03T10:57:44.018Z</time></trkpt><trkpt lat="44.43794677796188" lon="11.837236699775975"><ele>12.0</ele><time>2026-05-03T10:57:45.018Z</time></trkpt><trkpt lat="44.43805094369709" lon="11.837303325654764"><ele>11.75</ele><time>2026-05-03T10:57:46.018Z</time></trkpt><trkpt lat="44.43816611953745" lon="11.837368402927325"><ele>11.5</ele><time>2026-05-03T10:57:47.018Z</time></trkpt><trkpt lat="44.438278488328784" lon="11.837426909785568"><ele>11.25</ele><time>2026-05-03T10:57:48.018Z</time></trkpt><trkpt lat="44.43838333540013" lon="11.837491068433025"><ele>11.0</ele><time>2026-05-03T10:57:49.018Z</time></trkpt><trkpt lat="44.43848780687853" lon="11.837554981594105"><ele>11.0</ele><time>2026-05-03T10:57:50.018Z</time></trkpt><trkpt lat="44.438593295151215" lon="11.837618031067235"><ele>11.0</ele><time>2026-05-03T10:57:51.018Z</time></trkpt><trkpt lat="44.43869686755749" lon="11.837680262192716"><ele>11.0</ele><time>2026-05-03T10:57:52.018Z</time></trkpt><trkpt lat="44.438803215255405" lon="11.837740837526406"><ele>11.0</ele><time>2026-05-03T10:57:53.018Z</time></trkpt><trkpt lat="44.4389166257965" lon="11.83780024131642"><ele>11.5</ele><time>2026-05-03T10:57:54.018Z</time></trkpt><trkpt lat="44.43901626576182" lon="11.837865945271536"><ele>12.0</ele><time>2026-05-03T10:57:55.018Z</time></trkpt><trkpt lat="44.43911851502012" lon="11.837927108866989"><ele>12.5</ele><time>2026-05-03T10:57:56.018Z</time></trkpt><trkpt lat="44.43923215110877" lon="11.837986876367781"><ele>13.0</ele><time>2026-05-03T10:57:57.018Z</time></trkpt><trkpt lat="44.43934186290763" lon="11.838047858431104"><ele>13.0</ele><time>2026-05-03T10:57:58.018Z</time></trkpt><trkpt lat="44.43944911093717" lon="11.838114399781393"><ele>13.0</ele><time>2026-05-03T10:57:59.018Z</time></trkpt><trkpt lat="44.43955853212558" lon="11.838184948611525"><ele>13.0</ele><time>2026-05-03T10:58:00.018Z</time></trkpt><trkpt lat="44.43966917146251" lon="11.838257185232813"><ele>13.0</ele><time>2026-05-03T10:58:01.018Z</time></trkpt><trkpt lat="44.43978212908528" lon="11.838325630676195"><ele>13.0</ele><time>2026-05-03T10:58:02.018Z</time></trkpt><trkpt lat="44.43988573462324" lon="11.838409244669144"><ele>13.0</ele><time>2026-05-03T10:58:03.018Z</time></trkpt><trkpt lat="44.43998348271997" lon="11.838487491992193"><ele>13.0</ele><time>2026-05-03T10:58:04.018Z</time></trkpt><trkpt lat="44.440085697888215" lon="11.838554964942663"><ele>13.0</ele><time>2026-05-03T10:58:05.018Z</time></trkpt><trkpt lat="44.440185942406444" lon="11.838619871463028"><ele>13.0</ele><time>2026-05-03T10:58:06.018Z</time></trkpt><trkpt lat="44.440292039283946" lon="11.838684296972033"><ele>13.0</ele><time>2026-05-03T10:58:07.018Z</time></trkpt><trkpt lat="44.44039701910283" lon="11.838743013573783"><ele>13.0</ele><time>2026-05-03T10:58:08.018Z</time></trkpt><trkpt lat="44.4405026934302" lon="11.83880197852816"><ele>13.0</ele><time>2026-05-03T10:58:09.018Z</time></trkpt><trkpt lat="44.440605740434286" lon="11.83886297634825"><ele>13.0</ele><time>2026-05-03T10:58:10.018Z</time></trkpt><trkpt lat="44.44071494366615" lon="11.838923530539368"><ele>13.0</ele><time>2026-05-03T10:58:11.018Z</time></trkpt><trkpt lat="44.44082481811143" lon="11.838981234833666"><ele>13.0</ele><time>2026-05-03T10:58:12.018Z</time></trkpt><trkpt lat="44.44093504062989" lon="11.83903732118722"><ele>13.0</ele><time>2026-05-03T10:58:13.018Z</time></trkpt><trkpt lat="44.44104182061877" lon="11.83909738437465"><ele>13.0</ele><time>2026-05-03T10:58:14.018Z</time></trkpt><trkpt lat="44.44114290450396" lon="11.839154209348544"><ele>13.0</ele><time>2026-05-03T10:58:15.018Z</time></trkpt><trkpt lat="44.441244414404736" lon="11.839215181812218"><ele>13.0</ele><time>2026-05-03T10:58:16.018Z</time></trkpt><trkpt lat="44.44134983404728" lon="11.839277258403362"><ele>13.0</ele><time>2026-05-03T10:58:17.019Z</time></trkpt><trkpt lat="44.44145402650929" lon="11.839344316430843"><ele>13.0</ele><time>2026-05-03T10:58:18.019Z</time></trkpt><trkpt lat="44.44155899703121" lon="11.839405767173412"><ele>12.600000000000001</ele><time>2026-05-03T10:58:19.019Z</time></trkpt><trkpt lat="44.441663861588864" lon="11.839466689183094"><ele>12.200000000000001</ele><time>2026-05-03T10:58:20.019Z</time></trkpt><trkpt lat="44.441767338103205" lon="11.839526478935722"><ele>11.8</ele><time>2026-05-03T10:58:21.019Z</time></trkpt><trkpt lat="44.44187242361675" lon="11.839584660580007"><ele>11.4</ele><time>2026-05-03T10:58:22.019Z</time></trkpt><trkpt lat="44.441969748561526" lon="11.839641478748812"><ele>11.0</ele><time>2026-05-03T10:58:23.019Z</time></trkpt><trkpt lat="44.4420589101264" lon="11.839694163220244"><ele>11.166666666666666</ele><time>2026-05-03T10:58:24.019Z</time></trkpt><trkpt lat="44.442140494312895" lon="11.839736292173367"><ele>11.333333333333332</ele><time>2026-05-03T10:58:25.019Z</time></trkpt><trkpt lat="44.44221423427076" lon="11.839778247989655"><ele>11.5</ele><time>2026-05-03T10:58:26.019Z</time></trkpt><trkpt lat="44.44228006414021" lon="11.839813223302391"><ele>11.666666666666666</ele><time>2026-05-03T10:58:27.019Z</time></trkpt><trkpt lat="44.44233839973371" lon="11.83984949379512"><ele>11.833333333333334</ele><time>2026-05-03T10:58:28.019Z</time></trkpt><trkpt lat="44.442431361720075" lon="11.839908510661905"><ele>12.0</ele><time>2026-05-03T10:58:30.019Z</time></trkpt><trkpt lat="44.442493674495495" lon="11.839931395764989"><ele>12.0</ele><time>2026-05-03T10:58:32.019Z</time></trkpt><trkpt lat="44.44258142262474" lon="11.839959516079492"><ele>12.0</ele><time>2026-05-03T10:58:35.019Z</time></trkpt><trkpt lat="44.44264559594628" lon="11.839980286412317"><ele>12.0</ele><time>2026-05-03T10:58:37.019Z</time></trkpt><trkpt lat="44.44271135551457" lon="11.839998768127606"><ele>12.0</ele><time>2026-05-03T10:58:40.019Z</time></trkpt><trkpt lat="44.44277777971958" lon="11.84003418450506"><ele>12.0</ele><time>2026-05-03T10:58:42.019Z</time></trkpt><trkpt lat="44.44284922414304" lon="11.840103207802162"><ele>12.0</ele><time>2026-05-03T10:58:44.019Z</time></trkpt><trkpt lat="44.44294198562291" lon="11.840169993210285"><ele>12.2</ele><time>2026-05-03T10:58:46.019Z</time></trkpt><trkpt lat="44.44304956096443" lon="11.840257839678985"><ele>12.399999999999999</ele><time>2026-05-03T10:58:48.019Z</time></trkpt><trkpt lat="44.4431153740112" lon="11.84030343064307"><ele>12.600000000000001</ele><time>2026-05-03T10:58:49.019Z</time></trkpt><trkpt lat="44.44319061281524" lon="11.84035607940767"><ele>12.8</ele><time>2026-05-03T10:58:50.019Z</time></trkpt><trkpt lat="44.443281372907975" lon="11.840401395974041"><ele>13.0</ele><time>2026-05-03T10:58:51.019Z</time></trkpt><trkpt lat="44.44336313111626" lon="11.840447076769419"><ele>13.0</ele><time>2026-05-03T10:58:52.019Z</time></trkpt><trkpt lat="44.443451059407565" lon="11.840511906289416"><ele>13.0</ele><time>2026-05-03T10:58:53.019Z</time></trkpt><trkpt lat="44.443535572572884" lon="11.840577369451603"><ele>13.0</ele><time>2026-05-03T10:58:54.019Z</time></trkpt><trkpt lat="44.44363213346018" lon="11.840644811376421"><ele>13.0</ele><time>2026-05-03T10:58:55.019Z</time></trkpt><trkpt lat="44.44373147660619" lon="11.840715021894933"><ele>13.0</ele><time>2026-05-03T10:58:56.019Z</time></trkpt><trkpt lat="44.443831373414696" lon="11.840789751747195"><ele>13.0</ele><time>2026-05-03T10:58:57.02Z</time></trkpt><trkpt lat="44.44393400198697" lon="11.84086256784258"><ele>13.0</ele><time>2026-05-03T10:58:58.02Z</time></trkpt><trkpt lat="44.44404061927967" lon="11.84093265637822"><ele>13.0</ele><time>2026-05-03T10:58:59.02Z</time></trkpt><trkpt lat="44.44415436595083" lon="11.841002662027785"><ele>13.0</ele><time>2026-05-03T10:59:00.02Z</time></trkpt><trkpt lat="44.44428219431367" lon="11.84107149275102"><ele>12.75</ele><time>2026-05-03T10:59:01.02Z</time></trkpt><trkpt lat="44.44439571386041" lon="11.841141324607282"><ele>12.5</ele><time>2026-05-03T10:59:02.02Z</time></trkpt><trkpt lat="44.44450912751997" lon="11.841214520589974"><ele>12.25</ele><time>2026-05-03T10:59:03.02Z</time></trkpt><trkpt lat="44.44463057147196" lon="11.841274535781189"><ele>12.0</ele><time>2026-05-03T10:59:04.02Z</time></trkpt><trkpt lat="44.44474812479804" lon="11.841347032904203"><ele>12.0</ele><time>2026-05-03T10:59:05.02Z</time></trkpt><trkpt lat="44.44487420766486" lon="11.84141810856237"><ele>12.0</ele><time>2026-05-03T10:59:06.02Z</time></trkpt><trkpt lat="44.44500636610844" lon="11.841492190716382"><ele>12.0</ele><time>2026-05-03T10:59:07.02Z</time></trkpt><trkpt lat="44.44513624050188" lon="11.841571601934126"><ele>12.0</ele><time>2026-05-03T10:59:08.02Z</time></trkpt><trkpt lat="44.44527059128248" lon="11.841653699143945"><ele>12.0</ele><time>2026-05-03T10:59:09.02Z</time></trkpt><trkpt lat="44.44540858959015" lon="11.841735492819545"><ele>12.0</ele><time>2026-05-03T10:59:10.02Z</time></trkpt><trkpt lat="44.445542795390175" lon="11.841815328537434"><ele>12.0</ele><time>2026-05-03T10:59:11.02Z</time></trkpt><trkpt lat="44.445681596762995" lon="11.841894356963696"><ele>12.0</ele><time>2026-05-03T10:59:12.02Z</time></trkpt><trkpt lat="44.44581834220046" lon="11.841972922791733"><ele>11.5</ele><time>2026-05-03T10:59:13.02Z</time></trkpt><trkpt lat="44.44595646170493" lon="11.842046599957015"><ele>11.0</ele><time>2026-05-03T10:59:14.02Z</time></trkpt><trkpt lat="44.44608883598354" lon="11.842125589584688"><ele>10.5</ele><time>2026-05-03T10:59:15.02Z</time></trkpt><trkpt lat="44.446221771159024" lon="11.842208203299297"><ele>10.0</ele><time>2026-05-03T10:59:16.02Z</time></trkpt><trkpt lat="44.44635658576501" lon="11.842289950364698"><ele>10.0</ele><time>2026-05-03T10:59:17.02Z</time></trkpt><trkpt lat="44.44649289692717" lon="11.842367380586152"><ele>10.0</ele><time>2026-05-03T10:59:18.02Z</time></trkpt><trkpt lat="44.446630741395" lon="11.842445728173812"><ele>10.0</ele><time>2026-05-03T10:59:19.02Z</time></trkpt><trkpt lat="44.44676542210927" lon="11.842528786315977"><ele>10.0</ele><time>2026-05-03T10:59:20.02Z</time></trkpt><trkpt lat="44.446900158059925" lon="11.84260882430001"><ele>9.75</ele><time>2026-05-03T10:59:21.02Z</time></trkpt><trkpt lat="44.447030113200036" lon="11.842683691859603"><ele>9.5</ele><time>2026-05-03T10:59:22.02Z</time></trkpt><trkpt lat="44.447162135567964" lon="11.842762275093193"><ele>9.25</ele><time>2026-05-03T10:59:23.02Z</time></trkpt><trkpt lat="44.447286958181266" lon="11.84285861915455"><ele>9.0</ele><time>2026-05-03T10:59:24.02Z</time></trkpt><trkpt lat="44.44740361915364" lon="11.84297824113458"><ele>9.0</ele><time>2026-05-03T10:59:25.02Z</time></trkpt><trkpt lat="44.447512152120105" lon="11.843128370167678"><ele>9.0</ele><time>2026-05-03T10:59:26.02Z</time></trkpt><trkpt lat="44.44756745388743" lon="11.843303772474533"><ele>9.0</ele><time>2026-05-03T10:59:27.02Z</time></trkpt><trkpt lat="44.44760616396235" lon="11.843490132475658"><ele>9.0</ele><time>2026-05-03T10:59:28.02Z</time></trkpt><trkpt lat="44.44761210296449" lon="11.843674362550606"><ele>9.0</ele><time>2026-05-03T10:59:29.02Z</time></trkpt><trkpt lat="44.44759647549779" lon="11.843865438435579"><ele>9.0</ele><time>2026-05-03T10:59:30.02Z</time></trkpt><trkpt lat="44.447557730297554" lon="11.84405083185"><ele>9.0</ele><time>2026-05-03T10:59:31.02Z</time></trkpt><trkpt lat="44.44749438062566" lon="11.844212871784364"><ele>9.0</ele><time>2026-05-03T10:59:32.02Z</time></trkpt><trkpt lat="44.44745276412782" lon="11.844389373326912"><ele>9.25</ele><time>2026-05-03T10:59:33.02Z</time></trkpt><trkpt lat="44.44740194008778" lon="11.84455494586936"><ele>9.5</ele><time>2026-05-03T10:59:34.02Z</time></trkpt><trkpt lat="44.44735173846441" lon="11.844710361283566"><ele>9.75</ele><time>2026-05-03T10:59:35.02Z</time></trkpt><trkpt lat="44.44730085431334" lon="11.844873593272283"><ele>10.0</ele><time>2026-05-03T10:59:36.021Z</time></trkpt><trkpt lat="44.4472539847903" lon="11.84503275857304"><ele>10.0</ele><time>2026-05-03T10:59:37.021Z</time></trkpt><trkpt lat="44.44720779526327" lon="11.845189634174002"><ele>10.0</ele><time>2026-05-03T10:59:38.021Z</time></trkpt><trkpt lat="44.44715757893302" lon="11.845353046443739"><ele>10.0</ele><time>2026-05-03T10:59:39.021Z</time></trkpt><trkpt lat="44.44710595563737" lon="11.845517380076744"><ele>10.0</ele><time>2026-05-03T10:59:40.021Z</time></trkpt><trkpt lat="44.44704771668267" lon="11.845680638720697"><ele>10.0</ele><time>2026-05-03T10:59:41.021Z</time></trkpt><trkpt lat="44.44698803483543" lon="11.845841477381347"><ele>10.0</ele><time>2026-05-03T10:59:42.021Z</time></trkpt><trkpt lat="44.44692826962705" lon="11.845996636296194"><ele>10.0</ele><time>2026-05-03T10:59:43.021Z</time></trkpt><trkpt lat="44.446866203015766" lon="11.8461458342243"><ele>10.0</ele><time>2026-05-03T10:59:44.021Z</time></trkpt><trkpt lat="44.4467970430687" lon="11.84629214225175"><ele>10.0</ele><time>2026-05-03T10:59:45.021Z</time></trkpt><trkpt lat="44.446727430779674" lon="11.846433672808084"><ele>10.0</ele><time>2026-05-03T10:59:46.021Z</time></trkpt><trkpt lat="44.446661404409255" lon="11.84657720791445"><ele>10.0</ele><time>2026-05-03T10:59:47.021Z</time></trkpt><trkpt lat="44.44659938578725" lon="11.846727404571228"><ele>10.0</ele><time>2026-05-03T10:59:48.021Z</time></trkpt><trkpt lat="44.44654145866135" lon="11.84687604086786"><ele>9.75</ele><time>2026-05-03T10:59:49.021Z</time></trkpt><trkpt lat="44.44648475324701" lon="11.847028275982696"><ele>9.5</ele><time>2026-05-03T10:59:50.021Z</time></trkpt><trkpt lat="44.44643516791238" lon="11.84718590681555"><ele>9.25</ele><time>2026-05-03T10:59:51.021Z</time></trkpt><trkpt lat="44.44638689491373" lon="11.847342334496052"><ele>9.0</ele><time>2026-05-03T10:59:52.021Z</time></trkpt><trkpt lat="44.446335624530214" lon="11.847496192097873"><ele>8.75</ele><time>2026-05-03T10:59:53.021Z</time></trkpt><trkpt lat="44.44628654920007" lon="11.847658709179067"><ele>8.5</ele><time>2026-05-03T10:59:54.021Z</time></trkpt><trkpt lat="44.44623762510518" lon="11.847822350335061"><ele>8.25</ele><time>2026-05-03T10:59:55.021Z</time></trkpt><trkpt lat="44.44618731320309" lon="11.847991925733451"><ele>8.0</ele><time>2026-05-03T10:59:56.021Z</time></trkpt><trkpt lat="44.446137473955574" lon="11.848156087687522"><ele>8.0</ele><time>2026-05-03T10:59:57.021Z</time></trkpt><trkpt lat="44.44608266850237" lon="11.848325504368052"><ele>8.0</ele><time>2026-05-03T10:59:58.021Z</time></trkpt><trkpt lat="44.44603260712928" lon="11.84849031316981"><ele>8.0</ele><time>2026-05-03T10:59:59.021Z</time></trkpt><trkpt lat="44.44598054628323" lon="11.848654655029968"><ele>8.0</ele><time>2026-05-03T11:00:00.021Z</time></trkpt><trkpt lat="44.44592334537597" lon="11.848822631733075"><ele>8.5</ele><time>2026-05-03T11:00:01.021Z</time></trkpt><trkpt lat="44.44586641786828" lon="11.848983450990328"><ele>9.0</ele><time>2026-05-03T11:00:02.021Z</time></trkpt><trkpt lat="44.44580806126336" lon="11.849144922409499"><ele>9.5</ele><time>2026-05-03T11:00:03.021Z</time></trkpt><trkpt lat="44.44574916988736" lon="11.849299462066947"><ele>10.0</ele><time>2026-05-03T11:00:04.021Z</time></trkpt><trkpt lat="44.4456888697859" lon="11.84945128179492"><ele>10.0</ele><time>2026-05-03T11:00:05.021Z</time></trkpt><trkpt lat="44.44562527493048" lon="11.849602131734564"><ele>10.0</ele><time>2026-05-03T11:00:06.021Z</time></trkpt><trkpt lat="44.445559366207945" lon="11.849748605752856"><ele>10.0</ele><time>2026-05-03T11:00:07.021Z</time></trkpt><trkpt lat="44.445493136857735" lon="11.849897198537121"><ele>10.0</ele><time>2026-05-03T11:00:08.021Z</time></trkpt><trkpt lat="44.44542458774493" lon="11.850044810374113"><ele>11.0</ele><time>2026-05-03T11:00:09.021Z</time></trkpt><trkpt lat="44.445352645751605" lon="11.850188939813213"><ele>12.0</ele><time>2026-05-03T11:00:10.021Z</time></trkpt><trkpt lat="44.44528255881549" lon="11.850332739367559"><ele>13.0</ele><time>2026-05-03T11:00:11.021Z</time></trkpt><trkpt lat="44.44521070714258" lon="11.85047955910931"><ele>14.0</ele><time>2026-05-03T11:00:12.021Z</time></trkpt><trkpt lat="44.44513854389967" lon="11.850626441276944"><ele>14.0</ele><time>2026-05-03T11:00:13.021Z</time></trkpt><trkpt lat="44.44506953701147" lon="11.85076684368438"><ele>14.0</ele><time>2026-05-03T11:00:14.021Z</time></trkpt><trkpt lat="44.44499890308189" lon="11.850906758199711"><ele>14.0</ele><time>2026-05-03T11:00:15.022Z</time></trkpt><trkpt lat="44.44493180831465" lon="11.851042167752082"><ele>14.0</ele><time>2026-05-03T11:00:16.022Z</time></trkpt><trkpt lat="44.4448641579703" lon="11.851175978241503"><ele>13.5</ele><time>2026-05-03T11:00:17.022Z</time></trkpt><trkpt lat="44.444793891735664" lon="11.85131447600688"><ele>13.0</ele><time>2026-05-03T11:00:18.022Z</time></trkpt><trkpt lat="44.44472577514867" lon="11.851446048041309"><ele>12.5</ele><time>2026-05-03T11:00:19.022Z</time></trkpt><trkpt lat="44.44465822856173" lon="11.851580073188314"><ele>12.0</ele><time>2026-05-03T11:00:20.022Z</time></trkpt><trkpt lat="44.44458855710999" lon="11.85171263205647"><ele>11.75</ele><time>2026-05-03T11:00:21.022Z</time></trkpt><trkpt lat="44.444518487237424" lon="11.85184683048661"><ele>11.5</ele><time>2026-05-03T11:00:22.022Z</time></trkpt><trkpt lat="44.44444868472284" lon="11.851979999926055"><ele>11.25</ele><time>2026-05-03T11:00:23.022Z</time></trkpt><trkpt lat="44.44437993590368" lon="11.852107920445063"><ele>11.0</ele><time>2026-05-03T11:00:24.022Z</time></trkpt><trkpt lat="44.44431094177548" lon="11.852231316923133"><ele>11.0</ele><time>2026-05-03T11:00:25.022Z</time></trkpt><trkpt lat="44.44424571512318" lon="11.85235129634963"><ele>11.0</ele><time>2026-05-03T11:00:26.022Z</time></trkpt><trkpt lat="44.44418053873785" lon="11.852472752981159"><ele>11.0</ele><time>2026-05-03T11:00:27.022Z</time></trkpt><trkpt lat="44.444117427416806" lon="11.852591013878959"><ele>11.0</ele><time>2026-05-03T11:00:28.022Z</time></trkpt><trkpt lat="44.444055569726345" lon="11.852706747462971"><ele>11.0</ele><time>2026-05-03T11:00:29.022Z</time></trkpt><trkpt lat="44.44399311118595" lon="11.852826924254833"><ele>11.0</ele><time>2026-05-03T11:00:30.022Z</time></trkpt><trkpt lat="44.44393212556658" lon="11.852939843518573"><ele>11.0</ele><time>2026-05-03T11:00:31.022Z</time></trkpt><trkpt lat="44.443871303513085" lon="11.853050084944392"><ele>11.0</ele><time>2026-05-03T11:00:32.022Z</time></trkpt><trkpt lat="44.4438107740796" lon="11.85315923292137"><ele>11.0</ele><time>2026-05-03T11:00:33.022Z</time></trkpt><trkpt lat="44.44374922840514" lon="11.853270173506846"><ele>11.0</ele><time>2026-05-03T11:00:34.022Z</time></trkpt><trkpt lat="44.44368814499341" lon="11.853380856025515"><ele>11.0</ele><time>2026-05-03T11:00:35.022Z</time></trkpt><trkpt lat="44.44362762773536" lon="11.853487722234556"><ele>11.0</ele><time>2026-05-03T11:00:36.022Z</time></trkpt><trkpt lat="44.44357204101551" lon="11.853593088782794"><ele>11.0</ele><time>2026-05-03T11:00:37.022Z</time></trkpt><trkpt lat="44.44351539689405" lon="11.853694887708784"><ele>11.0</ele><time>2026-05-03T11:00:38.022Z</time></trkpt><trkpt lat="44.443460945677394" lon="11.853798827521004"><ele>11.0</ele><time>2026-05-03T11:00:39.022Z</time></trkpt><trkpt lat="44.44340799769712" lon="11.8538946707944"><ele>11.0</ele><time>2026-05-03T11:00:40.022Z</time></trkpt><trkpt lat="44.4433562155635" lon="11.853989610400937"><ele>11.0</ele><time>2026-05-03T11:00:41.022Z</time></trkpt><trkpt lat="44.44331047958291" lon="11.854082790853605"><ele>11.0</ele><time>2026-05-03T11:00:42.022Z</time></trkpt><trkpt lat="44.44327314111259" lon="11.854160468150823"><ele>11.0</ele><time>2026-05-03T11:00:43.022Z</time></trkpt><trkpt lat="44.44322489818014" lon="11.854265187693652"><ele>11.0</ele><time>2026-05-03T11:00:45.022Z</time></trkpt><trkpt lat="44.443182805690974" lon="11.85435396287486"><ele>11.0</ele><time>2026-05-03T11:00:47.022Z</time></trkpt><trkpt lat="44.44313621781798" lon="11.854461884065625"><ele>13.0</ele><time>2026-05-03T11:00:50.022Z</time></trkpt><trkpt lat="44.44313693147826" lon="11.854562718978483"><ele>13.0</ele><time>2026-05-03T11:00:53.022Z</time></trkpt><trkpt lat="44.44319189443857" lon="11.854606029917232"><ele>13.0</ele><time>2026-05-03T11:01:03.023Z</time></trkpt><trkpt lat="44.44311220968251" lon="11.854531840757454"><ele>13.0</ele><time>2026-05-03T11:01:10.023Z</time></trkpt></trkseg><trkseg><trkpt lat="44.44325748440261" lon="11.854678643078362"><ele>12.999999999999998</ele><time>2026-05-03T11:51:16.022Z</time></trkpt><trkpt lat="44.443299706985165" lon="11.85459584105119"><ele>13.0</ele><time>2026-05-03T11:51:55.021Z</time></trkpt><trkpt lat="44.44329065395137" lon="11.854484513448886"><ele>13.0</ele><time>2026-05-03T11:52:46.022Z</time></trkpt><trkpt lat="44.44322561831448" lon="11.85445118522011"><ele>13.0</ele><time>2026-05-03T11:52:57.022Z</time></trkpt><trkpt lat="44.44316100375929" lon="11.854464426941789"><ele>12.999999999999998</ele><time>2026-05-03T11:52:59.023Z</time></trkpt><trkpt lat="44.443081152638804" lon="11.854576946475133"><ele>13.0</ele><time>2026-05-03T11:53:01.023Z</time></trkpt><trkpt lat="44.443007181139635" lon="11.854729578143665"><ele>12.8</ele><time>2026-05-03T11:53:03.023Z</time></trkpt><trkpt lat="44.44295956652996" lon="11.854831977792733"><ele>12.600000000000001</ele><time>2026-05-03T11:53:04.023Z</time></trkpt><trkpt lat="44.442912440632554" lon="11.854943523222124"><ele>12.399999999999999</ele><time>2026-05-03T11:53:05.023Z</time></trkpt><trkpt lat="44.44286670871729" lon="11.855059026775981"><ele>12.2</ele><time>2026-05-03T11:53:06.023Z</time></trkpt><trkpt lat="44.44282368663926" lon="11.855165350623635"><ele>12.0</ele><time>2026-05-03T11:53:07.023Z</time></trkpt><trkpt lat="44.44278239690277" lon="11.855276848511135"><ele>12.0</ele><time>2026-05-03T11:53:08.023Z</time></trkpt><trkpt lat="44.44273360557254" lon="11.855399171112644"><ele>12.0</ele><time>2026-05-03T11:53:09.023Z</time></trkpt><trkpt lat="44.442686120711805" lon="11.855519155419467"><ele>12.0</ele><time>2026-05-03T11:53:10.023Z</time></trkpt><trkpt lat="44.44263499868457" lon="11.855646949353378"><ele>12.0</ele><time>2026-05-03T11:53:11.023Z</time></trkpt><trkpt lat="44.44258338939543" lon="11.855782794453924"><ele>12.0</ele><time>2026-05-03T11:53:12.023Z</time></trkpt><trkpt lat="44.44252976183797" lon="11.855925388783662"><ele>11.75</ele><time>2026-05-03T11:53:13.023Z</time></trkpt><trkpt lat="44.4424720632705" lon="11.856066649965106"><ele>11.5</ele><time>2026-05-03T11:53:14.023Z</time></trkpt><trkpt lat="44.44241499659144" lon="11.856211618058236"><ele>11.25</ele><time>2026-05-03T11:53:15.023Z</time></trkpt><trkpt lat="44.442357940126215" lon="11.856353290965016"><ele>11.0</ele><time>2026-05-03T11:53:16.023Z</time></trkpt><trkpt lat="44.44229784701244" lon="11.856489382128192"><ele>11.0</ele><time>2026-05-03T11:53:17.023Z</time></trkpt><trkpt lat="44.442228637614726" lon="11.856633559532533"><ele>11.0</ele><time>2026-05-03T11:53:18.023Z</time></trkpt><trkpt lat="44.44216727578638" lon="11.856769616036004"><ele>11.0</ele><time>2026-05-03T11:53:19.023Z</time></trkpt><trkpt lat="44.442099067375956" lon="11.856909531942303"><ele>11.0</ele><time>2026-05-03T11:53:20.023Z</time></trkpt><trkpt lat="44.44202851952942" lon="11.857042592889893"><ele>11.25</ele><time>2026-05-03T11:53:21.023Z</time></trkpt><trkpt lat="44.44195004131199" lon="11.857184316728512"><ele>11.5</ele><time>2026-05-03T11:53:22.023Z</time></trkpt><trkpt lat="44.441873864829866" lon="11.857326240688286"><ele>11.75</ele><time>2026-05-03T11:53:23.023Z</time></trkpt><trkpt lat="44.44179765668104" lon="11.857471406970642"><ele>12.0</ele><time>2026-05-03T11:53:24.022Z</time></trkpt><trkpt lat="44.4417252671293" lon="11.85762415112444"><ele>12.25</ele><time>2026-05-03T11:53:25.021Z</time></trkpt><trkpt lat="44.4416533355321" lon="11.857779990348533"><ele>12.5</ele><time>2026-05-03T11:53:26.021Z</time></trkpt><trkpt lat="44.44159026206022" lon="11.857938351720168"><ele>12.75</ele><time>2026-05-03T11:53:27.021Z</time></trkpt><trkpt lat="44.441536654951484" lon="11.858100529117579"><ele>13.0</ele><time>2026-05-03T11:53:28.022Z</time></trkpt><trkpt lat="44.441482118198074" lon="11.858267555316324"><ele>13.0</ele><time>2026-05-03T11:53:29.022Z</time></trkpt><trkpt lat="44.441432850597074" lon="11.858430018136055"><ele>13.0</ele><time>2026-05-03T11:53:30.021Z</time></trkpt><trkpt lat="44.44138736445047" lon="11.858582650844939"><ele>13.0</ele><time>2026-05-03T11:53:31.021Z</time></trkpt><trkpt lat="44.44134071642836" lon="11.858733940177014"><ele>13.0</ele><time>2026-05-03T11:53:32.021Z</time></trkpt><trkpt lat="44.441291840672015" lon="11.858881117532986"><ele>13.5</ele><time>2026-05-03T11:53:33.022Z</time></trkpt><trkpt lat="44.44123816801764" lon="11.859025284561529"><ele>14.0</ele><time>2026-05-03T11:53:34.021Z</time></trkpt><trkpt lat="44.44117712105135" lon="11.859172696196705"><ele>14.5</ele><time>2026-05-03T11:53:35.021Z</time></trkpt><trkpt lat="44.441116667131645" lon="11.859322705303766"><ele>15.0</ele><time>2026-05-03T11:53:36.022Z</time></trkpt><trkpt lat="44.441054763719" lon="11.859480921550993"><ele>15.0</ele><time>2026-05-03T11:53:37.021Z</time></trkpt><trkpt lat="44.44099458352" lon="11.85964002213265"><ele>15.0</ele><time>2026-05-03T11:53:38.021Z</time></trkpt><trkpt lat="44.44093216181083" lon="11.859789889864077"><ele>15.0</ele><time>2026-05-03T11:53:39.021Z</time></trkpt><trkpt lat="44.440859394202626" lon="11.859949586831437"><ele>15.0</ele><time>2026-05-03T11:53:40.021Z</time></trkpt><trkpt lat="44.44078771604275" lon="11.860095942371403"><ele>14.5</ele><time>2026-05-03T11:53:41.021Z</time></trkpt><trkpt lat="44.44071711952801" lon="11.860241545959338"><ele>14.0</ele><time>2026-05-03T11:53:42.022Z</time></trkpt><trkpt lat="44.44064662564513" lon="11.860386294356363"><ele>13.5</ele><time>2026-05-03T11:53:43.022Z</time></trkpt><trkpt lat="44.4405695911169" lon="11.860536071370392"><ele>13.0</ele><time>2026-05-03T11:53:44.022Z</time></trkpt><trkpt lat="44.44048363644354" lon="11.860690527651599"><ele>13.0</ele><time>2026-05-03T11:53:45.022Z</time></trkpt><trkpt lat="44.44040232522905" lon="11.86084065975946"><ele>13.0</ele><time>2026-05-03T11:53:46.022Z</time></trkpt><trkpt lat="44.44032067060761" lon="11.8609871195183"><ele>13.0</ele><time>2026-05-03T11:53:47.022Z</time></trkpt><trkpt lat="44.440240533568826" lon="11.861135333828301"><ele>13.0</ele><time>2026-05-03T11:53:48.022Z</time></trkpt><trkpt lat="44.44015590744879" lon="11.861284317113093"><ele>13.25</ele><time>2026-05-03T11:53:49.022Z</time></trkpt><trkpt lat="44.44007522168266" lon="11.86142689999062"><ele>13.5</ele><time>2026-05-03T11:53:50.022Z</time></trkpt><trkpt lat="44.43999618068056" lon="11.861564295862857"><ele>13.75</ele><time>2026-05-03T11:53:51.022Z</time></trkpt><trkpt lat="44.439921043121075" lon="11.861698946959992"><ele>14.0</ele><time>2026-05-03T11:53:52.022Z</time></trkpt><trkpt lat="44.439847782869094" lon="11.861835769920619"><ele>14.0</ele><time>2026-05-03T11:53:53.022Z</time></trkpt><trkpt lat="44.439778102807836" lon="11.861967271696049"><ele>13.999999999999998</ele><time>2026-05-03T11:53:54.022Z</time></trkpt><trkpt lat="44.43972384118527" lon="11.862090556575941"><ele>13.999999999999998</ele><time>2026-05-03T11:53:55.022Z</time></trkpt><trkpt lat="44.4396815430657" lon="11.862203719790092"><ele>14.0</ele><time>2026-05-03T11:53:56.022Z</time></trkpt><trkpt lat="44.43965418019249" lon="11.862325645844557"><ele>14.0</ele><time>2026-05-03T11:53:57.022Z</time></trkpt><trkpt lat="44.43961865416409" lon="11.862445922538026"><ele>14.0</ele><time>2026-05-03T11:53:58.022Z</time></trkpt><trkpt lat="44.43957786216382" lon="11.862567634040067"><ele>13.999999999999998</ele><time>2026-05-03T11:53:59.022Z</time></trkpt><trkpt lat="44.43953614681877" lon="11.862699280218948"><ele>13.999999999999998</ele><time>2026-05-03T11:54:00.022Z</time></trkpt><trkpt lat="44.43949486927578" lon="11.862840331298452"><ele>14.0</ele><time>2026-05-03T11:54:01.022Z</time></trkpt><trkpt lat="44.439451671491646" lon="11.862994487609187"><ele>14.0</ele><time>2026-05-03T11:54:02.022Z</time></trkpt><trkpt lat="44.43941642953892" lon="11.863153576165248"><ele>14.0</ele><time>2026-05-03T11:54:03.022Z</time></trkpt><trkpt lat="44.4393788596477" lon="11.863324270671384"><ele>14.0</ele><time>2026-05-03T11:54:04.022Z</time></trkpt><trkpt lat="44.43934395658405" lon="11.863494578473633"><ele>14.0</ele><time>2026-05-03T11:54:05.022Z</time></trkpt><trkpt lat="44.43930787348437" lon="11.863673311898657"><ele>14.0</ele><time>2026-05-03T11:54:06.022Z</time></trkpt><trkpt lat="44.4392732358203" lon="11.863851963591015"><ele>14.0</ele><time>2026-05-03T11:54:07.022Z</time></trkpt><trkpt lat="44.43923575637997" lon="11.864029043725228"><ele>14.0</ele><time>2026-05-03T11:54:08.022Z</time></trkpt><trkpt lat="44.43919978310418" lon="11.864204746298412"><ele>14.0</ele><time>2026-05-03T11:54:09.022Z</time></trkpt><trkpt lat="44.439160703862115" lon="11.86438582068509"><ele>14.0</ele><time>2026-05-03T11:54:10.022Z</time></trkpt><trkpt lat="44.439124173271736" lon="11.864567931470512"><ele>14.25</ele><time>2026-05-03T11:54:11.022Z</time></trkpt><trkpt lat="44.43908364647451" lon="11.864758196788562"><ele>14.5</ele><time>2026-05-03T11:54:12.022Z</time></trkpt><trkpt lat="44.43903748081779" lon="11.864942510737983"><ele>14.75</ele><time>2026-05-03T11:54:13.022Z</time></trkpt><trkpt lat="44.43898287438118" lon="11.865116275272422"><ele>15.0</ele><time>2026-05-03T11:54:14.022Z</time></trkpt><trkpt lat="44.4389257131304" lon="11.865286588332197"><ele>14.5</ele><time>2026-05-03T11:54:15.022Z</time></trkpt><trkpt lat="44.43886619280433" lon="11.865450877440008"><ele>14.0</ele><time>2026-05-03T11:54:16.022Z</time></trkpt><trkpt lat="44.4388057175247" lon="11.86560365468966"><ele>13.5</ele><time>2026-05-03T11:54:17.022Z</time></trkpt><trkpt lat="44.43874338822892" lon="11.865756259494137"><ele>13.0</ele><time>2026-05-03T11:54:18.022Z</time></trkpt><trkpt lat="44.43868435130132" lon="11.865904954228073"><ele>13.0</ele><time>2026-05-03T11:54:19.022Z</time></trkpt><trkpt lat="44.4386264423751" lon="11.866054726233502"><ele>13.0</ele><time>2026-05-03T11:54:20.022Z</time></trkpt><trkpt lat="44.438566531506744" lon="11.866205427784232"><ele>13.0</ele><time>2026-05-03T11:54:21.022Z</time></trkpt><trkpt lat="44.438503773905644" lon="11.86636343357003"><ele>13.0</ele><time>2026-05-03T11:54:22.023Z</time></trkpt><trkpt lat="44.43843789255868" lon="11.866528040236574"><ele>13.0</ele><time>2026-05-03T11:54:23.023Z</time></trkpt><trkpt lat="44.43837246221428" lon="11.86669210219077"><ele>13.0</ele><time>2026-05-03T11:54:24.023Z</time></trkpt><trkpt lat="44.43830736570768" lon="11.866859804236405"><ele>13.0</ele><time>2026-05-03T11:54:25.023Z</time></trkpt><trkpt lat="44.43823686783546" lon="11.867034227272352"><ele>13.0</ele><time>2026-05-03T11:54:26.023Z</time></trkpt><trkpt lat="44.438165944995525" lon="11.867205656907775"><ele>13.0</ele><time>2026-05-03T11:54:27.023Z</time></trkpt><trkpt lat="44.43810074187357" lon="11.86737200865229"><ele>13.0</ele><time>2026-05-03T11:54:28.023Z</time></trkpt><trkpt lat="44.438031868698246" lon="11.867545585614918"><ele>13.0</ele><time>2026-05-03T11:54:29.023Z</time></trkpt><trkpt lat="44.4379648625314" lon="11.867713131394789"><ele>13.0</ele><time>2026-05-03T11:54:30.023Z</time></trkpt><trkpt lat="44.43789236671978" lon="11.867886887178528"><ele>12.75</ele><time>2026-05-03T11:54:31.023Z</time></trkpt><trkpt lat="44.43782444299225" lon="11.868060210254914"><ele>12.5</ele><time>2026-05-03T11:54:32.023Z</time></trkpt><trkpt lat="44.43775838804979" lon="11.868229940675214"><ele>12.25</ele><time>2026-05-03T11:54:33.023Z</time></trkpt><trkpt lat="44.43768789935858" lon="11.868405345308338"><ele>12.0</ele><time>2026-05-03T11:54:34.023Z</time></trkpt><trkpt lat="44.43761366621648" lon="11.868586439421897"><ele>11.666666666666666</ele><time>2026-05-03T11:54:35.023Z</time></trkpt><trkpt lat="44.437539664076986" lon="11.868771868743988"><ele>11.333333333333332</ele><time>2026-05-03T11:54:36.023Z</time></trkpt><trkpt lat="44.43746584470828" lon="11.868955121246788"><ele>11.0</ele><time>2026-05-03T11:54:37.023Z</time></trkpt><trkpt lat="44.43739009941412" lon="11.869145020317351"><ele>10.666666666666666</ele><time>2026-05-03T11:54:38.023Z</time></trkpt><trkpt lat="44.437312281909776" lon="11.869337951612723"><ele>10.333333333333334</ele><time>2026-05-03T11:54:39.023Z</time></trkpt><trkpt lat="44.43723674402894" lon="11.869527641276493"><ele>10.0</ele><time>2026-05-03T11:54:40.023Z</time></trkpt><trkpt lat="44.43715707293518" lon="11.869720802433422"><ele>10.5</ele><time>2026-05-03T11:54:41.023Z</time></trkpt><trkpt lat="44.437082305571224" lon="11.869911759299251"><ele>11.0</ele><time>2026-05-03T11:54:42.023Z</time></trkpt><trkpt lat="44.43701020990425" lon="11.87009128652547"><ele>11.5</ele><time>2026-05-03T11:54:43.023Z</time></trkpt><trkpt lat="44.436944573643196" lon="11.87025456136136"><ele>12.0</ele><time>2026-05-03T11:54:44.023Z</time></trkpt><trkpt lat="44.436885719285776" lon="11.870408392489374"><ele>12.0</ele><time>2026-05-03T11:54:45.023Z</time></trkpt><trkpt lat="44.436826270810606" lon="11.870565212920761"><ele>12.0</ele><time>2026-05-03T11:54:46.023Z</time></trkpt><trkpt lat="44.43676641214624" lon="11.870714186035494"><ele>12.0</ele><time>2026-05-03T11:54:47.023Z</time></trkpt><trkpt lat="44.43670904963254" lon="11.870857821595123"><ele>12.0</ele><time>2026-05-03T11:54:48.023Z</time></trkpt><trkpt lat="44.4366525564328" lon="11.870998237706011"><ele>12.0</ele><time>2026-05-03T11:54:49.023Z</time></trkpt><trkpt lat="44.4365977545092" lon="11.871136594735667"><ele>12.0</ele><time>2026-05-03T11:54:50.023Z</time></trkpt><trkpt lat="44.43654368680817" lon="11.871270992340753"><ele>12.0</ele><time>2026-05-03T11:54:51.023Z</time></trkpt><trkpt lat="44.436492507114934" lon="11.87139841580362"><ele>12.0</ele><time>2026-05-03T11:54:52.023Z</time></trkpt><trkpt lat="44.43644276637464" lon="11.871517388329199"><ele>12.0</ele><time>2026-05-03T11:54:53.023Z</time></trkpt><trkpt lat="44.436397280684716" lon="11.87163116356298"><ele>12.0</ele><time>2026-05-03T11:54:54.023Z</time></trkpt><trkpt lat="44.43635074269509" lon="11.871745297763725"><ele>12.0</ele><time>2026-05-03T11:54:55.023Z</time></trkpt><trkpt lat="44.436308358346906" lon="11.871851133630061"><ele>12.0</ele><time>2026-05-03T11:54:56.023Z</time></trkpt><trkpt lat="44.43627021363227" lon="11.871947800878017"><ele>12.0</ele><time>2026-05-03T11:54:57.023Z</time></trkpt><trkpt lat="44.43624049571134" lon="11.872026572165705"><ele>12.0</ele><time>2026-05-03T11:54:58.023Z</time></trkpt><trkpt lat="44.4361864942365" lon="11.87214866595194"><ele>12.0</ele><time>2026-05-03T11:55:00.023Z</time></trkpt><trkpt lat="44.43633716678549" lon="11.872272145107646"><ele>12.0</ele><time>2026-05-03T11:55:02.023Z</time></trkpt><trkpt lat="44.43639496914292" lon="11.872333615766864"><ele>12.0</ele><time>2026-05-03T11:55:03.024Z</time></trkpt><trkpt lat="44.436463142601355" lon="11.872384847976143"><ele>12.0</ele><time>2026-05-03T11:55:04.024Z</time></trkpt><trkpt lat="44.43654032605341" lon="11.872442886290825"><ele>12.0</ele><time>2026-05-03T11:55:05.024Z</time></trkpt><trkpt lat="44.43662631841629" lon="11.8725093037271"><ele>12.0</ele><time>2026-05-03T11:55:06.024Z</time></trkpt><trkpt lat="44.43671683698047" lon="11.872582850879056"><ele>12.0</ele><time>2026-05-03T11:55:07.024Z</time></trkpt><trkpt lat="44.43682575616351" lon="11.872633642971516"><ele>12.0</ele><time>2026-05-03T11:55:08.024Z</time></trkpt><trkpt lat="44.43692076845521" lon="11.872707818407104"><ele>12.0</ele><time>2026-05-03T11:55:09.024Z</time></trkpt><trkpt lat="44.437019831597915" lon="11.872782044803925"><ele>12.0</ele><time>2026-05-03T11:55:10.024Z</time></trkpt><trkpt lat="44.43712264610743" lon="11.872857178933144"><ele>12.0</ele><time>2026-05-03T11:55:11.024Z</time></trkpt><trkpt lat="44.43722739742261" lon="11.872934900988668"><ele>12.25</ele><time>2026-05-03T11:55:12.024Z</time></trkpt><trkpt lat="44.43733876973426" lon="11.873014861971352"><ele>12.5</ele><time>2026-05-03T11:55:13.024Z</time></trkpt><trkpt lat="44.43745447785988" lon="11.873098908674582"><ele>12.75</ele><time>2026-05-03T11:55:14.024Z</time></trkpt><trkpt lat="44.4375703375924" lon="11.87318501896886"><ele>13.0</ele><time>2026-05-03T11:55:15.024Z</time></trkpt><trkpt lat="44.43768544011326" lon="11.873269130433068"><ele>13.0</ele><time>2026-05-03T11:55:16.024Z</time></trkpt><trkpt lat="44.43780662716242" lon="11.873354788560132"><ele>13.0</ele><time>2026-05-03T11:55:17.024Z</time></trkpt><trkpt lat="44.437925796900934" lon="11.873441452327505"><ele>13.0</ele><time>2026-05-03T11:55:18.024Z</time></trkpt><trkpt lat="44.438044945947524" lon="11.873530645905808"><ele>13.0</ele><time>2026-05-03T11:55:19.024Z</time></trkpt><trkpt lat="44.43816428699094" lon="11.873620382591136"><ele>12.75</ele><time>2026-05-03T11:55:20.024Z</time></trkpt><trkpt lat="44.4382830455622" lon="11.873711289444639"><ele>12.5</ele><time>2026-05-03T11:55:21.024Z</time></trkpt><trkpt lat="44.438400061443225" lon="11.873800675185123"><ele>12.25</ele><time>2026-05-03T11:55:22.024Z</time></trkpt><trkpt lat="44.43851732142323" lon="11.873890956210642"><ele>12.0</ele><time>2026-05-03T11:55:23.024Z</time></trkpt><trkpt lat="44.43863664384596" lon="11.873980515087668"><ele>12.0</ele><time>2026-05-03T11:55:24.024Z</time></trkpt><trkpt lat="44.43875536250402" lon="11.874068761364903"><ele>12.0</ele><time>2026-05-03T11:55:25.024Z</time></trkpt><trkpt lat="44.438873215757866" lon="11.87415347781754"><ele>12.0</ele><time>2026-05-03T11:55:26.024Z</time></trkpt><trkpt lat="44.43899324951781" lon="11.874243772989754"><ele>12.0</ele><time>2026-05-03T11:55:27.024Z</time></trkpt><trkpt lat="44.439113215107724" lon="11.874336710391614"><ele>11.5</ele><time>2026-05-03T11:55:28.024Z</time></trkpt><trkpt lat="44.43923631400131" lon="11.874428014685847"><ele>11.0</ele><time>2026-05-03T11:55:29.024Z</time></trkpt><trkpt lat="44.43935735298123" lon="11.874520669912473"><ele>10.5</ele><time>2026-05-03T11:55:30.021Z</time></trkpt><trkpt lat="44.4394831416248" lon="11.874615335571285"><ele>10.0</ele><time>2026-05-03T11:55:31.02Z</time></trkpt><trkpt lat="44.439611411708164" lon="11.874712203151136"><ele>9.75</ele><time>2026-05-03T11:55:32.02Z</time></trkpt><trkpt lat="44.4397441825129" lon="11.874809243295518"><ele>9.5</ele><time>2026-05-03T11:55:33.021Z</time></trkpt><trkpt lat="44.43987423944427" lon="11.87490715673735"><ele>9.25</ele><time>2026-05-03T11:55:34.021Z</time></trkpt><trkpt lat="44.44000888387284" lon="11.875004079122952"><ele>9.0</ele><time>2026-05-03T11:55:35.021Z</time></trkpt><trkpt lat="44.44014252633525" lon="11.875101567553589"><ele>9.0</ele><time>2026-05-03T11:55:36.021Z</time></trkpt><trkpt lat="44.44027742046579" lon="11.875200088920755"><ele>9.0</ele><time>2026-05-03T11:55:37.021Z</time></trkpt><trkpt lat="44.440411104417564" lon="11.875300820793504"><ele>9.0</ele><time>2026-05-03T11:55:38.021Z</time></trkpt><trkpt lat="44.440540622109886" lon="11.875399777752788"><ele>9.333333333333334</ele><time>2026-05-03T11:55:39.021Z</time></trkpt><trkpt lat="44.440673743650194" lon="11.875498411413622"><ele>9.666666666666668</ele><time>2026-05-03T11:55:40.021Z</time></trkpt><trkpt lat="44.44080789868702" lon="11.87560048057256"><ele>10.0</ele><time>2026-05-03T11:55:41.021Z</time></trkpt><trkpt lat="44.44094035324908" lon="11.875698899844433"><ele>10.0</ele><time>2026-05-03T11:55:42.021Z</time></trkpt><trkpt lat="44.441075938889085" lon="11.875796225857961"><ele>10.0</ele><time>2026-05-03T11:55:43.021Z</time></trkpt><trkpt lat="44.44120902869943" lon="11.875897074213157"><ele>10.0</ele><time>2026-05-03T11:55:44.021Z</time></trkpt><trkpt lat="44.4413404526483" lon="11.87599719082283"><ele>10.0</ele><time>2026-05-03T11:55:45.021Z</time></trkpt><trkpt lat="44.44147640994988" lon="11.876098709523097"><ele>10.0</ele><time>2026-05-03T11:55:46.021Z</time></trkpt><trkpt lat="44.44161227113481" lon="11.8762011017745"><ele>10.0</ele><time>2026-05-03T11:55:47.021Z</time></trkpt><trkpt lat="44.44175074893387" lon="11.876305036871946"><ele>10.0</ele><time>2026-05-03T11:55:48.021Z</time></trkpt><trkpt lat="44.441887737759714" lon="11.876414406125841"><ele>10.0</ele><time>2026-05-03T11:55:49.021Z</time></trkpt><trkpt lat="44.44202460863651" lon="11.87652431329932"><ele>10.0</ele><time>2026-05-03T11:55:50.021Z</time></trkpt><trkpt lat="44.44216435438125" lon="11.876637244217395"><ele>10.0</ele><time>2026-05-03T11:55:51.021Z</time></trkpt><trkpt lat="44.44230544355448" lon="11.876752645346215"><ele>10.0</ele><time>2026-05-03T11:55:52.021Z</time></trkpt><trkpt lat="44.44244547293882" lon="11.876867596198784"><ele>10.0</ele><time>2026-05-03T11:55:53.021Z</time></trkpt><trkpt lat="44.44258599907028" lon="11.876977963292594"><ele>10.0</ele><time>2026-05-03T11:55:54.021Z</time></trkpt><trkpt lat="44.442727019788705" lon="11.877092818323694"><ele>10.0</ele><time>2026-05-03T11:55:55.021Z</time></trkpt><trkpt lat="44.44286659585818" lon="11.877209092040536"><ele>10.0</ele><time>2026-05-03T11:55:56.021Z</time></trkpt><trkpt lat="44.443010699834005" lon="11.877317358810641"><ele>9.666666666666668</ele><time>2026-05-03T11:55:57.021Z</time></trkpt><trkpt lat="44.44315016695379" lon="11.87742644865237"><ele>9.333333333333334</ele><time>2026-05-03T11:55:58.021Z</time></trkpt><trkpt lat="44.443291885865285" lon="11.87753657436812"><ele>9.0</ele><time>2026-05-03T11:55:59.021Z</time></trkpt><trkpt lat="44.44343105868327" lon="11.877649652465323"><ele>9.0</ele><time>2026-05-03T11:56:00.021Z</time></trkpt><trkpt lat="44.44357083099166" lon="11.877765466480499"><ele>9.0</ele><time>2026-05-03T11:56:01.021Z</time></trkpt><trkpt lat="44.44371187051813" lon="11.877885663868355"><ele>9.0</ele><time>2026-05-03T11:56:02.021Z</time></trkpt><trkpt lat="44.44385141690672" lon="11.878001479375357"><ele>9.333333333333334</ele><time>2026-05-03T11:56:03.021Z</time></trkpt><trkpt lat="44.44399324196892" lon="11.878121478536212"><ele>9.666666666666668</ele><time>2026-05-03T11:56:04.021Z</time></trkpt><trkpt lat="44.4441359217564" lon="11.878241484225324"><ele>10.0</ele><time>2026-05-03T11:56:05.021Z</time></trkpt><trkpt lat="44.44427808761396" lon="11.878358737260037"><ele>9.333333333333334</ele><time>2026-05-03T11:56:06.021Z</time></trkpt><trkpt lat="44.444423388674494" lon="11.878478659537782"><ele>8.666666666666666</ele><time>2026-05-03T11:56:07.021Z</time></trkpt><trkpt lat="44.444567821618655" lon="11.878601579683991"><ele>8.0</ele><time>2026-05-03T11:56:08.022Z</time></trkpt><trkpt lat="44.44471452891189" lon="11.878722501220803"><ele>8.0</ele><time>2026-05-03T11:56:09.022Z</time></trkpt><trkpt lat="44.44486055703484" lon="11.878838948227983"><ele>8.0</ele><time>2026-05-03T11:56:10.022Z</time></trkpt><trkpt lat="44.44500699518184" lon="11.87895801951957"><ele>8.0</ele><time>2026-05-03T11:56:11.022Z</time></trkpt><trkpt lat="44.445154152065314" lon="11.879081068904284"><ele>8.0</ele><time>2026-05-03T11:56:12.022Z</time></trkpt><trkpt lat="44.44530164246297" lon="11.879199226096354"><ele>8.0</ele><time>2026-05-03T11:56:13.022Z</time></trkpt><trkpt lat="44.44545162902975" lon="11.879323508383406"><ele>8.0</ele><time>2026-05-03T11:56:14.022Z</time></trkpt><trkpt lat="44.44560024483654" lon="11.87943791129852"><ele>8.666666666666666</ele><time>2026-05-03T11:56:15.022Z</time></trkpt><trkpt lat="44.44575401548527" lon="11.879553609111477"><ele>9.333333333333334</ele><time>2026-05-03T11:56:16.022Z</time></trkpt><trkpt lat="44.44590845829608" lon="11.879664743147789"><ele>10.0</ele><time>2026-05-03T11:56:17.022Z</time></trkpt><trkpt lat="44.446060661130055" lon="11.879775483824844"><ele>10.0</ele><time>2026-05-03T11:56:18.022Z</time></trkpt><trkpt lat="44.446217459498264" lon="11.879880297560364"><ele>10.0</ele><time>2026-05-03T11:56:19.022Z</time></trkpt><trkpt lat="44.44637419128388" lon="11.879977847395104"><ele>10.0</ele><time>2026-05-03T11:56:20.022Z</time></trkpt><trkpt lat="44.44652819933725" lon="11.880072290886748"><ele>10.0</ele><time>2026-05-03T11:56:21.022Z</time></trkpt><trkpt lat="44.44669167900127" lon="11.880165006531996"><ele>10.0</ele><time>2026-05-03T11:56:22.022Z</time></trkpt><trkpt lat="44.44684713359647" lon="11.88025344158283"><ele>10.0</ele><time>2026-05-03T11:56:23.022Z</time></trkpt><trkpt lat="44.447003513217616" lon="11.88034697174325"><ele>10.0</ele><time>2026-05-03T11:56:24.022Z</time></trkpt><trkpt lat="44.44716130657538" lon="11.880441147809044"><ele>10.0</ele><time>2026-05-03T11:56:25.022Z</time></trkpt><trkpt lat="44.44731516083873" lon="11.880539934571166"><ele>10.0</ele><time>2026-05-03T11:56:26.022Z</time></trkpt><trkpt lat="44.4474687269959" lon="11.880644905488953"><ele>10.0</ele><time>2026-05-03T11:56:27.022Z</time></trkpt><trkpt lat="44.44761754044451" lon="11.88075868580278"><ele>10.0</ele><time>2026-05-03T11:56:28.022Z</time></trkpt><trkpt lat="44.44775901481924" lon="11.880876833119954"><ele>10.0</ele><time>2026-05-03T11:56:29.022Z</time></trkpt><trkpt lat="44.44789965630712" lon="11.880994789000628"><ele>10.0</ele><time>2026-05-03T11:56:30.022Z</time></trkpt><trkpt lat="44.4480524021678" lon="11.881110533363618"><ele>10.0</ele><time>2026-05-03T11:56:31.022Z</time></trkpt><trkpt lat="44.448200439581825" lon="11.88122779595658"><ele>10.0</ele><time>2026-05-03T11:56:32.022Z</time></trkpt><trkpt lat="44.4483437227937" lon="11.88134665474476"><ele>10.0</ele><time>2026-05-03T11:56:33.022Z</time></trkpt><trkpt lat="44.44849315083642" lon="11.881465919895376"><ele>10.0</ele><time>2026-05-03T11:56:34.022Z</time></trkpt><trkpt lat="44.44864452252416" lon="11.881587504878334"><ele>10.0</ele><time>2026-05-03T11:56:35.022Z</time></trkpt><trkpt lat="44.44879369208286" lon="11.881706068588358"><ele>9.666666666666668</ele><time>2026-05-03T11:56:36.022Z</time></trkpt><trkpt lat="44.44894320851272" lon="11.881826520888824"><ele>9.333333333333334</ele><time>2026-05-03T11:56:37.022Z</time></trkpt><trkpt lat="44.44909326719745" lon="11.88194650107019"><ele>9.0</ele><time>2026-05-03T11:56:38.022Z</time></trkpt><trkpt lat="44.449245874962166" lon="11.88206267428272"><ele>9.0</ele><time>2026-05-03T11:56:39.022Z</time></trkpt><trkpt lat="44.449400731496006" lon="11.882184649854914"><ele>9.0</ele><time>2026-05-03T11:56:40.022Z</time></trkpt><trkpt lat="44.449547545139104" lon="11.8823030857931"><ele>9.0</ele><time>2026-05-03T11:56:41.022Z</time></trkpt><trkpt lat="44.44969666311316" lon="11.882427652194727"><ele>9.0</ele><time>2026-05-03T11:56:42.022Z</time></trkpt><trkpt lat="44.4498491501357" lon="11.88255150083007"><ele>9.0</ele><time>2026-05-03T11:56:43.022Z</time></trkpt><trkpt lat="44.450002944663446" lon="11.88267408513084"><ele>9.0</ele><time>2026-05-03T11:56:44.022Z</time></trkpt><trkpt lat="44.450154780358815" lon="11.882798236374311"><ele>9.0</ele><time>2026-05-03T11:56:45.022Z</time></trkpt><trkpt lat="44.45045564810764" lon="11.883040077650922"><ele>9.0</ele><time>2026-05-03T11:56:47.022Z</time></trkpt><trkpt lat="44.45060413108995" lon="11.883161006445972"><ele>9.333333333333334</ele><time>2026-05-03T11:56:48.023Z</time></trkpt><trkpt lat="44.45075120221664" lon="11.883280751258798"><ele>9.666666666666668</ele><time>2026-05-03T11:56:49.023Z</time></trkpt><trkpt lat="44.450896238487886" lon="11.88340036205825"><ele>10.0</ele><time>2026-05-03T11:56:50.023Z</time></trkpt><trkpt lat="44.4510448474808" lon="11.883515917535137"><ele>10.0</ele><time>2026-05-03T11:56:51.023Z</time></trkpt><trkpt lat="44.45118410620009" lon="11.88362729798475"><ele>10.0</ele><time>2026-05-03T11:56:52.023Z</time></trkpt><trkpt lat="44.45132154486899" lon="11.88373532148524"><ele>10.0</ele><time>2026-05-03T11:56:53.023Z</time></trkpt><trkpt lat="44.45145562029354" lon="11.883844448588576"><ele>9.333333333333334</ele><time>2026-05-03T11:56:54.023Z</time></trkpt><trkpt lat="44.451590267252605" lon="11.883950475190876"><ele>8.666666666666666</ele><time>2026-05-03T11:56:55.023Z</time></trkpt><trkpt lat="44.45172306838882" lon="11.884056085485902"><ele>8.0</ele><time>2026-05-03T11:56:56.023Z</time></trkpt><trkpt lat="44.4518508439531" lon="11.884161656592747"><ele>8.25</ele><time>2026-05-03T11:56:57.023Z</time></trkpt><trkpt lat="44.45197840885511" lon="11.884268602377858"><ele>8.5</ele><time>2026-05-03T11:56:58.023Z</time></trkpt><trkpt lat="44.452108821267" lon="11.884368056487027"><ele>8.75</ele><time>2026-05-03T11:56:59.023Z</time></trkpt><trkpt lat="44.452228242223576" lon="11.884460831440782"><ele>9.0</ele><time>2026-05-03T11:57:00.023Z</time></trkpt><trkpt lat="44.452342646736206" lon="11.884547499113356"><ele>9.166666666666666</ele><time>2026-05-03T11:57:01.023Z</time></trkpt><trkpt lat="44.45244086123184" lon="11.884615556279265"><ele>9.333333333333334</ele><time>2026-05-03T11:57:02.023Z</time></trkpt><trkpt lat="44.45252819868981" lon="11.884663211728114"><ele>9.5</ele><time>2026-05-03T11:57:03.023Z</time></trkpt><trkpt lat="44.45259969977781" lon="11.88470560385307"><ele>9.666666666666668</ele><time>2026-05-03T11:57:04.023Z</time></trkpt><trkpt lat="44.45267942019824" lon="11.88476356439471"><ele>9.833333333333334</ele><time>2026-05-03T11:57:06.023Z</time></trkpt><trkpt lat="44.452730052531706" lon="11.884847443977092"><ele>10.0</ele><time>2026-05-03T11:57:08.023Z</time></trkpt><trkpt lat="44.45279531518826" lon="11.884975817674446"><ele>10.0</ele><time>2026-05-03T11:57:10.023Z</time></trkpt><trkpt lat="44.45284154863994" lon="11.885042063522038"><ele>10.0</ele><time>2026-05-03T11:57:11.023Z</time></trkpt><trkpt lat="44.45284482043174" lon="11.885150448750297"><ele>10.0</ele><time>2026-05-03T11:57:12.023Z</time></trkpt><trkpt lat="44.45284500220922" lon="11.885242206432622"><ele>10.0</ele><time>2026-05-03T11:57:13.023Z</time></trkpt><trkpt lat="44.45282233625281" lon="11.885342183520448"><ele>10.0</ele><time>2026-05-03T11:57:14.023Z</time></trkpt><trkpt lat="44.45282060850732" lon="11.885450677945483"><ele>10.0</ele><time>2026-05-03T11:57:15.023Z</time></trkpt><trkpt lat="44.45274052800974" lon="11.885561482804041"><ele>9.75</ele><time>2026-05-03T11:57:16.023Z</time></trkpt><trkpt lat="44.452690439625506" lon="11.885689307338183"><ele>9.5</ele><time>2026-05-03T11:57:17.023Z</time></trkpt><trkpt lat="44.45263846639412" lon="11.885822662214842"><ele>9.25</ele><time>2026-05-03T11:57:18.023Z</time></trkpt><trkpt lat="44.452583322477544" lon="11.885968775309584"><ele>9.0</ele><time>2026-05-03T11:57:19.023Z</time></trkpt><trkpt lat="44.45252586600471" lon="11.886119560418496"><ele>8.75</ele><time>2026-05-03T11:57:20.023Z</time></trkpt><trkpt lat="44.45246972872228" lon="11.88626864352095"><ele>8.5</ele><time>2026-05-03T11:57:21.023Z</time></trkpt><trkpt lat="44.452407676671726" lon="11.886412280592179"><ele>8.25</ele><time>2026-05-03T11:57:22.023Z</time></trkpt><trkpt lat="44.45234154719619" lon="11.88656339325331"><ele>8.0</ele><time>2026-05-03T11:57:23.023Z</time></trkpt><trkpt lat="44.452275975387366" lon="11.88672613250634"><ele>8.0</ele><time>2026-05-03T11:57:24.023Z</time></trkpt><trkpt lat="44.45218429116515" lon="11.88686858859094"><ele>8.0</ele><time>2026-05-03T11:57:25.023Z</time></trkpt><trkpt lat="44.452111500669936" lon="11.887031055185094"><ele>8.0</ele><time>2026-05-03T11:57:26.023Z</time></trkpt><trkpt lat="44.452036834516235" lon="11.88720380237138"><ele>8.0</ele><time>2026-05-03T11:57:27.023Z</time></trkpt><trkpt lat="44.45196717189" lon="11.887376845671607"><ele>7.75</ele><time>2026-05-03T11:57:28.023Z</time></trkpt><trkpt lat="44.451901409205405" lon="11.887551617856579"><ele>7.5</ele><time>2026-05-03T11:57:29.024Z</time></trkpt><trkpt lat="44.451832787461775" lon="11.887736183632697"><ele>7.25</ele><time>2026-05-03T11:57:30.024Z</time></trkpt><trkpt lat="44.45176970207939" lon="11.88791291285113"><ele>7.0</ele><time>2026-05-03T11:57:31.024Z</time></trkpt><trkpt lat="44.451703754938684" lon="11.888089462014985"><ele>6.75</ele><time>2026-05-03T11:57:32.024Z</time></trkpt><trkpt lat="44.4516176841511" lon="11.888251707115176"><ele>6.5</ele><time>2026-05-03T11:57:33.024Z</time></trkpt><trkpt lat="44.451552820751715" lon="11.88842209939845"><ele>6.25</ele><time>2026-05-03T11:57:34.024Z</time></trkpt><trkpt lat="44.45148851724251" lon="11.88859300980232"><ele>6.0</ele><time>2026-05-03T11:57:35.024Z</time></trkpt><trkpt lat="44.45143176593186" lon="11.888765735568988"><ele>6.0</ele><time>2026-05-03T11:57:36.021Z</time></trkpt><trkpt lat="44.45137632858332" lon="11.88894131925289"><ele>6.0</ele><time>2026-05-03T11:57:37.021Z</time></trkpt><trkpt lat="44.45132387434914" lon="11.889117892923363"><ele>6.0</ele><time>2026-05-03T11:57:38.021Z</time></trkpt><trkpt lat="44.451274036063054" lon="11.8892910164685"><ele>6.0</ele><time>2026-05-03T11:57:39.02Z</time></trkpt><trkpt lat="44.45122450952084" lon="11.889463711747341"><ele>6.75</ele><time>2026-05-03T11:57:40.021Z</time></trkpt><trkpt lat="44.45117539447987" lon="11.889631365225037"><ele>7.5</ele><time>2026-05-03T11:57:41.021Z</time></trkpt><trkpt lat="44.45112681026206" lon="11.889798747766594"><ele>8.25</ele><time>2026-05-03T11:57:42.02Z</time></trkpt><trkpt lat="44.45107415225535" lon="11.889974989639944"><ele>9.0</ele><time>2026-05-03T11:57:43.02Z</time></trkpt><trkpt lat="44.45102102114814" lon="11.890150029274595"><ele>9.0</ele><time>2026-05-03T11:57:44.02Z</time></trkpt><trkpt lat="44.45096290315176" lon="11.890329717190655"><ele>9.0</ele><time>2026-05-03T11:57:45.021Z</time></trkpt><trkpt lat="44.45090388942555" lon="11.890515318197"><ele>9.0</ele><time>2026-05-03T11:57:46.02Z</time></trkpt><trkpt lat="44.450840788028415" lon="11.890701891288657"><ele>9.0</ele><time>2026-05-03T11:57:47.02Z</time></trkpt><trkpt lat="44.450777366315435" lon="11.8908949609062"><ele>8.75</ele><time>2026-05-03T11:57:48.02Z</time></trkpt><trkpt lat="44.45071209341834" lon="11.891084375164802"><ele>8.5</ele><time>2026-05-03T11:57:49.021Z</time></trkpt><trkpt lat="44.450644048058436" lon="11.891275257087194"><ele>8.25</ele><time>2026-05-03T11:57:50.021Z</time></trkpt><trkpt lat="44.450579107907174" lon="11.891456826510504"><ele>8.0</ele><time>2026-05-03T11:57:51.021Z</time></trkpt><trkpt lat="44.450514566539475" lon="11.891635788984091"><ele>8.25</ele><time>2026-05-03T11:57:52.021Z</time></trkpt><trkpt lat="44.45045086547289" lon="11.891816030604442"><ele>8.5</ele><time>2026-05-03T11:57:53.021Z</time></trkpt><trkpt lat="44.45038622208623" lon="11.891995573047257"><ele>8.75</ele><time>2026-05-03T11:57:54.021Z</time></trkpt><trkpt lat="44.45032007710098" lon="11.892173559869422"><ele>9.0</ele><time>2026-05-03T11:57:55.021Z</time></trkpt><trkpt lat="44.45025536747419" lon="11.89234915773112"><ele>9.0</ele><time>2026-05-03T11:57:56.021Z</time></trkpt><trkpt lat="44.45019322382064" lon="11.892517202578725"><ele>9.0</ele><time>2026-05-03T11:57:57.021Z</time></trkpt><trkpt lat="44.450127015784716" lon="11.892685833055195"><ele>9.0</ele><time>2026-05-03T11:57:58.021Z</time></trkpt><trkpt lat="44.45006168910483" lon="11.89285318847078"><ele>9.0</ele><time>2026-05-03T11:57:59.021Z</time></trkpt><trkpt lat="44.44999633253812" lon="11.893009686176134"><ele>8.75</ele><time>2026-05-03T11:58:00.021Z</time></trkpt><trkpt lat="44.44992956611565" lon="11.893162632599797"><ele>8.5</ele><time>2026-05-03T11:58:01.021Z</time></trkpt><trkpt lat="44.44986445343699" lon="11.893313640298036"><ele>8.25</ele><time>2026-05-03T11:58:02.021Z</time></trkpt><trkpt lat="44.44980107630711" lon="11.893458901500008"><ele>8.0</ele><time>2026-05-03T11:58:03.021Z</time></trkpt><trkpt lat="44.449738254257795" lon="11.893605834221884"><ele>7.75</ele><time>2026-05-03T11:58:04.021Z</time></trkpt><trkpt lat="44.44967640606288" lon="11.893750045527796"><ele>7.5</ele><time>2026-05-03T11:58:05.021Z</time></trkpt><trkpt lat="44.44961569808131" lon="11.893893945231975"><ele>7.25</ele><time>2026-05-03T11:58:06.021Z</time></trkpt><trkpt lat="44.44955746890333" lon="11.894030967794055"><ele>7.0</ele><time>2026-05-03T11:58:07.021Z</time></trkpt><trkpt lat="44.44950064265019" lon="11.894165265442213"><ele>7.0</ele><time>2026-05-03T11:58:08.021Z</time></trkpt><trkpt lat="44.44944586372851" lon="11.894296515320299"><ele>6.999999999999999</ele><time>2026-05-03T11:58:09.021Z</time></trkpt><trkpt lat="44.44939375066517" lon="11.894423667301128"><ele>6.999999999999999</ele><time>2026-05-03T11:58:10.021Z</time></trkpt><trkpt lat="44.44934161465425" lon="11.894548621011825"><ele>7.0</ele><time>2026-05-03T11:58:11.021Z</time></trkpt><trkpt lat="44.449289977541234" lon="11.894675436919112"><ele>7.0</ele><time>2026-05-03T11:58:12.021Z</time></trkpt><trkpt lat="44.4492357877651" lon="11.894803713103624"><ele>7.0</ele><time>2026-05-03T11:58:13.021Z</time></trkpt><trkpt lat="44.44917932625272" lon="11.894938777546965"><ele>6.999999999999999</ele><time>2026-05-03T11:58:14.021Z</time></trkpt><trkpt lat="44.44912533050189" lon="11.895074252995776"><ele>6.999999999999999</ele><time>2026-05-03T11:58:15.021Z</time></trkpt><trkpt lat="44.4490692013752" lon="11.89521448328598"><ele>7.0</ele><time>2026-05-03T11:58:16.021Z</time></trkpt><trkpt lat="44.44901404434371" lon="11.895347835239484"><ele>7.0</ele><time>2026-05-03T11:58:17.021Z</time></trkpt><trkpt lat="44.44896021753098" lon="11.895483374783332"><ele>6.8</ele><time>2026-05-03T11:58:18.021Z</time></trkpt><trkpt lat="44.448907446311" lon="11.895613578827522"><ele>6.6</ele><time>2026-05-03T11:58:19.021Z</time></trkpt><trkpt lat="44.448858943467584" lon="11.895735297350775"><ele>6.3999999999999995</ele><time>2026-05-03T11:58:20.021Z</time></trkpt><trkpt lat="44.448808064857246" lon="11.895867659747458"><ele>6.199999999999999</ele><time>2026-05-03T11:58:21.021Z</time></trkpt><trkpt lat="44.44875676434753" lon="11.895996374476853"><ele>6.0</ele><time>2026-05-03T11:58:22.021Z</time></trkpt><trkpt lat="44.448709021575894" lon="11.896127108306823"><ele>6.0</ele><time>2026-05-03T11:58:23.021Z</time></trkpt><trkpt lat="44.44865970282911" lon="11.896260189765602"><ele>6.0</ele><time>2026-05-03T11:58:24.021Z</time></trkpt><trkpt lat="44.448612680529536" lon="11.896385973477066"><ele>6.0</ele><time>2026-05-03T11:58:25.021Z</time></trkpt><trkpt lat="44.448561539732026" lon="11.89651396246057"><ele>6.0</ele><time>2026-05-03T11:58:26.022Z</time></trkpt><trkpt lat="44.44851247983052" lon="11.896639176122385"><ele>6.0</ele><time>2026-05-03T11:58:27.022Z</time></trkpt><trkpt lat="44.4484626862554" lon="11.89677133303022"><ele>6.0</ele><time>2026-05-03T11:58:28.022Z</time></trkpt><trkpt lat="44.44841355402624" lon="11.896902110249838"><ele>6.0</ele><time>2026-05-03T11:58:29.022Z</time></trkpt><trkpt lat="44.44836171651479" lon="11.897037140256415"><ele>6.0</ele><time>2026-05-03T11:58:30.022Z</time></trkpt><trkpt lat="44.448310384177844" lon="11.897173465717554"><ele>6.0</ele><time>2026-05-03T11:58:31.022Z</time></trkpt><trkpt lat="44.44825569488018" lon="11.897318600340567"><ele>6.0</ele><time>2026-05-03T11:58:32.022Z</time></trkpt><trkpt lat="44.4482038625584" lon="11.897456650934242"><ele>6.0</ele><time>2026-05-03T11:58:33.022Z</time></trkpt><trkpt lat="44.448150020366896" lon="11.897592109833324"><ele>6.0</ele><time>2026-05-03T11:58:34.022Z</time></trkpt><trkpt lat="44.44809740685928" lon="11.89772792529224"><ele>6.0</ele><time>2026-05-03T11:58:35.022Z</time></trkpt><trkpt lat="44.448044721146616" lon="11.897862605759668"><ele>6.0</ele><time>2026-05-03T11:58:36.022Z</time></trkpt><trkpt lat="44.447993756383326" lon="11.897993971063322"><ele>6.0</ele><time>2026-05-03T11:58:37.022Z</time></trkpt><trkpt lat="44.4479439466944" lon="11.898120233566255"><ele>6.199999999999999</ele><time>2026-05-03T11:58:38.022Z</time></trkpt><trkpt lat="44.44789611376532" lon="11.898242657245342"><ele>6.3999999999999995</ele><time>2026-05-03T11:58:39.022Z</time></trkpt><trkpt lat="44.44784825049354" lon="11.898364016394627"><ele>6.6</ele><time>2026-05-03T11:58:40.022Z</time></trkpt><trkpt lat="44.447799978932444" lon="11.898487060722786"><ele>6.8</ele><time>2026-05-03T11:58:41.022Z</time></trkpt><trkpt lat="44.44775257605357" lon="11.89861157469622"><ele>7.0</ele><time>2026-05-03T11:58:42.022Z</time></trkpt><trkpt lat="44.447708600994176" lon="11.898729214346725"><ele>7.0</ele><time>2026-05-03T11:58:43.022Z</time></trkpt><trkpt lat="44.447662958506875" lon="11.898851373325678"><ele>6.999999999999999</ele><time>2026-05-03T11:58:44.022Z</time></trkpt><trkpt lat="44.44761756512268" lon="11.898975139389078"><ele>6.999999999999999</ele><time>2026-05-03T11:58:45.022Z</time></trkpt><trkpt lat="44.447571243854355" lon="11.89909503545174"><ele>7.0</ele><time>2026-05-03T11:58:46.022Z</time></trkpt><trkpt lat="44.44752416455174" lon="11.899216268205121"><ele>7.0</ele><time>2026-05-03T11:58:47.022Z</time></trkpt><trkpt lat="44.44747664426761" lon="11.899339519016763"><ele>7.0</ele><time>2026-05-03T11:58:48.022Z</time></trkpt><trkpt lat="44.447424592543776" lon="11.899470607485297"><ele>6.999999999999999</ele><time>2026-05-03T11:58:49.022Z</time></trkpt><trkpt lat="44.44737410032605" lon="11.899598035362452"><ele>6.999999999999999</ele><time>2026-05-03T11:58:50.022Z</time></trkpt><trkpt lat="44.44732393660293" lon="11.899726664288044"><ele>7.0</ele><time>2026-05-03T11:58:51.022Z</time></trkpt><trkpt lat="44.44727447076218" lon="11.899851264075542"><ele>7.0</ele><time>2026-05-03T11:58:52.022Z</time></trkpt><trkpt lat="44.44722361525576" lon="11.899977460848763"><ele>6.8</ele><time>2026-05-03T11:58:53.022Z</time></trkpt><trkpt lat="44.44717192924991" lon="11.900101713268116"><ele>6.6</ele><time>2026-05-03T11:58:54.022Z</time></trkpt><trkpt lat="44.447118834065165" lon="11.90022493858444"><ele>6.3999999999999995</ele><time>2026-05-03T11:58:55.022Z</time></trkpt><trkpt lat="44.447062369625094" lon="11.90034472867831"><ele>6.199999999999999</ele><time>2026-05-03T11:58:56.022Z</time></trkpt><trkpt lat="44.44700343271318" lon="11.90046269946703"><ele>6.0</ele><time>2026-05-03T11:58:57.022Z</time></trkpt><trkpt lat="44.44693807695381" lon="11.900588908791319"><ele>6.0</ele><time>2026-05-03T11:58:58.022Z</time></trkpt><trkpt lat="44.44687159087028" lon="11.90071957621103"><ele>6.0</ele><time>2026-05-03T11:58:59.022Z</time></trkpt><trkpt lat="44.446803940483186" lon="11.90084835240559"><ele>6.0</ele><time>2026-05-03T11:59:00.022Z</time></trkpt><trkpt lat="44.44673380192577" lon="11.900983328652872"><ele>6.0</ele><time>2026-05-03T11:59:01.022Z</time></trkpt><trkpt lat="44.44666448408287" lon="11.901120660339428"><ele>6.75</ele><time>2026-05-03T11:59:02.022Z</time></trkpt><trkpt lat="44.446597374119435" lon="11.901258162030171"><ele>7.5</ele><time>2026-05-03T11:59:03.022Z</time></trkpt><trkpt lat="44.446528690608375" lon="11.901398999279014"><ele>8.25</ele><time>2026-05-03T11:59:04.022Z</time></trkpt><trkpt lat="44.446466040054645" lon="11.901541623194767"><ele>9.0</ele><time>2026-05-03T11:59:05.022Z</time></trkpt><trkpt lat="44.44640221689252" lon="11.901686653262274"><ele>8.5</ele><time>2026-05-03T11:59:06.022Z</time></trkpt><trkpt lat="44.44633784599922" lon="11.90183145831002"><ele>8.0</ele><time>2026-05-03T11:59:07.023Z</time></trkpt><trkpt lat="44.44627331165138" lon="11.901979560682895"><ele>7.5</ele><time>2026-05-03T11:59:08.023Z</time></trkpt><trkpt lat="44.44620737563629" lon="11.90212545603401"><ele>7.0</ele><time>2026-05-03T11:59:09.023Z</time></trkpt><trkpt lat="44.44614274031029" lon="11.902272262131868"><ele>7.0</ele><time>2026-05-03T11:59:10.023Z</time></trkpt><trkpt lat="44.44608079231734" lon="11.902418861371071"><ele>7.0</ele><time>2026-05-03T11:59:11.023Z</time></trkpt><trkpt lat="44.4460213647028" lon="11.902566087756508"><ele>7.0</ele><time>2026-05-03T11:59:12.023Z</time></trkpt><trkpt lat="44.445962425952104" lon="11.902713729083365"><ele>7.0</ele><time>2026-05-03T11:59:13.023Z</time></trkpt><trkpt lat="44.445906643462585" lon="11.902862933006249"><ele>7.0</ele><time>2026-05-03T11:59:14.023Z</time></trkpt><trkpt lat="44.445851838946005" lon="11.903011266641858"><ele>7.0</ele><time>2026-05-03T11:59:15.023Z</time></trkpt><trkpt lat="44.44579854121469" lon="11.903161450913247"><ele>7.0</ele><time>2026-05-03T11:59:16.023Z</time></trkpt><trkpt lat="44.44574615586412" lon="11.903310493124835"><ele>7.0</ele><time>2026-05-03T11:59:17.023Z</time></trkpt><trkpt lat="44.445696386797614" lon="11.903459586440748"><ele>7.0</ele><time>2026-05-03T11:59:18.023Z</time></trkpt><trkpt lat="44.445643615496344" lon="11.903609557257948"><ele>7.0</ele><time>2026-05-03T11:59:19.023Z</time></trkpt><trkpt lat="44.4455928083938" lon="11.903755386210294"><ele>7.0</ele><time>2026-05-03T11:59:20.023Z</time></trkpt><trkpt lat="44.445540334921375" lon="11.903903081106595"><ele>7.0</ele><time>2026-05-03T11:59:21.023Z</time></trkpt><trkpt lat="44.445488937014915" lon="11.904047218883605"><ele>7.25</ele><time>2026-05-03T11:59:22.023Z</time></trkpt><trkpt lat="44.44543619368468" lon="11.904189095310922"><ele>7.5</ele><time>2026-05-03T11:59:23.023Z</time></trkpt><trkpt lat="44.44538194706628" lon="11.9043331809383"><ele>7.75</ele><time>2026-05-03T11:59:24.023Z</time></trkpt><trkpt lat="44.44532628160988" lon="11.904480871920137"><ele>8.0</ele><time>2026-05-03T11:59:25.023Z</time></trkpt><trkpt lat="44.44526951538285" lon="11.904624133968817"><ele>8.0</ele><time>2026-05-03T11:59:26.023Z</time></trkpt><trkpt lat="44.44521167841368" lon="11.90477266987492"><ele>8.0</ele><time>2026-05-03T11:59:27.023Z</time></trkpt><trkpt lat="44.44515088421021" lon="11.904924522522771"><ele>8.0</ele><time>2026-05-03T11:59:28.023Z</time></trkpt><trkpt lat="44.44509458989119" lon="11.905070009750988"><ele>8.0</ele><time>2026-05-03T11:59:29.023Z</time></trkpt><trkpt lat="44.445034355590245" lon="11.905215308153162"><ele>8.0</ele><time>2026-05-03T11:59:30.023Z</time></trkpt><trkpt lat="44.44497643356464" lon="11.905357142434477"><ele>8.0</ele><time>2026-05-03T11:59:31.023Z</time></trkpt><trkpt lat="44.444917301557986" lon="11.905499359368187"><ele>8.0</ele><time>2026-05-03T11:59:32.023Z</time></trkpt><trkpt lat="44.444856958174945" lon="11.905645592115263"><ele>8.0</ele><time>2026-05-03T11:59:33.023Z</time></trkpt><trkpt lat="44.44479914731033" lon="11.905785427006728"><ele>7.75</ele><time>2026-05-03T11:59:34.023Z</time></trkpt><trkpt lat="44.444738628950006" lon="11.90592779135899"><ele>7.5</ele><time>2026-05-03T11:59:35.023Z</time></trkpt><trkpt lat="44.44468004848704" lon="11.90607002817596"><ele>7.25</ele><time>2026-05-03T11:59:36.023Z</time></trkpt><trkpt lat="44.44462192009528" lon="11.90621085421287"><ele>7.0</ele><time>2026-05-03T11:59:37.023Z</time></trkpt><trkpt lat="44.44456204201533" lon="11.906356844953372"><ele>7.0</ele><time>2026-05-03T11:59:38.023Z</time></trkpt><trkpt lat="44.4445036035994" lon="11.906500428979385"><ele>7.0</ele><time>2026-05-03T11:59:39.023Z</time></trkpt><trkpt lat="44.44444421224083" lon="11.90664624948653"><ele>7.0</ele><time>2026-05-03T11:59:40.023Z</time></trkpt><trkpt lat="44.44438492833801" lon="11.906790124072984"><ele>7.0</ele><time>2026-05-03T11:59:41.023Z</time></trkpt><trkpt lat="44.444327399856526" lon="11.906931896929164"><ele>7.5</ele><time>2026-05-03T11:59:42.02Z</time></trkpt><trkpt lat="44.444270198826324" lon="11.90707245659478"><ele>8.0</ele><time>2026-05-03T11:59:43.02Z</time></trkpt><trkpt lat="44.44421271497996" lon="11.907210558235096"><ele>8.5</ele><time>2026-05-03T11:59:44.02Z</time></trkpt><trkpt lat="44.444156648856186" lon="11.907352493813251"><ele>9.0</ele><time>2026-05-03T11:59:45.019Z</time></trkpt><trkpt lat="44.44410064754417" lon="11.907496392659525"><ele>9.0</ele><time>2026-05-03T11:59:46.019Z</time></trkpt><trkpt lat="44.444045817948854" lon="11.90763485173601"><ele>9.0</ele><time>2026-05-03T11:59:47.019Z</time></trkpt><trkpt lat="44.443988258784074" lon="11.907769206543795"><ele>9.0</ele><time>2026-05-03T11:59:48.02Z</time></trkpt><trkpt lat="44.44393198798997" lon="11.907901728017402"><ele>9.0</ele><time>2026-05-03T11:59:49.019Z</time></trkpt><trkpt lat="44.44387954958726" lon="11.908025885126646"><ele>9.0</ele><time>2026-05-03T11:59:50.019Z</time></trkpt><trkpt lat="44.443828349304425" lon="11.90815190190824"><ele>9.0</ele><time>2026-05-03T11:59:51.02Z</time></trkpt><trkpt lat="44.443778038540124" lon="11.908270597256104"><ele>9.0</ele><time>2026-05-03T11:59:52.019Z</time></trkpt><trkpt lat="44.443729709276354" lon="11.908392664759454"><ele>9.0</ele><time>2026-05-03T11:59:53.019Z</time></trkpt><trkpt lat="44.44368185513095" lon="11.908513175645234"><ele>9.0</ele><time>2026-05-03T11:59:54.02Z</time></trkpt><trkpt lat="44.443632384164715" lon="11.908635724375332"><ele>9.0</ele><time>2026-05-03T11:59:55.019Z</time></trkpt><trkpt lat="44.44357966409716" lon="11.90875909283817"><ele>8.75</ele><time>2026-05-03T11:59:56.019Z</time></trkpt><trkpt lat="44.44352399059187" lon="11.90889096690783"><ele>8.5</ele><time>2026-05-03T11:59:57.019Z</time></trkpt><trkpt lat="44.44346498110916" lon="11.909030470111484"><ele>8.25</ele><time>2026-05-03T11:59:58.019Z</time></trkpt><trkpt lat="44.44340704211351" lon="11.909168870442269"><ele>8.0</ele><time>2026-05-03T11:59:59.019Z</time></trkpt><trkpt lat="44.443349136660366" lon="11.90930920181337"><ele>8.0</ele><time>2026-05-03T12:00:00.019Z</time></trkpt><trkpt lat="44.44329040762048" lon="11.909448875273883"><ele>8.0</ele><time>2026-05-03T12:00:01.019Z</time></trkpt><trkpt lat="44.443233354700105" lon="11.909587937589894"><ele>8.0</ele><time>2026-05-03T12:00:02.019Z</time></trkpt><trkpt lat="44.443176148486685" lon="11.909725236869265"><ele>8.0</ele><time>2026-05-03T12:00:03.019Z</time></trkpt><trkpt lat="44.44311725091556" lon="11.909863105655882"><ele>8.0</ele><time>2026-05-03T12:00:04.019Z</time></trkpt><trkpt lat="44.44305901051201" lon="11.90999741417771"><ele>8.0</ele><time>2026-05-03T12:00:05.02Z</time></trkpt><trkpt lat="44.44300165236376" lon="11.910136870910971"><ele>8.0</ele><time>2026-05-03T12:00:06.02Z</time></trkpt><trkpt lat="44.44295050080806" lon="11.910281204230666"><ele>8.0</ele><time>2026-05-03T12:00:07.02Z</time></trkpt><trkpt lat="44.44289992271285" lon="11.910431204563736"><ele>8.0</ele><time>2026-05-03T12:00:08.02Z</time></trkpt><trkpt lat="44.442847968695176" lon="11.910579136252183"><ele>8.0</ele><time>2026-05-03T12:00:09.02Z</time></trkpt><trkpt lat="44.4427957334721" lon="11.910727249168852"><ele>8.0</ele><time>2026-05-03T12:00:10.02Z</time></trkpt><trkpt lat="44.44274402007593" lon="11.910868039858272"><ele>8.0</ele><time>2026-05-03T12:00:11.02Z</time></trkpt><trkpt lat="44.44268961819484" lon="11.911010424298112"><ele>8.0</ele><time>2026-05-03T12:00:12.02Z</time></trkpt><trkpt lat="44.442630009883956" lon="11.91115155865967"><ele>8.0</ele><time>2026-05-03T12:00:13.02Z</time></trkpt><trkpt lat="44.44257034465172" lon="11.911289084451449"><ele>8.0</ele><time>2026-05-03T12:00:14.02Z</time></trkpt><trkpt lat="44.44250845468077" lon="11.911424570010066"><ele>8.0</ele><time>2026-05-03T12:00:15.02Z</time></trkpt><trkpt lat="44.442446103433575" lon="11.911561666852794"><ele>8.0</ele><time>2026-05-03T12:00:16.02Z</time></trkpt><trkpt lat="44.44238822554069" lon="11.91169773821576"><ele>8.0</ele><time>2026-05-03T12:00:17.02Z</time></trkpt><trkpt lat="44.442329118043745" lon="11.9118341073872"><ele>8.0</ele><time>2026-05-03T12:00:18.02Z</time></trkpt><trkpt lat="44.442271067002785" lon="11.911964885080925"><ele>8.0</ele><time>2026-05-03T12:00:19.02Z</time></trkpt><trkpt lat="44.442213487923745" lon="11.912101099989133"><ele>8.25</ele><time>2026-05-03T12:00:20.02Z</time></trkpt><trkpt lat="44.442153924816935" lon="11.912243831729635"><ele>8.5</ele><time>2026-05-03T12:00:21.02Z</time></trkpt><trkpt lat="44.442092138168526" lon="11.912384292804933"><ele>8.75</ele><time>2026-05-03T12:00:22.02Z</time></trkpt><trkpt lat="44.442030599437466" lon="11.912530988100384"><ele>9.0</ele><time>2026-05-03T12:00:23.02Z</time></trkpt><trkpt lat="44.44196848304215" lon="11.912679175388607"><ele>9.0</ele><time>2026-05-03T12:00:24.02Z</time></trkpt><trkpt lat="44.441904993400094" lon="11.912830783463459"><ele>9.0</ele><time>2026-05-03T12:00:25.02Z</time></trkpt><trkpt lat="44.44184100476646" lon="11.912983691084937"><ele>9.0</ele><time>2026-05-03T12:00:26.02Z</time></trkpt><trkpt lat="44.44177649260482" lon="11.913138657803572"><ele>9.0</ele><time>2026-05-03T12:00:27.02Z</time></trkpt><trkpt lat="44.44171279276587" lon="11.913293176730082"><ele>9.0</ele><time>2026-05-03T12:00:28.02Z</time></trkpt><trkpt lat="44.44165041016771" lon="11.91345099477521"><ele>9.0</ele><time>2026-05-03T12:00:29.02Z</time></trkpt><trkpt lat="44.44158859577392" lon="11.913607966493533"><ele>9.0</ele><time>2026-05-03T12:00:30.02Z</time></trkpt><trkpt lat="44.44152488099785" lon="11.913758743870725"><ele>9.0</ele><time>2026-05-03T12:00:31.02Z</time></trkpt><trkpt lat="44.441464780538006" lon="11.913905966181435"><ele>9.0</ele><time>2026-05-03T12:00:32.02Z</time></trkpt><trkpt lat="44.44140526973257" lon="11.914048149225803"><ele>9.0</ele><time>2026-05-03T12:00:33.02Z</time></trkpt><trkpt lat="44.441344397053996" lon="11.91419261568715"><ele>9.0</ele><time>2026-05-03T12:00:34.02Z</time></trkpt><trkpt lat="44.44128508656706" lon="11.914330895791807"><ele>9.0</ele><time>2026-05-03T12:00:35.02Z</time></trkpt><trkpt lat="44.44122646621185" lon="11.914468533741594"><ele>8.8</ele><time>2026-05-03T12:00:36.02Z</time></trkpt><trkpt lat="44.44116756453369" lon="11.91460419913257"><ele>8.600000000000001</ele><time>2026-05-03T12:00:37.02Z</time></trkpt><trkpt lat="44.44110981688497" lon="11.914737913664164"><ele>8.4</ele><time>2026-05-03T12:00:38.02Z</time></trkpt><trkpt lat="44.44105488821438" lon="11.91486777377351"><ele>8.200000000000001</ele><time>2026-05-03T12:00:39.02Z</time></trkpt><trkpt lat="44.44100013665146" lon="11.914996162761076"><ele>8.0</ele><time>2026-05-03T12:00:40.02Z</time></trkpt><trkpt lat="44.44094896281253" lon="11.915119975269345"><ele>7.999999999999999</ele><time>2026-05-03T12:00:41.02Z</time></trkpt><trkpt lat="44.440902932067175" lon="11.915229091784711"><ele>8.0</ele><time>2026-05-03T12:00:42.02Z</time></trkpt><trkpt lat="44.44086280788855" lon="11.915327476114419"><ele>8.0</ele><time>2026-05-03T12:00:43.02Z</time></trkpt><trkpt lat="44.440824474556514" lon="11.915421255419218"><ele>8.0</ele><time>2026-05-03T12:00:44.02Z</time></trkpt><trkpt lat="44.44078923446258" lon="11.915511243163065"><ele>7.999999999999999</ele><time>2026-05-03T12:00:45.021Z</time></trkpt><trkpt lat="44.440752658604595" lon="11.915600555563175"><ele>8.0</ele><time>2026-05-03T12:00:46.021Z</time></trkpt><trkpt lat="44.44071910380844" lon="11.915690479528864"><ele>8.0</ele><time>2026-05-03T12:00:47.021Z</time></trkpt><trkpt lat="44.44068601745082" lon="11.915772511968791"><ele>8.0</ele><time>2026-05-03T12:00:48.021Z</time></trkpt><trkpt lat="44.440626247541566" lon="11.915923157622348"><ele>8.0</ele><time>2026-05-03T12:00:50.021Z</time></trkpt><trkpt lat="44.44059664433762" lon="11.916001952206345"><ele>8.0</ele><time>2026-05-03T12:00:51.021Z</time></trkpt><trkpt lat="44.44057082412757" lon="11.916152374765069"><ele>8.0</ele><time>2026-05-03T12:00:53.021Z</time></trkpt><trkpt lat="44.44071084294226" lon="11.916196834391586"><ele>7.999999999999999</ele><time>2026-05-03T12:00:56.021Z</time></trkpt><trkpt lat="44.44081630515366" lon="11.916276756921647"><ele>8.0</ele><time>2026-05-03T12:00:58.021Z</time></trkpt><trkpt lat="44.44087890471079" lon="11.916326069172525"><ele>8.0</ele><time>2026-05-03T12:00:59.021Z</time></trkpt><trkpt lat="44.44094779136715" lon="11.916379369911564"><ele>8.0</ele><time>2026-05-03T12:01:00.021Z</time></trkpt><trkpt lat="44.44101994704413" lon="11.916431120737412"><ele>7.999999999999999</ele><time>2026-05-03T12:01:01.021Z</time></trkpt><trkpt lat="44.4410934112073" lon="11.916483509296977"><ele>8.0</ele><time>2026-05-03T12:01:02.021Z</time></trkpt><trkpt lat="44.44116801270945" lon="11.916539967346477"><ele>8.0</ele><time>2026-05-03T12:01:03.021Z</time></trkpt><trkpt lat="44.44124656932729" lon="11.916600616528038"><ele>8.0</ele><time>2026-05-03T12:01:04.021Z</time></trkpt><trkpt lat="44.4413305248299" lon="11.916665471606205"><ele>8.0</ele><time>2026-05-03T12:01:05.021Z</time></trkpt><trkpt lat="44.44142052094347" lon="11.916735943257084"><ele>8.0</ele><time>2026-05-03T12:01:06.021Z</time></trkpt><trkpt lat="44.441514557730535" lon="11.916809348171242"><ele>8.0</ele><time>2026-05-03T12:01:07.021Z</time></trkpt><trkpt lat="44.44161481938385" lon="11.91688810723459"><ele>8.0</ele><time>2026-05-03T12:01:08.021Z</time></trkpt><trkpt lat="44.44171049108901" lon="11.916964543858404"><ele>8.0</ele><time>2026-05-03T12:01:09.021Z</time></trkpt><trkpt lat="44.44180471270259" lon="11.917039270249251"><ele>8.0</ele><time>2026-05-03T12:01:10.021Z</time></trkpt><trkpt lat="44.441895029945805" lon="11.917111784984359"><ele>8.0</ele><time>2026-05-03T12:01:11.021Z</time></trkpt><trkpt lat="44.4419824276251" lon="11.91718634017363"><ele>8.0</ele><time>2026-05-03T12:01:12.021Z</time></trkpt><trkpt lat="44.442074955407264" lon="11.917256772069507"><ele>8.0</ele><time>2026-05-03T12:01:13.021Z</time></trkpt><trkpt lat="44.442165458698824" lon="11.917325675612492"><ele>8.0</ele><time>2026-05-03T12:01:14.021Z</time></trkpt><trkpt lat="44.442255802391514" lon="11.917397731874804"><ele>8.0</ele><time>2026-05-03T12:01:15.021Z</time></trkpt><trkpt lat="44.442341270908415" lon="11.917469719446977"><ele>8.0</ele><time>2026-05-03T12:01:16.021Z</time></trkpt><trkpt lat="44.44242950914403" lon="11.91754366294964"><ele>8.0</ele><time>2026-05-03T12:01:17.021Z</time></trkpt><trkpt lat="44.4425185956068" lon="11.917622651390728"><ele>7.6000000000000005</ele><time>2026-05-03T12:01:18.021Z</time></trkpt><trkpt lat="44.44260831626955" lon="11.917699393801417"><ele>7.200000000000001</ele><time>2026-05-03T12:01:19.021Z</time></trkpt><trkpt lat="44.44269542211389" lon="11.917774395439274"><ele>6.8</ele><time>2026-05-03T12:01:20.021Z</time></trkpt><trkpt lat="44.44278439105792" lon="11.917850977311314"><ele>6.4</ele><time>2026-05-03T12:01:21.021Z</time></trkpt><trkpt lat="44.44287270089848" lon="11.9179242600183"><ele>6.0</ele><time>2026-05-03T12:01:22.021Z</time></trkpt><trkpt lat="44.44296120138329" lon="11.917998242897607"><ele>6.199999999999999</ele><time>2026-05-03T12:01:23.021Z</time></trkpt><trkpt lat="44.443049024707534" lon="11.918073669344261"><ele>6.3999999999999995</ele><time>2026-05-03T12:01:24.021Z</time></trkpt><trkpt lat="44.44313677671369" lon="11.918145035798162"><ele>6.6</ele><time>2026-05-03T12:01:25.021Z</time></trkpt><trkpt lat="44.44322898526699" lon="11.918218581266737"><ele>6.8</ele><time>2026-05-03T12:01:26.022Z</time></trkpt><trkpt lat="44.443324718421884" lon="11.918292342939703"><ele>7.0</ele><time>2026-05-03T12:01:27.022Z</time></trkpt><trkpt lat="44.44342352313284" lon="11.918369429249926"><ele>7.0</ele><time>2026-05-03T12:01:28.022Z</time></trkpt><trkpt lat="44.44351898697333" lon="11.918442086439136"><ele>6.999999999999999</ele><time>2026-05-03T12:01:29.022Z</time></trkpt><trkpt lat="44.4436157391129" lon="11.91851708608215"><ele>6.999999999999999</ele><time>2026-05-03T12:01:30.022Z</time></trkpt><trkpt lat="44.44371736280719" lon="11.918592296237192"><ele>7.0</ele><time>2026-05-03T12:01:31.022Z</time></trkpt><trkpt lat="44.44381671494536" lon="11.918665016216439"><ele>7.0</ele><time>2026-05-03T12:01:32.022Z</time></trkpt><trkpt lat="44.44391466520852" lon="11.918738149122511"><ele>7.199999999999999</ele><time>2026-05-03T12:01:33.022Z</time></trkpt><trkpt lat="44.44401025484278" lon="11.918806985380725"><ele>7.3999999999999995</ele><time>2026-05-03T12:01:34.022Z</time></trkpt><trkpt lat="44.444104115721174" lon="11.91887380183953"><ele>7.6000000000000005</ele><time>2026-05-03T12:01:35.022Z</time></trkpt><trkpt lat="44.444200942739116" lon="11.918944084019012"><ele>7.800000000000001</ele><time>2026-05-03T12:01:36.022Z</time></trkpt><trkpt lat="44.44429616776965" lon="11.919016332667278"><ele>8.0</ele><time>2026-05-03T12:01:37.022Z</time></trkpt><trkpt lat="44.44439196363748" lon="11.919088015858534"><ele>8.0</ele><time>2026-05-03T12:01:38.022Z</time></trkpt><trkpt lat="44.444485521386056" lon="11.91915819719882"><ele>8.0</ele><time>2026-05-03T12:01:39.022Z</time></trkpt><trkpt lat="44.44457954085907" lon="11.919229952023837"><ele>8.0</ele><time>2026-05-03T12:01:40.022Z</time></trkpt><trkpt lat="44.44467582924153" lon="11.919303986042486"><ele>8.0</ele><time>2026-05-03T12:01:41.022Z</time></trkpt><trkpt lat="44.4447744240104" lon="11.919381553618624"><ele>8.0</ele><time>2026-05-03T12:01:42.022Z</time></trkpt><trkpt lat="44.444874341540036" lon="11.919459356894569"><ele>8.25</ele><time>2026-05-03T12:01:43.022Z</time></trkpt><trkpt lat="44.44497289981927" lon="11.919538194916973"><ele>8.5</ele><time>2026-05-03T12:01:44.022Z</time></trkpt><trkpt lat="44.44506976470545" lon="11.919617823178658"><ele>8.75</ele><time>2026-05-03T12:01:45.022Z</time></trkpt><trkpt lat="44.44516872033593" lon="11.919695533479173"><ele>9.0</ele><time>2026-05-03T12:01:46.022Z</time></trkpt><trkpt lat="44.4452685204256" lon="11.919771399318874"><ele>9.0</ele><time>2026-05-03T12:01:47.022Z</time></trkpt><trkpt lat="44.445363184907386" lon="11.919843225094393"><ele>9.0</ele><time>2026-05-03T12:01:48.019Z</time></trkpt><trkpt lat="44.44545735956381" lon="11.919914144012848"><ele>9.0</ele><time>2026-05-03T12:01:49.019Z</time></trkpt><trkpt lat="44.44554987300156" lon="11.919980333435797"><ele>9.0</ele><time>2026-05-03T12:01:50.019Z</time></trkpt><trkpt lat="44.445640690565625" lon="11.92004748947661"><ele>9.0</ele><time>2026-05-03T12:01:51.019Z</time></trkpt><trkpt lat="44.44573271103836" lon="11.920116008933674"><ele>9.4</ele><time>2026-05-03T12:01:52.019Z</time></trkpt><trkpt lat="44.44583023940518" lon="11.920179389667641"><ele>9.8</ele><time>2026-05-03T12:01:53.019Z</time></trkpt><trkpt lat="44.44592732233527" lon="11.920246220525318"><ele>10.200000000000001</ele><time>2026-05-03T12:01:54.019Z</time></trkpt><trkpt lat="44.44602709541168" lon="11.920315699428329"><ele>10.600000000000001</ele><time>2026-05-03T12:01:55.019Z</time></trkpt><trkpt lat="44.44612577375216" lon="11.920387025609669"><ele>11.0</ele><time>2026-05-03T12:01:56.019Z</time></trkpt><trkpt lat="44.446225740338875" lon="11.92046918791347"><ele>10.0</ele><time>2026-05-03T12:01:57.019Z</time></trkpt><trkpt lat="44.44632679151572" lon="11.92054740062626"><ele>9.0</ele><time>2026-05-03T12:01:58.019Z</time></trkpt><trkpt lat="44.44643212022325" lon="11.920627899294942"><ele>8.0</ele><time>2026-05-03T12:01:59.019Z</time></trkpt><trkpt lat="44.446534288225735" lon="11.920705059104181"><ele>7.0</ele><time>2026-05-03T12:02:00.019Z</time></trkpt><trkpt lat="44.446633789759154" lon="11.92079345275372"><ele>7.0</ele><time>2026-05-03T12:02:01.019Z</time></trkpt><trkpt lat="44.4467341933396" lon="11.920871312374047"><ele>7.0</ele><time>2026-05-03T12:02:02.019Z</time></trkpt><trkpt lat="44.44683126012113" lon="11.920946421395927"><ele>7.0</ele><time>2026-05-03T12:02:03.019Z</time></trkpt><trkpt lat="44.44692992443595" lon="11.921026127777452"><ele>7.0</ele><time>2026-05-03T12:02:04.019Z</time></trkpt><trkpt lat="44.44702936740968" lon="11.921108289920559"><ele>7.199999999999999</ele><time>2026-05-03T12:02:05.019Z</time></trkpt><trkpt lat="44.44712823323467" lon="11.921188128520022"><ele>7.3999999999999995</ele><time>2026-05-03T12:02:06.019Z</time></trkpt><trkpt lat="44.44722559353058" lon="11.921265386258076"><ele>7.6000000000000005</ele><time>2026-05-03T12:02:07.019Z</time></trkpt><trkpt lat="44.44732243410495" lon="11.921338727579858"><ele>7.800000000000001</ele><time>2026-05-03T12:02:08.02Z</time></trkpt><trkpt lat="44.44742213532173" lon="11.921405944193085"><ele>8.0</ele><time>2026-05-03T12:02:09.02Z</time></trkpt><trkpt lat="44.44751812958901" lon="11.92147415101682"><ele>8.0</ele><time>2026-05-03T12:02:10.02Z</time></trkpt><trkpt lat="44.44761384994245" lon="11.921538764865277"><ele>8.0</ele><time>2026-05-03T12:02:11.02Z</time></trkpt><trkpt lat="44.447708898408855" lon="11.921604013923426"><ele>8.0</ele><time>2026-05-03T12:02:12.02Z</time></trkpt><trkpt lat="44.44780121404161" lon="11.921672978277927"><ele>8.0</ele><time>2026-05-03T12:02:13.02Z</time></trkpt><trkpt lat="44.447893404387045" lon="11.921740444015782"><ele>8.0</ele><time>2026-05-03T12:02:14.02Z</time></trkpt><trkpt lat="44.44798688005241" lon="11.921807673722556"><ele>8.0</ele><time>2026-05-03T12:02:15.02Z</time></trkpt><trkpt lat="44.44808206146735" lon="11.921874209921278"><ele>8.0</ele><time>2026-05-03T12:02:16.02Z</time></trkpt><trkpt lat="44.44817638550643" lon="11.92194336940918"><ele>8.0</ele><time>2026-05-03T12:02:17.02Z</time></trkpt><trkpt lat="44.44826954729209" lon="11.922013965048711"><ele>8.0</ele><time>2026-05-03T12:02:18.02Z</time></trkpt><trkpt lat="44.448363164312404" lon="11.922087933693374"><ele>8.0</ele><time>2026-05-03T12:02:19.02Z</time></trkpt><trkpt lat="44.44845504303382" lon="11.922157088491879"><ele>8.0</ele><time>2026-05-03T12:02:20.02Z</time></trkpt><trkpt lat="44.44854685786392" lon="11.922227188500672"><ele>8.0</ele><time>2026-05-03T12:02:21.02Z</time></trkpt><trkpt lat="44.44863790819712" lon="11.922294740339687"><ele>8.0</ele><time>2026-05-03T12:02:22.02Z</time></trkpt><trkpt lat="44.44873364243879" lon="11.922361917002206"><ele>8.0</ele><time>2026-05-03T12:02:23.02Z</time></trkpt><trkpt lat="44.4488214635283" lon="11.922429659962729"><ele>8.0</ele><time>2026-05-03T12:02:24.02Z</time></trkpt><trkpt lat="44.448911992903554" lon="11.922499270248519"><ele>7.800000000000001</ele><time>2026-05-03T12:02:25.02Z</time></trkpt><trkpt lat="44.44899837060156" lon="11.922574084786387"><ele>7.6000000000000005</ele><time>2026-05-03T12:02:26.02Z</time></trkpt><trkpt lat="44.44908791646896" lon="11.922639335502353"><ele>7.3999999999999995</ele><time>2026-05-03T12:02:27.02Z</time></trkpt><trkpt lat="44.449180976552526" lon="11.922713813585116"><ele>7.199999999999999</ele><time>2026-05-03T12:02:28.02Z</time></trkpt><trkpt lat="44.449273048477934" lon="11.922790592851294"><ele>7.0</ele><time>2026-05-03T12:02:29.02Z</time></trkpt><trkpt lat="44.4493625249175" lon="11.922867700299731"><ele>7.0</ele><time>2026-05-03T12:02:30.02Z</time></trkpt><trkpt lat="44.44945523365401" lon="11.922944422640207"><ele>6.999999999999999</ele><time>2026-05-03T12:02:31.02Z</time></trkpt><trkpt lat="44.449548699898706" lon="11.923023193176032"><ele>6.999999999999999</ele><time>2026-05-03T12:02:32.02Z</time></trkpt><trkpt lat="44.44964336730317" lon="11.923100586351634"><ele>7.0</ele><time>2026-05-03T12:02:33.02Z</time></trkpt><trkpt lat="44.44974249867118" lon="11.923177293402915"><ele>7.0</ele><time>2026-05-03T12:02:34.02Z</time></trkpt><trkpt lat="44.44983995244887" lon="11.923250455259762"><ele>7.25</ele><time>2026-05-03T12:02:35.02Z</time></trkpt><trkpt lat="44.44994319257134" lon="11.923321975249156"><ele>7.5</ele><time>2026-05-03T12:02:36.02Z</time></trkpt><trkpt lat="44.450050225890266" lon="11.923392085914989"><ele>7.75</ele><time>2026-05-03T12:02:37.02Z</time></trkpt><trkpt lat="44.450157969932526" lon="11.923463548225794"><ele>8.0</ele><time>2026-05-03T12:02:38.02Z</time></trkpt><trkpt lat="44.45026321678841" lon="11.923539587466538"><ele>8.0</ele><time>2026-05-03T12:02:39.02Z</time></trkpt><trkpt lat="44.450370144347154" lon="11.9236190390041"><ele>8.0</ele><time>2026-05-03T12:02:40.02Z</time></trkpt><trkpt lat="44.450474396034956" lon="11.923700736763003"><ele>8.0</ele><time>2026-05-03T12:02:41.02Z</time></trkpt><trkpt lat="44.45057926089583" lon="11.923788693204864"><ele>8.0</ele><time>2026-05-03T12:02:42.02Z</time></trkpt><trkpt lat="44.450679043081536" lon="11.923874415025118"><ele>8.0</ele><time>2026-05-03T12:02:43.02Z</time></trkpt><trkpt lat="44.45078201653046" lon="11.923961426292008"><ele>8.0</ele><time>2026-05-03T12:02:44.02Z</time></trkpt><trkpt lat="44.45088256343831" lon="11.92404191298726"><ele>8.0</ele><time>2026-05-03T12:02:45.02Z</time></trkpt><trkpt lat="44.45097122441034" lon="11.92411567386982"><ele>8.0</ele><time>2026-05-03T12:02:46.02Z</time></trkpt><trkpt lat="44.45105153918003" lon="11.924190160492532"><ele>8.0</ele><time>2026-05-03T12:02:47.02Z</time></trkpt><trkpt lat="44.45112927277639" lon="11.924258099016019"><ele>8.333333333333332</ele><time>2026-05-03T12:02:48.021Z</time></trkpt><trkpt lat="44.45120632562655" lon="11.92433330900113"><ele>8.666666666666666</ele><time>2026-05-03T12:02:49.021Z</time></trkpt><trkpt lat="44.451280683261096" lon="11.924396272294416"><ele>9.0</ele><time>2026-05-03T12:02:50.021Z</time></trkpt><trkpt lat="44.451345091771664" lon="11.924455546271629"><ele>9.333333333333334</ele><time>2026-05-03T12:02:51.021Z</time></trkpt><trkpt lat="44.451405089727196" lon="11.92450491957815"><ele>9.666666666666668</ele><time>2026-05-03T12:02:52.021Z</time></trkpt><trkpt lat="44.451501303763074" lon="11.924582661122322"><ele>10.0</ele><time>2026-05-03T12:02:54.021Z</time></trkpt><trkpt lat="44.451554343023915" lon="11.924648347676778"><ele>10.0</ele><time>2026-05-03T12:02:56.021Z</time></trkpt><trkpt lat="44.451601450167246" lon="11.924708364624724"><ele>10.0</ele><time>2026-05-03T12:03:00.021Z</time></trkpt><trkpt lat="44.451654757413046" lon="11.924774382688415"><ele>10.0</ele><time>2026-05-03T12:03:02.021Z</time></trkpt><trkpt lat="44.4517362084487" lon="11.924854211637262"><ele>10.0</ele><time>2026-05-03T12:03:04.021Z</time></trkpt><trkpt lat="44.4517936197964" lon="11.924899881694026"><ele>10.0</ele><time>2026-05-03T12:03:05.021Z</time></trkpt><trkpt lat="44.451859186846875" lon="11.924950398423512"><ele>10.0</ele><time>2026-05-03T12:03:06.021Z</time></trkpt><trkpt lat="44.451930015681725" lon="11.925004115503596"><ele>10.0</ele><time>2026-05-03T12:03:07.021Z</time></trkpt><trkpt lat="44.45200152683686" lon="11.925058349886728"><ele>10.0</ele><time>2026-05-03T12:03:08.021Z</time></trkpt><trkpt lat="44.45207760601649" lon="11.925116048713038"><ele>10.0</ele><time>2026-05-03T12:03:09.021Z</time></trkpt><trkpt lat="44.45215306473929" lon="11.925173276879413"><ele>10.0</ele><time>2026-05-03T12:03:10.021Z</time></trkpt><trkpt lat="44.452237158269064" lon="11.925237794837052"><ele>10.0</ele><time>2026-05-03T12:03:11.021Z</time></trkpt><trkpt lat="44.45232593444174" lon="11.925306288475552"><ele>9.8</ele><time>2026-05-03T12:03:12.021Z</time></trkpt><trkpt lat="44.45241795411362" lon="11.925377653626976"><ele>9.6</ele><time>2026-05-03T12:03:13.021Z</time></trkpt><trkpt lat="44.45251227153356" lon="11.925451011602892"><ele>9.4</ele><time>2026-05-03T12:03:14.021Z</time></trkpt><trkpt lat="44.452602307295244" lon="11.925544496679423"><ele>9.2</ele><time>2026-05-03T12:03:15.021Z</time></trkpt><trkpt lat="44.45271116695081" lon="11.925602335906234"><ele>9.0</ele><time>2026-05-03T12:03:16.021Z</time></trkpt><trkpt lat="44.45281073363001" lon="11.925679187969303"><ele>9.0</ele><time>2026-05-03T12:03:17.021Z</time></trkpt><trkpt lat="44.45290769462369" lon="11.925754695403755"><ele>9.0</ele><time>2026-05-03T12:03:18.021Z</time></trkpt><trkpt lat="44.453003900574615" lon="11.925831252338059"><ele>9.0</ele><time>2026-05-03T12:03:19.021Z</time></trkpt><trkpt lat="44.4530906775906" lon="11.92590062813892"><ele>9.0</ele><time>2026-05-03T12:03:20.021Z</time></trkpt><trkpt lat="44.45316982084926" lon="11.925964821494365"><ele>9.0</ele><time>2026-05-03T12:03:21.021Z</time></trkpt><trkpt lat="44.453243408708666" lon="11.926027321254224"><ele>8.8</ele><time>2026-05-03T12:03:22.021Z</time></trkpt><trkpt lat="44.45331700749072" lon="11.926086212843208"><ele>8.600000000000001</ele><time>2026-05-03T12:03:23.021Z</time></trkpt><trkpt lat="44.45339671996549" lon="11.926143919411032"><ele>8.4</ele><time>2026-05-03T12:03:24.021Z</time></trkpt><trkpt lat="44.45347834716774" lon="11.926210386111233"><ele>8.200000000000001</ele><time>2026-05-03T12:03:25.021Z</time></trkpt><trkpt lat="44.453565835743255" lon="11.926276830602928"><ele>8.0</ele><time>2026-05-03T12:03:26.021Z</time></trkpt><trkpt lat="44.45365664713022" lon="11.926347446581856"><ele>8.0</ele><time>2026-05-03T12:03:27.021Z</time></trkpt><trkpt lat="44.453752402462214" lon="11.926421575709337"><ele>8.0</ele><time>2026-05-03T12:03:28.021Z</time></trkpt><trkpt lat="44.45385302385161" lon="11.926498491319915"><ele>8.0</ele><time>2026-05-03T12:03:29.022Z</time></trkpt><trkpt lat="44.453955093859086" lon="11.926577170459614"><ele>8.0</ele><time>2026-05-03T12:03:30.022Z</time></trkpt><trkpt lat="44.45405628592388" lon="11.926658645748827"><ele>7.5</ele><time>2026-05-03T12:03:31.022Z</time></trkpt><trkpt lat="44.45415659308827" lon="11.926739206978912"><ele>7.0</ele><time>2026-05-03T12:03:32.022Z</time></trkpt><trkpt lat="44.454257113075556" lon="11.926817134721057"><ele>6.5</ele><time>2026-05-03T12:03:33.022Z</time></trkpt><trkpt lat="44.45435992494813" lon="11.926893979683584"><ele>6.0</ele><time>2026-05-03T12:03:34.022Z</time></trkpt><trkpt lat="44.45446302841981" lon="11.926969807599614"><ele>6.0</ele><time>2026-05-03T12:03:35.022Z</time></trkpt><trkpt lat="44.45457219122223" lon="11.92704136223842"><ele>6.0</ele><time>2026-05-03T12:03:36.022Z</time></trkpt><trkpt lat="44.45468740313717" lon="11.927115938430676"><ele>6.0</ele><time>2026-05-03T12:03:37.022Z</time></trkpt><trkpt lat="44.4548048579501" lon="11.9271870668835"><ele>6.0</ele><time>2026-05-03T12:03:38.022Z</time></trkpt><trkpt lat="44.45492688304596" lon="11.927265331307806"><ele>6.0</ele><time>2026-05-03T12:03:39.022Z</time></trkpt><trkpt lat="44.45505011275603" lon="11.927334736684069"><ele>6.0</ele><time>2026-05-03T12:03:40.022Z</time></trkpt><trkpt lat="44.455178978804724" lon="11.92741068552304"><ele>6.0</ele><time>2026-05-03T12:03:41.022Z</time></trkpt><trkpt lat="44.45530772585288" lon="11.927482075668761"><ele>6.0</ele><time>2026-05-03T12:03:42.022Z</time></trkpt><trkpt lat="44.455438667270116" lon="11.927552400379298"><ele>6.5</ele><time>2026-05-03T12:03:43.022Z</time></trkpt><trkpt lat="44.45556912644348" lon="11.92762333782937"><ele>7.0</ele><time>2026-05-03T12:03:44.022Z</time></trkpt><trkpt lat="44.45569170103673" lon="11.927708702775405"><ele>7.5</ele><time>2026-05-03T12:03:45.022Z</time></trkpt><trkpt lat="44.455808461086406" lon="11.927802486541607"><ele>8.0</ele><time>2026-05-03T12:03:46.022Z</time></trkpt><trkpt lat="44.45591076300143" lon="11.92790689201326"><ele>8.0</ele><time>2026-05-03T12:03:47.022Z</time></trkpt><trkpt lat="44.45600793833105" lon="11.928014917344186"><ele>8.0</ele><time>2026-05-03T12:03:48.022Z</time></trkpt><trkpt lat="44.45611156155534" lon="11.928123212120536"><ele>8.0</ele><time>2026-05-03T12:03:49.022Z</time></trkpt><trkpt lat="44.456219095857925" lon="11.928225476637959"><ele>8.0</ele><time>2026-05-03T12:03:50.022Z</time></trkpt><trkpt lat="44.45633412801908" lon="11.928319922003064"><ele>8.0</ele><time>2026-05-03T12:03:51.022Z</time></trkpt><trkpt lat="44.4564528784926" lon="11.928409454360112"><ele>8.0</ele><time>2026-05-03T12:03:52.022Z</time></trkpt><trkpt lat="44.456569366179394" lon="11.928496693503424"><ele>8.0</ele><time>2026-05-03T12:03:53.022Z</time></trkpt><trkpt lat="44.45668195068156" lon="11.928583703185172"><ele>8.0</ele><time>2026-05-03T12:03:54.019Z</time></trkpt><trkpt lat="44.45678967634611" lon="11.928673177465996"><ele>8.0</ele><time>2026-05-03T12:03:55.019Z</time></trkpt><trkpt lat="44.456899178750476" lon="11.928763614846863"><ele>8.0</ele><time>2026-05-03T12:03:56.019Z</time></trkpt><trkpt lat="44.45700568500402" lon="11.928854415946219"><ele>8.0</ele><time>2026-05-03T12:03:57.018Z</time></trkpt><trkpt lat="44.457112298779634" lon="11.928946101373645"><ele>8.0</ele><time>2026-05-03T12:03:58.018Z</time></trkpt><trkpt lat="44.45721662212856" lon="11.92903790654492"><ele>7.75</ele><time>2026-05-03T12:03:59.018Z</time></trkpt><trkpt lat="44.45732368800513" lon="11.929119014636418"><ele>7.5</ele><time>2026-05-03T12:04:00.019Z</time></trkpt><trkpt lat="44.457431551207726" lon="11.929195231418946"><ele>7.25</ele><time>2026-05-03T12:04:01.018Z</time></trkpt><trkpt lat="44.45754412355012" lon="11.929271022506356"><ele>7.0</ele><time>2026-05-03T12:04:02.018Z</time></trkpt><trkpt lat="44.45765757446224" lon="11.929341627226766"><ele>7.0</ele><time>2026-05-03T12:04:03.018Z</time></trkpt><trkpt lat="44.45777276047133" lon="11.92941537731962"><ele>7.0</ele><time>2026-05-03T12:04:04.018Z</time></trkpt><trkpt lat="44.45789091163931" lon="11.929492302556032"><ele>7.0</ele><time>2026-05-03T12:04:05.018Z</time></trkpt><trkpt lat="44.4580121962965" lon="11.929570970886495"><ele>7.0</ele><time>2026-05-03T12:04:06.018Z</time></trkpt><trkpt lat="44.458125585833535" lon="11.929654106040603"><ele>7.0</ele><time>2026-05-03T12:04:07.018Z</time></trkpt><trkpt lat="44.45823537135608" lon="11.929747016315456"><ele>7.0</ele><time>2026-05-03T12:04:08.018Z</time></trkpt><trkpt lat="44.458337775211426" lon="11.929847684684207"><ele>7.0</ele><time>2026-05-03T12:04:09.018Z</time></trkpt><trkpt lat="44.45843989551829" lon="11.92995165304456"><ele>7.0</ele><time>2026-05-03T12:04:10.018Z</time></trkpt><trkpt lat="44.45854108542085" lon="11.930060227131776"><ele>7.0</ele><time>2026-05-03T12:04:11.018Z</time></trkpt><trkpt lat="44.458640873893295" lon="11.930167942104719"><ele>7.0</ele><time>2026-05-03T12:04:12.018Z</time></trkpt><trkpt lat="44.45873790545588" lon="11.930273710646793"><ele>7.0</ele><time>2026-05-03T12:04:13.018Z</time></trkpt><trkpt lat="44.45883701163412" lon="11.930377679745192"><ele>7.0</ele><time>2026-05-03T12:04:14.018Z</time></trkpt><trkpt lat="44.458933239205884" lon="11.93048061616502"><ele>7.25</ele><time>2026-05-03T12:04:15.018Z</time></trkpt><trkpt lat="44.459024523251244" lon="11.930585581645545"><ele>7.5</ele><time>2026-05-03T12:04:16.018Z</time></trkpt><trkpt lat="44.45911397460769" lon="11.930686228835395"><ele>7.75</ele><time>2026-05-03T12:04:17.018Z</time></trkpt><trkpt lat="44.45920144325705" lon="11.930784113640549"><ele>8.0</ele><time>2026-05-03T12:04:18.018Z</time></trkpt><trkpt lat="44.45928669513053" lon="11.930884638784224"><ele>8.0</ele><time>2026-05-03T12:04:19.018Z</time></trkpt><trkpt lat="44.45936838949163" lon="11.93098381603827"><ele>8.0</ele><time>2026-05-03T12:04:20.018Z</time></trkpt><trkpt lat="44.459453763380786" lon="11.931065822396631"><ele>8.0</ele><time>2026-05-03T12:04:21.018Z</time></trkpt><trkpt lat="44.45954759581636" lon="11.931136975589649"><ele>8.0</ele><time>2026-05-03T12:04:22.018Z</time></trkpt><trkpt lat="44.45964350522816" lon="11.931206427277933"><ele>8.0</ele><time>2026-05-03T12:04:23.018Z</time></trkpt><trkpt lat="44.45974267641124" lon="11.931280336426346"><ele>8.0</ele><time>2026-05-03T12:04:24.018Z</time></trkpt><trkpt lat="44.459843066316225" lon="11.931355451455705"><ele>8.0</ele><time>2026-05-03T12:04:25.018Z</time></trkpt><trkpt lat="44.45994515200463" lon="11.931425026942186"><ele>8.0</ele><time>2026-05-03T12:04:26.018Z</time></trkpt><trkpt lat="44.46005029013888" lon="11.931491813568034"><ele>8.0</ele><time>2026-05-03T12:04:27.019Z</time></trkpt><trkpt lat="44.460154080395" lon="11.931566451663766"><ele>8.0</ele><time>2026-05-03T12:04:28.019Z</time></trkpt><trkpt lat="44.46026597930746" lon="11.93163191409362"><ele>8.0</ele><time>2026-05-03T12:04:29.019Z</time></trkpt><trkpt lat="44.46037813867066" lon="11.931695099527722"><ele>8.0</ele><time>2026-05-03T12:04:30.019Z</time></trkpt><trkpt lat="44.46049326790715" lon="11.931761062752479"><ele>8.0</ele><time>2026-05-03T12:04:31.019Z</time></trkpt><trkpt lat="44.460608353989215" lon="11.931828353633547"><ele>7.5</ele><time>2026-05-03T12:04:32.019Z</time></trkpt><trkpt lat="44.46072310103989" lon="11.931898347000658"><ele>7.0</ele><time>2026-05-03T12:04:33.019Z</time></trkpt><trkpt lat="44.46083461467404" lon="11.931972585283113"><ele>6.5</ele><time>2026-05-03T12:04:34.019Z</time></trkpt><trkpt lat="44.460943703363405" lon="11.93204338205204"><ele>6.0</ele><time>2026-05-03T12:04:35.019Z</time></trkpt><trkpt lat="44.46104967355567" lon="11.93211594723554"><ele>6.0</ele><time>2026-05-03T12:04:36.019Z</time></trkpt><trkpt lat="44.46115406649997" lon="11.932185886960307"><ele>6.0</ele><time>2026-05-03T12:04:37.019Z</time></trkpt><trkpt lat="44.46125753085356" lon="11.932257669085649"><ele>6.0</ele><time>2026-05-03T12:04:38.019Z</time></trkpt><trkpt lat="44.461359563875725" lon="11.932330643720347"><ele>6.0</ele><time>2026-05-03T12:04:39.019Z</time></trkpt><trkpt lat="44.46145882282098" lon="11.932405603539998"><ele>5.8</ele><time>2026-05-03T12:04:40.019Z</time></trkpt><trkpt lat="44.461554465065966" lon="11.932480029655707"><ele>5.6</ele><time>2026-05-03T12:04:41.019Z</time></trkpt><trkpt lat="44.46164635487349" lon="11.932551514209813"><ele>5.4</ele><time>2026-05-03T12:04:42.019Z</time></trkpt><trkpt lat="44.46174698722422" lon="11.932621992527963"><ele>5.2</ele><time>2026-05-03T12:04:43.019Z</time></trkpt><trkpt lat="44.46184464344636" lon="11.932687805807497"><ele>5.0</ele><time>2026-05-03T12:04:44.019Z</time></trkpt><trkpt lat="44.4619429067374" lon="11.932759654830909"><ele>5.0</ele><time>2026-05-03T12:04:45.019Z</time></trkpt><trkpt lat="44.462042819202615" lon="11.93283319966712"><ele>5.0</ele><time>2026-05-03T12:04:46.019Z</time></trkpt><trkpt lat="44.46214329648498" lon="11.932902108979373"><ele>5.0</ele><time>2026-05-03T12:04:47.019Z</time></trkpt><trkpt lat="44.46224435208567" lon="11.932971235721702"><ele>5.0</ele><time>2026-05-03T12:04:48.019Z</time></trkpt><trkpt lat="44.46234242593134" lon="11.933041023688421"><ele>5.0</ele><time>2026-05-03T12:04:49.019Z</time></trkpt><trkpt lat="44.462439479924406" lon="11.93310754768904"><ele>5.0</ele><time>2026-05-03T12:04:50.019Z</time></trkpt><trkpt lat="44.462533413140214" lon="11.933172889171233"><ele>5.0</ele><time>2026-05-03T12:04:51.019Z</time></trkpt><trkpt lat="44.462626080407574" lon="11.93323395591385"><ele>5.0</ele><time>2026-05-03T12:04:52.019Z</time></trkpt><trkpt lat="44.462719214884636" lon="11.933284234351902"><ele>5.0</ele><time>2026-05-03T12:04:53.019Z</time></trkpt><trkpt lat="44.46280702791241" lon="11.93332867269789"><ele>5.0</ele><time>2026-05-03T12:04:54.019Z</time></trkpt><trkpt lat="44.46289065589599" lon="11.93337729982348"><ele>5.2</ele><time>2026-05-03T12:04:55.019Z</time></trkpt><trkpt lat="44.4629730984885" lon="11.933437068917337"><ele>5.4</ele><time>2026-05-03T12:04:56.019Z</time></trkpt><trkpt lat="44.46304931941991" lon="11.93349721953193"><ele>5.6</ele><time>2026-05-03T12:04:57.019Z</time></trkpt><trkpt lat="44.46312975950729" lon="11.933560128426485"><ele>5.8</ele><time>2026-05-03T12:04:58.019Z</time></trkpt><trkpt lat="44.46321091291403" lon="11.933627771588982"><ele>6.0</ele><time>2026-05-03T12:04:59.019Z</time></trkpt><trkpt lat="44.463293951415395" lon="11.933693966955305"><ele>6.0</ele><time>2026-05-03T12:05:00.019Z</time></trkpt><trkpt lat="44.463373772827204" lon="11.933761310005439"><ele>6.0</ele><time>2026-05-03T12:05:01.019Z</time></trkpt><trkpt lat="44.463455914286726" lon="11.933831323470937"><ele>6.0</ele><time>2026-05-03T12:05:02.019Z</time></trkpt><trkpt lat="44.4635384989115" lon="11.933900576801943"><ele>6.0</ele><time>2026-05-03T12:05:03.019Z</time></trkpt><trkpt lat="44.46362572017522" lon="11.933969458945553"><ele>6.0</ele><time>2026-05-03T12:05:04.019Z</time></trkpt><trkpt lat="44.46371453095258" lon="11.934042082978442"><ele>6.0</ele><time>2026-05-03T12:05:05.019Z</time></trkpt><trkpt lat="44.46380409820234" lon="11.934117628825957"><ele>6.0</ele><time>2026-05-03T12:05:06.019Z</time></trkpt><trkpt lat="44.46389803647387" lon="11.934195386153421"><ele>6.0</ele><time>2026-05-03T12:05:07.02Z</time></trkpt><trkpt lat="44.46399370376205" lon="11.934273445032462"><ele>6.0</ele><time>2026-05-03T12:05:08.02Z</time></trkpt><trkpt lat="44.464093087906484" lon="11.934352683479277"><ele>6.0</ele><time>2026-05-03T12:05:09.02Z</time></trkpt><trkpt lat="44.464190836900165" lon="11.934435240858937"><ele>6.0</ele><time>2026-05-03T12:05:10.02Z</time></trkpt><trkpt lat="44.46429062837928" lon="11.934518032492392"><ele>6.0</ele><time>2026-05-03T12:05:11.02Z</time></trkpt><trkpt lat="44.46439213610518" lon="11.934600675613263"><ele>6.0</ele><time>2026-05-03T12:05:12.02Z</time></trkpt><trkpt lat="44.464494481529705" lon="11.934688331362587"><ele>6.0</ele><time>2026-05-03T12:05:13.02Z</time></trkpt><trkpt lat="44.46459709441812" lon="11.934771291914887"><ele>6.0</ele><time>2026-05-03T12:05:14.02Z</time></trkpt><trkpt lat="44.464701641226334" lon="11.9348543739693"><ele>6.0</ele><time>2026-05-03T12:05:15.02Z</time></trkpt><trkpt lat="44.46480592016247" lon="11.934936393022141"><ele>6.0</ele><time>2026-05-03T12:05:16.02Z</time></trkpt><trkpt lat="44.46490919940873" lon="11.93501890240768"><ele>6.0</ele><time>2026-05-03T12:05:17.02Z</time></trkpt><trkpt lat="44.46501300491114" lon="11.93510058305456"><ele>5.75</ele><time>2026-05-03T12:05:18.02Z</time></trkpt><trkpt lat="44.465115532415794" lon="11.935180333861982"><ele>5.5</ele><time>2026-05-03T12:05:19.02Z</time></trkpt><trkpt lat="44.465219123771384" lon="11.935265929270013"><ele>5.25</ele><time>2026-05-03T12:05:20.02Z</time></trkpt><trkpt lat="44.465319442721224" lon="11.935341670035461"><ele>5.0</ele><time>2026-05-03T12:05:21.02Z</time></trkpt><trkpt lat="44.46542082874219" lon="11.9354198716016"><ele>4.75</ele><time>2026-05-03T12:05:22.02Z</time></trkpt><trkpt lat="44.46552197775473" lon="11.935497068915126"><ele>4.5</ele><time>2026-05-03T12:05:23.02Z</time></trkpt><trkpt lat="44.46562695482149" lon="11.935575190945073"><ele>4.25</ele><time>2026-05-03T12:05:24.02Z</time></trkpt><trkpt lat="44.46572359301849" lon="11.935655471603408"><ele>4.0</ele><time>2026-05-03T12:05:25.02Z</time></trkpt><trkpt lat="44.465823144660575" lon="11.935730288064546"><ele>4.0</ele><time>2026-05-03T12:05:26.02Z</time></trkpt><trkpt lat="44.46591877738952" lon="11.935808500763061"><ele>4.0</ele><time>2026-05-03T12:05:27.02Z</time></trkpt><trkpt lat="44.466010446191625" lon="11.93588373159615"><ele>4.0</ele><time>2026-05-03T12:05:28.02Z</time></trkpt><trkpt lat="44.466102491788256" lon="11.935955194085162"><ele>4.0</ele><time>2026-05-03T12:05:29.02Z</time></trkpt><trkpt lat="44.466194375906845" lon="11.93602792342843"><ele>4.0</ele><time>2026-05-03T12:05:30.02Z</time></trkpt><trkpt lat="44.466287580611095" lon="11.936101075795769"><ele>4.0</ele><time>2026-05-03T12:05:31.02Z</time></trkpt><trkpt lat="44.466384814182966" lon="11.936176038277559"><ele>4.0</ele><time>2026-05-03T12:05:32.02Z</time></trkpt><trkpt lat="44.46647731355143" lon="11.936253891723855"><ele>4.0</ele><time>2026-05-03T12:05:33.02Z</time></trkpt><trkpt lat="44.46657420001942" lon="11.936330293205414"><ele>4.0</ele><time>2026-05-03T12:05:34.02Z</time></trkpt><trkpt lat="44.46667341728236" lon="11.936399620206375"><ele>4.0</ele><time>2026-05-03T12:05:35.02Z</time></trkpt><trkpt lat="44.46677491024755" lon="11.936449589604281"><ele>4.0</ele><time>2026-05-03T12:05:36.02Z</time></trkpt><trkpt lat="44.466880009417174" lon="11.936468412890658"><ele>4.0</ele><time>2026-05-03T12:05:37.02Z</time></trkpt><trkpt lat="44.466983907709235" lon="11.936457048171075"><ele>4.0</ele><time>2026-05-03T12:05:38.02Z</time></trkpt><trkpt lat="44.46709114731466" lon="11.936440970355806"><ele>4.0</ele><time>2026-05-03T12:05:39.02Z</time></trkpt><trkpt lat="44.467196570388175" lon="11.936418784990233"><ele>4.0</ele><time>2026-05-03T12:05:40.02Z</time></trkpt><trkpt lat="44.46730610426169" lon="11.936409595057803"><ele>4.2</ele><time>2026-05-03T12:05:41.02Z</time></trkpt><trkpt lat="44.46741570004598" lon="11.936421396234996"><ele>4.4</ele><time>2026-05-03T12:05:42.02Z</time></trkpt><trkpt lat="44.46751767582479" lon="11.9364575155666"><ele>4.6</ele><time>2026-05-03T12:05:43.02Z</time></trkpt><trkpt lat="44.46761767769045" lon="11.936505147414552"><ele>4.8</ele><time>2026-05-03T12:05:44.02Z</time></trkpt><trkpt lat="44.467721497185465" lon="11.936563797508494"><ele>5.0</ele><time>2026-05-03T12:05:45.02Z</time></trkpt><trkpt lat="44.46781999242901" lon="11.93663300616604"><ele>5.0</ele><time>2026-05-03T12:05:46.02Z</time></trkpt><trkpt lat="44.46791279481491" lon="11.936713324061921"><ele>5.0</ele><time>2026-05-03T12:05:47.02Z</time></trkpt><trkpt lat="44.46800124545887" lon="11.936801760635722"><ele>5.0</ele><time>2026-05-03T12:05:48.021Z</time></trkpt><trkpt lat="44.46809107332302" lon="11.936893770563705"><ele>5.0</ele><time>2026-05-03T12:05:49.021Z</time></trkpt><trkpt lat="44.468182157562936" lon="11.936982267580133"><ele>5.0</ele><time>2026-05-03T12:05:50.021Z</time></trkpt><trkpt lat="44.46827332568619" lon="11.937072295661123"><ele>4.75</ele><time>2026-05-03T12:05:51.021Z</time></trkpt><trkpt lat="44.468363224239766" lon="11.93716318902732"><ele>4.5</ele><time>2026-05-03T12:05:52.021Z</time></trkpt><trkpt lat="44.4684559425641" lon="11.937254785527312"><ele>4.25</ele><time>2026-05-03T12:05:53.021Z</time></trkpt><trkpt lat="44.46854800751809" lon="11.937352918110884"><ele>4.0</ele><time>2026-05-03T12:05:54.021Z</time></trkpt><trkpt lat="44.46864165444904" lon="11.937454738490292"><ele>4.0</ele><time>2026-05-03T12:05:55.021Z</time></trkpt><trkpt lat="44.468735914038106" lon="11.937557657622602"><ele>4.0</ele><time>2026-05-03T12:05:56.021Z</time></trkpt><trkpt lat="44.468828011169876" lon="11.937658085194995"><ele>4.0</ele><time>2026-05-03T12:05:57.021Z</time></trkpt><trkpt lat="44.46892245604962" lon="11.93776165753079"><ele>4.0</ele><time>2026-05-03T12:05:58.021Z</time></trkpt><trkpt lat="44.46902005532046" lon="11.9378572571328"><ele>4.5</ele><time>2026-05-03T12:05:59.021Z</time></trkpt><trkpt lat="44.469114825084894" lon="11.9379585217924"><ele>5.0</ele><time>2026-05-03T12:06:00.018Z</time></trkpt><trkpt lat="44.46920984878621" lon="11.938063031021164"><ele>5.5</ele><time>2026-05-03T12:06:01.017Z</time></trkpt><trkpt lat="44.469304387934116" lon="11.938169274691191"><ele>6.0</ele><time>2026-05-03T12:06:02.017Z</time></trkpt><trkpt lat="44.469394898633475" lon="11.938282605945929"><ele>6.0</ele><time>2026-05-03T12:06:03.018Z</time></trkpt><trkpt lat="44.46949559835086" lon="11.938384449179958"><ele>6.0</ele><time>2026-05-03T12:06:04.017Z</time></trkpt><trkpt lat="44.46959064904954" lon="11.938491387990343"><ele>6.0</ele><time>2026-05-03T12:06:05.017Z</time></trkpt><trkpt lat="44.469690532856646" lon="11.938597368159934"><ele>6.0</ele><time>2026-05-03T12:06:06.017Z</time></trkpt><trkpt lat="44.46979104170471" lon="11.938698600644724"><ele>5.75</ele><time>2026-05-03T12:06:07.017Z</time></trkpt><trkpt lat="44.46989649759061" lon="11.938795046991574"><ele>5.5</ele><time>2026-05-03T12:06:08.017Z</time></trkpt><trkpt lat="44.470007498092556" lon="11.938880112709423"><ele>5.25</ele><time>2026-05-03T12:06:09.018Z</time></trkpt><trkpt lat="44.47012276218923" lon="11.938956650120243"><ele>5.0</ele><time>2026-05-03T12:06:10.017Z</time></trkpt><trkpt lat="44.47023837092201" lon="11.93903073077871"><ele>5.0</ele><time>2026-05-03T12:06:11.017Z</time></trkpt><trkpt lat="44.4703566891739" lon="11.939098873431153"><ele>5.0</ele><time>2026-05-03T12:06:12.017Z</time></trkpt><trkpt lat="44.47046653246615" lon="11.93919532050774"><ele>5.0</ele><time>2026-05-03T12:06:13.017Z</time></trkpt><trkpt lat="44.470579939125756" lon="11.93927225635408"><ele>5.0</ele><time>2026-05-03T12:06:14.017Z</time></trkpt><trkpt lat="44.4706927268141" lon="11.939345386368672"><ele>5.0</ele><time>2026-05-03T12:06:15.017Z</time></trkpt><trkpt lat="44.47080576488843" lon="11.939421173957607"><ele>5.0</ele><time>2026-05-03T12:06:16.017Z</time></trkpt><trkpt lat="44.4709122514575" lon="11.93949470990644"><ele>5.0</ele><time>2026-05-03T12:06:17.017Z</time></trkpt><trkpt lat="44.47101567835502" lon="11.93957155257952"><ele>5.0</ele><time>2026-05-03T12:06:18.017Z</time></trkpt><trkpt lat="44.47111580828319" lon="11.939649174562923"><ele>5.0</ele><time>2026-05-03T12:06:19.017Z</time></trkpt><trkpt lat="44.47120942784677" lon="11.939722314539134"><ele>5.0</ele><time>2026-05-03T12:06:20.017Z</time></trkpt><trkpt lat="44.47129856619723" lon="11.939792120748086"><ele>5.0</ele><time>2026-05-03T12:06:21.017Z</time></trkpt><trkpt lat="44.47138577794411" lon="11.939858413716937"><ele>5.0</ele><time>2026-05-03T12:06:22.017Z</time></trkpt><trkpt lat="44.47147344545648" lon="11.939924002778318"><ele>5.0</ele><time>2026-05-03T12:06:23.017Z</time></trkpt><trkpt lat="44.471557420089276" lon="11.939988350185512"><ele>4.5</ele><time>2026-05-03T12:06:24.017Z</time></trkpt><trkpt lat="44.471638277847504" lon="11.940051277465786"><ele>4.0</ele><time>2026-05-03T12:06:25.017Z</time></trkpt><trkpt lat="44.47172163248201" lon="11.940112352375898"><ele>3.5</ele><time>2026-05-03T12:06:26.017Z</time></trkpt><trkpt lat="44.47179448973821" lon="11.940163663108223"><ele>3.0</ele><time>2026-05-03T12:06:27.017Z</time></trkpt><trkpt lat="44.47185103215094" lon="11.940206009393366"><ele>2.5</ele><time>2026-05-03T12:06:28.017Z</time></trkpt><trkpt lat="44.47191228374636" lon="11.940256495315843"><ele>2.0</ele><time>2026-05-03T12:06:30.017Z</time></trkpt><trkpt lat="44.47197863686655" lon="11.940311466321983"><ele>1.9999999999999998</ele><time>2026-05-03T12:06:32.017Z</time></trkpt><trkpt lat="44.47203914148657" lon="11.940344654305965"><ele>2.0</ele><time>2026-05-03T12:06:34.017Z</time></trkpt><trkpt lat="44.472102004404846" lon="11.940387911038576"><ele>2.0</ele><time>2026-05-03T12:06:36.017Z</time></trkpt><trkpt lat="44.47218518364434" lon="11.940441734486157"><ele>2.0</ele><time>2026-05-03T12:06:38.017Z</time></trkpt><trkpt lat="44.47230337754217" lon="11.940518915654371"><ele>1.9999999999999998</ele><time>2026-05-03T12:06:40.017Z</time></trkpt><trkpt lat="44.47237258422503" lon="11.94056649922387"><ele>2.0</ele><time>2026-05-03T12:06:41.017Z</time></trkpt><trkpt lat="44.47245158375874" lon="11.940622012528706"><ele>2.2</ele><time>2026-05-03T12:06:42.017Z</time></trkpt><trkpt lat="44.47253144944342" lon="11.940678333007277"><ele>2.4000000000000004</ele><time>2026-05-03T12:06:43.017Z</time></trkpt><trkpt lat="44.47261197817692" lon="11.940739272803699"><ele>2.5999999999999996</ele><time>2026-05-03T12:06:44.018Z</time></trkpt><trkpt lat="44.472694883757164" lon="11.940801803856951"><ele>2.8</ele><time>2026-05-03T12:06:45.018Z</time></trkpt><trkpt lat="44.4727810081489" lon="11.94086868564483"><ele>3.0</ele><time>2026-05-03T12:06:46.018Z</time></trkpt><trkpt lat="44.47287084816171" lon="11.940938860406167"><ele>3.2</ele><time>2026-05-03T12:06:47.018Z</time></trkpt><trkpt lat="44.4729681853541" lon="11.941013050870344"><ele>3.4</ele><time>2026-05-03T12:06:48.018Z</time></trkpt><trkpt lat="44.4730648282121" lon="11.941094307728527"><ele>3.6000000000000005</ele><time>2026-05-03T12:06:49.018Z</time></trkpt><trkpt lat="44.473159905518614" lon="11.941173479518678"><ele>3.8000000000000003</ele><time>2026-05-03T12:06:50.018Z</time></trkpt><trkpt lat="44.47325860855018" lon="11.941250964309168"><ele>4.0</ele><time>2026-05-03T12:06:51.018Z</time></trkpt><trkpt lat="44.47335318223273" lon="11.941330855628216"><ele>4.0</ele><time>2026-05-03T12:06:52.018Z</time></trkpt><trkpt lat="44.47345223688157" lon="11.941409695060399"><ele>4.0</ele><time>2026-05-03T12:06:53.018Z</time></trkpt><trkpt lat="44.47354673138393" lon="11.941485192831609"><ele>4.0</ele><time>2026-05-03T12:06:54.018Z</time></trkpt><trkpt lat="44.47364206881343" lon="11.94155537300596"><ele>4.0</ele><time>2026-05-03T12:06:55.018Z</time></trkpt><trkpt lat="44.47373327868393" lon="11.94162607960458"><ele>4.0</ele><time>2026-05-03T12:06:56.018Z</time></trkpt><trkpt lat="44.47381438563" lon="11.941686231721825"><ele>4.166666666666666</ele><time>2026-05-03T12:06:57.018Z</time></trkpt><trkpt lat="44.47387593116327" lon="11.941735003071479"><ele>4.333333333333333</ele><time>2026-05-03T12:06:58.018Z</time></trkpt><trkpt lat="44.47395420575196" lon="11.94182653737571"><ele>4.5</ele><time>2026-05-03T12:07:00.018Z</time></trkpt><trkpt lat="44.47392477320968" lon="11.941944359289208"><ele>4.666666666666667</ele><time>2026-05-03T12:07:02.018Z</time></trkpt><trkpt lat="44.47389138708074" lon="11.942024435893929"><ele>4.833333333333334</ele><time>2026-05-03T12:07:03.018Z</time></trkpt><trkpt lat="44.47385563058797" lon="11.942114425133784"><ele>5.0</ele><time>2026-05-03T12:07:04.018Z</time></trkpt><trkpt lat="44.47381656128137" lon="11.942209914836493"><ele>5.0</ele><time>2026-05-03T12:07:05.018Z</time></trkpt><trkpt lat="44.473772306403795" lon="11.94231767594684"><ele>5.0</ele><time>2026-05-03T12:07:06.018Z</time></trkpt><trkpt lat="44.47372246454566" lon="11.94243904142151"><ele>5.0</ele><time>2026-05-03T12:07:07.018Z</time></trkpt><trkpt lat="44.47367115411922" lon="11.942562652466716"><ele>5.0</ele><time>2026-05-03T12:07:08.018Z</time></trkpt><trkpt lat="44.47361359345225" lon="11.94269990637465"><ele>5.0</ele><time>2026-05-03T12:07:09.018Z</time></trkpt><trkpt lat="44.47355310359764" lon="11.942844112947666"><ele>5.0</ele><time>2026-05-03T12:07:10.018Z</time></trkpt><trkpt lat="44.473493439660345" lon="11.942993701933734"><ele>5.0</ele><time>2026-05-03T12:07:11.018Z</time></trkpt><trkpt lat="44.473443839034" lon="11.943155386691938"><ele>5.0</ele><time>2026-05-03T12:07:12.018Z</time></trkpt><trkpt lat="44.47338024321357" lon="11.943313758637954"><ele>5.0</ele><time>2026-05-03T12:07:13.018Z</time></trkpt><trkpt lat="44.47331389855357" lon="11.943471956583902"><ele>5.0</ele><time>2026-05-03T12:07:14.018Z</time></trkpt><trkpt lat="44.47324812293369" lon="11.943621731885983"><ele>5.0</ele><time>2026-05-03T12:07:15.018Z</time></trkpt><trkpt lat="44.47318021288396" lon="11.943775687081942"><ele>5.0</ele><time>2026-05-03T12:07:16.018Z</time></trkpt><trkpt lat="44.473117741800365" lon="11.943931277505733"><ele>5.0</ele><time>2026-05-03T12:07:17.018Z</time></trkpt><trkpt lat="44.473059782556085" lon="11.944084521843093"><ele>4.75</ele><time>2026-05-03T12:07:18.018Z</time></trkpt><trkpt lat="44.47300104637359" lon="11.944228196368305"><ele>4.5</ele><time>2026-05-03T12:07:19.018Z</time></trkpt><trkpt lat="44.472940102436944" lon="11.944374253101886"><ele>4.25</ele><time>2026-05-03T12:07:20.018Z</time></trkpt><trkpt lat="44.472879293351056" lon="11.944522088866675"><ele>4.0</ele><time>2026-05-03T12:07:21.018Z</time></trkpt><trkpt lat="44.472820658890306" lon="11.944670815649134"><ele>3.75</ele><time>2026-05-03T12:07:22.018Z</time></trkpt><trkpt lat="44.47276052051443" lon="11.944820269015226"><ele>3.5</ele><time>2026-05-03T12:07:23.018Z</time></trkpt><trkpt lat="44.472700786299924" lon="11.944967487603876"><ele>3.25</ele><time>2026-05-03T12:07:24.018Z</time></trkpt><trkpt lat="44.472640415456425" lon="11.945118836692888"><ele>3.0</ele><time>2026-05-03T12:07:25.019Z</time></trkpt><trkpt lat="44.47257891822029" lon="11.945266905484893"><ele>3.75</ele><time>2026-05-03T12:07:26.019Z</time></trkpt><trkpt lat="44.47251707910275" lon="11.945417973239488"><ele>4.5</ele><time>2026-05-03T12:07:27.019Z</time></trkpt><trkpt lat="44.47245468175024" lon="11.945575254843186"><ele>5.25</ele><time>2026-05-03T12:07:28.019Z</time></trkpt><trkpt lat="44.47239102941145" lon="11.945730320452219"><ele>6.0</ele><time>2026-05-03T12:07:29.019Z</time></trkpt><trkpt lat="44.47232697138203" lon="11.945888401344481"><ele>6.0</ele><time>2026-05-03T12:07:30.019Z</time></trkpt><trkpt lat="44.472261729778936" lon="11.94603990595608"><ele>6.0</ele><time>2026-05-03T12:07:31.019Z</time></trkpt><trkpt lat="44.47219602106402" lon="11.946193907237204"><ele>6.0</ele><time>2026-05-03T12:07:32.019Z</time></trkpt><trkpt lat="44.4721271066779" lon="11.946341322526614"><ele>6.0</ele><time>2026-05-03T12:07:33.019Z</time></trkpt><trkpt lat="44.47206016215494" lon="11.946487681420638"><ele>6.0</ele><time>2026-05-03T12:07:34.019Z</time></trkpt><trkpt lat="44.47199281775117" lon="11.946638429362539"><ele>6.0</ele><time>2026-05-03T12:07:35.019Z</time></trkpt><trkpt lat="44.47192829193332" lon="11.946790278554419"><ele>6.0</ele><time>2026-05-03T12:07:36.019Z</time></trkpt><trkpt lat="44.47186290057587" lon="11.946946317035895"><ele>6.0</ele><time>2026-05-03T12:07:37.019Z</time></trkpt><trkpt lat="44.471800968312266" lon="11.947103408396478"><ele>6.25</ele><time>2026-05-03T12:07:38.019Z</time></trkpt><trkpt lat="44.47174040655652" lon="11.947266718265917"><ele>6.5</ele><time>2026-05-03T12:07:39.019Z</time></trkpt><trkpt lat="44.471682273570565" lon="11.947424287640416"><ele>6.75</ele><time>2026-05-03T12:07:40.019Z</time></trkpt><trkpt lat="44.47162632221464" lon="11.947578297345727"><ele>7.0</ele><time>2026-05-03T12:07:41.019Z</time></trkpt><trkpt lat="44.471568617415485" lon="11.947730274742986"><ele>7.0</ele><time>2026-05-03T12:07:42.019Z</time></trkpt><trkpt lat="44.471516359749266" lon="11.94787769099724"><ele>6.999999999999999</ele><time>2026-05-03T12:07:43.019Z</time></trkpt><trkpt lat="44.47147161822396" lon="11.94801333284882"><ele>6.999999999999999</ele><time>2026-05-03T12:07:44.019Z</time></trkpt><trkpt lat="44.47143053555599" lon="11.94812869230761"><ele>7.0</ele><time>2026-05-03T12:07:45.019Z</time></trkpt><trkpt lat="44.47139260191923" lon="11.948236375810835"><ele>7.0</ele><time>2026-05-03T12:07:46.019Z</time></trkpt><trkpt lat="44.47135773473859" lon="11.948336054646559"><ele>6.833333333333334</ele><time>2026-05-03T12:07:47.019Z</time></trkpt><trkpt lat="44.471323264304225" lon="11.948433460235332"><ele>6.666666666666667</ele><time>2026-05-03T12:07:48.019Z</time></trkpt><trkpt lat="44.47127273063386" lon="11.948516817817715"><ele>6.5</ele><time>2026-05-03T12:07:49.019Z</time></trkpt><trkpt lat="44.47124107301146" lon="11.948611581968423"><ele>6.333333333333334</ele><time>2026-05-03T12:07:50.019Z</time></trkpt><trkpt lat="44.47119432215053" lon="11.948753086033822"><ele>6.166666666666667</ele><time>2026-05-03T12:07:52.019Z</time></trkpt><trkpt lat="44.47116400457821" lon="11.948837818874468"><ele>6.0</ele><time>2026-05-03T12:07:54.019Z</time></trkpt><trkpt lat="44.47113545315609" lon="11.948926303547777"><ele>5.999999999999999</ele><time>2026-05-03T12:07:57.019Z</time></trkpt><trkpt lat="44.47110160623765" lon="11.949014252667487"><ele>6.0</ele><time>2026-05-03T12:08:00.019Z</time></trkpt><trkpt lat="44.471060026353946" lon="11.94911525584755"><ele>6.0</ele><time>2026-05-03T12:08:03.019Z</time></trkpt><trkpt lat="44.47103380788084" lon="11.949221009242272"><ele>6.0</ele><time>2026-05-03T12:08:08.015Z</time></trkpt><trkpt lat="44.471008904649" lon="11.949312616772671"><ele>6.0</ele><time>2026-05-03T12:08:11.015Z</time></trkpt><trkpt lat="44.47099850745426" lon="11.94941557674963"><ele>5.999999999999999</ele><time>2026-05-03T12:08:14.016Z</time></trkpt><trkpt lat="44.47099818107054" lon="11.949505020261315"><ele>6.0</ele><time>2026-05-03T12:08:17.015Z</time></trkpt><trkpt lat="44.471062951810644" lon="11.949543703254298"><ele>6.0</ele><time>2026-05-03T12:08:18.016Z</time></trkpt><trkpt lat="44.47113692036615" lon="11.949626528787045"><ele>6.0</ele><time>2026-05-03T12:08:20.015Z</time></trkpt><trkpt lat="44.47124853804395" lon="11.949719573238582"><ele>6.0</ele><time>2026-05-03T12:08:22.015Z</time></trkpt><trkpt lat="44.47132234699076" lon="11.949777312938048"><ele>6.0</ele><time>2026-05-03T12:08:23.015Z</time></trkpt><trkpt lat="44.47140484679645" lon="11.949841608936085"><ele>6.0</ele><time>2026-05-03T12:08:24.015Z</time></trkpt><trkpt lat="44.471487378008696" lon="11.9499119206434"><ele>5.8</ele><time>2026-05-03T12:08:25.015Z</time></trkpt><trkpt lat="44.47157108827412" lon="11.949975952179756"><ele>5.6</ele><time>2026-05-03T12:08:26.015Z</time></trkpt><trkpt lat="44.47166053700702" lon="11.950045208794936"><ele>5.4</ele><time>2026-05-03T12:08:27.015Z</time></trkpt><trkpt lat="44.47175391999289" lon="11.950123065092965"><ele>5.2</ele><time>2026-05-03T12:08:28.015Z</time></trkpt><trkpt lat="44.47185508290328" lon="11.950206625916104"><ele>5.0</ele><time>2026-05-03T12:08:29.015Z</time></trkpt><trkpt lat="44.47195951128388" lon="11.95029156072721"><ele>5.0</ele><time>2026-05-03T12:08:30.015Z</time></trkpt><trkpt lat="44.47206833062962" lon="11.950375816396123"><ele>5.0</ele><time>2026-05-03T12:08:31.015Z</time></trkpt><trkpt lat="44.47218072907597" lon="11.95046411129382"><ele>5.0</ele><time>2026-05-03T12:08:32.015Z</time></trkpt><trkpt lat="44.472295346684476" lon="11.950549866047238"><ele>5.0</ele><time>2026-05-03T12:08:33.015Z</time></trkpt><trkpt lat="44.47241259502108" lon="11.950640321889509"><ele>5.0</ele><time>2026-05-03T12:08:34.015Z</time></trkpt><trkpt lat="44.4725263617146" lon="11.950728274025922"><ele>5.0</ele><time>2026-05-03T12:08:35.015Z</time></trkpt><trkpt lat="44.47264120548065" lon="11.950816088196857"><ele>5.0</ele><time>2026-05-03T12:08:36.015Z</time></trkpt><trkpt lat="44.472756490975435" lon="11.950904508306861"><ele>5.0</ele><time>2026-05-03T12:08:37.016Z</time></trkpt><trkpt lat="44.472871402524866" lon="11.950999929984714"><ele>5.0</ele><time>2026-05-03T12:08:38.016Z</time></trkpt><trkpt lat="44.47298008755178" lon="11.951091034698434"><ele>5.0</ele><time>2026-05-03T12:08:39.016Z</time></trkpt><trkpt lat="44.4730864605789" lon="11.95118506069807"><ele>5.0</ele><time>2026-05-03T12:08:40.016Z</time></trkpt><trkpt lat="44.47319678915184" lon="11.951275334213694"><ele>5.0</ele><time>2026-05-03T12:08:41.016Z</time></trkpt><trkpt lat="44.47330356244855" lon="11.951366747637865"><ele>5.0</ele><time>2026-05-03T12:08:42.016Z</time></trkpt><trkpt lat="44.47340848552897" lon="11.951460547646828"><ele>5.0</ele><time>2026-05-03T12:08:43.016Z</time></trkpt><trkpt lat="44.473514112551406" lon="11.951552324642115"><ele>5.0</ele><time>2026-05-03T12:08:44.016Z</time></trkpt><trkpt lat="44.47361688277878" lon="11.951643525319213"><ele>5.0</ele><time>2026-05-03T12:08:45.016Z</time></trkpt><trkpt lat="44.47372043123897" lon="11.951733455201913"><ele>5.5</ele><time>2026-05-03T12:08:46.016Z</time></trkpt><trkpt lat="44.473818758880505" lon="11.951817556268729"><ele>6.0</ele><time>2026-05-03T12:08:47.016Z</time></trkpt><trkpt lat="44.4739245828535" lon="11.95189996370916"><ele>6.5</ele><time>2026-05-03T12:08:48.016Z</time></trkpt><trkpt lat="44.4740300575083" lon="11.95198496067359"><ele>7.0</ele><time>2026-05-03T12:08:49.016Z</time></trkpt><trkpt lat="44.47413785453475" lon="11.952069135422443"><ele>7.0</ele><time>2026-05-03T12:08:50.016Z</time></trkpt><trkpt lat="44.474250935256684" lon="11.952150492234443"><ele>7.0</ele><time>2026-05-03T12:08:51.016Z</time></trkpt><trkpt lat="44.47436808624758" lon="11.952237394789867"><ele>7.0</ele><time>2026-05-03T12:08:52.016Z</time></trkpt><trkpt lat="44.474484600191786" lon="11.952327201013476"><ele>7.0</ele><time>2026-05-03T12:08:53.016Z</time></trkpt><trkpt lat="44.47460397791361" lon="11.952416295203225"><ele>6.25</ele><time>2026-05-03T12:08:54.016Z</time></trkpt><trkpt lat="44.474720073672245" lon="11.952511864096744"><ele>5.5</ele><time>2026-05-03T12:08:55.016Z</time></trkpt><trkpt lat="44.474841207627215" lon="11.9526140266815"><ele>4.75</ele><time>2026-05-03T12:08:56.016Z</time></trkpt><trkpt lat="44.474969891761404" lon="11.952714912544506"><ele>4.0</ele><time>2026-05-03T12:08:57.016Z</time></trkpt><trkpt lat="44.475098268518195" lon="11.95281566449232"><ele>4.0</ele><time>2026-05-03T12:08:58.016Z</time></trkpt><trkpt lat="44.47522161872606" lon="11.952912461645512"><ele>4.0</ele><time>2026-05-03T12:08:59.016Z</time></trkpt><trkpt lat="44.47534283516594" lon="11.953005265446498"><ele>4.0</ele><time>2026-05-03T12:09:00.016Z</time></trkpt><trkpt lat="44.47545897420853" lon="11.953100793363022"><ele>4.0</ele><time>2026-05-03T12:09:01.016Z</time></trkpt><trkpt lat="44.475574126969164" lon="11.953190660779105"><ele>4.0</ele><time>2026-05-03T12:09:02.016Z</time></trkpt><trkpt lat="44.47568952388656" lon="11.953284849376743"><ele>4.0</ele><time>2026-05-03T12:09:03.016Z</time></trkpt><trkpt lat="44.47580193115445" lon="11.953372122317708"><ele>4.0</ele><time>2026-05-03T12:09:04.016Z</time></trkpt><trkpt lat="44.47591089697336" lon="11.953458110232223"><ele>4.0</ele><time>2026-05-03T12:09:05.016Z</time></trkpt><trkpt lat="44.47601815889141" lon="11.953541093665189"><ele>4.166666666666666</ele><time>2026-05-03T12:09:06.016Z</time></trkpt><trkpt lat="44.47611268213673" lon="11.953620069734987"><ele>4.333333333333333</ele><time>2026-05-03T12:09:07.016Z</time></trkpt><trkpt lat="44.47619870093949" lon="11.953687852943183"><ele>4.5</ele><time>2026-05-03T12:09:08.016Z</time></trkpt><trkpt lat="44.476261521388665" lon="11.953740885844276"><ele>4.666666666666667</ele><time>2026-05-03T12:09:09.016Z</time></trkpt><trkpt lat="44.47632788703521" lon="11.953790011819594"><ele>4.833333333333334</ele><time>2026-05-03T12:09:11.016Z</time></trkpt><trkpt lat="44.47640035403059" lon="11.953855310109317"><ele>5.0</ele><time>2026-05-03T12:09:15.016Z</time></trkpt><trkpt lat="44.47646326873053" lon="11.953898513358956"><ele>5.0</ele><time>2026-05-03T12:09:18.017Z</time></trkpt><trkpt lat="44.4764123364967" lon="11.953968257973422"><ele>5.0</ele><time>2026-05-03T12:09:19.017Z</time></trkpt><trkpt lat="44.47636845479741" lon="11.954082438762573"><ele>5.0</ele><time>2026-05-03T12:09:21.017Z</time></trkpt><trkpt lat="44.476336625831976" lon="11.95416525777814"><ele>5.0</ele><time>2026-05-03T12:09:22.017Z</time></trkpt><trkpt lat="44.47630008899842" lon="11.954259905776333"><ele>5.0</ele><time>2026-05-03T12:09:23.017Z</time></trkpt><trkpt lat="44.476256500295136" lon="11.954370731166154"><ele>5.0</ele><time>2026-05-03T12:09:24.017Z</time></trkpt><trkpt lat="44.47621951284837" lon="11.954493029295568"><ele>4.8</ele><time>2026-05-03T12:09:25.017Z</time></trkpt><trkpt lat="44.476170808114034" lon="11.954611374728179"><ele>4.6</ele><time>2026-05-03T12:09:26.017Z</time></trkpt><trkpt lat="44.47612155013722" lon="11.95473145198602"><ele>4.4</ele><time>2026-05-03T12:09:27.017Z</time></trkpt><trkpt lat="44.4760704855117" lon="11.954859576095647"><ele>4.2</ele><time>2026-05-03T12:09:28.017Z</time></trkpt><trkpt lat="44.47601719262747" lon="11.954994676190273"><ele>4.0</ele><time>2026-05-03T12:09:29.017Z</time></trkpt><trkpt lat="44.47596211235019" lon="11.955137947080976"><ele>4.0</ele><time>2026-05-03T12:09:30.017Z</time></trkpt><trkpt lat="44.47590360391771" lon="11.955288925453177"><ele>4.0</ele><time>2026-05-03T12:09:31.017Z</time></trkpt><trkpt lat="44.47584462682745" lon="11.955448871555634"><ele>4.0</ele><time>2026-05-03T12:09:32.017Z</time></trkpt><trkpt lat="44.475779860763716" lon="11.955612725646434"><ele>4.0</ele><time>2026-05-03T12:09:33.017Z</time></trkpt><trkpt lat="44.47571077446604" lon="11.955777164791236"><ele>4.25</ele><time>2026-05-03T12:09:34.017Z</time></trkpt><trkpt lat="44.47564590836859" lon="11.955937362272056"><ele>4.5</ele><time>2026-05-03T12:09:35.017Z</time></trkpt><trkpt lat="44.475582152120694" lon="11.956101704608844"><ele>4.75</ele><time>2026-05-03T12:09:36.017Z</time></trkpt><trkpt lat="44.47551944515731" lon="11.956270937610068"><ele>5.0</ele><time>2026-05-03T12:09:37.017Z</time></trkpt><trkpt lat="44.47545452425809" lon="11.95644059144545"><ele>5.0</ele><time>2026-05-03T12:09:38.017Z</time></trkpt><trkpt lat="44.47539234907385" lon="11.956604686432222"><ele>5.0</ele><time>2026-05-03T12:09:39.017Z</time></trkpt><trkpt lat="44.47533117755937" lon="11.95676750185853"><ele>5.0</ele><time>2026-05-03T12:09:40.017Z</time></trkpt><trkpt lat="44.47527402500041" lon="11.956922316299913"><ele>5.0</ele><time>2026-05-03T12:09:41.017Z</time></trkpt><trkpt lat="44.47521780227609" lon="11.95706966975433"><ele>5.0</ele><time>2026-05-03T12:09:42.017Z</time></trkpt><trkpt lat="44.47515361536093" lon="11.957218044143675"><ele>5.0</ele><time>2026-05-03T12:09:43.017Z</time></trkpt><trkpt lat="44.47508653072681" lon="11.957374418612847"><ele>5.0</ele><time>2026-05-03T12:09:44.017Z</time></trkpt><trkpt lat="44.475012555286085" lon="11.957537849566794"><ele>5.0</ele><time>2026-05-03T12:09:45.017Z</time></trkpt><trkpt lat="44.47494217382477" lon="11.957711387599241"><ele>4.75</ele><time>2026-05-03T12:09:46.017Z</time></trkpt><trkpt lat="44.47487382732626" lon="11.957886863880885"><ele>4.5</ele><time>2026-05-03T12:09:47.017Z</time></trkpt><trkpt lat="44.47480779853643" lon="11.958066421911214"><ele>4.25</ele><time>2026-05-03T12:09:48.017Z</time></trkpt><trkpt lat="44.474743640803474" lon="11.958258723539156"><ele>4.0</ele><time>2026-05-03T12:09:49.017Z</time></trkpt><trkpt lat="44.47468053374133" lon="11.958453329980708"><ele>4.0</ele><time>2026-05-03T12:09:50.017Z</time></trkpt><trkpt lat="44.47461926328124" lon="11.958647424364568"><ele>4.0</ele><time>2026-05-03T12:09:51.017Z</time></trkpt><trkpt lat="44.474556319273" lon="11.958845724549766"><ele>4.0</ele><time>2026-05-03T12:09:52.017Z</time></trkpt><trkpt lat="44.47449735424148" lon="11.959043797718394"><ele>4.333333333333333</ele><time>2026-05-03T12:09:53.017Z</time></trkpt><trkpt lat="44.4744422622518" lon="11.959245374290305"><ele>4.666666666666667</ele><time>2026-05-03T12:09:54.017Z</time></trkpt><trkpt lat="44.47439258260107" lon="11.959446438543067"><ele>5.0</ele><time>2026-05-03T12:09:55.017Z</time></trkpt><trkpt lat="44.47435410631352" lon="11.95964314500636"><ele>5.0</ele><time>2026-05-03T12:09:56.017Z</time></trkpt><trkpt lat="44.47432270188766" lon="11.959841183654763"><ele>5.0</ele><time>2026-05-03T12:09:57.017Z</time></trkpt><trkpt lat="44.4742952953884" lon="11.960038415688436"><ele>5.0</ele><time>2026-05-03T12:09:58.018Z</time></trkpt><trkpt lat="44.47427089898427" lon="11.960237874582266"><ele>5.0</ele><time>2026-05-03T12:09:59.018Z</time></trkpt><trkpt lat="44.4742506669884" lon="11.960429622742662"><ele>4.8</ele><time>2026-05-03T12:10:00.018Z</time></trkpt><trkpt lat="44.47423120793143" lon="11.960604104608171"><ele>4.6</ele><time>2026-05-03T12:10:01.018Z</time></trkpt><trkpt lat="44.4742132328405" lon="11.960745266666247"><ele>4.4</ele><time>2026-05-03T12:10:02.018Z</time></trkpt><trkpt lat="44.47419545529929" lon="11.96088035408419"><ele>4.2</ele><time>2026-05-03T12:10:03.018Z</time></trkpt><trkpt lat="44.474172377683196" lon="11.961007434440877"><ele>4.0</ele><time>2026-05-03T12:10:04.018Z</time></trkpt><trkpt lat="44.47414880076363" lon="11.96110854743573"><ele>3.9999999999999996</ele><time>2026-05-03T12:10:05.018Z</time></trkpt><trkpt lat="44.47410606148624" lon="11.961248091664554"><ele>4.0</ele><time>2026-05-03T12:10:07.018Z</time></trkpt><trkpt lat="44.474063123863765" lon="11.961352555673086"><ele>4.0</ele><time>2026-05-03T12:10:09.018Z</time></trkpt><trkpt lat="44.47402861616928" lon="11.961449711514696"><ele>4.0</ele><time>2026-05-03T12:10:11.018Z</time></trkpt><trkpt lat="44.473998603750566" lon="11.961559534491268"><ele>3.9999999999999996</ele><time>2026-05-03T12:10:14.014Z</time></trkpt><trkpt lat="44.473988174774426" lon="11.96165769622154"><ele>4.0</ele><time>2026-05-03T12:10:17.015Z</time></trkpt><trkpt lat="44.47394199889559" lon="11.961778857425553"><ele>4.2</ele><time>2026-05-03T12:10:20.014Z</time></trkpt><trkpt lat="44.47391768709582" lon="11.961906548693506"><ele>4.4</ele><time>2026-05-03T12:10:22.015Z</time></trkpt><trkpt lat="44.473875752416006" lon="11.96207722612072"><ele>4.6</ele><time>2026-05-03T12:10:24.015Z</time></trkpt><trkpt lat="44.473842542794195" lon="11.962185229766963"><ele>4.8</ele><time>2026-05-03T12:10:25.015Z</time></trkpt><trkpt lat="44.4738075865885" lon="11.962295577019878"><ele>5.0</ele><time>2026-05-03T12:10:26.015Z</time></trkpt><trkpt lat="44.473773801884754" lon="11.962421103925578"><ele>5.0</ele><time>2026-05-03T12:10:27.015Z</time></trkpt><trkpt lat="44.4737468364208" lon="11.962552109892666"><ele>5.0</ele><time>2026-05-03T12:10:28.015Z</time></trkpt><trkpt lat="44.47372138358432" lon="11.962692541971863"><ele>5.0</ele><time>2026-05-03T12:10:29.015Z</time></trkpt><trkpt lat="44.47369437467753" lon="11.962838447038044"><ele>5.0</ele><time>2026-05-03T12:10:30.015Z</time></trkpt><trkpt lat="44.47366935859005" lon="11.962990118072407"><ele>5.0</ele><time>2026-05-03T12:10:31.015Z</time></trkpt><trkpt lat="44.473642581904706" lon="11.963151370008784"><ele>5.0</ele><time>2026-05-03T12:10:32.015Z</time></trkpt><trkpt lat="44.47361731179326" lon="11.96331167779537"><ele>5.0</ele><time>2026-05-03T12:10:33.015Z</time></trkpt><trkpt lat="44.47359129660215" lon="11.963476123941957"><ele>5.0</ele><time>2026-05-03T12:10:34.015Z</time></trkpt><trkpt lat="44.47356584480946" lon="11.963638089663247"><ele>5.0</ele><time>2026-05-03T12:10:35.015Z</time></trkpt><trkpt lat="44.47353977113267" lon="11.963804175069766"><ele>5.5</ele><time>2026-05-03T12:10:36.015Z</time></trkpt><trkpt lat="44.47351517037075" lon="11.963966439619359"><ele>6.0</ele><time>2026-05-03T12:10:37.015Z</time></trkpt><trkpt lat="44.47348893271748" lon="11.964134895384944"><ele>6.5</ele><time>2026-05-03T12:10:38.015Z</time></trkpt><trkpt lat="44.47346489357706" lon="11.964304869638928"><ele>7.0</ele><time>2026-05-03T12:10:39.015Z</time></trkpt><trkpt lat="44.47343961757786" lon="11.964472377545215"><ele>7.0</ele><time>2026-05-03T12:10:40.015Z</time></trkpt><trkpt lat="44.47341458013922" lon="11.9646458015631"><ele>7.0</ele><time>2026-05-03T12:10:41.015Z</time></trkpt><trkpt lat="44.47338752005101" lon="11.964826358545826"><ele>7.0</ele><time>2026-05-03T12:10:42.015Z</time></trkpt><trkpt lat="44.47336116363813" lon="11.96500303711554"><ele>7.0</ele><time>2026-05-03T12:10:43.015Z</time></trkpt><trkpt lat="44.47333633964299" lon="11.965182528156506"><ele>7.0</ele><time>2026-05-03T12:10:44.015Z</time></trkpt><trkpt lat="44.47329246653183" lon="11.965357562653828"><ele>7.0</ele><time>2026-05-03T12:10:45.015Z</time></trkpt><trkpt lat="44.4732802422614" lon="11.96553723235529"><ele>7.0</ele><time>2026-05-03T12:10:46.015Z</time></trkpt><trkpt lat="44.473237509757766" lon="11.96569827828899"><ele>7.0</ele><time>2026-05-03T12:10:47.015Z</time></trkpt><trkpt lat="44.47322896792977" lon="11.96585732302493"><ele>6.833333333333334</ele><time>2026-05-03T12:10:48.015Z</time></trkpt><trkpt lat="44.47320322409496" lon="11.96599286437725"><ele>6.666666666666667</ele><time>2026-05-03T12:10:49.015Z</time></trkpt><trkpt lat="44.47318049455375" lon="11.966102092968322"><ele>6.5</ele><time>2026-05-03T12:10:50.015Z</time></trkpt><trkpt lat="44.47315937919015" lon="11.966200148746216"><ele>6.333333333333334</ele><time>2026-05-03T12:10:51.015Z</time></trkpt><trkpt lat="44.47313000167931" lon="11.966334984643428"><ele>6.166666666666667</ele><time>2026-05-03T12:10:53.015Z</time></trkpt><trkpt lat="44.473106257538205" lon="11.966444047213727"><ele>6.0</ele><time>2026-05-03T12:10:56.015Z</time></trkpt><trkpt lat="44.473088785872264" lon="11.966558772424081"><ele>6.0</ele><time>2026-05-03T12:11:00.015Z</time></trkpt><trkpt lat="44.47305581454077" lon="11.966670670170316"><ele>6.0</ele><time>2026-05-03T12:11:03.016Z</time></trkpt><trkpt lat="44.47301698358702" lon="11.966789823186417"><ele>6.0</ele><time>2026-05-03T12:11:05.016Z</time></trkpt><trkpt lat="44.472982992305695" lon="11.966953847079104"><ele>6.0</ele><time>2026-05-03T12:11:07.016Z</time></trkpt><trkpt lat="44.4729616356702" lon="11.967055467761249"><ele>6.0</ele><time>2026-05-03T12:11:08.016Z</time></trkpt><trkpt lat="44.47293776169474" lon="11.96716845612724"><ele>6.0</ele><time>2026-05-03T12:11:09.016Z</time></trkpt><trkpt lat="44.472911599629846" lon="11.967292273249203"><ele>6.0</ele><time>2026-05-03T12:11:10.016Z</time></trkpt><trkpt lat="44.47288156924316" lon="11.967430958421374"><ele>6.0</ele><time>2026-05-03T12:11:11.016Z</time></trkpt><trkpt lat="44.47284930382604" lon="11.96757810827015"><ele>6.0</ele><time>2026-05-03T12:11:12.016Z</time></trkpt><trkpt lat="44.47281448154829" lon="11.967736916446881"><ele>6.0</ele><time>2026-05-03T12:11:13.016Z</time></trkpt><trkpt lat="44.47277486300152" lon="11.967910208885689"><ele>6.0</ele><time>2026-05-03T12:11:14.016Z</time></trkpt><trkpt lat="44.47273188806872" lon="11.96808771998302"><ele>6.0</ele><time>2026-05-03T12:11:15.016Z</time></trkpt><trkpt lat="44.47268782053673" lon="11.968270242616969"><ele>6.0</ele><time>2026-05-03T12:11:16.016Z</time></trkpt><trkpt lat="44.472640742262435" lon="11.968450172676"><ele>6.0</ele><time>2026-05-03T12:11:17.016Z</time></trkpt><trkpt lat="44.472589530098645" lon="11.968643690470596"><ele>6.0</ele><time>2026-05-03T12:11:18.016Z</time></trkpt><trkpt lat="44.47253707193198" lon="11.968834061970604"><ele>6.0</ele><time>2026-05-03T12:11:19.016Z</time></trkpt><trkpt lat="44.47248805058759" lon="11.96901788899676"><ele>6.0</ele><time>2026-05-03T12:11:20.016Z</time></trkpt><trkpt lat="44.47243110910619" lon="11.969195153553196"><ele>6.0</ele><time>2026-05-03T12:11:21.016Z</time></trkpt><trkpt lat="44.472377786731734" lon="11.96937401822571"><ele>6.25</ele><time>2026-05-03T12:11:22.016Z</time></trkpt><trkpt lat="44.472326422401515" lon="11.96955573357533"><ele>6.5</ele><time>2026-05-03T12:11:23.016Z</time></trkpt><trkpt lat="44.47227530561328" lon="11.969743476846702"><ele>6.75</ele><time>2026-05-03T12:11:24.016Z</time></trkpt><trkpt lat="44.47222198323051" lon="11.969918351701386"><ele>7.0</ele><time>2026-05-03T12:11:25.016Z</time></trkpt><trkpt lat="44.472168399824305" lon="11.970092842865345"><ele>7.0</ele><time>2026-05-03T12:11:26.016Z</time></trkpt><trkpt lat="44.47212108968206" lon="11.970249623823944"><ele>6.999999999999999</ele><time>2026-05-03T12:11:27.016Z</time></trkpt><trkpt lat="44.47208109989876" lon="11.970386297382818"><ele>6.999999999999999</ele><time>2026-05-03T12:11:28.016Z</time></trkpt><trkpt lat="44.47204443688576" lon="11.970515230259329"><ele>7.0</ele><time>2026-05-03T12:11:29.016Z</time></trkpt><trkpt lat="44.47200989535777" lon="11.970641697223545"><ele>7.0</ele><time>2026-05-03T12:11:30.016Z</time></trkpt><trkpt lat="44.47197491453589" lon="11.970755585684607"><ele>6.833333333333334</ele><time>2026-05-03T12:11:31.016Z</time></trkpt><trkpt lat="44.47194583502622" lon="11.97084773568715"><ele>6.666666666666667</ele><time>2026-05-03T12:11:32.016Z</time></trkpt><trkpt lat="44.47191412620108" lon="11.97095430328023"><ele>6.5</ele><time>2026-05-03T12:11:34.016Z</time></trkpt><trkpt lat="44.471894365071684" lon="11.971039823642473"><ele>6.333333333333334</ele><time>2026-05-03T12:11:39.016Z</time></trkpt><trkpt lat="44.47186115785219" lon="11.971123757864436"><ele>6.166666666666667</ele><time>2026-05-03T12:11:44.017Z</time></trkpt><trkpt lat="44.47192200171749" lon="11.971071434934714"><ele>6.0</ele><time>2026-05-03T12:16:42.013Z</time></trkpt><trkpt lat="44.4719560175844" lon="11.970917683809676"><ele>6.0</ele><time>2026-05-03T12:16:44.013Z</time></trkpt><trkpt lat="44.471998186791645" lon="11.970799976300762"><ele>6.0</ele><time>2026-05-03T12:17:05.006Z</time></trkpt><trkpt lat="44.472023724568594" lon="11.970704585968017"><ele>6.0</ele><time>2026-05-03T12:17:10.005Z</time></trkpt><trkpt lat="44.47205307677944" lon="11.97061614586756"><ele>6.0</ele><time>2026-05-03T12:17:16.004Z</time></trkpt><trkpt lat="44.472081363802424" lon="11.970531965095756"><ele>6.0</ele><time>2026-05-03T12:17:24.003Z</time></trkpt><trkpt lat="44.47211032230732" lon="11.970440325125542"><ele>6.0</ele><time>2026-05-03T12:17:32.003Z</time></trkpt><trkpt lat="44.472131874360926" lon="11.970331035427034"><ele>6.0</ele><time>2026-05-03T12:17:37.003Z</time></trkpt><trkpt lat="44.47216844506934" lon="11.97022690673427"><ele>6.0</ele><time>2026-05-03T12:17:40.003Z</time></trkpt><trkpt lat="44.472105464140625" lon="11.970118577890634"><ele>6.0</ele><time>2026-05-03T12:17:42.003Z</time></trkpt><trkpt lat="44.47203699922738" lon="11.970072922272713"><ele>6.0</ele><time>2026-05-03T12:17:44.003Z</time></trkpt><trkpt lat="44.471955034548216" lon="11.970035536096592"><ele>6.0</ele><time>2026-05-03T12:17:46.003Z</time></trkpt><trkpt lat="44.471837063903834" lon="11.969975974916226"><ele>6.166666666666667</ele><time>2026-05-03T12:17:48.003Z</time></trkpt><trkpt lat="44.47176858394199" lon="11.969942378468867"><ele>6.333333333333334</ele><time>2026-05-03T12:17:49.003Z</time></trkpt><trkpt lat="44.47169703949673" lon="11.969908792273099"><ele>6.5</ele><time>2026-05-03T12:17:50.003Z</time></trkpt><trkpt lat="44.47162263514143" lon="11.969871154730289"><ele>6.666666666666667</ele><time>2026-05-03T12:17:51.003Z</time></trkpt><trkpt lat="44.471547900959926" lon="11.969833473252926"><ele>6.833333333333334</ele><time>2026-05-03T12:17:52.003Z</time></trkpt><trkpt lat="44.47147379464323" lon="11.969794686101093"><ele>7.0</ele><time>2026-05-03T12:17:53.003Z</time></trkpt><trkpt lat="44.47139434711007" lon="11.969755924951071"><ele>7.000000000000001</ele><time>2026-05-03T12:17:54.003Z</time></trkpt><trkpt lat="44.47131069231767" lon="11.969713783610771"><ele>7.0</ele><time>2026-05-03T12:17:55.003Z</time></trkpt><trkpt lat="44.471220807879845" lon="11.96967310280328"><ele>7.0</ele><time>2026-05-03T12:17:56.003Z</time></trkpt><trkpt lat="44.47113893217393" lon="11.969632495712426"><ele>7.0</ele><time>2026-05-03T12:17:57.003Z</time></trkpt><trkpt lat="44.47105780646771" lon="11.96959178307314"><ele>7.000000000000001</ele><time>2026-05-03T12:17:58.003Z</time></trkpt><trkpt lat="44.47098284227606" lon="11.969553151887832"><ele>7.0</ele><time>2026-05-03T12:17:59.003Z</time></trkpt><trkpt lat="44.47090837451994" lon="11.969516963929141"><ele>7.000000000000001</ele><time>2026-05-03T12:18:00.003Z</time></trkpt><trkpt lat="44.47083473043534" lon="11.969477058629087"><ele>7.0</ele><time>2026-05-03T12:18:01.003Z</time></trkpt><trkpt lat="44.47076326309857" lon="11.969442414053809"><ele>7.0</ele><time>2026-05-03T12:18:02.003Z</time></trkpt><trkpt lat="44.47069102541372" lon="11.969402076641511"><ele>7.0</ele><time>2026-05-03T12:18:03.003Z</time></trkpt><trkpt lat="44.4706234176568" lon="11.969373518786108"><ele>7.000000000000001</ele><time>2026-05-03T12:18:04.003Z</time></trkpt><trkpt lat="44.47053239540434" lon="11.969331788842325"><ele>7.0</ele><time>2026-05-03T12:18:06.003Z</time></trkpt><trkpt lat="44.4705018178706" lon="11.969250871703395"><ele>7.0</ele><time>2026-05-03T12:18:08.003Z</time></trkpt><trkpt lat="44.47055678112193" lon="11.96911905006916"><ele>6.999999999999999</ele><time>2026-05-03T12:18:10.003Z</time></trkpt><trkpt lat="44.47060233221695" lon="11.968946471353654"><ele>6.999999999999999</ele><time>2026-05-03T12:18:12.003Z</time></trkpt><trkpt lat="44.47062908876251" lon="11.968845234460032"><ele>7.0</ele><time>2026-05-03T12:18:13.003Z</time></trkpt><trkpt lat="44.470658837337346" lon="11.968732676742787"><ele>7.0</ele><time>2026-05-03T12:18:14.003Z</time></trkpt><trkpt lat="44.470689869602765" lon="11.968615262015955"><ele>7.000000000000001</ele><time>2026-05-03T12:18:15.003Z</time></trkpt><trkpt lat="44.470721404239924" lon="11.968495946516965"><ele>7.0</ele><time>2026-05-03T12:18:16.003Z</time></trkpt><trkpt lat="44.470753295038456" lon="11.96837528346233"><ele>7.0</ele><time>2026-05-03T12:18:17.003Z</time></trkpt><trkpt lat="44.47078261086674" lon="11.968264363111114"><ele>7.0</ele><time>2026-05-03T12:18:18.003Z</time></trkpt><trkpt lat="44.47081215088488" lon="11.968152594524971"><ele>7.000000000000001</ele><time>2026-05-03T12:18:19.003Z</time></trkpt><trkpt lat="44.47084316141912" lon="11.968035262062166"><ele>7.0</ele><time>2026-05-03T12:18:20.003Z</time></trkpt><trkpt lat="44.47087206245804" lon="11.96792591111331"><ele>7.199999999999999</ele><time>2026-05-03T12:18:21.003Z</time></trkpt><trkpt lat="44.47090376863481" lon="11.96780594659642"><ele>7.3999999999999995</ele><time>2026-05-03T12:18:22.003Z</time></trkpt><trkpt lat="44.47093655250004" lon="11.967680296894615"><ele>7.6000000000000005</ele><time>2026-05-03T12:18:23.003Z</time></trkpt><trkpt lat="44.47095105287516" lon="11.967556570127575"><ele>7.800000000000001</ele><time>2026-05-03T12:18:24.003Z</time></trkpt><trkpt lat="44.470992115661026" lon="11.96744317781591"><ele>8.0</ele><time>2026-05-03T12:18:25.003Z</time></trkpt><trkpt lat="44.47102518900517" lon="11.967328429723926"><ele>7.999999999999999</ele><time>2026-05-03T12:18:26.003Z</time></trkpt><trkpt lat="44.47105513602543" lon="11.967221737062665"><ele>8.0</ele><time>2026-05-03T12:18:27.004Z</time></trkpt><trkpt lat="44.471087213915084" lon="11.967105306716247"><ele>8.0</ele><time>2026-05-03T12:18:28.004Z</time></trkpt><trkpt lat="44.471120049604345" lon="11.966992023840888"><ele>8.0</ele><time>2026-05-03T12:18:29.004Z</time></trkpt><trkpt lat="44.47115437932569" lon="11.966882754072648"><ele>7.999999999999999</ele><time>2026-05-03T12:18:30.004Z</time></trkpt><trkpt lat="44.47118810197732" lon="11.966771698151641"><ele>8.0</ele><time>2026-05-03T12:18:31.004Z</time></trkpt><trkpt lat="44.47121381663412" lon="11.966671772840224"><ele>7.999999999999999</ele><time>2026-05-03T12:18:32.004Z</time></trkpt><trkpt lat="44.471241398025505" lon="11.966576115679045"><ele>8.0</ele><time>2026-05-03T12:18:33.004Z</time></trkpt><trkpt lat="44.47126787781938" lon="11.966486189105089"><ele>8.0</ele><time>2026-05-03T12:18:34.004Z</time></trkpt><trkpt lat="44.471291354811825" lon="11.966394379445777"><ele>8.0</ele><time>2026-05-03T12:18:35.004Z</time></trkpt><trkpt lat="44.471321629981816" lon="11.966263862938428"><ele>7.999999999999999</ele><time>2026-05-03T12:18:36.999Z</time></trkpt><trkpt lat="44.47135254582017" lon="11.96616835960417"><ele>8.0</ele><time>2026-05-03T12:18:39Z</time></trkpt><trkpt lat="44.47137647228174" lon="11.966077688620144"><ele>8.0</ele><time>2026-05-03T12:18:47Z</time></trkpt><trkpt lat="44.47135408573241" lon="11.9659838419758"><ele>8.0</ele><time>2026-05-03T12:18:48.999Z</time></trkpt><trkpt lat="44.471263152015645" lon="11.965929093928331"><ele>8.0</ele><time>2026-05-03T12:18:50.999Z</time></trkpt><trkpt lat="44.471143164783626" lon="11.96587956115256"><ele>8.0</ele><time>2026-05-03T12:18:52.999Z</time></trkpt><trkpt lat="44.47107060126449" lon="11.965847494028926"><ele>8.0</ele><time>2026-05-03T12:18:53.999Z</time></trkpt><trkpt lat="44.47098962628287" lon="11.965809307187028"><ele>7.800000000000001</ele><time>2026-05-03T12:18:54.999Z</time></trkpt><trkpt lat="44.47090223644756" lon="11.96576738108235"><ele>7.6000000000000005</ele><time>2026-05-03T12:18:55.999Z</time></trkpt><trkpt lat="44.47081435559615" lon="11.965724305472682"><ele>7.3999999999999995</ele><time>2026-05-03T12:18:56.999Z</time></trkpt><trkpt lat="44.4707251884163" lon="11.965680975184519"><ele>7.199999999999999</ele><time>2026-05-03T12:18:57.999Z</time></trkpt><trkpt lat="44.4706318538706" lon="11.965635754776217"><ele>7.0</ele><time>2026-05-03T12:18:58.999Z</time></trkpt><trkpt lat="44.47053579878766" lon="11.965589630413334"><ele>7.0</ele><time>2026-05-03T12:18:59.999Z</time></trkpt><trkpt lat="44.47043737447052" lon="11.965541882002904"><ele>6.999999999999999</ele><time>2026-05-03T12:19:00.999Z</time></trkpt><trkpt lat="44.47033803092461" lon="11.965498621092147"><ele>6.999999999999999</ele><time>2026-05-03T12:19:01.999Z</time></trkpt><trkpt lat="44.47023633678938" lon="11.965450431756953"><ele>7.0</ele><time>2026-05-03T12:19:02.999Z</time></trkpt><trkpt lat="44.470130396516865" lon="11.965404034282576"><ele>7.0</ele><time>2026-05-03T12:19:03.999Z</time></trkpt><trkpt lat="44.470022186950914" lon="11.965358013483542"><ele>7.0</ele><time>2026-05-03T12:19:04.999Z</time></trkpt><trkpt lat="44.46991295098402" lon="11.965307672262373"><ele>6.999999999999999</ele><time>2026-05-03T12:19:05.999Z</time></trkpt><trkpt lat="44.46980683422286" lon="11.965265030163593"><ele>6.999999999999999</ele><time>2026-05-03T12:19:06.999Z</time></trkpt><trkpt lat="44.46970616304146" lon="11.965226102728579"><ele>7.0</ele><time>2026-05-03T12:19:07.999Z</time></trkpt><trkpt lat="44.469598787674286" lon="11.965158065703667"><ele>7.0</ele><time>2026-05-03T12:19:08.999Z</time></trkpt><trkpt lat="44.469492128337244" lon="11.96511292163569"><ele>7.0</ele><time>2026-05-03T12:19:09.999Z</time></trkpt><trkpt lat="44.46938284578096" lon="11.965066667293575"><ele>7.0</ele><time>2026-05-03T12:19:10.999Z</time></trkpt><trkpt lat="44.469267916095546" lon="11.965018022767799"><ele>7.0</ele><time>2026-05-03T12:19:11.999Z</time></trkpt><trkpt lat="44.46915301945249" lon="11.964969392588833"><ele>7.0</ele><time>2026-05-03T12:19:12.999Z</time></trkpt><trkpt lat="44.46903514129432" lon="11.964938790601968"><ele>6.75</ele><time>2026-05-03T12:19:13.999Z</time></trkpt><trkpt lat="44.46891354198785" lon="11.964877515556644"><ele>6.5</ele><time>2026-05-03T12:19:14.999Z</time></trkpt><trkpt lat="44.46879968618169" lon="11.964820066377847"><ele>6.25</ele><time>2026-05-03T12:19:15.999Z</time></trkpt><trkpt lat="44.468686224661845" lon="11.964760083882098"><ele>6.0</ele><time>2026-05-03T12:19:17Z</time></trkpt><trkpt lat="44.46856575295644" lon="11.964710124726523"><ele>6.5</ele><time>2026-05-03T12:19:18Z</time></trkpt><trkpt lat="44.46843772324966" lon="11.964654980031188"><ele>7.0</ele><time>2026-05-03T12:19:19Z</time></trkpt><trkpt lat="44.468320226828" lon="11.964599162719725"><ele>7.5</ele><time>2026-05-03T12:19:20Z</time></trkpt><trkpt lat="44.46819858498018" lon="11.964539158315896"><ele>8.0</ele><time>2026-05-03T12:19:21Z</time></trkpt><trkpt lat="44.46807085884823" lon="11.964485169865085"><ele>8.0</ele><time>2026-05-03T12:19:22Z</time></trkpt><trkpt lat="44.467952862319244" lon="11.964434954321401"><ele>8.0</ele><time>2026-05-03T12:19:23Z</time></trkpt><trkpt lat="44.46784207868191" lon="11.964355725341925"><ele>8.0</ele><time>2026-05-03T12:19:24Z</time></trkpt><trkpt lat="44.467735305778035" lon="11.964312740712343"><ele>8.0</ele><time>2026-05-03T12:19:25Z</time></trkpt><trkpt lat="44.46762904853916" lon="11.96426741122843"><ele>8.200000000000001</ele><time>2026-05-03T12:19:26Z</time></trkpt><trkpt lat="44.467528177753394" lon="11.96422452032194"><ele>8.4</ele><time>2026-05-03T12:19:27Z</time></trkpt><trkpt lat="44.46742559635616" lon="11.964189207488685"><ele>8.600000000000001</ele><time>2026-05-03T12:19:28Z</time></trkpt><trkpt lat="44.467320802818634" lon="11.96416081439183"><ele>8.8</ele><time>2026-05-03T12:19:29Z</time></trkpt><trkpt lat="44.46722545870994" lon="11.964130050474578"><ele>9.0</ele><time>2026-05-03T12:19:30Z</time></trkpt><trkpt lat="44.46715137347523" lon="11.964112726111493"><ele>9.142857142857144</ele><time>2026-05-03T12:19:31Z</time></trkpt><trkpt lat="44.46708323082167" lon="11.964083861276405"><ele>9.285714285714286</ele><time>2026-05-03T12:19:32Z</time></trkpt><trkpt lat="44.466987578374386" lon="11.96405312215835"><ele>9.428571428571429</ele><time>2026-05-03T12:19:34Z</time></trkpt><trkpt lat="44.46692482650834" lon="11.964036241152462"><ele>9.571428571428573</ele><time>2026-05-03T12:19:41Z</time></trkpt><trkpt lat="44.466855710064735" lon="11.96401195319587"><ele>9.714285714285715</ele><time>2026-05-03T12:19:44Z</time></trkpt><trkpt lat="44.4667931541683" lon="11.964065295261646"><ele>9.857142857142858</ele><time>2026-05-03T12:19:46Z</time></trkpt><trkpt lat="44.466727105859576" lon="11.964102747987951"><ele>10.0</ele><time>2026-05-03T12:19:48Z</time></trkpt><trkpt lat="44.466700082589576" lon="11.964191839316621"><ele>9.6</ele><time>2026-05-03T12:19:50Z</time></trkpt><trkpt lat="44.466727236589925" lon="11.9643428456145"><ele>9.2</ele><time>2026-05-03T12:19:52Z</time></trkpt><trkpt lat="44.46673362849331" lon="11.96443167695562"><ele>8.8</ele><time>2026-05-03T12:19:53Z</time></trkpt><trkpt lat="44.46670959327133" lon="11.96461243473288"><ele>8.4</ele><time>2026-05-03T12:19:55Z</time></trkpt><trkpt lat="44.46669345911423" lon="11.964713169124158"><ele>8.0</ele><time>2026-05-03T12:19:56Z</time></trkpt><trkpt lat="44.46667397378024" lon="11.964823523192777"><ele>7.999999999999999</ele><time>2026-05-03T12:19:57Z</time></trkpt><trkpt lat="44.46665702751844" lon="11.96494018484335"><ele>8.0</ele><time>2026-05-03T12:19:58Z</time></trkpt><trkpt lat="44.46663809347124" lon="11.965054418140703"><ele>8.0</ele><time>2026-05-03T12:19:59Z</time></trkpt><trkpt lat="44.466621935003005" lon="11.965160687857997"><ele>8.0</ele><time>2026-05-03T12:20:00Z</time></trkpt><trkpt lat="44.46660610300125" lon="11.965258800041056"><ele>7.999999999999999</ele><time>2026-05-03T12:20:01Z</time></trkpt><trkpt lat="44.46658544603365" lon="11.965358064161839"><ele>8.0</ele><time>2026-05-03T12:20:02Z</time></trkpt><trkpt lat="44.46656863329999" lon="11.965518200941602"><ele>8.0</ele><time>2026-05-03T12:20:04.001Z</time></trkpt><trkpt lat="44.46655182043811" lon="11.965611999564468"><ele>7.999999999999999</ele><time>2026-05-03T12:20:05.001Z</time></trkpt><trkpt lat="44.46653932170917" lon="11.965711796634144"><ele>8.0</ele><time>2026-05-03T12:20:06.001Z</time></trkpt><trkpt lat="44.466523332973665" lon="11.965812578799156"><ele>8.0</ele><time>2026-05-03T12:20:07.001Z</time></trkpt><trkpt lat="44.466509610523346" lon="11.965922965659004"><ele>7.999999999999999</ele><time>2026-05-03T12:20:08.001Z</time></trkpt><trkpt lat="44.46649037985304" lon="11.966025318838192"><ele>8.0</ele><time>2026-05-03T12:20:09.001Z</time></trkpt><trkpt lat="44.466471375321895" lon="11.96613231378087"><ele>8.0</ele><time>2026-05-03T12:20:10.001Z</time></trkpt><trkpt lat="44.46645471105961" lon="11.966238036638496"><ele>7.999999999999999</ele><time>2026-05-03T12:20:11.001Z</time></trkpt><trkpt lat="44.466433988885136" lon="11.966352466503768"><ele>8.0</ele><time>2026-05-03T12:20:12.001Z</time></trkpt><trkpt lat="44.46642364586809" lon="11.966476949243795"><ele>8.0</ele><time>2026-05-03T12:20:13.001Z</time></trkpt><trkpt lat="44.466399223721396" lon="11.966591722948312"><ele>8.0</ele><time>2026-05-03T12:20:14.001Z</time></trkpt><trkpt lat="44.46637316431806" lon="11.966694598364356"><ele>7.999999999999999</ele><time>2026-05-03T12:20:15.001Z</time></trkpt><trkpt lat="44.46636272652054" lon="11.96678849306534"><ele>8.0</ele><time>2026-05-03T12:20:16.001Z</time></trkpt><trkpt lat="44.466336261652955" lon="11.966882344569818"><ele>7.833333333333333</ele><time>2026-05-03T12:20:17.001Z</time></trkpt><trkpt lat="44.46630462912884" lon="11.966992516532452"><ele>7.666666666666666</ele><time>2026-05-03T12:20:18.001Z</time></trkpt><trkpt lat="44.466273858746916" lon="11.967082016965831"><ele>7.5</ele><time>2026-05-03T12:20:19.001Z</time></trkpt><trkpt lat="44.46624294610405" lon="11.967176524923866"><ele>7.333333333333334</ele><time>2026-05-03T12:20:20.001Z</time></trkpt><trkpt lat="44.46619422250294" lon="11.967273912509274"><ele>7.166666666666667</ele><time>2026-05-03T12:20:21.001Z</time></trkpt><trkpt lat="44.46613786573472" lon="11.967361406159881"><ele>7.0</ele><time>2026-05-03T12:20:22.001Z</time></trkpt><trkpt lat="44.46608477130795" lon="11.96744811322062"><ele>7.3999999999999995</ele><time>2026-05-03T12:20:23.001Z</time></trkpt><trkpt lat="44.46602214680557" lon="11.967533435853253"><ele>7.799999999999999</ele><time>2026-05-03T12:20:24.001Z</time></trkpt><trkpt lat="44.46594647473971" lon="11.967626382207216"><ele>8.2</ele><time>2026-05-03T12:20:25.001Z</time></trkpt><trkpt lat="44.46587840508259" lon="11.967708732110339"><ele>8.6</ele><time>2026-05-03T12:20:26.001Z</time></trkpt><trkpt lat="44.46581109748552" lon="11.96779478885967"><ele>9.0</ele><time>2026-05-03T12:20:27.001Z</time></trkpt><trkpt lat="44.46573904614868" lon="11.96787648480644"><ele>9.0</ele><time>2026-05-03T12:20:28.001Z</time></trkpt><trkpt lat="44.46566609660867" lon="11.967945423301991"><ele>9.0</ele><time>2026-05-03T12:20:29.001Z</time></trkpt><trkpt lat="44.46559022038882" lon="11.968007348042951"><ele>9.0</ele><time>2026-05-03T12:20:30.001Z</time></trkpt><trkpt lat="44.46551483881261" lon="11.968083141586538"><ele>9.0</ele><time>2026-05-03T12:20:31.001Z</time></trkpt><trkpt lat="44.46544698370839" lon="11.968141999326468"><ele>9.0</ele><time>2026-05-03T12:20:32.001Z</time></trkpt><trkpt lat="44.465377042323404" lon="11.968199532856222"><ele>9.0</ele><time>2026-05-03T12:20:33.001Z</time></trkpt><trkpt lat="44.46530706760747" lon="11.968263381391846"><ele>9.2</ele><time>2026-05-03T12:20:34.001Z</time></trkpt><trkpt lat="44.46523160855455" lon="11.968327375063204"><ele>9.4</ele><time>2026-05-03T12:20:35.001Z</time></trkpt><trkpt lat="44.46515323976389" lon="11.968399513634346"><ele>9.6</ele><time>2026-05-03T12:20:36.001Z</time></trkpt><trkpt lat="44.46507320511171" lon="11.968469008745561"><ele>9.8</ele><time>2026-05-03T12:20:37.001Z</time></trkpt><trkpt lat="44.4649877849532" lon="11.96854155652228"><ele>10.0</ele><time>2026-05-03T12:20:38.001Z</time></trkpt><trkpt lat="44.464898426479614" lon="11.968618384853448"><ele>9.75</ele><time>2026-05-03T12:20:39.001Z</time></trkpt><trkpt lat="44.464808251493594" lon="11.968700714087246"><ele>9.5</ele><time>2026-05-03T12:20:40.001Z</time></trkpt><trkpt lat="44.464711251973526" lon="11.968787882401895"><ele>9.25</ele><time>2026-05-03T12:20:41.001Z</time></trkpt><trkpt lat="44.46461597453475" lon="11.968879011788601"><ele>9.0</ele><time>2026-05-03T12:20:41.997Z</time></trkpt><trkpt lat="44.46451761752299" lon="11.968969118501903"><ele>9.0</ele><time>2026-05-03T12:20:42.997Z</time></trkpt><trkpt lat="44.46441642729726" lon="11.96906572420394"><ele>9.0</ele><time>2026-05-03T12:20:43.997Z</time></trkpt><trkpt lat="44.4643155220014" lon="11.969161313116148"><ele>9.0</ele><time>2026-05-03T12:20:44.997Z</time></trkpt><trkpt lat="44.464211175744985" lon="11.969253297189653"><ele>9.0</ele><time>2026-05-03T12:20:45.997Z</time></trkpt><trkpt lat="44.464106695189905" lon="11.969343413129035"><ele>9.0</ele><time>2026-05-03T12:20:46.997Z</time></trkpt><trkpt lat="44.4639992054187" lon="11.969432293871956"><ele>9.0</ele><time>2026-05-03T12:20:47.997Z</time></trkpt><trkpt lat="44.463890924472125" lon="11.969516151852018"><ele>9.0</ele><time>2026-05-03T12:20:48.997Z</time></trkpt><trkpt lat="44.46378255661846" lon="11.969593990138513"><ele>9.0</ele><time>2026-05-03T12:20:49.997Z</time></trkpt><trkpt lat="44.46368055044956" lon="11.969657978594151"><ele>9.0</ele><time>2026-05-03T12:20:50.997Z</time></trkpt><trkpt lat="44.46358727866251" lon="11.9697095392948"><ele>9.0</ele><time>2026-05-03T12:20:51.997Z</time></trkpt><trkpt lat="44.463504526434036" lon="11.969754643745427"><ele>9.0</ele><time>2026-05-03T12:20:52.997Z</time></trkpt><trkpt lat="44.46342590988106" lon="11.969789841527657"><ele>9.0</ele><time>2026-05-03T12:20:53.997Z</time></trkpt><trkpt lat="44.46335882155001" lon="11.969821522031914"><ele>9.0</ele><time>2026-05-03T12:20:54.997Z</time></trkpt><trkpt lat="44.46324351971176" lon="11.969870888401688"><ele>9.0</ele><time>2026-05-03T12:20:56.997Z</time></trkpt><trkpt lat="44.46315249231579" lon="11.969880418066497"><ele>9.0</ele><time>2026-05-03T12:20:58.997Z</time></trkpt><trkpt lat="44.463084863029565" lon="11.969878734550957"><ele>9.0</ele><time>2026-05-03T12:21:07.997Z</time></trkpt><trkpt lat="44.46302778322132" lon="11.969921060188486"><ele>9.0</ele><time>2026-05-03T12:21:30.998Z</time></trkpt><trkpt lat="44.46310118664701" lon="11.969918502312513"><ele>9.0</ele><time>2026-05-03T12:21:56.998Z</time></trkpt><trkpt lat="44.463167354230045" lon="11.9698934250871"><ele>9.0</ele><time>2026-05-03T12:21:59.998Z</time></trkpt><trkpt lat="44.4632636211696" lon="11.969855153773908"><ele>9.0</ele><time>2026-05-03T12:22:02.998Z</time></trkpt><trkpt lat="44.4633585281519" lon="11.969812882832468"><ele>9.0</ele><time>2026-05-03T12:22:04.998Z</time></trkpt><trkpt lat="44.46345733309171" lon="11.969763964227726"><ele>9.0</ele><time>2026-05-03T12:22:06.998Z</time></trkpt><trkpt lat="44.46352822757634" lon="11.969672295581057"><ele>9.0</ele><time>2026-05-03T12:22:07.998Z</time></trkpt><trkpt lat="44.463591435193976" lon="11.96963146854471"><ele>9.0</ele><time>2026-05-03T12:22:08.998Z</time></trkpt><trkpt lat="44.46368012492791" lon="11.969570780915916"><ele>9.0</ele><time>2026-05-03T12:22:10.999Z</time></trkpt><trkpt lat="44.46376140863331" lon="11.969514083535095"><ele>9.0</ele><time>2026-05-03T12:22:11.999Z</time></trkpt><trkpt lat="44.46384103918021" lon="11.96943150189406"><ele>9.0</ele><time>2026-05-03T12:22:12.999Z</time></trkpt><trkpt lat="44.46393261344878" lon="11.969367961923565"><ele>9.0</ele><time>2026-05-03T12:22:13.999Z</time></trkpt><trkpt lat="44.46401761637205" lon="11.969300405947982"><ele>9.0</ele><time>2026-05-03T12:22:14.999Z</time></trkpt><trkpt lat="44.46405746057974" lon="11.969176702545768"><ele>9.0</ele><time>2026-05-03T12:22:15.999Z</time></trkpt><trkpt lat="44.46408774337813" lon="11.96907277410941"><ele>9.0</ele><time>2026-05-03T12:22:16.999Z</time></trkpt><trkpt lat="44.46412200739486" lon="11.96896846029258"><ele>9.0</ele><time>2026-05-03T12:22:17.999Z</time></trkpt><trkpt lat="44.46416422703799" lon="11.968848564034463"><ele>9.0</ele><time>2026-05-03T12:22:18.999Z</time></trkpt><trkpt lat="44.46420629784307" lon="11.968729090781554"><ele>9.0</ele><time>2026-05-03T12:22:19.999Z</time></trkpt><trkpt lat="44.46425547256064" lon="11.968615413626772"><ele>9.0</ele><time>2026-05-03T12:22:20.999Z</time></trkpt><trkpt lat="44.464306509490534" lon="11.968506167968846"><ele>8.5</ele><time>2026-05-03T12:22:21.999Z</time></trkpt><trkpt lat="44.464738516423004" lon="11.968655714570149"><ele>8.0</ele><time>2026-05-03T12:22:22.999Z</time></trkpt><trkpt lat="44.46483829846566" lon="11.968575825286859"><ele>8.0</ele><time>2026-05-03T12:22:23.999Z</time></trkpt><trkpt lat="44.464931650183125" lon="11.968499215829258"><ele>8.0</ele><time>2026-05-03T12:22:24.999Z</time></trkpt><trkpt lat="44.46507387911932" lon="11.968515317905322"><ele>8.0</ele><time>2026-05-03T12:22:25.999Z</time></trkpt><trkpt lat="44.465160870542086" lon="11.96843558899454"><ele>8.0</ele><time>2026-05-03T12:22:26.999Z</time></trkpt><trkpt lat="44.46524768837179" lon="11.968358847993207"><ele>8.200000000000001</ele><time>2026-05-03T12:22:27.999Z</time></trkpt><trkpt lat="44.46533533044508" lon="11.968281659081866"><ele>8.4</ele><time>2026-05-03T12:22:28.999Z</time></trkpt><trkpt lat="44.46542126572004" lon="11.968205457335271"><ele>8.600000000000001</ele><time>2026-05-03T12:22:29.999Z</time></trkpt><trkpt lat="44.46550795980252" lon="11.96812858272827"><ele>8.8</ele><time>2026-05-03T12:22:30.999Z</time></trkpt><trkpt lat="44.4656059496356" lon="11.968042267637372"><ele>9.0</ele><time>2026-05-03T12:22:31.999Z</time></trkpt><trkpt lat="44.46569989469181" lon="11.967959342157974"><ele>9.0</ele><time>2026-05-03T12:22:32.999Z</time></trkpt><trkpt lat="44.465784294828076" lon="11.967880876407778"><ele>9.0</ele><time>2026-05-03T12:22:33.999Z</time></trkpt><trkpt lat="44.4658678292973" lon="11.967800017652664"><ele>9.0</ele><time>2026-05-03T12:22:34.999Z</time></trkpt><trkpt lat="44.46595194689931" lon="11.967706554325364"><ele>9.0</ele><time>2026-05-03T12:22:35.999Z</time></trkpt><trkpt lat="44.46602496139005" lon="11.967615955336722"><ele>9.0</ele><time>2026-05-03T12:22:36.999Z</time></trkpt><trkpt lat="44.466086044591606" lon="11.967503336451477"><ele>9.2</ele><time>2026-05-03T12:22:37.999Z</time></trkpt><trkpt lat="44.46615116553296" lon="11.96739722703839"><ele>9.4</ele><time>2026-05-03T12:22:38.999Z</time></trkpt><trkpt lat="44.46621591085696" lon="11.9672792015825"><ele>9.6</ele><time>2026-05-03T12:22:39.999Z</time></trkpt><trkpt lat="44.466266920376526" lon="11.967171980846192"><ele>9.8</ele><time>2026-05-03T12:22:40.999Z</time></trkpt><trkpt lat="44.46630723232753" lon="11.96704543338349"><ele>10.0</ele><time>2026-05-03T12:22:41.999Z</time></trkpt><trkpt lat="44.466358035650394" lon="11.966929771942908"><ele>9.6</ele><time>2026-05-03T12:22:42.999Z</time></trkpt><trkpt lat="44.46637517594868" lon="11.966794176440084"><ele>9.2</ele><time>2026-05-03T12:22:43.999Z</time></trkpt><trkpt lat="44.46640172216893" lon="11.966665188360542"><ele>8.8</ele><time>2026-05-03T12:22:44.999Z</time></trkpt><trkpt lat="44.46644294070073" lon="11.966537575082981"><ele>8.4</ele><time>2026-05-03T12:22:45.999Z</time></trkpt><trkpt lat="44.46646321636763" lon="11.966412910019095"><ele>8.0</ele><time>2026-05-03T12:22:46.999Z</time></trkpt><trkpt lat="44.46648507051822" lon="11.966282201837041"><ele>8.0</ele><time>2026-05-03T12:22:47.995Z</time></trkpt><trkpt lat="44.46650965893072" lon="11.966155295274135"><ele>8.0</ele><time>2026-05-03T12:22:48.996Z</time></trkpt><trkpt lat="44.46652606428975" lon="11.966032709063818"><ele>8.0</ele><time>2026-05-03T12:22:49.996Z</time></trkpt><trkpt lat="44.466545459315554" lon="11.965912000671278"><ele>8.0</ele><time>2026-05-03T12:22:50.995Z</time></trkpt><trkpt lat="44.4665668854866" lon="11.965784888903563"><ele>8.0</ele><time>2026-05-03T12:22:51.995Z</time></trkpt><trkpt lat="44.46658497862411" lon="11.965649221455534"><ele>7.999999999999999</ele><time>2026-05-03T12:22:52.995Z</time></trkpt><trkpt lat="44.4666071153452" lon="11.965518291456698"><ele>8.0</ele><time>2026-05-03T12:22:53.995Z</time></trkpt><trkpt lat="44.466628307208964" lon="11.96539237410621"><ele>8.0</ele><time>2026-05-03T12:22:54.996Z</time></trkpt><trkpt lat="44.46665332464993" lon="11.965262808185772"><ele>8.0</ele><time>2026-05-03T12:22:55.996Z</time></trkpt><trkpt lat="44.46666485941955" lon="11.96516075925562"><ele>7.999999999999999</ele><time>2026-05-03T12:22:56.995Z</time></trkpt><trkpt lat="44.46668900847864" lon="11.965072415505988"><ele>8.0</ele><time>2026-05-03T12:22:57.995Z</time></trkpt><trkpt lat="44.466709653979606" lon="11.96498386081172"><ele>7.999999999999999</ele><time>2026-05-03T12:22:58.995Z</time></trkpt><trkpt lat="44.46672597065623" lon="11.964895501213329"><ele>8.0</ele><time>2026-05-03T12:22:59.996Z</time></trkpt><trkpt lat="44.466739313644865" lon="11.964791063262885"><ele>8.0</ele><time>2026-05-03T12:23:00.995Z</time></trkpt><trkpt lat="44.46676217469774" lon="11.96461609261916"><ele>8.0</ele><time>2026-05-03T12:23:02.995Z</time></trkpt><trkpt lat="44.46677395971638" lon="11.96448985722997"><ele>7.999999999999999</ele><time>2026-05-03T12:23:04.995Z</time></trkpt><trkpt lat="44.466778625021426" lon="11.964399842427351"><ele>8.0</ele><time>2026-05-03T12:23:11.995Z</time></trkpt><trkpt lat="44.46680602264371" lon="11.96431062494446"><ele>7.999999999999999</ele><time>2026-05-03T12:23:21.995Z</time></trkpt><trkpt lat="44.4668044904611" lon="11.964201723679883"><ele>8.0</ele><time>2026-05-03T12:23:23.995Z</time></trkpt><trkpt lat="44.46675838135128" lon="11.96413162556245"><ele>8.0</ele><time>2026-05-03T12:23:26.996Z</time></trkpt><trkpt lat="44.46672136959956" lon="11.96422560306873"><ele>8.0</ele><time>2026-05-03T12:23:28.996Z</time></trkpt><trkpt lat="44.46669502625213" lon="11.96434878479695"><ele>7.999999999999999</ele><time>2026-05-03T12:23:30.996Z</time></trkpt><trkpt lat="44.466666671242834" lon="11.964431828753632"><ele>8.0</ele><time>2026-05-03T12:23:32.996Z</time></trkpt><trkpt lat="44.4666610994154" lon="11.964548102881036"><ele>8.0</ele><time>2026-05-03T12:23:55.996Z</time></trkpt><trkpt lat="44.46662270674652" lon="11.964629124975033"><ele>8.0</ele><time>2026-05-03T12:23:58.996Z</time></trkpt><trkpt lat="44.4666785865738" lon="11.964721061143207"><ele>8.0</ele><time>2026-05-03T12:24:01.996Z</time></trkpt><trkpt lat="44.46675891478285" lon="11.964658266816144"><ele>8.0</ele><time>2026-05-03T12:24:10.996Z</time></trkpt><trkpt lat="44.46678348972361" lon="11.964515267902854"><ele>8.0</ele><time>2026-05-03T12:24:12.997Z</time></trkpt><trkpt lat="44.46679357240561" lon="11.964370021405852"><ele>7.999999999999999</ele><time>2026-05-03T12:24:14.997Z</time></trkpt><trkpt lat="44.46679971418345" lon="11.964252500984784"><ele>8.0</ele><time>2026-05-03T12:24:16.997Z</time></trkpt><trkpt lat="44.46684511663405" lon="11.964129515280165"><ele>8.0</ele><time>2026-05-03T12:24:18.997Z</time></trkpt><trkpt lat="44.466946310941715" lon="11.96407546206702"><ele>8.0</ele><time>2026-05-03T12:24:20.997Z</time></trkpt><trkpt lat="44.46701499906349" lon="11.964088111810497"><ele>7.999999999999999</ele><time>2026-05-03T12:24:21.997Z</time></trkpt><trkpt lat="44.46709486562526" lon="11.964131742468243"><ele>8.0</ele><time>2026-05-03T12:24:22.997Z</time></trkpt><trkpt lat="44.467185658182245" lon="11.96416045946883"><ele>8.200000000000001</ele><time>2026-05-03T12:24:23.997Z</time></trkpt><trkpt lat="44.46728057973728" lon="11.964201095530068"><ele>8.4</ele><time>2026-05-03T12:24:24.997Z</time></trkpt><trkpt lat="44.467376527233434" lon="11.964242560384303"><ele>8.600000000000001</ele><time>2026-05-03T12:24:25.997Z</time></trkpt><trkpt lat="44.46747281101607" lon="11.964288255848253"><ele>8.8</ele><time>2026-05-03T12:24:26.997Z</time></trkpt><trkpt lat="44.467573211052375" lon="11.964330635558525"><ele>9.0</ele><time>2026-05-03T12:24:27.997Z</time></trkpt><trkpt lat="44.46767069152272" lon="11.964367709239914"><ele>9.0</ele><time>2026-05-03T12:24:28.997Z</time></trkpt><trkpt lat="44.467761028917394" lon="11.964399120906748"><ele>9.0</ele><time>2026-05-03T12:24:29.997Z</time></trkpt><trkpt lat="44.467842450494594" lon="11.964425176897429"><ele>9.0</ele><time>2026-05-03T12:24:30.997Z</time></trkpt><trkpt lat="44.46790727584093" lon="11.96444714737383"><ele>9.0</ele><time>2026-05-03T12:24:31.997Z</time></trkpt><trkpt lat="44.46798986408766" lon="11.964503096707885"><ele>9.0</ele><time>2026-05-03T12:24:33.997Z</time></trkpt><trkpt lat="44.467983598312536" lon="11.964760426791104"><ele>9.0</ele><time>2026-05-03T12:24:36.997Z</time></trkpt><trkpt lat="44.46794916567999" lon="11.964865379707682"><ele>9.0</ele><time>2026-05-03T12:24:37.997Z</time></trkpt><trkpt lat="44.467912650196155" lon="11.964954544467707"><ele>9.0</ele><time>2026-05-03T12:24:38.997Z</time></trkpt><trkpt lat="44.467886754456124" lon="11.965046975337625"><ele>9.0</ele><time>2026-05-03T12:24:39.997Z</time></trkpt><trkpt lat="44.46785593024115" lon="11.965125677114136"><ele>9.0</ele><time>2026-05-03T12:24:40.997Z</time></trkpt><trkpt lat="44.46781603701948" lon="11.965281075820888"><ele>9.0</ele><time>2026-05-03T12:24:42.997Z</time></trkpt><trkpt lat="44.46777428980971" lon="11.965404360505799"><ele>9.0</ele><time>2026-05-03T12:24:44.997Z</time></trkpt><trkpt lat="44.467741320938494" lon="11.965535416236246"><ele>9.0</ele><time>2026-05-03T12:24:46.997Z</time></trkpt><trkpt lat="44.467689872284325" lon="11.965687980929486"><ele>9.0</ele><time>2026-05-03T12:24:48.997Z</time></trkpt><trkpt lat="44.467663361079964" lon="11.965776566310652"><ele>9.0</ele><time>2026-05-03T12:24:49.997Z</time></trkpt><trkpt lat="44.46762641724011" lon="11.965873721329539"><ele>9.0</ele><time>2026-05-03T12:24:50.997Z</time></trkpt><trkpt lat="44.46759557423754" lon="11.965967346339678"><ele>9.0</ele><time>2026-05-03T12:24:51.997Z</time></trkpt><trkpt lat="44.46757424911791" lon="11.966060825885373"><ele>8.714285714285715</ele><time>2026-05-03T12:24:52.997Z</time></trkpt><trkpt lat="44.46754677326052" lon="11.966141841706298"><ele>8.428571428571429</ele><time>2026-05-03T12:24:53.994Z</time></trkpt><trkpt lat="44.4675067473617" lon="11.96627720384067"><ele>8.142857142857142</ele><time>2026-05-03T12:24:55.994Z</time></trkpt><trkpt lat="44.4674494159547" lon="11.966328554179109"><ele>7.857142857142858</ele><time>2026-05-03T12:24:58.994Z</time></trkpt><trkpt lat="44.4673736290406" lon="11.966303761835727"><ele>7.571428571428571</ele><time>2026-05-03T12:25:00.994Z</time></trkpt><trkpt lat="44.46732078014765" lon="11.966254477217635"><ele>7.285714285714286</ele><time>2026-05-03T12:25:01.994Z</time></trkpt><trkpt lat="44.467270588399955" lon="11.966198829441645"><ele>7.0</ele><time>2026-05-03T12:25:02.994Z</time></trkpt><trkpt lat="44.46722072875579" lon="11.966132661976065"><ele>7.000000000000001</ele><time>2026-05-03T12:25:03.994Z</time></trkpt><trkpt lat="44.46716300427114" lon="11.966058941665867"><ele>7.0</ele><time>2026-05-03T12:25:04.994Z</time></trkpt><trkpt lat="44.46710245929348" lon="11.965986910225068"><ele>7.0</ele><time>2026-05-03T12:25:05.994Z</time></trkpt><trkpt lat="44.467044243000466" lon="11.965923869149842"><ele>7.0</ele><time>2026-05-03T12:25:06.994Z</time></trkpt><trkpt lat="44.466952906648224" lon="11.965820530756835"><ele>7.000000000000001</ele><time>2026-05-03T12:25:08.994Z</time></trkpt><trkpt lat="44.46687255808011" lon="11.965740088970236"><ele>7.0</ele><time>2026-05-03T12:25:10.994Z</time></trkpt><trkpt lat="44.46682947063109" lon="11.96567239644358"><ele>7.166666666666667</ele><time>2026-05-03T12:25:12.994Z</time></trkpt><trkpt lat="44.46676517589693" lon="11.965653158216034"><ele>7.333333333333334</ele><time>2026-05-03T12:25:16.994Z</time></trkpt><trkpt lat="44.46670010699019" lon="11.96562708881796"><ele>7.5</ele><time>2026-05-03T12:25:20.994Z</time></trkpt><trkpt lat="44.466637261661745" lon="11.965789510168214"><ele>7.666666666666666</ele><time>2026-05-03T12:25:21.994Z</time></trkpt><trkpt lat="44.46662675199233" lon="11.965907468432382"><ele>7.833333333333333</ele><time>2026-05-03T12:25:23.994Z</time></trkpt><trkpt lat="44.46663422359769" lon="11.965997285824336"><ele>8.0</ele><time>2026-05-03T12:25:24.994Z</time></trkpt><trkpt lat="44.46661685769401" lon="11.966122714996574"><ele>7.999999999999999</ele><time>2026-05-03T12:25:25.994Z</time></trkpt><trkpt lat="44.46658003240287" lon="11.966250672888929"><ele>8.0</ele><time>2026-05-03T12:25:26.994Z</time></trkpt><trkpt lat="44.46656293782217" lon="11.966367532531066"><ele>8.0</ele><time>2026-05-03T12:25:27.994Z</time></trkpt><trkpt lat="44.46654476948416" lon="11.966478343317196"><ele>8.0</ele><time>2026-05-03T12:25:28.994Z</time></trkpt><trkpt lat="44.46653026694149" lon="11.966580417528252"><ele>7.999999999999999</ele><time>2026-05-03T12:25:29.994Z</time></trkpt><trkpt lat="44.466516603370174" lon="11.96668488618902"><ele>8.0</ele><time>2026-05-03T12:25:30.994Z</time></trkpt><trkpt lat="44.4664955317685" lon="11.966798578027104"><ele>7.833333333333333</ele><time>2026-05-03T12:25:31.994Z</time></trkpt><trkpt lat="44.46647288615841" lon="11.966909416796637"><ele>7.666666666666666</ele><time>2026-05-03T12:25:32.994Z</time></trkpt><trkpt lat="44.46644556088488" lon="11.967012878992506"><ele>7.5</ele><time>2026-05-03T12:25:33.994Z</time></trkpt><trkpt lat="44.46641328782746" lon="11.967124399418607"><ele>7.333333333333334</ele><time>2026-05-03T12:25:34.994Z</time></trkpt><trkpt lat="44.466390514737164" lon="11.96723618459654"><ele>7.166666666666667</ele><time>2026-05-03T12:25:35.994Z</time></trkpt><trkpt lat="44.46635716870807" lon="11.967345238735799"><ele>7.0</ele><time>2026-05-03T12:25:36.994Z</time></trkpt><trkpt lat="44.466300753904825" lon="11.967463218733487"><ele>7.333333333333334</ele><time>2026-05-03T12:25:37.994Z</time></trkpt><trkpt lat="44.46625557121345" lon="11.967554709642586"><ele>7.666666666666667</ele><time>2026-05-03T12:25:38.994Z</time></trkpt><trkpt lat="44.46620671437527" lon="11.967645011877616"><ele>8.0</ele><time>2026-05-03T12:25:39.994Z</time></trkpt><trkpt lat="44.46616658330316" lon="11.967738610242664"><ele>8.333333333333334</ele><time>2026-05-03T12:25:40.994Z</time></trkpt><trkpt lat="44.46610406630762" lon="11.967831724661822"><ele>8.666666666666666</ele><time>2026-05-03T12:25:41.994Z</time></trkpt><trkpt lat="44.46603443120308" lon="11.967912532746583"><ele>9.0</ele><time>2026-05-03T12:25:42.994Z</time></trkpt><trkpt lat="44.465970536406054" lon="11.967990914178657"><ele>9.0</ele><time>2026-05-03T12:25:43.995Z</time></trkpt><trkpt lat="44.46591559112229" lon="11.968062227315036"><ele>9.0</ele><time>2026-05-03T12:25:44.995Z</time></trkpt><trkpt lat="44.4658677109222" lon="11.968133132113618"><ele>9.0</ele><time>2026-05-03T12:25:45.995Z</time></trkpt><trkpt lat="44.465840827985275" lon="11.96824797108323"><ele>9.0</ele><time>2026-05-03T12:25:46.995Z</time></trkpt><trkpt lat="44.4658432718129" lon="11.968360281704092"><ele>9.0</ele><time>2026-05-03T12:25:47.995Z</time></trkpt><trkpt lat="44.46588235226991" lon="11.968476306302097"><ele>9.0</ele><time>2026-05-03T12:25:48.995Z</time></trkpt><trkpt lat="44.46593879341757" lon="11.96857133507962"><ele>8.8</ele><time>2026-05-03T12:25:49.995Z</time></trkpt><trkpt lat="44.46599613892476" lon="11.968674329527563"><ele>8.600000000000001</ele><time>2026-05-03T12:25:50.995Z</time></trkpt><trkpt lat="44.46606234759386" lon="11.96879893643743"><ele>8.4</ele><time>2026-05-03T12:25:51.995Z</time></trkpt><trkpt lat="44.466100527967654" lon="11.968945499871506"><ele>8.200000000000001</ele><time>2026-05-03T12:25:52.995Z</time></trkpt><trkpt lat="44.466165508206075" lon="11.969085094996617"><ele>8.0</ele><time>2026-05-03T12:25:53.995Z</time></trkpt><trkpt lat="44.46623146000232" lon="11.969230552835516"><ele>8.0</ele><time>2026-05-03T12:25:54.995Z</time></trkpt><trkpt lat="44.4662976388465" lon="11.969376974800566"><ele>8.0</ele><time>2026-05-03T12:25:55.995Z</time></trkpt><trkpt lat="44.466365967047615" lon="11.969513099308863"><ele>8.0</ele><time>2026-05-03T12:25:56.995Z</time></trkpt><trkpt lat="44.466436431218554" lon="11.96966186458088"><ele>8.0</ele><time>2026-05-03T12:25:57.995Z</time></trkpt><trkpt lat="44.46650234927101" lon="11.969802800193937"><ele>8.0</ele><time>2026-05-03T12:25:58.995Z</time></trkpt><trkpt lat="44.46656825718094" lon="11.969939759132401"><ele>8.0</ele><time>2026-05-03T12:25:59.995Z</time></trkpt><trkpt lat="44.46663571441257" lon="11.970085376293312"><ele>8.0</ele><time>2026-05-03T12:26:00.995Z</time></trkpt><trkpt lat="44.46670115354724" lon="11.970224062715777"><ele>8.0</ele><time>2026-05-03T12:26:01.995Z</time></trkpt><trkpt lat="44.466769700852076" lon="11.97036555969529"><ele>7.75</ele><time>2026-05-03T12:26:02.995Z</time></trkpt><trkpt lat="44.46683600189806" lon="11.97050828343527"><ele>7.5</ele><time>2026-05-03T12:26:03.995Z</time></trkpt><trkpt lat="44.46690159200478" lon="11.97065146477719"><ele>7.25</ele><time>2026-05-03T12:26:04.995Z</time></trkpt><trkpt lat="44.46696541388929" lon="11.970791396194633"><ele>7.0</ele><time>2026-05-03T12:26:05.995Z</time></trkpt><trkpt lat="44.467027471139346" lon="11.970930193957182"><ele>7.0</ele><time>2026-05-03T12:26:06.995Z</time></trkpt><trkpt lat="44.4670918896576" lon="11.971074487397766"><ele>7.0</ele><time>2026-05-03T12:26:07.995Z</time></trkpt><trkpt lat="44.467155055336285" lon="11.97122061474879"><ele>7.0</ele><time>2026-05-03T12:26:08.995Z</time></trkpt><trkpt lat="44.467221799445646" lon="11.971370312438088"><ele>7.0</ele><time>2026-05-03T12:26:09.995Z</time></trkpt><trkpt lat="44.4672872952747" lon="11.97152260425066"><ele>7.0</ele><time>2026-05-03T12:26:10.995Z</time></trkpt><trkpt lat="44.46735291373474" lon="11.971672376807463"><ele>7.0</ele><time>2026-05-03T12:26:11.995Z</time></trkpt><trkpt lat="44.467416529164446" lon="11.971819979044383"><ele>7.0</ele><time>2026-05-03T12:26:12.995Z</time></trkpt><trkpt lat="44.46747875254791" lon="11.971964236247318"><ele>7.0</ele><time>2026-05-03T12:26:13.995Z</time></trkpt><trkpt lat="44.467545466161916" lon="11.972110527348175"><ele>7.0</ele><time>2026-05-03T12:26:14.995Z</time></trkpt><trkpt lat="44.467614897883905" lon="11.972254459871984"><ele>7.0</ele><time>2026-05-03T12:26:15.995Z</time></trkpt><trkpt lat="44.467685951002125" lon="11.972398877247171"><ele>7.0</ele><time>2026-05-03T12:26:16.995Z</time></trkpt><trkpt lat="44.4677615653123" lon="11.972535299835101"><ele>7.0</ele><time>2026-05-03T12:26:17.995Z</time></trkpt><trkpt lat="44.467840514741766" lon="11.972670369588435"><ele>7.0</ele><time>2026-05-03T12:26:18.995Z</time></trkpt><trkpt lat="44.46791681622785" lon="11.97280348092477"><ele>7.0</ele><time>2026-05-03T12:26:19.995Z</time></trkpt><trkpt lat="44.467994755830425" lon="11.972933656322326"><ele>7.0</ele><time>2026-05-03T12:26:20.995Z</time></trkpt><trkpt lat="44.46806746874025" lon="11.973056654536016"><ele>7.0</ele><time>2026-05-03T12:26:21.995Z</time></trkpt><trkpt lat="44.46814657388046" lon="11.973194368292049"><ele>7.0</ele><time>2026-05-03T12:26:22.995Z</time></trkpt><trkpt lat="44.468230554666285" lon="11.97331379029172"><ele>7.0</ele><time>2026-05-03T12:26:23.995Z</time></trkpt><trkpt lat="44.46830536429616" lon="11.973443847084399"><ele>7.0</ele><time>2026-05-03T12:26:24.995Z</time></trkpt><trkpt lat="44.46837619002415" lon="11.973577607565701"><ele>7.0</ele><time>2026-05-03T12:26:25.995Z</time></trkpt><trkpt lat="44.46844668707917" lon="11.973712643995208"><ele>7.25</ele><time>2026-05-03T12:26:26.995Z</time></trkpt><trkpt lat="44.46851485094185" lon="11.973850518446982"><ele>7.5</ele><time>2026-05-03T12:26:27.995Z</time></trkpt><trkpt lat="44.468579321038526" lon="11.973979711452689"><ele>7.75</ele><time>2026-05-03T12:26:28.995Z</time></trkpt><trkpt lat="44.46864158643915" lon="11.97411417123256"><ele>8.0</ele><time>2026-05-03T12:26:29.995Z</time></trkpt><trkpt lat="44.46871456217262" lon="11.974228625692719"><ele>8.0</ele><time>2026-05-03T12:26:30.996Z</time></trkpt><trkpt lat="44.468770149287664" lon="11.974357553773586"><ele>8.0</ele><time>2026-05-03T12:26:31.996Z</time></trkpt><trkpt lat="44.46882276711393" lon="11.9744899062598"><ele>8.0</ele><time>2026-05-03T12:26:32.996Z</time></trkpt><trkpt lat="44.468871588589415" lon="11.974619918919718"><ele>8.0</ele><time>2026-05-03T12:26:33.996Z</time></trkpt><trkpt lat="44.468917472985225" lon="11.97474737395128"><ele>8.0</ele><time>2026-05-03T12:26:34.996Z</time></trkpt><trkpt lat="44.46896299759974" lon="11.974878219139496"><ele>8.0</ele><time>2026-05-03T12:26:35.996Z</time></trkpt><trkpt lat="44.46900619985305" lon="11.974998840075168"><ele>8.0</ele><time>2026-05-03T12:26:36.996Z</time></trkpt><trkpt lat="44.469046254292444" lon="11.975116307262779"><ele>8.0</ele><time>2026-05-03T12:26:37.996Z</time></trkpt><trkpt lat="44.46908827340788" lon="11.975234107393298"><ele>8.0</ele><time>2026-05-03T12:26:38.996Z</time></trkpt><trkpt lat="44.46912694375406" lon="11.975351161355427"><ele>8.0</ele><time>2026-05-03T12:26:39.996Z</time></trkpt><trkpt lat="44.46916363729739" lon="11.975463966217427"><ele>7.999999999999999</ele><time>2026-05-03T12:26:40.996Z</time></trkpt><trkpt lat="44.46919959467703" lon="11.975574923553278"><ele>8.0</ele><time>2026-05-03T12:26:41.996Z</time></trkpt><trkpt lat="44.46923224022372" lon="11.975681068848303"><ele>8.0</ele><time>2026-05-03T12:26:42.996Z</time></trkpt><trkpt lat="44.46926435474599" lon="11.975788516796541"><ele>8.0</ele><time>2026-05-03T12:26:43.996Z</time></trkpt><trkpt lat="44.469295589039916" lon="11.975896769081292"><ele>7.999999999999999</ele><time>2026-05-03T12:26:44.996Z</time></trkpt><trkpt lat="44.46932504582358" lon="11.97600743551989"><ele>8.0</ele><time>2026-05-03T12:26:45.996Z</time></trkpt><trkpt lat="44.46938707451223" lon="11.976240886315972"><ele>8.0</ele><time>2026-05-03T12:26:47.996Z</time></trkpt><trkpt lat="44.46942319208887" lon="11.97635777136926"><ele>8.0</ele><time>2026-05-03T12:26:48.996Z</time></trkpt><trkpt lat="44.46946475761753" lon="11.976482676740474"><ele>8.0</ele><time>2026-05-03T12:26:49.996Z</time></trkpt><trkpt lat="44.469508591703374" lon="11.97661023562894"><ele>8.0</ele><time>2026-05-03T12:26:50.996Z</time></trkpt><trkpt lat="44.469555358019505" lon="11.976740668826817"><ele>8.0</ele><time>2026-05-03T12:26:51.996Z</time></trkpt><trkpt lat="44.469605095426836" lon="11.976874878560595"><ele>8.0</ele><time>2026-05-03T12:26:52.996Z</time></trkpt><trkpt lat="44.46965631806198" lon="11.977009581640033"><ele>8.0</ele><time>2026-05-03T12:26:53.996Z</time></trkpt><trkpt lat="44.46970877445274" lon="11.97714732482741"><ele>8.0</ele><time>2026-05-03T12:26:54.996Z</time></trkpt><trkpt lat="44.46976155220145" lon="11.977277490549634"><ele>8.0</ele><time>2026-05-03T12:26:55.996Z</time></trkpt><trkpt lat="44.469815485133566" lon="11.977404196338055"><ele>8.0</ele><time>2026-05-03T12:26:56.996Z</time></trkpt><trkpt lat="44.46986809746945" lon="11.977530120105131"><ele>8.200000000000001</ele><time>2026-05-03T12:26:57.996Z</time></trkpt><trkpt lat="44.46992248715196" lon="11.977659497284641"><ele>8.4</ele><time>2026-05-03T12:26:58.996Z</time></trkpt><trkpt lat="44.469975722446065" lon="11.977788219958079"><ele>8.600000000000001</ele><time>2026-05-03T12:26:59.993Z</time></trkpt><trkpt lat="44.4700291721391" lon="11.977922966257594"><ele>8.8</ele><time>2026-05-03T12:27:00.993Z</time></trkpt><trkpt lat="44.47008597550485" lon="11.978057428740643"><ele>9.0</ele><time>2026-05-03T12:27:01.993Z</time></trkpt><trkpt lat="44.4701487095223" lon="11.978194059555246"><ele>9.0</ele><time>2026-05-03T12:27:02.993Z</time></trkpt><trkpt lat="44.47021676188562" lon="11.97833151414895"><ele>9.0</ele><time>2026-05-03T12:27:03.993Z</time></trkpt><trkpt lat="44.47028883950704" lon="11.978470399708252"><ele>9.0</ele><time>2026-05-03T12:27:04.993Z</time></trkpt><trkpt lat="44.47036167506297" lon="11.978609510165676"><ele>9.0</ele><time>2026-05-03T12:27:05.993Z</time></trkpt><trkpt lat="44.47043788855388" lon="11.978748790064909"><ele>9.25</ele><time>2026-05-03T12:27:06.992Z</time></trkpt><trkpt lat="44.47051478917324" lon="11.978889640082333"><ele>9.5</ele><time>2026-05-03T12:27:07.992Z</time></trkpt><trkpt lat="44.47059294547708" lon="11.979030374190698"><ele>9.75</ele><time>2026-05-03T12:27:08.992Z</time></trkpt><trkpt lat="44.47066961893741" lon="11.97916715123038"><ele>10.0</ele><time>2026-05-03T12:27:09.992Z</time></trkpt><trkpt lat="44.47074539388647" lon="11.979303503936784"><ele>10.75</ele><time>2026-05-03T12:27:10.992Z</time></trkpt><trkpt lat="44.47082285545852" lon="11.979441414425894"><ele>11.5</ele><time>2026-05-03T12:27:11.993Z</time></trkpt><trkpt lat="44.470908358203744" lon="11.979569702518388"><ele>12.25</ele><time>2026-05-03T12:27:12.993Z</time></trkpt><trkpt lat="44.4710040522935" lon="11.979680251518086"><ele>13.0</ele><time>2026-05-03T12:27:13.993Z</time></trkpt><trkpt lat="44.471099094755566" lon="11.979774880759146"><ele>13.0</ele><time>2026-05-03T12:27:14.993Z</time></trkpt><trkpt lat="44.47119053505238" lon="11.979863777220991"><ele>13.0</ele><time>2026-05-03T12:27:15.993Z</time></trkpt><trkpt lat="44.47128139369099" lon="11.979951265743674"><ele>13.0</ele><time>2026-05-03T12:27:16.993Z</time></trkpt><trkpt lat="44.471370733849064" lon="11.980043875847086"><ele>13.0</ele><time>2026-05-03T12:27:17.993Z</time></trkpt><trkpt lat="44.471457609617644" lon="11.980139964529105"><ele>13.0</ele><time>2026-05-03T12:27:18.993Z</time></trkpt><trkpt lat="44.47154816697665" lon="11.980226189301861"><ele>12.0</ele><time>2026-05-03T12:27:19.993Z</time></trkpt><trkpt lat="44.47163332501286" lon="11.98030852569504"><ele>11.0</ele><time>2026-05-03T12:27:20.993Z</time></trkpt><trkpt lat="44.471668087427176" lon="11.980487610605087"><ele>10.0</ele><time>2026-05-03T12:27:21.993Z</time></trkpt><trkpt lat="44.47171583501654" lon="11.980618087676394"><ele>9.0</ele><time>2026-05-03T12:27:22.993Z</time></trkpt><trkpt lat="44.471757783727305" lon="11.980752943520633"><ele>8.0</ele><time>2026-05-03T12:27:23.993Z</time></trkpt><trkpt lat="44.47179568501793" lon="11.980891302451868"><ele>8.0</ele><time>2026-05-03T12:27:24.993Z</time></trkpt><trkpt lat="44.47182953421819" lon="11.981040509960124"><ele>8.0</ele><time>2026-05-03T12:27:25.993Z</time></trkpt><trkpt lat="44.47186237447351" lon="11.98119428897388"><ele>8.0</ele><time>2026-05-03T12:27:26.993Z</time></trkpt><trkpt lat="44.47189282477883" lon="11.981354811622644"><ele>8.0</ele><time>2026-05-03T12:27:27.993Z</time></trkpt><trkpt lat="44.47192674493952" lon="11.981518545208273"><ele>7.75</ele><time>2026-05-03T12:27:28.993Z</time></trkpt><trkpt lat="44.471966220675114" lon="11.981688217141553"><ele>7.5</ele><time>2026-05-03T12:27:29.993Z</time></trkpt><trkpt lat="44.47201056531196" lon="11.981862273080274"><ele>7.25</ele><time>2026-05-03T12:27:30.993Z</time></trkpt><trkpt lat="44.47205529731285" lon="11.982035848812703"><ele>7.0</ele><time>2026-05-03T12:27:31.993Z</time></trkpt><trkpt lat="44.47210229477487" lon="11.982220001431445"><ele>7.0</ele><time>2026-05-03T12:27:32.993Z</time></trkpt><trkpt lat="44.472151991812055" lon="11.982401952764617"><ele>7.0</ele><time>2026-05-03T12:27:33.993Z</time></trkpt><trkpt lat="44.472203130324424" lon="11.982593043893731"><ele>7.0</ele><time>2026-05-03T12:27:34.993Z</time></trkpt><trkpt lat="44.47225647530227" lon="11.98278090830325"><ele>7.0</ele><time>2026-05-03T12:27:35.993Z</time></trkpt><trkpt lat="44.472310676234656" lon="11.98297015525686"><ele>7.0</ele><time>2026-05-03T12:27:36.993Z</time></trkpt><trkpt lat="44.47236207926027" lon="11.983155783519047"><ele>7.0</ele><time>2026-05-03T12:27:37.993Z</time></trkpt><trkpt lat="44.47241255047408" lon="11.983341940305003"><ele>7.0</ele><time>2026-05-03T12:27:38.993Z</time></trkpt><trkpt lat="44.472463480136724" lon="11.983526507796764"><ele>7.0</ele><time>2026-05-03T12:27:39.993Z</time></trkpt><trkpt lat="44.472514487082016" lon="11.983713348807969"><ele>7.0</ele><time>2026-05-03T12:27:40.993Z</time></trkpt><trkpt lat="44.47256517239627" lon="11.983900643174934"><ele>7.0</ele><time>2026-05-03T12:27:41.993Z</time></trkpt><trkpt lat="44.472615621502904" lon="11.984082521564561"><ele>7.0</ele><time>2026-05-03T12:27:42.993Z</time></trkpt><trkpt lat="44.47266552700551" lon="11.984264973524102"><ele>7.0</ele><time>2026-05-03T12:27:43.993Z</time></trkpt><trkpt lat="44.472716490183515" lon="11.98444892678493"><ele>7.0</ele><time>2026-05-03T12:27:44.993Z</time></trkpt><trkpt lat="44.47276594892036" lon="11.984632371977181"><ele>7.0</ele><time>2026-05-03T12:27:45.993Z</time></trkpt><trkpt lat="44.47281860583069" lon="11.98482034358894"><ele>7.0</ele><time>2026-05-03T12:27:46.993Z</time></trkpt><trkpt lat="44.47287151040965" lon="11.985008583139846"><ele>7.0</ele><time>2026-05-03T12:27:47.993Z</time></trkpt><trkpt lat="44.472926169090584" lon="11.985199778269587"><ele>7.0</ele><time>2026-05-03T12:27:48.993Z</time></trkpt><trkpt lat="44.47298093902749" lon="11.98538721529357"><ele>7.0</ele><time>2026-05-03T12:27:49.993Z</time></trkpt><trkpt lat="44.4730355439685" lon="11.985574333551996"><ele>7.0</ele><time>2026-05-03T12:27:50.993Z</time></trkpt><trkpt lat="44.473092536631334" lon="11.98576481560568"><ele>7.0</ele><time>2026-05-03T12:27:51.993Z</time></trkpt><trkpt lat="44.473153909283894" lon="11.98595650453728"><ele>7.333333333333334</ele><time>2026-05-03T12:27:52.993Z</time></trkpt><trkpt lat="44.47322130190078" lon="11.986149883775989"><ele>7.666666666666666</ele><time>2026-05-03T12:27:53.993Z</time></trkpt><trkpt lat="44.47329503901065" lon="11.986339487306731"><ele>8.0</ele><time>2026-05-03T12:27:54.993Z</time></trkpt><trkpt lat="44.47337351807262" lon="11.986524688128622"><ele>8.0</ele><time>2026-05-03T12:27:55.993Z</time></trkpt><trkpt lat="44.47345770884048" lon="11.986710709240818"><ele>8.0</ele><time>2026-05-03T12:27:56.993Z</time></trkpt><trkpt lat="44.473546286727824" lon="11.986893336332098"><ele>8.0</ele><time>2026-05-03T12:27:57.993Z</time></trkpt><trkpt lat="44.47363601776298" lon="11.987075126603205"><ele>8.0</ele><time>2026-05-03T12:27:58.994Z</time></trkpt><trkpt lat="44.47372600608108" lon="11.987253999436891"><ele>8.0</ele><time>2026-05-03T12:27:59.994Z</time></trkpt><trkpt lat="44.47381762886662" lon="11.987432068189221"><ele>8.0</ele><time>2026-05-03T12:28:00.994Z</time></trkpt><trkpt lat="44.47391052036369" lon="11.987608844392982"><ele>8.0</ele><time>2026-05-03T12:28:01.994Z</time></trkpt><trkpt lat="44.47400109164707" lon="11.987785824811557"><ele>8.0</ele><time>2026-05-03T12:28:02.994Z</time></trkpt><trkpt lat="44.47409200966941" lon="11.987960876566637"><ele>8.0</ele><time>2026-05-03T12:28:03.994Z</time></trkpt><trkpt lat="44.47418162396352" lon="11.988140412064293"><ele>8.0</ele><time>2026-05-03T12:28:04.994Z</time></trkpt><trkpt lat="44.47426745043874" lon="11.988316212708753"><ele>8.0</ele><time>2026-05-03T12:28:05.994Z</time></trkpt><trkpt lat="44.47435243137401" lon="11.98848891410382"><ele>8.0</ele><time>2026-05-03T12:28:06.994Z</time></trkpt><trkpt lat="44.47443687765711" lon="11.98866203043862"><ele>7.5</ele><time>2026-05-03T12:28:07.994Z</time></trkpt><trkpt lat="44.474519307595855" lon="11.988833746873956"><ele>7.0</ele><time>2026-05-03T12:28:08.994Z</time></trkpt><trkpt lat="44.474603151920334" lon="11.989005976819817"><ele>6.5</ele><time>2026-05-03T12:28:09.994Z</time></trkpt><trkpt lat="44.474682750176555" lon="11.989182322527851"><ele>6.0</ele><time>2026-05-03T12:28:10.994Z</time></trkpt><trkpt lat="44.47475961971745" lon="11.989361015181531"><ele>6.0</ele><time>2026-05-03T12:28:11.994Z</time></trkpt><trkpt lat="44.47483795186413" lon="11.989538695718226"><ele>6.0</ele><time>2026-05-03T12:28:12.994Z</time></trkpt><trkpt lat="44.47491164818553" lon="11.989723251296134"><ele>6.0</ele><time>2026-05-03T12:28:13.994Z</time></trkpt><trkpt lat="44.47498560067129" lon="11.989901942910748"><ele>6.0</ele><time>2026-05-03T12:28:14.994Z</time></trkpt><trkpt lat="44.47506150668221" lon="11.99008262550878"><ele>6.0</ele><time>2026-05-03T12:28:15.994Z</time></trkpt><trkpt lat="44.475138195136886" lon="11.990266953600388"><ele>6.0</ele><time>2026-05-03T12:28:16.994Z</time></trkpt><trkpt lat="44.47521338055632" lon="11.990452260131104"><ele>6.0</ele><time>2026-05-03T12:28:17.994Z</time></trkpt><trkpt lat="44.47529175024979" lon="11.990641477235853"><ele>6.0</ele><time>2026-05-03T12:28:18.994Z</time></trkpt><trkpt lat="44.47537127039714" lon="11.990823947275036"><ele>6.0</ele><time>2026-05-03T12:28:19.994Z</time></trkpt><trkpt lat="44.47545237097824" lon="11.991014133293001"><ele>6.0</ele><time>2026-05-03T12:28:20.994Z</time></trkpt><trkpt lat="44.47553058235294" lon="11.991202628901858"><ele>6.0</ele><time>2026-05-03T12:28:21.994Z</time></trkpt><trkpt lat="44.47560912369771" lon="11.99139010877994"><ele>6.0</ele><time>2026-05-03T12:28:22.994Z</time></trkpt><trkpt lat="44.475689208460096" lon="11.99157914475749"><ele>6.0</ele><time>2026-05-03T12:28:23.994Z</time></trkpt><trkpt lat="44.475767226560066" lon="11.99176921870934"><ele>6.333333333333334</ele><time>2026-05-03T12:28:24.994Z</time></trkpt><trkpt lat="44.475845323206265" lon="11.991960278393611"><ele>6.666666666666667</ele><time>2026-05-03T12:28:25.994Z</time></trkpt><trkpt lat="44.47592501525161" lon="11.992149245025182"><ele>7.0</ele><time>2026-05-03T12:28:26.994Z</time></trkpt><trkpt lat="44.476003328476736" lon="11.99233716297947"><ele>7.0</ele><time>2026-05-03T12:28:27.994Z</time></trkpt><trkpt lat="44.47608706395794" lon="11.992532103084846"><ele>7.0</ele><time>2026-05-03T12:28:28.994Z</time></trkpt><trkpt lat="44.47616694255881" lon="11.992723826997556"><ele>7.0</ele><time>2026-05-03T12:28:29.994Z</time></trkpt><trkpt lat="44.47624556571542" lon="11.9929164490044"><ele>6.666666666666667</ele><time>2026-05-03T12:28:30.994Z</time></trkpt><trkpt lat="44.4763275761697" lon="11.993110840262833"><ele>6.333333333333334</ele><time>2026-05-03T12:28:31.994Z</time></trkpt><trkpt lat="44.476407549692425" lon="11.993299636932278"><ele>6.0</ele><time>2026-05-03T12:28:32.994Z</time></trkpt><trkpt lat="44.476485964216124" lon="11.993492997594986"><ele>6.0</ele><time>2026-05-03T12:28:33.994Z</time></trkpt><trkpt lat="44.47656402091493" lon="11.993688455788243"><ele>6.0</ele><time>2026-05-03T12:28:34.994Z</time></trkpt><trkpt lat="44.47664140315654" lon="11.993880559734693"><ele>6.0</ele><time>2026-05-03T12:28:35.994Z</time></trkpt><trkpt lat="44.4767183557404" lon="11.994069241152259"><ele>6.0</ele><time>2026-05-03T12:28:36.994Z</time></trkpt><trkpt lat="44.47679407087394" lon="11.994254574673647"><ele>6.0</ele><time>2026-05-03T12:28:37.994Z</time></trkpt><trkpt lat="44.476868851874784" lon="11.994438443126127"><ele>6.0</ele><time>2026-05-03T12:28:38.994Z</time></trkpt><trkpt lat="44.476949020438894" lon="11.994626409790635"><ele>6.0</ele><time>2026-05-03T12:28:39.994Z</time></trkpt><trkpt lat="44.477027402507055" lon="11.994813475570753"><ele>6.0</ele><time>2026-05-03T12:28:40.994Z</time></trkpt><trkpt lat="44.47710794319394" lon="11.995004277648018"><ele>6.0</ele><time>2026-05-03T12:28:41.994Z</time></trkpt><trkpt lat="44.477186122214356" lon="11.995190000515267"><ele>5.666666666666667</ele><time>2026-05-03T12:28:42.994Z</time></trkpt><trkpt lat="44.47726371733435" lon="11.99537802584942"><ele>5.333333333333334</ele><time>2026-05-03T12:28:43.994Z</time></trkpt><trkpt lat="44.477339572137076" lon="11.995567497486578"><ele>5.0</ele><time>2026-05-03T12:28:44.994Z</time></trkpt><trkpt lat="44.477419082175764" lon="11.995760498259717"><ele>5.333333333333334</ele><time>2026-05-03T12:28:45.995Z</time></trkpt><trkpt lat="44.477498725288534" lon="11.995948278701341"><ele>5.666666666666667</ele><time>2026-05-03T12:28:46.995Z</time></trkpt><trkpt lat="44.477576355794014" lon="11.996131711240729"><ele>6.0</ele><time>2026-05-03T12:28:47.995Z</time></trkpt><trkpt lat="44.477639555542275" lon="11.996333691620656"><ele>6.0</ele><time>2026-05-03T12:28:48.995Z</time></trkpt><trkpt lat="44.47771537580664" lon="11.996525575026729"><ele>6.0</ele><time>2026-05-03T12:28:49.995Z</time></trkpt><trkpt lat="44.4777904160439" lon="11.996719497225776"><ele>6.0</ele><time>2026-05-03T12:28:50.995Z</time></trkpt><trkpt lat="44.47786391451544" lon="11.996914046792403"><ele>5.666666666666667</ele><time>2026-05-03T12:28:51.995Z</time></trkpt><trkpt lat="44.47793786801249" lon="11.997114004752474"><ele>5.333333333333334</ele><time>2026-05-03T12:28:52.995Z</time></trkpt><trkpt lat="44.47801435192274" lon="11.997315148442384"><ele>5.0</ele><time>2026-05-03T12:28:53.995Z</time></trkpt><trkpt lat="44.47808966432422" lon="11.997520531066197"><ele>5.666666666666667</ele><time>2026-05-03T12:28:54.995Z</time></trkpt><trkpt lat="44.47816616267106" lon="11.997726068513431"><ele>6.333333333333334</ele><time>2026-05-03T12:28:55.995Z</time></trkpt><trkpt lat="44.478245308949944" lon="11.997935400122856"><ele>7.0</ele><time>2026-05-03T12:28:56.995Z</time></trkpt><trkpt lat="44.47832132864954" lon="11.998144581987956"><ele>7.0</ele><time>2026-05-03T12:28:57.995Z</time></trkpt><trkpt lat="44.47841357498136" lon="11.998343865255725"><ele>7.0</ele><time>2026-05-03T12:28:58.995Z</time></trkpt><trkpt lat="44.47849179095433" lon="11.998552379680964"><ele>7.0</ele><time>2026-05-03T12:28:59.995Z</time></trkpt><trkpt lat="44.478570096663695" lon="11.998763262260981"><ele>7.0</ele><time>2026-05-03T12:29:00.995Z</time></trkpt><trkpt lat="44.47864965590597" lon="11.998975481589838"><ele>7.0</ele><time>2026-05-03T12:29:01.995Z</time></trkpt><trkpt lat="44.47873015534115" lon="11.999192377094815"><ele>7.0</ele><time>2026-05-03T12:29:02.995Z</time></trkpt><trkpt lat="44.47880959456922" lon="11.999407769798264"><ele>6.666666666666667</ele><time>2026-05-03T12:29:03.995Z</time></trkpt><trkpt lat="44.47889133365045" lon="11.999622743342186"><ele>6.333333333333334</ele><time>2026-05-03T12:29:04.995Z</time></trkpt><trkpt lat="44.478973771906404" lon="11.999839232689716"><ele>6.0</ele><time>2026-05-03T12:29:05.99Z</time></trkpt><trkpt lat="44.47905635285712" lon="12.000053804408454"><ele>6.0</ele><time>2026-05-03T12:29:06.991Z</time></trkpt><trkpt lat="44.47914005566464" lon="12.000262974907859"><ele>6.0</ele><time>2026-05-03T12:29:07.991Z</time></trkpt><trkpt lat="44.47922683223705" lon="12.000472071384223"><ele>6.0</ele><time>2026-05-03T12:29:08.991Z</time></trkpt><trkpt lat="44.47931407132377" lon="12.000674100983"><ele>6.333333333333334</ele><time>2026-05-03T12:29:09.991Z</time></trkpt><trkpt lat="44.47940217877938" lon="12.000867353778094"><ele>6.666666666666667</ele><time>2026-05-03T12:29:10.991Z</time></trkpt><trkpt lat="44.479487532260876" lon="12.001060437022185"><ele>7.0</ele><time>2026-05-03T12:29:11.99Z</time></trkpt><trkpt lat="44.479574057362896" lon="12.001253800038787"><ele>6.333333333333334</ele><time>2026-05-03T12:29:12.99Z</time></trkpt><trkpt lat="44.47966082945634" lon="12.001439467213247"><ele>5.666666666666667</ele><time>2026-05-03T12:29:13.99Z</time></trkpt><trkpt lat="44.47974710156948" lon="12.00162041203188"><ele>5.0</ele><time>2026-05-03T12:29:14.99Z</time></trkpt><trkpt lat="44.47983086364284" lon="12.001794500194256"><ele>5.0</ele><time>2026-05-03T12:29:15.99Z</time></trkpt><trkpt lat="44.47991196981299" lon="12.001962224948953"><ele>5.0</ele><time>2026-05-03T12:29:16.99Z</time></trkpt><trkpt lat="44.479988688020086" lon="12.002119577285749"><ele>5.0</ele><time>2026-05-03T12:29:17.99Z</time></trkpt><trkpt lat="44.480063299287366" lon="12.00227333902604"><ele>5.0</ele><time>2026-05-03T12:29:18.99Z</time></trkpt><trkpt lat="44.48013623774398" lon="12.002428764219827"><ele>5.5</ele><time>2026-05-03T12:29:19.99Z</time></trkpt><trkpt lat="44.48020510457601" lon="12.002585938605414"><ele>6.0</ele><time>2026-05-03T12:29:20.99Z</time></trkpt><trkpt lat="44.4802709845292" lon="12.00274905799659"><ele>6.5</ele><time>2026-05-03T12:29:21.99Z</time></trkpt><trkpt lat="44.48033839624444" lon="12.00291495486311"><ele>7.0</ele><time>2026-05-03T12:29:22.99Z</time></trkpt><trkpt lat="44.480405400643654" lon="12.003079360858072"><ele>6.5</ele><time>2026-05-03T12:29:23.99Z</time></trkpt><trkpt lat="44.4804723100568" lon="12.003254563135016"><ele>6.0</ele><time>2026-05-03T12:29:24.99Z</time></trkpt><trkpt lat="44.4805369605007" lon="12.003427219315094"><ele>5.5</ele><time>2026-05-03T12:29:25.99Z</time></trkpt><trkpt lat="44.480600438576694" lon="12.003605294552514"><ele>5.0</ele><time>2026-05-03T12:29:26.99Z</time></trkpt><trkpt lat="44.480662880535924" lon="12.003783582349584"><ele>5.0</ele><time>2026-05-03T12:29:27.99Z</time></trkpt><trkpt lat="44.48072942963956" lon="12.003963696349178"><ele>5.0</ele><time>2026-05-03T12:29:28.99Z</time></trkpt><trkpt lat="44.48079791691163" lon="12.004143402273774"><ele>5.0</ele><time>2026-05-03T12:29:29.99Z</time></trkpt><trkpt lat="44.48086693703273" lon="12.004324368890154"><ele>5.0</ele><time>2026-05-03T12:29:30.99Z</time></trkpt><trkpt lat="44.48093802113814" lon="12.004503789119928"><ele>5.25</ele><time>2026-05-03T12:29:31.99Z</time></trkpt><trkpt lat="44.481003975745864" lon="12.004683050516217"><ele>5.5</ele><time>2026-05-03T12:29:32.99Z</time></trkpt><trkpt lat="44.4810652146841" lon="12.004856346968015"><ele>5.75</ele><time>2026-05-03T12:29:33.99Z</time></trkpt><trkpt lat="44.48113005379154" lon="12.005036537943525"><ele>6.0</ele><time>2026-05-03T12:29:34.99Z</time></trkpt><trkpt lat="44.48119011207329" lon="12.005215853786313"><ele>6.0</ele><time>2026-05-03T12:29:35.99Z</time></trkpt><trkpt lat="44.48125156400255" lon="12.005400762124719"><ele>6.0</ele><time>2026-05-03T12:29:36.991Z</time></trkpt><trkpt lat="44.48131225807178" lon="12.005581978169255"><ele>6.0</ele><time>2026-05-03T12:29:37.991Z</time></trkpt><trkpt lat="44.48137519092887" lon="12.005766843678446"><ele>6.0</ele><time>2026-05-03T12:29:38.991Z</time></trkpt><trkpt lat="44.48144623977056" lon="12.005952521972644"><ele>6.0</ele><time>2026-05-03T12:29:39.991Z</time></trkpt><trkpt lat="44.48152197100654" lon="12.006150058107613"><ele>6.0</ele><time>2026-05-03T12:29:40.991Z</time></trkpt><trkpt lat="44.481598206041475" lon="12.006348778772335"><ele>6.0</ele><time>2026-05-03T12:29:41.991Z</time></trkpt><trkpt lat="44.48167712872953" lon="12.006546094693812"><ele>6.666666666666666</ele><time>2026-05-03T12:29:42.991Z</time></trkpt><trkpt lat="44.4817571613187" lon="12.00674330070359"><ele>7.333333333333333</ele><time>2026-05-03T12:29:43.991Z</time></trkpt><trkpt lat="44.4818387581034" lon="12.006935370556688"><ele>8.0</ele><time>2026-05-03T12:29:44.991Z</time></trkpt><trkpt lat="44.481910500931775" lon="12.007108964672323"><ele>8.0</ele><time>2026-05-03T12:29:45.991Z</time></trkpt><trkpt lat="44.48197704729725" lon="12.007274383861247"><ele>8.0</ele><time>2026-05-03T12:29:46.991Z</time></trkpt><trkpt lat="44.48204320723084" lon="12.007438672501454"><ele>8.0</ele><time>2026-05-03T12:29:47.991Z</time></trkpt><trkpt lat="44.482108821193" lon="12.007603895273792"><ele>8.0</ele><time>2026-05-03T12:29:48.991Z</time></trkpt><trkpt lat="44.48217214777203" lon="12.007764240463866"><ele>7.0</ele><time>2026-05-03T12:29:49.991Z</time></trkpt><trkpt lat="44.48223536052703" lon="12.007917084891059"><ele>6.0</ele><time>2026-05-03T12:29:50.991Z</time></trkpt><trkpt lat="44.48229311406259" lon="12.008072057336621"><ele>5.0</ele><time>2026-05-03T12:29:51.991Z</time></trkpt><trkpt lat="44.48235383731223" lon="12.008224695529863"><ele>4.0</ele><time>2026-05-03T12:29:52.991Z</time></trkpt><trkpt lat="44.48241921232111" lon="12.008383632292803"><ele>4.0</ele><time>2026-05-03T12:29:53.991Z</time></trkpt><trkpt lat="44.482485268694255" lon="12.008545789911082"><ele>4.0</ele><time>2026-05-03T12:29:54.991Z</time></trkpt><trkpt lat="44.482559698531816" lon="12.008715069608822"><ele>4.0</ele><time>2026-05-03T12:29:55.991Z</time></trkpt><trkpt lat="44.48263516511207" lon="12.008882152666812"><ele>4.0</ele><time>2026-05-03T12:29:56.991Z</time></trkpt><trkpt lat="44.48269574077961" lon="12.009078328950338"><ele>4.333333333333333</ele><time>2026-05-03T12:29:57.991Z</time></trkpt><trkpt lat="44.482771786340116" lon="12.009262943865709"><ele>4.666666666666667</ele><time>2026-05-03T12:29:58.991Z</time></trkpt><trkpt lat="44.48284990285721" lon="12.009455293167422"><ele>5.0</ele><time>2026-05-03T12:29:59.991Z</time></trkpt><trkpt lat="44.48293010245606" lon="12.009651528405932"><ele>4.666666666666667</ele><time>2026-05-03T12:30:00.991Z</time></trkpt><trkpt lat="44.48301185605468" lon="12.009852422419918"><ele>4.333333333333333</ele><time>2026-05-03T12:30:01.991Z</time></trkpt><trkpt lat="44.483093727876025" lon="12.01004605522705"><ele>4.0</ele><time>2026-05-03T12:30:02.991Z</time></trkpt><trkpt lat="44.48317206919603" lon="12.010238686089656"><ele>4.0</ele><time>2026-05-03T12:30:03.991Z</time></trkpt><trkpt lat="44.483250193917456" lon="12.010430514192869"><ele>4.0</ele><time>2026-05-03T12:30:04.991Z</time></trkpt><trkpt lat="44.4833264616049" lon="12.010613246148138"><ele>4.0</ele><time>2026-05-03T12:30:05.991Z</time></trkpt><trkpt lat="44.4834015780531" lon="12.010794112986726"><ele>4.25</ele><time>2026-05-03T12:30:06.991Z</time></trkpt><trkpt lat="44.48347197721646" lon="12.010972687803699"><ele>4.5</ele><time>2026-05-03T12:30:07.991Z</time></trkpt><trkpt lat="44.483543891336105" lon="12.011152134728302"><ele>4.75</ele><time>2026-05-03T12:30:08.991Z</time></trkpt><trkpt lat="44.483614818137774" lon="12.01132798995969"><ele>5.0</ele><time>2026-05-03T12:30:09.991Z</time></trkpt><trkpt lat="44.48368909921551" lon="12.011501988007753"><ele>4.75</ele><time>2026-05-03T12:30:10.991Z</time></trkpt><trkpt lat="44.48376037276913" lon="12.011675317633912"><ele>4.5</ele><time>2026-05-03T12:30:11.991Z</time></trkpt><trkpt lat="44.48383175457378" lon="12.011850782902902"><ele>4.25</ele><time>2026-05-03T12:30:12.991Z</time></trkpt><trkpt lat="44.48390273181662" lon="12.012023456672424"><ele>4.0</ele><time>2026-05-03T12:30:13.991Z</time></trkpt><trkpt lat="44.48396950516975" lon="12.012194890024915"><ele>4.0</ele><time>2026-05-03T12:30:14.991Z</time></trkpt><trkpt lat="44.48404120490569" lon="12.012371718958116"><ele>4.0</ele><time>2026-05-03T12:30:15.991Z</time></trkpt><trkpt lat="44.484109547261326" lon="12.01254275575321"><ele>4.0</ele><time>2026-05-03T12:30:16.991Z</time></trkpt><trkpt lat="44.48418261500151" lon="12.01271367484805"><ele>4.0</ele><time>2026-05-03T12:30:17.991Z</time></trkpt><trkpt lat="44.484256668264734" lon="12.012885031250782"><ele>4.25</ele><time>2026-05-03T12:30:18.991Z</time></trkpt><trkpt lat="44.48433256635882" lon="12.013062286679693"><ele>4.5</ele><time>2026-05-03T12:30:19.991Z</time></trkpt><trkpt lat="44.484407081100215" lon="12.013242213549258"><ele>4.75</ele><time>2026-05-03T12:30:20.991Z</time></trkpt><trkpt lat="44.48447823244782" lon="12.013425331719422"><ele>5.0</ele><time>2026-05-03T12:30:21.991Z</time></trkpt><trkpt lat="44.48455594711594" lon="12.013611422069049"><ele>5.0</ele><time>2026-05-03T12:30:22.991Z</time></trkpt><trkpt lat="44.48463165220084" lon="12.013798068350157"><ele>5.0</ele><time>2026-05-03T12:30:23.992Z</time></trkpt><trkpt lat="44.48470852365969" lon="12.01399114788543"><ele>5.0</ele><time>2026-05-03T12:30:24.992Z</time></trkpt><trkpt lat="44.484788396846966" lon="12.014174909448053"><ele>5.0</ele><time>2026-05-03T12:30:25.992Z</time></trkpt><trkpt lat="44.484861040563246" lon="12.014361019107549"><ele>5.0</ele><time>2026-05-03T12:30:26.992Z</time></trkpt><trkpt lat="44.48494013998033" lon="12.014543933403818"><ele>5.0</ele><time>2026-05-03T12:30:27.992Z</time></trkpt><trkpt lat="44.485014822352575" lon="12.01472619296475"><ele>5.0</ele><time>2026-05-03T12:30:28.992Z</time></trkpt><trkpt lat="44.48508959903405" lon="12.014906691889516"><ele>5.0</ele><time>2026-05-03T12:30:29.992Z</time></trkpt><trkpt lat="44.48516374382329" lon="12.015081197729444"><ele>5.0</ele><time>2026-05-03T12:30:30.992Z</time></trkpt><trkpt lat="44.48523916525477" lon="12.015263413958273"><ele>5.0</ele><time>2026-05-03T12:30:31.992Z</time></trkpt><trkpt lat="44.48531574580927" lon="12.015444425136753"><ele>5.0</ele><time>2026-05-03T12:30:32.992Z</time></trkpt><trkpt lat="44.48538763740031" lon="12.01562337146105"><ele>5.0</ele><time>2026-05-03T12:30:33.992Z</time></trkpt><trkpt lat="44.485462852838104" lon="12.015805953628455"><ele>5.0</ele><time>2026-05-03T12:30:34.992Z</time></trkpt><trkpt lat="44.48553940288042" lon="12.015982708987412"><ele>5.0</ele><time>2026-05-03T12:30:35.992Z</time></trkpt><trkpt lat="44.485610873088014" lon="12.016152967477451"><ele>5.25</ele><time>2026-05-03T12:30:36.992Z</time></trkpt><trkpt lat="44.48568710206426" lon="12.01632278988793"><ele>5.5</ele><time>2026-05-03T12:30:37.992Z</time></trkpt><trkpt lat="44.485767631015804" lon="12.016489993963953"><ele>5.75</ele><time>2026-05-03T12:30:38.992Z</time></trkpt><trkpt lat="44.48585088697682" lon="12.016653070895376"><ele>6.0</ele><time>2026-05-03T12:30:39.992Z</time></trkpt><trkpt lat="44.485932052410185" lon="12.01682492151634"><ele>6.25</ele><time>2026-05-03T12:30:40.992Z</time></trkpt><trkpt lat="44.48600981265077" lon="12.016989750156707"><ele>6.5</ele><time>2026-05-03T12:30:41.992Z</time></trkpt><trkpt lat="44.48608722825864" lon="12.017155203056136"><ele>6.75</ele><time>2026-05-03T12:30:42.992Z</time></trkpt><trkpt lat="44.48616592393046" lon="12.017325005062968"><ele>7.0</ele><time>2026-05-03T12:30:43.992Z</time></trkpt><trkpt lat="44.48623714874567" lon="12.01749997472812"><ele>6.333333333333334</ele><time>2026-05-03T12:30:44.992Z</time></trkpt><trkpt lat="44.48631135642241" lon="12.017685678655688"><ele>5.666666666666667</ele><time>2026-05-03T12:30:45.992Z</time></trkpt><trkpt lat="44.48638312057439" lon="12.017873891509973"><ele>5.0</ele><time>2026-05-03T12:30:46.992Z</time></trkpt><trkpt lat="44.48645464441998" lon="12.018056507225019"><ele>5.0</ele><time>2026-05-03T12:30:47.992Z</time></trkpt><trkpt lat="44.48653070786019" lon="12.018245205989173"><ele>5.0</ele><time>2026-05-03T12:30:48.992Z</time></trkpt><trkpt lat="44.48660827465848" lon="12.018436863901327"><ele>5.0</ele><time>2026-05-03T12:30:49.992Z</time></trkpt><trkpt lat="44.486682546869254" lon="12.018628203073995"><ele>5.333333333333334</ele><time>2026-05-03T12:30:50.992Z</time></trkpt><trkpt lat="44.48675683305993" lon="12.018812593934598"><ele>5.666666666666667</ele><time>2026-05-03T12:30:51.992Z</time></trkpt><trkpt lat="44.48683436750521" lon="12.019000387710319"><ele>6.0</ele><time>2026-05-03T12:30:52.992Z</time></trkpt><trkpt lat="44.48690986034962" lon="12.019185118395061"><ele>6.333333333333334</ele><time>2026-05-03T12:30:53.992Z</time></trkpt><trkpt lat="44.48698420385853" lon="12.019370258706932"><ele>6.666666666666667</ele><time>2026-05-03T12:30:54.992Z</time></trkpt><trkpt lat="44.487073356401005" lon="12.019538769854385"><ele>7.0</ele><time>2026-05-03T12:30:55.992Z</time></trkpt><trkpt lat="44.4871491989284" lon="12.019733192481446"><ele>7.0</ele><time>2026-05-03T12:30:56.992Z</time></trkpt><trkpt lat="44.48722349018005" lon="12.019905280347063"><ele>7.0</ele><time>2026-05-03T12:30:57.992Z</time></trkpt><trkpt lat="44.48730487942513" lon="12.02008379600112"><ele>7.0</ele><time>2026-05-03T12:30:58.992Z</time></trkpt><trkpt lat="44.4873906789917" lon="12.020264589778344"><ele>6.333333333333334</ele><time>2026-05-03T12:30:59.992Z</time></trkpt><trkpt lat="44.48746345017338" lon="12.02043592519774"><ele>5.666666666666667</ele><time>2026-05-03T12:31:00.992Z</time></trkpt><trkpt lat="44.48754296349994" lon="12.020619216571415"><ele>5.0</ele><time>2026-05-03T12:31:01.992Z</time></trkpt><trkpt lat="44.48762417078257" lon="12.020804732802118"><ele>5.333333333333334</ele><time>2026-05-03T12:31:02.992Z</time></trkpt><trkpt lat="44.48770338408689" lon="12.02098631964197"><ele>5.666666666666667</ele><time>2026-05-03T12:31:03.992Z</time></trkpt><trkpt lat="44.48778257046479" lon="12.021170742766019"><ele>6.0</ele><time>2026-05-03T12:31:04.992Z</time></trkpt><trkpt lat="44.48786179691092" lon="12.021359575301405"><ele>6.0</ele><time>2026-05-03T12:31:05.992Z</time></trkpt><trkpt lat="44.487935814052676" lon="12.021540950176107"><ele>6.0</ele><time>2026-05-03T12:31:06.992Z</time></trkpt><trkpt lat="44.48801396832224" lon="12.02172262536872"><ele>6.0</ele><time>2026-05-03T12:31:07.992Z</time></trkpt><trkpt lat="44.48809223609185" lon="12.02190824857869"><ele>6.333333333333334</ele><time>2026-05-03T12:31:08.992Z</time></trkpt><trkpt lat="44.48816619594458" lon="12.022091898549954"><ele>6.666666666666667</ele><time>2026-05-03T12:31:09.992Z</time></trkpt><trkpt lat="44.48823376485706" lon="12.022286644815587"><ele>7.0</ele><time>2026-05-03T12:31:10.993Z</time></trkpt><trkpt lat="44.48829505909643" lon="12.022471624978671"><ele>7.0</ele><time>2026-05-03T12:31:11.988Z</time></trkpt><trkpt lat="44.48835631685169" lon="12.0226533332397"><ele>7.0</ele><time>2026-05-03T12:31:12.989Z</time></trkpt><trkpt lat="44.488417693104026" lon="12.022835170101077"><ele>7.0</ele><time>2026-05-03T12:31:13.989Z</time></trkpt><trkpt lat="44.48848560750134" lon="12.02302644086367"><ele>7.0</ele><time>2026-05-03T12:31:14.988Z</time></trkpt><trkpt lat="44.48855098055084" lon="12.023200360167632"><ele>7.0</ele><time>2026-05-03T12:31:15.988Z</time></trkpt><trkpt lat="44.48861870908235" lon="12.023380842730152"><ele>7.0</ele><time>2026-05-03T12:31:16.988Z</time></trkpt><trkpt lat="44.4886858300714" lon="12.023563221739527"><ele>7.0</ele><time>2026-05-03T12:31:17.988Z</time></trkpt><trkpt lat="44.488755333248434" lon="12.023743541875673"><ele>7.0</ele><time>2026-05-03T12:31:18.988Z</time></trkpt><trkpt lat="44.48882506242622" lon="12.023909232761048"><ele>7.0</ele><time>2026-05-03T12:31:19.988Z</time></trkpt><trkpt lat="44.48889445563108" lon="12.024086508556193"><ele>7.0</ele><time>2026-05-03T12:31:20.989Z</time></trkpt><trkpt lat="44.48896598441797" lon="12.024262557007129"><ele>7.0</ele><time>2026-05-03T12:31:21.988Z</time></trkpt><trkpt lat="44.4890424034544" lon="12.024439963069787"><ele>7.0</ele><time>2026-05-03T12:31:22.988Z</time></trkpt><trkpt lat="44.48911881119917" lon="12.0246236624477"><ele>6.75</ele><time>2026-05-03T12:31:23.988Z</time></trkpt><trkpt lat="44.489188281962505" lon="12.024804133242275"><ele>6.5</ele><time>2026-05-03T12:31:24.988Z</time></trkpt><trkpt lat="44.48925686825947" lon="12.024986075132999"><ele>6.25</ele><time>2026-05-03T12:31:25.988Z</time></trkpt><trkpt lat="44.48933063471347" lon="12.025171794143267"><ele>6.0</ele><time>2026-05-03T12:31:26.988Z</time></trkpt><trkpt lat="44.48940123234993" lon="12.025357361342678"><ele>6.0</ele><time>2026-05-03T12:31:27.988Z</time></trkpt><trkpt lat="44.48947496884435" lon="12.025537421293201"><ele>6.0</ele><time>2026-05-03T12:31:28.988Z</time></trkpt><trkpt lat="44.489548173203644" lon="12.025718479034078"><ele>6.0</ele><time>2026-05-03T12:31:29.988Z</time></trkpt><trkpt lat="44.4896217736495" lon="12.025898347087514"><ele>6.0</ele><time>2026-05-03T12:31:30.988Z</time></trkpt><trkpt lat="44.48969651092282" lon="12.026074276275192"><ele>6.0</ele><time>2026-05-03T12:31:31.988Z</time></trkpt><trkpt lat="44.48977456738853" lon="12.02624858020829"><ele>6.0</ele><time>2026-05-03T12:31:32.988Z</time></trkpt><trkpt lat="44.489849971703634" lon="12.02642576271433"><ele>6.0</ele><time>2026-05-03T12:31:33.988Z</time></trkpt><trkpt lat="44.48992024606463" lon="12.026600110953899"><ele>6.0</ele><time>2026-05-03T12:31:34.989Z</time></trkpt><trkpt lat="44.48998406610348" lon="12.026782136567146"><ele>5.333333333333333</ele><time>2026-05-03T12:31:35.989Z</time></trkpt><trkpt lat="44.49004490227418" lon="12.02697023624823"><ele>4.666666666666666</ele><time>2026-05-03T12:31:36.989Z</time></trkpt><trkpt lat="44.49010755764332" lon="12.027161405219708"><ele>4.0</ele><time>2026-05-03T12:31:37.989Z</time></trkpt><trkpt lat="44.49016914286329" lon="12.027365297982358"><ele>4.0</ele><time>2026-05-03T12:31:38.989Z</time></trkpt><trkpt lat="44.49022267996801" lon="12.027562366721353"><ele>4.0</ele><time>2026-05-03T12:31:39.989Z</time></trkpt><trkpt lat="44.4902785934169" lon="12.02775407164545"><ele>4.0</ele><time>2026-05-03T12:31:40.989Z</time></trkpt><trkpt lat="44.49033774407458" lon="12.027942052085166"><ele>4.0</ele><time>2026-05-03T12:31:41.989Z</time></trkpt><trkpt lat="44.49040217561152" lon="12.02812667476213"><ele>4.75</ele><time>2026-05-03T12:31:42.989Z</time></trkpt><trkpt lat="44.490466098457674" lon="12.028309507236074"><ele>5.5</ele><time>2026-05-03T12:31:43.989Z</time></trkpt><trkpt lat="44.49053030206434" lon="12.028486345813938"><ele>6.25</ele><time>2026-05-03T12:31:44.989Z</time></trkpt><trkpt lat="44.4906001532018" lon="12.02866310583228"><ele>7.0</ele><time>2026-05-03T12:31:45.989Z</time></trkpt><trkpt lat="44.49067155471058" lon="12.028838315223945"><ele>7.0</ele><time>2026-05-03T12:31:46.989Z</time></trkpt><trkpt lat="44.49074460788644" lon="12.029011337343153"><ele>7.0</ele><time>2026-05-03T12:31:47.989Z</time></trkpt><trkpt lat="44.49081992650679" lon="12.029177756762781"><ele>7.0</ele><time>2026-05-03T12:31:48.989Z</time></trkpt><trkpt lat="44.49090295318952" lon="12.029336312763661"><ele>7.0</ele><time>2026-05-03T12:31:49.989Z</time></trkpt><trkpt lat="44.49099478264546" lon="12.029493227982083"><ele>7.25</ele><time>2026-05-03T12:31:50.989Z</time></trkpt><trkpt lat="44.49108963452674" lon="12.029630328868112"><ele>7.5</ele><time>2026-05-03T12:31:51.989Z</time></trkpt><trkpt lat="44.4911861139482" lon="12.029762951933293"><ele>7.75</ele><time>2026-05-03T12:31:52.989Z</time></trkpt><trkpt lat="44.491283097380624" lon="12.029899195686777"><ele>8.0</ele><time>2026-05-03T12:31:53.989Z</time></trkpt><trkpt lat="44.491381131451384" lon="12.030037303774932"><ele>8.0</ele><time>2026-05-03T12:31:54.989Z</time></trkpt><trkpt lat="44.491481507919765" lon="12.030176076509209"><ele>8.0</ele><time>2026-05-03T12:31:55.989Z</time></trkpt><trkpt lat="44.49158505521121" lon="12.030313699098476"><ele>8.0</ele><time>2026-05-03T12:31:56.989Z</time></trkpt><trkpt lat="44.491688175284" lon="12.030452086097426"><ele>8.0</ele><time>2026-05-03T12:31:57.989Z</time></trkpt><trkpt lat="44.49179372360229" lon="12.03058974216692"><ele>8.0</ele><time>2026-05-03T12:31:58.989Z</time></trkpt><trkpt lat="44.49190303852861" lon="12.030725149184292"><ele>8.0</ele><time>2026-05-03T12:31:59.989Z</time></trkpt><trkpt lat="44.492011220770806" lon="12.030861411074813"><ele>8.0</ele><time>2026-05-03T12:32:00.989Z</time></trkpt><trkpt lat="44.49212248950793" lon="12.030998496137023"><ele>8.0</ele><time>2026-05-03T12:32:01.989Z</time></trkpt><trkpt lat="44.4922249710404" lon="12.031135014819284"><ele>7.25</ele><time>2026-05-03T12:32:02.989Z</time></trkpt><trkpt lat="44.49232946858237" lon="12.031273078846482"><ele>6.5</ele><time>2026-05-03T12:32:03.989Z</time></trkpt><trkpt lat="44.492434396807674" lon="12.03140962555186"><ele>5.75</ele><time>2026-05-03T12:32:04.989Z</time></trkpt><trkpt lat="44.49253492217432" lon="12.031550241722975"><ele>5.0</ele><time>2026-05-03T12:32:05.989Z</time></trkpt><trkpt lat="44.49264254490937" lon="12.031693951436063"><ele>5.0</ele><time>2026-05-03T12:32:06.989Z</time></trkpt><trkpt lat="44.492739488582494" lon="12.03183717409226"><ele>5.0</ele><time>2026-05-03T12:32:07.989Z</time></trkpt><trkpt lat="44.4928351893224" lon="12.031983547421369"><ele>5.0</ele><time>2026-05-03T12:32:08.989Z</time></trkpt><trkpt lat="44.49293271677532" lon="12.032127463632579"><ele>5.0</ele><time>2026-05-03T12:32:09.989Z</time></trkpt><trkpt lat="44.49303295703747" lon="12.032272076825974"><ele>4.75</ele><time>2026-05-03T12:32:10.989Z</time></trkpt><trkpt lat="44.49313056911309" lon="12.032414798661609"><ele>4.5</ele><time>2026-05-03T12:32:11.989Z</time></trkpt><trkpt lat="44.49322897668201" lon="12.032552718615824"><ele>4.25</ele><time>2026-05-03T12:32:12.989Z</time></trkpt><trkpt lat="44.49332425939857" lon="12.032691886498373"><ele>4.0</ele><time>2026-05-03T12:32:13.989Z</time></trkpt><trkpt lat="44.493425482294654" lon="12.032822550360216"><ele>4.0</ele><time>2026-05-03T12:32:14.989Z</time></trkpt><trkpt lat="44.493529623313705" lon="12.032963186911655"><ele>4.0</ele><time>2026-05-03T12:32:15.989Z</time></trkpt><trkpt lat="44.49362928231055" lon="12.033105604482941"><ele>4.0</ele><time>2026-05-03T12:32:16.989Z</time></trkpt><trkpt lat="44.493735130486016" lon="12.033247172321486"><ele>4.0</ele><time>2026-05-03T12:32:17.989Z</time></trkpt><trkpt lat="44.49384229904247" lon="12.033390423543743"><ele>4.0</ele><time>2026-05-03T12:32:18.989Z</time></trkpt><trkpt lat="44.49394502867516" lon="12.033536191333448"><ele>4.0</ele><time>2026-05-03T12:32:19.989Z</time></trkpt><trkpt lat="44.494045183771476" lon="12.03368108671808"><ele>4.0</ele><time>2026-05-03T12:32:20.989Z</time></trkpt><trkpt lat="44.49414892710462" lon="12.033828685953251"><ele>4.0</ele><time>2026-05-03T12:32:21.99Z</time></trkpt><trkpt lat="44.4942437069926" lon="12.033975340014887"><ele>4.0</ele><time>2026-05-03T12:32:22.99Z</time></trkpt><trkpt lat="44.494345641665596" lon="12.034122051412282"><ele>4.0</ele><time>2026-05-03T12:32:23.99Z</time></trkpt><trkpt lat="44.4944416974034" lon="12.034269262177263"><ele>4.0</ele><time>2026-05-03T12:32:24.99Z</time></trkpt><trkpt lat="44.49453425529059" lon="12.03441043803015"><ele>4.0</ele><time>2026-05-03T12:32:25.99Z</time></trkpt><trkpt lat="44.49462592726439" lon="12.034551622731254"><ele>4.0</ele><time>2026-05-03T12:32:26.99Z</time></trkpt><trkpt lat="44.49471170931979" lon="12.034695903122087"><ele>4.0</ele><time>2026-05-03T12:32:27.99Z</time></trkpt><trkpt lat="44.4947976305497" lon="12.034838442890274"><ele>4.0</ele><time>2026-05-03T12:32:28.99Z</time></trkpt><trkpt lat="44.49488741979091" lon="12.034980998807434"><ele>4.0</ele><time>2026-05-03T12:32:29.99Z</time></trkpt><trkpt lat="44.4949698254766" lon="12.035120125695574"><ele>4.0</ele><time>2026-05-03T12:32:30.99Z</time></trkpt><trkpt lat="44.495053257096565" lon="12.03525522451772"><ele>4.0</ele><time>2026-05-03T12:32:31.99Z</time></trkpt><trkpt lat="44.49513926007089" lon="12.035384732132979"><ele>4.0</ele><time>2026-05-03T12:32:32.99Z</time></trkpt><trkpt lat="44.49523017778552" lon="12.035508189715843"><ele>4.0</ele><time>2026-05-03T12:32:33.99Z</time></trkpt><trkpt lat="44.49532266486405" lon="12.035621623748286"><ele>3.75</ele><time>2026-05-03T12:32:34.99Z</time></trkpt><trkpt lat="44.495428020109486" lon="12.03573203041143"><ele>3.5</ele><time>2026-05-03T12:32:35.99Z</time></trkpt><trkpt lat="44.495540208422604" lon="12.035828744465919"><ele>3.25</ele><time>2026-05-03T12:32:36.99Z</time></trkpt><trkpt lat="44.495649137970915" lon="12.035922422472142"><ele>3.0</ele><time>2026-05-03T12:32:37.99Z</time></trkpt><trkpt lat="44.49575641405952" lon="12.03601443813349"><ele>3.5</ele><time>2026-05-03T12:32:38.99Z</time></trkpt><trkpt lat="44.495868246150664" lon="12.036106640032797"><ele>4.0</ele><time>2026-05-03T12:32:39.99Z</time></trkpt><trkpt lat="44.49597764497938" lon="12.036192406617792"><ele>4.5</ele><time>2026-05-03T12:32:40.99Z</time></trkpt><trkpt lat="44.49609173642852" lon="12.036271309485283"><ele>5.0</ele><time>2026-05-03T12:32:41.99Z</time></trkpt><trkpt lat="44.496214683481256" lon="12.03634301487155"><ele>4.75</ele><time>2026-05-03T12:32:42.99Z</time></trkpt><trkpt lat="44.49634191704155" lon="12.036406644504597"><ele>4.5</ele><time>2026-05-03T12:32:43.99Z</time></trkpt><trkpt lat="44.49647203681337" lon="12.036467043606121"><ele>4.25</ele><time>2026-05-03T12:32:44.99Z</time></trkpt><trkpt lat="44.49660099983798" lon="12.036515969039389"><ele>4.0</ele><time>2026-05-03T12:32:45.99Z</time></trkpt><trkpt lat="44.49672846664903" lon="12.036562190819437"><ele>4.0</ele><time>2026-05-03T12:32:46.99Z</time></trkpt><trkpt lat="44.49685214548575" lon="12.036608760613529"><ele>4.0</ele><time>2026-05-03T12:32:47.99Z</time></trkpt><trkpt lat="44.49697143548914" lon="12.036647920478341"><ele>4.0</ele><time>2026-05-03T12:32:48.99Z</time></trkpt><trkpt lat="44.49709053514539" lon="12.036689507428052"><ele>4.0</ele><time>2026-05-03T12:32:49.99Z</time></trkpt><trkpt lat="44.49720796126144" lon="12.036735641067438"><ele>4.75</ele><time>2026-05-03T12:32:50.99Z</time></trkpt><trkpt lat="44.49732231684261" lon="12.036777500441238"><ele>5.5</ele><time>2026-05-03T12:32:51.99Z</time></trkpt><trkpt lat="44.49743670194833" lon="12.03682149519589"><ele>6.25</ele><time>2026-05-03T12:32:52.99Z</time></trkpt><trkpt lat="44.497545938710665" lon="12.036858932659785"><ele>7.0</ele><time>2026-05-03T12:32:53.99Z</time></trkpt><trkpt lat="44.49765417797359" lon="12.036890538214537"><ele>7.0</ele><time>2026-05-03T12:32:54.99Z</time></trkpt><trkpt lat="44.49775705207378" lon="12.036921755931049"><ele>6.999999999999999</ele><time>2026-05-03T12:32:55.99Z</time></trkpt><trkpt lat="44.497846810517416" lon="12.036943324146746"><ele>6.999999999999999</ele><time>2026-05-03T12:32:56.99Z</time></trkpt><trkpt lat="44.49800750424698" lon="12.036993192948836"><ele>7.0</ele><time>2026-05-03T12:32:58.99Z</time></trkpt><trkpt lat="44.498088308673374" lon="12.037014961440082"><ele>7.0</ele><time>2026-05-03T12:32:59.99Z</time></trkpt><trkpt lat="44.49818325888177" lon="12.037044862686976"><ele>6.3999999999999995</ele><time>2026-05-03T12:33:00.99Z</time></trkpt><trkpt lat="44.49832424001876" lon="12.037099373276705"><ele>5.799999999999999</ele><time>2026-05-03T12:33:02.99Z</time></trkpt><trkpt lat="44.4984076509287" lon="12.037135212501708"><ele>5.2</ele><time>2026-05-03T12:33:03.99Z</time></trkpt><trkpt lat="44.498492893128926" lon="12.037171806097485"><ele>4.6</ele><time>2026-05-03T12:33:04.99Z</time></trkpt><trkpt lat="44.49857864794848" lon="12.03721145226079"><ele>4.0</ele><time>2026-05-03T12:33:05.99Z</time></trkpt><trkpt lat="44.49867476965428" lon="12.03725835555522"><ele>3.8000000000000003</ele><time>2026-05-03T12:33:06.99Z</time></trkpt><trkpt lat="44.49876420480212" lon="12.037306126697453"><ele>3.6000000000000005</ele><time>2026-05-03T12:33:07.99Z</time></trkpt><trkpt lat="44.4988562557092" lon="12.037352404067805"><ele>3.4</ele><time>2026-05-03T12:33:08.991Z</time></trkpt><trkpt lat="44.49894763500238" lon="12.037406778731441"><ele>3.2</ele><time>2026-05-03T12:33:09.991Z</time></trkpt><trkpt lat="44.499034671738244" lon="12.037458320971814"><ele>3.0</ele><time>2026-05-03T12:33:10.991Z</time></trkpt><trkpt lat="44.499112093244975" lon="12.037517982291318"><ele>3.0</ele><time>2026-05-03T12:33:11.991Z</time></trkpt><trkpt lat="44.49918571270942" lon="12.037570953782039"><ele>3.0</ele><time>2026-05-03T12:33:12.991Z</time></trkpt><trkpt lat="44.49925048092827" lon="12.037636270502519"><ele>3.0</ele><time>2026-05-03T12:33:13.991Z</time></trkpt><trkpt lat="44.499328131369296" lon="12.037692304389074"><ele>3.0</ele><time>2026-05-03T12:33:14.991Z</time></trkpt><trkpt lat="44.49938110135618" lon="12.037743632273846"><ele>3.0</ele><time>2026-05-03T12:33:15.991Z</time></trkpt><trkpt lat="44.499459867121175" lon="12.037820253058095"><ele>3.0</ele><time>2026-05-03T12:33:17.986Z</time></trkpt><trkpt lat="44.49952623692782" lon="12.037873665030045"><ele>3.0</ele><time>2026-05-03T12:33:19.986Z</time></trkpt><trkpt lat="44.49960620007868" lon="12.037844738512124"><ele>3.0</ele><time>2026-05-03T12:33:21.986Z</time></trkpt><trkpt lat="44.49963851378437" lon="12.037765764774267"><ele>3.0</ele><time>2026-05-03T12:33:22.986Z</time></trkpt><trkpt lat="44.4997058794526" lon="12.037636254249142"><ele>3.0</ele><time>2026-05-03T12:33:24.986Z</time></trkpt><trkpt lat="44.499751221693074" lon="12.037574373224146"><ele>3.0</ele><time>2026-05-03T12:33:25.986Z</time></trkpt><trkpt lat="44.49983320984501" lon="12.037475265610949"><ele>3.0</ele><time>2026-05-03T12:33:27.986Z</time></trkpt><trkpt lat="44.49990963956388" lon="12.037443746372276"><ele>3.0</ele><time>2026-05-03T12:33:29.986Z</time></trkpt><trkpt lat="44.49996859206679" lon="12.037550788071702"><ele>3.0</ele><time>2026-05-03T12:33:31.986Z</time></trkpt><trkpt lat="44.500046767940894" lon="12.037705617794115"><ele>3.0</ele><time>2026-05-03T12:33:33.986Z</time></trkpt><trkpt lat="44.500093866138435" lon="12.037798163625194"><ele>3.0</ele><time>2026-05-03T12:33:34.986Z</time></trkpt><trkpt lat="44.500162170257255" lon="12.037901636388517"><ele>3.0</ele><time>2026-05-03T12:33:35.986Z</time></trkpt><trkpt lat="44.5002389260169" lon="12.037991887966017"><ele>3.0</ele><time>2026-05-03T12:33:36.986Z</time></trkpt><trkpt lat="44.50030978460541" lon="12.038080497158036"><ele>3.0</ele><time>2026-05-03T12:33:37.986Z</time></trkpt><trkpt lat="44.50036947391046" lon="12.038151192152313"><ele>3.0</ele><time>2026-05-03T12:33:38.986Z</time></trkpt><trkpt lat="44.50043126697071" lon="12.038220299324978"><ele>3.0</ele><time>2026-05-03T12:33:39.986Z</time></trkpt><trkpt lat="44.500522367289435" lon="12.038320102561771"><ele>3.0</ele><time>2026-05-03T12:33:41.987Z</time></trkpt><trkpt lat="44.500573458709525" lon="12.038392826785673"><ele>3.0</ele><time>2026-05-03T12:33:43.987Z</time></trkpt><trkpt lat="44.500565189981906" lon="12.038491585775134"><ele>3.0</ele><time>2026-05-03T12:33:46.987Z</time></trkpt><trkpt lat="44.50051125979426" lon="12.038605922294819"><ele>3.0</ele><time>2026-05-03T12:33:48.987Z</time></trkpt><trkpt lat="44.50046772972777" lon="12.038680873840608"><ele>3.0</ele><time>2026-05-03T12:33:51.987Z</time></trkpt><trkpt lat="44.50042124788576" lon="12.0387484444845"><ele>3.0</ele><time>2026-05-03T12:33:55.987Z</time></trkpt><trkpt lat="44.50038004361305" lon="12.03886486643741"><ele>3.0</ele><time>2026-05-03T12:33:58.987Z</time></trkpt><trkpt lat="44.500430546494016" lon="12.038979548346473"><ele>3.0</ele><time>2026-05-03T12:34:00.987Z</time></trkpt><trkpt lat="44.50050624995906" lon="12.03907388955105"><ele>3.5</ele><time>2026-05-03T12:34:02.987Z</time></trkpt><trkpt lat="44.50054889195911" lon="12.039147398566225"><ele>4.0</ele><time>2026-05-03T12:34:03.987Z</time></trkpt><trkpt lat="44.500594796295864" lon="12.039218283212467"><ele>4.5</ele><time>2026-05-03T12:34:04.987Z</time></trkpt><trkpt lat="44.50064384734552" lon="12.03929628167593"><ele>5.0</ele><time>2026-05-03T12:34:05.987Z</time></trkpt><trkpt lat="44.50068594802512" lon="12.039366408992354"><ele>5.5</ele><time>2026-05-03T12:34:06.987Z</time></trkpt><trkpt lat="44.5007501606709" lon="12.039475448621248"><ele>6.0</ele><time>2026-05-03T12:34:08.987Z</time></trkpt><trkpt lat="44.5008024450113" lon="12.03955464909089"><ele>6.0</ele><time>2026-05-03T12:34:10.987Z</time></trkpt><trkpt lat="44.50082285908594" lon="12.039644993485298"><ele>6.0</ele><time>2026-05-03T12:34:12.987Z</time></trkpt><trkpt lat="44.500766597989006" lon="12.03974284863333"><ele>6.0</ele><time>2026-05-03T12:34:14.987Z</time></trkpt><trkpt lat="44.50067244814469" lon="12.039868012937491"><ele>6.0</ele><time>2026-05-03T12:34:16.987Z</time></trkpt><trkpt lat="44.500618293335016" lon="12.03994611395049"><ele>6.0</ele><time>2026-05-03T12:34:17.987Z</time></trkpt><trkpt lat="44.50056985095845" lon="12.040020808512157"><ele>6.0</ele><time>2026-05-03T12:34:18.987Z</time></trkpt><trkpt lat="44.50052895356192" lon="12.040092788547911"><ele>6.0</ele><time>2026-05-03T12:34:19.987Z</time></trkpt><trkpt lat="44.50044765983657" lon="12.04021206409109"><ele>6.0</ele><time>2026-05-03T12:34:21.987Z</time></trkpt><trkpt lat="44.50040143880223" lon="12.040284340842843"><ele>6.0</ele><time>2026-05-03T12:34:22.987Z</time></trkpt><trkpt lat="44.500346343021214" lon="12.04037373155563"><ele>6.0</ele><time>2026-05-03T12:34:23.987Z</time></trkpt><trkpt lat="44.50028745040679" lon="12.040457970532882"><ele>6.0</ele><time>2026-05-03T12:34:24.987Z</time></trkpt><trkpt lat="44.500235248338335" lon="12.040553014996325"><ele>6.0</ele><time>2026-05-03T12:34:25.987Z</time></trkpt><trkpt lat="44.50018167308377" lon="12.040642111670257"><ele>5.833333333333333</ele><time>2026-05-03T12:34:26.987Z</time></trkpt><trkpt lat="44.500123101351214" lon="12.040737485426623"><ele>5.666666666666667</ele><time>2026-05-03T12:34:27.987Z</time></trkpt><trkpt lat="44.50006135638074" lon="12.040820319229859"><ele>5.5</ele><time>2026-05-03T12:34:28.987Z</time></trkpt><trkpt lat="44.50000583443398" lon="12.04089910850014"><ele>5.333333333333334</ele><time>2026-05-03T12:34:29.987Z</time></trkpt><trkpt lat="44.49995914944122" lon="12.040962395509254"><ele>5.166666666666667</ele><time>2026-05-03T12:34:30.987Z</time></trkpt><trkpt lat="44.49987858969897" lon="12.041080958611724"><ele>5.0</ele><time>2026-05-03T12:34:32.987Z</time></trkpt><trkpt lat="44.49981399655095" lon="12.041167819061782"><ele>5.0</ele><time>2026-05-03T12:34:34.987Z</time></trkpt><trkpt lat="44.499777015768345" lon="12.041245842733973"><ele>5.0</ele><time>2026-05-03T12:34:40.987Z</time></trkpt><trkpt lat="44.49973086527225" lon="12.041322117074012"><ele>5.0</ele><time>2026-05-03T12:34:42.987Z</time></trkpt><trkpt lat="44.49965482038221" lon="12.041382651000301"><ele>5.0</ele><time>2026-05-03T12:34:44.988Z</time></trkpt><trkpt lat="44.49959781425185" lon="12.04133037506554"><ele>5.0</ele><time>2026-05-03T12:34:46.988Z</time></trkpt><trkpt lat="44.499530492203554" lon="12.041225623189842"><ele>5.0</ele><time>2026-05-03T12:34:48.988Z</time></trkpt><trkpt lat="44.49947398483581" lon="12.041156237916423"><ele>4.833333333333334</ele><time>2026-05-03T12:34:50.988Z</time></trkpt><trkpt lat="44.49939771391612" lon="12.041156637643718"><ele>4.666666666666667</ele><time>2026-05-03T12:34:53.988Z</time></trkpt><trkpt lat="44.499310599753905" lon="12.041264270523847"><ele>4.5</ele><time>2026-05-03T12:34:55.988Z</time></trkpt><trkpt lat="44.49926196018242" lon="12.041332150403985"><ele>4.333333333333333</ele><time>2026-05-03T12:34:56.988Z</time></trkpt><trkpt lat="44.49920310871363" lon="12.041401384521503"><ele>4.166666666666666</ele><time>2026-05-03T12:34:57.988Z</time></trkpt><trkpt lat="44.49915983850373" lon="12.041473850147296"><ele>4.0</ele><time>2026-05-03T12:34:58.988Z</time></trkpt><trkpt lat="44.499079452641915" lon="12.041605416737244"><ele>4.0</ele><time>2026-05-03T12:35:00.988Z</time></trkpt><trkpt lat="44.49907224817137" lon="12.04174336547772"><ele>4.0</ele><time>2026-05-03T12:35:02.988Z</time></trkpt><trkpt lat="44.49915242702001" lon="12.041869527612205"><ele>4.0</ele><time>2026-05-03T12:35:04.988Z</time></trkpt><trkpt lat="44.49919921311764" lon="12.04195677995967"><ele>4.0</ele><time>2026-05-03T12:35:05.988Z</time></trkpt><trkpt lat="44.499260666594765" lon="12.042056287715164"><ele>4.0</ele><time>2026-05-03T12:35:06.988Z</time></trkpt><trkpt lat="44.499332467108665" lon="12.042155518439143"><ele>3.9999999999999996</ele><time>2026-05-03T12:35:07.988Z</time></trkpt><trkpt lat="44.49940793231128" lon="12.042245109251624"><ele>4.0</ele><time>2026-05-03T12:35:08.988Z</time></trkpt><trkpt lat="44.49948581871882" lon="12.042323527719311"><ele>4.0</ele><time>2026-05-03T12:35:09.988Z</time></trkpt><trkpt lat="44.49954923591583" lon="12.042409276213476"><ele>4.0</ele><time>2026-05-03T12:35:10.988Z</time></trkpt><trkpt lat="44.49959901260329" lon="12.042489330583635"><ele>3.9999999999999996</ele><time>2026-05-03T12:35:11.988Z</time></trkpt><trkpt lat="44.4996470896414" lon="12.042562209168826"><ele>4.0</ele><time>2026-05-03T12:35:12.988Z</time></trkpt><trkpt lat="44.49970187746443" lon="12.042657866084646"><ele>4.166666666666666</ele><time>2026-05-03T12:35:14.988Z</time></trkpt><trkpt lat="44.49974055495355" lon="12.042737264830707"><ele>4.333333333333333</ele><time>2026-05-03T12:35:18.988Z</time></trkpt><trkpt lat="44.49979602593352" lon="12.042788532526899"><ele>4.5</ele><time>2026-05-03T12:35:31.983Z</time></trkpt><trkpt lat="44.49987970008634" lon="12.042904982396053"><ele>4.666666666666667</ele><time>2026-05-03T12:36:41.985Z</time></trkpt><trkpt lat="44.499931562720406" lon="12.042965175159226"><ele>4.833333333333334</ele><time>2026-05-03T12:36:42.985Z</time></trkpt><trkpt lat="44.50002185115382" lon="12.043085848750598"><ele>5.0</ele><time>2026-05-03T12:36:44.985Z</time></trkpt><trkpt lat="44.5000711415753" lon="12.043148865018324"><ele>5.0</ele><time>2026-05-03T12:36:45.985Z</time></trkpt><trkpt lat="44.50012157776595" lon="12.0432275700228"><ele>5.0</ele><time>2026-05-03T12:36:46.985Z</time></trkpt><trkpt lat="44.50017366448736" lon="12.043303423570672"><ele>5.0</ele><time>2026-05-03T12:36:47.985Z</time></trkpt><trkpt lat="44.50023539102979" lon="12.043388855818055"><ele>5.0</ele><time>2026-05-03T12:36:48.985Z</time></trkpt><trkpt lat="44.50030043859952" lon="12.043474267494444"><ele>5.0</ele><time>2026-05-03T12:36:49.985Z</time></trkpt><trkpt lat="44.500362419274765" lon="12.043560045246064"><ele>5.0</ele><time>2026-05-03T12:36:50.985Z</time></trkpt><trkpt lat="44.50042747543494" lon="12.043655518964115"><ele>4.5</ele><time>2026-05-03T12:36:51.985Z</time></trkpt><trkpt lat="44.50050192839814" lon="12.043761308999212"><ele>4.0</ele><time>2026-05-03T12:36:52.985Z</time></trkpt><trkpt lat="44.500579661282345" lon="12.04387250801009"><ele>3.5</ele><time>2026-05-03T12:36:53.985Z</time></trkpt><trkpt lat="44.500660255075566" lon="12.043991773574685"><ele>3.0</ele><time>2026-05-03T12:36:54.985Z</time></trkpt><trkpt lat="44.5007413118507" lon="12.044118353324958"><ele>3.0</ele><time>2026-05-03T12:36:55.985Z</time></trkpt><trkpt lat="44.50083034050333" lon="12.044243684893704"><ele>3.0</ele><time>2026-05-03T12:36:56.985Z</time></trkpt><trkpt lat="44.500925759152786" lon="12.04438112354524"><ele>3.0</ele><time>2026-05-03T12:36:57.985Z</time></trkpt><trkpt lat="44.50102604513084" lon="12.044524432367622"><ele>3.0</ele><time>2026-05-03T12:36:58.985Z</time></trkpt><trkpt lat="44.50112638751079" lon="12.044667746398176"><ele>3.0</ele><time>2026-05-03T12:36:59.985Z</time></trkpt><trkpt lat="44.501225515403114" lon="12.044816851939084"><ele>3.0</ele><time>2026-05-03T12:37:00.985Z</time></trkpt><trkpt lat="44.5013270256393" lon="12.044964211536229"><ele>3.0</ele><time>2026-05-03T12:37:01.985Z</time></trkpt><trkpt lat="44.5014354623691" lon="12.045114045845665"><ele>3.0</ele><time>2026-05-03T12:37:02.985Z</time></trkpt><trkpt lat="44.50154175978955" lon="12.045252624661048"><ele>3.5</ele><time>2026-05-03T12:37:03.985Z</time></trkpt><trkpt lat="44.501634197155454" lon="12.045381708259471"><ele>4.0</ele><time>2026-05-03T12:37:04.985Z</time></trkpt><trkpt lat="44.50171259101001" lon="12.045496392467664"><ele>4.5</ele><time>2026-05-03T12:37:05.985Z</time></trkpt><trkpt lat="44.50177928277794" lon="12.045605146487228"><ele>5.0</ele><time>2026-05-03T12:37:06.985Z</time></trkpt><trkpt lat="44.5018533167021" lon="12.045709292317152"><ele>5.0</ele><time>2026-05-03T12:37:07.985Z</time></trkpt><trkpt lat="44.50193328547437" lon="12.045816604593938"><ele>5.0</ele><time>2026-05-03T12:37:08.985Z</time></trkpt><trkpt lat="44.50201510746826" lon="12.045927397511782"><ele>5.0</ele><time>2026-05-03T12:37:09.985Z</time></trkpt><trkpt lat="44.50209900163476" lon="12.04604411456789"><ele>5.0</ele><time>2026-05-03T12:37:10.985Z</time></trkpt><trkpt lat="44.502187293133595" lon="12.046163927873947"><ele>5.0</ele><time>2026-05-03T12:37:11.985Z</time></trkpt><trkpt lat="44.50227351677769" lon="12.046283643710076"><ele>5.0</ele><time>2026-05-03T12:37:12.985Z</time></trkpt><trkpt lat="44.5023650798487" lon="12.046412337174836"><ele>5.0</ele><time>2026-05-03T12:37:13.985Z</time></trkpt><trkpt lat="44.502457137198064" lon="12.046541171220092"><ele>5.0</ele><time>2026-05-03T12:37:14.985Z</time></trkpt><trkpt lat="44.50255206367327" lon="12.046674092899375"><ele>5.0</ele><time>2026-05-03T12:37:15.985Z</time></trkpt><trkpt lat="44.50264459738283" lon="12.046805475984714"><ele>5.0</ele><time>2026-05-03T12:37:16.985Z</time></trkpt><trkpt lat="44.502737998687635" lon="12.046928882936594"><ele>5.0</ele><time>2026-05-03T12:37:17.985Z</time></trkpt><trkpt lat="44.50282797774627" lon="12.047055097344126"><ele>5.0</ele><time>2026-05-03T12:37:18.985Z</time></trkpt><trkpt lat="44.502913336510325" lon="12.047175671187379"><ele>5.0</ele><time>2026-05-03T12:37:19.985Z</time></trkpt><trkpt lat="44.50298167915417" lon="12.047284945322847"><ele>5.0</ele><time>2026-05-03T12:37:20.985Z</time></trkpt><trkpt lat="44.50304435743479" lon="12.047383015011047"><ele>5.0</ele><time>2026-05-03T12:37:21.986Z</time></trkpt><trkpt lat="44.50309161861717" lon="12.047479980688633"><ele>5.0</ele><time>2026-05-03T12:37:22.986Z</time></trkpt><trkpt lat="44.503126871403346" lon="12.047589956226037"><ele>5.0</ele><time>2026-05-03T12:37:23.986Z</time></trkpt><trkpt lat="44.50314624147745" lon="12.047703538003422"><ele>5.166666666666667</ele><time>2026-05-03T12:37:24.986Z</time></trkpt><trkpt lat="44.50315346828334" lon="12.047826644427458"><ele>5.333333333333334</ele><time>2026-05-03T12:37:25.986Z</time></trkpt><trkpt lat="44.50316719074601" lon="12.047944873723484"><ele>5.5</ele><time>2026-05-03T12:37:26.986Z</time></trkpt><trkpt lat="44.5031773468289" lon="12.048060254329549"><ele>5.666666666666667</ele><time>2026-05-03T12:37:27.986Z</time></trkpt><trkpt lat="44.503195242674444" lon="12.048169191703218"><ele>5.833333333333333</ele><time>2026-05-03T12:37:28.986Z</time></trkpt><trkpt lat="44.50321225578432" lon="12.048267040862719"><ele>6.0</ele><time>2026-05-03T12:37:29.981Z</time></trkpt><trkpt lat="44.5032315617642" lon="12.048351421829269"><ele>6.4</ele><time>2026-05-03T12:37:30.981Z</time></trkpt><trkpt lat="44.503272231247074" lon="12.048449253478436"><ele>6.8</ele><time>2026-05-03T12:37:32.981Z</time></trkpt><trkpt lat="44.50331928965608" lon="12.04854519782806"><ele>7.200000000000001</ele><time>2026-05-03T12:37:36.98Z</time></trkpt><trkpt lat="44.50338975978286" lon="12.048699249986946"><ele>7.6000000000000005</ele><time>2026-05-03T12:37:39.981Z</time></trkpt><trkpt lat="44.50347456085605" lon="12.048844958048974"><ele>8.0</ele><time>2026-05-03T12:37:41.981Z</time></trkpt><trkpt lat="44.50355099366086" lon="12.048917118671001"><ele>8.0</ele><time>2026-05-03T12:37:42.981Z</time></trkpt><trkpt lat="44.50362716183306" lon="12.048978716967882"><ele>8.0</ele><time>2026-05-03T12:37:43.981Z</time></trkpt><trkpt lat="44.50370576960555" lon="12.04904197169046"><ele>8.0</ele><time>2026-05-03T12:37:44.981Z</time></trkpt><trkpt lat="44.50379207013534" lon="12.049113643001101"><ele>8.0</ele><time>2026-05-03T12:37:45.981Z</time></trkpt><trkpt lat="44.503880530655216" lon="12.049203168075941"><ele>8.0</ele><time>2026-05-03T12:37:46.981Z</time></trkpt><trkpt lat="44.503972974140225" lon="12.049301626033134"><ele>8.25</ele><time>2026-05-03T12:37:47.981Z</time></trkpt><trkpt lat="44.50406926812945" lon="12.049425439011396"><ele>8.5</ele><time>2026-05-03T12:37:48.981Z</time></trkpt><trkpt lat="44.504149424111276" lon="12.049565354676334"><ele>8.75</ele><time>2026-05-03T12:37:49.981Z</time></trkpt><trkpt lat="44.50421241645109" lon="12.049727268769262"><ele>9.0</ele><time>2026-05-03T12:37:50.981Z</time></trkpt><trkpt lat="44.50425915698192" lon="12.049898509253044"><ele>8.25</ele><time>2026-05-03T12:37:51.981Z</time></trkpt><trkpt lat="44.5043017847527" lon="12.050070469040294"><ele>7.5</ele><time>2026-05-03T12:37:52.981Z</time></trkpt><trkpt lat="44.50434631769012" lon="12.050243415625065"><ele>6.75</ele><time>2026-05-03T12:37:53.981Z</time></trkpt><trkpt lat="44.50439174441377" lon="12.050413413832961"><ele>6.0</ele><time>2026-05-03T12:37:54.981Z</time></trkpt><trkpt lat="44.504437585768216" lon="12.050577809618915"><ele>6.0</ele><time>2026-05-03T12:37:55.981Z</time></trkpt><trkpt lat="44.504476687890026" lon="12.050722813003013"><ele>6.0</ele><time>2026-05-03T12:37:56.981Z</time></trkpt><trkpt lat="44.50451065113695" lon="12.05084971155038"><ele>6.0</ele><time>2026-05-03T12:37:57.981Z</time></trkpt><trkpt lat="44.504542739269525" lon="12.050971134918045"><ele>6.0</ele><time>2026-05-03T12:37:58.981Z</time></trkpt><trkpt lat="44.50457967051725" lon="12.051104684561619"><ele>6.0</ele><time>2026-05-03T12:37:59.981Z</time></trkpt><trkpt lat="44.504624286871554" lon="12.051241215578678"><ele>5.75</ele><time>2026-05-03T12:38:00.981Z</time></trkpt><trkpt lat="44.5046661278298" lon="12.05137986939303"><ele>5.5</ele><time>2026-05-03T12:38:01.981Z</time></trkpt><trkpt lat="44.50471107148591" lon="12.051523208873986"><ele>5.25</ele><time>2026-05-03T12:38:02.981Z</time></trkpt><trkpt lat="44.504760885518586" lon="12.051666451352569"><ele>5.0</ele><time>2026-05-03T12:38:03.982Z</time></trkpt><trkpt lat="44.504810268358646" lon="12.051820345367233"><ele>5.0</ele><time>2026-05-03T12:38:04.982Z</time></trkpt><trkpt lat="44.504856641487095" lon="12.05196833399975"><ele>5.0</ele><time>2026-05-03T12:38:05.982Z</time></trkpt><trkpt lat="44.50490722967121" lon="12.052128610635341"><ele>5.0</ele><time>2026-05-03T12:38:06.982Z</time></trkpt><trkpt lat="44.50495856603012" lon="12.05229391745227"><ele>5.0</ele><time>2026-05-03T12:38:07.982Z</time></trkpt><trkpt lat="44.505009975947154" lon="12.05246182297949"><ele>5.0</ele><time>2026-05-03T12:38:08.982Z</time></trkpt><trkpt lat="44.50507036406417" lon="12.05263084858152"><ele>5.0</ele><time>2026-05-03T12:38:09.982Z</time></trkpt><trkpt lat="44.50513168469748" lon="12.05281158754612"><ele>5.0</ele><time>2026-05-03T12:38:10.982Z</time></trkpt><trkpt lat="44.50519517685552" lon="12.052985859218008"><ele>5.0</ele><time>2026-05-03T12:38:11.982Z</time></trkpt><trkpt lat="44.50526071647047" lon="12.053159912577566"><ele>5.0</ele><time>2026-05-03T12:38:12.982Z</time></trkpt><trkpt lat="44.50532920242787" lon="12.053336301238437"><ele>5.0</ele><time>2026-05-03T12:38:13.982Z</time></trkpt><trkpt lat="44.505405053579786" lon="12.05351080619457"><ele>5.0</ele><time>2026-05-03T12:38:14.982Z</time></trkpt><trkpt lat="44.50547815113093" lon="12.05369093164034"><ele>5.0</ele><time>2026-05-03T12:38:15.982Z</time></trkpt><trkpt lat="44.50556015751887" lon="12.053870661930304"><ele>5.0</ele><time>2026-05-03T12:38:16.982Z</time></trkpt><trkpt lat="44.50563564145205" lon="12.054049832003054"><ele>5.0</ele><time>2026-05-03T12:38:17.982Z</time></trkpt><trkpt lat="44.505712109528616" lon="12.054238017570086"><ele>5.0</ele><time>2026-05-03T12:38:18.982Z</time></trkpt><trkpt lat="44.50578361861453" lon="12.054437095358042"><ele>5.0</ele><time>2026-05-03T12:38:19.982Z</time></trkpt><trkpt lat="44.50584950868307" lon="12.054631804201493"><ele>5.0</ele><time>2026-05-03T12:38:20.982Z</time></trkpt><trkpt lat="44.50591817713625" lon="12.054830496778065"><ele>5.0</ele><time>2026-05-03T12:38:21.982Z</time></trkpt><trkpt lat="44.50597871403533" lon="12.05501809960266"><ele>5.0</ele><time>2026-05-03T12:38:22.982Z</time></trkpt><trkpt lat="44.50603610310446" lon="12.055207048310976"><ele>5.0</ele><time>2026-05-03T12:38:23.982Z</time></trkpt><trkpt lat="44.5060946283055" lon="12.055385145966653"><ele>5.0</ele><time>2026-05-03T12:38:24.982Z</time></trkpt><trkpt lat="44.506146677756206" lon="12.055573778813512"><ele>5.0</ele><time>2026-05-03T12:38:25.982Z</time></trkpt><trkpt lat="44.506197686175305" lon="12.05575536339634"><ele>5.0</ele><time>2026-05-03T12:38:26.982Z</time></trkpt><trkpt lat="44.5062491341198" lon="12.055939781126927"><ele>5.0</ele><time>2026-05-03T12:38:27.982Z</time></trkpt><trkpt lat="44.50629956830657" lon="12.05612256177306"><ele>5.0</ele><time>2026-05-03T12:38:28.982Z</time></trkpt><trkpt lat="44.506354827728835" lon="12.05630813251623"><ele>5.0</ele><time>2026-05-03T12:38:29.982Z</time></trkpt><trkpt lat="44.506411810740836" lon="12.056493485907755"><ele>5.5</ele><time>2026-05-03T12:38:30.982Z</time></trkpt><trkpt lat="44.50646673289758" lon="12.05668126147702"><ele>6.0</ele><time>2026-05-03T12:38:31.982Z</time></trkpt><trkpt lat="44.50652093749943" lon="12.05686948241814"><ele>6.5</ele><time>2026-05-03T12:38:32.982Z</time></trkpt><trkpt lat="44.50658034137477" lon="12.0570641534634"><ele>7.0</ele><time>2026-05-03T12:38:33.982Z</time></trkpt><trkpt lat="44.50662719339176" lon="12.057264500620592"><ele>7.0</ele><time>2026-05-03T12:38:34.982Z</time></trkpt><trkpt lat="44.50667109427209" lon="12.057467931013463"><ele>7.0</ele><time>2026-05-03T12:38:35.982Z</time></trkpt><trkpt lat="44.5067094953512" lon="12.057675816071702"><ele>7.0</ele><time>2026-05-03T12:38:36.982Z</time></trkpt><trkpt lat="44.506743037396326" lon="12.057878441624524"><ele>7.0</ele><time>2026-05-03T12:38:37.982Z</time></trkpt><trkpt lat="44.50677558968519" lon="12.058079981854732"><ele>7.0</ele><time>2026-05-03T12:38:38.982Z</time></trkpt><trkpt lat="44.506815180213444" lon="12.058281002659093"><ele>7.0</ele><time>2026-05-03T12:38:39.982Z</time></trkpt><trkpt lat="44.506852945199185" lon="12.058479269147131"><ele>7.0</ele><time>2026-05-03T12:38:40.982Z</time></trkpt><trkpt lat="44.50689806019424" lon="12.058671091422251"><ele>6.75</ele><time>2026-05-03T12:38:41.982Z</time></trkpt><trkpt lat="44.50695116347814" lon="12.058860988137877"><ele>6.5</ele><time>2026-05-03T12:38:42.982Z</time></trkpt><trkpt lat="44.507012599672755" lon="12.05903483055518"><ele>6.25</ele><time>2026-05-03T12:38:43.982Z</time></trkpt><trkpt lat="44.507075473431456" lon="12.059210603363159"><ele>6.0</ele><time>2026-05-03T12:38:44.982Z</time></trkpt><trkpt lat="44.50713481814892" lon="12.05938061209607"><ele>6.0</ele><time>2026-05-03T12:38:45.982Z</time></trkpt><trkpt lat="44.507187537901025" lon="12.059522996235808"><ele>6.0</ele><time>2026-05-03T12:38:46.982Z</time></trkpt><trkpt lat="44.507233685612256" lon="12.059636860139273"><ele>6.0</ele><time>2026-05-03T12:38:47.982Z</time></trkpt><trkpt lat="44.50727718998532" lon="12.05974071301242"><ele>6.0</ele><time>2026-05-03T12:38:48.982Z</time></trkpt><trkpt lat="44.50731740983992" lon="12.05984873188731"><ele>6.0</ele><time>2026-05-03T12:38:49.982Z</time></trkpt><trkpt lat="44.507366077816336" lon="12.059952205370701"><ele>5.8</ele><time>2026-05-03T12:38:50.983Z</time></trkpt><trkpt lat="44.507419430735304" lon="12.060063995669278"><ele>5.6</ele><time>2026-05-03T12:38:51.983Z</time></trkpt><trkpt lat="44.50747742153343" lon="12.060175831407996"><ele>5.4</ele><time>2026-05-03T12:38:52.983Z</time></trkpt><trkpt lat="44.50754049110996" lon="12.060290483387295"><ele>5.2</ele><time>2026-05-03T12:38:53.983Z</time></trkpt><trkpt lat="44.50760555222371" lon="12.060405694011084"><ele>5.0</ele><time>2026-05-03T12:38:54.983Z</time></trkpt><trkpt lat="44.507665280243394" lon="12.0605255117281"><ele>5.0</ele><time>2026-05-03T12:38:55.983Z</time></trkpt><trkpt lat="44.507703396366715" lon="12.060663193395337"><ele>5.0</ele><time>2026-05-03T12:38:56.983Z</time></trkpt><trkpt lat="44.507715927346226" lon="12.06081419341573"><ele>5.0</ele><time>2026-05-03T12:38:57.983Z</time></trkpt><trkpt lat="44.50769840924738" lon="12.060968121255472"><ele>5.0</ele><time>2026-05-03T12:38:58.983Z</time></trkpt><trkpt lat="44.50765885351468" lon="12.061117296798706"><ele>5.0</ele><time>2026-05-03T12:38:59.983Z</time></trkpt><trkpt lat="44.5076135554622" lon="12.061277780771311"><ele>5.25</ele><time>2026-05-03T12:39:00.983Z</time></trkpt><trkpt lat="44.50756727267222" lon="12.061443333080577"><ele>5.5</ele><time>2026-05-03T12:39:01.983Z</time></trkpt><trkpt lat="44.50751650845822" lon="12.061612539084704"><ele>5.75</ele><time>2026-05-03T12:39:02.983Z</time></trkpt><trkpt lat="44.50746138845427" lon="12.061781643682943"><ele>6.0</ele><time>2026-05-03T12:39:03.983Z</time></trkpt><trkpt lat="44.50740777935494" lon="12.061961562149362"><ele>5.5</ele><time>2026-05-03T12:39:04.983Z</time></trkpt><trkpt lat="44.50735121968381" lon="12.062142110580115"><ele>5.0</ele><time>2026-05-03T12:39:05.983Z</time></trkpt><trkpt lat="44.5072897893314" lon="12.062324120415424"><ele>4.5</ele><time>2026-05-03T12:39:06.983Z</time></trkpt><trkpt lat="44.507233520111576" lon="12.062500790159907"><ele>4.0</ele><time>2026-05-03T12:39:07.983Z</time></trkpt><trkpt lat="44.50717674580097" lon="12.062676479138771"><ele>3.75</ele><time>2026-05-03T12:39:08.983Z</time></trkpt><trkpt lat="44.50711903652543" lon="12.062848773324202"><ele>3.5</ele><time>2026-05-03T12:39:09.983Z</time></trkpt><trkpt lat="44.507070869020005" lon="12.062995806160584"><ele>3.25</ele><time>2026-05-03T12:39:10.983Z</time></trkpt><trkpt lat="44.507034254218645" lon="12.063130486414272"><ele>3.0</ele><time>2026-05-03T12:39:11.983Z</time></trkpt><trkpt lat="44.507019108216724" lon="12.063262924880545"><ele>2.8</ele><time>2026-05-03T12:39:12.983Z</time></trkpt><trkpt lat="44.50703326834614" lon="12.063390554056875"><ele>2.5999999999999996</ele><time>2026-05-03T12:39:13.983Z</time></trkpt><trkpt lat="44.50709334454715" lon="12.06349743980734"><ele>2.4000000000000004</ele><time>2026-05-03T12:39:14.983Z</time></trkpt><trkpt lat="44.507177225943074" lon="12.063577864344177"><ele>2.2</ele><time>2026-05-03T12:39:15.983Z</time></trkpt><trkpt lat="44.507274684563924" lon="12.063638598100775"><ele>2.0</ele><time>2026-05-03T12:39:16.983Z</time></trkpt><trkpt lat="44.5073784003122" lon="12.06370116731946"><ele>2.0</ele><time>2026-05-03T12:39:17.983Z</time></trkpt><trkpt lat="44.507487360455215" lon="12.063766888077822"><ele>2.0</ele><time>2026-05-03T12:39:18.983Z</time></trkpt><trkpt lat="44.507602527394525" lon="12.06383448248536"><ele>2.0</ele><time>2026-05-03T12:39:19.983Z</time></trkpt><trkpt lat="44.5077227079368" lon="12.063900609612656"><ele>2.0</ele><time>2026-05-03T12:39:20.983Z</time></trkpt><trkpt lat="44.50784773454924" lon="12.06397906703494"><ele>2.0</ele><time>2026-05-03T12:39:21.983Z</time></trkpt><trkpt lat="44.50797135077328" lon="12.064054181573574"><ele>2.0</ele><time>2026-05-03T12:39:22.983Z</time></trkpt><trkpt lat="44.50809974491273" lon="12.064130871387595"><ele>2.0</ele><time>2026-05-03T12:39:23.983Z</time></trkpt><trkpt lat="44.5082323381683" lon="12.064211169171164"><ele>2.0</ele><time>2026-05-03T12:39:24.983Z</time></trkpt><trkpt lat="44.50836413280602" lon="12.064291103776489"><ele>1.6666666666666665</ele><time>2026-05-03T12:39:25.983Z</time></trkpt><trkpt lat="44.508501118388246" lon="12.06437623547052"><ele>1.3333333333333333</ele><time>2026-05-03T12:39:26.983Z</time></trkpt><trkpt lat="44.50864876629122" lon="12.064460779798225"><ele>1.0</ele><time>2026-05-03T12:39:27.983Z</time></trkpt><trkpt lat="44.50878234703472" lon="12.064545490187271"><ele>1.0</ele><time>2026-05-03T12:39:28.983Z</time></trkpt><trkpt lat="44.508908246357365" lon="12.064628050041586"><ele>1.0</ele><time>2026-05-03T12:39:29.983Z</time></trkpt><trkpt lat="44.509025498450825" lon="12.064704897060352"><ele>1.0</ele><time>2026-05-03T12:39:30.983Z</time></trkpt><trkpt lat="44.509132003413974" lon="12.064771360865965"><ele>1.0</ele><time>2026-05-03T12:39:31.983Z</time></trkpt><trkpt lat="44.50924685896873" lon="12.064837969365401"><ele>1.0</ele><time>2026-05-03T12:39:32.983Z</time></trkpt><trkpt lat="44.50934620134927" lon="12.064903651954888"><ele>1.0</ele><time>2026-05-03T12:39:33.983Z</time></trkpt><trkpt lat="44.50944906213497" lon="12.06496443104052"><ele>1.0</ele><time>2026-05-03T12:39:34.983Z</time></trkpt><trkpt lat="44.50955138547197" lon="12.065026722220274"><ele>1.0</ele><time>2026-05-03T12:39:35.979Z</time></trkpt><trkpt lat="44.509651033107964" lon="12.065095198598675"><ele>1.0</ele><time>2026-05-03T12:39:36.979Z</time></trkpt><trkpt lat="44.50974790643925" lon="12.065169646051164"><ele>1.5</ele><time>2026-05-03T12:39:37.979Z</time></trkpt><trkpt lat="44.50985607315946" lon="12.065246924942656"><ele>2.0</ele><time>2026-05-03T12:39:38.979Z</time></trkpt><trkpt lat="44.50996440065904" lon="12.065332754676533"><ele>2.5</ele><time>2026-05-03T12:39:39.979Z</time></trkpt><trkpt lat="44.5100706331073" lon="12.065420719008538"><ele>3.0</ele><time>2026-05-03T12:39:40.979Z</time></trkpt><trkpt lat="44.51018571538234" lon="12.065513559852995"><ele>3.0</ele><time>2026-05-03T12:39:41.979Z</time></trkpt><trkpt lat="44.51029571474562" lon="12.065611521636935"><ele>3.0</ele><time>2026-05-03T12:39:42.979Z</time></trkpt><trkpt lat="44.51041146820514" lon="12.065716065197886"><ele>3.0</ele><time>2026-05-03T12:39:43.979Z</time></trkpt><trkpt lat="44.510531699821804" lon="12.065823009713778"><ele>3.0</ele><time>2026-05-03T12:39:44.979Z</time></trkpt><trkpt lat="44.51065921923563" lon="12.065927806635273"><ele>2.6666666666666665</ele><time>2026-05-03T12:39:45.978Z</time></trkpt><trkpt lat="44.51078411865864" lon="12.0660395214156"><ele>2.333333333333333</ele><time>2026-05-03T12:39:46.978Z</time></trkpt><trkpt lat="44.51090937851021" lon="12.066150961654717"><ele>2.0</ele><time>2026-05-03T12:39:47.979Z</time></trkpt><trkpt lat="44.511041909031746" lon="12.066268040426493"><ele>2.0</ele><time>2026-05-03T12:39:48.979Z</time></trkpt><trkpt lat="44.51118572823735" lon="12.066388137150252"><ele>2.0</ele><time>2026-05-03T12:39:49.979Z</time></trkpt><trkpt lat="44.5113377688643" lon="12.066508043987112"><ele>2.0</ele><time>2026-05-03T12:39:50.979Z</time></trkpt><trkpt lat="44.51149125760312" lon="12.066633930073811"><ele>2.333333333333333</ele><time>2026-05-03T12:39:51.979Z</time></trkpt><trkpt lat="44.51164612108644" lon="12.066768209680266"><ele>2.6666666666666665</ele><time>2026-05-03T12:39:52.979Z</time></trkpt><trkpt lat="44.511798104151566" lon="12.066908069942496"><ele>3.0</ele><time>2026-05-03T12:39:53.979Z</time></trkpt><trkpt lat="44.511947181405816" lon="12.067051509804417"><ele>2.6666666666666665</ele><time>2026-05-03T12:39:54.979Z</time></trkpt><trkpt lat="44.512094676848626" lon="12.067194816684967"><ele>2.333333333333333</ele><time>2026-05-03T12:39:55.979Z</time></trkpt><trkpt lat="44.51224046667774" lon="12.067334328507867"><ele>2.0</ele><time>2026-05-03T12:39:56.979Z</time></trkpt><trkpt lat="44.51238488753735" lon="12.067467970644156"><ele>1.6666666666666665</ele><time>2026-05-03T12:39:57.979Z</time></trkpt><trkpt lat="44.51252613456093" lon="12.06759796732969"><ele>1.3333333333333333</ele><time>2026-05-03T12:39:58.979Z</time></trkpt><trkpt lat="44.51266879723713" lon="12.067725992631551"><ele>1.0</ele><time>2026-05-03T12:39:59.979Z</time></trkpt><trkpt lat="44.51280924539612" lon="12.0678559465713"><ele>1.3333333333333333</ele><time>2026-05-03T12:40:00.979Z</time></trkpt><trkpt lat="44.51294161557557" lon="12.067987245455049"><ele>1.6666666666666665</ele><time>2026-05-03T12:40:01.979Z</time></trkpt><trkpt lat="44.513075725714" lon="12.068117969671718"><ele>2.0</ele><time>2026-05-03T12:40:02.98Z</time></trkpt><trkpt lat="44.513212187418965" lon="12.06823862085697"><ele>2.0</ele><time>2026-05-03T12:40:03.98Z</time></trkpt><trkpt lat="44.51334164287526" lon="12.06836233745084"><ele>2.0</ele><time>2026-05-03T12:40:04.98Z</time></trkpt><trkpt lat="44.51347230152681" lon="12.068485026152713"><ele>2.0</ele><time>2026-05-03T12:40:05.98Z</time></trkpt><trkpt lat="44.51360200877511" lon="12.068611014146406"><ele>2.0</ele><time>2026-05-03T12:40:06.98Z</time></trkpt><trkpt lat="44.513734036895016" lon="12.06873280453773"><ele>2.0</ele><time>2026-05-03T12:40:07.98Z</time></trkpt><trkpt lat="44.513861098311104" lon="12.068854148503368"><ele>2.0</ele><time>2026-05-03T12:40:08.98Z</time></trkpt><trkpt lat="44.51399100529524" lon="12.068978912126708"><ele>1.6666666666666665</ele><time>2026-05-03T12:40:09.98Z</time></trkpt><trkpt lat="44.51412030155798" lon="12.06910400720105"><ele>1.3333333333333333</ele><time>2026-05-03T12:40:10.98Z</time></trkpt><trkpt lat="44.51424387545654" lon="12.069231228653376"><ele>1.0</ele><time>2026-05-03T12:40:11.98Z</time></trkpt><trkpt lat="44.514368106187845" lon="12.069365898862177"><ele>1.0</ele><time>2026-05-03T12:40:12.98Z</time></trkpt><trkpt lat="44.514489772459086" lon="12.069505146787195"><ele>1.0</ele><time>2026-05-03T12:40:13.98Z</time></trkpt><trkpt lat="44.514610320970604" lon="12.069649880461876"><ele>1.0</ele><time>2026-05-03T12:40:14.98Z</time></trkpt><trkpt lat="44.51473500762162" lon="12.069795279297576"><ele>1.0</ele><time>2026-05-03T12:40:15.98Z</time></trkpt><trkpt lat="44.51486606855824" lon="12.069945426689758"><ele>1.0</ele><time>2026-05-03T12:40:16.98Z</time></trkpt><trkpt lat="44.514993317276016" lon="12.070097929290213"><ele>1.0</ele><time>2026-05-03T12:40:17.98Z</time></trkpt><trkpt lat="44.515123132492285" lon="12.070252741587941"><ele>1.0</ele><time>2026-05-03T12:40:18.98Z</time></trkpt><trkpt lat="44.51525388724037" lon="12.070409727864634"><ele>1.0</ele><time>2026-05-03T12:40:19.98Z</time></trkpt><trkpt lat="44.51537968877138" lon="12.070562649853303"><ele>1.0</ele><time>2026-05-03T12:40:20.98Z</time></trkpt><trkpt lat="44.515511655206026" lon="12.070715635043726"><ele>1.0</ele><time>2026-05-03T12:40:21.98Z</time></trkpt><trkpt lat="44.51564306781459" lon="12.070867908591175"><ele>1.0</ele><time>2026-05-03T12:40:22.98Z</time></trkpt><trkpt lat="44.51577372669445" lon="12.071019819146949"><ele>1.0</ele><time>2026-05-03T12:40:23.98Z</time></trkpt><trkpt lat="44.51590585127617" lon="12.071171573047645"><ele>1.0</ele><time>2026-05-03T12:40:24.98Z</time></trkpt><trkpt lat="44.51603445115931" lon="12.071320012361511"><ele>1.0</ele><time>2026-05-03T12:40:25.98Z</time></trkpt><trkpt lat="44.51616607846092" lon="12.071469785702101"><ele>1.0</ele><time>2026-05-03T12:40:26.98Z</time></trkpt><trkpt lat="44.51629543494604" lon="12.071622670052244"><ele>1.3333333333333333</ele><time>2026-05-03T12:40:27.98Z</time></trkpt><trkpt lat="44.51641787603578" lon="12.071776132315103"><ele>1.6666666666666665</ele><time>2026-05-03T12:40:28.98Z</time></trkpt><trkpt lat="44.516547539925774" lon="12.07192778977713"><ele>2.0</ele><time>2026-05-03T12:40:29.98Z</time></trkpt><trkpt lat="44.51668342742964" lon="12.072082233659751"><ele>2.0</ele><time>2026-05-03T12:40:30.98Z</time></trkpt><trkpt lat="44.516812387587066" lon="12.072237065584819"><ele>2.0</ele><time>2026-05-03T12:40:31.98Z</time></trkpt><trkpt lat="44.51693719973848" lon="12.07239111827082"><ele>2.0</ele><time>2026-05-03T12:40:32.98Z</time></trkpt><trkpt lat="44.51706982942017" lon="12.072548391346116"><ele>1.6666666666666665</ele><time>2026-05-03T12:40:33.98Z</time></trkpt><trkpt lat="44.51720307322336" lon="12.072709775775039"><ele>1.3333333333333333</ele><time>2026-05-03T12:40:34.98Z</time></trkpt><trkpt lat="44.51733393552014" lon="12.072868186773567"><ele>1.0</ele><time>2026-05-03T12:40:35.98Z</time></trkpt><trkpt lat="44.5174621711285" lon="12.073028600432153"><ele>1.0</ele><time>2026-05-03T12:40:36.98Z</time></trkpt><trkpt lat="44.5175983123318" lon="12.073189387816484"><ele>1.0</ele><time>2026-05-03T12:40:37.98Z</time></trkpt><trkpt lat="44.51773450143239" lon="12.073350621526979"><ele>1.0</ele><time>2026-05-03T12:40:38.98Z</time></trkpt><trkpt lat="44.51787130933919" lon="12.073509200441613"><ele>2.0</ele><time>2026-05-03T12:40:39.98Z</time></trkpt><trkpt lat="44.5180048028826" lon="12.073668274233277"><ele>3.0</ele><time>2026-05-03T12:40:40.98Z</time></trkpt><trkpt lat="44.51814457184694" lon="12.07382698492079"><ele>4.0</ele><time>2026-05-03T12:40:41.98Z</time></trkpt><trkpt lat="44.51828426210657" lon="12.073983446843824"><ele>3.333333333333333</ele><time>2026-05-03T12:40:42.98Z</time></trkpt><trkpt lat="44.51842552692771" lon="12.07413880589435"><ele>2.6666666666666665</ele><time>2026-05-03T12:40:43.98Z</time></trkpt><trkpt lat="44.5185660782139" lon="12.074292848219244"><ele>2.0</ele><time>2026-05-03T12:40:44.98Z</time></trkpt><trkpt lat="44.51870421636221" lon="12.074444169838271"><ele>2.0</ele><time>2026-05-03T12:40:45.98Z</time></trkpt><trkpt lat="44.5188385435841" lon="12.074597068994938"><ele>2.0</ele><time>2026-05-03T12:40:46.98Z</time></trkpt><trkpt lat="44.51897340360024" lon="12.074750085545388"><ele>2.0</ele><time>2026-05-03T12:40:47.98Z</time></trkpt><trkpt lat="44.51910161885967" lon="12.074902746203344"><ele>2.0</ele><time>2026-05-03T12:40:48.98Z</time></trkpt><trkpt lat="44.51922661036189" lon="12.075055865922053"><ele>2.0</ele><time>2026-05-03T12:40:49.981Z</time></trkpt><trkpt lat="44.51935165898426" lon="12.075208455315005"><ele>2.0</ele><time>2026-05-03T12:40:50.981Z</time></trkpt><trkpt lat="44.51947810293123" lon="12.07535853148875"><ele>2.0</ele><time>2026-05-03T12:40:51.981Z</time></trkpt><trkpt lat="44.519604749390496" lon="12.075508230787717"><ele>2.0</ele><time>2026-05-03T12:40:52.981Z</time></trkpt><trkpt lat="44.51973255289222" lon="12.075656181596852"><ele>2.0</ele><time>2026-05-03T12:40:53.981Z</time></trkpt><trkpt lat="44.5198579987376" lon="12.075807006292786"><ele>2.0</ele><time>2026-05-03T12:40:54.981Z</time></trkpt><trkpt lat="44.51998915117239" lon="12.0759592024635"><ele>2.0</ele><time>2026-05-03T12:40:55.981Z</time></trkpt><trkpt lat="44.52011195716884" lon="12.076110081702069"><ele>2.0</ele><time>2026-05-03T12:40:56.981Z</time></trkpt><trkpt lat="44.52023546332653" lon="12.076260751353905"><ele>2.0</ele><time>2026-05-03T12:40:57.981Z</time></trkpt><trkpt lat="44.52035804716796" lon="12.076408251047729"><ele>2.0</ele><time>2026-05-03T12:40:58.981Z</time></trkpt><trkpt lat="44.52048466954611" lon="12.076556906489609"><ele>2.0</ele><time>2026-05-03T12:40:59.981Z</time></trkpt><trkpt lat="44.52061096207217" lon="12.076706912628506"><ele>1.6666666666666665</ele><time>2026-05-03T12:41:00.981Z</time></trkpt><trkpt lat="44.52073902980017" lon="12.076854703475561"><ele>1.3333333333333333</ele><time>2026-05-03T12:41:01.981Z</time></trkpt><trkpt lat="44.52086677409478" lon="12.077004740349377"><ele>1.0</ele><time>2026-05-03T12:41:02.981Z</time></trkpt><trkpt lat="44.52099073335424" lon="12.077156154998338"><ele>1.0</ele><time>2026-05-03T12:41:03.981Z</time></trkpt><trkpt lat="44.52111307521839" lon="12.077308432480326"><ele>1.0</ele><time>2026-05-03T12:41:04.981Z</time></trkpt><trkpt lat="44.52124386953711" lon="12.077461225767319"><ele>1.0</ele><time>2026-05-03T12:41:05.981Z</time></trkpt><trkpt lat="44.52137198896793" lon="12.077613227263958"><ele>1.0</ele><time>2026-05-03T12:41:06.981Z</time></trkpt><trkpt lat="44.521495258179385" lon="12.077764443977278"><ele>1.0</ele><time>2026-05-03T12:41:07.981Z</time></trkpt><trkpt lat="44.521625567097786" lon="12.077912904853711"><ele>1.0</ele><time>2026-05-03T12:41:08.981Z</time></trkpt><trkpt lat="44.52174844869279" lon="12.07806022932961"><ele>1.0</ele><time>2026-05-03T12:41:09.981Z</time></trkpt><trkpt lat="44.521883122607086" lon="12.07820845337668"><ele>1.0</ele><time>2026-05-03T12:41:10.981Z</time></trkpt><trkpt lat="44.52201519630891" lon="12.078349487175918"><ele>1.0</ele><time>2026-05-03T12:41:11.981Z</time></trkpt><trkpt lat="44.52215043153364" lon="12.0784848575656"><ele>0.75</ele><time>2026-05-03T12:41:12.981Z</time></trkpt><trkpt lat="44.52227619899359" lon="12.078615699151"><ele>0.5</ele><time>2026-05-03T12:41:13.981Z</time></trkpt><trkpt lat="44.52239438497408" lon="12.078739225490933"><ele>0.25</ele><time>2026-05-03T12:41:14.981Z</time></trkpt><trkpt lat="44.522496926696796" lon="12.078852246440777"><ele>0.0</ele><time>2026-05-03T12:41:15.981Z</time></trkpt><trkpt lat="44.52259467182265" lon="12.078972951082664"><ele>0.0</ele><time>2026-05-03T12:41:16.981Z</time></trkpt><trkpt lat="44.522671826832934" lon="12.079113143553746"><ele>0.0</ele><time>2026-05-03T12:41:17.981Z</time></trkpt><trkpt lat="44.522730739682885" lon="12.079270105200637"><ele>0.0</ele><time>2026-05-03T12:41:18.981Z</time></trkpt><trkpt lat="44.52275460406971" lon="12.079430779626946"><ele>0.0</ele><time>2026-05-03T12:41:19.981Z</time></trkpt><trkpt lat="44.522751167163406" lon="12.079623961081147"><ele>0.0</ele><time>2026-05-03T12:41:20.981Z</time></trkpt><trkpt lat="44.52270506189877" lon="12.079803119850794"><ele>0.0</ele><time>2026-05-03T12:41:21.981Z</time></trkpt><trkpt lat="44.52262038924453" lon="12.079969243794736"><ele>0.0</ele><time>2026-05-03T12:41:22.981Z</time></trkpt><trkpt lat="44.52252122981058" lon="12.080103092064546"><ele>0.0</ele><time>2026-05-03T12:41:23.981Z</time></trkpt><trkpt lat="44.522405145405095" lon="12.080195561449605"><ele>0.0</ele><time>2026-05-03T12:41:24.981Z</time></trkpt><trkpt lat="44.522282991256084" lon="12.080288294786405"><ele>0.0</ele><time>2026-05-03T12:41:25.981Z</time></trkpt><trkpt lat="44.522153361567746" lon="12.080401233668034"><ele>0.0</ele><time>2026-05-03T12:41:26.981Z</time></trkpt><trkpt lat="44.522023928244586" lon="12.080519977607278"><ele>0.0</ele><time>2026-05-03T12:41:27.981Z</time></trkpt><trkpt lat="44.52188733765594" lon="12.08064291557352"><ele>0.0</ele><time>2026-05-03T12:41:28.981Z</time></trkpt><trkpt lat="44.521748589186146" lon="12.080765303750976"><ele>0.0</ele><time>2026-05-03T12:41:29.981Z</time></trkpt><trkpt lat="44.52160416862953" lon="12.080881727782888"><ele>0.0</ele><time>2026-05-03T12:41:30.981Z</time></trkpt><trkpt lat="44.521456477836765" lon="12.081009307929094"><ele>-0.3333333333333333</ele><time>2026-05-03T12:41:31.981Z</time></trkpt><trkpt lat="44.52130440275471" lon="12.08113522027733"><ele>-0.6666666666666666</ele><time>2026-05-03T12:41:32.981Z</time></trkpt><trkpt lat="44.521146138833" lon="12.08126443455466"><ele>-1.0</ele><time>2026-05-03T12:41:33.981Z</time></trkpt><trkpt lat="44.52098454595935" lon="12.081394517632571"><ele>-1.0</ele><time>2026-05-03T12:41:34.981Z</time></trkpt><trkpt lat="44.52081894840061" lon="12.081528859217533"><ele>-1.0</ele><time>2026-05-03T12:41:35.981Z</time></trkpt><trkpt lat="44.520653728792944" lon="12.08166841364848"><ele>-1.0</ele><time>2026-05-03T12:41:36.982Z</time></trkpt><trkpt lat="44.52048833207231" lon="12.081806530253143"><ele>-0.6666666666666666</ele><time>2026-05-03T12:41:37.982Z</time></trkpt><trkpt lat="44.52032946476369" lon="12.081942317116228"><ele>-0.3333333333333333</ele><time>2026-05-03T12:41:38.982Z</time></trkpt><trkpt lat="44.520183405288634" lon="12.082079643691547"><ele>0.0</ele><time>2026-05-03T12:41:39.982Z</time></trkpt><trkpt lat="44.52004825055571" lon="12.082224976338619"><ele>0.0</ele><time>2026-05-03T12:41:40.982Z</time></trkpt><trkpt lat="44.51992484492389" lon="12.082384552631344"><ele>0.0</ele><time>2026-05-03T12:41:41.977Z</time></trkpt><trkpt lat="44.5198162528444" lon="12.082547899455804"><ele>0.0</ele><time>2026-05-03T12:41:42.977Z</time></trkpt><trkpt lat="44.51970627801229" lon="12.082718051209012"><ele>0.3333333333333333</ele><time>2026-05-03T12:41:43.977Z</time></trkpt><trkpt lat="44.51960702510168" lon="12.082892695748944"><ele>0.6666666666666666</ele><time>2026-05-03T12:41:44.977Z</time></trkpt><trkpt lat="44.51950872437904" lon="12.083077666580705"><ele>1.0</ele><time>2026-05-03T12:41:45.977Z</time></trkpt><trkpt lat="44.51941330930372" lon="12.083265618250211"><ele>0.3333333333333333</ele><time>2026-05-03T12:41:46.977Z</time></trkpt><trkpt lat="44.51932255397337" lon="12.083451511602297"><ele>-0.3333333333333333</ele><time>2026-05-03T12:41:47.977Z</time></trkpt><trkpt lat="44.519236292422754" lon="12.083636046608923"><ele>-1.0</ele><time>2026-05-03T12:41:48.977Z</time></trkpt><trkpt lat="44.51915269625475" lon="12.083815883375397"><ele>-1.0</ele><time>2026-05-03T12:41:49.977Z</time></trkpt><trkpt lat="44.51906668987851" lon="12.083990840620746"><ele>-1.0</ele><time>2026-05-03T12:41:50.977Z</time></trkpt><trkpt lat="44.518981980294264" lon="12.08415635849879"><ele>-1.0</ele><time>2026-05-03T12:41:51.977Z</time></trkpt><trkpt lat="44.51890004775201" lon="12.084320021439579"><ele>-1.0</ele><time>2026-05-03T12:41:52.977Z</time></trkpt><trkpt lat="44.51882570291329" lon="12.084476053803666"><ele>-0.8</ele><time>2026-05-03T12:41:53.977Z</time></trkpt><trkpt lat="44.51875760167309" lon="12.084613743106848"><ele>-0.6000000000000001</ele><time>2026-05-03T12:41:54.977Z</time></trkpt><trkpt lat="44.51869495807072" lon="12.084744489143493"><ele>-0.4</ele><time>2026-05-03T12:41:55.977Z</time></trkpt><trkpt lat="44.51863245766565" lon="12.084863780051247"><ele>-0.2</ele><time>2026-05-03T12:41:56.977Z</time></trkpt><trkpt lat="44.51857289780752" lon="12.084971911313767"><ele>0.0</ele><time>2026-05-03T12:41:57.977Z</time></trkpt><trkpt lat="44.518512214917976" lon="12.085084538216025"><ele>0.0</ele><time>2026-05-03T12:41:58.977Z</time></trkpt><trkpt lat="44.518456146185066" lon="12.085192958738135"><ele>0.0</ele><time>2026-05-03T12:41:59.977Z</time></trkpt><trkpt lat="44.51840516816982" lon="12.085292914765716"><ele>0.0</ele><time>2026-05-03T12:42:00.977Z</time></trkpt><trkpt lat="44.51836029556623" lon="12.085380036227145"><ele>0.0</ele><time>2026-05-03T12:42:01.977Z</time></trkpt><trkpt lat="44.518320078060235" lon="12.08546002992102"><ele>0.0</ele><time>2026-05-03T12:42:02.977Z</time></trkpt><trkpt lat="44.518258116712865" lon="12.08557991153784"><ele>0.0</ele><time>2026-05-03T12:42:04.977Z</time></trkpt><trkpt lat="44.518208875992364" lon="12.08567232498857"><ele>0.0</ele><time>2026-05-03T12:42:07.977Z</time></trkpt><trkpt lat="44.51815612881993" lon="12.085760879635083"><ele>0.0</ele><time>2026-05-03T12:42:11.977Z</time></trkpt><trkpt lat="44.51816718305528" lon="12.085857736976198"><ele>0.0</ele><time>2026-05-03T12:42:16.978Z</time></trkpt><trkpt lat="44.518144928879146" lon="12.085772064499524"><ele>0.0</ele><time>2026-05-03T12:44:18.976Z</time></trkpt><trkpt lat="44.51815460609335" lon="12.085870130286889"><ele>0.0</ele><time>2026-05-03T12:47:44.978Z</time></trkpt><trkpt lat="44.518071840355105" lon="12.08591064641112"><ele>0.0</ele><time>2026-05-03T12:48:27.977Z</time></trkpt><trkpt lat="44.51802571729888" lon="12.085990045527856"><ele>0.0</ele><time>2026-05-03T12:48:29.977Z</time></trkpt><trkpt lat="44.517975813695195" lon="12.086074459598823"><ele>0.0</ele><time>2026-05-03T12:48:31.977Z</time></trkpt><trkpt lat="44.517923313603326" lon="12.086186949849056"><ele>0.0</ele><time>2026-05-03T12:48:33.977Z</time></trkpt><trkpt lat="44.51788105404479" lon="12.086293317090426"><ele>0.0</ele><time>2026-05-03T12:48:35.977Z</time></trkpt><trkpt lat="44.51782945509221" lon="12.08640090562135"><ele>0.0</ele><time>2026-05-03T12:48:37.977Z</time></trkpt><trkpt lat="44.51778088953611" lon="12.086524336185096"><ele>0.0</ele><time>2026-05-03T12:48:39.977Z</time></trkpt><trkpt lat="44.51772956646896" lon="12.08664654438541"><ele>0.0</ele><time>2026-05-03T12:48:41.977Z</time></trkpt><trkpt lat="44.5176859648576" lon="12.086749776612036"><ele>0.0</ele><time>2026-05-03T12:48:43.977Z</time></trkpt><trkpt lat="44.517647788472736" lon="12.086839950939872"><ele>0.0</ele><time>2026-05-03T12:48:45.977Z</time></trkpt><trkpt lat="44.51760732634757" lon="12.086941307340389"><ele>0.0</ele><time>2026-05-03T12:48:47.977Z</time></trkpt><trkpt lat="44.51754522711191" lon="12.087098983962576"><ele>0.0</ele><time>2026-05-03T12:48:49.977Z</time></trkpt><trkpt lat="44.51750492008623" lon="12.087197273420793"><ele>0.0</ele><time>2026-05-03T12:48:50.977Z</time></trkpt><trkpt lat="44.5174564564728" lon="12.087313272615686"><ele>0.0</ele><time>2026-05-03T12:48:51.977Z</time></trkpt><trkpt lat="44.517404079690635" lon="12.0874394097096"><ele>0.0</ele><time>2026-05-03T12:48:52.977Z</time></trkpt><trkpt lat="44.51735612545692" lon="12.087563664601676"><ele>0.0</ele><time>2026-05-03T12:48:53.977Z</time></trkpt><trkpt lat="44.5173043438384" lon="12.08769073248578"><ele>0.0</ele><time>2026-05-03T12:48:54.977Z</time></trkpt><trkpt lat="44.51724847356204" lon="12.087825498274327"><ele>0.0</ele><time>2026-05-03T12:48:55.977Z</time></trkpt><trkpt lat="44.517189747863924" lon="12.087968252755383"><ele>0.0</ele><time>2026-05-03T12:48:56.977Z</time></trkpt><trkpt lat="44.51712743252942" lon="12.088119695549373"><ele>0.0</ele><time>2026-05-03T12:48:57.977Z</time></trkpt><trkpt lat="44.5170630176789" lon="12.088279936507199"><ele>0.0</ele><time>2026-05-03T12:48:58.977Z</time></trkpt><trkpt lat="44.51699442152315" lon="12.088450987184816"><ele>0.0</ele><time>2026-05-03T12:48:59.977Z</time></trkpt><trkpt lat="44.51692215289357" lon="12.088626496745553"><ele>0.0</ele><time>2026-05-03T12:49:00.977Z</time></trkpt><trkpt lat="44.5168508998047" lon="12.088802390323886"><ele>0.0</ele><time>2026-05-03T12:49:01.977Z</time></trkpt><trkpt lat="44.51677537323573" lon="12.08898388073861"><ele>0.0</ele><time>2026-05-03T12:49:02.977Z</time></trkpt><trkpt lat="44.51670593531151" lon="12.089162978370883"><ele>0.0</ele><time>2026-05-03T12:49:03.978Z</time></trkpt><trkpt lat="44.51663218101372" lon="12.089347851423176"><ele>0.0</ele><time>2026-05-03T12:49:04.978Z</time></trkpt><trkpt lat="44.51655601005381" lon="12.08953098812604"><ele>0.0</ele><time>2026-05-03T12:49:05.978Z</time></trkpt><trkpt lat="44.51647675370589" lon="12.08971749240686"><ele>0.0</ele><time>2026-05-03T12:49:06.978Z</time></trkpt><trkpt lat="44.516400149572036" lon="12.089904384387323"><ele>0.0</ele><time>2026-05-03T12:49:07.978Z</time></trkpt><trkpt lat="44.51632569694235" lon="12.090093674993119"><ele>0.0</ele><time>2026-05-03T12:49:08.978Z</time></trkpt><trkpt lat="44.51625336244802" lon="12.090278497229125"><ele>0.3333333333333333</ele><time>2026-05-03T12:49:09.978Z</time></trkpt><trkpt lat="44.51617749135891" lon="12.090461046290706"><ele>0.6666666666666666</ele><time>2026-05-03T12:49:10.978Z</time></trkpt><trkpt lat="44.51610117659273" lon="12.090642059763171"><ele>1.0</ele><time>2026-05-03T12:49:11.978Z</time></trkpt><trkpt lat="44.51602213003012" lon="12.090823734979564"><ele>1.3333333333333333</ele><time>2026-05-03T12:49:12.978Z</time></trkpt><trkpt lat="44.515942052226" lon="12.09101125246981"><ele>1.6666666666666665</ele><time>2026-05-03T12:49:13.978Z</time></trkpt><trkpt lat="44.51586530647835" lon="12.091200223339337"><ele>2.0</ele><time>2026-05-03T12:49:14.978Z</time></trkpt><trkpt lat="44.51578673666809" lon="12.091391195788836"><ele>2.0</ele><time>2026-05-03T12:49:15.978Z</time></trkpt><trkpt lat="44.515707914912795" lon="12.091580243275303"><ele>2.0</ele><time>2026-05-03T12:49:16.978Z</time></trkpt><trkpt lat="44.51563235345706" lon="12.091769288729845"><ele>2.0</ele><time>2026-05-03T12:49:17.978Z</time></trkpt><trkpt lat="44.51555504935113" lon="12.091958456130605"><ele>1.6666666666666665</ele><time>2026-05-03T12:49:18.978Z</time></trkpt><trkpt lat="44.515478854502625" lon="12.092139522468129"><ele>1.3333333333333333</ele><time>2026-05-03T12:49:19.978Z</time></trkpt><trkpt lat="44.515402860061236" lon="12.092324474142082"><ele>1.0</ele><time>2026-05-03T12:49:20.978Z</time></trkpt><trkpt lat="44.515326214268995" lon="12.092514894979914"><ele>1.0</ele><time>2026-05-03T12:49:21.978Z</time></trkpt><trkpt lat="44.51525248921511" lon="12.092696267878619"><ele>1.0</ele><time>2026-05-03T12:49:22.978Z</time></trkpt><trkpt lat="44.515177446871746" lon="12.092882727412665"><ele>1.0</ele><time>2026-05-03T12:49:23.978Z</time></trkpt><trkpt lat="44.51510193146918" lon="12.093064503767607"><ele>1.0</ele><time>2026-05-03T12:49:24.978Z</time></trkpt><trkpt lat="44.515023497086055" lon="12.093247520484999"><ele>1.0</ele><time>2026-05-03T12:49:25.978Z</time></trkpt><trkpt lat="44.51493811796314" lon="12.093425120776288"><ele>1.0</ele><time>2026-05-03T12:49:26.978Z</time></trkpt><trkpt lat="44.514849291768776" lon="12.093598202391183"><ele>1.0</ele><time>2026-05-03T12:49:27.978Z</time></trkpt><trkpt lat="44.514749824515704" lon="12.093761209840256"><ele>1.0</ele><time>2026-05-03T12:49:28.978Z</time></trkpt><trkpt lat="44.5146369005285" lon="12.093914848387929"><ele>1.0</ele><time>2026-05-03T12:49:29.978Z</time></trkpt><trkpt lat="44.51451391530596" lon="12.094053787657597"><ele>1.6666666666666665</ele><time>2026-05-03T12:49:30.978Z</time></trkpt><trkpt lat="44.51438553809587" lon="12.094191639795694"><ele>2.3333333333333335</ele><time>2026-05-03T12:49:31.978Z</time></trkpt><trkpt lat="44.51425582639711" lon="12.09433526387137"><ele>3.0</ele><time>2026-05-03T12:49:32.978Z</time></trkpt><trkpt lat="44.514124947968526" lon="12.094482626270159"><ele>3.0</ele><time>2026-05-03T12:49:33.978Z</time></trkpt><trkpt lat="44.513995067072116" lon="12.094627315589879"><ele>3.0</ele><time>2026-05-03T12:49:34.978Z</time></trkpt><trkpt lat="44.513864908790254" lon="12.094773598857854"><ele>3.0</ele><time>2026-05-03T12:49:35.978Z</time></trkpt><trkpt lat="44.513730074487306" lon="12.094921011889525"><ele>2.3333333333333335</ele><time>2026-05-03T12:49:36.978Z</time></trkpt><trkpt lat="44.51359514878115" lon="12.095070478763871"><ele>1.6666666666666665</ele><time>2026-05-03T12:49:37.978Z</time></trkpt><trkpt lat="44.51346068187555" lon="12.095224715815622"><ele>1.0</ele><time>2026-05-03T12:49:38.978Z</time></trkpt><trkpt lat="44.51332693787161" lon="12.095375345618203"><ele>1.0</ele><time>2026-05-03T12:49:39.978Z</time></trkpt><trkpt lat="44.51319220176963" lon="12.095521748219547"><ele>1.0</ele><time>2026-05-03T12:49:40.978Z</time></trkpt><trkpt lat="44.51306025752258" lon="12.095672046401912"><ele>1.0</ele><time>2026-05-03T12:49:41.978Z</time></trkpt><trkpt lat="44.51293007098217" lon="12.09582468563448"><ele>0.6666666666666666</ele><time>2026-05-03T12:49:42.978Z</time></trkpt><trkpt lat="44.51279973851195" lon="12.095976119975312"><ele>0.3333333333333333</ele><time>2026-05-03T12:49:43.978Z</time></trkpt><trkpt lat="44.51266619976925" lon="12.096129290299512"><ele>0.0</ele><time>2026-05-03T12:49:44.978Z</time></trkpt><trkpt lat="44.5125306225048" lon="12.096283714779783"><ele>0.0</ele><time>2026-05-03T12:49:45.978Z</time></trkpt><trkpt lat="44.51239440437261" lon="12.096439090218443"><ele>0.0</ele><time>2026-05-03T12:49:46.978Z</time></trkpt><trkpt lat="44.51225701541994" lon="12.096599623456232"><ele>0.0</ele><time>2026-05-03T12:49:47.978Z</time></trkpt><trkpt lat="44.51212007626392" lon="12.096759157315484"><ele>0.6666666666666666</ele><time>2026-05-03T12:49:48.978Z</time></trkpt><trkpt lat="44.511983010089445" lon="12.096917764865667"><ele>1.3333333333333333</ele><time>2026-05-03T12:49:49.978Z</time></trkpt><trkpt lat="44.51184498202545" lon="12.097080285643392"><ele>2.0</ele><time>2026-05-03T12:49:50.979Z</time></trkpt><trkpt lat="44.51170583544352" lon="12.097241762038792"><ele>2.0</ele><time>2026-05-03T12:49:51.979Z</time></trkpt><trkpt lat="44.5115671174879" lon="12.09740712950195"><ele>2.0</ele><time>2026-05-03T12:49:52.979Z</time></trkpt><trkpt lat="44.5114297697682" lon="12.097573154275658"><ele>2.0</ele><time>2026-05-03T12:49:53.979Z</time></trkpt><trkpt lat="44.51129195631168" lon="12.09773591666504"><ele>2.0</ele><time>2026-05-03T12:49:54.979Z</time></trkpt><trkpt lat="44.511149172708734" lon="12.097898686087309"><ele>2.0</ele><time>2026-05-03T12:49:55.979Z</time></trkpt><trkpt lat="44.51100523248821" lon="12.09806237963166"><ele>2.0</ele><time>2026-05-03T12:49:56.979Z</time></trkpt><trkpt lat="44.510864542157684" lon="12.098229063901496"><ele>2.0</ele><time>2026-05-03T12:49:57.979Z</time></trkpt><trkpt lat="44.51072073739077" lon="12.098393667230255"><ele>2.0</ele><time>2026-05-03T12:49:58.979Z</time></trkpt><trkpt lat="44.51058059377749" lon="12.098559536130724"><ele>2.0</ele><time>2026-05-03T12:49:59.979Z</time></trkpt><trkpt lat="44.51043973607204" lon="12.098730617400427"><ele>2.0</ele><time>2026-05-03T12:50:00.979Z</time></trkpt><trkpt lat="44.510302939030844" lon="12.098889907208925"><ele>2.0</ele><time>2026-05-03T12:50:01.979Z</time></trkpt><trkpt lat="44.510165738063336" lon="12.09905144541541"><ele>2.0</ele><time>2026-05-03T12:50:02.979Z</time></trkpt><trkpt lat="44.51003180010743" lon="12.099210355262972"><ele>2.0</ele><time>2026-05-03T12:50:03.979Z</time></trkpt><trkpt lat="44.50990086969135" lon="12.099364378417633"><ele>2.0</ele><time>2026-05-03T12:50:04.979Z</time></trkpt><trkpt lat="44.5097788890411" lon="12.099508570035585"><ele>2.0</ele><time>2026-05-03T12:50:05.976Z</time></trkpt><trkpt lat="44.509671734318275" lon="12.099634367224922"><ele>1.9999999999999998</ele><time>2026-05-03T12:50:06.975Z</time></trkpt><trkpt lat="44.50958438737653" lon="12.099739673263821"><ele>2.0</ele><time>2026-05-03T12:50:07.976Z</time></trkpt><trkpt lat="44.509514009270056" lon="12.099824483174736"><ele>2.0</ele><time>2026-05-03T12:50:08.975Z</time></trkpt><trkpt lat="44.5094592206926" lon="12.0998877421792"><ele>2.0</ele><time>2026-05-03T12:50:09.975Z</time></trkpt><trkpt lat="44.509403627276406" lon="12.099946014545159"><ele>1.9999999999999998</ele><time>2026-05-03T12:50:10.975Z</time></trkpt><trkpt lat="44.509353125549154" lon="12.100005167418244"><ele>2.0</ele><time>2026-05-03T12:50:11.976Z</time></trkpt><trkpt lat="44.50930561580395" lon="12.100067178526873"><ele>2.0</ele><time>2026-05-03T12:50:12.975Z</time></trkpt><trkpt lat="44.509216825103316" lon="12.10018307059875"><ele>2.0</ele><time>2026-05-03T12:50:14.975Z</time></trkpt><trkpt lat="44.50919728211756" lon="12.10028364798277"><ele>2.0</ele><time>2026-05-03T12:50:16.975Z</time></trkpt><trkpt lat="44.50931364404219" lon="12.10028671626091"><ele>2.0</ele><time>2026-05-03T12:50:19.975Z</time></trkpt><trkpt lat="44.50938444417194" lon="12.100286646183223"><ele>2.0</ele><time>2026-05-03T12:50:20.975Z</time></trkpt><trkpt lat="44.509467742773396" lon="12.100280578345215"><ele>2.0</ele><time>2026-05-03T12:50:21.975Z</time></trkpt><trkpt lat="44.50954899176671" lon="12.100275309771623"><ele>2.0</ele><time>2026-05-03T12:50:22.975Z</time></trkpt><trkpt lat="44.50963592828814" lon="12.100270511162948"><ele>2.0</ele><time>2026-05-03T12:50:23.975Z</time></trkpt><trkpt lat="44.509725320423385" lon="12.10026850193049"><ele>2.0</ele><time>2026-05-03T12:50:24.975Z</time></trkpt><trkpt lat="44.509826941838405" lon="12.100271690876092"><ele>2.0</ele><time>2026-05-03T12:50:25.975Z</time></trkpt><trkpt lat="44.509935559181635" lon="12.100279458955452"><ele>2.0</ele><time>2026-05-03T12:50:26.976Z</time></trkpt><trkpt lat="44.51004377428828" lon="12.100295586591955"><ele>2.0</ele><time>2026-05-03T12:50:27.976Z</time></trkpt><trkpt lat="44.51015956796114" lon="12.100327090657144"><ele>2.0</ele><time>2026-05-03T12:50:28.976Z</time></trkpt><trkpt lat="44.51028123515225" lon="12.100373697729156"><ele>2.0</ele><time>2026-05-03T12:50:29.976Z</time></trkpt><trkpt lat="44.51040925362296" lon="12.100430075479048"><ele>2.333333333333333</ele><time>2026-05-03T12:50:30.976Z</time></trkpt><trkpt lat="44.51054610052268" lon="12.100490341027651"><ele>2.6666666666666665</ele><time>2026-05-03T12:50:31.977Z</time></trkpt><trkpt lat="44.510688202793816" lon="12.100552920971557"><ele>3.0</ele><time>2026-05-03T12:50:32.977Z</time></trkpt><trkpt lat="44.51085558322494" lon="12.100481557621139"><ele>3.0</ele><time>2026-05-03T12:50:33.977Z</time></trkpt><trkpt lat="44.51099314046108" lon="12.100555288403093"><ele>3.0</ele><time>2026-05-03T12:50:34.977Z</time></trkpt><trkpt lat="44.51113058604733" lon="12.10063189540099"><ele>3.0</ele><time>2026-05-03T12:50:35.977Z</time></trkpt><trkpt lat="44.51127550063473" lon="12.100711195641003"><ele>2.3333333333333335</ele><time>2026-05-03T12:50:36.977Z</time></trkpt><trkpt lat="44.51142326791673" lon="12.100792815745582"><ele>1.6666666666666665</ele><time>2026-05-03T12:50:37.977Z</time></trkpt><trkpt lat="44.511570328954626" lon="12.100872945326396"><ele>1.0</ele><time>2026-05-03T12:50:38.977Z</time></trkpt><trkpt lat="44.51172555626721" lon="12.100957208592448"><ele>1.0</ele><time>2026-05-03T12:50:39.977Z</time></trkpt><trkpt lat="44.51188020564405" lon="12.10104252246946"><ele>1.0</ele><time>2026-05-03T12:50:40.978Z</time></trkpt><trkpt lat="44.512036233517435" lon="12.101128151092075"><ele>1.0</ele><time>2026-05-03T12:50:41.978Z</time></trkpt><trkpt lat="44.51219650069927" lon="12.101215922040335"><ele>1.3333333333333333</ele><time>2026-05-03T12:50:42.978Z</time></trkpt><trkpt lat="44.51235664293794" lon="12.101304721593607"><ele>1.6666666666666665</ele><time>2026-05-03T12:50:43.978Z</time></trkpt><trkpt lat="44.512514162791206" lon="12.101391762183917"><ele>2.0</ele><time>2026-05-03T12:50:44.978Z</time></trkpt><trkpt lat="44.51267260005422" lon="12.101479581377658"><ele>2.0</ele><time>2026-05-03T12:50:45.978Z</time></trkpt><trkpt lat="44.512833549745274" lon="12.10156906675333"><ele>2.0</ele><time>2026-05-03T12:50:46.978Z</time></trkpt><trkpt lat="44.51299290108223" lon="12.101658342308038"><ele>2.0</ele><time>2026-05-03T12:50:47.978Z</time></trkpt><trkpt lat="44.51315180216965" lon="12.10174736188268"><ele>2.0</ele><time>2026-05-03T12:50:48.978Z</time></trkpt><trkpt lat="44.51331320352026" lon="12.101837176127045"><ele>2.0</ele><time>2026-05-03T12:50:49.978Z</time></trkpt><trkpt lat="44.51347369315895" lon="12.101927063333012"><ele>2.0</ele><time>2026-05-03T12:50:50.978Z</time></trkpt><trkpt lat="44.513637653771255" lon="12.102019881269497"><ele>2.0</ele><time>2026-05-03T12:50:51.978Z</time></trkpt><trkpt lat="44.51379986977817" lon="12.10211766949724"><ele>2.0</ele><time>2026-05-03T12:50:52.978Z</time></trkpt><trkpt lat="44.513958394499156" lon="12.102219983896243"><ele>2.0</ele><time>2026-05-03T12:50:53.978Z</time></trkpt><trkpt lat="44.51411528667098" lon="12.10233120441689"><ele>2.333333333333333</ele><time>2026-05-03T12:50:54.979Z</time></trkpt><trkpt lat="44.51427033894712" lon="12.102444756038093"><ele>2.6666666666666665</ele><time>2026-05-03T12:50:55.979Z</time></trkpt><trkpt lat="44.51442606519812" lon="12.102564687874084"><ele>3.0</ele><time>2026-05-03T12:50:56.979Z</time></trkpt><trkpt lat="44.51457923025126" lon="12.102690679191008"><ele>3.0</ele><time>2026-05-03T12:50:57.979Z</time></trkpt><trkpt lat="44.51473190552727" lon="12.10282119405989"><ele>3.0</ele><time>2026-05-03T12:50:58.979Z</time></trkpt><trkpt lat="44.51488645573443" lon="12.102957806337411"><ele>3.0</ele><time>2026-05-03T12:50:59.979Z</time></trkpt><trkpt lat="44.51503593718105" lon="12.103096729691126"><ele>3.0</ele><time>2026-05-03T12:51:00.979Z</time></trkpt><trkpt lat="44.51519026016871" lon="12.103237854883515"><ele>3.0</ele><time>2026-05-03T12:51:01.979Z</time></trkpt><trkpt lat="44.51534467238883" lon="12.103381800191386"><ele>3.0</ele><time>2026-05-03T12:51:02.979Z</time></trkpt><trkpt lat="44.51549910236028" lon="12.10352494691032"><ele>4.0</ele><time>2026-05-03T12:51:03.979Z</time></trkpt><trkpt lat="44.515654810256926" lon="12.103667908750191"><ele>5.0</ele><time>2026-05-03T12:51:04.979Z</time></trkpt><trkpt lat="44.51580741734273" lon="12.103810739954517"><ele>6.0</ele><time>2026-05-03T12:51:05.979Z</time></trkpt><trkpt lat="44.515957111113686" lon="12.103954567007618"><ele>6.0</ele><time>2026-05-03T12:51:06.979Z</time></trkpt><trkpt lat="44.516103080236036" lon="12.104105767624052"><ele>6.0</ele><time>2026-05-03T12:51:07.979Z</time></trkpt><trkpt lat="44.51625204525533" lon="12.10424392065912"><ele>6.0</ele><time>2026-05-03T12:51:08.979Z</time></trkpt><trkpt lat="44.51639667360478" lon="12.104389055779542"><ele>5.333333333333333</ele><time>2026-05-03T12:51:09.979Z</time></trkpt><trkpt lat="44.51654209990673" lon="12.104533829512706"><ele>4.666666666666666</ele><time>2026-05-03T12:51:10.979Z</time></trkpt><trkpt lat="44.516687689307425" lon="12.10467579847798"><ele>4.0</ele><time>2026-05-03T12:51:11.979Z</time></trkpt><trkpt lat="44.51683792376696" lon="12.104816187580493"><ele>4.0</ele><time>2026-05-03T12:51:12.979Z</time></trkpt><trkpt lat="44.51698726355588" lon="12.104957560668662"><ele>4.0</ele><time>2026-05-03T12:51:13.979Z</time></trkpt><trkpt lat="44.517135776783284" lon="12.105097070535018"><ele>4.0</ele><time>2026-05-03T12:51:14.979Z</time></trkpt><trkpt lat="44.51728863720747" lon="12.105238602627598"><ele>3.6666666666666665</ele><time>2026-05-03T12:51:15.979Z</time></trkpt><trkpt lat="44.51743991168175" lon="12.105380701605169"><ele>3.333333333333333</ele><time>2026-05-03T12:51:16.979Z</time></trkpt><trkpt lat="44.51758295974732" lon="12.105524154936626"><ele>3.0</ele><time>2026-05-03T12:51:17.979Z</time></trkpt><trkpt lat="44.517733142196406" lon="12.10566327247212"><ele>3.333333333333333</ele><time>2026-05-03T12:51:18.979Z</time></trkpt><trkpt lat="44.51788402652283" lon="12.10580395595223"><ele>3.6666666666666665</ele><time>2026-05-03T12:51:19.979Z</time></trkpt><trkpt lat="44.51802856357507" lon="12.10594222543291"><ele>4.0</ele><time>2026-05-03T12:51:20.979Z</time></trkpt><trkpt lat="44.51817658493267" lon="12.106079314001068"><ele>4.0</ele><time>2026-05-03T12:51:21.979Z</time></trkpt><trkpt lat="44.51831779667246" lon="12.106217534977395"><ele>4.0</ele><time>2026-05-03T12:51:22.98Z</time></trkpt><trkpt lat="44.51846245480778" lon="12.106357375382299"><ele>4.0</ele><time>2026-05-03T12:51:23.98Z</time></trkpt><trkpt lat="44.51861291735697" lon="12.106494096483615"><ele>4.0</ele><time>2026-05-03T12:51:24.98Z</time></trkpt><trkpt lat="44.51875723583255" lon="12.1066344553843"><ele>4.0</ele><time>2026-05-03T12:51:25.98Z</time></trkpt><trkpt lat="44.51890370599657" lon="12.106775501129057"><ele>4.0</ele><time>2026-05-03T12:51:26.98Z</time></trkpt><trkpt lat="44.51905631461243" lon="12.106917427685417"><ele>4.0</ele><time>2026-05-03T12:51:27.98Z</time></trkpt><trkpt lat="44.51920435740447" lon="12.107061575786451"><ele>4.0</ele><time>2026-05-03T12:51:28.98Z</time></trkpt><trkpt lat="44.51935451727214" lon="12.107207552716114"><ele>4.0</ele><time>2026-05-03T12:51:29.98Z</time></trkpt><trkpt lat="44.51950640475134" lon="12.107349739376223"><ele>3.333333333333333</ele><time>2026-05-03T12:51:30.98Z</time></trkpt><trkpt lat="44.51965772721041" lon="12.107492012736737"><ele>2.6666666666666665</ele><time>2026-05-03T12:51:31.98Z</time></trkpt><trkpt lat="44.519807755563235" lon="12.107629769447163"><ele>2.0</ele><time>2026-05-03T12:51:32.98Z</time></trkpt><trkpt lat="44.519953916874265" lon="12.107770869572303"><ele>2.0</ele><time>2026-05-03T12:51:33.98Z</time></trkpt><trkpt lat="44.520105372935795" lon="12.107911582072314"><ele>2.0</ele><time>2026-05-03T12:51:34.98Z</time></trkpt><trkpt lat="44.52025822329969" lon="12.108052148922066"><ele>2.0</ele><time>2026-05-03T12:51:35.98Z</time></trkpt><trkpt lat="44.52041173455783" lon="12.10819242192296"><ele>2.6666666666666665</ele><time>2026-05-03T12:51:36.98Z</time></trkpt><trkpt lat="44.52056620740013" lon="12.108331708793692"><ele>3.333333333333333</ele><time>2026-05-03T12:51:37.98Z</time></trkpt><trkpt lat="44.52071756738736" lon="12.108478419814702"><ele>4.0</ele><time>2026-05-03T12:51:38.98Z</time></trkpt><trkpt lat="44.52086875796103" lon="12.108630565769538"><ele>4.0</ele><time>2026-05-03T12:51:39.98Z</time></trkpt><trkpt lat="44.52102151669655" lon="12.108779850269103"><ele>4.0</ele><time>2026-05-03T12:51:40.98Z</time></trkpt><trkpt lat="44.52117116045357" lon="12.108928567236052"><ele>4.0</ele><time>2026-05-03T12:51:41.98Z</time></trkpt><trkpt lat="44.52132202377819" lon="12.10907543431798"><ele>3.0</ele><time>2026-05-03T12:51:42.98Z</time></trkpt><trkpt lat="44.5214766293333" lon="12.109223579638353"><ele>2.0</ele><time>2026-05-03T12:51:43.98Z</time></trkpt><trkpt lat="44.52163232761338" lon="12.109373900273422"><ele>1.0</ele><time>2026-05-03T12:51:44.98Z</time></trkpt><trkpt lat="44.52178502209211" lon="12.109524404749372"><ele>1.0</ele><time>2026-05-03T12:51:45.98Z</time></trkpt><trkpt lat="44.52193771753219" lon="12.109666039929055"><ele>1.0</ele><time>2026-05-03T12:51:46.98Z</time></trkpt><trkpt lat="44.522090966889834" lon="12.109808233141427"><ele>1.0</ele><time>2026-05-03T12:51:47.98Z</time></trkpt><trkpt lat="44.52224449179355" lon="12.109949388522814"><ele>1.3333333333333333</ele><time>2026-05-03T12:51:48.98Z</time></trkpt><trkpt lat="44.52239273816696" lon="12.110096083106555"><ele>1.6666666666666665</ele><time>2026-05-03T12:51:49.98Z</time></trkpt><trkpt lat="44.52254647728571" lon="12.110243584113"><ele>2.0</ele><time>2026-05-03T12:51:50.98Z</time></trkpt><trkpt lat="44.52270540092904" lon="12.110386736772844"><ele>2.0</ele><time>2026-05-03T12:51:51.98Z</time></trkpt><trkpt lat="44.522863277513146" lon="12.110534260012503"><ele>2.0</ele><time>2026-05-03T12:51:52.98Z</time></trkpt><trkpt lat="44.52301790855631" lon="12.11068143250903"><ele>2.0</ele><time>2026-05-03T12:51:53.98Z</time></trkpt><trkpt lat="44.5231776371863" lon="12.110831440100354"><ele>2.0</ele><time>2026-05-03T12:51:54.98Z</time></trkpt><trkpt lat="44.52333821806655" lon="12.110978918968872"><ele>2.0</ele><time>2026-05-03T12:51:55.98Z</time></trkpt><trkpt lat="44.52349717180091" lon="12.111124518141759"><ele>2.0</ele><time>2026-05-03T12:51:56.98Z</time></trkpt><trkpt lat="44.52365901762329" lon="12.111274626292497"><ele>2.0</ele><time>2026-05-03T12:51:57.98Z</time></trkpt><trkpt lat="44.52382169439901" lon="12.111428846630774"><ele>2.0</ele><time>2026-05-03T12:51:58.98Z</time></trkpt><trkpt lat="44.52398406820242" lon="12.111581284603252"><ele>2.0</ele><time>2026-05-03T12:51:59.98Z</time></trkpt><trkpt lat="44.52414758833522" lon="12.111734822481194"><ele>2.6666666666666665</ele><time>2026-05-03T12:52:00.98Z</time></trkpt><trkpt lat="44.52429982690472" lon="12.11188445160422"><ele>3.333333333333333</ele><time>2026-05-03T12:52:01.98Z</time></trkpt><trkpt lat="44.52445399069082" lon="12.112034266051182"><ele>4.0</ele><time>2026-05-03T12:52:02.98Z</time></trkpt><trkpt lat="44.524605943365366" lon="12.112183110251244"><ele>4.0</ele><time>2026-05-03T12:52:03.98Z</time></trkpt><trkpt lat="44.52476589959235" lon="12.1123329804603"><ele>4.0</ele><time>2026-05-03T12:52:04.98Z</time></trkpt><trkpt lat="44.524925516297095" lon="12.112485532032547"><ele>4.0</ele><time>2026-05-03T12:52:05.981Z</time></trkpt><trkpt lat="44.525088014651494" lon="12.11263563773059"><ele>3.6666666666666665</ele><time>2026-05-03T12:52:06.981Z</time></trkpt><trkpt lat="44.52525064212898" lon="12.112788512269837"><ele>3.333333333333333</ele><time>2026-05-03T12:52:07.981Z</time></trkpt><trkpt lat="44.525408205436285" lon="12.112938978252538"><ele>3.0</ele><time>2026-05-03T12:52:08.981Z</time></trkpt><trkpt lat="44.52556845837424" lon="12.11309030312942"><ele>3.0</ele><time>2026-05-03T12:52:09.981Z</time></trkpt><trkpt lat="44.525711065570334" lon="12.113234184499033"><ele>3.0</ele><time>2026-05-03T12:52:10.981Z</time></trkpt><trkpt lat="44.525841746410954" lon="12.11337060016864"><ele>3.0</ele><time>2026-05-03T12:52:11.977Z</time></trkpt><trkpt lat="44.525969455349134" lon="12.11350021640252"><ele>3.0</ele><time>2026-05-03T12:52:12.978Z</time></trkpt><trkpt lat="44.526095239771365" lon="12.11362895798027"><ele>3.0</ele><time>2026-05-03T12:52:13.978Z</time></trkpt><trkpt lat="44.5262217185616" lon="12.113760059031708"><ele>3.0</ele><time>2026-05-03T12:52:14.978Z</time></trkpt><trkpt lat="44.526350733100266" lon="12.113897420249508"><ele>3.333333333333333</ele><time>2026-05-03T12:52:15.977Z</time></trkpt><trkpt lat="44.52648004450341" lon="12.114037338753986"><ele>3.6666666666666665</ele><time>2026-05-03T12:52:16.977Z</time></trkpt><trkpt lat="44.52660771060524" lon="12.114181439291087"><ele>4.0</ele><time>2026-05-03T12:52:17.978Z</time></trkpt><trkpt lat="44.52673410014317" lon="12.114328360656655"><ele>3.333333333333333</ele><time>2026-05-03T12:52:18.978Z</time></trkpt><trkpt lat="44.526850443750426" lon="12.114476296259562"><ele>2.6666666666666665</ele><time>2026-05-03T12:52:19.978Z</time></trkpt><trkpt lat="44.5269647729895" lon="12.114625685076643"><ele>2.0</ele><time>2026-05-03T12:52:20.977Z</time></trkpt><trkpt lat="44.52707907481973" lon="12.114773036915258"><ele>2.0</ele><time>2026-05-03T12:52:21.977Z</time></trkpt><trkpt lat="44.52719054815771" lon="12.114919731819962"><ele>2.0</ele><time>2026-05-03T12:52:22.977Z</time></trkpt><trkpt lat="44.527295271655696" lon="12.11506977364001"><ele>2.0</ele><time>2026-05-03T12:52:23.977Z</time></trkpt><trkpt lat="44.527391191895845" lon="12.115213444865192"><ele>2.0</ele><time>2026-05-03T12:52:24.978Z</time></trkpt><trkpt lat="44.52749367082225" lon="12.115357790557765"><ele>2.0</ele><time>2026-05-03T12:52:25.978Z</time></trkpt><trkpt lat="44.5275949475444" lon="12.115499011110996"><ele>2.0</ele><time>2026-05-03T12:52:26.978Z</time></trkpt><trkpt lat="44.52768953691072" lon="12.115634614200797"><ele>2.0</ele><time>2026-05-03T12:52:27.978Z</time></trkpt><trkpt lat="44.5277794423223" lon="12.115768196418664"><ele>2.0</ele><time>2026-05-03T12:52:28.978Z</time></trkpt><trkpt lat="44.52787081301113" lon="12.115900718294835"><ele>2.75</ele><time>2026-05-03T12:52:29.978Z</time></trkpt><trkpt lat="44.52795960776594" lon="12.116028116834016"><ele>3.5</ele><time>2026-05-03T12:52:30.978Z</time></trkpt><trkpt lat="44.52804751697381" lon="12.11615440105258"><ele>4.25</ele><time>2026-05-03T12:52:31.978Z</time></trkpt><trkpt lat="44.52813335132077" lon="12.116279652356818"><ele>5.0</ele><time>2026-05-03T12:52:32.978Z</time></trkpt><trkpt lat="44.52822083537646" lon="12.116401797575428"><ele>5.0</ele><time>2026-05-03T12:52:33.978Z</time></trkpt><trkpt lat="44.52830464183524" lon="12.116525393951337"><ele>5.0</ele><time>2026-05-03T12:52:34.978Z</time></trkpt><trkpt lat="44.5283883375175" lon="12.116645284819247"><ele>5.0</ele><time>2026-05-03T12:52:35.978Z</time></trkpt><trkpt lat="44.52847263546184" lon="12.116762667467626"><ele>5.0</ele><time>2026-05-03T12:52:36.978Z</time></trkpt><trkpt lat="44.52855329879359" lon="12.116881462890559"><ele>4.25</ele><time>2026-05-03T12:52:37.978Z</time></trkpt><trkpt lat="44.52863436069461" lon="12.116998902849208"><ele>3.5</ele><time>2026-05-03T12:52:38.978Z</time></trkpt><trkpt lat="44.52871697692756" lon="12.117114107526925"><ele>2.75</ele><time>2026-05-03T12:52:39.978Z</time></trkpt><trkpt lat="44.52879589016385" lon="12.1172270447791"><ele>2.0</ele><time>2026-05-03T12:52:40.978Z</time></trkpt><trkpt lat="44.5288777243402" lon="12.117340072626309"><ele>1.75</ele><time>2026-05-03T12:52:41.978Z</time></trkpt><trkpt lat="44.52896316591397" lon="12.11745219130672"><ele>1.5</ele><time>2026-05-03T12:52:42.978Z</time></trkpt><trkpt lat="44.529043472156545" lon="12.117564244498174"><ele>1.25</ele><time>2026-05-03T12:52:43.978Z</time></trkpt><trkpt lat="44.52912848686828" lon="12.117678148402316"><ele>1.0</ele><time>2026-05-03T12:52:44.978Z</time></trkpt><trkpt lat="44.52921201365834" lon="12.117795428337653"><ele>1.0</ele><time>2026-05-03T12:52:45.978Z</time></trkpt><trkpt lat="44.52929576616304" lon="12.117916953229555"><ele>1.0</ele><time>2026-05-03T12:52:46.978Z</time></trkpt><trkpt lat="44.529380446321866" lon="12.118037998178384"><ele>1.0</ele><time>2026-05-03T12:52:47.978Z</time></trkpt><trkpt lat="44.52946745054835" lon="12.118161886057669"><ele>1.0</ele><time>2026-05-03T12:52:48.978Z</time></trkpt><trkpt lat="44.52954934617152" lon="12.118281705055493"><ele>1.25</ele><time>2026-05-03T12:52:49.978Z</time></trkpt><trkpt lat="44.52963193788608" lon="12.11840200432941"><ele>1.5</ele><time>2026-05-03T12:52:50.978Z</time></trkpt><trkpt lat="44.529719150997266" lon="12.118523263692271"><ele>1.75</ele><time>2026-05-03T12:52:51.978Z</time></trkpt><trkpt lat="44.529799931672315" lon="12.118641502097034"><ele>2.0</ele><time>2026-05-03T12:52:52.978Z</time></trkpt><trkpt lat="44.529881387372164" lon="12.118759748767364"><ele>2.0</ele><time>2026-05-03T12:52:53.978Z</time></trkpt><trkpt lat="44.52996379773238" lon="12.11887641129757"><ele>2.0</ele><time>2026-05-03T12:52:54.978Z</time></trkpt><trkpt lat="44.53004614093454" lon="12.11899833807672"><ele>2.0</ele><time>2026-05-03T12:52:55.978Z</time></trkpt><trkpt lat="44.53013423595138" lon="12.119115761683563"><ele>2.0</ele><time>2026-05-03T12:52:56.978Z</time></trkpt><trkpt lat="44.53021856264555" lon="12.119233850082107"><ele>2.25</ele><time>2026-05-03T12:52:57.979Z</time></trkpt><trkpt lat="44.53029913842569" lon="12.119352287946407"><ele>2.5</ele><time>2026-05-03T12:52:58.979Z</time></trkpt><trkpt lat="44.53038036079635" lon="12.119467809833143"><ele>2.75</ele><time>2026-05-03T12:52:59.979Z</time></trkpt><trkpt lat="44.53046102812347" lon="12.119584482303301"><ele>3.0</ele><time>2026-05-03T12:53:00.979Z</time></trkpt><trkpt lat="44.53053851733554" lon="12.11969939205933"><ele>3.2</ele><time>2026-05-03T12:53:01.979Z</time></trkpt><trkpt lat="44.53061700849645" lon="12.119810426615"><ele>3.4</ele><time>2026-05-03T12:53:02.979Z</time></trkpt><trkpt lat="44.53069627207699" lon="12.11992330725585"><ele>3.6000000000000005</ele><time>2026-05-03T12:53:03.979Z</time></trkpt><trkpt lat="44.530772771363345" lon="12.120034104291413"><ele>3.8000000000000003</ele><time>2026-05-03T12:53:04.979Z</time></trkpt><trkpt lat="44.53084725052241" lon="12.120146994460411"><ele>4.0</ele><time>2026-05-03T12:53:05.979Z</time></trkpt><trkpt lat="44.53092532120748" lon="12.120259766445376"><ele>4.0</ele><time>2026-05-03T12:53:06.979Z</time></trkpt><trkpt lat="44.53099810119751" lon="12.120372683206138"><ele>4.0</ele><time>2026-05-03T12:53:07.979Z</time></trkpt><trkpt lat="44.53107223605315" lon="12.120488186435912"><ele>4.0</ele><time>2026-05-03T12:53:08.979Z</time></trkpt><trkpt lat="44.53115039336945" lon="12.120602237874369"><ele>4.0</ele><time>2026-05-03T12:53:09.979Z</time></trkpt><trkpt lat="44.53122932848393" lon="12.120717160953308"><ele>4.0</ele><time>2026-05-03T12:53:10.979Z</time></trkpt><trkpt lat="44.531316214874316" lon="12.120833395285922"><ele>4.0</ele><time>2026-05-03T12:53:11.979Z</time></trkpt><trkpt lat="44.531402642656985" lon="12.120950259283982"><ele>4.0</ele><time>2026-05-03T12:53:12.979Z</time></trkpt><trkpt lat="44.53149163761074" lon="12.12107184466413"><ele>4.0</ele><time>2026-05-03T12:53:13.979Z</time></trkpt><trkpt lat="44.531581133962064" lon="12.121195244282712"><ele>4.0</ele><time>2026-05-03T12:53:14.979Z</time></trkpt><trkpt lat="44.531669335978975" lon="12.121319974304765"><ele>4.0</ele><time>2026-05-03T12:53:15.979Z</time></trkpt><trkpt lat="44.53175971948805" lon="12.121445403998182"><ele>4.0</ele><time>2026-05-03T12:53:16.979Z</time></trkpt><trkpt lat="44.531848425590695" lon="12.121571228630664"><ele>4.0</ele><time>2026-05-03T12:53:17.979Z</time></trkpt><trkpt lat="44.53193924474597" lon="12.121696067709374"><ele>4.0</ele><time>2026-05-03T12:53:18.979Z</time></trkpt><trkpt lat="44.53203030364389" lon="12.121827163923863"><ele>3.75</ele><time>2026-05-03T12:53:19.979Z</time></trkpt><trkpt lat="44.532124184980276" lon="12.121956404375256"><ele>3.5</ele><time>2026-05-03T12:53:20.979Z</time></trkpt><trkpt lat="44.53221762540575" lon="12.122083382614928"><ele>3.25</ele><time>2026-05-03T12:53:21.979Z</time></trkpt><trkpt lat="44.53231141640848" lon="12.122211945848969"><ele>3.0</ele><time>2026-05-03T12:53:22.979Z</time></trkpt><trkpt lat="44.53240753615527" lon="12.122342410862855"><ele>3.0</ele><time>2026-05-03T12:53:23.979Z</time></trkpt><trkpt lat="44.53250698230589" lon="12.122476442457316"><ele>3.0</ele><time>2026-05-03T12:53:24.979Z</time></trkpt><trkpt lat="44.532599080631186" lon="12.122607096990315"><ele>3.0</ele><time>2026-05-03T12:53:25.979Z</time></trkpt><trkpt lat="44.53269615481385" lon="12.12273865640482"><ele>3.0</ele><time>2026-05-03T12:53:26.979Z</time></trkpt><trkpt lat="44.53278577214557" lon="12.122868088783855"><ele>3.0</ele><time>2026-05-03T12:53:27.979Z</time></trkpt><trkpt lat="44.532880563382555" lon="12.123000461655874"><ele>3.0</ele><time>2026-05-03T12:53:28.979Z</time></trkpt><trkpt lat="44.53297475141811" lon="12.123134911592432"><ele>3.0</ele><time>2026-05-03T12:53:29.979Z</time></trkpt><trkpt lat="44.533075995168986" lon="12.123272859451006"><ele>3.0</ele><time>2026-05-03T12:53:30.979Z</time></trkpt><trkpt lat="44.53317834274825" lon="12.123409406358174"><ele>3.5</ele><time>2026-05-03T12:53:31.979Z</time></trkpt><trkpt lat="44.5332819127236" lon="12.123545203072167"><ele>4.0</ele><time>2026-05-03T12:53:32.979Z</time></trkpt><trkpt lat="44.53338207767096" lon="12.123688444205602"><ele>4.5</ele><time>2026-05-03T12:53:33.979Z</time></trkpt><trkpt lat="44.53348081939455" lon="12.123826347828693"><ele>5.0</ele><time>2026-05-03T12:53:34.979Z</time></trkpt><trkpt lat="44.53358407378192" lon="12.123965838187672"><ele>4.75</ele><time>2026-05-03T12:53:35.979Z</time></trkpt><trkpt lat="44.533685110218606" lon="12.12410471203397"><ele>4.5</ele><time>2026-05-03T12:53:36.979Z</time></trkpt><trkpt lat="44.53378697124327" lon="12.124244579324294"><ele>4.25</ele><time>2026-05-03T12:53:37.979Z</time></trkpt><trkpt lat="44.53388752455237" lon="12.1243826865484"><ele>4.0</ele><time>2026-05-03T12:53:38.979Z</time></trkpt><trkpt lat="44.5339870546274" lon="12.124524238194677"><ele>4.0</ele><time>2026-05-03T12:53:39.979Z</time></trkpt><trkpt lat="44.53408589380909" lon="12.124659174454377"><ele>4.0</ele><time>2026-05-03T12:53:40.979Z</time></trkpt><trkpt lat="44.53418479701845" lon="12.124796392675158"><ele>4.0</ele><time>2026-05-03T12:53:41.979Z</time></trkpt><trkpt lat="44.53428164954961" lon="12.124931560398705"><ele>4.0</ele><time>2026-05-03T12:53:42.979Z</time></trkpt><trkpt lat="44.53437839004394" lon="12.125067745878775"><ele>3.5</ele><time>2026-05-03T12:53:43.98Z</time></trkpt><trkpt lat="44.53447690042821" lon="12.125200647963014"><ele>3.0</ele><time>2026-05-03T12:53:44.98Z</time></trkpt><trkpt lat="44.53457457096547" lon="12.12533409964361"><ele>2.5</ele><time>2026-05-03T12:53:45.98Z</time></trkpt><trkpt lat="44.534668864203695" lon="12.125464650411752"><ele>2.0</ele><time>2026-05-03T12:53:46.98Z</time></trkpt><trkpt lat="44.534766343396484" lon="12.125595771665791"><ele>2.0</ele><time>2026-05-03T12:53:47.98Z</time></trkpt><trkpt lat="44.534861168454256" lon="12.125729415741274"><ele>2.0</ele><time>2026-05-03T12:53:48.98Z</time></trkpt><trkpt lat="44.53495582638163" lon="12.125863304388199"><ele>2.0</ele><time>2026-05-03T12:53:49.98Z</time></trkpt><trkpt lat="44.53505005687613" lon="12.125994915656113"><ele>2.0</ele><time>2026-05-03T12:53:50.98Z</time></trkpt><trkpt lat="44.535141049715556" lon="12.126120853319536"><ele>2.0</ele><time>2026-05-03T12:53:51.98Z</time></trkpt><trkpt lat="44.53523439426542" lon="12.126242709065625"><ele>2.0</ele><time>2026-05-03T12:53:52.98Z</time></trkpt><trkpt lat="44.53532450312569" lon="12.12636495120708"><ele>2.0</ele><time>2026-05-03T12:53:53.98Z</time></trkpt><trkpt lat="44.53541469807456" lon="12.12649047009472"><ele>2.0</ele><time>2026-05-03T12:53:54.98Z</time></trkpt><trkpt lat="44.53549977800027" lon="12.126610868769706"><ele>2.5</ele><time>2026-05-03T12:53:55.98Z</time></trkpt><trkpt lat="44.53558588436979" lon="12.126730054013157"><ele>3.0</ele><time>2026-05-03T12:53:56.98Z</time></trkpt><trkpt lat="44.53567420208025" lon="12.126849951092469"><ele>3.5</ele><time>2026-05-03T12:53:57.98Z</time></trkpt><trkpt lat="44.5357605362212" lon="12.1269726706886"><ele>4.0</ele><time>2026-05-03T12:53:58.98Z</time></trkpt><trkpt lat="44.53585014630272" lon="12.127094057439155"><ele>4.0</ele><time>2026-05-03T12:53:59.98Z</time></trkpt><trkpt lat="44.535935612847545" lon="12.127214990523317"><ele>4.0</ele><time>2026-05-03T12:54:00.98Z</time></trkpt><trkpt lat="44.53602099480983" lon="12.127333831284162"><ele>4.0</ele><time>2026-05-03T12:54:01.98Z</time></trkpt><trkpt lat="44.53610848105474" lon="12.12745952560256"><ele>4.0</ele><time>2026-05-03T12:54:02.98Z</time></trkpt><trkpt lat="44.53619938567288" lon="12.127581743950834"><ele>3.75</ele><time>2026-05-03T12:54:03.98Z</time></trkpt><trkpt lat="44.536290253793815" lon="12.127707787989857"><ele>3.5</ele><time>2026-05-03T12:54:04.98Z</time></trkpt><trkpt lat="44.53638182215" lon="12.127830539328558"><ele>3.25</ele><time>2026-05-03T12:54:05.98Z</time></trkpt><trkpt lat="44.53647699845853" lon="12.12796020185207"><ele>3.0</ele><time>2026-05-03T12:54:06.98Z</time></trkpt><trkpt lat="44.53657141206515" lon="12.128089274027923"><ele>3.0</ele><time>2026-05-03T12:54:07.98Z</time></trkpt><trkpt lat="44.53666929144929" lon="12.12822219322436"><ele>3.0</ele><time>2026-05-03T12:54:08.98Z</time></trkpt><trkpt lat="44.53676839778334" lon="12.128353066873725"><ele>3.0</ele><time>2026-05-03T12:54:09.98Z</time></trkpt><trkpt lat="44.536868527086256" lon="12.12848621485468"><ele>3.0</ele><time>2026-05-03T12:54:10.98Z</time></trkpt><trkpt lat="44.53696607072376" lon="12.128623177499318"><ele>3.25</ele><time>2026-05-03T12:54:11.98Z</time></trkpt><trkpt lat="44.537060427557904" lon="12.128767631741395"><ele>3.5</ele><time>2026-05-03T12:54:12.98Z</time></trkpt><trkpt lat="44.53716147221149" lon="12.128915232979663"><ele>3.75</ele><time>2026-05-03T12:54:13.98Z</time></trkpt><trkpt lat="44.537264675269526" lon="12.129059027999105"><ele>4.0</ele><time>2026-05-03T12:54:14.98Z</time></trkpt><trkpt lat="44.53736325214766" lon="12.129207379240725"><ele>3.5</ele><time>2026-05-03T12:54:15.98Z</time></trkpt><trkpt lat="44.537465225086166" lon="12.129352806438456"><ele>3.0</ele><time>2026-05-03T12:54:16.98Z</time></trkpt><trkpt lat="44.537558759958394" lon="12.129503011202877"><ele>2.5</ele><time>2026-05-03T12:54:17.977Z</time></trkpt><trkpt lat="44.537651835051456" lon="12.129649912981781"><ele>2.0</ele><time>2026-05-03T12:54:18.976Z</time></trkpt><trkpt lat="44.53773945502061" lon="12.129800567464951"><ele>2.0</ele><time>2026-05-03T12:54:19.976Z</time></trkpt><trkpt lat="44.53782283905058" lon="12.129954181709522"><ele>2.0</ele><time>2026-05-03T12:54:20.977Z</time></trkpt><trkpt lat="44.53789968813943" lon="12.130105885040836"><ele>2.0</ele><time>2026-05-03T12:54:21.976Z</time></trkpt><trkpt lat="44.53797674788226" lon="12.130254680248735"><ele>2.0</ele><time>2026-05-03T12:54:22.976Z</time></trkpt><trkpt lat="44.53804716779991" lon="12.130403028129482"><ele>2.0</ele><time>2026-05-03T12:54:23.976Z</time></trkpt><trkpt lat="44.53811510348912" lon="12.130550739037258"><ele>2.0</ele><time>2026-05-03T12:54:24.977Z</time></trkpt><trkpt lat="44.538185424030495" lon="12.13069918964532"><ele>2.0</ele><time>2026-05-03T12:54:25.977Z</time></trkpt><trkpt lat="44.53825027016709" lon="12.130848302972005"><ele>2.0</ele><time>2026-05-03T12:54:26.977Z</time></trkpt><trkpt lat="44.53831582137238" lon="12.131003717723475"><ele>2.0</ele><time>2026-05-03T12:54:27.977Z</time></trkpt><trkpt lat="44.53838493430555" lon="12.131161378296717"><ele>2.0</ele><time>2026-05-03T12:54:28.977Z</time></trkpt><trkpt lat="44.53844995052712" lon="12.13131835322669"><ele>2.0</ele><time>2026-05-03T12:54:29.976Z</time></trkpt><trkpt lat="44.538514047742126" lon="12.131479662132548"><ele>2.0</ele><time>2026-05-03T12:54:30.976Z</time></trkpt><trkpt lat="44.53857664943054" lon="12.131640221672225"><ele>1.75</ele><time>2026-05-03T12:54:31.976Z</time></trkpt><trkpt lat="44.538638876798565" lon="12.131799691049071"><ele>1.5</ele><time>2026-05-03T12:54:32.976Z</time></trkpt><trkpt lat="44.53870054761458" lon="12.131962079718049"><ele>1.25</ele><time>2026-05-03T12:54:33.976Z</time></trkpt><trkpt lat="44.5387587918513" lon="12.132127514346049"><ele>1.0</ele><time>2026-05-03T12:54:34.976Z</time></trkpt><trkpt lat="44.538815662475514" lon="12.132292740250818"><ele>1.5</ele><time>2026-05-03T12:54:35.976Z</time></trkpt><trkpt lat="44.53887004702503" lon="12.132464318728836"><ele>2.0</ele><time>2026-05-03T12:54:36.976Z</time></trkpt><trkpt lat="44.538920470873784" lon="12.132638625123723"><ele>2.5</ele><time>2026-05-03T12:54:37.976Z</time></trkpt><trkpt lat="44.53896518571849" lon="12.132814423897692"><ele>3.0</ele><time>2026-05-03T12:54:38.976Z</time></trkpt><trkpt lat="44.53900507863453" lon="12.132993401227413"><ele>3.0</ele><time>2026-05-03T12:54:39.976Z</time></trkpt><trkpt lat="44.53903909752646" lon="12.133174679747821"><ele>3.0</ele><time>2026-05-03T12:54:40.976Z</time></trkpt><trkpt lat="44.539065762391786" lon="12.133360738631922"><ele>3.0</ele><time>2026-05-03T12:54:41.976Z</time></trkpt><trkpt lat="44.53908247145174" lon="12.133549606462621"><ele>3.0</ele><time>2026-05-03T12:54:42.976Z</time></trkpt><trkpt lat="44.539099146909706" lon="12.133735869477144"><ele>2.75</ele><time>2026-05-03T12:54:43.976Z</time></trkpt><trkpt lat="44.53911014762217" lon="12.133923809592318"><ele>2.5</ele><time>2026-05-03T12:54:44.976Z</time></trkpt><trkpt lat="44.53911348402381" lon="12.134114374406684"><ele>2.25</ele><time>2026-05-03T12:54:45.976Z</time></trkpt><trkpt lat="44.53910987488336" lon="12.1343050997384"><ele>2.0</ele><time>2026-05-03T12:54:46.976Z</time></trkpt><trkpt lat="44.539103453896345" lon="12.134492309688666"><ele>2.0</ele><time>2026-05-03T12:54:47.976Z</time></trkpt><trkpt lat="44.53909036145228" lon="12.134682192617266"><ele>2.0</ele><time>2026-05-03T12:54:48.976Z</time></trkpt><trkpt lat="44.539072429872625" lon="12.134863030848416"><ele>2.0</ele><time>2026-05-03T12:54:49.976Z</time></trkpt><trkpt lat="44.53904942482312" lon="12.135043975216805"><ele>2.0</ele><time>2026-05-03T12:54:50.976Z</time></trkpt><trkpt lat="44.53902588885158" lon="12.135220623458949"><ele>2.0</ele><time>2026-05-03T12:54:51.976Z</time></trkpt><trkpt lat="44.53900267393665" lon="12.135396108353621"><ele>2.0</ele><time>2026-05-03T12:54:52.976Z</time></trkpt><trkpt lat="44.53897802717575" lon="12.135573383505125"><ele>2.0</ele><time>2026-05-03T12:54:53.976Z</time></trkpt><trkpt lat="44.538953522947004" lon="12.135750268434423"><ele>2.0</ele><time>2026-05-03T12:54:54.977Z</time></trkpt><trkpt lat="44.53892979463226" lon="12.135925304216453"><ele>2.0</ele><time>2026-05-03T12:54:55.977Z</time></trkpt><trkpt lat="44.53890536715047" lon="12.13610348765267"><ele>2.0</ele><time>2026-05-03T12:54:56.977Z</time></trkpt><trkpt lat="44.538883233136445" lon="12.136275155804611"><ele>2.0</ele><time>2026-05-03T12:54:57.977Z</time></trkpt><trkpt lat="44.53886332772703" lon="12.136439953878858"><ele>2.0</ele><time>2026-05-03T12:54:58.977Z</time></trkpt><trkpt lat="44.538841470306124" lon="12.136608105106248"><ele>2.0</ele><time>2026-05-03T12:54:59.977Z</time></trkpt><trkpt lat="44.538817755222624" lon="12.136781002694043"><ele>2.0</ele><time>2026-05-03T12:55:00.977Z</time></trkpt><trkpt lat="44.538795992283234" lon="12.13694528710074"><ele>2.0</ele><time>2026-05-03T12:55:01.977Z</time></trkpt><trkpt lat="44.53877333913483" lon="12.13710854344562"><ele>2.0</ele><time>2026-05-03T12:55:02.977Z</time></trkpt><trkpt lat="44.53875270886068" lon="12.137266544490862"><ele>2.25</ele><time>2026-05-03T12:55:03.977Z</time></trkpt><trkpt lat="44.538731726866416" lon="12.137430957820722"><ele>2.5</ele><time>2026-05-03T12:55:04.977Z</time></trkpt><trkpt lat="44.53871388575648" lon="12.137593799013587"><ele>2.75</ele><time>2026-05-03T12:55:05.977Z</time></trkpt><trkpt lat="44.53870108215998" lon="12.137757844349563"><ele>3.0</ele><time>2026-05-03T12:55:06.977Z</time></trkpt><trkpt lat="44.53868866697708" lon="12.137930884994805"><ele>2.25</ele><time>2026-05-03T12:55:07.977Z</time></trkpt><trkpt lat="44.53868196318581" lon="12.138108913169466"><ele>1.5</ele><time>2026-05-03T12:55:08.977Z</time></trkpt><trkpt lat="44.53868640504621" lon="12.138285387611111"><ele>0.75</ele><time>2026-05-03T12:55:09.977Z</time></trkpt><trkpt lat="44.538697174549235" lon="12.138458644967265"><ele>0.0</ele><time>2026-05-03T12:55:10.977Z</time></trkpt><trkpt lat="44.538711348177024" lon="12.138633503696184"><ele>0.5</ele><time>2026-05-03T12:55:11.977Z</time></trkpt><trkpt lat="44.538735463989795" lon="12.138799265616166"><ele>1.0</ele><time>2026-05-03T12:55:12.977Z</time></trkpt><trkpt lat="44.53876555436779" lon="12.138969404547767"><ele>1.5</ele><time>2026-05-03T12:55:13.977Z</time></trkpt><trkpt lat="44.538804137677246" lon="12.139136002853894"><ele>2.0</ele><time>2026-05-03T12:55:14.977Z</time></trkpt><trkpt lat="44.53885523632485" lon="12.13930087141686"><ele>2.5</ele><time>2026-05-03T12:55:15.977Z</time></trkpt><trkpt lat="44.53890200326708" lon="12.13947054326721"><ele>3.0</ele><time>2026-05-03T12:55:16.977Z</time></trkpt><trkpt lat="44.53896044648907" lon="12.139633456110628"><ele>3.5</ele><time>2026-05-03T12:55:17.977Z</time></trkpt><trkpt lat="44.53903033812942" lon="12.139805898121677"><ele>4.0</ele><time>2026-05-03T12:55:18.977Z</time></trkpt><trkpt lat="44.539095909464535" lon="12.13996897530784"><ele>4.0</ele><time>2026-05-03T12:55:19.977Z</time></trkpt><trkpt lat="44.539158687774176" lon="12.14012099578721"><ele>4.0</ele><time>2026-05-03T12:55:20.977Z</time></trkpt><trkpt lat="44.53921751240755" lon="12.140260790497818"><ele>4.0</ele><time>2026-05-03T12:55:21.977Z</time></trkpt><trkpt lat="44.53927259393593" lon="12.140394024606751"><ele>4.0</ele><time>2026-05-03T12:55:22.977Z</time></trkpt><trkpt lat="44.53932124466619" lon="12.14053543816402"><ele>4.0</ele><time>2026-05-03T12:55:23.977Z</time></trkpt><trkpt lat="44.53937973964595" lon="12.140686620788014"><ele>4.0</ele><time>2026-05-03T12:55:24.977Z</time></trkpt><trkpt lat="44.53944774640044" lon="12.140820838878494"><ele>4.0</ele><time>2026-05-03T12:55:25.977Z</time></trkpt><trkpt lat="44.53951250079781" lon="12.140979445282063"><ele>4.0</ele><time>2026-05-03T12:55:26.977Z</time></trkpt><trkpt lat="44.539579005800164" lon="12.141128710712884"><ele>4.25</ele><time>2026-05-03T12:55:27.977Z</time></trkpt><trkpt lat="44.539642551547374" lon="12.141273092087468"><ele>4.5</ele><time>2026-05-03T12:55:28.977Z</time></trkpt><trkpt lat="44.53970664540079" lon="12.141420678428618"><ele>4.75</ele><time>2026-05-03T12:55:29.977Z</time></trkpt><trkpt lat="44.53977226782152" lon="12.141563119283818"><ele>5.0</ele><time>2026-05-03T12:55:30.977Z</time></trkpt><trkpt lat="44.53983391173446" lon="12.141702021202784"><ele>5.0</ele><time>2026-05-03T12:55:31.977Z</time></trkpt><trkpt lat="44.53989633743102" lon="12.141846551896446"><ele>5.0</ele><time>2026-05-03T12:55:32.977Z</time></trkpt><trkpt lat="44.53995458914263" lon="12.141992685891152"><ele>5.0</ele><time>2026-05-03T12:55:33.977Z</time></trkpt><trkpt lat="44.540015529840176" lon="12.14213784169237"><ele>5.0</ele><time>2026-05-03T12:55:34.977Z</time></trkpt><trkpt lat="44.540080714261975" lon="12.14228047487107"><ele>4.75</ele><time>2026-05-03T12:55:35.977Z</time></trkpt><trkpt lat="44.540143410881946" lon="12.14242737393932"><ele>4.5</ele><time>2026-05-03T12:55:36.977Z</time></trkpt><trkpt lat="44.54020722082605" lon="12.142573265552594"><ele>4.25</ele><time>2026-05-03T12:55:37.977Z</time></trkpt><trkpt lat="44.54026689626935" lon="12.142720724608854"><ele>4.0</ele><time>2026-05-03T12:55:38.977Z</time></trkpt><trkpt lat="44.540324473919746" lon="12.14287052938252"><ele>4.0</ele><time>2026-05-03T12:55:39.977Z</time></trkpt><trkpt lat="44.54037149497079" lon="12.143023758364652"><ele>4.0</ele><time>2026-05-03T12:55:40.978Z</time></trkpt><trkpt lat="44.54041532268914" lon="12.143179186046105"><ele>4.0</ele><time>2026-05-03T12:55:41.978Z</time></trkpt><trkpt lat="44.540459424290894" lon="12.143336193476378"><ele>4.0</ele><time>2026-05-03T12:55:42.978Z</time></trkpt><trkpt lat="44.54049974438544" lon="12.143499354052073"><ele>3.5</ele><time>2026-05-03T12:55:43.978Z</time></trkpt><trkpt lat="44.54053347456713" lon="12.143671333841466"><ele>3.0</ele><time>2026-05-03T12:55:44.978Z</time></trkpt><trkpt lat="44.54056385638304" lon="12.143848606416356"><ele>2.5</ele><time>2026-05-03T12:55:45.978Z</time></trkpt><trkpt lat="44.540591994159975" lon="12.144025703208651"><ele>2.0</ele><time>2026-05-03T12:55:46.978Z</time></trkpt><trkpt lat="44.54060890443607" lon="12.144200449049135"><ele>2.0</ele><time>2026-05-03T12:55:47.978Z</time></trkpt><trkpt lat="44.540621808006826" lon="12.144376651193072"><ele>2.0</ele><time>2026-05-03T12:55:48.978Z</time></trkpt><trkpt lat="44.54062957689171" lon="12.144534759294881"><ele>2.0</ele><time>2026-05-03T12:55:49.978Z</time></trkpt><trkpt lat="44.54063075550494" lon="12.144678423540554"><ele>2.0</ele><time>2026-05-03T12:55:50.978Z</time></trkpt><trkpt lat="44.54062971396332" lon="12.144817969335223"><ele>2.0</ele><time>2026-05-03T12:55:51.978Z</time></trkpt><trkpt lat="44.540624267474975" lon="12.144949921690008"><ele>2.1666666666666665</ele><time>2026-05-03T12:55:52.978Z</time></trkpt><trkpt lat="44.54061642042675" lon="12.145079284186815"><ele>2.333333333333333</ele><time>2026-05-03T12:55:53.978Z</time></trkpt><trkpt lat="44.540606723542325" lon="12.145201420397322"><ele>2.5</ele><time>2026-05-03T12:55:54.978Z</time></trkpt><trkpt lat="44.54059691675708" lon="12.14530735184993"><ele>2.6666666666666665</ele><time>2026-05-03T12:55:55.978Z</time></trkpt><trkpt lat="44.5405842134177" lon="12.145406244082395"><ele>2.8333333333333335</ele><time>2026-05-03T12:55:56.978Z</time></trkpt><trkpt lat="44.5405701208657" lon="12.145498077749908"><ele>3.0</ele><time>2026-05-03T12:55:57.978Z</time></trkpt><trkpt lat="44.5405525745611" lon="12.145627794289705"><ele>3.0</ele><time>2026-05-03T12:55:59.978Z</time></trkpt><trkpt lat="44.54052882014527" lon="12.14572359136588"><ele>3.0</ele><time>2026-05-03T12:56:01.978Z</time></trkpt><trkpt lat="44.54066079301551" lon="12.145785597306114"><ele>3.0</ele><time>2026-05-03T12:56:04.978Z</time></trkpt><trkpt lat="44.54074802598558" lon="12.145802479730161"><ele>3.0</ele><time>2026-05-03T12:56:07.978Z</time></trkpt><trkpt lat="44.540827747426405" lon="12.145801562621678"><ele>3.0</ele><time>2026-05-03T12:56:09.978Z</time></trkpt><trkpt lat="44.54094592983917" lon="12.145813382232248"><ele>3.0</ele><time>2026-05-03T12:56:11.978Z</time></trkpt><trkpt lat="44.54101299148759" lon="12.145845916390378"><ele>3.0</ele><time>2026-05-03T12:56:12.978Z</time></trkpt><trkpt lat="44.54108177007573" lon="12.145899864978768"><ele>3.0</ele><time>2026-05-03T12:56:13.978Z</time></trkpt><trkpt lat="44.54115143450142" lon="12.145945382809211"><ele>3.0</ele><time>2026-05-03T12:56:14.978Z</time></trkpt><trkpt lat="44.54118087323836" lon="12.146053879641995"><ele>3.0</ele><time>2026-05-03T12:56:15.978Z</time></trkpt><trkpt lat="44.54121054968276" lon="12.146150544703882"><ele>3.0</ele><time>2026-05-03T12:56:16.978Z</time></trkpt><trkpt lat="44.54124536261826" lon="12.146347888005481"><ele>2.714285714285714</ele><time>2026-05-03T12:56:18.978Z</time></trkpt><trkpt lat="44.541259118015645" lon="12.146447960002895"><ele>2.4285714285714284</ele><time>2026-05-03T12:56:19.978Z</time></trkpt><trkpt lat="44.541273708523796" lon="12.146553241937566"><ele>2.142857142857143</ele><time>2026-05-03T12:56:20.978Z</time></trkpt><trkpt lat="44.54129072418254" lon="12.146656024524924"><ele>1.857142857142857</ele><time>2026-05-03T12:56:21.978Z</time></trkpt><trkpt lat="44.541306411284225" lon="12.146755434806133"><ele>1.5714285714285712</ele><time>2026-05-03T12:56:22.978Z</time></trkpt><trkpt lat="44.54131768096124" lon="12.146855285381335"><ele>1.2857142857142856</ele><time>2026-05-03T12:56:23.975Z</time></trkpt><trkpt lat="44.54132773513455" lon="12.146955055325495"><ele>1.0</ele><time>2026-05-03T12:56:24.975Z</time></trkpt><trkpt lat="44.541336622359154" lon="12.147043776706317"><ele>0.9999999999999999</ele><time>2026-05-03T12:56:25.975Z</time></trkpt><trkpt lat="44.54134561187543" lon="12.147185862023385"><ele>1.0</ele><time>2026-05-03T12:56:27.975Z</time></trkpt><trkpt lat="44.541347242142095" lon="12.147287473565088"><ele>1.0</ele><time>2026-05-03T12:56:30.975Z</time></trkpt><trkpt lat="44.541351841855224" lon="12.147407370822174"><ele>1.0</ele><time>2026-05-03T12:58:06.977Z</time></trkpt><trkpt lat="44.54136033571278" lon="12.147509670032925"><ele>0.9999999999999999</ele><time>2026-05-03T12:58:08.978Z</time></trkpt><trkpt lat="44.541365279539285" lon="12.14763072145953"><ele>1.0</ele><time>2026-05-03T12:58:10.978Z</time></trkpt><trkpt lat="44.54137038140549" lon="12.147789597815116"><ele>1.1666666666666665</ele><time>2026-05-03T12:58:12.978Z</time></trkpt><trkpt lat="44.541380207462026" lon="12.147970166203203"><ele>1.3333333333333333</ele><time>2026-05-03T12:58:14.978Z</time></trkpt><trkpt lat="44.54138365002391" lon="12.148070465310173"><ele>1.5</ele><time>2026-05-03T12:58:15.978Z</time></trkpt><trkpt lat="44.541387473132694" lon="12.148182881239105"><ele>1.6666666666666665</ele><time>2026-05-03T12:58:16.978Z</time></trkpt><trkpt lat="44.54138966565336" lon="12.148293694726915"><ele>1.8333333333333333</ele><time>2026-05-03T12:58:17.978Z</time></trkpt><trkpt lat="44.541392744349174" lon="12.148401507969595"><ele>2.0</ele><time>2026-05-03T12:58:18.978Z</time></trkpt><trkpt lat="44.541395139598286" lon="12.148514993442834"><ele>2.2</ele><time>2026-05-03T12:58:19.978Z</time></trkpt><trkpt lat="44.5414023939741" lon="12.148637440065743"><ele>2.4000000000000004</ele><time>2026-05-03T12:58:20.978Z</time></trkpt><trkpt lat="44.54141300428075" lon="12.1487678938617"><ele>2.5999999999999996</ele><time>2026-05-03T12:58:21.978Z</time></trkpt><trkpt lat="44.54142522813634" lon="12.148907564845778"><ele>2.8</ele><time>2026-05-03T12:58:22.978Z</time></trkpt><trkpt lat="44.54144410811887" lon="12.149042936173629"><ele>3.0</ele><time>2026-05-03T12:58:23.978Z</time></trkpt><trkpt lat="44.54146635297641" lon="12.149175395971165"><ele>2.8</ele><time>2026-05-03T12:58:24.978Z</time></trkpt><trkpt lat="44.54147086012812" lon="12.149314690111252"><ele>2.5999999999999996</ele><time>2026-05-03T12:58:25.978Z</time></trkpt><trkpt lat="44.54149282113458" lon="12.14944970695727"><ele>2.4000000000000004</ele><time>2026-05-03T12:58:26.978Z</time></trkpt><trkpt lat="44.54151559997823" lon="12.149595906030388"><ele>2.2</ele><time>2026-05-03T12:58:27.978Z</time></trkpt><trkpt lat="44.54153914674984" lon="12.149735340418204"><ele>2.0</ele><time>2026-05-03T12:58:28.978Z</time></trkpt><trkpt lat="44.5415656400799" lon="12.149878609221352"><ele>2.0</ele><time>2026-05-03T12:58:29.975Z</time></trkpt><trkpt lat="44.541592523970756" lon="12.150020510389837"><ele>2.0</ele><time>2026-05-03T12:58:30.974Z</time></trkpt><trkpt lat="44.54161812700581" lon="12.150165795891978"><ele>2.0</ele><time>2026-05-03T12:58:31.974Z</time></trkpt><trkpt lat="44.541649894639605" lon="12.150317808160636"><ele>2.0</ele><time>2026-05-03T12:58:32.974Z</time></trkpt><trkpt lat="44.54167625066357" lon="12.150467073713987"><ele>2.0</ele><time>2026-05-03T12:58:33.974Z</time></trkpt><trkpt lat="44.541704780900446" lon="12.150609556857688"><ele>2.6</ele><time>2026-05-03T12:58:34.974Z</time></trkpt><trkpt lat="44.54173142611679" lon="12.150753159888342"><ele>3.2</ele><time>2026-05-03T12:58:35.974Z</time></trkpt><trkpt lat="44.54176342644102" lon="12.150895153683477"><ele>3.8</ele><time>2026-05-03T12:58:36.974Z</time></trkpt><trkpt lat="44.54179845696991" lon="12.151042826569693"><ele>4.4</ele><time>2026-05-03T12:58:37.974Z</time></trkpt><trkpt lat="44.541827374032785" lon="12.151191642085486"><ele>5.0</ele><time>2026-05-03T12:58:38.974Z</time></trkpt><trkpt lat="44.54186097510855" lon="12.151350677198126"><ele>5.0</ele><time>2026-05-03T12:58:39.974Z</time></trkpt><trkpt lat="44.54189020297581" lon="12.151487824380848"><ele>5.0</ele><time>2026-05-03T12:58:40.974Z</time></trkpt><trkpt lat="44.54192468231063" lon="12.15162363362619"><ele>5.0</ele><time>2026-05-03T12:58:41.974Z</time></trkpt><trkpt lat="44.541957863622606" lon="12.151755500293918"><ele>5.0</ele><time>2026-05-03T12:58:42.974Z</time></trkpt><trkpt lat="44.541985102609075" lon="12.151883298577271"><ele>5.0</ele><time>2026-05-03T12:58:43.974Z</time></trkpt><trkpt lat="44.542013262209274" lon="12.152004875428151"><ele>4.666666666666667</ele><time>2026-05-03T12:58:44.974Z</time></trkpt><trkpt lat="44.54204157128702" lon="12.152126760448747"><ele>4.333333333333334</ele><time>2026-05-03T12:58:45.974Z</time></trkpt><trkpt lat="44.542068993309606" lon="12.152240156627395"><ele>4.0</ele><time>2026-05-03T12:58:46.974Z</time></trkpt><trkpt lat="44.54209622689833" lon="12.152350568069217"><ele>3.666666666666667</ele><time>2026-05-03T12:58:47.974Z</time></trkpt><trkpt lat="44.54212058421447" lon="12.15245574708968"><ele>3.3333333333333335</ele><time>2026-05-03T12:58:48.974Z</time></trkpt><trkpt lat="44.5421483018221" lon="12.152566587672306"><ele>3.0</ele><time>2026-05-03T12:58:49.974Z</time></trkpt><trkpt lat="44.54217415087606" lon="12.152679572455092"><ele>3.0</ele><time>2026-05-03T12:58:50.974Z</time></trkpt><trkpt lat="44.54219891773564" lon="12.152788795374832"><ele>3.0</ele><time>2026-05-03T12:58:51.974Z</time></trkpt><trkpt lat="44.54222190761821" lon="12.152889926604844"><ele>3.0</ele><time>2026-05-03T12:58:52.974Z</time></trkpt><trkpt lat="44.54224647889869" lon="12.152996694142143"><ele>3.0</ele><time>2026-05-03T12:58:53.974Z</time></trkpt><trkpt lat="44.5422729211332" lon="12.15310701370705"><ele>3.0</ele><time>2026-05-03T12:58:54.974Z</time></trkpt><trkpt lat="44.542302896080436" lon="12.153218505445883"><ele>3.0</ele><time>2026-05-03T12:58:55.974Z</time></trkpt><trkpt lat="44.54233383091803" lon="12.153326998941875"><ele>3.3333333333333335</ele><time>2026-05-03T12:58:56.974Z</time></trkpt><trkpt lat="44.54236802229349" lon="12.153435088693861"><ele>3.666666666666667</ele><time>2026-05-03T12:58:57.974Z</time></trkpt><trkpt lat="44.542400183186075" lon="12.15354337800137"><ele>4.0</ele><time>2026-05-03T12:58:58.974Z</time></trkpt><trkpt lat="44.54243306031608" lon="12.153653787341108"><ele>4.333333333333334</ele><time>2026-05-03T12:58:59.974Z</time></trkpt><trkpt lat="44.54246541693379" lon="12.153761037326763"><ele>4.666666666666667</ele><time>2026-05-03T12:59:00.974Z</time></trkpt><trkpt lat="44.54249903823454" lon="12.153857863301791"><ele>5.0</ele><time>2026-05-03T12:59:01.974Z</time></trkpt><trkpt lat="44.54253167841047" lon="12.153952144720362"><ele>4.6</ele><time>2026-05-03T12:59:02.974Z</time></trkpt><trkpt lat="44.542566981719574" lon="12.15404266746949"><ele>4.2</ele><time>2026-05-03T12:59:03.974Z</time></trkpt><trkpt lat="44.54263634864748" lon="12.154180994584197"><ele>3.8</ele><time>2026-05-03T12:59:05.974Z</time></trkpt><trkpt lat="44.54270292684611" lon="12.154279504956328"><ele>3.4</ele><time>2026-05-03T12:59:07.974Z</time></trkpt><trkpt lat="44.54278497274502" lon="12.154376416000328"><ele>3.0</ele><time>2026-05-03T12:59:09.975Z</time></trkpt><trkpt lat="44.542877495971666" lon="12.15444482824667"><ele>2.8</ele><time>2026-05-03T12:59:11.975Z</time></trkpt><trkpt lat="44.54294087660803" lon="12.154494026462066"><ele>2.5999999999999996</ele><time>2026-05-03T12:59:14.975Z</time></trkpt><trkpt lat="44.543000733017436" lon="12.154547746104933"><ele>2.4000000000000004</ele><time>2026-05-03T12:59:20.975Z</time></trkpt><trkpt lat="44.54305825589022" lon="12.154594857444442"><ele>2.2</ele><time>2026-05-03T12:59:25.975Z</time></trkpt><trkpt lat="44.54317386800641" lon="12.154473212378635"><ele>2.0</ele><time>2026-05-03T12:59:29.975Z</time></trkpt><trkpt lat="44.543222599899835" lon="12.15432149904603"><ele>1.9999999999999998</ele><time>2026-05-03T12:59:31.975Z</time></trkpt><trkpt lat="44.54325331139749" lon="12.154225175179011"><ele>2.0</ele><time>2026-05-03T12:59:32.975Z</time></trkpt><trkpt lat="44.54328401882687" lon="12.154129548880263"><ele>2.0</ele><time>2026-05-03T12:59:33.975Z</time></trkpt><trkpt lat="44.543319900070074" lon="12.154020815958487"><ele>2.0</ele><time>2026-05-03T12:59:34.975Z</time></trkpt><trkpt lat="44.543354715106496" lon="12.153895288016974"><ele>1.9999999999999998</ele><time>2026-05-03T12:59:35.975Z</time></trkpt><trkpt lat="44.54339954002519" lon="12.15377352235115"><ele>2.0</ele><time>2026-05-03T12:59:36.975Z</time></trkpt><trkpt lat="44.54344220174498" lon="12.153637405385211"><ele>2.2</ele><time>2026-05-03T12:59:37.975Z</time></trkpt><trkpt lat="44.54348364755941" lon="12.153502678530206"><ele>2.4000000000000004</ele><time>2026-05-03T12:59:38.975Z</time></trkpt><trkpt lat="44.543524606908015" lon="12.153374693396113"><ele>2.5999999999999996</ele><time>2026-05-03T12:59:39.975Z</time></trkpt><trkpt lat="44.5435728919251" lon="12.15324108309201"><ele>2.8</ele><time>2026-05-03T12:59:40.975Z</time></trkpt><trkpt lat="44.543624113990454" lon="12.153114386577624"><ele>3.0</ele><time>2026-05-03T12:59:41.975Z</time></trkpt><trkpt lat="44.543680490595385" lon="12.15298011634869"><ele>2.5</ele><time>2026-05-03T12:59:42.975Z</time></trkpt><trkpt lat="44.54373720517413" lon="12.152841575437938"><ele>2.0</ele><time>2026-05-03T12:59:43.975Z</time></trkpt><trkpt lat="44.54379333614389" lon="12.152709453926501"><ele>1.5</ele><time>2026-05-03T12:59:44.975Z</time></trkpt><trkpt lat="44.543856660866005" lon="12.152560099045337"><ele>1.0</ele><time>2026-05-03T12:59:45.975Z</time></trkpt><trkpt lat="44.54391866651687" lon="12.152421273014548"><ele>1.2000000000000002</ele><time>2026-05-03T12:59:46.975Z</time></trkpt><trkpt lat="44.54398624479934" lon="12.152285820747094"><ele>1.4000000000000001</ele><time>2026-05-03T12:59:47.975Z</time></trkpt><trkpt lat="44.544054707512785" lon="12.152160082629909"><ele>1.6</ele><time>2026-05-03T12:59:48.975Z</time></trkpt><trkpt lat="44.544126582951954" lon="12.152035000114445"><ele>1.8</ele><time>2026-05-03T12:59:49.975Z</time></trkpt><trkpt lat="44.544188359587835" lon="12.151921918520944"><ele>2.0</ele><time>2026-05-03T12:59:50.975Z</time></trkpt><trkpt lat="44.54424963322462" lon="12.151809599153093"><ele>2.0</ele><time>2026-05-03T12:59:51.975Z</time></trkpt><trkpt lat="44.544306418405206" lon="12.151700956686499"><ele>2.0</ele><time>2026-05-03T12:59:52.975Z</time></trkpt><trkpt lat="44.54436192315979" lon="12.151589312141871"><ele>2.0</ele><time>2026-05-03T12:59:53.975Z</time></trkpt><trkpt lat="44.54443853803659" lon="12.151490084136544"><ele>2.0</ele><time>2026-05-03T12:59:54.975Z</time></trkpt><trkpt lat="44.54450409999241" lon="12.151375090913827"><ele>2.0</ele><time>2026-05-03T12:59:55.976Z</time></trkpt><trkpt lat="44.544573311159866" lon="12.151253765508187"><ele>1.8</ele><time>2026-05-03T12:59:56.976Z</time></trkpt><trkpt lat="44.544638814270584" lon="12.151139572977481"><ele>1.6</ele><time>2026-05-03T12:59:57.976Z</time></trkpt><trkpt lat="44.54470420282497" lon="12.151025580253709"><ele>1.4000000000000001</ele><time>2026-05-03T12:59:58.976Z</time></trkpt><trkpt lat="44.54476963487323" lon="12.150911511718675"><ele>1.2000000000000002</ele><time>2026-05-03T12:59:59.976Z</time></trkpt><trkpt lat="44.544836321972994" lon="12.150796509523802"><ele>1.0</ele><time>2026-05-03T13:00:00.976Z</time></trkpt><trkpt lat="44.544899065286344" lon="12.15068027182602"><ele>0.8</ele><time>2026-05-03T13:00:01.976Z</time></trkpt><trkpt lat="44.54496829596732" lon="12.150567622579178"><ele>0.6000000000000001</ele><time>2026-05-03T13:00:02.976Z</time></trkpt><trkpt lat="44.545036967861506" lon="12.150456788421106"><ele>0.4</ele><time>2026-05-03T13:00:03.976Z</time></trkpt><trkpt lat="44.54510272680569" lon="12.150345013346579"><ele>0.2</ele><time>2026-05-03T13:00:04.976Z</time></trkpt><trkpt lat="44.5451660549109" lon="12.150232127426976"><ele>0.0</ele><time>2026-05-03T13:00:05.976Z</time></trkpt><trkpt lat="44.54523300928086" lon="12.150115851257045"><ele>0.0</ele><time>2026-05-03T13:00:06.976Z</time></trkpt><trkpt lat="44.545301829128135" lon="12.150001385815434"><ele>0.0</ele><time>2026-05-03T13:00:07.976Z</time></trkpt><trkpt lat="44.54537510577257" lon="12.149885629660732"><ele>0.0</ele><time>2026-05-03T13:00:08.976Z</time></trkpt><trkpt lat="44.54543862864759" lon="12.149769814537546"><ele>0.0</ele><time>2026-05-03T13:00:09.976Z</time></trkpt><trkpt lat="44.54551443301023" lon="12.149652516807071"><ele>0.0</ele><time>2026-05-03T13:00:10.976Z</time></trkpt><trkpt lat="44.545591441979845" lon="12.149535359784476"><ele>0.25</ele><time>2026-05-03T13:00:11.976Z</time></trkpt><trkpt lat="44.545667732873795" lon="12.149417417037107"><ele>0.5</ele><time>2026-05-03T13:00:12.976Z</time></trkpt><trkpt lat="44.545746727774315" lon="12.149303393626415"><ele>0.75</ele><time>2026-05-03T13:00:13.976Z</time></trkpt><trkpt lat="44.54583259698853" lon="12.149193753953087"><ele>1.0</ele><time>2026-05-03T13:00:14.976Z</time></trkpt><trkpt lat="44.54591258669003" lon="12.14908274447154"><ele>1.0</ele><time>2026-05-03T13:00:15.976Z</time></trkpt><trkpt lat="44.545990012305765" lon="12.148977934900179"><ele>1.0</ele><time>2026-05-03T13:00:16.976Z</time></trkpt><trkpt lat="44.54606963263497" lon="12.148867483678409"><ele>1.0</ele><time>2026-05-03T13:00:17.976Z</time></trkpt><trkpt lat="44.5461500270704" lon="12.148764496066986"><ele>1.0</ele><time>2026-05-03T13:00:18.976Z</time></trkpt><trkpt lat="44.54623654819913" lon="12.148657911960186"><ele>1.0</ele><time>2026-05-03T13:00:19.976Z</time></trkpt><trkpt lat="44.546325780526985" lon="12.148559301599457"><ele>1.0</ele><time>2026-05-03T13:00:20.976Z</time></trkpt><trkpt lat="44.546422880784455" lon="12.148476426821764"><ele>1.0</ele><time>2026-05-03T13:00:21.976Z</time></trkpt><trkpt lat="44.54652303978465" lon="12.148403874873832"><ele>1.0</ele><time>2026-05-03T13:00:22.976Z</time></trkpt><trkpt lat="44.546620586833434" lon="12.148335641480974"><ele>1.0</ele><time>2026-05-03T13:00:23.976Z</time></trkpt><trkpt lat="44.546716055117656" lon="12.148267285465495"><ele>1.0</ele><time>2026-05-03T13:00:24.976Z</time></trkpt><trkpt lat="44.54679411915728" lon="12.148195323415857"><ele>0.8</ele><time>2026-05-03T13:00:25.976Z</time></trkpt><trkpt lat="44.546862946370155" lon="12.148103447926651"><ele>0.6000000000000001</ele><time>2026-05-03T13:00:26.976Z</time></trkpt><trkpt lat="44.5469035290717" lon="12.147984637658515"><ele>0.4</ele><time>2026-05-03T13:00:27.976Z</time></trkpt><trkpt lat="44.5469292859104" lon="12.147851837595905"><ele>0.2</ele><time>2026-05-03T13:00:28.976Z</time></trkpt><trkpt lat="44.546946180725264" lon="12.147725322659243"><ele>0.0</ele><time>2026-05-03T13:00:29.976Z</time></trkpt><trkpt lat="44.54697108184691" lon="12.147599915294776"><ele>0.0</ele><time>2026-05-03T13:00:30.976Z</time></trkpt><trkpt lat="44.54699682814395" lon="12.147467611064563"><ele>0.0</ele><time>2026-05-03T13:00:31.976Z</time></trkpt><trkpt lat="44.547047635286496" lon="12.147343831462889"><ele>0.0</ele><time>2026-05-03T13:00:32.976Z</time></trkpt><trkpt lat="44.54707591508143" lon="12.14720760668882"><ele>0.0</ele><time>2026-05-03T13:00:33.976Z</time></trkpt><trkpt lat="44.54711846627443" lon="12.147073693608917"><ele>0.0</ele><time>2026-05-03T13:00:34.976Z</time></trkpt><trkpt lat="44.54715762203482" lon="12.146941062004"><ele>-0.2</ele><time>2026-05-03T13:00:35.973Z</time></trkpt><trkpt lat="44.54719977044556" lon="12.14680043528134"><ele>-0.4</ele><time>2026-05-03T13:00:36.973Z</time></trkpt><trkpt lat="44.54725409772835" lon="12.146657565138964"><ele>-0.6000000000000001</ele><time>2026-05-03T13:00:37.973Z</time></trkpt><trkpt lat="44.54731541847241" lon="12.146526500783382"><ele>-0.8</ele><time>2026-05-03T13:00:38.973Z</time></trkpt><trkpt lat="44.54738266623433" lon="12.14641502976337"><ele>-1.0</ele><time>2026-05-03T13:00:39.973Z</time></trkpt><trkpt lat="44.547460850924054" lon="12.146361366645612"><ele>-0.6666666666666666</ele><time>2026-05-03T13:00:40.973Z</time></trkpt><trkpt lat="44.54752713132599" lon="12.146307034156095"><ele>-0.3333333333333333</ele><time>2026-05-03T13:00:41.973Z</time></trkpt><trkpt lat="44.54759253544414" lon="12.146259125821036"><ele>0.0</ele><time>2026-05-03T13:00:42.973Z</time></trkpt><trkpt lat="44.547656707351145" lon="12.146220296434763"><ele>0.3333333333333333</ele><time>2026-05-03T13:00:43.973Z</time></trkpt><trkpt lat="44.54775918712865" lon="12.146167379122858"><ele>0.6666666666666666</ele><time>2026-05-03T13:00:45.973Z</time></trkpt><trkpt lat="44.54782749412072" lon="12.146126798604756"><ele>1.0</ele><time>2026-05-03T13:00:48.972Z</time></trkpt><trkpt lat="44.547891733414396" lon="12.146101921013594"><ele>1.0</ele><time>2026-05-03T13:00:57.972Z</time></trkpt><trkpt lat="44.547957562456325" lon="12.14607447549543"><ele>0.9999999999999999</ele><time>2026-05-03T13:01:02.972Z</time></trkpt><trkpt lat="44.548021698128224" lon="12.146056854205822"><ele>1.0</ele><time>2026-05-03T13:01:10.972Z</time></trkpt><trkpt lat="44.54808722584263" lon="12.146036401712172"><ele>1.0</ele><time>2026-05-03T13:01:22.973Z</time></trkpt><trkpt lat="44.54815266336783" lon="12.146078254318596"><ele>0.9999999999999999</ele><time>2026-05-03T13:02:47.973Z</time></trkpt><trkpt lat="44.54820757196976" lon="12.146027980387544"><ele>1.0</ele><time>2026-05-03T13:02:53.973Z</time></trkpt><trkpt lat="44.54824975967592" lon="12.146154170686174"><ele>1.0</ele><time>2026-05-03T13:03:50.975Z</time></trkpt><trkpt lat="44.548199743905826" lon="12.14606732597435"><ele>1.0</ele><time>2026-05-03T13:04:22.976Z</time></trkpt><trkpt lat="44.5481351117057" lon="12.146042398801718"><ele>0.9999999999999999</ele><time>2026-05-03T13:04:28.976Z</time></trkpt><trkpt lat="44.54817140595068" lon="12.146115270268147"><ele>1.0</ele><time>2026-05-03T13:06:07.972Z</time></trkpt><trkpt lat="44.54822789535134" lon="12.14615882445702"><ele>1.0</ele><time>2026-05-03T13:06:15.972Z</time></trkpt><trkpt lat="44.54828485276817" lon="12.146226612685368"><ele>0.9999999999999999</ele><time>2026-05-03T13:06:24.972Z</time></trkpt><trkpt lat="44.54832756461518" lon="12.146293485207012"><ele>1.0</ele><time>2026-05-03T13:06:27.972Z</time></trkpt><trkpt lat="44.548367372181254" lon="12.146363003506066"><ele>1.0</ele><time>2026-05-03T13:06:30.972Z</time></trkpt><trkpt lat="44.5486051901937" lon="12.146895048085215"><ele>1.0</ele><time>2026-05-03T13:09:09.975Z</time></trkpt><trkpt lat="44.54864668152858" lon="12.14697384596375"><ele>0.9999999999999999</ele><time>2026-05-03T13:09:31.975Z</time></trkpt><trkpt lat="44.548660947471234" lon="12.147081698743218"><ele>1.0</ele><time>2026-05-03T13:09:35.976Z</time></trkpt><trkpt lat="44.548602229133586" lon="12.147148361935862"><ele>1.0</ele><time>2026-05-03T13:09:38.976Z</time></trkpt><trkpt lat="44.5485360300719" lon="12.14721549467898"><ele>0.9999999999999999</ele><time>2026-05-03T13:09:42.976Z</time></trkpt><trkpt lat="44.548480027451866" lon="12.147272876002543"><ele>1.0</ele><time>2026-05-03T13:09:44.976Z</time></trkpt><trkpt lat="44.54843453420576" lon="12.147352744723687"><ele>1.0</ele><time>2026-05-03T13:09:46.976Z</time></trkpt><trkpt lat="44.548388935477" lon="12.147461062810184"><ele>0.9999999999999999</ele><time>2026-05-03T13:09:49.976Z</time></trkpt><trkpt lat="44.54835417706775" lon="12.147567542773416"><ele>1.0</ele><time>2026-05-03T13:09:51.976Z</time></trkpt><trkpt lat="44.54832971596427" lon="12.147689002261535"><ele>1.0</ele><time>2026-05-03T13:09:53.976Z</time></trkpt><trkpt lat="44.548329725269554" lon="12.147817385478803"><ele>1.0</ele><time>2026-05-03T13:09:55.976Z</time></trkpt><trkpt lat="44.54835059203581" lon="12.147944391904502"><ele>0.9999999999999999</ele><time>2026-05-03T13:09:58.976Z</time></trkpt><trkpt lat="44.54838992452687" lon="12.148029658339395"><ele>1.0</ele><time>2026-05-03T13:10:01.976Z</time></trkpt><trkpt lat="44.548464504795355" lon="12.148068841435286"><ele>1.0</ele><time>2026-05-03T13:10:04.976Z</time></trkpt><trkpt lat="44.548452427503754" lon="12.14790127761941"><ele>1.0</ele><time>2026-05-03T13:12:37.976Z</time></trkpt><trkpt lat="44.54844846228857" lon="12.147790983181665"><ele>1.0</ele><time>2026-05-03T13:16:00.974Z</time></trkpt><trkpt lat="44.548438747758404" lon="12.147650832657204"><ele>1.0</ele><time>2026-05-03T13:16:02.974Z</time></trkpt><trkpt lat="44.54847515916005" lon="12.14753812428622"><ele>1.0</ele><time>2026-05-03T13:16:04.974Z</time></trkpt><trkpt lat="44.548523243122524" lon="12.147464262055722"><ele>0.9999999999999999</ele><time>2026-05-03T13:16:06.974Z</time></trkpt><trkpt lat="44.54856826966898" lon="12.147396763158987"><ele>1.0</ele><time>2026-05-03T13:16:08.974Z</time></trkpt><trkpt lat="44.54863631369942" lon="12.14732357981094"><ele>1.0</ele><time>2026-05-03T13:16:10.975Z</time></trkpt><trkpt lat="44.548703059025975" lon="12.147244429084468"><ele>1.0</ele><time>2026-05-03T13:16:12.975Z</time></trkpt><trkpt lat="44.54876156548463" lon="12.147175257828202"><ele>0.9999999999999999</ele><time>2026-05-03T13:16:14.975Z</time></trkpt><trkpt lat="44.548821491838524" lon="12.147095708294437"><ele>1.0</ele><time>2026-05-03T13:16:16.975Z</time></trkpt><trkpt lat="44.54888341772198" lon="12.147014730369152"><ele>0.8</ele><time>2026-05-03T13:16:18.975Z</time></trkpt><trkpt lat="44.548966909155105" lon="12.146916178401558"><ele>0.6000000000000001</ele><time>2026-05-03T13:16:20.975Z</time></trkpt><trkpt lat="44.54906807161215" lon="12.146811995499306"><ele>0.4</ele><time>2026-05-03T13:16:22.975Z</time></trkpt><trkpt lat="44.54914183483838" lon="12.146781774202212"><ele>0.2</ele><time>2026-05-03T13:16:23.975Z</time></trkpt><trkpt lat="44.549200146643365" lon="12.146727306494121"><ele>0.0</ele><time>2026-05-03T13:16:24.975Z</time></trkpt><trkpt lat="44.54925697631047" lon="12.146674636042578"><ele>0.0</ele><time>2026-05-03T13:16:25.975Z</time></trkpt><trkpt lat="44.54930500211216" lon="12.146605073529049"><ele>0.0</ele><time>2026-05-03T13:16:26.975Z</time></trkpt><trkpt lat="44.54936262559319" lon="12.14655188143921"><ele>0.0</ele><time>2026-05-03T13:16:27.975Z</time></trkpt><trkpt lat="44.54944120888713" lon="12.146508014457913"><ele>0.0</ele><time>2026-05-03T13:16:28.975Z</time></trkpt><trkpt lat="44.54951398804394" lon="12.146445520950413"><ele>0.0</ele><time>2026-05-03T13:16:29.975Z</time></trkpt><trkpt lat="44.549591190548995" lon="12.146380640260556"><ele>0.0</ele><time>2026-05-03T13:16:30.975Z</time></trkpt><trkpt lat="44.54967187901636" lon="12.14631103348256"><ele>0.6</ele><time>2026-05-03T13:16:31.975Z</time></trkpt><trkpt lat="44.54975482327834" lon="12.146242218011519"><ele>1.2</ele><time>2026-05-03T13:16:32.975Z</time></trkpt><trkpt lat="44.549838725796945" lon="12.146177221124336"><ele>1.7999999999999998</ele><time>2026-05-03T13:16:33.975Z</time></trkpt><trkpt lat="44.5499214124339" lon="12.14611086176453"><ele>2.4</ele><time>2026-05-03T13:16:34.975Z</time></trkpt><trkpt lat="44.55000352292503" lon="12.146042615221285"><ele>3.0</ele><time>2026-05-03T13:16:35.975Z</time></trkpt><trkpt lat="44.550084037429706" lon="12.145975549894032"><ele>3.0</ele><time>2026-05-03T13:16:36.975Z</time></trkpt><trkpt lat="44.55016156273342" lon="12.145910643756148"><ele>3.0</ele><time>2026-05-03T13:16:37.975Z</time></trkpt><trkpt lat="44.55023655878536" lon="12.145843089585952"><ele>3.0</ele><time>2026-05-03T13:16:38.975Z</time></trkpt><trkpt lat="44.55030497152825" lon="12.145772369477907"><ele>3.0</ele><time>2026-05-03T13:16:39.975Z</time></trkpt><trkpt lat="44.55037087835914" lon="12.145706572546336"><ele>3.0</ele><time>2026-05-03T13:16:40.975Z</time></trkpt><trkpt lat="44.55043434072931" lon="12.14564127040444"><ele>3.0</ele><time>2026-05-03T13:16:41.975Z</time></trkpt><trkpt lat="44.55049521558799" lon="12.14557638712083"><ele>3.0</ele><time>2026-05-03T13:16:42.975Z</time></trkpt><trkpt lat="44.55055102457084" lon="12.145512178336261"><ele>3.0</ele><time>2026-05-03T13:16:43.975Z</time></trkpt><trkpt lat="44.55060576540992" lon="12.145449864982353"><ele>3.0</ele><time>2026-05-03T13:16:44.975Z</time></trkpt><trkpt lat="44.55065406027562" lon="12.145389698025541"><ele>3.0</ele><time>2026-05-03T13:16:45.975Z</time></trkpt><trkpt lat="44.55072158204992" lon="12.145333750599805"><ele>3.0</ele><time>2026-05-03T13:16:46.975Z</time></trkpt><trkpt lat="44.550772574964455" lon="12.145271321025808"><ele>3.0</ele><time>2026-05-03T13:16:47.975Z</time></trkpt><trkpt lat="44.55086121946111" lon="12.145153956997023"><ele>3.0</ele><time>2026-05-03T13:16:49.975Z</time></trkpt><trkpt lat="44.55094245602268" lon="12.145041804304132"><ele>3.0</ele><time>2026-05-03T13:16:51.975Z</time></trkpt><trkpt lat="44.5510273293327" lon="12.144951847370395"><ele>3.0</ele><time>2026-05-03T13:16:53.976Z</time></trkpt><trkpt lat="44.551093209148036" lon="12.144856952630475"><ele>3.0</ele><time>2026-05-03T13:16:55.976Z</time></trkpt><trkpt lat="44.55113732977928" lon="12.144791757320153"><ele>3.0</ele><time>2026-05-03T13:16:57.976Z</time></trkpt><trkpt lat="44.55119093922664" lon="12.144721750762084"><ele>2.6666666666666665</ele><time>2026-05-03T13:17:01.976Z</time></trkpt><trkpt lat="44.55123093193811" lon="12.144649335127331"><ele>2.3333333333333335</ele><time>2026-05-03T13:17:05.976Z</time></trkpt><trkpt lat="44.55128300277638" lon="12.144553703421366"><ele>2.0</ele><time>2026-05-03T13:17:07.976Z</time></trkpt><trkpt lat="44.55134813189528" lon="12.144437966295481"><ele>1.6666666666666665</ele><time>2026-05-03T13:17:09.976Z</time></trkpt><trkpt lat="44.55138660253659" lon="12.144362339036459"><ele>1.3333333333333333</ele><time>2026-05-03T13:17:10.976Z</time></trkpt><trkpt lat="44.55143056709225" lon="12.144270362001087"><ele>1.0</ele><time>2026-05-03T13:17:11.976Z</time></trkpt><trkpt lat="44.55148114908027" lon="12.144162993789209"><ele>0.9999999999999999</ele><time>2026-05-03T13:17:12.976Z</time></trkpt><trkpt lat="44.551525410763254" lon="12.144051264089338"><ele>1.0</ele><time>2026-05-03T13:17:13.976Z</time></trkpt><trkpt lat="44.55156719046144" lon="12.14394910088356"><ele>1.0</ele><time>2026-05-03T13:17:14.976Z</time></trkpt><trkpt lat="44.55161168942983" lon="12.143843346104603"><ele>1.0</ele><time>2026-05-03T13:17:15.976Z</time></trkpt><trkpt lat="44.55164882186922" lon="12.143736397935134"><ele>0.9999999999999999</ele><time>2026-05-03T13:17:16.976Z</time></trkpt><trkpt lat="44.55168684238701" lon="12.14363398089435"><ele>1.0</ele><time>2026-05-03T13:17:17.976Z</time></trkpt><trkpt lat="44.55172383108703" lon="12.143533488297455"><ele>1.1666666666666665</ele><time>2026-05-03T13:17:18.976Z</time></trkpt><trkpt lat="44.55175481925464" lon="12.143437646932341"><ele>1.3333333333333333</ele><time>2026-05-03T13:17:19.976Z</time></trkpt><trkpt lat="44.55178375467646" lon="12.143345410134813"><ele>1.5</ele><time>2026-05-03T13:17:20.976Z</time></trkpt><trkpt lat="44.55182481601281" lon="12.143184610238936"><ele>1.6666666666666665</ele><time>2026-05-03T13:17:22.976Z</time></trkpt><trkpt lat="44.55187021160812" lon="12.143071432798218"><ele>1.8333333333333333</ele><time>2026-05-03T13:17:24.972Z</time></trkpt><trkpt lat="44.55189484983287" lon="12.142965428922084"><ele>2.0</ele><time>2026-05-03T13:17:26.973Z</time></trkpt><trkpt lat="44.5519144363459" lon="12.14285651774097"><ele>2.1666666666666665</ele><time>2026-05-03T13:17:29.972Z</time></trkpt><trkpt lat="44.55193399420593" lon="12.142757673016261"><ele>2.333333333333333</ele><time>2026-05-03T13:17:39.972Z</time></trkpt><trkpt lat="44.551971427447654" lon="12.142683641014798"><ele>2.5</ele><time>2026-05-03T13:17:44.972Z</time></trkpt><trkpt lat="44.551959204576406" lon="12.14258551757619"><ele>2.6666666666666665</ele><time>2026-05-03T13:18:58.974Z</time></trkpt><trkpt lat="44.55197291564959" lon="12.142460986003886"><ele>2.8333333333333335</ele><time>2026-05-03T13:19:02.974Z</time></trkpt><trkpt lat="44.55199591187274" lon="12.142344026912479"><ele>3.0</ele><time>2026-05-03T13:19:04.974Z</time></trkpt><trkpt lat="44.552012570100004" lon="12.142208257711978"><ele>3.0</ele><time>2026-05-03T13:19:06.974Z</time></trkpt><trkpt lat="44.552024368455655" lon="12.142035658518335"><ele>3.0</ele><time>2026-05-03T13:19:08.974Z</time></trkpt><trkpt lat="44.55202804062954" lon="12.141935303561274"><ele>3.0</ele><time>2026-05-03T13:19:09.974Z</time></trkpt><trkpt lat="44.55202887258856" lon="12.141830258364593"><ele>3.0</ele><time>2026-05-03T13:19:10.974Z</time></trkpt><trkpt lat="44.552025580732995" lon="12.141718371416903"><ele>3.0</ele><time>2026-05-03T13:19:11.974Z</time></trkpt><trkpt lat="44.55202125687639" lon="12.141609953008194"><ele>3.0</ele><time>2026-05-03T13:19:12.974Z</time></trkpt><trkpt lat="44.5520162176573" lon="12.141497902387853"><ele>2.8333333333333335</ele><time>2026-05-03T13:19:13.974Z</time></trkpt><trkpt lat="44.55200973990102" lon="12.14138604186835"><ele>2.6666666666666665</ele><time>2026-05-03T13:19:14.974Z</time></trkpt><trkpt lat="44.55200272044831" lon="12.141277401660124"><ele>2.5</ele><time>2026-05-03T13:19:15.974Z</time></trkpt><trkpt lat="44.55199504438885" lon="12.141167457611852"><ele>2.333333333333333</ele><time>2026-05-03T13:19:16.974Z</time></trkpt><trkpt lat="44.551985959345515" lon="12.141059518051508"><ele>2.1666666666666665</ele><time>2026-05-03T13:19:17.974Z</time></trkpt><trkpt lat="44.551976419371904" lon="12.140952640321675"><ele>2.0</ele><time>2026-05-03T13:19:18.974Z</time></trkpt><trkpt lat="44.551967900428224" lon="12.140844336593908"><ele>2.0</ele><time>2026-05-03T13:19:19.974Z</time></trkpt><trkpt lat="44.551959336208704" lon="12.140736602401866"><ele>1.9999999999999998</ele><time>2026-05-03T13:19:20.975Z</time></trkpt><trkpt lat="44.55194993264882" lon="12.140629391773777"><ele>2.0</ele><time>2026-05-03T13:19:21.975Z</time></trkpt><trkpt lat="44.55193892571234" lon="12.140530174294662"><ele>2.0</ele><time>2026-05-03T13:19:22.975Z</time></trkpt><trkpt lat="44.55192791074306" lon="12.14043248928018"><ele>1.9999999999999998</ele><time>2026-05-03T13:19:23.975Z</time></trkpt><trkpt lat="44.55191437934938" lon="12.140341977592707"><ele>2.0</ele><time>2026-05-03T13:19:24.975Z</time></trkpt><trkpt lat="44.55189944667709" lon="12.140250776346116"><ele>2.0</ele><time>2026-05-03T13:19:25.975Z</time></trkpt><trkpt lat="44.55188058016921" lon="12.140155170994081"><ele>4.0</ele><time>2026-05-03T13:19:26.975Z</time></trkpt><trkpt lat="44.55186089313695" lon="12.14006220673485"><ele>4.0</ele><time>2026-05-03T13:19:27.975Z</time></trkpt><trkpt lat="44.55185916961453" lon="12.139963624707395"><ele>4.0</ele><time>2026-05-03T13:19:28.975Z</time></trkpt><trkpt lat="44.551824193059495" lon="12.139806591858708"><ele>2.0</ele><time>2026-05-03T13:19:30.97Z</time></trkpt><trkpt lat="44.55180627966012" lon="12.13971861384205"><ele>2.0</ele><time>2026-05-03T13:19:32.97Z</time></trkpt><trkpt lat="44.55179940187814" lon="12.139614241890568"><ele>2.0</ele><time>2026-05-03T13:19:35.97Z</time></trkpt></trkseg></trk></gpx>